<?xml version="1.0" encoding="UTF-8" standalone="no" ?>
<gpx xmlns="http://www.topografix.com/GPX/1/1" xmlns:xsi="http://www.w3.org/2001/XMLSchema-instance" xsi:schemaLocation="http://www.topografix.com/GPX/1/1 http://www.topografix.com/GPX/1/1/gpx.xsd" version="1.1" creator="VisuGPX - https://www.visugpx.com">
  <metadata>
    <name>Baltic States</name>
  </metadata>
  <trk>
    <name><![CDATA[2_Rīga à Vilnius: 480km]]></name>
    <trkseg>
      <trkpt lat="56.94945" lon="24.10524">
        <ele>12.039849</ele>
        <time>2020-10-06T12:37:20.321Z</time>
      </trkpt>
      <trkpt lat="56.94953" lon="24.10501">
        <ele>12.039849</ele>
        <time>2020-10-06T12:37:31.167Z</time>
      </trkpt>
      <trkpt lat="56.94936" lon="24.10483">
        <ele>12.039849</ele>
        <time>2020-10-06T12:37:45.100Z</time>
      </trkpt>
      <trkpt lat="56.94934" lon="24.10482">
        <ele>12.039849</ele>
        <time>2020-10-06T12:37:46.047Z</time>
      </trkpt>
      <trkpt lat="56.94939" lon="24.10457">
        <ele>12.039849</ele>
        <time>2020-10-06T12:37:56.118Z</time>
      </trkpt>
      <trkpt lat="56.94937" lon="24.10456">
        <ele>12.039849</ele>
        <time>2020-10-06T12:37:57.440Z</time>
      </trkpt>
      <trkpt lat="56.94937" lon="24.10452">
        <ele>12.039849</ele>
        <time>2020-10-06T12:37:59.266Z</time>
      </trkpt>
      <trkpt lat="56.94932" lon="24.10441">
        <ele>12.039849</ele>
        <time>2020-10-06T12:38:04.438Z</time>
      </trkpt>
      <trkpt lat="56.94933" lon="24.10421">
        <ele>12.039849</ele>
        <time>2020-10-06T12:38:12.336Z</time>
      </trkpt>
      <trkpt lat="56.94937" lon="24.10415">
        <ele>12.039849</ele>
        <time>2020-10-06T12:38:15.589Z</time>
      </trkpt>
      <trkpt lat="56.94925" lon="24.10404">
        <ele>11.94535</ele>
        <time>2020-10-06T12:38:17.951Z</time>
      </trkpt>
      <trkpt lat="56.94907" lon="24.10387">
        <ele>11.27828</ele>
        <time>2020-10-06T12:38:21.450Z</time>
      </trkpt>
      <trkpt lat="56.94881" lon="24.10353">
        <ele>10.250496</ele>
        <time>2020-10-06T12:38:26.882Z</time>
      </trkpt>
      <trkpt lat="56.94875" lon="24.10337">
        <ele>9.908619</ele>
        <time>2020-10-06T12:38:28.785Z</time>
      </trkpt>
      <trkpt lat="56.94868" lon="24.10321">
        <ele>9.545533</ele>
        <time>2020-10-06T12:38:30.709Z</time>
      </trkpt>
      <trkpt lat="56.94856" lon="24.10297">
        <ele>8.95696</ele>
        <time>2020-10-06T12:38:33.762Z</time>
      </trkpt>
      <trkpt lat="56.94842" lon="24.10265">
        <ele>8.221237</ele>
        <time>2020-10-06T12:38:37.585Z</time>
      </trkpt>
      <trkpt lat="56.94832" lon="24.10242">
        <ele>7.699468</ele>
        <time>2020-10-06T12:38:40.244Z</time>
      </trkpt>
      <trkpt lat="56.94827" lon="24.10247">
        <ele>7.521841</ele>
        <time>2020-10-06T12:38:44.013Z</time>
      </trkpt>
      <trkpt lat="56.94825" lon="24.10242">
        <ele>7.423753</ele>
        <time>2020-10-06T12:38:46.087Z</time>
      </trkpt>
      <trkpt lat="56.94823" lon="24.10241">
        <ele>7.333493</ele>
        <time>2020-10-06T12:38:48.014Z</time>
      </trkpt>
      <trkpt lat="56.94821" lon="24.1024">
        <ele>7.277792</ele>
        <time>2020-10-06T12:38:49.159Z</time>
      </trkpt>
      <trkpt lat="56.94817" lon="24.10228">
        <ele>7.022406</ele>
        <time>2020-10-06T12:38:54.620Z</time>
      </trkpt>
      <trkpt lat="56.94814" lon="24.10221">
        <ele>6.867171</ele>
        <time>2020-10-06T12:38:57.941Z</time>
      </trkpt>
      <trkpt lat="56.94813" lon="24.10216">
        <ele>6.760578</ele>
        <time>2020-10-06T12:39:00.214Z</time>
      </trkpt>
      <trkpt lat="56.94811" lon="24.10217">
        <ele>6.687728</ele>
        <time>2020-10-06T12:39:00.584Z</time>
      </trkpt>
      <trkpt lat="56.94787" lon="24.10243">
        <ele>5.901333</ele>
        <time>2020-10-06T12:39:04.943Z</time>
      </trkpt>
      <trkpt lat="56.94761" lon="24.10268">
        <ele>5.255488</ele>
        <time>2020-10-06T12:39:09.537Z</time>
      </trkpt>
      <trkpt lat="56.94744" lon="24.10284">
        <ele>4.844314</ele>
        <time>2020-10-06T12:39:12.505Z</time>
      </trkpt>
      <trkpt lat="56.94723" lon="24.10304">
        <ele>4.305299</ele>
        <time>2020-10-06T12:39:16.585Z</time>
      </trkpt>
      <trkpt lat="56.94683" lon="24.10338">
        <ele>3.345905</ele>
        <time>2020-10-06T12:39:24.372Z</time>
      </trkpt>
      <trkpt lat="56.94659" lon="24.10372">
        <ele>2.66359</ele>
        <time>2020-10-06T12:39:30.560Z</time>
      </trkpt>
      <trkpt lat="56.94629" lon="24.10418">
        <ele>2.159227</ele>
        <time>2020-10-06T12:39:38.548Z</time>
      </trkpt>
      <trkpt lat="56.9461" lon="24.10448">
        <ele>2.136878</ele>
        <time>2020-10-06T12:39:43.789Z</time>
      </trkpt>
      <trkpt lat="56.94577" lon="24.10505">
        <ele>2.095952</ele>
        <time>2020-10-06T12:39:53.912Z</time>
      </trkpt>
      <trkpt lat="56.94565" lon="24.10525">
        <ele>2.081342</ele>
        <time>2020-10-06T12:39:57.565Z</time>
      </trkpt>
      <trkpt lat="56.94556" lon="24.10544">
        <ele>2.068461</ele>
        <time>2020-10-06T12:40:00.840Z</time>
      </trkpt>
      <trkpt lat="56.94533" lon="24.10593">
        <ele>2.036825</ele>
        <time>2020-10-06T12:40:08.910Z</time>
      </trkpt>
      <trkpt lat="56.94525" lon="24.10616">
        <ele>2.023244</ele>
        <time>2020-10-06T12:40:12.355Z</time>
      </trkpt>
      <trkpt lat="56.94514" lon="24.10646">
        <ele>1.995751</ele>
        <time>2020-10-06T12:40:17.080Z</time>
      </trkpt>
      <trkpt lat="56.94503" lon="24.1068">
        <ele>1.94811</ele>
        <time>2020-10-06T12:40:21.815Z</time>
      </trkpt>
      <trkpt lat="56.94496" lon="24.10708">
        <ele>1.909135</ele>
        <time>2020-10-06T12:40:25.637Z</time>
      </trkpt>
      <trkpt lat="56.94476" lon="24.10769">
        <ele>1.823024</ele>
        <time>2020-10-06T12:40:33.918Z</time>
      </trkpt>
      <trkpt lat="56.94442" lon="24.1085">
        <ele>1.696416</ele>
        <time>2020-10-06T12:40:45.723Z</time>
      </trkpt>
      <trkpt lat="56.94423" lon="24.10882">
        <ele>1.639109</ele>
        <time>2020-10-06T12:40:51.242Z</time>
      </trkpt>
      <trkpt lat="56.94411" lon="24.10894">
        <ele>1.6093</ele>
        <time>2020-10-06T12:40:53.712Z</time>
      </trkpt>
      <trkpt lat="56.94369" lon="24.10963">
        <ele>1.460941</ele>
        <time>2020-10-06T12:41:05.699Z</time>
      </trkpt>
      <trkpt lat="56.94359" lon="24.10984">
        <ele>1.421444</ele>
        <time>2020-10-06T12:41:08.525Z</time>
      </trkpt>
      <trkpt lat="56.94354" lon="24.10996">
        <ele>1.398764</ele>
        <time>2020-10-06T12:41:10.538Z</time>
      </trkpt>
      <trkpt lat="56.94343" lon="24.11023">
        <ele>1.350756</ele>
        <time>2020-10-06T12:41:14.499Z</time>
      </trkpt>
      <trkpt lat="56.9431" lon="24.11105">
        <ele>1.203823</ele>
        <time>2020-10-06T12:41:26.214Z</time>
      </trkpt>
      <trkpt lat="56.94296" lon="24.11139">
        <ele>1.142917</ele>
        <time>2020-10-06T12:41:31.241Z</time>
      </trkpt>
      <trkpt lat="56.94283" lon="24.11171">
        <ele>1.203814</ele>
        <time>2020-10-06T12:41:36.549Z</time>
      </trkpt>
      <trkpt lat="56.94215" lon="24.11337">
        <ele>1.61146</ele>
        <time>2020-10-06T12:42:03.308Z</time>
      </trkpt>
      <trkpt lat="56.94066" lon="24.11693">
        <ele>2.859796</ele>
        <time>2020-10-06T12:43:03.494Z</time>
      </trkpt>
      <trkpt lat="56.94064" lon="24.11699">
        <ele>2.871721</ele>
        <time>2020-10-06T12:43:04.909Z</time>
      </trkpt>
      <trkpt lat="56.94058" lon="24.11692">
        <ele>2.890215</ele>
        <time>2020-10-06T12:43:09.377Z</time>
      </trkpt>
      <trkpt lat="56.94022" lon="24.11783">
        <ele>3.067647</ele>
        <time>2020-10-06T12:43:28.563Z</time>
      </trkpt>
      <trkpt lat="56.9395" lon="24.11997">
        <ele>3.157112</ele>
        <time>2020-10-06T12:44:09.179Z</time>
      </trkpt>
      <trkpt lat="56.93882" lon="24.12177">
        <ele>2.702814</ele>
        <time>2020-10-06T12:44:42.017Z</time>
      </trkpt>
      <trkpt lat="56.93825" lon="24.12289">
        <ele>2.376646</ele>
        <time>2020-10-06T12:45:05.019Z</time>
      </trkpt>
      <trkpt lat="56.93799" lon="24.12357">
        <ele>2.197299</ele>
        <time>2020-10-06T12:45:17.875Z</time>
      </trkpt>
      <trkpt lat="56.93761" lon="24.12506">
        <ele>1.891968</ele>
        <time>2020-10-06T12:45:43.111Z</time>
      </trkpt>
      <trkpt lat="56.93713" lon="24.12625">
        <ele>1.730357</ele>
        <time>2020-10-06T12:46:05.893Z</time>
      </trkpt>
      <trkpt lat="56.93712" lon="24.12631">
        <ele>1.72365</ele>
        <time>2020-10-06T12:46:06.869Z</time>
      </trkpt>
      <trkpt lat="56.93703" lon="24.12646">
        <ele>1.69973</ele>
        <time>2020-10-06T12:46:09.375Z</time>
      </trkpt>
      <trkpt lat="56.93672" lon="24.12714">
        <ele>1.602989</ele>
        <time>2020-10-06T12:46:20.163Z</time>
      </trkpt>
      <trkpt lat="56.93673" lon="24.12729">
        <ele>1.586237</ele>
        <time>2020-10-06T12:46:22.012Z</time>
      </trkpt>
      <trkpt lat="56.93675" lon="24.12738">
        <ele>1.587245</ele>
        <time>2020-10-06T12:46:23.099Z</time>
      </trkpt>
      <trkpt lat="56.9368" lon="24.1276">
        <ele>1.615857</ele>
        <time>2020-10-06T12:46:25.912Z</time>
      </trkpt>
      <trkpt lat="56.93694" lon="24.12817">
        <ele>1.692679</ele>
        <time>2020-10-06T12:46:33.737Z</time>
      </trkpt>
      <trkpt lat="56.93708" lon="24.12872">
        <ele>1.766391</ele>
        <time>2020-10-06T12:46:41.302Z</time>
      </trkpt>
      <trkpt lat="56.93709" lon="24.12899">
        <ele>1.800112</ele>
        <time>2020-10-06T12:46:44.995Z</time>
      </trkpt>
      <trkpt lat="56.937" lon="24.12935">
        <ele>1.84822</ele>
        <time>2020-10-06T12:46:50.072Z</time>
      </trkpt>
      <trkpt lat="56.93693" lon="24.12946">
        <ele>1.869432</ele>
        <time>2020-10-06T12:46:52.465Z</time>
      </trkpt>
      <trkpt lat="56.93685" lon="24.12962">
        <ele>1.894767</ele>
        <time>2020-10-06T12:46:55.167Z</time>
      </trkpt>
      <trkpt lat="56.93608" lon="24.13124">
        <ele>2.032654</ele>
        <time>2020-10-06T12:47:22.730Z</time>
      </trkpt>
      <trkpt lat="56.93602" lon="24.13171">
        <ele>2.049723</ele>
        <time>2020-10-06T12:47:29.047Z</time>
      </trkpt>
      <trkpt lat="56.936" lon="24.13178">
        <ele>2.052344</ele>
        <time>2020-10-06T12:47:30.060Z</time>
      </trkpt>
      <trkpt lat="56.93598" lon="24.13186">
        <ele>2.055587</ele>
        <time>2020-10-06T12:47:31.003Z</time>
      </trkpt>
      <trkpt lat="56.93595" lon="24.13233">
        <ele>2.072045</ele>
        <time>2020-10-06T12:47:36.688Z</time>
      </trkpt>
      <trkpt lat="56.93598" lon="24.13307">
        <ele>2.098148</ele>
        <time>2020-10-06T12:47:45.434Z</time>
      </trkpt>
      <trkpt lat="56.93595" lon="24.13345">
        <ele>1.991108</ele>
        <time>2020-10-06T12:47:49.779Z</time>
      </trkpt>
      <trkpt lat="56.93585" lon="24.13392">
        <ele>1.854705</ele>
        <time>2020-10-06T12:47:55.259Z</time>
      </trkpt>
      <trkpt lat="56.9356" lon="24.13458">
        <ele>1.634233</ele>
        <time>2020-10-06T12:48:04.173Z</time>
      </trkpt>
      <trkpt lat="56.93558" lon="24.13473">
        <ele>1.592222</ele>
        <time>2020-10-06T12:48:05.914Z</time>
      </trkpt>
      <trkpt lat="56.93528" lon="24.13585">
        <ele>1.248434</ele>
        <time>2020-10-06T12:48:19.952Z</time>
      </trkpt>
      <trkpt lat="56.93517" lon="24.13619">
        <ele>1.162007</ele>
        <time>2020-10-06T12:48:24.318Z</time>
      </trkpt>
      <trkpt lat="56.93451" lon="24.13811">
        <ele>0.802333</ele>
        <time>2020-10-06T12:48:50.386Z</time>
      </trkpt>
      <trkpt lat="56.93448" lon="24.13832">
        <ele>0.767872</ele>
        <time>2020-10-06T12:48:52.922Z</time>
      </trkpt>
      <trkpt lat="56.93448" lon="24.13851">
        <ele>0.738027</ele>
        <time>2020-10-06T12:48:55.115Z</time>
      </trkpt>
      <trkpt lat="56.9345" lon="24.13869">
        <ele>0.709912</ele>
        <time>2020-10-06T12:48:57.324Z</time>
      </trkpt>
      <trkpt lat="56.93427" lon="24.13946">
        <ele>0.675554</ele>
        <time>2020-10-06T12:49:08.162Z</time>
      </trkpt>
      <trkpt lat="56.9342" lon="24.13952">
        <ele>0.67689</ele>
        <time>2020-10-06T12:49:09.945Z</time>
      </trkpt>
      <trkpt lat="56.93413" lon="24.13962">
        <ele>0.678274</ele>
        <time>2020-10-06T12:49:11.840Z</time>
      </trkpt>
      <trkpt lat="56.93294" lon="24.14416">
        <ele>0.630989</ele>
        <time>2020-10-06T12:50:13.275Z</time>
      </trkpt>
      <trkpt lat="56.9329" lon="24.14431">
        <ele>0.626447</ele>
        <time>2020-10-06T12:50:15.306Z</time>
      </trkpt>
      <trkpt lat="56.93287" lon="24.14441">
        <ele>0.623699</ele>
        <time>2020-10-06T12:50:16.647Z</time>
      </trkpt>
      <trkpt lat="56.93285" lon="24.14452">
        <ele>0.620587</ele>
        <time>2020-10-06T12:50:18.014Z</time>
      </trkpt>
      <trkpt lat="56.93236" lon="24.14631">
        <ele>0.598846</ele>
        <time>2020-10-06T12:50:41.866Z</time>
      </trkpt>
      <trkpt lat="56.93233" lon="24.14643">
        <ele>0.597707</ele>
        <time>2020-10-06T12:50:43.342Z</time>
      </trkpt>
      <trkpt lat="56.93229" lon="24.1466">
        <ele>0.596049</ele>
        <time>2020-10-06T12:50:45.661Z</time>
      </trkpt>
      <trkpt lat="56.93211" lon="24.14734">
        <ele>0.588791</ele>
        <time>2020-10-06T12:50:55.552Z</time>
      </trkpt>
      <trkpt lat="56.93167" lon="24.14863">
        <ele>0.849021</ele>
        <time>2020-10-06T12:51:14.761Z</time>
      </trkpt>
      <trkpt lat="56.93147" lon="24.14904">
        <ele>0.979263</ele>
        <time>2020-10-06T12:51:22.064Z</time>
      </trkpt>
      <trkpt lat="56.93133" lon="24.14931">
        <ele>1.065131</ele>
        <time>2020-10-06T12:51:26.928Z</time>
      </trkpt>
      <trkpt lat="56.93131" lon="24.14934">
        <ele>1.075737</ele>
        <time>2020-10-06T12:51:27.523Z</time>
      </trkpt>
      <trkpt lat="56.93125" lon="24.14947">
        <ele>1.115674</ele>
        <time>2020-10-06T12:51:29.823Z</time>
      </trkpt>
      <trkpt lat="56.93099" lon="24.14998">
        <ele>1.278418</ele>
        <time>2020-10-06T12:51:39.300Z</time>
      </trkpt>
      <trkpt lat="56.9307" lon="24.15054">
        <ele>1.494592</ele>
        <time>2020-10-06T12:51:49.816Z</time>
      </trkpt>
      <trkpt lat="56.93034" lon="24.15123">
        <ele>1.799675</ele>
        <time>2020-10-06T12:52:03.182Z</time>
      </trkpt>
      <trkpt lat="56.93004" lon="24.15177">
        <ele>2.044766</ele>
        <time>2020-10-06T12:52:13.528Z</time>
      </trkpt>
      <trkpt lat="56.93001" lon="24.15184">
        <ele>2.075502</ele>
        <time>2020-10-06T12:52:14.798Z</time>
      </trkpt>
      <trkpt lat="56.92934" lon="24.15309">
        <ele>2.392092</ele>
        <time>2020-10-06T12:52:37.621Z</time>
      </trkpt>
      <trkpt lat="56.92897" lon="24.15375">
        <ele>2.378035</ele>
        <time>2020-10-06T12:52:49.223Z</time>
      </trkpt>
      <trkpt lat="56.92827" lon="24.15504">
        <ele>2.333456</ele>
        <time>2020-10-06T12:53:10.419Z</time>
      </trkpt>
      <trkpt lat="56.92622" lon="24.15872">
        <ele>1.984015</ele>
        <time>2020-10-06T12:54:12.092Z</time>
      </trkpt>
      <trkpt lat="56.92616" lon="24.15885">
        <ele>1.982385</ele>
        <time>2020-10-06T12:54:14.215Z</time>
      </trkpt>
      <trkpt lat="56.92611" lon="24.15899">
        <ele>1.980815</ele>
        <time>2020-10-06T12:54:16.436Z</time>
      </trkpt>
      <trkpt lat="56.92529" lon="24.16065">
        <ele>2.372466</ele>
        <time>2020-10-06T12:54:45.276Z</time>
      </trkpt>
      <trkpt lat="56.92526" lon="24.16068">
        <ele>2.393689</ele>
        <time>2020-10-06T12:54:46.363Z</time>
      </trkpt>
      <trkpt lat="56.92453" lon="24.16222">
        <ele>2.936217</ele>
        <time>2020-10-06T12:55:13.968Z</time>
      </trkpt>
      <trkpt lat="56.92446" lon="24.16237">
        <ele>2.969991</ele>
        <time>2020-10-06T12:55:16.659Z</time>
      </trkpt>
      <trkpt lat="56.92408" lon="24.16317">
        <ele>3.143263</ele>
        <time>2020-10-06T12:55:35.016Z</time>
      </trkpt>
      <trkpt lat="56.92369" lon="24.164">
        <ele>3.322114</ele>
        <time>2020-10-06T12:55:53.284Z</time>
      </trkpt>
      <trkpt lat="56.92353" lon="24.16434">
        <ele>3.396815</ele>
        <time>2020-10-06T12:56:00.480Z</time>
      </trkpt>
      <trkpt lat="56.92357" lon="24.1644">
        <ele>3.412515</ele>
        <time>2020-10-06T12:56:01.602Z</time>
      </trkpt>
      <trkpt lat="56.92342" lon="24.16474">
        <ele>3.335446</ele>
        <time>2020-10-06T12:56:06.786Z</time>
      </trkpt>
      <trkpt lat="56.92314" lon="24.16533">
        <ele>3.052169</ele>
        <time>2020-10-06T12:56:15.392Z</time>
      </trkpt>
      <trkpt lat="56.9231" lon="24.16539">
        <ele>3.015053</ele>
        <time>2020-10-06T12:56:16.493Z</time>
      </trkpt>
      <trkpt lat="56.92305" lon="24.16543">
        <ele>2.98192</ele>
        <time>2020-10-06T12:56:17.466Z</time>
      </trkpt>
      <trkpt lat="56.923" lon="24.16546">
        <ele>2.944827</ele>
        <time>2020-10-06T12:56:18.539Z</time>
      </trkpt>
      <trkpt lat="56.92294" lon="24.16547">
        <ele>2.904426</ele>
        <time>2020-10-06T12:56:19.712Z</time>
      </trkpt>
      <trkpt lat="56.92217" lon="24.16545">
        <ele>2.386113</ele>
        <time>2020-10-06T12:56:34.864Z</time>
      </trkpt>
      <trkpt lat="56.9213" lon="24.16542">
        <ele>2.057532</ele>
        <time>2020-10-06T12:56:52.150Z</time>
      </trkpt>
      <trkpt lat="56.92114" lon="24.16536">
        <ele>2.011842</ele>
        <time>2020-10-06T12:56:55.573Z</time>
      </trkpt>
      <trkpt lat="56.92107" lon="24.16529">
        <ele>1.990255</ele>
        <time>2020-10-06T12:56:57.102Z</time>
      </trkpt>
      <trkpt lat="56.92097" lon="24.16516">
        <ele>1.95683</ele>
        <time>2020-10-06T12:56:59.673Z</time>
      </trkpt>
      <trkpt lat="56.91962" lon="24.16312">
        <ele>1.793597</ele>
        <time>2020-10-06T12:57:40.084Z</time>
      </trkpt>
      <trkpt lat="56.91858" lon="24.16133">
        <ele>2.015767</ele>
        <time>2020-10-06T12:58:11.463Z</time>
      </trkpt>
      <trkpt lat="56.91847" lon="24.16113">
        <ele>2.061377</ele>
        <time>2020-10-06T12:58:14.905Z</time>
      </trkpt>
      <trkpt lat="56.91795" lon="24.16194">
        <ele>2.259957</ele>
        <time>2020-10-06T12:58:30.600Z</time>
      </trkpt>
      <trkpt lat="56.91772" lon="24.1623">
        <ele>2.348245</ele>
        <time>2020-10-06T12:58:38.229Z</time>
      </trkpt>
      <trkpt lat="56.91739" lon="24.16283">
        <ele>2.776292</ele>
        <time>2020-10-06T12:58:50.476Z</time>
      </trkpt>
      <trkpt lat="56.91694" lon="24.16352">
        <ele>3.410209</ele>
        <time>2020-10-06T12:59:06.447Z</time>
      </trkpt>
      <trkpt lat="56.91683" lon="24.16369">
        <ele>3.566334</ele>
        <time>2020-10-06T12:59:10.403Z</time>
      </trkpt>
      <trkpt lat="56.91645" lon="24.16428">
        <ele>4.11339</ele>
        <time>2020-10-06T12:59:24.012Z</time>
      </trkpt>
      <trkpt lat="56.91621" lon="24.16463">
        <ele>4.37627</ele>
        <time>2020-10-06T12:59:31.956Z</time>
      </trkpt>
      <trkpt lat="56.91597" lon="24.16501">
        <ele>4.513935</ele>
        <time>2020-10-06T12:59:39.695Z</time>
      </trkpt>
      <trkpt lat="56.91503" lon="24.1665">
        <ele>5.058235</ele>
        <time>2020-10-06T13:00:09.158Z</time>
      </trkpt>
      <trkpt lat="56.91498" lon="24.16655">
        <ele>5.082962</ele>
        <time>2020-10-06T13:00:11.143Z</time>
      </trkpt>
      <trkpt lat="56.91497" lon="24.16652">
        <ele>5.093236</ele>
        <time>2020-10-06T13:00:12.745Z</time>
      </trkpt>
      <trkpt lat="56.9149" lon="24.16653">
        <ele>5.12092</ele>
        <time>2020-10-06T13:00:14.236Z</time>
      </trkpt>
      <trkpt lat="56.91359" lon="24.16907">
        <ele>5.719364</ele>
        <time>2020-10-06T13:00:59.119Z</time>
      </trkpt>
      <trkpt lat="56.91353" lon="24.16929">
        <ele>5.774204</ele>
        <time>2020-10-06T13:01:02.071Z</time>
      </trkpt>
      <trkpt lat="56.91353" lon="24.16949">
        <ele>5.817398</ele>
        <time>2020-10-06T13:01:05.065Z</time>
      </trkpt>
      <trkpt lat="56.91313" lon="24.16993">
        <ele>6.006577</ele>
        <time>2020-10-06T13:01:16.064Z</time>
      </trkpt>
      <trkpt lat="56.91268" lon="24.17074">
        <ele>6.264081</ele>
        <time>2020-10-06T13:01:31.801Z</time>
      </trkpt>
      <trkpt lat="56.91255" lon="24.17104">
        <ele>6.348554</ele>
        <time>2020-10-06T13:01:36.323Z</time>
      </trkpt>
      <trkpt lat="56.91243" lon="24.17136">
        <ele>6.414922</ele>
        <time>2020-10-06T13:01:41.886Z</time>
      </trkpt>
      <trkpt lat="56.91162" lon="24.17264">
        <ele>6.589246</ele>
        <time>2020-10-06T13:02:06.018Z</time>
      </trkpt>
      <trkpt lat="56.91081" lon="24.17379">
        <ele>6.646967</ele>
        <time>2020-10-06T13:02:29.662Z</time>
      </trkpt>
      <trkpt lat="56.9105" lon="24.17421">
        <ele>6.599681</ele>
        <time>2020-10-06T13:02:37.850Z</time>
      </trkpt>
      <trkpt lat="56.91037" lon="24.1744">
        <ele>6.578132</ele>
        <time>2020-10-06T13:02:41.566Z</time>
      </trkpt>
      <trkpt lat="56.91036" lon="24.17442">
        <ele>6.576289</ele>
        <time>2020-10-06T13:02:41.879Z</time>
      </trkpt>
      <trkpt lat="56.91031" lon="24.17449">
        <ele>6.568224</ele>
        <time>2020-10-06T13:02:43.167Z</time>
      </trkpt>
      <trkpt lat="56.90915" lon="24.17588">
        <ele>6.123802</ele>
        <time>2020-10-06T13:03:12.671Z</time>
      </trkpt>
      <trkpt lat="56.90915" lon="24.17589">
        <ele>6.119012</ele>
        <time>2020-10-06T13:03:12.837Z</time>
      </trkpt>
      <trkpt lat="56.90891" lon="24.17616">
        <ele>5.960463</ele>
        <time>2020-10-06T13:03:18.479Z</time>
      </trkpt>
      <trkpt lat="56.90806" lon="24.17746">
        <ele>5.254701</ele>
        <time>2020-10-06T13:03:40.585Z</time>
      </trkpt>
      <trkpt lat="56.9079" lon="24.1778">
        <ele>5.029165</ele>
        <time>2020-10-06T13:03:45.363Z</time>
      </trkpt>
      <trkpt lat="56.90728" lon="24.17913">
        <ele>4.159829</ele>
        <time>2020-10-06T13:04:03.431Z</time>
      </trkpt>
      <trkpt lat="56.90651" lon="24.18076">
        <ele>3.864416</ele>
        <time>2020-10-06T13:04:27.850Z</time>
      </trkpt>
      <trkpt lat="56.90639" lon="24.18104">
        <ele>3.884477</ele>
        <time>2020-10-06T13:04:32.477Z</time>
      </trkpt>
      <trkpt lat="56.906" lon="24.18189">
        <ele>3.946347</ele>
        <time>2020-10-06T13:04:46.823Z</time>
      </trkpt>
      <trkpt lat="56.90546" lon="24.18315">
        <ele>4.20138</ele>
        <time>2020-10-06T13:05:09.453Z</time>
      </trkpt>
      <trkpt lat="56.90495" lon="24.18441">
        <ele>4.505973</ele>
        <time>2020-10-06T13:05:29.361Z</time>
      </trkpt>
      <trkpt lat="56.90441" lon="24.18568">
        <ele>4.409563</ele>
        <time>2020-10-06T13:05:48.521Z</time>
      </trkpt>
      <trkpt lat="56.90436" lon="24.1858">
        <ele>4.380359</ele>
        <time>2020-10-06T13:05:50.198Z</time>
      </trkpt>
      <trkpt lat="56.90423" lon="24.18617">
        <ele>4.296996</ele>
        <time>2020-10-06T13:05:55.267Z</time>
      </trkpt>
      <trkpt lat="56.90413" lon="24.18645">
        <ele>4.231439</ele>
        <time>2020-10-06T13:05:59.086Z</time>
      </trkpt>
      <trkpt lat="56.90406" lon="24.18653">
        <ele>4.20163</ele>
        <time>2020-10-06T13:06:00.900Z</time>
      </trkpt>
      <trkpt lat="56.90391" lon="24.1868">
        <ele>4.127521</ele>
        <time>2020-10-06T13:06:05.081Z</time>
      </trkpt>
      <trkpt lat="56.90386" lon="24.18702">
        <ele>4.082696</ele>
        <time>2020-10-06T13:06:07.774Z</time>
      </trkpt>
      <trkpt lat="56.90204" lon="24.19102">
        <ele>3.381242</ele>
        <time>2020-10-06T13:07:06.978Z</time>
      </trkpt>
      <trkpt lat="56.90197" lon="24.19112">
        <ele>3.400192</ele>
        <time>2020-10-06T13:07:08.908Z</time>
      </trkpt>
      <trkpt lat="56.90205" lon="24.19133">
        <ele>3.428593</ele>
        <time>2020-10-06T13:07:14.371Z</time>
      </trkpt>
      <trkpt lat="56.9025" lon="24.19199">
        <ele>3.548361</ele>
        <time>2020-10-06T13:07:36.497Z</time>
      </trkpt>
      <trkpt lat="56.90256" lon="24.19224">
        <ele>3.58032</ele>
        <time>2020-10-06T13:07:43.067Z</time>
      </trkpt>
      <trkpt lat="56.90278" lon="24.19465">
        <ele>4.985885</ele>
        <time>2020-10-06T13:08:39.228Z</time>
      </trkpt>
      <trkpt lat="56.90283" lon="24.19495">
        <ele>5.174793</ele>
        <time>2020-10-06T13:08:46.564Z</time>
      </trkpt>
      <trkpt lat="56.90263" lon="24.19562">
        <ele>5.644637</ele>
        <time>2020-10-06T13:09:03.415Z</time>
      </trkpt>
      <trkpt lat="56.90252" lon="24.19579">
        <ele>5.830243</ele>
        <time>2020-10-06T13:09:08.941Z</time>
      </trkpt>
      <trkpt lat="56.90257" lon="24.19596">
        <ele>5.968522</ele>
        <time>2020-10-06T13:09:13.454Z</time>
      </trkpt>
      <trkpt lat="56.90263" lon="24.19606">
        <ele>6.073938</ele>
        <time>2020-10-06T13:09:16.846Z</time>
      </trkpt>
      <trkpt lat="56.9027" lon="24.19616">
        <ele>6.19106</ele>
        <time>2020-10-06T13:09:20.451Z</time>
      </trkpt>
      <trkpt lat="56.90263" lon="24.19638">
        <ele>6.371122</ele>
        <time>2020-10-06T13:09:24.088Z</time>
      </trkpt>
      <trkpt lat="56.90213" lon="24.19791">
        <ele>7.65444</ele>
        <time>2020-10-06T13:09:51.419Z</time>
      </trkpt>
      <trkpt lat="56.90197" lon="24.19836">
        <ele>8.055328</ele>
        <time>2020-10-06T13:10:00.004Z</time>
      </trkpt>
      <trkpt lat="56.9015" lon="24.19956">
        <ele>9.2378</ele>
        <time>2020-10-06T13:10:22.612Z</time>
      </trkpt>
      <trkpt lat="56.90114" lon="24.2004">
        <ele>10.091476</ele>
        <time>2020-10-06T13:10:39.485Z</time>
      </trkpt>
      <trkpt lat="56.90046" lon="24.20198">
        <ele>11.079044</ele>
        <time>2020-10-06T13:11:09.538Z</time>
      </trkpt>
      <trkpt lat="56.90028" lon="24.20244">
        <ele>11.277189</ele>
        <time>2020-10-06T13:11:17.307Z</time>
      </trkpt>
      <trkpt lat="56.89995" lon="24.20322">
        <ele>11.61786</ele>
        <time>2020-10-06T13:11:29.730Z</time>
      </trkpt>
      <trkpt lat="56.89981" lon="24.20354">
        <ele>11.734616</ele>
        <time>2020-10-06T13:11:34.624Z</time>
      </trkpt>
      <trkpt lat="56.89969" lon="24.20384">
        <ele>11.624513</ele>
        <time>2020-10-06T13:11:39.009Z</time>
      </trkpt>
      <trkpt lat="56.89857" lon="24.20649">
        <ele>10.641175</ele>
        <time>2020-10-06T13:12:15.766Z</time>
      </trkpt>
      <trkpt lat="56.89766" lon="24.20869">
        <ele>9.857436</ele>
        <time>2020-10-06T13:12:46.528Z</time>
      </trkpt>
      <trkpt lat="56.89666" lon="24.21105">
        <ele>9.796981</ele>
        <time>2020-10-06T13:13:23.396Z</time>
      </trkpt>
      <trkpt lat="56.8965" lon="24.21144">
        <ele>9.796346</ele>
        <time>2020-10-06T13:13:29.371Z</time>
      </trkpt>
      <trkpt lat="56.89569" lon="24.21336">
        <ele>9.89275</ele>
        <time>2020-10-06T13:13:58.698Z</time>
      </trkpt>
      <trkpt lat="56.89428" lon="24.21676">
        <ele>10.399468</ele>
        <time>2020-10-06T13:14:52.993Z</time>
      </trkpt>
      <trkpt lat="56.89388" lon="24.21774">
        <ele>10.532804</ele>
        <time>2020-10-06T13:15:08.679Z</time>
      </trkpt>
      <trkpt lat="56.89323" lon="24.21933">
        <ele>10.734076</ele>
        <time>2020-10-06T13:15:33.777Z</time>
      </trkpt>
      <trkpt lat="56.89254" lon="24.22085">
        <ele>10.740774</ele>
        <time>2020-10-06T13:15:57.589Z</time>
      </trkpt>
      <trkpt lat="56.89178" lon="24.22273">
        <ele>10.687298</ele>
        <time>2020-10-06T13:16:26.264Z</time>
      </trkpt>
      <trkpt lat="56.89161" lon="24.22311">
        <ele>10.663039</ele>
        <time>2020-10-06T13:16:32.122Z</time>
      </trkpt>
      <trkpt lat="56.89115" lon="24.22418">
        <ele>10.596061</ele>
        <time>2020-10-06T13:16:48.255Z</time>
      </trkpt>
      <trkpt lat="56.89067" lon="24.22533">
        <ele>10.530038</ele>
        <time>2020-10-06T13:17:05.522Z</time>
      </trkpt>
      <trkpt lat="56.89011" lon="24.22666">
        <ele>10.454649</ele>
        <time>2020-10-06T13:17:25.394Z</time>
      </trkpt>
      <trkpt lat="56.88969" lon="24.22769">
        <ele>10.619128</ele>
        <time>2020-10-06T13:17:41.045Z</time>
      </trkpt>
      <trkpt lat="56.88953" lon="24.22806">
        <ele>10.725467</ele>
        <time>2020-10-06T13:17:47.319Z</time>
      </trkpt>
      <trkpt lat="56.88915" lon="24.22896">
        <ele>10.975146</ele>
        <time>2020-10-06T13:18:02.535Z</time>
      </trkpt>
      <trkpt lat="56.88911" lon="24.22907">
        <ele>11.004222</ele>
        <time>2020-10-06T13:18:04.430Z</time>
      </trkpt>
      <trkpt lat="56.88891" lon="24.22952">
        <ele>11.131792</ele>
        <time>2020-10-06T13:18:12.249Z</time>
      </trkpt>
      <trkpt lat="56.88867" lon="24.23007">
        <ele>11.239402</ele>
        <time>2020-10-06T13:18:21.716Z</time>
      </trkpt>
      <trkpt lat="56.8886" lon="24.23024">
        <ele>11.270319</ele>
        <time>2020-10-06T13:18:24.812Z</time>
      </trkpt>
      <trkpt lat="56.88821" lon="24.23121">
        <ele>11.437861</ele>
        <time>2020-10-06T13:18:40.816Z</time>
      </trkpt>
      <trkpt lat="56.8872" lon="24.23359">
        <ele>11.15</ele>
        <time>2020-10-06T13:19:15.904Z</time>
      </trkpt>
      <trkpt lat="56.88675" lon="24.23469">
        <ele>10.771152</ele>
        <time>2020-10-06T13:19:30.583Z</time>
      </trkpt>
      <trkpt lat="56.88627" lon="24.23582">
        <ele>10.7227</ele>
        <time>2020-10-06T13:19:46.772Z</time>
      </trkpt>
      <trkpt lat="56.88617" lon="24.23607">
        <ele>10.725362</ele>
        <time>2020-10-06T13:19:50.484Z</time>
      </trkpt>
      <trkpt lat="56.88581" lon="24.2369">
        <ele>10.734267</ele>
        <time>2020-10-06T13:20:03.514Z</time>
      </trkpt>
      <trkpt lat="56.88514" lon="24.23849">
        <ele>11.328362</ele>
        <time>2020-10-06T13:20:32.523Z</time>
      </trkpt>
      <trkpt lat="56.88376" lon="24.24177">
        <ele>12.607099</ele>
        <time>2020-10-06T13:21:29.749Z</time>
      </trkpt>
      <trkpt lat="56.88341" lon="24.24262">
        <ele>12.801897</ele>
        <time>2020-10-06T13:21:42.003Z</time>
      </trkpt>
      <trkpt lat="56.88304" lon="24.24351">
        <ele>12.535242</ele>
        <time>2020-10-06T13:21:54.517Z</time>
      </trkpt>
      <trkpt lat="56.8827" lon="24.24432">
        <ele>12.260119</ele>
        <time>2020-10-06T13:22:05.561Z</time>
      </trkpt>
      <trkpt lat="56.88233" lon="24.24522">
        <ele>11.957624</ele>
        <time>2020-10-06T13:22:18.263Z</time>
      </trkpt>
      <trkpt lat="56.88199" lon="24.24598">
        <ele>11.858751</ele>
        <time>2020-10-06T13:22:30.356Z</time>
      </trkpt>
      <trkpt lat="56.88" lon="24.25071">
        <ele>11.395511</ele>
        <time>2020-10-06T13:23:40.885Z</time>
      </trkpt>
      <trkpt lat="56.87937" lon="24.2522">
        <ele>11.458047</ele>
        <time>2020-10-06T13:24:04.576Z</time>
      </trkpt>
      <trkpt lat="56.87847" lon="24.25434">
        <ele>11.490464</ele>
        <time>2020-10-06T13:24:37.527Z</time>
      </trkpt>
      <trkpt lat="56.87829" lon="24.25477">
        <ele>11.488701</ele>
        <time>2020-10-06T13:24:43.915Z</time>
      </trkpt>
      <trkpt lat="56.87817" lon="24.25506">
        <ele>11.48753</ele>
        <time>2020-10-06T13:24:48.245Z</time>
      </trkpt>
      <trkpt lat="56.87803" lon="24.2552">
        <ele>11.48655</ele>
        <time>2020-10-06T13:24:51.987Z</time>
      </trkpt>
      <trkpt lat="56.87794" lon="24.25541">
        <ele>11.485655</ele>
        <time>2020-10-06T13:24:55.386Z</time>
      </trkpt>
      <trkpt lat="56.87772" lon="24.25554">
        <ele>11.505313</ele>
        <time>2020-10-06T13:25:00.509Z</time>
      </trkpt>
      <trkpt lat="56.87759" lon="24.25563">
        <ele>11.538604</ele>
        <time>2020-10-06T13:25:03.646Z</time>
      </trkpt>
      <trkpt lat="56.87764" lon="24.25572">
        <ele>11.554934</ele>
        <time>2020-10-06T13:25:05.233Z</time>
      </trkpt>
      <trkpt lat="56.87767" lon="24.25609">
        <ele>11.60427</ele>
        <time>2020-10-06T13:25:09.867Z</time>
      </trkpt>
      <trkpt lat="56.87755" lon="24.25638">
        <ele>11.652397</ele>
        <time>2020-10-06T13:25:14.396Z</time>
      </trkpt>
      <trkpt lat="56.87748" lon="24.2567">
        <ele>11.697153</ele>
        <time>2020-10-06T13:25:18.600Z</time>
      </trkpt>
      <trkpt lat="56.8772" lon="24.25736">
        <ele>11.80785</ele>
        <time>2020-10-06T13:25:29.287Z</time>
      </trkpt>
      <trkpt lat="56.87653" lon="24.25897">
        <ele>12.099262</ele>
        <time>2020-10-06T13:25:56.004Z</time>
      </trkpt>
      <trkpt lat="56.87637" lon="24.25934">
        <ele>12.169544</ele>
        <time>2020-10-06T13:26:01.983Z</time>
      </trkpt>
      <trkpt lat="56.87568" lon="24.26097">
        <ele>12.391783</ele>
        <time>2020-10-06T13:26:27.911Z</time>
      </trkpt>
      <trkpt lat="56.87199" lon="24.26976">
        <ele>11.797465</ele>
        <time>2020-10-06T13:28:39.596Z</time>
      </trkpt>
      <trkpt lat="56.87189" lon="24.27001">
        <ele>11.809786</ele>
        <time>2020-10-06T13:28:43.406Z</time>
      </trkpt>
      <trkpt lat="56.87114" lon="24.27178">
        <ele>12.041663</ele>
        <time>2020-10-06T13:29:12.432Z</time>
      </trkpt>
      <trkpt lat="56.87098" lon="24.2721">
        <ele>12.129554</ele>
        <time>2020-10-06T13:29:18.185Z</time>
      </trkpt>
      <trkpt lat="56.87027" lon="24.27382">
        <ele>12.542947</ele>
        <time>2020-10-06T13:29:45.970Z</time>
      </trkpt>
      <trkpt lat="56.87019" lon="24.27404">
        <ele>12.566903</ele>
        <time>2020-10-06T13:29:49.754Z</time>
      </trkpt>
      <trkpt lat="56.87008" lon="24.27389">
        <ele>12.589514</ele>
        <time>2020-10-06T13:29:52.995Z</time>
      </trkpt>
      <trkpt lat="56.86995" lon="24.27373">
        <ele>12.614967</ele>
        <time>2020-10-06T13:29:56.586Z</time>
      </trkpt>
      <trkpt lat="56.86988" lon="24.27388">
        <ele>12.63334</ele>
        <time>2020-10-06T13:29:59.316Z</time>
      </trkpt>
      <trkpt lat="56.86944" lon="24.27513">
        <ele>12.764883</ele>
        <time>2020-10-06T13:30:17.360Z</time>
      </trkpt>
      <trkpt lat="56.86897" lon="24.27638">
        <ele>12.994853</ele>
        <time>2020-10-06T13:30:35.943Z</time>
      </trkpt>
      <trkpt lat="56.86836" lon="24.27764">
        <ele>13.320341</ele>
        <time>2020-10-06T13:30:58.178Z</time>
      </trkpt>
      <trkpt lat="56.86814" lon="24.27792">
        <ele>13.416919</ele>
        <time>2020-10-06T13:31:04.807Z</time>
      </trkpt>
      <trkpt lat="56.86784" lon="24.27825">
        <ele>13.582217</ele>
        <time>2020-10-06T13:31:13.332Z</time>
      </trkpt>
      <trkpt lat="56.86664" lon="24.2797">
        <ele>14.342108</ele>
        <time>2020-10-06T13:31:48.547Z</time>
      </trkpt>
      <trkpt lat="56.86515" lon="24.28129">
        <ele>14.825426</ele>
        <time>2020-10-06T13:32:29.656Z</time>
      </trkpt>
      <trkpt lat="56.86428" lon="24.28185">
        <ele>14.436088</ele>
        <time>2020-10-06T13:32:49.574Z</time>
      </trkpt>
      <trkpt lat="56.86382" lon="24.28212">
        <ele>14.146322</ele>
        <time>2020-10-06T13:32:59.257Z</time>
      </trkpt>
      <trkpt lat="56.8636" lon="24.28229">
        <ele>14.000477</ele>
        <time>2020-10-06T13:33:04.101Z</time>
      </trkpt>
      <trkpt lat="56.86335" lon="24.28258">
        <ele>13.820184</ele>
        <time>2020-10-06T13:33:09.755Z</time>
      </trkpt>
      <trkpt lat="56.86318" lon="24.28275">
        <ele>13.596194</ele>
        <time>2020-10-06T13:33:13.204Z</time>
      </trkpt>
      <trkpt lat="56.86286" lon="24.28312">
        <ele>13.050517</ele>
        <time>2020-10-06T13:33:20.165Z</time>
      </trkpt>
      <trkpt lat="56.86249" lon="24.28356">
        <ele>12.426878</ele>
        <time>2020-10-06T13:33:28.048Z</time>
      </trkpt>
      <trkpt lat="56.86204" lon="24.28419">
        <ele>11.623001</ele>
        <time>2020-10-06T13:33:38.477Z</time>
      </trkpt>
      <trkpt lat="56.86148" lon="24.28507">
        <ele>10.958145</ele>
        <time>2020-10-06T13:33:52.563Z</time>
      </trkpt>
      <trkpt lat="56.86125" lon="24.28551">
        <ele>10.759321</ele>
        <time>2020-10-06T13:33:58.903Z</time>
      </trkpt>
      <trkpt lat="56.86105" lon="24.28607">
        <ele>10.543183</ele>
        <time>2020-10-06T13:34:06.172Z</time>
      </trkpt>
      <trkpt lat="56.86045" lon="24.2878">
        <ele>10.42965</ele>
        <time>2020-10-06T13:34:32.168Z</time>
      </trkpt>
      <trkpt lat="56.86019" lon="24.28857">
        <ele>10.698157</ele>
        <time>2020-10-06T13:34:44.510Z</time>
      </trkpt>
      <trkpt lat="56.86011" lon="24.28889">
        <ele>10.806493</ele>
        <time>2020-10-06T13:34:49.293Z</time>
      </trkpt>
      <trkpt lat="56.86004" lon="24.28922">
        <ele>10.913349</ele>
        <time>2020-10-06T13:34:54.280Z</time>
      </trkpt>
      <trkpt lat="56.85997" lon="24.28966">
        <ele>11.051894</ele>
        <time>2020-10-06T13:35:00.551Z</time>
      </trkpt>
      <trkpt lat="56.8599" lon="24.29017">
        <ele>11.178894</ele>
        <time>2020-10-06T13:35:07.689Z</time>
      </trkpt>
      <trkpt lat="56.85989" lon="24.29049">
        <ele>11.223871</ele>
        <time>2020-10-06T13:35:12.203Z</time>
      </trkpt>
      <trkpt lat="56.8599" lon="24.29119">
        <ele>11.322862</ele>
        <time>2020-10-06T13:35:21.573Z</time>
      </trkpt>
      <trkpt lat="56.85991" lon="24.29175">
        <ele>11.403162</ele>
        <time>2020-10-06T13:35:28.812Z</time>
      </trkpt>
      <trkpt lat="56.85988" lon="24.2924">
        <ele>11.495307</ele>
        <time>2020-10-06T13:35:36.824Z</time>
      </trkpt>
      <trkpt lat="56.85986" lon="24.29291">
        <ele>11.56868</ele>
        <time>2020-10-06T13:35:43.069Z</time>
      </trkpt>
      <trkpt lat="56.85982" lon="24.29341">
        <ele>11.653135</ele>
        <time>2020-10-06T13:35:48.976Z</time>
      </trkpt>
      <trkpt lat="56.85977" lon="24.29375">
        <ele>11.734616</ele>
        <time>2020-10-06T13:35:53.149Z</time>
      </trkpt>
      <trkpt lat="56.85971" lon="24.29417">
        <ele>11.837284</ele>
        <time>2020-10-06T13:35:58.290Z</time>
      </trkpt>
      <trkpt lat="56.85963" lon="24.29456">
        <ele>11.932723</ele>
        <time>2020-10-06T13:36:03.303Z</time>
      </trkpt>
      <trkpt lat="56.8596" lon="24.29471">
        <ele>11.972094</ele>
        <time>2020-10-06T13:36:05.322Z</time>
      </trkpt>
      <trkpt lat="56.85952" lon="24.29522">
        <ele>12.095659</ele>
        <time>2020-10-06T13:36:12.121Z</time>
      </trkpt>
      <trkpt lat="56.85948" lon="24.29545">
        <ele>12.152279</ele>
        <time>2020-10-06T13:36:15.247Z</time>
      </trkpt>
      <trkpt lat="56.85943" lon="24.29575">
        <ele>12.224976</ele>
        <time>2020-10-06T13:36:19.649Z</time>
      </trkpt>
      <trkpt lat="56.85941" lon="24.29596">
        <ele>12.274184</ele>
        <time>2020-10-06T13:36:22.577Z</time>
      </trkpt>
      <trkpt lat="56.85941" lon="24.29614">
        <ele>12.316298</ele>
        <time>2020-10-06T13:36:25.084Z</time>
      </trkpt>
      <trkpt lat="56.85945" lon="24.29639">
        <ele>12.378599</ele>
        <time>2020-10-06T13:36:29.185Z</time>
      </trkpt>
      <trkpt lat="56.85949" lon="24.29679">
        <ele>12.744738</ele>
        <time>2020-10-06T13:36:35.217Z</time>
      </trkpt>
      <trkpt lat="56.85952" lon="24.29709">
        <ele>13.04537</ele>
        <time>2020-10-06T13:36:40.231Z</time>
      </trkpt>
      <trkpt lat="56.85996" lon="24.30112">
        <ele>16.185244</ele>
        <time>2020-10-06T13:37:47.991Z</time>
      </trkpt>
      <trkpt lat="56.86004" lon="24.30175">
        <ele>16.439862</ele>
        <time>2020-10-06T13:37:56.698Z</time>
      </trkpt>
      <trkpt lat="56.86023" lon="24.30265">
        <ele>16.818204</ele>
        <time>2020-10-06T13:38:07.825Z</time>
      </trkpt>
      <trkpt lat="56.86065" lon="24.30346">
        <ele>16.11717</ele>
        <time>2020-10-06T13:38:19.321Z</time>
      </trkpt>
      <trkpt lat="56.86042" lon="24.3045">
        <ele>15.177941</ele>
        <time>2020-10-06T13:38:30.242Z</time>
      </trkpt>
      <trkpt lat="56.86" lon="24.30616">
        <ele>13.707633</ele>
        <time>2020-10-06T13:38:48.073Z</time>
      </trkpt>
      <trkpt lat="56.85916" lon="24.30947">
        <ele>11.375218</ele>
        <time>2020-10-06T13:39:25.929Z</time>
      </trkpt>
      <trkpt lat="56.85889" lon="24.31049">
        <ele>10.930996</ele>
        <time>2020-10-06T13:39:38.651Z</time>
      </trkpt>
      <trkpt lat="56.85865" lon="24.31135">
        <ele>10.55505</ele>
        <time>2020-10-06T13:39:49.531Z</time>
      </trkpt>
      <trkpt lat="56.85831" lon="24.31265">
        <ele>10.365287</ele>
        <time>2020-10-06T13:40:06.130Z</time>
      </trkpt>
      <trkpt lat="56.85761" lon="24.31541">
        <ele>10.203203</ele>
        <time>2020-10-06T13:40:42.885Z</time>
      </trkpt>
      <trkpt lat="56.85701" lon="24.31775">
        <ele>10.241344</ele>
        <time>2020-10-06T13:41:14.620Z</time>
      </trkpt>
      <trkpt lat="56.85697" lon="24.31793">
        <ele>10.266078</ele>
        <time>2020-10-06T13:41:17.045Z</time>
      </trkpt>
      <trkpt lat="56.85649" lon="24.31971">
        <ele>10.514653</ele>
        <time>2020-10-06T13:41:41.374Z</time>
      </trkpt>
      <trkpt lat="56.85619" lon="24.32075">
        <ele>10.854021</ele>
        <time>2020-10-06T13:41:57.138Z</time>
      </trkpt>
      <trkpt lat="56.85616" lon="24.32082">
        <ele>10.918671</ele>
        <time>2020-10-06T13:41:58.188Z</time>
      </trkpt>
      <trkpt lat="56.85586" lon="24.32177">
        <ele>11.745782</ele>
        <time>2020-10-06T13:42:14.319Z</time>
      </trkpt>
      <trkpt lat="56.85514" lon="24.32396">
        <ele>13.710781</ele>
        <time>2020-10-06T13:42:56.000Z</time>
      </trkpt>
      <trkpt lat="56.85411" lon="24.32705">
        <ele>16.011236</ele>
        <time>2020-10-06T13:43:50.863Z</time>
      </trkpt>
      <trkpt lat="56.8539" lon="24.3277">
        <ele>16.187024</ele>
        <time>2020-10-06T13:44:00.531Z</time>
      </trkpt>
      <trkpt lat="56.85372" lon="24.32824">
        <ele>16.330666</ele>
        <time>2020-10-06T13:44:08.129Z</time>
      </trkpt>
      <trkpt lat="56.85325" lon="24.32968">
        <ele>16.335111</ele>
        <time>2020-10-06T13:44:27.411Z</time>
      </trkpt>
      <trkpt lat="56.85265" lon="24.3315">
        <ele>15.8751</ele>
        <time>2020-10-06T13:44:51.203Z</time>
      </trkpt>
      <trkpt lat="56.8526" lon="24.33165">
        <ele>15.838422</ele>
        <time>2020-10-06T13:44:53.212Z</time>
      </trkpt>
      <trkpt lat="56.85195" lon="24.3337">
        <ele>15.782425</ele>
        <time>2020-10-06T13:45:22.634Z</time>
      </trkpt>
      <trkpt lat="56.85171" lon="24.33452">
        <ele>15.770742</ele>
        <time>2020-10-06T13:45:34.028Z</time>
      </trkpt>
      <trkpt lat="56.8515" lon="24.33525">
        <ele>15.765933</ele>
        <time>2020-10-06T13:45:43.911Z</time>
      </trkpt>
      <trkpt lat="56.85139" lon="24.33557">
        <ele>15.764141</ele>
        <time>2020-10-06T13:45:48.555Z</time>
      </trkpt>
      <trkpt lat="56.85128" lon="24.33596">
        <ele>15.762079</ele>
        <time>2020-10-06T13:45:53.892Z</time>
      </trkpt>
      <trkpt lat="56.85086" lon="24.33756">
        <ele>15.752543</ele>
        <time>2020-10-06T13:46:15.814Z</time>
      </trkpt>
      <trkpt lat="56.85043" lon="24.33917">
        <ele>15.614768</ele>
        <time>2020-10-06T13:46:37.162Z</time>
      </trkpt>
      <trkpt lat="56.84988" lon="24.34146">
        <ele>15.009862</ele>
        <time>2020-10-06T13:47:06.451Z</time>
      </trkpt>
      <trkpt lat="56.84979" lon="24.34187">
        <ele>14.796506</ele>
        <time>2020-10-06T13:47:11.276Z</time>
      </trkpt>
      <trkpt lat="56.84953" lon="24.34303">
        <ele>14.186734</ele>
        <time>2020-10-06T13:47:24.422Z</time>
      </trkpt>
      <trkpt lat="56.84879" lon="24.34665">
        <ele>11.544071</ele>
        <time>2020-10-06T13:48:03.439Z</time>
      </trkpt>
      <trkpt lat="56.84813" lon="24.35023">
        <ele>10.696822</ele>
        <time>2020-10-06T13:48:46.711Z</time>
      </trkpt>
      <trkpt lat="56.84732" lon="24.35566">
        <ele>11.160543</ele>
        <time>2020-10-06T13:49:58.193Z</time>
      </trkpt>
      <trkpt lat="56.84678" lon="24.36088">
        <ele>11.546679</ele>
        <time>2020-10-06T13:51:04.330Z</time>
      </trkpt>
      <trkpt lat="56.84671" lon="24.36175">
        <ele>11.622744</ele>
        <time>2020-10-06T13:51:15.273Z</time>
      </trkpt>
      <trkpt lat="56.84659" lon="24.36321">
        <ele>11.878197</ele>
        <time>2020-10-06T13:51:33.891Z</time>
      </trkpt>
      <trkpt lat="56.84638" lon="24.36642">
        <ele>12.968824</ele>
        <time>2020-10-06T13:52:17.416Z</time>
      </trkpt>
      <trkpt lat="56.84621" lon="24.37163">
        <ele>15.813952</ele>
        <time>2020-10-06T13:53:34.016Z</time>
      </trkpt>
      <trkpt lat="56.84598" lon="24.38213">
        <ele>19.736757</ele>
        <time>2020-10-06T13:55:56.537Z</time>
      </trkpt>
      <trkpt lat="56.84599" lon="24.38591">
        <ele>21.990369</ele>
        <time>2020-10-06T13:56:52.427Z</time>
      </trkpt>
      <trkpt lat="56.84604" lon="24.38768">
        <ele>23.013777</ele>
        <time>2020-10-06T13:57:18.897Z</time>
      </trkpt>
      <trkpt lat="56.84605" lon="24.38894">
        <ele>23.707331</ele>
        <time>2020-10-06T13:57:37.192Z</time>
      </trkpt>
      <trkpt lat="56.8462" lon="24.39588">
        <ele>24.216731</ele>
        <time>2020-10-06T13:59:05.429Z</time>
      </trkpt>
      <trkpt lat="56.84627" lon="24.39872">
        <ele>22.304456</ele>
        <time>2020-10-06T13:59:33.678Z</time>
      </trkpt>
      <trkpt lat="56.84632" lon="24.40066">
        <ele>21.008929</ele>
        <time>2020-10-06T13:59:53.216Z</time>
      </trkpt>
      <trkpt lat="56.84646" lon="24.40615">
        <ele>18.938044</ele>
        <time>2020-10-06T14:00:53.803Z</time>
      </trkpt>
      <trkpt lat="56.84656" lon="24.41227">
        <ele>19.365082</ele>
        <time>2020-10-06T14:02:11.245Z</time>
      </trkpt>
      <trkpt lat="56.84669" lon="24.41748">
        <ele>20.859228</ele>
        <time>2020-10-06T14:03:19.545Z</time>
      </trkpt>
      <trkpt lat="56.84677" lon="24.42149">
        <ele>22.78355</ele>
        <time>2020-10-06T14:04:20.013Z</time>
      </trkpt>
      <trkpt lat="56.84679" lon="24.42256">
        <ele>22.278454</ele>
        <time>2020-10-06T14:04:31.675Z</time>
      </trkpt>
      <trkpt lat="56.8463" lon="24.42251">
        <ele>21.621192</ele>
        <time>2020-10-06T14:04:40.715Z</time>
      </trkpt>
      <trkpt lat="56.84564" lon="24.42243">
        <ele>20.735039</ele>
        <time>2020-10-06T14:04:52.541Z</time>
      </trkpt>
      <trkpt lat="56.84556" lon="24.42242">
        <ele>20.627275</ele>
        <time>2020-10-06T14:04:53.925Z</time>
      </trkpt>
      <trkpt lat="56.84539" lon="24.42243">
        <ele>20.409638</ele>
        <time>2020-10-06T14:04:56.848Z</time>
      </trkpt>
      <trkpt lat="56.84513" lon="24.42249">
        <ele>20.090803</ele>
        <time>2020-10-06T14:05:01.418Z</time>
      </trkpt>
      <trkpt lat="56.84471" lon="24.42279">
        <ele>19.559414</ele>
        <time>2020-10-06T14:05:09.115Z</time>
      </trkpt>
      <trkpt lat="56.84438" lon="24.4232">
        <ele>19.084775</ele>
        <time>2020-10-06T14:05:16.481Z</time>
      </trkpt>
      <trkpt lat="56.8435" lon="24.42482">
        <ele>18.688954</ele>
        <time>2020-10-06T14:05:45.374Z</time>
      </trkpt>
      <trkpt lat="56.84299" lon="24.42599">
        <ele>19.140683</ele>
        <time>2020-10-06T14:06:05.900Z</time>
      </trkpt>
      <trkpt lat="56.84288" lon="24.42632">
        <ele>19.257537</ele>
        <time>2020-10-06T14:06:11.084Z</time>
      </trkpt>
      <trkpt lat="56.84274" lon="24.42692">
        <ele>19.64264</ele>
        <time>2020-10-06T14:06:20.338Z</time>
      </trkpt>
      <trkpt lat="56.84264" lon="24.42743">
        <ele>20.067908</ele>
        <time>2020-10-06T14:06:28.585Z</time>
      </trkpt>
      <trkpt lat="56.84263" lon="24.42751">
        <ele>20.135349</ele>
        <time>2020-10-06T14:06:29.792Z</time>
      </trkpt>
      <trkpt lat="56.84258" lon="24.42786">
        <ele>20.412256</ele>
        <time>2020-10-06T14:06:35.466Z</time>
      </trkpt>
      <trkpt lat="56.8426" lon="24.4281">
        <ele>20.60514</ele>
        <time>2020-10-06T14:06:39.091Z</time>
      </trkpt>
      <trkpt lat="56.84263" lon="24.4282">
        <ele>20.695164</ele>
        <time>2020-10-06T14:06:40.753Z</time>
      </trkpt>
      <trkpt lat="56.8427" lon="24.42831">
        <ele>20.828864</ele>
        <time>2020-10-06T14:06:43.694Z</time>
      </trkpt>
      <trkpt lat="56.84319" lon="24.42824">
        <ele>21.531092</ele>
        <time>2020-10-06T14:06:57.856Z</time>
      </trkpt>
      <trkpt lat="56.84336" lon="24.42834">
        <ele>21.79065</ele>
        <time>2020-10-06T14:07:02.957Z</time>
      </trkpt>
      <trkpt lat="56.84345" lon="24.42853">
        <ele>21.993041</ele>
        <time>2020-10-06T14:07:07.131Z</time>
      </trkpt>
      <trkpt lat="56.8436" lon="24.42902">
        <ele>22.476618</ele>
        <time>2020-10-06T14:07:15.966Z</time>
      </trkpt>
      <trkpt lat="56.84398" lon="24.43028">
        <ele>23.728934</ele>
        <time>2020-10-06T14:07:38.738Z</time>
      </trkpt>
      <trkpt lat="56.84404" lon="24.43045">
        <ele>23.897004</ele>
        <time>2020-10-06T14:07:41.691Z</time>
      </trkpt>
      <trkpt lat="56.84455" lon="24.43228">
        <ele>25.475702</ele>
        <time>2020-10-06T14:08:13.259Z</time>
      </trkpt>
      <trkpt lat="56.845" lon="24.43393">
        <ele>26.723934</ele>
        <time>2020-10-06T14:08:40.839Z</time>
      </trkpt>
      <trkpt lat="56.84502" lon="24.43401">
        <ele>26.783344</ele>
        <time>2020-10-06T14:08:42.074Z</time>
      </trkpt>
      <trkpt lat="56.84507" lon="24.43419">
        <ele>26.919566</ele>
        <time>2020-10-06T14:08:44.920Z</time>
      </trkpt>
      <trkpt lat="56.8453" lon="24.43512">
        <ele>27.087818</ele>
        <time>2020-10-06T14:08:59.516Z</time>
      </trkpt>
      <trkpt lat="56.84561" lon="24.43619">
        <ele>27.217801</ele>
        <time>2020-10-06T14:09:15.072Z</time>
      </trkpt>
      <trkpt lat="56.84563" lon="24.43628">
        <ele>27.228584</ele>
        <time>2020-10-06T14:09:16.442Z</time>
      </trkpt>
      <trkpt lat="56.84573" lon="24.43658">
        <ele>27.266134</ele>
        <time>2020-10-06T14:09:20.647Z</time>
      </trkpt>
      <trkpt lat="56.84591" lon="24.43721">
        <ele>27.336477</ele>
        <time>2020-10-06T14:09:28.879Z</time>
      </trkpt>
      <trkpt lat="56.84596" lon="24.43746">
        <ele>27.092121</ele>
        <time>2020-10-06T14:09:31.788Z</time>
      </trkpt>
      <trkpt lat="56.846" lon="24.43784">
        <ele>26.724967</ele>
        <time>2020-10-06T14:09:35.767Z</time>
      </trkpt>
      <trkpt lat="56.846" lon="24.4381">
        <ele>26.487144</ele>
        <time>2020-10-06T14:09:38.354Z</time>
      </trkpt>
      <trkpt lat="56.84606" lon="24.43923">
        <ele>25.422149</ele>
        <time>2020-10-06T14:09:49.302Z</time>
      </trkpt>
      <trkpt lat="56.84601" lon="24.4402">
        <ele>24.51693</ele>
        <time>2020-10-06T14:09:58.489Z</time>
      </trkpt>
      <trkpt lat="56.84596" lon="24.44064">
        <ele>24.097649</ele>
        <time>2020-10-06T14:10:02.791Z</time>
      </trkpt>
      <trkpt lat="56.84589" lon="24.44133">
        <ele>23.447484</ele>
        <time>2020-10-06T14:10:09.621Z</time>
      </trkpt>
      <trkpt lat="56.84578" lon="24.44194">
        <ele>22.859193</ele>
        <time>2020-10-06T14:10:15.793Z</time>
      </trkpt>
      <trkpt lat="56.84569" lon="24.44228">
        <ele>22.509616</ele>
        <time>2020-10-06T14:10:19.449Z</time>
      </trkpt>
      <trkpt lat="56.84522" lon="24.44357">
        <ele>21.20536</ele>
        <time>2020-10-06T14:10:35.164Z</time>
      </trkpt>
      <trkpt lat="56.84508" lon="24.44411">
        <ele>21.109768</ele>
        <time>2020-10-06T14:10:41.763Z</time>
      </trkpt>
      <trkpt lat="56.84502" lon="24.44468">
        <ele>21.018265</ele>
        <time>2020-10-06T14:10:48.448Z</time>
      </trkpt>
      <trkpt lat="56.84503" lon="24.44656">
        <ele>20.716766</ele>
        <time>2020-10-06T14:11:11.721Z</time>
      </trkpt>
      <trkpt lat="56.84506" lon="24.44712">
        <ele>20.722042</ele>
        <time>2020-10-06T14:11:18.728Z</time>
      </trkpt>
      <trkpt lat="56.84514" lon="24.44857">
        <ele>20.765473</ele>
        <time>2020-10-06T14:11:37.035Z</time>
      </trkpt>
      <trkpt lat="56.84511" lon="24.45292">
        <ele>20.388822</ele>
        <time>2020-10-06T14:12:28.981Z</time>
      </trkpt>
      <trkpt lat="56.84506" lon="24.45292">
        <ele>20.374702</ele>
        <time>2020-10-06T14:12:30.985Z</time>
      </trkpt>
      <trkpt lat="56.84404" lon="24.45263">
        <ele>19.431585</ele>
        <time>2020-10-06T14:13:06.410Z</time>
      </trkpt>
      <trkpt lat="56.84393" lon="24.45269">
        <ele>19.319046</ele>
        <time>2020-10-06T14:13:10.292Z</time>
      </trkpt>
      <trkpt lat="56.8437" lon="24.45278">
        <ele>19.091408</ele>
        <time>2020-10-06T14:13:14.714Z</time>
      </trkpt>
      <trkpt lat="56.84351" lon="24.45303">
        <ele>18.862486</ele>
        <time>2020-10-06T14:13:19.140Z</time>
      </trkpt>
      <trkpt lat="56.84229" lon="24.45791">
        <ele>14.749418</ele>
        <time>2020-10-06T14:14:12.749Z</time>
      </trkpt>
      <trkpt lat="56.84189" lon="24.45926">
        <ele>13.7407</ele>
        <time>2020-10-06T14:14:29.173Z</time>
      </trkpt>
      <trkpt lat="56.84165" lon="24.46006">
        <ele>13.492952</ele>
        <time>2020-10-06T14:14:39.239Z</time>
      </trkpt>
      <trkpt lat="56.84116" lon="24.46183">
        <ele>13.131485</ele>
        <time>2020-10-06T14:15:02.411Z</time>
      </trkpt>
      <trkpt lat="56.84087" lon="24.4629">
        <ele>13.021275</ele>
        <time>2020-10-06T14:15:16.938Z</time>
      </trkpt>
      <trkpt lat="56.84035" lon="24.46417">
        <ele>13.008573</ele>
        <time>2020-10-06T14:15:36.387Z</time>
      </trkpt>
      <trkpt lat="56.83926" lon="24.46649">
        <ele>13.052799</ele>
        <time>2020-10-06T14:16:13.735Z</time>
      </trkpt>
      <trkpt lat="56.838" lon="24.46846">
        <ele>13.17997</ele>
        <time>2020-10-06T14:16:51.081Z</time>
      </trkpt>
      <trkpt lat="56.83493" lon="24.47312">
        <ele>13.471242</ele>
        <time>2020-10-06T14:18:21.723Z</time>
      </trkpt>
      <trkpt lat="56.83364" lon="24.47508">
        <ele>13.532799</ele>
        <time>2020-10-06T14:18:58.837Z</time>
      </trkpt>
      <trkpt lat="56.83265" lon="24.47658">
        <ele>13.725241</ele>
        <time>2020-10-06T14:19:27.956Z</time>
      </trkpt>
      <trkpt lat="56.83052" lon="24.48123">
        <ele>14.821722</ele>
        <time>2020-10-06T14:20:46.856Z</time>
      </trkpt>
      <trkpt lat="56.82928" lon="24.48493">
        <ele>15.653719</ele>
        <time>2020-10-06T14:21:43.517Z</time>
      </trkpt>
      <trkpt lat="56.82876" lon="24.48576">
        <ele>15.844241</ele>
        <time>2020-10-06T14:21:59.477Z</time>
      </trkpt>
      <trkpt lat="56.82788" lon="24.48687">
        <ele>15.794109</ele>
        <time>2020-10-06T14:22:23.133Z</time>
      </trkpt>
      <trkpt lat="56.82725" lon="24.4877">
        <ele>15.728286</ele>
        <time>2020-10-06T14:22:40.012Z</time>
      </trkpt>
      <trkpt lat="56.82646" lon="24.48872">
        <ele>15.618724</ele>
        <time>2020-10-06T14:23:01.216Z</time>
      </trkpt>
      <trkpt lat="56.82548" lon="24.49">
        <ele>15.487052</ele>
        <time>2020-10-06T14:23:27.555Z</time>
      </trkpt>
      <trkpt lat="56.82509" lon="24.49067">
        <ele>15.437906</ele>
        <time>2020-10-06T14:23:39.003Z</time>
      </trkpt>
      <trkpt lat="56.82471" lon="24.49129">
        <ele>15.390167</ele>
        <time>2020-10-06T14:23:50.352Z</time>
      </trkpt>
      <trkpt lat="56.82408" lon="24.49233">
        <ele>15.46832</ele>
        <time>2020-10-06T14:24:08.867Z</time>
      </trkpt>
      <trkpt lat="56.82393" lon="24.49276">
        <ele>15.548233</ele>
        <time>2020-10-06T14:24:14.964Z</time>
      </trkpt>
      <trkpt lat="56.82383" lon="24.49324">
        <ele>15.631422</ele>
        <time>2020-10-06T14:24:21.447Z</time>
      </trkpt>
      <trkpt lat="56.82377" lon="24.49393">
        <ele>15.742709</ele>
        <time>2020-10-06T14:24:30.559Z</time>
      </trkpt>
      <trkpt lat="56.82377" lon="24.49458">
        <ele>15.846826</ele>
        <time>2020-10-06T14:24:39.530Z</time>
      </trkpt>
      <trkpt lat="56.82382" lon="24.49501">
        <ele>16.039488</ele>
        <time>2020-10-06T14:24:45.607Z</time>
      </trkpt>
      <trkpt lat="56.82414" lon="24.49762">
        <ele>17.741733</ele>
        <time>2020-10-06T14:25:25.540Z</time>
      </trkpt>
      <trkpt lat="56.82406" lon="24.49773">
        <ele>17.854677</ele>
        <time>2020-10-06T14:25:28.359Z</time>
      </trkpt>
      <trkpt lat="56.82271" lon="24.49991">
        <ele>19.774727</ele>
        <time>2020-10-06T14:26:17.213Z</time>
      </trkpt>
      <trkpt lat="56.82262" lon="24.50006">
        <ele>19.876252</ele>
        <time>2020-10-06T14:26:20.357Z</time>
      </trkpt>
      <trkpt lat="56.82248" lon="24.50028">
        <ele>19.913737</ele>
        <time>2020-10-06T14:26:24.447Z</time>
      </trkpt>
      <trkpt lat="56.82226" lon="24.50063">
        <ele>19.97505</ele>
        <time>2020-10-06T14:26:31.288Z</time>
      </trkpt>
      <trkpt lat="56.82185" lon="24.50132">
        <ele>20.092417</ele>
        <time>2020-10-06T14:26:43.934Z</time>
      </trkpt>
      <trkpt lat="56.82177" lon="24.50145">
        <ele>20.114549</ele>
        <time>2020-10-06T14:26:46.344Z</time>
      </trkpt>
      <trkpt lat="56.82158" lon="24.50178">
        <ele>20.16954</ele>
        <time>2020-10-06T14:26:52.218Z</time>
      </trkpt>
      <trkpt lat="56.82155" lon="24.50183">
        <ele>20.176414</ele>
        <time>2020-10-06T14:26:53.041Z</time>
      </trkpt>
      <trkpt lat="56.82153" lon="24.50187">
        <ele>20.184513</ele>
        <time>2020-10-06T14:26:53.865Z</time>
      </trkpt>
      <trkpt lat="56.8213" lon="24.50226">
        <ele>20.250593</ele>
        <time>2020-10-06T14:27:00.496Z</time>
      </trkpt>
      <trkpt lat="56.82121" lon="24.50241">
        <ele>20.280084</ele>
        <time>2020-10-06T14:27:03.073Z</time>
      </trkpt>
      <trkpt lat="56.82118" lon="24.50247">
        <ele>20.292082</ele>
        <time>2020-10-06T14:27:04.130Z</time>
      </trkpt>
      <trkpt lat="56.82094" lon="24.50291">
        <ele>20.376941</ele>
        <time>2020-10-06T14:27:11.766Z</time>
      </trkpt>
      <trkpt lat="56.8208" lon="24.50331">
        <ele>20.442967</ele>
        <time>2020-10-06T14:27:17.845Z</time>
      </trkpt>
      <trkpt lat="56.8206" lon="24.50383">
        <ele>20.530005</ele>
        <time>2020-10-06T14:27:26.067Z</time>
      </trkpt>
      <trkpt lat="56.82017" lon="24.50562">
        <ele>20.752806</ele>
        <time>2020-10-06T14:27:52.165Z</time>
      </trkpt>
      <trkpt lat="56.81993" lon="24.50715">
        <ele>20.871554</ele>
        <time>2020-10-06T14:28:12.273Z</time>
      </trkpt>
      <trkpt lat="56.81948" lon="24.50981">
        <ele>20.600198</ele>
        <time>2020-10-06T14:28:44.645Z</time>
      </trkpt>
      <trkpt lat="56.81918" lon="24.51171">
        <ele>20.23389</ele>
        <time>2020-10-06T14:29:07.106Z</time>
      </trkpt>
      <trkpt lat="56.81908" lon="24.51232">
        <ele>20.123419</ele>
        <time>2020-10-06T14:29:14.295Z</time>
      </trkpt>
      <trkpt lat="56.81896" lon="24.51313">
        <ele>19.974663</ele>
        <time>2020-10-06T14:29:24.060Z</time>
      </trkpt>
      <trkpt lat="56.8186" lon="24.51551">
        <ele>19.678239</ele>
        <time>2020-10-06T14:29:53.390Z</time>
      </trkpt>
      <trkpt lat="56.81835" lon="24.51715">
        <ele>19.579057</ele>
        <time>2020-10-06T14:30:13.845Z</time>
      </trkpt>
      <trkpt lat="56.81834" lon="24.51788">
        <ele>19.588343</ele>
        <time>2020-10-06T14:30:22.619Z</time>
      </trkpt>
      <trkpt lat="56.81833" lon="24.5186">
        <ele>19.662361</ele>
        <time>2020-10-06T14:30:31.507Z</time>
      </trkpt>
      <trkpt lat="56.81836" lon="24.5202">
        <ele>19.824734</ele>
        <time>2020-10-06T14:30:51.603Z</time>
      </trkpt>
      <trkpt lat="56.81844" lon="24.5217">
        <ele>20.071807</ele>
        <time>2020-10-06T14:31:11.536Z</time>
      </trkpt>
      <trkpt lat="56.81852" lon="24.52332">
        <ele>20.414669</ele>
        <time>2020-10-06T14:31:33.140Z</time>
      </trkpt>
      <trkpt lat="56.81857" lon="24.52424">
        <ele>20.596114</ele>
        <time>2020-10-06T14:31:44.960Z</time>
      </trkpt>
      <trkpt lat="56.81865" lon="24.52568">
        <ele>20.764459</ele>
        <time>2020-10-06T14:32:03.120Z</time>
      </trkpt>
      <trkpt lat="56.81868" lon="24.52624">
        <ele>20.829168</ele>
        <time>2020-10-06T14:32:10.337Z</time>
      </trkpt>
      <trkpt lat="56.8187" lon="24.52655">
        <ele>20.865904</ele>
        <time>2020-10-06T14:32:14.445Z</time>
      </trkpt>
      <trkpt lat="56.81873" lon="24.52723">
        <ele>20.945281</ele>
        <time>2020-10-06T14:32:23.116Z</time>
      </trkpt>
      <trkpt lat="56.81874" lon="24.52739">
        <ele>20.963387</ele>
        <time>2020-10-06T14:32:25.087Z</time>
      </trkpt>
      <trkpt lat="56.81879" lon="24.52816">
        <ele>21.028057</ele>
        <time>2020-10-06T14:32:34.720Z</time>
      </trkpt>
      <trkpt lat="56.8188" lon="24.52849">
        <ele>21.055659</ele>
        <time>2020-10-06T14:32:38.760Z</time>
      </trkpt>
      <trkpt lat="56.81879" lon="24.52948">
        <ele>21.137591</ele>
        <time>2020-10-06T14:32:50.955Z</time>
      </trkpt>
      <trkpt lat="56.81878" lon="24.52979">
        <ele>21.163653</ele>
        <time>2020-10-06T14:32:54.944Z</time>
      </trkpt>
      <trkpt lat="56.81876" lon="24.53122">
        <ele>21.18517</ele>
        <time>2020-10-06T14:33:13.326Z</time>
      </trkpt>
      <trkpt lat="56.81862" lon="24.53336">
        <ele>20.987971</ele>
        <time>2020-10-06T14:33:38.702Z</time>
      </trkpt>
      <trkpt lat="56.81861" lon="24.53498">
        <ele>20.638296</ele>
        <time>2020-10-06T14:33:57.140Z</time>
      </trkpt>
      <trkpt lat="56.81882" lon="24.53617">
        <ele>20.281231</ele>
        <time>2020-10-06T14:34:11.151Z</time>
      </trkpt>
      <trkpt lat="56.81884" lon="24.53643">
        <ele>20.207081</ele>
        <time>2020-10-06T14:34:13.970Z</time>
      </trkpt>
      <trkpt lat="56.81885" lon="24.53664">
        <ele>20.146194</ele>
        <time>2020-10-06T14:34:16.395Z</time>
      </trkpt>
      <trkpt lat="56.81886" lon="24.53679">
        <ele>20.103369</ele>
        <time>2020-10-06T14:34:18.117Z</time>
      </trkpt>
      <trkpt lat="56.81886" lon="24.53681">
        <ele>20.09589</ele>
        <time>2020-10-06T14:34:18.367Z</time>
      </trkpt>
      <trkpt lat="56.81871" lon="24.53843">
        <ele>19.648807</ele>
        <time>2020-10-06T14:34:36.670Z</time>
      </trkpt>
      <trkpt lat="56.8186" lon="24.5391">
        <ele>19.460746</ele>
        <time>2020-10-06T14:34:44.516Z</time>
      </trkpt>
      <trkpt lat="56.81825" lon="24.54017">
        <ele>19.123927</ele>
        <time>2020-10-06T14:34:58.901Z</time>
      </trkpt>
      <trkpt lat="56.81769" lon="24.54203">
        <ele>18.707988</ele>
        <time>2020-10-06T14:35:23.301Z</time>
      </trkpt>
      <trkpt lat="56.81732" lon="24.5433">
        <ele>18.456051</ele>
        <time>2020-10-06T14:35:39.953Z</time>
      </trkpt>
      <trkpt lat="56.81724" lon="24.54388">
        <ele>18.41103</ele>
        <time>2020-10-06T14:35:46.920Z</time>
      </trkpt>
      <trkpt lat="56.81723" lon="24.54634">
        <ele>18.226438</ele>
        <time>2020-10-06T14:36:16.333Z</time>
      </trkpt>
      <trkpt lat="56.8173" lon="24.54689">
        <ele>18.245036</ele>
        <time>2020-10-06T14:36:23.248Z</time>
      </trkpt>
      <trkpt lat="56.81754" lon="24.54876">
        <ele>18.308795</ele>
        <time>2020-10-06T14:36:47.187Z</time>
      </trkpt>
      <trkpt lat="56.81773" lon="24.55043">
        <ele>18.267862</ele>
        <time>2020-10-06T14:37:08.364Z</time>
      </trkpt>
      <trkpt lat="56.81794" lon="24.55259">
        <ele>18.108147</ele>
        <time>2020-10-06T14:37:34.501Z</time>
      </trkpt>
      <trkpt lat="56.81811" lon="24.55557">
        <ele>17.380615</ele>
        <time>2020-10-06T14:38:08.439Z</time>
      </trkpt>
      <trkpt lat="56.81842" lon="24.55795">
        <ele>16.732863</ele>
        <time>2020-10-06T14:38:35.748Z</time>
      </trkpt>
      <trkpt lat="56.81846" lon="24.55842">
        <ele>16.604379</ele>
        <time>2020-10-06T14:38:41.187Z</time>
      </trkpt>
      <trkpt lat="56.81848" lon="24.55879">
        <ele>16.504114</ele>
        <time>2020-10-06T14:38:45.390Z</time>
      </trkpt>
      <trkpt lat="56.81851" lon="24.55939">
        <ele>16.366108</ele>
        <time>2020-10-06T14:38:52.131Z</time>
      </trkpt>
      <trkpt lat="56.81842" lon="24.56352">
        <ele>16.069185</ele>
        <time>2020-10-06T14:39:41.161Z</time>
      </trkpt>
      <trkpt lat="56.81842" lon="24.56373">
        <ele>16.081726</ele>
        <time>2020-10-06T14:39:43.739Z</time>
      </trkpt>
      <trkpt lat="56.8184" lon="24.56424">
        <ele>16.112947</ele>
        <time>2020-10-06T14:39:50.358Z</time>
      </trkpt>
      <trkpt lat="56.8183" lon="24.56504">
        <ele>16.163646</ele>
        <time>2020-10-06T14:40:00.948Z</time>
      </trkpt>
      <trkpt lat="56.81828" lon="24.56571">
        <ele>16.204866</ele>
        <time>2020-10-06T14:40:09.481Z</time>
      </trkpt>
      <trkpt lat="56.81827" lon="24.56592">
        <ele>16.196291</ele>
        <time>2020-10-06T14:40:12.416Z</time>
      </trkpt>
      <trkpt lat="56.81806" lon="24.56612">
        <ele>16.150163</ele>
        <time>2020-10-06T14:40:17.505Z</time>
      </trkpt>
      <trkpt lat="56.81799" lon="24.56644">
        <ele>16.112405</ele>
        <time>2020-10-06T14:40:22.049Z</time>
      </trkpt>
      <trkpt lat="56.81787" lon="24.56697">
        <ele>16.051756</ele>
        <time>2020-10-06T14:40:29.168Z</time>
      </trkpt>
      <trkpt lat="56.81739" lon="24.57019">
        <ele>15.558982</ele>
        <time>2020-10-06T14:41:06.747Z</time>
      </trkpt>
      <trkpt lat="56.81718" lon="24.57077">
        <ele>15.424084</ele>
        <time>2020-10-06T14:41:14.636Z</time>
      </trkpt>
      <trkpt lat="56.81632" lon="24.57236">
        <ele>15.278915</ele>
        <time>2020-10-06T14:41:41.292Z</time>
      </trkpt>
      <trkpt lat="56.81515" lon="24.57454">
        <ele>15.485647</ele>
        <time>2020-10-06T14:42:20.194Z</time>
      </trkpt>
      <trkpt lat="56.81515" lon="24.57455">
        <ele>15.487418</ele>
        <time>2020-10-06T14:42:20.545Z</time>
      </trkpt>
      <trkpt lat="56.81425" lon="24.57624">
        <ele>15.712235</ele>
        <time>2020-10-06T14:42:50.260Z</time>
      </trkpt>
      <trkpt lat="56.81423" lon="24.57627">
        <ele>15.708114</ele>
        <time>2020-10-06T14:42:50.878Z</time>
      </trkpt>
      <trkpt lat="56.81248" lon="24.57954">
        <ele>15.281109</ele>
        <time>2020-10-06T14:43:44.345Z</time>
      </trkpt>
      <trkpt lat="56.81235" lon="24.57982">
        <ele>15.254745</ele>
        <time>2020-10-06T14:43:48.773Z</time>
      </trkpt>
      <trkpt lat="56.81175" lon="24.58153">
        <ele>15.239698</ele>
        <time>2020-10-06T14:44:13.305Z</time>
      </trkpt>
      <trkpt lat="56.81094" lon="24.58386">
        <ele>15.790092</ele>
        <time>2020-10-06T14:44:49.412Z</time>
      </trkpt>
      <trkpt lat="56.81091" lon="24.58395">
        <ele>15.819276</ele>
        <time>2020-10-06T14:44:50.910Z</time>
      </trkpt>
      <trkpt lat="56.81089" lon="24.584">
        <ele>15.840627</ele>
        <time>2020-10-06T14:44:51.733Z</time>
      </trkpt>
      <trkpt lat="56.81051" lon="24.5851">
        <ele>16.314435</ele>
        <time>2020-10-06T14:45:09.648Z</time>
      </trkpt>
      <trkpt lat="56.80925" lon="24.58875">
        <ele>17.716529</ele>
        <time>2020-10-06T14:46:08.757Z</time>
      </trkpt>
      <trkpt lat="56.80903" lon="24.58945">
        <ele>17.952308</ele>
        <time>2020-10-06T14:46:19.115Z</time>
      </trkpt>
      <trkpt lat="56.80885" lon="24.59026">
        <ele>17.954439</ele>
        <time>2020-10-06T14:46:30.231Z</time>
      </trkpt>
      <trkpt lat="56.80875" lon="24.59184">
        <ele>17.933377</ele>
        <time>2020-10-06T14:46:49.560Z</time>
      </trkpt>
      <trkpt lat="56.80877" lon="24.59219">
        <ele>17.928731</ele>
        <time>2020-10-06T14:46:53.694Z</time>
      </trkpt>
      <trkpt lat="56.80891" lon="24.59314">
        <ele>17.832456</ele>
        <time>2020-10-06T14:47:05.115Z</time>
      </trkpt>
      <trkpt lat="56.80907" lon="24.59382">
        <ele>17.692105</ele>
        <time>2020-10-06T14:47:13.578Z</time>
      </trkpt>
      <trkpt lat="56.8093" lon="24.59442">
        <ele>17.552798</ele>
        <time>2020-10-06T14:47:21.951Z</time>
      </trkpt>
      <trkpt lat="56.80938" lon="24.5946">
        <ele>17.508558</ele>
        <time>2020-10-06T14:47:24.615Z</time>
      </trkpt>
      <trkpt lat="56.81012" lon="24.59613">
        <ele>17.316212</ele>
        <time>2020-10-06T14:47:48.130Z</time>
      </trkpt>
      <trkpt lat="56.81064" lon="24.59721">
        <ele>17.343125</ele>
        <time>2020-10-06T14:48:06.041Z</time>
      </trkpt>
      <trkpt lat="56.81097" lon="24.59791">
        <ele>17.361339</ele>
        <time>2020-10-06T14:48:18.238Z</time>
      </trkpt>
      <trkpt lat="56.81142" lon="24.59882">
        <ele>17.425025</ele>
        <time>2020-10-06T14:48:33.717Z</time>
      </trkpt>
      <trkpt lat="56.81153" lon="24.59905">
        <ele>17.440768</ele>
        <time>2020-10-06T14:48:37.593Z</time>
      </trkpt>
      <trkpt lat="56.8116" lon="24.59919">
        <ele>17.450754</ele>
        <time>2020-10-06T14:48:39.885Z</time>
      </trkpt>
      <trkpt lat="56.81162" lon="24.59923">
        <ele>17.453715</ele>
        <time>2020-10-06T14:48:40.652Z</time>
      </trkpt>
      <trkpt lat="56.8116" lon="24.59927">
        <ele>17.45663</ele>
        <time>2020-10-06T14:48:41.300Z</time>
      </trkpt>
      <trkpt lat="56.81151" lon="24.59942">
        <ele>17.468462</ele>
        <time>2020-10-06T14:48:44.132Z</time>
      </trkpt>
      <trkpt lat="56.81154" lon="24.5995">
        <ele>17.473976</ele>
        <time>2020-10-06T14:48:45.954Z</time>
      </trkpt>
      <trkpt lat="56.81122" lon="24.60001">
        <ele>17.514656</ele>
        <time>2020-10-06T14:48:55.469Z</time>
      </trkpt>
      <trkpt lat="56.81039" lon="24.6011">
        <ele>17.354441</ele>
        <time>2020-10-06T14:49:17.468Z</time>
      </trkpt>
      <trkpt lat="56.80932" lon="24.60253">
        <ele>17.189724</ele>
        <time>2020-10-06T14:49:45.804Z</time>
      </trkpt>
      <trkpt lat="56.80916" lon="24.60274">
        <ele>17.209212</ele>
        <time>2020-10-06T14:49:50.235Z</time>
      </trkpt>
      <trkpt lat="56.80907" lon="24.60287">
        <ele>17.220971</ele>
        <time>2020-10-06T14:49:52.912Z</time>
      </trkpt>
      <trkpt lat="56.80853" lon="24.60358">
        <ele>17.287492</ele>
        <time>2020-10-06T14:50:08.314Z</time>
      </trkpt>
      <trkpt lat="56.8074" lon="24.6052">
        <ele>17.626126</ele>
        <time>2020-10-06T14:50:41.946Z</time>
      </trkpt>
      <trkpt lat="56.80708" lon="24.60573">
        <ele>17.755804</ele>
        <time>2020-10-06T14:50:52.073Z</time>
      </trkpt>
      <trkpt lat="56.807" lon="24.60555">
        <ele>17.794722</ele>
        <time>2020-10-06T14:50:55.421Z</time>
      </trkpt>
      <trkpt lat="56.80695" lon="24.60562">
        <ele>17.812776</ele>
        <time>2020-10-06T14:50:56.804Z</time>
      </trkpt>
      <trkpt lat="56.80538" lon="24.60846">
        <ele>18.697943</ele>
        <time>2020-10-06T14:51:49.482Z</time>
      </trkpt>
      <trkpt lat="56.80532" lon="24.60857">
        <ele>18.744943</ele>
        <time>2020-10-06T14:51:51.642Z</time>
      </trkpt>
      <trkpt lat="56.8051" lon="24.60897">
        <ele>18.922057</ele>
        <time>2020-10-06T14:51:59.311Z</time>
      </trkpt>
      <trkpt lat="56.80495" lon="24.60923">
        <ele>19.040635</ele>
        <time>2020-10-06T14:52:04.530Z</time>
      </trkpt>
      <trkpt lat="56.80489" lon="24.60934">
        <ele>19.090395</ele>
        <time>2020-10-06T14:52:06.604Z</time>
      </trkpt>
      <trkpt lat="56.80485" lon="24.6094">
        <ele>19.117705</ele>
        <time>2020-10-06T14:52:07.786Z</time>
      </trkpt>
      <trkpt lat="56.80478" lon="24.60951">
        <ele>19.1715</ele>
        <time>2020-10-06T14:52:10.199Z</time>
      </trkpt>
      <trkpt lat="56.80469" lon="24.60968">
        <ele>19.246486</ele>
        <time>2020-10-06T14:52:13.436Z</time>
      </trkpt>
      <trkpt lat="56.80461" lon="24.60983">
        <ele>19.314673</ele>
        <time>2020-10-06T14:52:16.289Z</time>
      </trkpt>
      <trkpt lat="56.80457" lon="24.60992">
        <ele>19.347468</ele>
        <time>2020-10-06T14:52:17.797Z</time>
      </trkpt>
      <trkpt lat="56.80454" lon="24.61">
        <ele>19.381956</ele>
        <time>2020-10-06T14:52:19.284Z</time>
      </trkpt>
      <trkpt lat="56.80443" lon="24.61025">
        <ele>19.479498</ele>
        <time>2020-10-06T14:52:23.467Z</time>
      </trkpt>
      <trkpt lat="56.80433" lon="24.61048">
        <ele>19.572783</ele>
        <time>2020-10-06T14:52:27.533Z</time>
      </trkpt>
      <trkpt lat="56.80425" lon="24.61066">
        <ele>19.607803</ele>
        <time>2020-10-06T14:52:30.591Z</time>
      </trkpt>
      <trkpt lat="56.80396" lon="24.61117">
        <ele>19.651738</ele>
        <time>2020-10-06T14:52:40.243Z</time>
      </trkpt>
      <trkpt lat="56.80383" lon="24.61142">
        <ele>19.672988</ele>
        <time>2020-10-06T14:52:44.789Z</time>
      </trkpt>
      <trkpt lat="56.80356" lon="24.61193">
        <ele>19.714809</ele>
        <time>2020-10-06T14:52:53.309Z</time>
      </trkpt>
      <trkpt lat="56.80333" lon="24.61235">
        <ele>19.750143</ele>
        <time>2020-10-06T14:53:00.382Z</time>
      </trkpt>
      <trkpt lat="56.80318" lon="24.61264">
        <ele>19.773937</ele>
        <time>2020-10-06T14:53:05.065Z</time>
      </trkpt>
      <trkpt lat="56.80311" lon="24.61277">
        <ele>19.785111</ele>
        <time>2020-10-06T14:53:07.292Z</time>
      </trkpt>
      <trkpt lat="56.80302" lon="24.61292">
        <ele>19.79556</ele>
        <time>2020-10-06T14:53:09.932Z</time>
      </trkpt>
      <trkpt lat="56.80275" lon="24.61342">
        <ele>19.798856</ele>
        <time>2020-10-06T14:53:18.321Z</time>
      </trkpt>
      <trkpt lat="56.80245" lon="24.61399">
        <ele>19.802552</ele>
        <time>2020-10-06T14:53:27.869Z</time>
      </trkpt>
      <trkpt lat="56.80238" lon="24.61409">
        <ele>19.803301</ele>
        <time>2020-10-06T14:53:29.794Z</time>
      </trkpt>
      <trkpt lat="56.80235" lon="24.61414">
        <ele>19.803662</ele>
        <time>2020-10-06T14:53:30.736Z</time>
      </trkpt>
      <trkpt lat="56.8022" lon="24.61443">
        <ele>19.805544</ele>
        <time>2020-10-06T14:53:35.650Z</time>
      </trkpt>
      <trkpt lat="56.80208" lon="24.61466">
        <ele>19.806985</ele>
        <time>2020-10-06T14:53:39.404Z</time>
      </trkpt>
      <trkpt lat="56.79928" lon="24.61992">
        <ele>20.605737</ele>
        <time>2020-10-06T14:55:12.617Z</time>
      </trkpt>
      <trkpt lat="56.7992" lon="24.62006">
        <ele>20.621842</ele>
        <time>2020-10-06T14:55:15.182Z</time>
      </trkpt>
      <trkpt lat="56.79919" lon="24.62008">
        <ele>20.624248</ele>
        <time>2020-10-06T14:55:15.591Z</time>
      </trkpt>
      <trkpt lat="56.79908" lon="24.62027">
        <ele>20.646127</ele>
        <time>2020-10-06T14:55:19.038Z</time>
      </trkpt>
      <trkpt lat="56.79901" lon="24.62036">
        <ele>20.658613</ele>
        <time>2020-10-06T14:55:21.027Z</time>
      </trkpt>
      <trkpt lat="56.79897" lon="24.62044">
        <ele>20.667183</ele>
        <time>2020-10-06T14:55:22.460Z</time>
      </trkpt>
      <trkpt lat="56.79873" lon="24.62093">
        <ele>20.71894</ele>
        <time>2020-10-06T14:55:30.709Z</time>
      </trkpt>
      <trkpt lat="56.79775" lon="24.62275">
        <ele>20.894077</ele>
        <time>2020-10-06T14:56:02.606Z</time>
      </trkpt>
      <trkpt lat="56.79773" lon="24.62284">
        <ele>20.897983</ele>
        <time>2020-10-06T14:56:03.786Z</time>
      </trkpt>
      <trkpt lat="56.79739" lon="24.62341">
        <ele>20.93064</ele>
        <time>2020-10-06T14:56:14.212Z</time>
      </trkpt>
      <trkpt lat="56.79669" lon="24.62473">
        <ele>20.992864</ele>
        <time>2020-10-06T14:56:36.912Z</time>
      </trkpt>
      <trkpt lat="56.79662" lon="24.62487">
        <ele>20.990831</ele>
        <time>2020-10-06T14:56:39.213Z</time>
      </trkpt>
      <trkpt lat="56.79618" lon="24.62566">
        <ele>20.978393</ele>
        <time>2020-10-06T14:56:53.111Z</time>
      </trkpt>
      <trkpt lat="56.79616" lon="24.62571">
        <ele>20.977601</ele>
        <time>2020-10-06T14:56:53.996Z</time>
      </trkpt>
      <trkpt lat="56.79427" lon="24.6292">
        <ele>20.68918</ele>
        <time>2020-10-06T14:57:52.300Z</time>
      </trkpt>
      <trkpt lat="56.79418" lon="24.62934">
        <ele>20.679147</ele>
        <time>2020-10-06T14:57:54.813Z</time>
      </trkpt>
      <trkpt lat="56.79412" lon="24.62946">
        <ele>20.67892</ele>
        <time>2020-10-06T14:57:56.675Z</time>
      </trkpt>
      <trkpt lat="56.79401" lon="24.62966">
        <ele>20.678524</ele>
        <time>2020-10-06T14:58:00.082Z</time>
      </trkpt>
      <trkpt lat="56.79394" lon="24.62978">
        <ele>20.678262</ele>
        <time>2020-10-06T14:58:02.213Z</time>
      </trkpt>
      <trkpt lat="56.79387" lon="24.62991">
        <ele>20.677993</ele>
        <time>2020-10-06T14:58:04.436Z</time>
      </trkpt>
      <trkpt lat="56.79384" lon="24.62996">
        <ele>20.677893</ele>
        <time>2020-10-06T14:58:05.275Z</time>
      </trkpt>
      <trkpt lat="56.79373" lon="24.63023">
        <ele>20.677418</ele>
        <time>2020-10-06T14:58:09.513Z</time>
      </trkpt>
      <trkpt lat="56.79278" lon="24.6323">
        <ele>20.700113</ele>
        <time>2020-10-06T14:58:44.237Z</time>
      </trkpt>
      <trkpt lat="56.79197" lon="24.63374">
        <ele>20.772861</ele>
        <time>2020-10-06T14:59:11.077Z</time>
      </trkpt>
      <trkpt lat="56.791" lon="24.63558">
        <ele>20.80301</ele>
        <time>2020-10-06T14:59:43.594Z</time>
      </trkpt>
      <trkpt lat="56.79096" lon="24.63567">
        <ele>20.80367</ele>
        <time>2020-10-06T14:59:44.928Z</time>
      </trkpt>
      <trkpt lat="56.79094" lon="24.63572">
        <ele>20.804096</ele>
        <time>2020-10-06T14:59:45.769Z</time>
      </trkpt>
      <trkpt lat="56.79086" lon="24.63599">
        <ele>20.805966</ele>
        <time>2020-10-06T14:59:49.663Z</time>
      </trkpt>
      <trkpt lat="56.79013" lon="24.63738">
        <ele>20.937401</ele>
        <time>2020-10-06T15:00:14.431Z</time>
      </trkpt>
      <trkpt lat="56.78999" lon="24.63745">
        <ele>20.965239</ele>
        <time>2020-10-06T15:00:17.859Z</time>
      </trkpt>
      <trkpt lat="56.78862" lon="24.63992">
        <ele>21.465962</ele>
        <time>2020-10-06T15:01:04.674Z</time>
      </trkpt>
      <trkpt lat="56.7886" lon="24.63995">
        <ele>21.473593</ele>
        <time>2020-10-06T15:01:05.282Z</time>
      </trkpt>
      <trkpt lat="56.78869" lon="24.64007">
        <ele>21.5101</ele>
        <time>2020-10-06T15:01:09.512Z</time>
      </trkpt>
      <trkpt lat="56.78874" lon="24.6402">
        <ele>21.538938</ele>
        <time>2020-10-06T15:01:12.816Z</time>
      </trkpt>
      <trkpt lat="56.78853" lon="24.64053">
        <ele>21.631073</ele>
        <time>2020-10-06T15:01:19.474Z</time>
      </trkpt>
      <trkpt lat="56.78797" lon="24.64136">
        <ele>21.90477</ele>
        <time>2020-10-06T15:01:36.849Z</time>
      </trkpt>
      <trkpt lat="56.785" lon="24.64548">
        <ele>23.204459</ele>
        <time>2020-10-06T15:03:06.286Z</time>
      </trkpt>
      <trkpt lat="56.78334" lon="24.64783">
        <ele>22.849054</ele>
        <time>2020-10-06T15:03:50.914Z</time>
      </trkpt>
      <trkpt lat="56.78317" lon="24.64806">
        <ele>22.79195</ele>
        <time>2020-10-06T15:03:55.261Z</time>
      </trkpt>
      <trkpt lat="56.78305" lon="24.64824">
        <ele>22.748472</ele>
        <time>2020-10-06T15:03:58.630Z</time>
      </trkpt>
      <trkpt lat="56.7819" lon="24.64983">
        <ele>22.599402</ele>
        <time>2020-10-06T15:04:29.550Z</time>
      </trkpt>
      <trkpt lat="56.78084" lon="24.6513">
        <ele>22.647732</ele>
        <time>2020-10-06T15:05:00.552Z</time>
      </trkpt>
      <trkpt lat="56.78064" lon="24.65158">
        <ele>22.659355</ele>
        <time>2020-10-06T15:05:06.522Z</time>
      </trkpt>
      <trkpt lat="56.78053" lon="24.65172">
        <ele>22.665508</ele>
        <time>2020-10-06T15:05:09.762Z</time>
      </trkpt>
      <trkpt lat="56.78023" lon="24.65212">
        <ele>22.682297</ele>
        <time>2020-10-06T15:05:18.177Z</time>
      </trkpt>
      <trkpt lat="56.77945" lon="24.65313">
        <ele>22.582131</ele>
        <time>2020-10-06T15:05:38.725Z</time>
      </trkpt>
      <trkpt lat="56.77908" lon="24.65362">
        <ele>22.332475</ele>
        <time>2020-10-06T15:05:48.106Z</time>
      </trkpt>
      <trkpt lat="56.77844" lon="24.65445">
        <ele>21.902764</ele>
        <time>2020-10-06T15:06:03.909Z</time>
      </trkpt>
      <trkpt lat="56.77835" lon="24.65458">
        <ele>21.841184</ele>
        <time>2020-10-06T15:06:06.050Z</time>
      </trkpt>
      <trkpt lat="56.77758" lon="24.65554">
        <ele>21.517874</ele>
        <time>2020-10-06T15:06:25.270Z</time>
      </trkpt>
      <trkpt lat="56.77712" lon="24.65617">
        <ele>21.351272</ele>
        <time>2020-10-06T15:06:37.393Z</time>
      </trkpt>
      <trkpt lat="56.77674" lon="24.65672">
        <ele>21.20931</ele>
        <time>2020-10-06T15:06:48.388Z</time>
      </trkpt>
      <trkpt lat="56.77639" lon="24.6573">
        <ele>21.234086</ele>
        <time>2020-10-06T15:06:59.011Z</time>
      </trkpt>
      <trkpt lat="56.77608" lon="24.65783">
        <ele>21.25755</ele>
        <time>2020-10-06T15:07:08.470Z</time>
      </trkpt>
      <trkpt lat="56.77564" lon="24.65867">
        <ele>21.292802</ele>
        <time>2020-10-06T15:07:22.929Z</time>
      </trkpt>
      <trkpt lat="56.77539" lon="24.65919">
        <ele>21.336051</ele>
        <time>2020-10-06T15:07:31.518Z</time>
      </trkpt>
      <trkpt lat="56.77521" lon="24.65957">
        <ele>21.406892</ele>
        <time>2020-10-06T15:07:37.720Z</time>
      </trkpt>
      <trkpt lat="56.77387" lon="24.66244">
        <ele>21.82243</ele>
        <time>2020-10-06T15:08:26.577Z</time>
      </trkpt>
      <trkpt lat="56.77331" lon="24.66368">
        <ele>21.888619</ele>
        <time>2020-10-06T15:08:46.162Z</time>
      </trkpt>
      <trkpt lat="56.77284" lon="24.66479">
        <ele>21.837891</ele>
        <time>2020-10-06T15:09:02.769Z</time>
      </trkpt>
      <trkpt lat="56.77132" lon="24.6689">
        <ele>21.729089</ele>
        <time>2020-10-06T15:10:02.095Z</time>
      </trkpt>
      <trkpt lat="56.77017" lon="24.67205">
        <ele>22.553418</ele>
        <time>2020-10-06T15:10:52.609Z</time>
      </trkpt>
      <trkpt lat="56.77002" lon="24.67248">
        <ele>22.622091</ele>
        <time>2020-10-06T15:10:59.344Z</time>
      </trkpt>
      <trkpt lat="56.76969" lon="24.67343">
        <ele>22.695774</ele>
        <time>2020-10-06T15:11:14.042Z</time>
      </trkpt>
      <trkpt lat="56.76956" lon="24.6738">
        <ele>22.724653</ele>
        <time>2020-10-06T15:11:19.604Z</time>
      </trkpt>
      <trkpt lat="56.76845" lon="24.6761">
        <ele>22.622775</ele>
        <time>2020-10-06T15:11:55.655Z</time>
      </trkpt>
      <trkpt lat="56.766" lon="24.68142">
        <ele>21.979004</ele>
        <time>2020-10-06T15:13:17.918Z</time>
      </trkpt>
      <trkpt lat="56.76465" lon="24.68428">
        <ele>22.016484</ele>
        <time>2020-10-06T15:14:04.106Z</time>
      </trkpt>
      <trkpt lat="56.76432" lon="24.68498">
        <ele>22.149214</ele>
        <time>2020-10-06T15:14:15.845Z</time>
      </trkpt>
      <trkpt lat="56.76381" lon="24.68604">
        <ele>22.875894</ele>
        <time>2020-10-06T15:14:34.385Z</time>
      </trkpt>
      <trkpt lat="56.75935" lon="24.69556">
        <ele>29.293782</ele>
        <time>2020-10-06T15:17:36.222Z</time>
      </trkpt>
      <trkpt lat="56.75628" lon="24.7014">
        <ele>31.117563</ele>
        <time>2020-10-06T15:19:22.909Z</time>
      </trkpt>
      <trkpt lat="56.75316" lon="24.70119">
        <ele>29.498142</ele>
        <time>2020-10-06T15:20:28.918Z</time>
      </trkpt>
      <trkpt lat="56.75216" lon="24.70211">
        <ele>28.735611</ele>
        <time>2020-10-06T15:20:52.141Z</time>
      </trkpt>
      <trkpt lat="56.75101" lon="24.70273">
        <ele>28.122172</ele>
        <time>2020-10-06T15:21:17.745Z</time>
      </trkpt>
      <trkpt lat="56.75096" lon="24.70277">
        <ele>28.09299</ele>
        <time>2020-10-06T15:21:19.146Z</time>
      </trkpt>
      <trkpt lat="56.74927" lon="24.7044">
        <ele>27.384428</ele>
        <time>2020-10-06T15:22:04.488Z</time>
      </trkpt>
      <trkpt lat="56.74871" lon="24.70495">
        <ele>27.007245</ele>
        <time>2020-10-06T15:22:19.009Z</time>
      </trkpt>
      <trkpt lat="56.74652" lon="24.70785">
        <ele>25.624772</ele>
        <time>2020-10-06T15:23:19.434Z</time>
      </trkpt>
      <trkpt lat="56.74609" lon="24.70826">
        <ele>25.527543</ele>
        <time>2020-10-06T15:23:31.904Z</time>
      </trkpt>
      <trkpt lat="56.74522" lon="24.70955">
        <ele>27.049133</ele>
        <time>2020-10-06T15:24:06.586Z</time>
      </trkpt>
      <trkpt lat="56.74513" lon="24.70981">
        <ele>27.281999</ele>
        <time>2020-10-06T15:24:11.923Z</time>
      </trkpt>
      <trkpt lat="56.74514" lon="24.71004">
        <ele>27.456093</ele>
        <time>2020-10-06T15:24:16.131Z</time>
      </trkpt>
      <trkpt lat="56.74518" lon="24.71028">
        <ele>27.645142</ele>
        <time>2020-10-06T15:24:20.370Z</time>
      </trkpt>
      <trkpt lat="56.7453" lon="24.71066">
        <ele>27.971258</ele>
        <time>2020-10-06T15:24:27.334Z</time>
      </trkpt>
      <trkpt lat="56.74447" lon="24.71166">
        <ele>29.30154</ele>
        <time>2020-10-06T15:24:55.401Z</time>
      </trkpt>
      <trkpt lat="56.74405" lon="24.71214">
        <ele>29.960472</ele>
        <time>2020-10-06T15:25:08.615Z</time>
      </trkpt>
      <trkpt lat="56.74387" lon="24.71245">
        <ele>30.288582</ele>
        <time>2020-10-06T15:25:14.921Z</time>
      </trkpt>
      <trkpt lat="56.74379" lon="24.71341">
        <ele>31.01371</ele>
        <time>2020-10-06T15:25:28.858Z</time>
      </trkpt>
      <trkpt lat="56.74377" lon="24.71355">
        <ele>31.12549</ele>
        <time>2020-10-06T15:25:31.270Z</time>
      </trkpt>
      <trkpt lat="56.74375" lon="24.71365">
        <ele>31.203356</ele>
        <time>2020-10-06T15:25:32.903Z</time>
      </trkpt>
      <trkpt lat="56.74367" lon="24.71441">
        <ele>31.782675</ele>
        <time>2020-10-06T15:25:44.654Z</time>
      </trkpt>
      <trkpt lat="56.74366" lon="24.71454">
        <ele>31.877935</ele>
        <time>2020-10-06T15:25:46.498Z</time>
      </trkpt>
      <trkpt lat="56.74368" lon="24.71482">
        <ele>32.091014</ele>
        <time>2020-10-06T15:25:51.299Z</time>
      </trkpt>
      <trkpt lat="56.74378" lon="24.71513">
        <ele>32.356816</ele>
        <time>2020-10-06T15:25:56.787Z</time>
      </trkpt>
      <trkpt lat="56.74416" lon="24.71608">
        <ele>32.977279</ele>
        <time>2020-10-06T15:26:16.372Z</time>
      </trkpt>
      <trkpt lat="56.74321" lon="24.71735">
        <ele>33.659685</ele>
        <time>2020-10-06T15:26:45.317Z</time>
      </trkpt>
      <trkpt lat="56.74316" lon="24.71741">
        <ele>33.693199</ele>
        <time>2020-10-06T15:26:46.561Z</time>
      </trkpt>
      <trkpt lat="56.74306" lon="24.71755">
        <ele>33.765644</ele>
        <time>2020-10-06T15:26:49.272Z</time>
      </trkpt>
      <trkpt lat="56.74255" lon="24.71629">
        <ele>33.106606</ele>
        <time>2020-10-06T15:27:06.048Z</time>
      </trkpt>
      <trkpt lat="56.74245" lon="24.71606">
        <ele>32.958908</ele>
        <time>2020-10-06T15:27:09.079Z</time>
      </trkpt>
      <trkpt lat="56.74185" lon="24.71457">
        <ele>32.099962</ele>
        <time>2020-10-06T15:27:28.108Z</time>
      </trkpt>
      <trkpt lat="56.74169" lon="24.71419">
        <ele>32.036117</ele>
        <time>2020-10-06T15:27:33.218Z</time>
      </trkpt>
      <trkpt lat="56.73891" lon="24.70758">
        <ele>31.090528</ele>
        <time>2020-10-06T15:29:13.155Z</time>
      </trkpt>
      <trkpt lat="56.73877" lon="24.70724">
        <ele>31.062832</ele>
        <time>2020-10-06T15:29:18.406Z</time>
      </trkpt>
      <trkpt lat="56.73872" lon="24.70714">
        <ele>31.05462</ele>
        <time>2020-10-06T15:29:19.977Z</time>
      </trkpt>
      <trkpt lat="56.73867" lon="24.70702">
        <ele>31.045223</ele>
        <time>2020-10-06T15:29:21.713Z</time>
      </trkpt>
      <trkpt lat="56.7386" lon="24.70684">
        <ele>31.019909</ele>
        <time>2020-10-06T15:29:24.407Z</time>
      </trkpt>
      <trkpt lat="56.73854" lon="24.70669">
        <ele>30.994935</ele>
        <time>2020-10-06T15:29:26.595Z</time>
      </trkpt>
      <trkpt lat="56.73816" lon="24.7058">
        <ele>30.840758</ele>
        <time>2020-10-06T15:29:39.939Z</time>
      </trkpt>
      <trkpt lat="56.73763" lon="24.70451">
        <ele>30.61924</ele>
        <time>2020-10-06T15:29:58.592Z</time>
      </trkpt>
      <trkpt lat="56.73684" lon="24.70268">
        <ele>30.379903</ele>
        <time>2020-10-06T15:30:25.699Z</time>
      </trkpt>
      <trkpt lat="56.73621" lon="24.70123">
        <ele>30.348959</ele>
        <time>2020-10-06T15:30:48.255Z</time>
      </trkpt>
      <trkpt lat="56.73589" lon="24.70064">
        <ele>30.451159</ele>
        <time>2020-10-06T15:30:58.764Z</time>
      </trkpt>
      <trkpt lat="56.73543" lon="24.70014">
        <ele>30.57142</ele>
        <time>2020-10-06T15:31:11.276Z</time>
      </trkpt>
      <trkpt lat="56.73529" lon="24.70004">
        <ele>30.60445</ele>
        <time>2020-10-06T15:31:14.806Z</time>
      </trkpt>
      <trkpt lat="56.73484" lon="24.6998">
        <ele>30.822374</ele>
        <time>2020-10-06T15:31:26.017Z</time>
      </trkpt>
      <trkpt lat="56.73403" lon="24.69951">
        <ele>31.497145</ele>
        <time>2020-10-06T15:31:46.306Z</time>
      </trkpt>
      <trkpt lat="56.73244" lon="24.69938">
        <ele>33.456398</ele>
        <time>2020-10-06T15:32:29.236Z</time>
      </trkpt>
      <trkpt lat="56.73181" lon="24.69946">
        <ele>34.495491</ele>
        <time>2020-10-06T15:32:48.067Z</time>
      </trkpt>
      <trkpt lat="56.73163" lon="24.69954">
        <ele>34.798083</ele>
        <time>2020-10-06T15:32:53.920Z</time>
      </trkpt>
      <trkpt lat="56.73133" lon="24.69961">
        <ele>35.405896</ele>
        <time>2020-10-06T15:33:03.239Z</time>
      </trkpt>
      <trkpt lat="56.73115" lon="24.69965">
        <ele>35.841443</ele>
        <time>2020-10-06T15:33:08.725Z</time>
      </trkpt>
      <trkpt lat="56.73034" lon="24.70008">
        <ele>37.898333</ele>
        <time>2020-10-06T15:33:35.797Z</time>
      </trkpt>
      <trkpt lat="56.72924" lon="24.70073">
        <ele>40.786192</ele>
        <time>2020-10-06T15:34:13.530Z</time>
      </trkpt>
      <trkpt lat="56.72861" lon="24.70126">
        <ele>42.577315</ele>
        <time>2020-10-06T15:34:36.410Z</time>
      </trkpt>
      <trkpt lat="56.72754" lon="24.70245">
        <ele>45.033483</ele>
        <time>2020-10-06T15:35:17.320Z</time>
      </trkpt>
      <trkpt lat="56.72715" lon="24.70292">
        <ele>45.69438</ele>
        <time>2020-10-06T15:35:30.795Z</time>
      </trkpt>
      <trkpt lat="56.72664" lon="24.70387">
        <ele>46.573077</ele>
        <time>2020-10-06T15:35:49.107Z</time>
      </trkpt>
      <trkpt lat="56.7243" lon="24.70823">
        <ele>43.123123</ele>
        <time>2020-10-06T15:36:51.291Z</time>
      </trkpt>
      <trkpt lat="56.72427" lon="24.70827">
        <ele>43.0883</ele>
        <time>2020-10-06T15:36:51.974Z</time>
      </trkpt>
      <trkpt lat="56.7227" lon="24.71118">
        <ele>44.923558</ele>
        <time>2020-10-06T15:37:50.724Z</time>
      </trkpt>
      <trkpt lat="56.72262" lon="24.71136">
        <ele>45.140604</ele>
        <time>2020-10-06T15:37:54.595Z</time>
      </trkpt>
      <trkpt lat="56.72252" lon="24.71153">
        <ele>45.359773</ele>
        <time>2020-10-06T15:37:58.777Z</time>
      </trkpt>
      <trkpt lat="56.72209" lon="24.71235">
        <ele>46.401336</ele>
        <time>2020-10-06T15:38:17.956Z</time>
      </trkpt>
      <trkpt lat="56.72071" lon="24.71492">
        <ele>48.704375</ele>
        <time>2020-10-06T15:39:13.837Z</time>
      </trkpt>
      <trkpt lat="56.72065" lon="24.71502">
        <ele>48.781993</ele>
        <time>2020-10-06T15:39:15.776Z</time>
      </trkpt>
      <trkpt lat="56.71778" lon="24.72036">
        <ele>47.075702</ele>
        <time>2020-10-06T15:40:38.603Z</time>
      </trkpt>
      <trkpt lat="56.71699" lon="24.72184">
        <ele>46.980033</ele>
        <time>2020-10-06T15:41:04.058Z</time>
      </trkpt>
      <trkpt lat="56.71666" lon="24.72244">
        <ele>46.941545</ele>
        <time>2020-10-06T15:41:14.580Z</time>
      </trkpt>
      <trkpt lat="56.71551" lon="24.72469">
        <ele>46.851992</ele>
        <time>2020-10-06T15:41:51.592Z</time>
      </trkpt>
      <trkpt lat="56.71492" lon="24.72669">
        <ele>46.968746</ele>
        <time>2020-10-06T15:42:19.822Z</time>
      </trkpt>
      <trkpt lat="56.71453" lon="24.72921">
        <ele>47.264696</ele>
        <time>2020-10-06T15:42:53.346Z</time>
      </trkpt>
      <trkpt lat="56.71443" lon="24.73132">
        <ele>47.614253</ele>
        <time>2020-10-06T15:43:20.497Z</time>
      </trkpt>
      <trkpt lat="56.71424" lon="24.73534">
        <ele>48.150045</ele>
        <time>2020-10-06T15:44:13.776Z</time>
      </trkpt>
      <trkpt lat="56.71412" lon="24.73703">
        <ele>47.907341</ele>
        <time>2020-10-06T15:44:34.058Z</time>
      </trkpt>
      <trkpt lat="56.71364" lon="24.74358">
        <ele>44.094746</ele>
        <time>2020-10-06T15:45:42.118Z</time>
      </trkpt>
      <trkpt lat="56.71352" lon="24.74424">
        <ele>43.794306</ele>
        <time>2020-10-06T15:45:50.257Z</time>
      </trkpt>
      <trkpt lat="56.71329" lon="24.74542">
        <ele>44.502985</ele>
        <time>2020-10-06T15:46:06.550Z</time>
      </trkpt>
      <trkpt lat="56.71135" lon="24.75098">
        <ele>48.602337</ele>
        <time>2020-10-06T15:47:51.856Z</time>
      </trkpt>
      <trkpt lat="56.70897" lon="24.75782">
        <ele>46.582391</ele>
        <time>2020-10-06T15:49:23.432Z</time>
      </trkpt>
      <trkpt lat="56.70886" lon="24.75876">
        <ele>45.173747</ele>
        <time>2020-10-06T15:49:31.714Z</time>
      </trkpt>
      <trkpt lat="56.70869" lon="24.76023">
        <ele>42.177775</ele>
        <time>2020-10-06T15:49:44.501Z</time>
      </trkpt>
      <trkpt lat="56.70863" lon="24.76116">
        <ele>40.30078</ele>
        <time>2020-10-06T15:49:52.525Z</time>
      </trkpt>
      <trkpt lat="56.70847" lon="24.7635">
        <ele>38.094387</ele>
        <time>2020-10-06T15:50:14.957Z</time>
      </trkpt>
      <trkpt lat="56.70842" lon="24.76429">
        <ele>37.458978</ele>
        <time>2020-10-06T15:50:25.246Z</time>
      </trkpt>
      <trkpt lat="56.70833" lon="24.76575">
        <ele>37.266441</ele>
        <time>2020-10-06T15:50:45.387Z</time>
      </trkpt>
      <trkpt lat="56.70791" lon="24.77211">
        <ele>37.386286</ele>
        <time>2020-10-06T15:52:03.929Z</time>
      </trkpt>
      <trkpt lat="56.70788" lon="24.7727">
        <ele>37.329439</ele>
        <time>2020-10-06T15:52:10.666Z</time>
      </trkpt>
      <trkpt lat="56.70775" lon="24.77373">
        <ele>37.230071</ele>
        <time>2020-10-06T15:52:22.779Z</time>
      </trkpt>
      <trkpt lat="56.70749" lon="24.77522">
        <ele>37.419613</ele>
        <time>2020-10-06T15:52:41.732Z</time>
      </trkpt>
      <trkpt lat="56.70587" lon="24.78187">
        <ele>40.066319</ele>
        <time>2020-10-06T15:54:23.273Z</time>
      </trkpt>
      <trkpt lat="56.70518" lon="24.78472">
        <ele>42.116798</ele>
        <time>2020-10-06T15:55:04.477Z</time>
      </trkpt>
      <trkpt lat="56.70407" lon="24.79009">
        <ele>49.738964</ele>
        <time>2020-10-06T15:56:52.561Z</time>
      </trkpt>
      <trkpt lat="56.7028" lon="24.79793">
        <ele>55.795309</ele>
        <time>2020-10-06T15:58:55.416Z</time>
      </trkpt>
      <trkpt lat="56.7014" lon="24.80655">
        <ele>57.665242</ele>
        <time>2020-10-06T16:00:56.102Z</time>
      </trkpt>
      <trkpt lat="56.70123" lon="24.80763">
        <ele>57.169507</ele>
        <time>2020-10-06T16:01:07.661Z</time>
      </trkpt>
      <trkpt lat="56.69973" lon="24.81496">
        <ele>48.030832</ele>
        <time>2020-10-06T16:02:21.382Z</time>
      </trkpt>
      <trkpt lat="56.69928" lon="24.81661">
        <ele>46.685526</ele>
        <time>2020-10-06T16:02:40.524Z</time>
      </trkpt>
      <trkpt lat="56.69854" lon="24.81899">
        <ele>45.381139</ele>
        <time>2020-10-06T16:03:10.498Z</time>
      </trkpt>
      <trkpt lat="56.69802" lon="24.8203">
        <ele>44.879036</ele>
        <time>2020-10-06T16:03:28.431Z</time>
      </trkpt>
      <trkpt lat="56.69549" lon="24.82692">
        <ele>45.535826</ele>
        <time>2020-10-06T16:05:09.390Z</time>
      </trkpt>
      <trkpt lat="56.69443" lon="24.8297">
        <ele>47.031543</ele>
        <time>2020-10-06T16:05:57.017Z</time>
      </trkpt>
      <trkpt lat="56.6944" lon="24.82977">
        <ele>47.086282</ele>
        <time>2020-10-06T16:05:58.395Z</time>
      </trkpt>
      <trkpt lat="56.69335" lon="24.83239">
        <ele>49.157868</ele>
        <time>2020-10-06T16:06:48.451Z</time>
      </trkpt>
      <trkpt lat="56.69286" lon="24.83347">
        <ele>50.090618</ele>
        <time>2020-10-06T16:07:08.637Z</time>
      </trkpt>
      <trkpt lat="56.69236" lon="24.83438">
        <ele>50.891932</ele>
        <time>2020-10-06T16:07:25.999Z</time>
      </trkpt>
      <trkpt lat="56.69095" lon="24.83648">
        <ele>53.605156</ele>
        <time>2020-10-06T16:08:16.768Z</time>
      </trkpt>
      <trkpt lat="56.68951" lon="24.8386">
        <ele>56.953575</ele>
        <time>2020-10-06T16:09:16.684Z</time>
      </trkpt>
      <trkpt lat="56.68865" lon="24.83988">
        <ele>58.529703</ele>
        <time>2020-10-06T16:09:43.862Z</time>
      </trkpt>
      <trkpt lat="56.6819" lon="24.84989">
        <ele>67.468794</ele>
        <time>2020-10-06T16:13:33.857Z</time>
      </trkpt>
      <trkpt lat="56.68101" lon="24.8511">
        <ele>68.777463</ele>
        <time>2020-10-06T16:14:04.304Z</time>
      </trkpt>
      <trkpt lat="56.67959" lon="24.85278">
        <ele>70.384382</ele>
        <time>2020-10-06T16:14:49.956Z</time>
      </trkpt>
      <trkpt lat="56.67886" lon="24.85349">
        <ele>70.927928</ele>
        <time>2020-10-06T16:15:09.739Z</time>
      </trkpt>
      <trkpt lat="56.67719" lon="24.85513">
        <ele>71.135886</ele>
        <time>2020-10-06T16:15:52.171Z</time>
      </trkpt>
      <trkpt lat="56.67601" lon="24.85627">
        <ele>70.994516</ele>
        <time>2020-10-06T16:16:22.495Z</time>
      </trkpt>
      <trkpt lat="56.6718" lon="24.8604">
        <ele>68.310549</ele>
        <time>2020-10-06T16:17:59.419Z</time>
      </trkpt>
      <trkpt lat="56.66989" lon="24.86226">
        <ele>66.477225</ele>
        <time>2020-10-06T16:18:43.276Z</time>
      </trkpt>
      <trkpt lat="56.65723" lon="24.87455">
        <ele>41.688212</ele>
        <time>2020-10-06T16:23:00.735Z</time>
      </trkpt>
      <trkpt lat="56.6545" lon="24.8772">
        <ele>37.319353</ele>
        <time>2020-10-06T16:23:58.486Z</time>
      </trkpt>
      <trkpt lat="56.65323" lon="24.87831">
        <ele>35.51217</ele>
        <time>2020-10-06T16:24:24.537Z</time>
      </trkpt>
      <trkpt lat="56.65179" lon="24.87938">
        <ele>34.19097</ele>
        <time>2020-10-06T16:24:54.804Z</time>
      </trkpt>
      <trkpt lat="56.64196" lon="24.8858">
        <ele>34.0924</ele>
        <time>2020-10-06T16:28:48.413Z</time>
      </trkpt>
      <trkpt lat="56.6411" lon="24.88654">
        <ele>34.189497</ele>
        <time>2020-10-06T16:29:09.571Z</time>
      </trkpt>
      <trkpt lat="56.64035" lon="24.88743">
        <ele>34.37221</ele>
        <time>2020-10-06T16:29:29.805Z</time>
      </trkpt>
      <trkpt lat="56.63981" lon="24.88834">
        <ele>34.854504</ele>
        <time>2020-10-06T16:29:47.596Z</time>
      </trkpt>
      <trkpt lat="56.63909" lon="24.88991">
        <ele>36.457046</ele>
        <time>2020-10-06T16:30:18.889Z</time>
      </trkpt>
      <trkpt lat="56.63748" lon="24.8942">
        <ele>41.843508</ele>
        <time>2020-10-06T16:31:49.603Z</time>
      </trkpt>
      <trkpt lat="56.63637" lon="24.89744">
        <ele>42.095027</ele>
        <time>2020-10-06T16:32:37.752Z</time>
      </trkpt>
      <trkpt lat="56.63479" lon="24.90177">
        <ele>37.838241</ele>
        <time>2020-10-06T16:33:27.851Z</time>
      </trkpt>
      <trkpt lat="56.63221" lon="24.90919">
        <ele>38.638165</ele>
        <time>2020-10-06T16:35:18.634Z</time>
      </trkpt>
      <trkpt lat="56.63103" lon="24.91293">
        <ele>42.528358</ele>
        <time>2020-10-06T16:36:32.925Z</time>
      </trkpt>
      <trkpt lat="56.62566" lon="24.93029">
        <ele>43.224101</ele>
        <time>2020-10-06T16:40:38.126Z</time>
      </trkpt>
      <trkpt lat="56.62473" lon="24.93307">
        <ele>42.062979</ele>
        <time>2020-10-06T16:41:13.992Z</time>
      </trkpt>
      <trkpt lat="56.6239" lon="24.93511">
        <ele>40.68893</ele>
        <time>2020-10-06T16:41:40.400Z</time>
      </trkpt>
      <trkpt lat="56.62294" lon="24.93716">
        <ele>40.535151</ele>
        <time>2020-10-06T16:42:11.222Z</time>
      </trkpt>
      <trkpt lat="56.61848" lon="24.94551">
        <ele>48.14803</ele>
        <time>2020-10-06T16:45:07.918Z</time>
      </trkpt>
      <trkpt lat="56.6177" lon="24.94721">
        <ele>49.251803</ele>
        <time>2020-10-06T16:45:39.384Z</time>
      </trkpt>
      <trkpt lat="56.61692" lon="24.94915">
        <ele>49.519709</ele>
        <time>2020-10-06T16:46:10.388Z</time>
      </trkpt>
      <trkpt lat="56.61624" lon="24.95117">
        <ele>48.904285</ele>
        <time>2020-10-06T16:46:37.535Z</time>
      </trkpt>
      <trkpt lat="56.6137" lon="24.95977">
        <ele>43.312708</ele>
        <time>2020-10-06T16:48:19.224Z</time>
      </trkpt>
      <trkpt lat="56.61311" lon="24.96131">
        <ele>42.960341</ele>
        <time>2020-10-06T16:48:40.584Z</time>
      </trkpt>
      <trkpt lat="56.61221" lon="24.96344">
        <ele>45.715836</ele>
        <time>2020-10-06T16:49:23.972Z</time>
      </trkpt>
      <trkpt lat="56.61054" lon="24.96664">
        <ele>53.496782</ele>
        <time>2020-10-06T16:50:59.182Z</time>
      </trkpt>
      <trkpt lat="56.61035" lon="24.96706">
        <ele>53.68858</ele>
        <time>2020-10-06T16:51:08.239Z</time>
      </trkpt>
      <trkpt lat="56.60812" lon="24.97133">
        <ele>51.679241</ele>
        <time>2020-10-06T16:52:08.892Z</time>
      </trkpt>
      <trkpt lat="56.6073" lon="24.9732">
        <ele>50.500666</ele>
        <time>2020-10-06T16:52:34.131Z</time>
      </trkpt>
      <trkpt lat="56.60668" lon="24.97515">
        <ele>51.091319</ele>
        <time>2020-10-06T16:53:04.033Z</time>
      </trkpt>
      <trkpt lat="56.60632" lon="24.97704">
        <ele>51.937937</ele>
        <time>2020-10-06T16:53:34.415Z</time>
      </trkpt>
      <trkpt lat="56.60523" lon="24.98669">
        <ele>56.684334</ele>
        <time>2020-10-06T16:55:56.418Z</time>
      </trkpt>
      <trkpt lat="56.60457" lon="24.99064">
        <ele>55.584877</ele>
        <time>2020-10-06T16:56:42.178Z</time>
      </trkpt>
      <trkpt lat="56.60259" lon="25.0002">
        <ele>49.497689</ele>
        <time>2020-10-06T16:58:29.414Z</time>
      </trkpt>
      <trkpt lat="56.6025" lon="25.00081">
        <ele>49.131883</ele>
        <time>2020-10-06T16:58:36.129Z</time>
      </trkpt>
      <trkpt lat="56.6024" lon="25.00079">
        <ele>49.02703</ele>
        <time>2020-10-06T16:58:38.026Z</time>
      </trkpt>
      <trkpt lat="56.60228" lon="25.00086">
        <ele>48.892193</ele>
        <time>2020-10-06T16:58:40.435Z</time>
      </trkpt>
      <trkpt lat="56.60219" lon="25.00103">
        <ele>48.792537</ele>
        <time>2020-10-06T16:58:43.154Z</time>
      </trkpt>
      <trkpt lat="56.60218" lon="25.00139">
        <ele>48.708035</ele>
        <time>2020-10-06T16:58:46.945Z</time>
      </trkpt>
      <trkpt lat="56.60225" lon="25.00162">
        <ele>48.644452</ele>
        <time>2020-10-06T16:58:50.150Z</time>
      </trkpt>
      <trkpt lat="56.60241" lon="25.00173">
        <ele>48.572532</ele>
        <time>2020-10-06T16:58:53.433Z</time>
      </trkpt>
      <trkpt lat="56.60244" lon="25.0027">
        <ele>48.345463</ele>
        <time>2020-10-06T16:59:04.600Z</time>
      </trkpt>
      <trkpt lat="56.60261" lon="25.00758">
        <ele>48.060061</ele>
        <time>2020-10-06T17:00:03.906Z</time>
      </trkpt>
      <trkpt lat="56.60243" lon="25.01232">
        <ele>48.899221</ele>
        <time>2020-10-06T17:01:06.982Z</time>
      </trkpt>
      <trkpt lat="56.60233" lon="25.01365">
        <ele>49.093334</ele>
        <time>2020-10-06T17:01:23.812Z</time>
      </trkpt>
      <trkpt lat="56.60221" lon="25.015">
        <ele>48.863502</ele>
        <time>2020-10-06T17:01:40.039Z</time>
      </trkpt>
      <trkpt lat="56.60177" lon="25.01923">
        <ele>48.062391</ele>
        <time>2020-10-06T17:02:29.153Z</time>
      </trkpt>
      <trkpt lat="56.60203" lon="25.02258">
        <ele>48.130924</ele>
        <time>2020-10-06T17:03:10.317Z</time>
      </trkpt>
      <trkpt lat="56.6018" lon="25.02617">
        <ele>49.148898</ele>
        <time>2020-10-06T17:04:01.003Z</time>
      </trkpt>
      <trkpt lat="56.60205" lon="25.02957">
        <ele>49.513705</ele>
        <time>2020-10-06T17:04:43.223Z</time>
      </trkpt>
      <trkpt lat="56.60244" lon="25.03292">
        <ele>50.44679</ele>
        <time>2020-10-06T17:05:28.334Z</time>
      </trkpt>
      <trkpt lat="56.60309" lon="25.03572">
        <ele>52.263471</ele>
        <time>2020-10-06T17:06:14.950Z</time>
      </trkpt>
      <trkpt lat="56.60371" lon="25.03747">
        <ele>52.453533</ele>
        <time>2020-10-06T17:06:42.931Z</time>
      </trkpt>
      <trkpt lat="56.60562" lon="25.04339">
        <ele>50.116375</ele>
        <time>2020-10-06T17:07:57.908Z</time>
      </trkpt>
      <trkpt lat="56.60685" lon="25.04682">
        <ele>48.086405</ele>
        <time>2020-10-06T17:08:42.740Z</time>
      </trkpt>
      <trkpt lat="56.60845" lon="25.05068">
        <ele>42.990182</ele>
        <time>2020-10-06T17:09:30.518Z</time>
      </trkpt>
      <trkpt lat="56.60936" lon="25.05221">
        <ele>39.4846</ele>
        <time>2020-10-06T17:09:50.492Z</time>
      </trkpt>
      <trkpt lat="56.6098" lon="25.05301">
        <ele>37.824537</ele>
        <time>2020-10-06T17:10:00.596Z</time>
      </trkpt>
      <trkpt lat="56.61032" lon="25.05407">
        <ele>35.738333</ele>
        <time>2020-10-06T17:10:13.810Z</time>
      </trkpt>
      <trkpt lat="56.61069" lon="25.0549">
        <ele>34.656791</ele>
        <time>2020-10-06T17:10:24.314Z</time>
      </trkpt>
      <trkpt lat="56.61108" lon="25.05602">
        <ele>34.057199</ele>
        <time>2020-10-06T17:10:38.878Z</time>
      </trkpt>
      <trkpt lat="56.61147" lon="25.05738">
        <ele>33.394798</ele>
        <time>2020-10-06T17:10:56.671Z</time>
      </trkpt>
      <trkpt lat="56.61271" lon="25.06199">
        <ele>33.460753</ele>
        <time>2020-10-06T17:11:59.857Z</time>
      </trkpt>
      <trkpt lat="56.61275" lon="25.06215">
        <ele>33.469628</ele>
        <time>2020-10-06T17:12:02.146Z</time>
      </trkpt>
      <trkpt lat="56.61364" lon="25.06549">
        <ele>33.723378</ele>
        <time>2020-10-06T17:12:49.140Z</time>
      </trkpt>
      <trkpt lat="56.61391" lon="25.06652">
        <ele>33.770494</ele>
        <time>2020-10-06T17:13:03.399Z</time>
      </trkpt>
      <trkpt lat="56.61479" lon="25.06901">
        <ele>33.721695</ele>
        <time>2020-10-06T17:13:39.148Z</time>
      </trkpt>
      <trkpt lat="56.61528" lon="25.07008">
        <ele>33.798192</ele>
        <time>2020-10-06T17:13:56.167Z</time>
      </trkpt>
      <trkpt lat="56.61535" lon="25.07024">
        <ele>33.80935</ele>
        <time>2020-10-06T17:13:58.675Z</time>
      </trkpt>
      <trkpt lat="56.61563" lon="25.07104">
        <ele>33.861783</ele>
        <time>2020-10-06T17:14:10.694Z</time>
      </trkpt>
      <trkpt lat="56.61604" lon="25.07233">
        <ele>34.13154</ele>
        <time>2020-10-06T17:14:29.908Z</time>
      </trkpt>
      <trkpt lat="56.61619" lon="25.07271">
        <ele>34.254026</ele>
        <time>2020-10-06T17:14:35.950Z</time>
      </trkpt>
      <trkpt lat="56.61647" lon="25.07527">
        <ele>35.002239</ele>
        <time>2020-10-06T17:15:11.846Z</time>
      </trkpt>
      <trkpt lat="56.6166" lon="25.07679">
        <ele>35.521531</ele>
        <time>2020-10-06T17:15:32.740Z</time>
      </trkpt>
      <trkpt lat="56.61679" lon="25.07898">
        <ele>36.12537</ele>
        <time>2020-10-06T17:16:02.674Z</time>
      </trkpt>
      <trkpt lat="56.61693" lon="25.08069">
        <ele>36.492086</ele>
        <time>2020-10-06T17:16:25.095Z</time>
      </trkpt>
      <trkpt lat="56.61695" lon="25.08098">
        <ele>36.555222</ele>
        <time>2020-10-06T17:16:28.925Z</time>
      </trkpt>
      <trkpt lat="56.61698" lon="25.08131">
        <ele>36.550524</ele>
        <time>2020-10-06T17:16:33.150Z</time>
      </trkpt>
      <trkpt lat="56.61702" lon="25.08199">
        <ele>36.493791</ele>
        <time>2020-10-06T17:16:41.758Z</time>
      </trkpt>
      <trkpt lat="56.61704" lon="25.08234">
        <ele>36.465391</ele>
        <time>2020-10-06T17:16:45.979Z</time>
      </trkpt>
      <trkpt lat="56.61713" lon="25.08385">
        <ele>36.340891</ele>
        <time>2020-10-06T17:17:03.866Z</time>
      </trkpt>
      <trkpt lat="56.61715" lon="25.08415">
        <ele>36.316478</ele>
        <time>2020-10-06T17:17:07.252Z</time>
      </trkpt>
      <trkpt lat="56.61727" lon="25.0859">
        <ele>36.011623</ele>
        <time>2020-10-06T17:17:27.442Z</time>
      </trkpt>
      <trkpt lat="56.61739" lon="25.08722">
        <ele>35.77015</ele>
        <time>2020-10-06T17:17:42.983Z</time>
      </trkpt>
      <trkpt lat="56.61743" lon="25.08848">
        <ele>35.758329</ele>
        <time>2020-10-06T17:17:58.308Z</time>
      </trkpt>
      <trkpt lat="56.61744" lon="25.08898">
        <ele>35.782983</ele>
        <time>2020-10-06T17:18:04.698Z</time>
      </trkpt>
      <trkpt lat="56.61746" lon="25.08963">
        <ele>35.814242</ele>
        <time>2020-10-06T17:18:12.805Z</time>
      </trkpt>
      <trkpt lat="56.61754" lon="25.09026">
        <ele>35.845746</ele>
        <time>2020-10-06T17:18:21.044Z</time>
      </trkpt>
      <trkpt lat="56.61761" lon="25.09089">
        <ele>35.899896</ele>
        <time>2020-10-06T17:18:29.224Z</time>
      </trkpt>
      <trkpt lat="56.61772" lon="25.09197">
        <ele>36.173111</ele>
        <time>2020-10-06T17:18:43.325Z</time>
      </trkpt>
      <trkpt lat="56.6167" lon="25.09352">
        <ele>36.803343</ele>
        <time>2020-10-06T17:19:15.754Z</time>
      </trkpt>
      <trkpt lat="56.6166" lon="25.09385">
        <ele>36.929814</ele>
        <time>2020-10-06T17:19:21.097Z</time>
      </trkpt>
      <trkpt lat="56.61611" lon="25.0955">
        <ele>37.55721</ele>
        <time>2020-10-06T17:19:47.236Z</time>
      </trkpt>
      <trkpt lat="56.61522" lon="25.09985">
        <ele>38.366336</ele>
        <time>2020-10-06T17:20:47.502Z</time>
      </trkpt>
      <trkpt lat="56.61508" lon="25.10111">
        <ele>38.386601</ele>
        <time>2020-10-06T17:21:03.197Z</time>
      </trkpt>
      <trkpt lat="56.61477" lon="25.10376">
        <ele>38.64448</ele>
        <time>2020-10-06T17:21:35.595Z</time>
      </trkpt>
      <trkpt lat="56.61452" lon="25.10584">
        <ele>39.129834</ele>
        <time>2020-10-06T17:22:04.420Z</time>
      </trkpt>
      <trkpt lat="56.61449" lon="25.10612">
        <ele>39.306739</ele>
        <time>2020-10-06T17:22:08.478Z</time>
      </trkpt>
      <trkpt lat="56.61449" lon="25.10616">
        <ele>39.333891</ele>
        <time>2020-10-06T17:22:09.118Z</time>
      </trkpt>
      <trkpt lat="56.61428" lon="25.10753">
        <ele>40.207429</ele>
        <time>2020-10-06T17:22:30.098Z</time>
      </trkpt>
      <trkpt lat="56.61386" lon="25.1095">
        <ele>41.51374</ele>
        <time>2020-10-06T17:23:02.826Z</time>
      </trkpt>
      <trkpt lat="56.61318" lon="25.1114">
        <ele>42.901724</ele>
        <time>2020-10-06T17:23:35.514Z</time>
      </trkpt>
      <trkpt lat="56.61208" lon="25.11372">
        <ele>44.731672</ele>
        <time>2020-10-06T17:24:19.924Z</time>
      </trkpt>
      <trkpt lat="56.61046" lon="25.11712">
        <ele>47.776243</ele>
        <time>2020-10-06T17:25:29.158Z</time>
      </trkpt>
      <trkpt lat="56.61025" lon="25.11757">
        <ele>47.991582</ele>
        <time>2020-10-06T17:25:37.684Z</time>
      </trkpt>
      <trkpt lat="56.60873" lon="25.12063">
        <ele>48.629048</ele>
        <time>2020-10-06T17:26:29.620Z</time>
      </trkpt>
      <trkpt lat="56.60746" lon="25.12344">
        <ele>48.237213</ele>
        <time>2020-10-06T17:27:12.132Z</time>
      </trkpt>
      <trkpt lat="56.6067" lon="25.12487">
        <ele>48.210862</ele>
        <time>2020-10-06T17:27:35.781Z</time>
      </trkpt>
      <trkpt lat="56.60635" lon="25.12547">
        <ele>48.243951</ele>
        <time>2020-10-06T17:27:46.683Z</time>
      </trkpt>
      <trkpt lat="56.60612" lon="25.1258">
        <ele>48.263797</ele>
        <time>2020-10-06T17:27:53.417Z</time>
      </trkpt>
      <trkpt lat="56.60552" lon="25.12652">
        <ele>48.454547</ele>
        <time>2020-10-06T17:28:10.850Z</time>
      </trkpt>
      <trkpt lat="56.60473" lon="25.12739">
        <ele>48.785651</ele>
        <time>2020-10-06T17:28:32.777Z</time>
      </trkpt>
      <trkpt lat="56.60452" lon="25.12764">
        <ele>48.875102</ele>
        <time>2020-10-06T17:28:38.692Z</time>
      </trkpt>
      <trkpt lat="56.60363" lon="25.12869">
        <ele>49.103895</ele>
        <time>2020-10-06T17:29:03.481Z</time>
      </trkpt>
      <trkpt lat="56.6032" lon="25.12942">
        <ele>49.216894</ele>
        <time>2020-10-06T17:29:16.389Z</time>
      </trkpt>
      <trkpt lat="56.60228" lon="25.13162">
        <ele>50.051522</ele>
        <time>2020-10-06T17:29:52.535Z</time>
      </trkpt>
      <trkpt lat="56.60209" lon="25.13196">
        <ele>50.218654</ele>
        <time>2020-10-06T17:29:59.516Z</time>
      </trkpt>
      <trkpt lat="56.60202" lon="25.13209">
        <ele>50.284755</ele>
        <time>2020-10-06T17:30:02.218Z</time>
      </trkpt>
      <trkpt lat="56.60186" lon="25.13237">
        <ele>50.439375</ele>
        <time>2020-10-06T17:30:07.954Z</time>
      </trkpt>
      <trkpt lat="56.60094" lon="25.13393">
        <ele>52.592878</ele>
        <time>2020-10-06T17:30:43.785Z</time>
      </trkpt>
      <trkpt lat="56.60056" lon="25.13457">
        <ele>53.473402</ele>
        <time>2020-10-06T17:30:59.843Z</time>
      </trkpt>
      <trkpt lat="56.60006" lon="25.13551">
        <ele>55.564263</ele>
        <time>2020-10-06T17:31:23.673Z</time>
      </trkpt>
      <trkpt lat="56.59946" lon="25.13708">
        <ele>58.608125</ele>
        <time>2020-10-06T17:32:01.036Z</time>
      </trkpt>
      <trkpt lat="56.59911" lon="25.13811">
        <ele>60.125689</ele>
        <time>2020-10-06T17:32:23.346Z</time>
      </trkpt>
      <trkpt lat="56.59879" lon="25.13951">
        <ele>62.017501</ele>
        <time>2020-10-06T17:32:49.277Z</time>
      </trkpt>
      <trkpt lat="56.59855" lon="25.14065">
        <ele>63.054516</ele>
        <time>2020-10-06T17:33:07.952Z</time>
      </trkpt>
      <trkpt lat="56.5985" lon="25.14089">
        <ele>63.175703</ele>
        <time>2020-10-06T17:33:11.484Z</time>
      </trkpt>
      <trkpt lat="56.59735" lon="25.14663">
        <ele>65.458785</ele>
        <time>2020-10-06T17:34:34.921Z</time>
      </trkpt>
      <trkpt lat="56.59526" lon="25.15616">
        <ele>66.747342</ele>
        <time>2020-10-06T17:36:45.823Z</time>
      </trkpt>
      <trkpt lat="56.59429" lon="25.16284">
        <ele>66.699315</ele>
        <time>2020-10-06T17:38:11.760Z</time>
      </trkpt>
      <trkpt lat="56.59353" lon="25.1698">
        <ele>64.120084</ele>
        <time>2020-10-06T17:39:31.118Z</time>
      </trkpt>
      <trkpt lat="56.59278" lon="25.17384">
        <ele>60.406323</ele>
        <time>2020-10-06T17:40:12.744Z</time>
      </trkpt>
      <trkpt lat="56.59067" lon="25.18431">
        <ele>53.539861</ele>
        <time>2020-10-06T17:42:08.655Z</time>
      </trkpt>
      <trkpt lat="56.58968" lon="25.18814">
        <ele>55.28221</ele>
        <time>2020-10-06T17:43:13.405Z</time>
      </trkpt>
      <trkpt lat="56.5879" lon="25.19316">
        <ele>56.080996</ele>
        <time>2020-10-06T17:44:32.182Z</time>
      </trkpt>
      <trkpt lat="56.58586" lon="25.19903">
        <ele>51.88805</ele>
        <time>2020-10-06T17:45:43.898Z</time>
      </trkpt>
      <trkpt lat="56.58581" lon="25.19917">
        <ele>51.751367</ele>
        <time>2020-10-06T17:45:45.585Z</time>
      </trkpt>
      <trkpt lat="56.58565" lon="25.19965">
        <ele>51.274041</ele>
        <time>2020-10-06T17:45:51.130Z</time>
      </trkpt>
      <trkpt lat="56.58515" lon="25.20096">
        <ele>49.846582</ele>
        <time>2020-10-06T17:46:06.775Z</time>
      </trkpt>
      <trkpt lat="56.58442" lon="25.20222">
        <ele>48.107784</ele>
        <time>2020-10-06T17:46:24.859Z</time>
      </trkpt>
      <trkpt lat="56.58293" lon="25.2041">
        <ele>45.19941</ele>
        <time>2020-10-06T17:46:58.383Z</time>
      </trkpt>
      <trkpt lat="56.5825" lon="25.2046">
        <ele>44.406205</ele>
        <time>2020-10-06T17:47:07.422Z</time>
      </trkpt>
      <trkpt lat="56.58227" lon="25.20483">
        <ele>44.015263</ele>
        <time>2020-10-06T17:47:12.241Z</time>
      </trkpt>
      <trkpt lat="56.58224" lon="25.20509">
        <ele>43.796099</ele>
        <time>2020-10-06T17:47:14.727Z</time>
      </trkpt>
      <trkpt lat="56.5819" lon="25.20568">
        <ele>43.079364</ele>
        <time>2020-10-06T17:47:23.728Z</time>
      </trkpt>
      <trkpt lat="56.58171" lon="25.20591">
        <ele>42.726919</ele>
        <time>2020-10-06T17:47:27.972Z</time>
      </trkpt>
      <trkpt lat="56.58102" lon="25.20645">
        <ele>41.999018</ele>
        <time>2020-10-06T17:47:43.044Z</time>
      </trkpt>
      <trkpt lat="56.58036" lon="25.20684">
        <ele>42.17946</ele>
        <time>2020-10-06T17:47:59.545Z</time>
      </trkpt>
      <trkpt lat="56.58027" lon="25.20688">
        <ele>42.204562</ele>
        <time>2020-10-06T17:48:01.757Z</time>
      </trkpt>
      <trkpt lat="56.58011" lon="25.20693">
        <ele>42.247028</ele>
        <time>2020-10-06T17:48:06.291Z</time>
      </trkpt>
      <trkpt lat="56.5799" lon="25.20696">
        <ele>42.302731</ele>
        <time>2020-10-06T17:48:11.483Z</time>
      </trkpt>
      <trkpt lat="56.5797" lon="25.20695">
        <ele>42.353351</ele>
        <time>2020-10-06T17:48:17.021Z</time>
      </trkpt>
      <trkpt lat="56.57924" lon="25.20732">
        <ele>42.748024</ele>
        <time>2020-10-06T17:48:30.508Z</time>
      </trkpt>
      <trkpt lat="56.578" lon="25.20813">
        <ele>44.2657</ele>
        <time>2020-10-06T17:49:06.582Z</time>
      </trkpt>
      <trkpt lat="56.57778" lon="25.20828">
        <ele>44.526046</ele>
        <time>2020-10-06T17:49:12.759Z</time>
      </trkpt>
      <trkpt lat="56.57766" lon="25.20836">
        <ele>44.632311</ele>
        <time>2020-10-06T17:49:15.906Z</time>
      </trkpt>
      <trkpt lat="56.57738" lon="25.20858">
        <ele>44.885299</ele>
        <time>2020-10-06T17:49:23.641Z</time>
      </trkpt>
      <trkpt lat="56.57705" lon="25.20896">
        <ele>45.215657</ele>
        <time>2020-10-06T17:49:33.924Z</time>
      </trkpt>
      <trkpt lat="56.57683" lon="25.20927">
        <ele>45.450547</ele>
        <time>2020-10-06T17:49:41.396Z</time>
      </trkpt>
      <trkpt lat="56.57681" lon="25.2093">
        <ele>45.472675</ele>
        <time>2020-10-06T17:49:42.188Z</time>
      </trkpt>
      <trkpt lat="56.57629" lon="25.21016">
        <ele>45.962958</ele>
        <time>2020-10-06T17:49:59.616Z</time>
      </trkpt>
      <trkpt lat="56.57615" lon="25.2105">
        <ele>45.88201</ele>
        <time>2020-10-06T17:50:05.119Z</time>
      </trkpt>
      <trkpt lat="56.57605" lon="25.21081">
        <ele>45.813278</ele>
        <time>2020-10-06T17:50:09.736Z</time>
      </trkpt>
      <trkpt lat="56.57597" lon="25.21112">
        <ele>45.744341</ele>
        <time>2020-10-06T17:50:14.160Z</time>
      </trkpt>
      <trkpt lat="56.57588" lon="25.21144">
        <ele>45.676529</ele>
        <time>2020-10-06T17:50:18.537Z</time>
      </trkpt>
      <trkpt lat="56.57509" lon="25.2148">
        <ele>44.610149</ele>
        <time>2020-10-06T17:50:57.396Z</time>
      </trkpt>
      <trkpt lat="56.57484" lon="25.2161">
        <ele>44.324503</ele>
        <time>2020-10-06T17:51:13.154Z</time>
      </trkpt>
      <trkpt lat="56.57474" lon="25.21668">
        <ele>45.128827</ele>
        <time>2020-10-06T17:51:20.994Z</time>
      </trkpt>
      <trkpt lat="56.57462" lon="25.21731">
        <ele>46.013437</ele>
        <time>2020-10-06T17:51:31.121Z</time>
      </trkpt>
      <trkpt lat="56.57449" lon="25.21819">
        <ele>47.220796</ele>
        <time>2020-10-06T17:51:48.126Z</time>
      </trkpt>
      <trkpt lat="56.5744" lon="25.21931">
        <ele>48.962898</ele>
        <time>2020-10-06T17:52:13.822Z</time>
      </trkpt>
      <trkpt lat="56.57436" lon="25.22019">
        <ele>51.196311</ele>
        <time>2020-10-06T17:52:34.540Z</time>
      </trkpt>
      <trkpt lat="56.5743" lon="25.22129">
        <ele>54.006248</ele>
        <time>2020-10-06T17:53:00.229Z</time>
      </trkpt>
      <trkpt lat="56.57427" lon="25.22176">
        <ele>55.228136</ele>
        <time>2020-10-06T17:53:11.231Z</time>
      </trkpt>
      <trkpt lat="56.57408" lon="25.22283">
        <ele>57.45538</ele>
        <time>2020-10-06T17:53:35.875Z</time>
      </trkpt>
      <trkpt lat="56.57363" lon="25.22456">
        <ele>59.912228</ele>
        <time>2020-10-06T17:54:08.393Z</time>
      </trkpt>
      <trkpt lat="56.5733" lon="25.2258">
        <ele>61.235586</ele>
        <time>2020-10-06T17:54:28.482Z</time>
      </trkpt>
      <trkpt lat="56.57304" lon="25.22683">
        <ele>61.719174</ele>
        <time>2020-10-06T17:54:44.402Z</time>
      </trkpt>
      <trkpt lat="56.57256" lon="25.22879">
        <ele>62.579083</ele>
        <time>2020-10-06T17:55:13.473Z</time>
      </trkpt>
      <trkpt lat="56.57235" lon="25.22965">
        <ele>62.890594</ele>
        <time>2020-10-06T17:55:26.120Z</time>
      </trkpt>
      <trkpt lat="56.57224" lon="25.23013">
        <ele>63.06285</ele>
        <time>2020-10-06T17:55:33.069Z</time>
      </trkpt>
      <trkpt lat="56.57195" lon="25.23151">
        <ele>63.658324</ele>
        <time>2020-10-06T17:55:53.146Z</time>
      </trkpt>
      <trkpt lat="56.57194" lon="25.2316">
        <ele>63.737991</ele>
        <time>2020-10-06T17:55:54.269Z</time>
      </trkpt>
      <trkpt lat="56.57177" lon="25.23261">
        <ele>64.654272</ele>
        <time>2020-10-06T17:56:10.168Z</time>
      </trkpt>
      <trkpt lat="56.57165" lon="25.2336">
        <ele>65.540368</ele>
        <time>2020-10-06T17:56:26.621Z</time>
      </trkpt>
      <trkpt lat="56.5716" lon="25.23426">
        <ele>66.124346</ele>
        <time>2020-10-06T17:56:38.094Z</time>
      </trkpt>
      <trkpt lat="56.57156" lon="25.23495">
        <ele>66.88558</ele>
        <time>2020-10-06T17:56:50.505Z</time>
      </trkpt>
      <trkpt lat="56.57145" lon="25.23928">
        <ele>71.337431</ele>
        <time>2020-10-06T17:58:04.532Z</time>
      </trkpt>
      <trkpt lat="56.57143" lon="25.23969">
        <ele>71.62153</ele>
        <time>2020-10-06T17:58:10.443Z</time>
      </trkpt>
      <trkpt lat="56.57139" lon="25.24008">
        <ele>71.903062</ele>
        <time>2020-10-06T17:58:15.979Z</time>
      </trkpt>
      <trkpt lat="56.57104" lon="25.24251">
        <ele>72.596642</ele>
        <time>2020-10-06T17:58:47.603Z</time>
      </trkpt>
      <trkpt lat="56.57077" lon="25.2442">
        <ele>72.643118</ele>
        <time>2020-10-06T17:59:08.664Z</time>
      </trkpt>
      <trkpt lat="56.57042" lon="25.24624">
        <ele>72.64857</ele>
        <time>2020-10-06T17:59:35.671Z</time>
      </trkpt>
      <trkpt lat="56.57004" lon="25.24864">
        <ele>72.273937</ele>
        <time>2020-10-06T18:00:05.843Z</time>
      </trkpt>
      <trkpt lat="56.5699" lon="25.24955">
        <ele>72.028494</ele>
        <time>2020-10-06T18:00:16.001Z</time>
      </trkpt>
      <trkpt lat="56.56975" lon="25.25091">
        <ele>71.787229</ele>
        <time>2020-10-06T18:00:31.294Z</time>
      </trkpt>
      <trkpt lat="56.56971" lon="25.25135">
        <ele>71.77329</ele>
        <time>2020-10-06T18:00:36.302Z</time>
      </trkpt>
      <trkpt lat="56.56971" lon="25.25143">
        <ele>71.770856</ele>
        <time>2020-10-06T18:00:37.039Z</time>
      </trkpt>
      <trkpt lat="56.5696" lon="25.25416">
        <ele>72.095793</ele>
        <time>2020-10-06T18:01:11.849Z</time>
      </trkpt>
      <trkpt lat="56.5697" lon="25.25701">
        <ele>74.270437</ele>
        <time>2020-10-06T18:01:57.824Z</time>
      </trkpt>
      <trkpt lat="56.56978" lon="25.25797">
        <ele>75.058639</ele>
        <time>2020-10-06T18:02:13.270Z</time>
      </trkpt>
      <trkpt lat="56.56984" lon="25.25861">
        <ele>75.583763</ele>
        <time>2020-10-06T18:02:23.198Z</time>
      </trkpt>
      <trkpt lat="56.57022" lon="25.26223">
        <ele>78.624279</ele>
        <time>2020-10-06T18:03:19.145Z</time>
      </trkpt>
      <trkpt lat="56.57033" lon="25.26304">
        <ele>79.327833</ele>
        <time>2020-10-06T18:03:33.083Z</time>
      </trkpt>
      <trkpt lat="56.5704" lon="25.26348">
        <ele>79.702615</ele>
        <time>2020-10-06T18:03:40.521Z</time>
      </trkpt>
      <trkpt lat="56.57048" lon="25.26394">
        <ele>80.075591</ele>
        <time>2020-10-06T18:03:48.341Z</time>
      </trkpt>
      <trkpt lat="56.57056" lon="25.26437">
        <ele>80.437296</ele>
        <time>2020-10-06T18:03:56.112Z</time>
      </trkpt>
      <trkpt lat="56.57084" lon="25.26551">
        <ele>81.412407</ele>
        <time>2020-10-06T18:04:16.327Z</time>
      </trkpt>
      <trkpt lat="56.57153" lon="25.2675">
        <ele>81.831886</ele>
        <time>2020-10-06T18:04:47.306Z</time>
      </trkpt>
      <trkpt lat="56.57177" lon="25.26805">
        <ele>81.691893</ele>
        <time>2020-10-06T18:04:55.147Z</time>
      </trkpt>
      <trkpt lat="56.57202" lon="25.26855">
        <ele>81.559738</ele>
        <time>2020-10-06T18:05:02.254Z</time>
      </trkpt>
      <trkpt lat="56.57258" lon="25.26953">
        <ele>80.761731</ele>
        <time>2020-10-06T18:05:16.770Z</time>
      </trkpt>
      <trkpt lat="56.57299" lon="25.2701">
        <ele>80.078025</ele>
        <time>2020-10-06T18:05:26.094Z</time>
      </trkpt>
      <trkpt lat="56.57582" lon="25.27346">
        <ele>76.757304</ele>
        <time>2020-10-06T18:06:30.765Z</time>
      </trkpt>
      <trkpt lat="56.57632" lon="25.27411">
        <ele>76.492313</ele>
        <time>2020-10-06T18:06:44.488Z</time>
      </trkpt>
      <trkpt lat="56.5768" lon="25.27488">
        <ele>76.461965</ele>
        <time>2020-10-06T18:06:59.466Z</time>
      </trkpt>
      <trkpt lat="56.57731" lon="25.27582">
        <ele>76.74805</ele>
        <time>2020-10-06T18:07:17.113Z</time>
      </trkpt>
      <trkpt lat="56.57774" lon="25.27694">
        <ele>77.047489</ele>
        <time>2020-10-06T18:07:35.434Z</time>
      </trkpt>
      <trkpt lat="56.57802" lon="25.27801">
        <ele>77.218769</ele>
        <time>2020-10-06T18:07:50.535Z</time>
      </trkpt>
      <trkpt lat="56.57821" lon="25.27955">
        <ele>77.444496</ele>
        <time>2020-10-06T18:08:10.512Z</time>
      </trkpt>
      <trkpt lat="56.57825" lon="25.28075">
        <ele>77.67303</ele>
        <time>2020-10-06T18:08:25.943Z</time>
      </trkpt>
      <trkpt lat="56.57816" lon="25.28388">
        <ele>78.404389</ele>
        <time>2020-10-06T18:09:07.766Z</time>
      </trkpt>
      <trkpt lat="56.5781" lon="25.28489">
        <ele>78.657366</ele>
        <time>2020-10-06T18:09:21.543Z</time>
      </trkpt>
      <trkpt lat="56.57793" lon="25.28622">
        <ele>78.999001</ele>
        <time>2020-10-06T18:09:39.790Z</time>
      </trkpt>
      <trkpt lat="56.57711" lon="25.29099">
        <ele>79.742086</ele>
        <time>2020-10-06T18:10:43.291Z</time>
      </trkpt>
      <trkpt lat="56.57658" lon="25.29378">
        <ele>80.567857</ele>
        <time>2020-10-06T18:11:22.732Z</time>
      </trkpt>
      <trkpt lat="56.57588" lon="25.29678">
        <ele>82.109188</ele>
        <time>2020-10-06T18:12:09.216Z</time>
      </trkpt>
      <trkpt lat="56.57423" lon="25.30315">
        <ele>86.409831</ele>
        <time>2020-10-06T18:13:53.805Z</time>
      </trkpt>
      <trkpt lat="56.57397" lon="25.30427">
        <ele>87.111635</ele>
        <time>2020-10-06T18:14:11.146Z</time>
      </trkpt>
      <trkpt lat="56.57362" lon="25.30591">
        <ele>87.977413</ele>
        <time>2020-10-06T18:14:36.114Z</time>
      </trkpt>
      <trkpt lat="56.5729" lon="25.3095">
        <ele>89.733924</ele>
        <time>2020-10-06T18:15:30.176Z</time>
      </trkpt>
      <trkpt lat="56.57214" lon="25.31272">
        <ele>91.417017</ele>
        <time>2020-10-06T18:16:19.636Z</time>
      </trkpt>
      <trkpt lat="56.57132" lon="25.31593">
        <ele>93.274717</ele>
        <time>2020-10-06T18:17:10.440Z</time>
      </trkpt>
      <trkpt lat="56.57105" lon="25.31714">
        <ele>93.996501</ele>
        <time>2020-10-06T18:17:29.576Z</time>
      </trkpt>
      <trkpt lat="56.5707" lon="25.31904">
        <ele>95.188808</ele>
        <time>2020-10-06T18:17:59.301Z</time>
      </trkpt>
      <trkpt lat="56.57038" lon="25.32189">
        <ele>96.836891</ele>
        <time>2020-10-06T18:18:41.750Z</time>
      </trkpt>
      <trkpt lat="56.56966" lon="25.32992">
        <ele>101.223897</ele>
        <time>2020-10-06T18:20:38.187Z</time>
      </trkpt>
      <trkpt lat="56.56952" lon="25.331">
        <ele>102.179606</ele>
        <time>2020-10-06T18:20:55.929Z</time>
      </trkpt>
      <trkpt lat="56.56941" lon="25.33184">
        <ele>102.916197</ele>
        <time>2020-10-06T18:21:09.934Z</time>
      </trkpt>
      <trkpt lat="56.56823" lon="25.33979">
        <ele>109.958662</ele>
        <time>2020-10-06T18:23:20.371Z</time>
      </trkpt>
      <trkpt lat="56.56795" lon="25.34113">
        <ele>110.851718</ele>
        <time>2020-10-06T18:23:41.491Z</time>
      </trkpt>
      <trkpt lat="56.56777" lon="25.34172">
        <ele>111.266491</ele>
        <time>2020-10-06T18:23:51.038Z</time>
      </trkpt>
      <trkpt lat="56.56776" lon="25.34176">
        <ele>111.299258</ele>
        <time>2020-10-06T18:23:51.893Z</time>
      </trkpt>
      <trkpt lat="56.56765" lon="25.34209">
        <ele>111.51867</ele>
        <time>2020-10-06T18:23:57.242Z</time>
      </trkpt>
      <trkpt lat="56.56721" lon="25.34319">
        <ele>111.80673</ele>
        <time>2020-10-06T18:24:15.917Z</time>
      </trkpt>
      <trkpt lat="56.5666" lon="25.34426">
        <ele>112.133426</ele>
        <time>2020-10-06T18:24:35.809Z</time>
      </trkpt>
      <trkpt lat="56.56658" lon="25.34428">
        <ele>112.141719</ele>
        <time>2020-10-06T18:24:36.462Z</time>
      </trkpt>
      <trkpt lat="56.56636" lon="25.3446">
        <ele>112.109592</ele>
        <time>2020-10-06T18:24:42.546Z</time>
      </trkpt>
      <trkpt lat="56.5654" lon="25.34569">
        <ele>111.305574</ele>
        <time>2020-10-06T18:25:05.972Z</time>
      </trkpt>
      <trkpt lat="56.56316" lon="25.34798">
        <ele>107.32258</ele>
        <time>2020-10-06T18:25:53.086Z</time>
      </trkpt>
      <trkpt lat="56.56272" lon="25.34859">
        <ele>105.728385</ele>
        <time>2020-10-06T18:26:02.287Z</time>
      </trkpt>
      <trkpt lat="56.56157" lon="25.35071">
        <ele>101.165806</ele>
        <time>2020-10-06T18:26:28.799Z</time>
      </trkpt>
      <trkpt lat="56.56102" lon="25.35196">
        <ele>98.840382</ele>
        <time>2020-10-06T18:26:43.683Z</time>
      </trkpt>
      <trkpt lat="56.56053" lon="25.35346">
        <ele>97.4292</ele>
        <time>2020-10-06T18:27:01.304Z</time>
      </trkpt>
      <trkpt lat="56.56024" lon="25.35467">
        <ele>96.734042</ele>
        <time>2020-10-06T18:27:16.067Z</time>
      </trkpt>
      <trkpt lat="56.55996" lon="25.35599">
        <ele>96.188225</ele>
        <time>2020-10-06T18:27:32.414Z</time>
      </trkpt>
      <trkpt lat="56.55969" lon="25.35723">
        <ele>95.861197</ele>
        <time>2020-10-06T18:27:47.945Z</time>
      </trkpt>
      <trkpt lat="56.5595" lon="25.35808">
        <ele>95.636321</ele>
        <time>2020-10-06T18:27:58.511Z</time>
      </trkpt>
      <trkpt lat="56.55908" lon="25.35968">
        <ele>94.722135</ele>
        <time>2020-10-06T18:28:18.268Z</time>
      </trkpt>
      <trkpt lat="56.55874" lon="25.36073">
        <ele>94.022705</ele>
        <time>2020-10-06T18:28:30.878Z</time>
      </trkpt>
      <trkpt lat="56.55843" lon="25.36154">
        <ele>93.212377</ele>
        <time>2020-10-06T18:28:40.928Z</time>
      </trkpt>
      <trkpt lat="56.55811" lon="25.36224">
        <ele>92.144067</ele>
        <time>2020-10-06T18:28:49.869Z</time>
      </trkpt>
      <trkpt lat="56.55723" lon="25.36413">
        <ele>88.919274</ele>
        <time>2020-10-06T18:29:13.192Z</time>
      </trkpt>
      <trkpt lat="56.55608" lon="25.36659">
        <ele>83.176082</ele>
        <time>2020-10-06T18:29:41.961Z</time>
      </trkpt>
      <trkpt lat="56.55564" lon="25.36781">
        <ele>80.297359</ele>
        <time>2020-10-06T18:29:54.793Z</time>
      </trkpt>
      <trkpt lat="56.55545" lon="25.36851">
        <ele>78.752852</ele>
        <time>2020-10-06T18:30:01.694Z</time>
      </trkpt>
      <trkpt lat="56.55526" lon="25.36954">
        <ele>76.949183</ele>
        <time>2020-10-06T18:30:11.358Z</time>
      </trkpt>
      <trkpt lat="56.55512" lon="25.37073">
        <ele>75.335534</ele>
        <time>2020-10-06T18:30:22.530Z</time>
      </trkpt>
      <trkpt lat="56.55509" lon="25.3713">
        <ele>74.5607</ele>
        <time>2020-10-06T18:30:28.094Z</time>
      </trkpt>
      <trkpt lat="56.55507" lon="25.37198">
        <ele>73.660296</ele>
        <time>2020-10-06T18:30:34.795Z</time>
      </trkpt>
      <trkpt lat="56.55514" lon="25.37359">
        <ele>72.988494</ele>
        <time>2020-10-06T18:30:52.021Z</time>
      </trkpt>
      <trkpt lat="56.55525" lon="25.37443">
        <ele>72.783325</ele>
        <time>2020-10-06T18:31:02.182Z</time>
      </trkpt>
      <trkpt lat="56.5559" lon="25.37858">
        <ele>73.240429</ele>
        <time>2020-10-06T18:31:58.977Z</time>
      </trkpt>
      <trkpt lat="56.55646" lon="25.38166">
        <ele>74.005021</ele>
        <time>2020-10-06T18:32:42.791Z</time>
      </trkpt>
      <trkpt lat="56.55716" lon="25.38509">
        <ele>73.486669</ele>
        <time>2020-10-06T18:33:25.457Z</time>
      </trkpt>
      <trkpt lat="56.55752" lon="25.3873">
        <ele>72.74535</ele>
        <time>2020-10-06T18:33:50.939Z</time>
      </trkpt>
      <trkpt lat="56.5577" lon="25.38904">
        <ele>72.32143</ele>
        <time>2020-10-06T18:34:11.097Z</time>
      </trkpt>
      <trkpt lat="56.55775" lon="25.39051">
        <ele>72.028441</ele>
        <time>2020-10-06T18:34:28.398Z</time>
      </trkpt>
      <trkpt lat="56.55773" lon="25.3914">
        <ele>71.834107</ele>
        <time>2020-10-06T18:34:38.992Z</time>
      </trkpt>
      <trkpt lat="56.55773" lon="25.39198">
        <ele>71.683631</ele>
        <time>2020-10-06T18:34:45.884Z</time>
      </trkpt>
      <trkpt lat="56.55762" lon="25.39466">
        <ele>70.942476</ele>
        <time>2020-10-06T18:35:16.322Z</time>
      </trkpt>
      <trkpt lat="56.55758" lon="25.39529">
        <ele>70.682945</ele>
        <time>2020-10-06T18:35:23.167Z</time>
      </trkpt>
      <trkpt lat="56.55753" lon="25.39562">
        <ele>70.54156</ele>
        <time>2020-10-06T18:35:26.899Z</time>
      </trkpt>
      <trkpt lat="56.55729" lon="25.39642">
        <ele>70.163575</ele>
        <time>2020-10-06T18:35:36.810Z</time>
      </trkpt>
      <trkpt lat="56.55712" lon="25.39672">
        <ele>69.985073</ele>
        <time>2020-10-06T18:35:41.435Z</time>
      </trkpt>
      <trkpt lat="56.55698" lon="25.3969">
        <ele>69.861231</ele>
        <time>2020-10-06T18:35:44.612Z</time>
      </trkpt>
      <trkpt lat="56.55675" lon="25.39712">
        <ele>69.705373</ele>
        <time>2020-10-06T18:35:50.002Z</time>
      </trkpt>
      <trkpt lat="56.55628" lon="25.39738">
        <ele>69.6384</ele>
        <time>2020-10-06T18:36:00.014Z</time>
      </trkpt>
      <trkpt lat="56.55581" lon="25.39763">
        <ele>69.572165</ele>
        <time>2020-10-06T18:36:10.465Z</time>
      </trkpt>
      <trkpt lat="56.5556" lon="25.39775">
        <ele>69.542309</ele>
        <time>2020-10-06T18:36:15.178Z</time>
      </trkpt>
      <trkpt lat="56.55544" lon="25.39786">
        <ele>69.518758</ele>
        <time>2020-10-06T18:36:19.257Z</time>
      </trkpt>
      <trkpt lat="56.55504" lon="25.39816">
        <ele>69.54363</ele>
        <time>2020-10-06T18:36:29.490Z</time>
      </trkpt>
      <trkpt lat="56.55442" lon="25.3989">
        <ele>70.264675</ele>
        <time>2020-10-06T18:36:48.346Z</time>
      </trkpt>
      <trkpt lat="56.55391" lon="25.39988">
        <ele>70.984169</ele>
        <time>2020-10-06T18:37:08.978Z</time>
      </trkpt>
      <trkpt lat="56.55356" lon="25.4009">
        <ele>71.502558</ele>
        <time>2020-10-06T18:37:26.630Z</time>
      </trkpt>
      <trkpt lat="56.55352" lon="25.40105">
        <ele>71.563962</ele>
        <time>2020-10-06T18:37:29.307Z</time>
      </trkpt>
      <trkpt lat="56.55345" lon="25.40131">
        <ele>71.669726</ele>
        <time>2020-10-06T18:37:33.280Z</time>
      </trkpt>
      <trkpt lat="56.5534" lon="25.40155">
        <ele>71.763824</ele>
        <time>2020-10-06T18:37:36.832Z</time>
      </trkpt>
      <trkpt lat="56.55322" lon="25.40278">
        <ele>72.231343</ele>
        <time>2020-10-06T18:37:53.912Z</time>
      </trkpt>
      <trkpt lat="56.55318" lon="25.40357">
        <ele>72.403502</ele>
        <time>2020-10-06T18:38:04.280Z</time>
      </trkpt>
      <trkpt lat="56.55324" lon="25.40492">
        <ele>72.320047</ele>
        <time>2020-10-06T18:38:20.215Z</time>
      </trkpt>
      <trkpt lat="56.55332" lon="25.40556">
        <ele>72.280141</ele>
        <time>2020-10-06T18:38:27.854Z</time>
      </trkpt>
      <trkpt lat="56.55347" lon="25.40631">
        <ele>72.231044</ele>
        <time>2020-10-06T18:38:37.400Z</time>
      </trkpt>
      <trkpt lat="56.55394" lon="25.40838">
        <ele>72.066748</ele>
        <time>2020-10-06T18:39:04.591Z</time>
      </trkpt>
      <trkpt lat="56.55403" lon="25.40877">
        <ele>72.035464</ele>
        <time>2020-10-06T18:39:09.650Z</time>
      </trkpt>
      <trkpt lat="56.55423" lon="25.40962">
        <ele>71.948814</ele>
        <time>2020-10-06T18:39:20.772Z</time>
      </trkpt>
      <trkpt lat="56.5543" lon="25.40993">
        <ele>71.886526</ele>
        <time>2020-10-06T18:39:24.633Z</time>
      </trkpt>
      <trkpt lat="56.55448" lon="25.41077">
        <ele>71.716857</ele>
        <time>2020-10-06T18:39:35.161Z</time>
      </trkpt>
      <trkpt lat="56.55474" lon="25.41187">
        <ele>71.490381</ele>
        <time>2020-10-06T18:39:48.914Z</time>
      </trkpt>
      <trkpt lat="56.5552" lon="25.41409">
        <ele>71.174355</ele>
        <time>2020-10-06T18:40:16.316Z</time>
      </trkpt>
      <trkpt lat="56.55559" lon="25.41715">
        <ele>71.120219</ele>
        <time>2020-10-06T18:40:55.221Z</time>
      </trkpt>
      <trkpt lat="56.55615" lon="25.42039">
        <ele>71.458027</ele>
        <time>2020-10-06T18:41:38.756Z</time>
      </trkpt>
      <trkpt lat="56.55662" lon="25.42554">
        <ele>72.073273</ele>
        <time>2020-10-06T18:42:44.852Z</time>
      </trkpt>
      <trkpt lat="56.55668" lon="25.42618">
        <ele>72.220802</ele>
        <time>2020-10-06T18:42:53.413Z</time>
      </trkpt>
      <trkpt lat="56.55672" lon="25.42682">
        <ele>72.366392</ele>
        <time>2020-10-06T18:43:01.928Z</time>
      </trkpt>
      <trkpt lat="56.55677" lon="25.42868">
        <ele>72.796237</ele>
        <time>2020-10-06T18:43:27.042Z</time>
      </trkpt>
      <trkpt lat="56.55699" lon="25.43164">
        <ele>73.561934</ele>
        <time>2020-10-06T18:44:06.922Z</time>
      </trkpt>
      <trkpt lat="56.5569" lon="25.43391">
        <ele>73.960222</ele>
        <time>2020-10-06T18:44:36.718Z</time>
      </trkpt>
      <trkpt lat="56.55696" lon="25.43543">
        <ele>74.195664</ele>
        <time>2020-10-06T18:44:56.195Z</time>
      </trkpt>
      <trkpt lat="56.55709" lon="25.43666">
        <ele>74.345785</ele>
        <time>2020-10-06T18:45:12.127Z</time>
      </trkpt>
      <trkpt lat="56.55749" lon="25.43889">
        <ele>74.571308</ele>
        <time>2020-10-06T18:45:41.838Z</time>
      </trkpt>
      <trkpt lat="56.55775" lon="25.44096">
        <ele>74.691171</ele>
        <time>2020-10-06T18:46:08.347Z</time>
      </trkpt>
      <trkpt lat="56.55822" lon="25.44362">
        <ele>74.820499</ele>
        <time>2020-10-06T18:46:43.307Z</time>
      </trkpt>
      <trkpt lat="56.55861" lon="25.44649">
        <ele>74.995988</ele>
        <time>2020-10-06T18:47:20.188Z</time>
      </trkpt>
      <trkpt lat="56.55893" lon="25.44973">
        <ele>75.280129</ele>
        <time>2020-10-06T18:48:01.700Z</time>
      </trkpt>
      <trkpt lat="56.55891" lon="25.45268">
        <ele>75.868293</ele>
        <time>2020-10-06T18:48:39.755Z</time>
      </trkpt>
      <trkpt lat="56.55895" lon="25.45383">
        <ele>76.15934</ele>
        <time>2020-10-06T18:48:55.303Z</time>
      </trkpt>
      <trkpt lat="56.55934" lon="25.45652">
        <ele>77.729415</ele>
        <time>2020-10-06T18:49:35.946Z</time>
      </trkpt>
      <trkpt lat="56.55952" lon="25.45747">
        <ele>78.378827</ele>
        <time>2020-10-06T18:49:51.175Z</time>
      </trkpt>
      <trkpt lat="56.5596" lon="25.45787">
        <ele>78.705325</ele>
        <time>2020-10-06T18:49:57.687Z</time>
      </trkpt>
      <trkpt lat="56.56049" lon="25.46176">
        <ele>82.115372</ele>
        <time>2020-10-06T18:51:02.454Z</time>
      </trkpt>
      <trkpt lat="56.56065" lon="25.46258">
        <ele>82.888464</ele>
        <time>2020-10-06T18:51:16.663Z</time>
      </trkpt>
      <trkpt lat="56.56076" lon="25.46316">
        <ele>83.427813</ele>
        <time>2020-10-06T18:51:26.691Z</time>
      </trkpt>
      <trkpt lat="56.56089" lon="25.46388">
        <ele>84.098686</ele>
        <time>2020-10-06T18:51:39.112Z</time>
      </trkpt>
      <trkpt lat="56.56103" lon="25.46522">
        <ele>85.313057</ele>
        <time>2020-10-06T18:52:01.636Z</time>
      </trkpt>
      <trkpt lat="56.56166" lon="25.47379">
        <ele>90.851091</ele>
        <time>2020-10-06T18:54:10.647Z</time>
      </trkpt>
      <trkpt lat="56.5622" lon="25.47984">
        <ele>91.751187</ele>
        <time>2020-10-06T18:55:26.826Z</time>
      </trkpt>
      <trkpt lat="56.56237" lon="25.48186">
        <ele>92.538174</ele>
        <time>2020-10-06T18:55:55.311Z</time>
      </trkpt>
      <trkpt lat="56.56242" lon="25.48239">
        <ele>92.747102</ele>
        <time>2020-10-06T18:56:03.255Z</time>
      </trkpt>
      <trkpt lat="56.56266" lon="25.48539">
        <ele>94.491751</ele>
        <time>2020-10-06T18:56:48.399Z</time>
      </trkpt>
      <trkpt lat="56.5628" lon="25.48724">
        <ele>94.914293</ele>
        <time>2020-10-06T18:57:14.330Z</time>
      </trkpt>
      <trkpt lat="56.5629" lon="25.48858">
        <ele>95.09488</ele>
        <time>2020-10-06T18:57:31.723Z</time>
      </trkpt>
      <trkpt lat="56.56339" lon="25.49402">
        <ele>91.867942</ele>
        <time>2020-10-06T18:58:30.970Z</time>
      </trkpt>
      <trkpt lat="56.56348" lon="25.49513">
        <ele>90.780962</ele>
        <time>2020-10-06T18:58:41.494Z</time>
      </trkpt>
      <trkpt lat="56.56356" lon="25.49619">
        <ele>89.199594</ele>
        <time>2020-10-06T18:58:51.134Z</time>
      </trkpt>
      <trkpt lat="56.56397" lon="25.49961">
        <ele>84.102577</ele>
        <time>2020-10-06T18:59:22.672Z</time>
      </trkpt>
      <trkpt lat="56.56403" lon="25.50013">
        <ele>83.675761</ele>
        <time>2020-10-06T18:59:27.994Z</time>
      </trkpt>
      <trkpt lat="56.56409" lon="25.5007">
        <ele>83.218302</ele>
        <time>2020-10-06T18:59:33.956Z</time>
      </trkpt>
      <trkpt lat="56.56429" lon="25.50327">
        <ele>82.460158</ele>
        <time>2020-10-06T19:00:06.289Z</time>
      </trkpt>
      <trkpt lat="56.56467" lon="25.50682">
        <ele>82.565831</ele>
        <time>2020-10-06T19:00:54.068Z</time>
      </trkpt>
      <trkpt lat="56.56468" lon="25.50701">
        <ele>82.550689</ele>
        <time>2020-10-06T19:00:56.399Z</time>
      </trkpt>
      <trkpt lat="56.56473" lon="25.50762">
        <ele>82.501054</ele>
        <time>2020-10-06T19:01:03.312Z</time>
      </trkpt>
      <trkpt lat="56.56484" lon="25.50842">
        <ele>82.356637</ele>
        <time>2020-10-06T19:01:12.188Z</time>
      </trkpt>
      <trkpt lat="56.565" lon="25.50918">
        <ele>81.79419</ele>
        <time>2020-10-06T19:01:20.678Z</time>
      </trkpt>
      <trkpt lat="56.56519" lon="25.50984">
        <ele>81.290698</ele>
        <time>2020-10-06T19:01:28.101Z</time>
      </trkpt>
      <trkpt lat="56.56735" lon="25.51522">
        <ele>76.900559</ele>
        <time>2020-10-06T19:02:37.202Z</time>
      </trkpt>
      <trkpt lat="56.56774" lon="25.51641">
        <ele>76.09616</ele>
        <time>2020-10-06T19:02:52.219Z</time>
      </trkpt>
      <trkpt lat="56.56781" lon="25.51669">
        <ele>75.990592</ele>
        <time>2020-10-06T19:02:55.471Z</time>
      </trkpt>
      <trkpt lat="56.56843" lon="25.51973">
        <ele>75.015401</ele>
        <time>2020-10-06T19:03:32.351Z</time>
      </trkpt>
      <trkpt lat="56.56925" lon="25.52302">
        <ele>74.193416</ele>
        <time>2020-10-06T19:04:13.814Z</time>
      </trkpt>
      <trkpt lat="56.5697" lon="25.52459">
        <ele>73.96876</ele>
        <time>2020-10-06T19:04:34.632Z</time>
      </trkpt>
      <trkpt lat="56.56986" lon="25.52566">
        <ele>73.857614</ele>
        <time>2020-10-06T19:04:48.007Z</time>
      </trkpt>
      <trkpt lat="56.56982" lon="25.5266">
        <ele>73.891121</ele>
        <time>2020-10-06T19:04:59.715Z</time>
      </trkpt>
      <trkpt lat="56.56962" lon="25.52754">
        <ele>73.926468</ele>
        <time>2020-10-06T19:05:12.184Z</time>
      </trkpt>
      <trkpt lat="56.56861" lon="25.53032">
        <ele>74.037411</ele>
        <time>2020-10-06T19:05:53.903Z</time>
      </trkpt>
      <trkpt lat="56.5684" lon="25.53108">
        <ele>74.064601</ele>
        <time>2020-10-06T19:06:04.330Z</time>
      </trkpt>
      <trkpt lat="56.56832" lon="25.53167">
        <ele>74.037902</ele>
        <time>2020-10-06T19:06:11.833Z</time>
      </trkpt>
      <trkpt lat="56.56842" lon="25.5354">
        <ele>73.716031</ele>
        <time>2020-10-06T19:06:56.349Z</time>
      </trkpt>
      <trkpt lat="56.56841" lon="25.53746">
        <ele>73.542705</ele>
        <time>2020-10-06T19:07:20.505Z</time>
      </trkpt>
      <trkpt lat="56.56835" lon="25.54375">
        <ele>74.881184</ele>
        <time>2020-10-06T19:08:40.986Z</time>
      </trkpt>
      <trkpt lat="56.56727" lon="25.55191">
        <ele>82.960185</ele>
        <time>2020-10-06T19:11:05.222Z</time>
      </trkpt>
      <trkpt lat="56.56628" lon="25.55624">
        <ele>81.113648</ele>
        <time>2020-10-06T19:11:53.838Z</time>
      </trkpt>
      <trkpt lat="56.56577" lon="25.55908">
        <ele>79.244041</ele>
        <time>2020-10-06T19:12:24.798Z</time>
      </trkpt>
      <trkpt lat="56.56557" lon="25.56037">
        <ele>78.566063</ele>
        <time>2020-10-06T19:12:39.606Z</time>
      </trkpt>
      <trkpt lat="56.56556" lon="25.56048">
        <ele>78.528746</ele>
        <time>2020-10-06T19:12:40.820Z</time>
      </trkpt>
      <trkpt lat="56.56521" lon="25.56372">
        <ele>77.394394</ele>
        <time>2020-10-06T19:13:17.980Z</time>
      </trkpt>
      <trkpt lat="56.5652" lon="25.56402">
        <ele>77.295956</ele>
        <time>2020-10-06T19:13:21.181Z</time>
      </trkpt>
      <trkpt lat="56.56515" lon="25.56644">
        <ele>76.499359</ele>
        <time>2020-10-06T19:13:48.196Z</time>
      </trkpt>
      <trkpt lat="56.56546" lon="25.57493">
        <ele>75.145888</ele>
        <time>2020-10-06T19:15:27.849Z</time>
      </trkpt>
      <trkpt lat="56.56565" lon="25.57682">
        <ele>74.990712</ele>
        <time>2020-10-06T19:15:50.828Z</time>
      </trkpt>
      <trkpt lat="56.56609" lon="25.57882">
        <ele>74.988931</ele>
        <time>2020-10-06T19:16:17.245Z</time>
      </trkpt>
      <trkpt lat="56.56661" lon="25.58067">
        <ele>75.234884</ele>
        <time>2020-10-06T19:16:44.107Z</time>
      </trkpt>
      <trkpt lat="56.56789" lon="25.58487">
        <ele>75.695206</ele>
        <time>2020-10-06T19:17:46.522Z</time>
      </trkpt>
      <trkpt lat="56.56824" lon="25.5865">
        <ele>74.680164</ele>
        <time>2020-10-06T19:18:05.095Z</time>
      </trkpt>
      <trkpt lat="56.56838" lon="25.58705">
        <ele>74.331711</ele>
        <time>2020-10-06T19:18:11.170Z</time>
      </trkpt>
      <trkpt lat="56.5686" lon="25.58767">
        <ele>73.901422</ele>
        <time>2020-10-06T19:18:18.616Z</time>
      </trkpt>
      <trkpt lat="56.56888" lon="25.58835">
        <ele>73.62638</ele>
        <time>2020-10-06T19:18:27.331Z</time>
      </trkpt>
      <trkpt lat="56.56915" lon="25.58892">
        <ele>73.447963</ele>
        <time>2020-10-06T19:18:35.097Z</time>
      </trkpt>
      <trkpt lat="56.56927" lon="25.58916">
        <ele>73.371785</ele>
        <time>2020-10-06T19:18:38.549Z</time>
      </trkpt>
      <trkpt lat="56.56984" lon="25.5903">
        <ele>73.007458</ele>
        <time>2020-10-06T19:18:57.409Z</time>
      </trkpt>
      <trkpt lat="56.57058" lon="25.5918">
        <ele>75.484837</ele>
        <time>2020-10-06T19:19:30.348Z</time>
      </trkpt>
      <trkpt lat="56.57103" lon="25.59282">
        <ele>77.13168</ele>
        <time>2020-10-06T19:19:55.906Z</time>
      </trkpt>
      <trkpt lat="56.57128" lon="25.59356">
        <ele>78.72927</ele>
        <time>2020-10-06T19:20:14.043Z</time>
      </trkpt>
      <trkpt lat="56.5714" lon="25.59407">
        <ele>79.751092</ele>
        <time>2020-10-06T19:20:25.711Z</time>
      </trkpt>
      <trkpt lat="56.5717" lon="25.59621">
        <ele>83.198393</ele>
        <time>2020-10-06T19:21:09.211Z</time>
      </trkpt>
      <trkpt lat="56.57189" lon="25.59822">
        <ele>83.951016</ele>
        <time>2020-10-06T19:21:38.703Z</time>
      </trkpt>
      <trkpt lat="56.57189" lon="25.60213">
        <ele>81.161127</ele>
        <time>2020-10-06T19:22:17.233Z</time>
      </trkpt>
      <trkpt lat="56.57183" lon="25.60385">
        <ele>79.421766</ele>
        <time>2020-10-06T19:22:33.576Z</time>
      </trkpt>
      <trkpt lat="56.57179" lon="25.60457">
        <ele>78.688275</ele>
        <time>2020-10-06T19:22:40.654Z</time>
      </trkpt>
      <trkpt lat="56.57161" lon="25.60607">
        <ele>77.753981</ele>
        <time>2020-10-06T19:22:56.535Z</time>
      </trkpt>
      <trkpt lat="56.57145" lon="25.60693">
        <ele>77.836345</ele>
        <time>2020-10-06T19:23:06.835Z</time>
      </trkpt>
      <trkpt lat="56.57106" lon="25.60851">
        <ele>77.994618</ele>
        <time>2020-10-06T19:23:30.960Z</time>
      </trkpt>
      <trkpt lat="56.57074" lon="25.60961">
        <ele>80.408587</ele>
        <time>2020-10-06T19:23:52.222Z</time>
      </trkpt>
      <trkpt lat="56.56858" lon="25.61599">
        <ele>95.591373</ele>
        <time>2020-10-06T19:26:31.754Z</time>
      </trkpt>
      <trkpt lat="56.56787" lon="25.61846">
        <ele>99.698296</ele>
        <time>2020-10-06T19:27:25.058Z</time>
      </trkpt>
      <trkpt lat="56.56752" lon="25.61927">
        <ele>100.811278</ele>
        <time>2020-10-06T19:27:40.964Z</time>
      </trkpt>
      <trkpt lat="56.56726" lon="25.61973">
        <ele>101.362912</ele>
        <time>2020-10-06T19:27:49.888Z</time>
      </trkpt>
      <trkpt lat="56.56638" lon="25.62093">
        <ele>100.290574</ele>
        <time>2020-10-06T19:28:11.748Z</time>
      </trkpt>
      <trkpt lat="56.56471" lon="25.62314">
        <ele>97.227504</ele>
        <time>2020-10-06T19:28:48.413Z</time>
      </trkpt>
      <trkpt lat="56.56447" lon="25.62348">
        <ele>96.700226</ele>
        <time>2020-10-06T19:28:54.065Z</time>
      </trkpt>
      <trkpt lat="56.56425" lon="25.62385">
        <ele>96.424528</ele>
        <time>2020-10-06T19:28:59.675Z</time>
      </trkpt>
      <trkpt lat="56.56392" lon="25.62459">
        <ele>96.074755</ele>
        <time>2020-10-06T19:29:09.911Z</time>
      </trkpt>
      <trkpt lat="56.56258" lon="25.62862">
        <ele>94.400504</ele>
        <time>2020-10-06T19:30:04.811Z</time>
      </trkpt>
      <trkpt lat="56.56212" lon="25.63046">
        <ele>92.064788</ele>
        <time>2020-10-06T19:30:24.748Z</time>
      </trkpt>
      <trkpt lat="56.56186" lon="25.6321">
        <ele>89.703259</ele>
        <time>2020-10-06T19:30:40.067Z</time>
      </trkpt>
      <trkpt lat="56.56172" lon="25.63332">
        <ele>87.861148</ele>
        <time>2020-10-06T19:30:51.251Z</time>
      </trkpt>
      <trkpt lat="56.56151" lon="25.63503">
        <ele>85.284604</ele>
        <time>2020-10-06T19:31:07.505Z</time>
      </trkpt>
      <trkpt lat="56.56129" lon="25.63656">
        <ele>84.523675</ele>
        <time>2020-10-06T19:31:23.708Z</time>
      </trkpt>
      <trkpt lat="56.56118" lon="25.63708">
        <ele>84.364126</ele>
        <time>2020-10-06T19:31:29.921Z</time>
      </trkpt>
      <trkpt lat="56.56087" lon="25.63841">
        <ele>84.02736</ele>
        <time>2020-10-06T19:31:48.653Z</time>
      </trkpt>
      <trkpt lat="56.5606" lon="25.63964">
        <ele>85.557706</ele>
        <time>2020-10-06T19:32:09.388Z</time>
      </trkpt>
      <trkpt lat="56.56026" lon="25.64111">
        <ele>87.404425</ele>
        <time>2020-10-06T19:32:37.757Z</time>
      </trkpt>
      <trkpt lat="56.55956" lon="25.64419">
        <ele>93.412685</ele>
        <time>2020-10-06T19:33:44.988Z</time>
      </trkpt>
      <trkpt lat="56.55938" lon="25.64525">
        <ele>94.770605</ele>
        <time>2020-10-06T19:34:05.652Z</time>
      </trkpt>
      <trkpt lat="56.55929" lon="25.64593">
        <ele>95.526182</ele>
        <time>2020-10-06T19:34:17.918Z</time>
      </trkpt>
      <trkpt lat="56.5592" lon="25.64668">
        <ele>96.350726</ele>
        <time>2020-10-06T19:34:30.300Z</time>
      </trkpt>
      <trkpt lat="56.5591" lon="25.64825">
        <ele>97.334157</ele>
        <time>2020-10-06T19:34:52.937Z</time>
      </trkpt>
      <trkpt lat="56.55919" lon="25.64984">
        <ele>97.344966</ele>
        <time>2020-10-06T19:35:11.654Z</time>
      </trkpt>
      <trkpt lat="56.55946" lon="25.65376">
        <ele>97.100908</ele>
        <time>2020-10-06T19:35:57.911Z</time>
      </trkpt>
      <trkpt lat="56.55951" lon="25.65455">
        <ele>97.322612</ele>
        <time>2020-10-06T19:36:08.364Z</time>
      </trkpt>
      <trkpt lat="56.55954" lon="25.65592">
        <ele>98.008863</ele>
        <time>2020-10-06T19:36:27.550Z</time>
      </trkpt>
      <trkpt lat="56.55939" lon="25.65746">
        <ele>98.846843</ele>
        <time>2020-10-06T19:36:51.250Z</time>
      </trkpt>
      <trkpt lat="56.55897" lon="25.65988">
        <ele>100.960235</ele>
        <time>2020-10-06T19:37:31.510Z</time>
      </trkpt>
      <trkpt lat="56.55879" lon="25.66117">
        <ele>101.739292</ele>
        <time>2020-10-06T19:37:52.308Z</time>
      </trkpt>
      <trkpt lat="56.55859" lon="25.6628">
        <ele>102.402939</ele>
        <time>2020-10-06T19:38:16.703Z</time>
      </trkpt>
      <trkpt lat="56.55855" lon="25.6646">
        <ele>101.717565</ele>
        <time>2020-10-06T19:38:37.253Z</time>
      </trkpt>
      <trkpt lat="56.55845" lon="25.66569">
        <ele>100.575069</ele>
        <time>2020-10-06T19:38:48.018Z</time>
      </trkpt>
      <trkpt lat="56.55838" lon="25.66612">
        <ele>100.099995</ele>
        <time>2020-10-06T19:38:52.320Z</time>
      </trkpt>
      <trkpt lat="56.55827" lon="25.66666">
        <ele>99.505213</ele>
        <time>2020-10-06T19:38:57.527Z</time>
      </trkpt>
      <trkpt lat="56.55789" lon="25.66806">
        <ele>96.533783</ele>
        <time>2020-10-06T19:39:11.213Z</time>
      </trkpt>
      <trkpt lat="56.5568" lon="25.67142">
        <ele>89.247725</ele>
        <time>2020-10-06T19:39:45.360Z</time>
      </trkpt>
      <trkpt lat="56.55641" lon="25.67339">
        <ele>86.638861</ele>
        <time>2020-10-06T19:40:05.508Z</time>
      </trkpt>
      <trkpt lat="56.55615" lon="25.6742">
        <ele>86.106805</ele>
        <time>2020-10-06T19:40:15.838Z</time>
      </trkpt>
      <trkpt lat="56.55603" lon="25.67451">
        <ele>85.895011</ele>
        <time>2020-10-06T19:40:20.022Z</time>
      </trkpt>
      <trkpt lat="56.55591" lon="25.67481">
        <ele>85.679762</ele>
        <time>2020-10-06T19:40:24.413Z</time>
      </trkpt>
      <trkpt lat="56.55544" lon="25.67561">
        <ele>85.164205</ele>
        <time>2020-10-06T19:40:37.798Z</time>
      </trkpt>
      <trkpt lat="56.5552" lon="25.67591">
        <ele>85.030585</ele>
        <time>2020-10-06T19:40:43.925Z</time>
      </trkpt>
      <trkpt lat="56.55387" lon="25.67714">
        <ele>84.413319</ele>
        <time>2020-10-06T19:41:14.576Z</time>
      </trkpt>
      <trkpt lat="56.55256" lon="25.67853">
        <ele>84.159955</ele>
        <time>2020-10-06T19:41:46.699Z</time>
      </trkpt>
      <trkpt lat="56.55183" lon="25.67936">
        <ele>85.118142</ele>
        <time>2020-10-06T19:42:09.721Z</time>
      </trkpt>
      <trkpt lat="56.55135" lon="25.68008">
        <ele>85.839066</ele>
        <time>2020-10-06T19:42:27.220Z</time>
      </trkpt>
      <trkpt lat="56.55096" lon="25.68079">
        <ele>86.39398</ele>
        <time>2020-10-06T19:42:43.272Z</time>
      </trkpt>
      <trkpt lat="56.55064" lon="25.68165">
        <ele>86.783911</ele>
        <time>2020-10-06T19:42:59.351Z</time>
      </trkpt>
      <trkpt lat="56.55041" lon="25.68259">
        <ele>87.166877</ele>
        <time>2020-10-06T19:43:13.454Z</time>
      </trkpt>
      <trkpt lat="56.55016" lon="25.68463">
        <ele>86.637041</ele>
        <time>2020-10-06T19:43:37.231Z</time>
      </trkpt>
      <trkpt lat="56.55" lon="25.68555">
        <ele>85.987856</ele>
        <time>2020-10-06T19:43:46.935Z</time>
      </trkpt>
      <trkpt lat="56.54976" lon="25.68661">
        <ele>85.184064</ele>
        <time>2020-10-06T19:43:58.163Z</time>
      </trkpt>
      <trkpt lat="56.54954" lon="25.68747">
        <ele>84.180365</ele>
        <time>2020-10-06T19:44:07.369Z</time>
      </trkpt>
      <trkpt lat="56.54931" lon="25.68962">
        <ele>81.869191</ele>
        <time>2020-10-06T19:44:28.653Z</time>
      </trkpt>
      <trkpt lat="56.54889" lon="25.69151">
        <ele>80.791057</ele>
        <time>2020-10-06T19:44:49.676Z</time>
      </trkpt>
      <trkpt lat="56.5479" lon="25.69432">
        <ele>80.482228</ele>
        <time>2020-10-06T19:45:29.754Z</time>
      </trkpt>
      <trkpt lat="56.54742" lon="25.69617">
        <ele>81.202636</ele>
        <time>2020-10-06T19:45:59.640Z</time>
      </trkpt>
      <trkpt lat="56.54714" lon="25.69703">
        <ele>81.805472</ele>
        <time>2020-10-06T19:46:14.753Z</time>
      </trkpt>
      <trkpt lat="56.54589" lon="25.70019">
        <ele>83.960855</ele>
        <time>2020-10-06T19:47:11.024Z</time>
      </trkpt>
      <trkpt lat="56.54515" lon="25.70228">
        <ele>85.554131</ele>
        <time>2020-10-06T19:47:46.462Z</time>
      </trkpt>
      <trkpt lat="56.54458" lon="25.70325">
        <ele>86.538962</ele>
        <time>2020-10-06T19:48:08.690Z</time>
      </trkpt>
      <trkpt lat="56.54425" lon="25.70362">
        <ele>87.456505</ele>
        <time>2020-10-06T19:48:20.133Z</time>
      </trkpt>
      <trkpt lat="56.54384" lon="25.70396">
        <ele>88.639701</ele>
        <time>2020-10-06T19:48:34.234Z</time>
      </trkpt>
      <trkpt lat="56.54301" lon="25.70473">
        <ele>91.114353</ele>
        <time>2020-10-06T19:49:06.225Z</time>
      </trkpt>
      <trkpt lat="56.54252" lon="25.70529">
        <ele>92.948838</ele>
        <time>2020-10-06T19:49:27.244Z</time>
      </trkpt>
      <trkpt lat="56.54214" lon="25.70581">
        <ele>94.553756</ele>
        <time>2020-10-06T19:49:44.945Z</time>
      </trkpt>
      <trkpt lat="56.54148" lon="25.70707">
        <ele>97.487592</ele>
        <time>2020-10-06T19:50:18.962Z</time>
      </trkpt>
      <trkpt lat="56.54127" lon="25.70769">
        <ele>97.988211</ele>
        <time>2020-10-06T19:50:31.987Z</time>
      </trkpt>
      <trkpt lat="56.5411" lon="25.70842">
        <ele>98.525727</ele>
        <time>2020-10-06T19:50:44.827Z</time>
      </trkpt>
      <trkpt lat="56.54047" lon="25.71221">
        <ele>98.773954</ele>
        <time>2020-10-06T19:51:32.357Z</time>
      </trkpt>
      <trkpt lat="56.54008" lon="25.71337">
        <ele>97.699424</ele>
        <time>2020-10-06T19:51:46.282Z</time>
      </trkpt>
      <trkpt lat="56.53938" lon="25.71513">
        <ele>94.342492</ele>
        <time>2020-10-06T19:52:06.125Z</time>
      </trkpt>
      <trkpt lat="56.53923" lon="25.71553">
        <ele>93.576626</ele>
        <time>2020-10-06T19:52:10.469Z</time>
      </trkpt>
      <trkpt lat="56.53903" lon="25.71596">
        <ele>92.579281</ele>
        <time>2020-10-06T19:52:15.340Z</time>
      </trkpt>
      <trkpt lat="56.53884" lon="25.71622">
        <ele>91.803824</ele>
        <time>2020-10-06T19:52:19.004Z</time>
      </trkpt>
      <trkpt lat="56.53834" lon="25.71676">
        <ele>89.902653</ele>
        <time>2020-10-06T19:52:28.229Z</time>
      </trkpt>
      <trkpt lat="56.53773" lon="25.71746">
        <ele>87.551027</ele>
        <time>2020-10-06T19:52:40.118Z</time>
      </trkpt>
      <trkpt lat="56.53704" lon="25.71819">
        <ele>87.321289</ele>
        <time>2020-10-06T19:52:55.275Z</time>
      </trkpt>
      <trkpt lat="56.53627" lon="25.71892">
        <ele>87.069527</ele>
        <time>2020-10-06T19:53:16.365Z</time>
      </trkpt>
      <trkpt lat="56.5358" lon="25.71936">
        <ele>87.430096</ele>
        <time>2020-10-06T19:53:31.870Z</time>
      </trkpt>
      <trkpt lat="56.53492" lon="25.72">
        <ele>88.366444</ele>
        <time>2020-10-06T19:53:57.782Z</time>
      </trkpt>
      <trkpt lat="56.53454" lon="25.72023">
        <ele>88.759265</ele>
        <time>2020-10-06T19:54:07.749Z</time>
      </trkpt>
      <trkpt lat="56.53401" lon="25.72057">
        <ele>88.469709</ele>
        <time>2020-10-06T19:54:20.513Z</time>
      </trkpt>
      <trkpt lat="56.53153" lon="25.72243">
        <ele>86.356997</ele>
        <time>2020-10-06T19:55:11.731Z</time>
      </trkpt>
      <trkpt lat="56.53067" lon="25.72358">
        <ele>86.115784</ele>
        <time>2020-10-06T19:55:34.448Z</time>
      </trkpt>
      <trkpt lat="56.53006" lon="25.72451">
        <ele>86.255249</ele>
        <time>2020-10-06T19:55:53.263Z</time>
      </trkpt>
      <trkpt lat="56.52974" lon="25.72489">
        <ele>86.366362</ele>
        <time>2020-10-06T19:56:02.884Z</time>
      </trkpt>
      <trkpt lat="56.52907" lon="25.72548">
        <ele>87.098592</ele>
        <time>2020-10-06T19:56:22.022Z</time>
      </trkpt>
      <trkpt lat="56.5272" lon="25.72688">
        <ele>89.476779</ele>
        <time>2020-10-06T19:57:16.525Z</time>
      </trkpt>
      <trkpt lat="56.52551" lon="25.72779">
        <ele>91.664532</ele>
        <time>2020-10-06T19:58:06.879Z</time>
      </trkpt>
      <trkpt lat="56.52523" lon="25.728">
        <ele>92.007089</ele>
        <time>2020-10-06T19:58:14.923Z</time>
      </trkpt>
      <trkpt lat="56.52339" lon="25.72988">
        <ele>93.363577</ele>
        <time>2020-10-06T19:59:05.664Z</time>
      </trkpt>
      <trkpt lat="56.5231" lon="25.73021">
        <ele>93.572262</ele>
        <time>2020-10-06T19:59:13.995Z</time>
      </trkpt>
      <trkpt lat="56.52293" lon="25.73049">
        <ele>93.755539</ele>
        <time>2020-10-06T19:59:19.783Z</time>
      </trkpt>
      <trkpt lat="56.52267" lon="25.73101">
        <ele>94.060192</ele>
        <time>2020-10-06T19:59:29.606Z</time>
      </trkpt>
      <trkpt lat="56.52182" lon="25.73324">
        <ele>94.793598</ele>
        <time>2020-10-06T20:00:08.547Z</time>
      </trkpt>
      <trkpt lat="56.52169" lon="25.73379">
        <ele>94.72833</ele>
        <time>2020-10-06T20:00:16.453Z</time>
      </trkpt>
      <trkpt lat="56.52138" lon="25.73587">
        <ele>94.118398</ele>
        <time>2020-10-06T20:00:40.430Z</time>
      </trkpt>
      <trkpt lat="56.52047" lon="25.73995">
        <ele>87.958308</ele>
        <time>2020-10-06T20:01:21.373Z</time>
      </trkpt>
      <trkpt lat="56.51921" lon="25.74428">
        <ele>79.80991</ele>
        <time>2020-10-06T20:02:05.546Z</time>
      </trkpt>
      <trkpt lat="56.51908" lon="25.74475">
        <ele>79.276163</ele>
        <time>2020-10-06T20:02:10.590Z</time>
      </trkpt>
      <trkpt lat="56.51897" lon="25.7451">
        <ele>78.99677</ele>
        <time>2020-10-06T20:02:14.474Z</time>
      </trkpt>
      <trkpt lat="56.51864" lon="25.74622">
        <ele>78.103513</ele>
        <time>2020-10-06T20:02:27.321Z</time>
      </trkpt>
      <trkpt lat="56.51792" lon="25.74855">
        <ele>77.090547</ele>
        <time>2020-10-06T20:02:58.831Z</time>
      </trkpt>
      <trkpt lat="56.51755" lon="25.74926">
        <ele>76.994618</ele>
        <time>2020-10-06T20:03:10.708Z</time>
      </trkpt>
      <trkpt lat="56.51721" lon="25.74982">
        <ele>76.911473</ele>
        <time>2020-10-06T20:03:20.870Z</time>
      </trkpt>
      <trkpt lat="56.51583" lon="25.7518">
        <ele>76.853396</ele>
        <time>2020-10-06T20:03:59.076Z</time>
      </trkpt>
      <trkpt lat="56.51582" lon="25.75182">
        <ele>76.852757</ele>
        <time>2020-10-06T20:03:59.489Z</time>
      </trkpt>
      <trkpt lat="56.51309" lon="25.75577">
        <ele>78.662726</ele>
        <time>2020-10-06T20:05:25.157Z</time>
      </trkpt>
      <trkpt lat="56.51284" lon="25.75614">
        <ele>78.823229</ele>
        <time>2020-10-06T20:05:33.236Z</time>
      </trkpt>
      <trkpt lat="56.51218" lon="25.75711">
        <ele>79.205991</ele>
        <time>2020-10-06T20:05:53.982Z</time>
      </trkpt>
      <trkpt lat="56.51186" lon="25.75764">
        <ele>79.402056</ele>
        <time>2020-10-06T20:06:04.423Z</time>
      </trkpt>
      <trkpt lat="56.51163" lon="25.75807">
        <ele>79.549295</ele>
        <time>2020-10-06T20:06:12.107Z</time>
      </trkpt>
      <trkpt lat="56.51139" lon="25.75858">
        <ele>79.550067</ele>
        <time>2020-10-06T20:06:20.511Z</time>
      </trkpt>
      <trkpt lat="56.51104" lon="25.75937">
        <ele>79.551225</ele>
        <time>2020-10-06T20:06:33.162Z</time>
      </trkpt>
      <trkpt lat="56.51062" lon="25.76036">
        <ele>79.552664</ele>
        <time>2020-10-06T20:06:48.282Z</time>
      </trkpt>
      <trkpt lat="56.51038" lon="25.76092">
        <ele>79.503262</ele>
        <time>2020-10-06T20:06:56.579Z</time>
      </trkpt>
      <trkpt lat="56.51036" lon="25.76095">
        <ele>79.497708</ele>
        <time>2020-10-06T20:06:57.066Z</time>
      </trkpt>
      <trkpt lat="56.50997" lon="25.76181">
        <ele>79.358375</ele>
        <time>2020-10-06T20:07:10.310Z</time>
      </trkpt>
      <trkpt lat="56.50979" lon="25.76223">
        <ele>79.291797</ele>
        <time>2020-10-06T20:07:16.606Z</time>
      </trkpt>
      <trkpt lat="56.50962" lon="25.7626">
        <ele>79.230675</ele>
        <time>2020-10-06T20:07:22.417Z</time>
      </trkpt>
      <trkpt lat="56.50931" lon="25.76323">
        <ele>79.131925</ele>
        <time>2020-10-06T20:07:32.204Z</time>
      </trkpt>
      <trkpt lat="56.50928" lon="25.76329">
        <ele>79.125511</ele>
        <time>2020-10-06T20:07:33.143Z</time>
      </trkpt>
      <trkpt lat="56.50914" lon="25.76357">
        <ele>79.094855</ele>
        <time>2020-10-06T20:07:37.507Z</time>
      </trkpt>
      <trkpt lat="56.50833" lon="25.76502">
        <ele>78.924104</ele>
        <time>2020-10-06T20:08:02.431Z</time>
      </trkpt>
      <trkpt lat="56.50793" lon="25.76573">
        <ele>78.810704</ele>
        <time>2020-10-06T20:08:14.851Z</time>
      </trkpt>
      <trkpt lat="56.50766" lon="25.76623">
        <ele>78.704077</ele>
        <time>2020-10-06T20:08:23.255Z</time>
      </trkpt>
      <trkpt lat="56.50762" lon="25.76629">
        <ele>78.691756</ele>
        <time>2020-10-06T20:08:24.124Z</time>
      </trkpt>
      <trkpt lat="56.50661" lon="25.76806">
        <ele>78.501203</ele>
        <time>2020-10-06T20:08:53.559Z</time>
      </trkpt>
      <trkpt lat="56.50658" lon="25.76812">
        <ele>78.522634</ele>
        <time>2020-10-06T20:08:54.568Z</time>
      </trkpt>
      <trkpt lat="56.50621" lon="25.76878">
        <ele>78.74812</ele>
        <time>2020-10-06T20:09:06.644Z</time>
      </trkpt>
      <trkpt lat="56.50576" lon="25.76959">
        <ele>79.017861</ele>
        <time>2020-10-06T20:09:22.334Z</time>
      </trkpt>
      <trkpt lat="56.50508" lon="25.77085">
        <ele>80.055338</ele>
        <time>2020-10-06T20:09:48.826Z</time>
      </trkpt>
      <trkpt lat="56.50432" lon="25.77241">
        <ele>81.63202</ele>
        <time>2020-10-06T20:10:21.740Z</time>
      </trkpt>
      <trkpt lat="56.50395" lon="25.77331">
        <ele>82.335831</ele>
        <time>2020-10-06T20:10:38.522Z</time>
      </trkpt>
      <trkpt lat="56.50284" lon="25.77652">
        <ele>84.0943</ele>
        <time>2020-10-06T20:11:33.600Z</time>
      </trkpt>
      <trkpt lat="56.50263" lon="25.77725">
        <ele>84.298866</ele>
        <time>2020-10-06T20:11:43.912Z</time>
      </trkpt>
      <trkpt lat="56.50244" lon="25.77799">
        <ele>84.494166</ele>
        <time>2020-10-06T20:11:53.532Z</time>
      </trkpt>
      <trkpt lat="56.50209" lon="25.77953">
        <ele>84.601739</ele>
        <time>2020-10-06T20:12:12.970Z</time>
      </trkpt>
      <trkpt lat="56.49936" lon="25.79382">
        <ele>88.41091</ele>
        <time>2020-10-06T20:15:34.962Z</time>
      </trkpt>
      <trkpt lat="56.49926" lon="25.79438">
        <ele>88.739986</ele>
        <time>2020-10-06T20:15:43.691Z</time>
      </trkpt>
      <trkpt lat="56.49899" lon="25.79576">
        <ele>89.549325</ele>
        <time>2020-10-06T20:16:05.669Z</time>
      </trkpt>
      <trkpt lat="56.49854" lon="25.79813">
        <ele>90.651454</ele>
        <time>2020-10-06T20:16:42.745Z</time>
      </trkpt>
      <trkpt lat="56.49769" lon="25.80259">
        <ele>91.245911</ele>
        <time>2020-10-06T20:17:42.480Z</time>
      </trkpt>
      <trkpt lat="56.49728" lon="25.80477">
        <ele>90.007915</ele>
        <time>2020-10-06T20:18:07.394Z</time>
      </trkpt>
      <trkpt lat="56.49683" lon="25.80717">
        <ele>88.116147</ele>
        <time>2020-10-06T20:18:33.094Z</time>
      </trkpt>
      <trkpt lat="56.49654" lon="25.80924">
        <ele>86.156585</ele>
        <time>2020-10-06T20:18:54.558Z</time>
      </trkpt>
      <trkpt lat="56.49636" lon="25.81163">
        <ele>83.46632</ele>
        <time>2020-10-06T20:19:18.233Z</time>
      </trkpt>
      <trkpt lat="56.49636" lon="25.81295">
        <ele>81.654028</ele>
        <time>2020-10-06T20:19:30.476Z</time>
      </trkpt>
      <trkpt lat="56.49638" lon="25.81378">
        <ele>80.423227</ele>
        <time>2020-10-06T20:19:38.051Z</time>
      </trkpt>
      <trkpt lat="56.49648" lon="25.81518">
        <ele>78.341675</ele>
        <time>2020-10-06T20:19:51.128Z</time>
      </trkpt>
      <trkpt lat="56.49656" lon="25.81592">
        <ele>77.804171</ele>
        <time>2020-10-06T20:19:58.229Z</time>
      </trkpt>
      <trkpt lat="56.49665" lon="25.81667">
        <ele>77.294803</ele>
        <time>2020-10-06T20:20:06.003Z</time>
      </trkpt>
      <trkpt lat="56.49692" lon="25.81821">
        <ele>76.223644</ele>
        <time>2020-10-06T20:20:23.832Z</time>
      </trkpt>
      <trkpt lat="56.49916" lon="25.82981">
        <ele>77.419586</ele>
        <time>2020-10-06T20:23:01.413Z</time>
      </trkpt>
      <trkpt lat="56.49926" lon="25.83029">
        <ele>77.467796</ele>
        <time>2020-10-06T20:23:07.738Z</time>
      </trkpt>
      <trkpt lat="56.49933" lon="25.83066">
        <ele>77.505821</ele>
        <time>2020-10-06T20:23:12.563Z</time>
      </trkpt>
      <trkpt lat="56.49967" lon="25.83295">
        <ele>77.746613</ele>
        <time>2020-10-06T20:23:42.419Z</time>
      </trkpt>
      <trkpt lat="56.49975" lon="25.83394">
        <ele>77.8654</ele>
        <time>2020-10-06T20:23:55.475Z</time>
      </trkpt>
      <trkpt lat="56.49982" lon="25.83518">
        <ele>78.21272</ele>
        <time>2020-10-06T20:24:12.382Z</time>
      </trkpt>
      <trkpt lat="56.49985" lon="25.83587">
        <ele>78.405077</ele>
        <time>2020-10-06T20:24:21.869Z</time>
      </trkpt>
      <trkpt lat="56.49986" lon="25.83597">
        <ele>78.433052</ele>
        <time>2020-10-06T20:24:23.328Z</time>
      </trkpt>
      <trkpt lat="56.49988" lon="25.83658">
        <ele>78.602633</ele>
        <time>2020-10-06T20:24:31.465Z</time>
      </trkpt>
      <trkpt lat="56.49994" lon="25.83789">
        <ele>78.923442</ele>
        <time>2020-10-06T20:24:48.591Z</time>
      </trkpt>
      <trkpt lat="56.49997" lon="25.83858">
        <ele>79.078342</ele>
        <time>2020-10-06T20:24:57.764Z</time>
      </trkpt>
      <trkpt lat="56.50002" lon="25.83975">
        <ele>79.338628</ele>
        <time>2020-10-06T20:25:13.139Z</time>
      </trkpt>
      <trkpt lat="56.50003" lon="25.84012">
        <ele>79.419315</ele>
        <time>2020-10-06T20:25:18.095Z</time>
      </trkpt>
      <trkpt lat="56.50004" lon="25.84034">
        <ele>79.469034</ele>
        <time>2020-10-06T20:25:21.138Z</time>
      </trkpt>
      <trkpt lat="56.50009" lon="25.84132">
        <ele>79.967559</ele>
        <time>2020-10-06T20:25:34.318Z</time>
      </trkpt>
      <trkpt lat="56.50012" lon="25.84206">
        <ele>80.347666</ele>
        <time>2020-10-06T20:25:44.613Z</time>
      </trkpt>
      <trkpt lat="56.50016" lon="25.84294">
        <ele>80.79656</ele>
        <time>2020-10-06T20:25:57.715Z</time>
      </trkpt>
      <trkpt lat="56.50019" lon="25.84362">
        <ele>81.148839</ele>
        <time>2020-10-06T20:26:08.199Z</time>
      </trkpt>
      <trkpt lat="56.50022" lon="25.84424">
        <ele>81.690618</ele>
        <time>2020-10-06T20:26:18.047Z</time>
      </trkpt>
      <trkpt lat="56.49763" lon="25.84439">
        <ele>85.199918</ele>
        <time>2020-10-06T20:27:34.797Z</time>
      </trkpt>
      <trkpt lat="56.49759" lon="25.84587">
        <ele>85.806384</ele>
        <time>2020-10-06T20:27:55.030Z</time>
      </trkpt>
      <trkpt lat="56.49762" lon="25.84761">
        <ele>85.177541</ele>
        <time>2020-10-06T20:28:16.408Z</time>
      </trkpt>
      <trkpt lat="56.49763" lon="25.84799">
        <ele>85.042534</ele>
        <time>2020-10-06T20:28:20.577Z</time>
      </trkpt>
      <trkpt lat="56.49763" lon="25.84811">
        <ele>84.997509</ele>
        <time>2020-10-06T20:28:21.921Z</time>
      </trkpt>
      <trkpt lat="56.4971" lon="25.84934">
        <ele>84.135553</ele>
        <time>2020-10-06T20:28:38.022Z</time>
      </trkpt>
      <trkpt lat="56.49654" lon="25.85045">
        <ele>83.074802</ele>
        <time>2020-10-06T20:28:54.235Z</time>
      </trkpt>
      <trkpt lat="56.49653" lon="25.85048">
        <ele>83.046545</ele>
        <time>2020-10-06T20:28:54.557Z</time>
      </trkpt>
      <trkpt lat="56.49686" lon="25.85156">
        <ele>82.358926</ele>
        <time>2020-10-06T20:29:12.855Z</time>
      </trkpt>
      <trkpt lat="56.49731" lon="25.85315">
        <ele>82.026028</ele>
        <time>2020-10-06T20:29:32.823Z</time>
      </trkpt>
      <trkpt lat="56.49717" lon="25.85395">
        <ele>81.869366</ele>
        <time>2020-10-06T20:29:43.854Z</time>
      </trkpt>
      <trkpt lat="56.4964" lon="25.85826">
        <ele>82.768526</ele>
        <time>2020-10-06T20:30:46.135Z</time>
      </trkpt>
      <trkpt lat="56.49606" lon="25.8603">
        <ele>83.220601</ele>
        <time>2020-10-06T20:31:15.502Z</time>
      </trkpt>
      <trkpt lat="56.49595" lon="25.86194">
        <ele>83.256136</ele>
        <time>2020-10-06T20:31:37.360Z</time>
      </trkpt>
      <trkpt lat="56.49574" lon="25.86357">
        <ele>83.266518</ele>
        <time>2020-10-06T20:31:57.902Z</time>
      </trkpt>
      <trkpt lat="56.49518" lon="25.86531">
        <ele>83.49289</ele>
        <time>2020-10-06T20:32:24.259Z</time>
      </trkpt>
      <trkpt lat="56.49424" lon="25.86875">
        <ele>84.239354</ele>
        <time>2020-10-06T20:33:17.463Z</time>
      </trkpt>
      <trkpt lat="56.4941" lon="25.86921">
        <ele>84.363389</ele>
        <time>2020-10-06T20:33:24.515Z</time>
      </trkpt>
      <trkpt lat="56.49401" lon="25.86952">
        <ele>84.426444</ele>
        <time>2020-10-06T20:33:29.302Z</time>
      </trkpt>
      <trkpt lat="56.4933" lon="25.87149">
        <ele>84.667653</ele>
        <time>2020-10-06T20:34:00.593Z</time>
      </trkpt>
      <trkpt lat="56.49325" lon="25.87148">
        <ele>84.678351</ele>
        <time>2020-10-06T20:34:01.880Z</time>
      </trkpt>
      <trkpt lat="56.4931" lon="25.87155">
        <ele>84.705963</ele>
        <time>2020-10-06T20:34:05.208Z</time>
      </trkpt>
      <trkpt lat="56.49301" lon="25.87183">
        <ele>84.739636</ele>
        <time>2020-10-06T20:34:09.369Z</time>
      </trkpt>
      <trkpt lat="56.49301" lon="25.87199">
        <ele>84.737332</ele>
        <time>2020-10-06T20:34:11.266Z</time>
      </trkpt>
      <trkpt lat="56.4931" lon="25.87225">
        <ele>84.716289</ele>
        <time>2020-10-06T20:34:15.147Z</time>
      </trkpt>
      <trkpt lat="56.49317" lon="25.87232">
        <ele>84.705617</ele>
        <time>2020-10-06T20:34:17.093Z</time>
      </trkpt>
      <trkpt lat="56.49309" lon="25.87267">
        <ele>84.67917</ele>
        <time>2020-10-06T20:34:21.899Z</time>
      </trkpt>
      <trkpt lat="56.49296" lon="25.87298">
        <ele>84.652699</ele>
        <time>2020-10-06T20:34:26.704Z</time>
      </trkpt>
      <trkpt lat="56.49199" lon="25.87492">
        <ele>84.471567</ele>
        <time>2020-10-06T20:34:57.238Z</time>
      </trkpt>
      <trkpt lat="56.49111" lon="25.87678">
        <ele>84.294707</ele>
        <time>2020-10-06T20:35:27.259Z</time>
      </trkpt>
      <trkpt lat="56.49052" lon="25.87809">
        <ele>84.190059</ele>
        <time>2020-10-06T20:35:47.503Z</time>
      </trkpt>
      <trkpt lat="56.49033" lon="25.87849">
        <ele>84.157825</ele>
        <time>2020-10-06T20:35:53.753Z</time>
      </trkpt>
      <trkpt lat="56.49017" lon="25.87882">
        <ele>84.131275</ele>
        <time>2020-10-06T20:35:58.875Z</time>
      </trkpt>
      <trkpt lat="56.48992" lon="25.87935">
        <ele>84.087901</ele>
        <time>2020-10-06T20:36:07.852Z</time>
      </trkpt>
      <trkpt lat="56.48948" lon="25.88041">
        <ele>84.012234</ele>
        <time>2020-10-06T20:36:23.925Z</time>
      </trkpt>
      <trkpt lat="56.48888" lon="25.88188">
        <ele>83.907186</ele>
        <time>2020-10-06T20:36:45.671Z</time>
      </trkpt>
      <trkpt lat="56.48855" lon="25.8827">
        <ele>83.865463</ele>
        <time>2020-10-06T20:36:58.114Z</time>
      </trkpt>
      <trkpt lat="56.48814" lon="25.88422">
        <ele>83.800069</ele>
        <time>2020-10-06T20:37:18.872Z</time>
      </trkpt>
      <trkpt lat="56.48812" lon="25.88434">
        <ele>83.795089</ele>
        <time>2020-10-06T20:37:20.333Z</time>
      </trkpt>
      <trkpt lat="56.48804" lon="25.88427">
        <ele>83.789237</ele>
        <time>2020-10-06T20:37:22.246Z</time>
      </trkpt>
      <trkpt lat="56.48788" lon="25.88427">
        <ele>83.777703</ele>
        <time>2020-10-06T20:37:25.800Z</time>
      </trkpt>
      <trkpt lat="56.48781" lon="25.88435">
        <ele>83.777044</ele>
        <time>2020-10-06T20:37:27.658Z</time>
      </trkpt>
      <trkpt lat="56.48775" lon="25.88446">
        <ele>83.784353</ele>
        <time>2020-10-06T20:37:29.439Z</time>
      </trkpt>
      <trkpt lat="56.48772" lon="25.88475">
        <ele>83.79889</ele>
        <time>2020-10-06T20:37:33.030Z</time>
      </trkpt>
      <trkpt lat="56.48777" lon="25.88498">
        <ele>83.811079</ele>
        <time>2020-10-06T20:37:36.032Z</time>
      </trkpt>
      <trkpt lat="56.48785" lon="25.8851">
        <ele>83.820417</ele>
        <time>2020-10-06T20:37:38.434Z</time>
      </trkpt>
      <trkpt lat="56.4879" lon="25.88513">
        <ele>83.8248</ele>
        <time>2020-10-06T20:37:39.447Z</time>
      </trkpt>
      <trkpt lat="56.48783" lon="25.88553">
        <ele>83.844922</ele>
        <time>2020-10-06T20:37:44.595Z</time>
      </trkpt>
      <trkpt lat="56.48767" lon="25.8865">
        <ele>83.894645</ele>
        <time>2020-10-06T20:37:57.520Z</time>
      </trkpt>
      <trkpt lat="56.48751" lon="25.88753">
        <ele>83.929916</ele>
        <time>2020-10-06T20:38:11.414Z</time>
      </trkpt>
      <trkpt lat="56.48745" lon="25.88797">
        <ele>83.924178</ele>
        <time>2020-10-06T20:38:17.150Z</time>
      </trkpt>
      <trkpt lat="56.48718" lon="25.88985">
        <ele>83.899261</ele>
        <time>2020-10-06T20:38:40.872Z</time>
      </trkpt>
      <trkpt lat="56.48677" lon="25.89365">
        <ele>83.553728</ele>
        <time>2020-10-06T20:39:26.521Z</time>
      </trkpt>
      <trkpt lat="56.48649" lon="25.89466">
        <ele>83.917714</ele>
        <time>2020-10-06T20:39:40.979Z</time>
      </trkpt>
      <trkpt lat="56.4856" lon="25.89629">
        <ele>84.727615</ele>
        <time>2020-10-06T20:40:13.376Z</time>
      </trkpt>
      <trkpt lat="56.48083" lon="25.90461">
        <ele>92.048436</ele>
        <time>2020-10-06T20:43:13.980Z</time>
      </trkpt>
      <trkpt lat="56.47768" lon="25.9082">
        <ele>89.730349</ele>
        <time>2020-10-06T20:44:26.339Z</time>
      </trkpt>
      <trkpt lat="56.47721" lon="25.90874">
        <ele>89.564126</ele>
        <time>2020-10-06T20:44:39.052Z</time>
      </trkpt>
      <trkpt lat="56.47635" lon="25.9097">
        <ele>89.854625</ele>
        <time>2020-10-06T20:45:03.789Z</time>
      </trkpt>
      <trkpt lat="56.47558" lon="25.91073">
        <ele>89.728309</ele>
        <time>2020-10-06T20:45:26.645Z</time>
      </trkpt>
      <trkpt lat="56.47286" lon="25.91589">
        <ele>86.545616</ele>
        <time>2020-10-06T20:46:41.488Z</time>
      </trkpt>
      <trkpt lat="56.46858" lon="25.92381">
        <ele>86.685226</ele>
        <time>2020-10-06T20:49:01.846Z</time>
      </trkpt>
      <trkpt lat="56.46803" lon="25.92466">
        <ele>86.763985</ele>
        <time>2020-10-06T20:49:18.367Z</time>
      </trkpt>
      <trkpt lat="56.46619" lon="25.9274">
        <ele>86.789313</ele>
        <time>2020-10-06T20:50:11.803Z</time>
      </trkpt>
      <trkpt lat="56.4653" lon="25.92883">
        <ele>86.502072</ele>
        <time>2020-10-06T20:50:37.825Z</time>
      </trkpt>
      <trkpt lat="56.46507" lon="25.92936">
        <ele>86.259053</ele>
        <time>2020-10-06T20:50:45.512Z</time>
      </trkpt>
      <trkpt lat="56.46491" lon="25.92993">
        <ele>86.031591</ele>
        <time>2020-10-06T20:50:52.535Z</time>
      </trkpt>
      <trkpt lat="56.46463" lon="25.93236">
        <ele>85.181198</ele>
        <time>2020-10-06T20:51:19.006Z</time>
      </trkpt>
      <trkpt lat="56.46419" lon="25.93442">
        <ele>84.538608</ele>
        <time>2020-10-06T20:51:44.037Z</time>
      </trkpt>
      <trkpt lat="56.46392" lon="25.93698">
        <ele>85.424493</ele>
        <time>2020-10-06T20:52:20.292Z</time>
      </trkpt>
      <trkpt lat="56.46383" lon="25.93749">
        <ele>85.608932</ele>
        <time>2020-10-06T20:52:28.224Z</time>
      </trkpt>
      <trkpt lat="56.46364" lon="25.93877">
        <ele>86.12579</ele>
        <time>2020-10-06T20:52:47.190Z</time>
      </trkpt>
      <trkpt lat="56.46315" lon="25.94167">
        <ele>87.321737</ele>
        <time>2020-10-06T20:53:28.441Z</time>
      </trkpt>
      <trkpt lat="56.46256" lon="25.94462">
        <ele>88.866704</ele>
        <time>2020-10-06T20:54:12.723Z</time>
      </trkpt>
      <trkpt lat="56.46231" lon="25.9461">
        <ele>89.939063</ele>
        <time>2020-10-06T20:54:36.746Z</time>
      </trkpt>
      <trkpt lat="56.46218" lon="25.94717">
        <ele>90.662827</ele>
        <time>2020-10-06T20:54:53.877Z</time>
      </trkpt>
      <trkpt lat="56.46196" lon="25.9566">
        <ele>96.290969</ele>
        <time>2020-10-06T20:57:12.665Z</time>
      </trkpt>
      <trkpt lat="56.46201" lon="25.95834">
        <ele>96.859403</ele>
        <time>2020-10-06T20:57:36.692Z</time>
      </trkpt>
      <trkpt lat="56.46237" lon="25.96351">
        <ele>98.041173</ele>
        <time>2020-10-06T20:58:45.815Z</time>
      </trkpt>
      <trkpt lat="56.46319" lon="25.9683">
        <ele>97.836348</ele>
        <time>2020-10-06T20:59:46.572Z</time>
      </trkpt>
      <trkpt lat="56.46392" lon="25.97187">
        <ele>97.060516</ele>
        <time>2020-10-06T21:00:30.125Z</time>
      </trkpt>
      <trkpt lat="56.4641" lon="25.97297">
        <ele>96.863283</ele>
        <time>2020-10-06T21:00:43.670Z</time>
      </trkpt>
      <trkpt lat="56.46426" lon="25.9744">
        <ele>96.672673</ele>
        <time>2020-10-06T21:01:01.139Z</time>
      </trkpt>
      <trkpt lat="56.46431" lon="25.97572">
        <ele>96.471854</ele>
        <time>2020-10-06T21:01:16.920Z</time>
      </trkpt>
      <trkpt lat="56.46429" lon="25.977">
        <ele>96.144194</ele>
        <time>2020-10-06T21:01:31.807Z</time>
      </trkpt>
      <trkpt lat="56.46414" lon="25.97953">
        <ele>95.539001</ele>
        <time>2020-10-06T21:02:00.415Z</time>
      </trkpt>
      <trkpt lat="56.46391" lon="25.98103">
        <ele>95.228275</ele>
        <time>2020-10-06T21:02:18.300Z</time>
      </trkpt>
      <trkpt lat="56.46364" lon="25.9825">
        <ele>94.986591</ele>
        <time>2020-10-06T21:02:36.996Z</time>
      </trkpt>
      <trkpt lat="56.46283" lon="25.98733">
        <ele>93.867983</ele>
        <time>2020-10-06T21:03:37.598Z</time>
      </trkpt>
      <trkpt lat="56.4619" lon="25.99227">
        <ele>89.74697</ele>
        <time>2020-10-06T21:04:29.131Z</time>
      </trkpt>
      <trkpt lat="56.46124" lon="25.99609">
        <ele>88.959493</ele>
        <time>2020-10-06T21:05:14.427Z</time>
      </trkpt>
      <trkpt lat="56.46049" lon="26.00032">
        <ele>92.054315</ele>
        <time>2020-10-06T21:06:24.960Z</time>
      </trkpt>
      <trkpt lat="56.46025" lon="26.00173">
        <ele>93.436414</ele>
        <time>2020-10-06T21:06:49.499Z</time>
      </trkpt>
      <trkpt lat="56.45974" lon="26.00475">
        <ele>95.680271</ele>
        <time>2020-10-06T21:07:39.734Z</time>
      </trkpt>
      <trkpt lat="56.4594" lon="26.00677">
        <ele>96.321138</ele>
        <time>2020-10-06T21:08:07.421Z</time>
      </trkpt>
      <trkpt lat="56.45869" lon="26.01067">
        <ele>92.655743</ele>
        <time>2020-10-06T21:08:48.616Z</time>
      </trkpt>
      <trkpt lat="56.45811" lon="26.01465">
        <ele>87.650559</ele>
        <time>2020-10-06T21:09:27.240Z</time>
      </trkpt>
      <trkpt lat="56.45763" lon="26.01866">
        <ele>83.991611</ele>
        <time>2020-10-06T21:10:08.841Z</time>
      </trkpt>
      <trkpt lat="56.45718" lon="26.02107">
        <ele>83.029037</ele>
        <time>2020-10-06T21:10:37.020Z</time>
      </trkpt>
      <trkpt lat="56.45706" lon="26.02153">
        <ele>82.899924</ele>
        <time>2020-10-06T21:10:42.951Z</time>
      </trkpt>
      <trkpt lat="56.45674" lon="26.02281">
        <ele>82.750816</ele>
        <time>2020-10-06T21:11:00.153Z</time>
      </trkpt>
      <trkpt lat="56.45591" lon="26.02515">
        <ele>83.092354</ele>
        <time>2020-10-06T21:11:36.139Z</time>
      </trkpt>
      <trkpt lat="56.45515" lon="26.02704">
        <ele>83.393952</ele>
        <time>2020-10-06T21:12:06.838Z</time>
      </trkpt>
      <trkpt lat="56.44643" lon="26.04789">
        <ele>84.074989</ele>
        <time>2020-10-06T21:17:31.165Z</time>
      </trkpt>
      <trkpt lat="56.44504" lon="26.0507">
        <ele>84.39835</ele>
        <time>2020-10-06T21:18:19.338Z</time>
      </trkpt>
      <trkpt lat="56.44359" lon="26.05346">
        <ele>84.28574</ele>
        <time>2020-10-06T21:19:05.269Z</time>
      </trkpt>
      <trkpt lat="56.44247" lon="26.05519">
        <ele>84.512857</ele>
        <time>2020-10-06T21:19:38.627Z</time>
      </trkpt>
      <trkpt lat="56.43947" lon="26.05889">
        <ele>87.456122</ele>
        <time>2020-10-06T21:21:11.286Z</time>
      </trkpt>
      <trkpt lat="56.43832" lon="26.06011">
        <ele>89.158415</ele>
        <time>2020-10-06T21:21:48.634Z</time>
      </trkpt>
      <trkpt lat="56.43681" lon="26.06116">
        <ele>90.594348</ele>
        <time>2020-10-06T21:22:32.667Z</time>
      </trkpt>
      <trkpt lat="56.43576" lon="26.06163">
        <ele>90.764281</ele>
        <time>2020-10-06T21:22:56.699Z</time>
      </trkpt>
      <trkpt lat="56.43515" lon="26.06189">
        <ele>90.147395</ele>
        <time>2020-10-06T21:23:08.929Z</time>
      </trkpt>
      <trkpt lat="56.43445" lon="26.06222">
        <ele>89.448807</ele>
        <time>2020-10-06T21:23:22.271Z</time>
      </trkpt>
      <trkpt lat="56.43342" lon="26.06276">
        <ele>88.077298</ele>
        <time>2020-10-06T21:23:41.765Z</time>
      </trkpt>
      <trkpt lat="56.43221" lon="26.06328">
        <ele>86.853495</ele>
        <time>2020-10-06T21:24:05.700Z</time>
      </trkpt>
      <trkpt lat="56.43091" lon="26.0637">
        <ele>86.442609</ele>
        <time>2020-10-06T21:24:33.878Z</time>
      </trkpt>
      <trkpt lat="56.42839" lon="26.06375">
        <ele>87.571167</ele>
        <time>2020-10-06T21:25:36.795Z</time>
      </trkpt>
      <trkpt lat="56.4274" lon="26.06375">
        <ele>87.753224</ele>
        <time>2020-10-06T21:25:59.418Z</time>
      </trkpt>
      <trkpt lat="56.42477" lon="26.06384">
        <ele>86.293444</ele>
        <time>2020-10-06T21:26:52.372Z</time>
      </trkpt>
      <trkpt lat="56.42409" lon="26.0639">
        <ele>85.844066</ele>
        <time>2020-10-06T21:27:05.975Z</time>
      </trkpt>
      <trkpt lat="56.42363" lon="26.06402">
        <ele>85.551239</ele>
        <time>2020-10-06T21:27:15.167Z</time>
      </trkpt>
      <trkpt lat="56.41992" lon="26.0656">
        <ele>85.0619</ele>
        <time>2020-10-06T21:28:37.503Z</time>
      </trkpt>
      <trkpt lat="56.41706" lon="26.06692">
        <ele>87.17359</ele>
        <time>2020-10-06T21:29:54.794Z</time>
      </trkpt>
      <trkpt lat="56.41444" lon="26.06892">
        <ele>87.060664</ele>
        <time>2020-10-06T21:30:56.204Z</time>
      </trkpt>
      <trkpt lat="56.41267" lon="26.07139">
        <ele>86.577793</ele>
        <time>2020-10-06T21:31:43.871Z</time>
      </trkpt>
      <trkpt lat="56.4108" lon="26.07351">
        <ele>86.435909</ele>
        <time>2020-10-06T21:32:32.246Z</time>
      </trkpt>
      <trkpt lat="56.40722" lon="26.07943">
        <ele>87.536795</ele>
        <time>2020-10-06T21:34:26.525Z</time>
      </trkpt>
      <trkpt lat="56.40702" lon="26.07999">
        <ele>87.547145</ele>
        <time>2020-10-06T21:34:34.400Z</time>
      </trkpt>
      <trkpt lat="56.40684" lon="26.08054">
        <ele>87.557325</ele>
        <time>2020-10-06T21:34:41.975Z</time>
      </trkpt>
      <trkpt lat="56.40551" lon="26.08573">
        <ele>86.10444</ele>
        <time>2020-10-06T21:35:46.731Z</time>
      </trkpt>
      <trkpt lat="56.40372" lon="26.09278">
        <ele>85.64725</ele>
        <time>2020-10-06T21:37:21.213Z</time>
      </trkpt>
      <trkpt lat="56.40345" lon="26.09389">
        <ele>85.79117</ele>
        <time>2020-10-06T21:37:36.419Z</time>
      </trkpt>
      <trkpt lat="56.40306" lon="26.09516">
        <ele>85.963497</ele>
        <time>2020-10-06T21:37:55.044Z</time>
      </trkpt>
      <trkpt lat="56.40157" lon="26.09946">
        <ele>88.148011</ele>
        <time>2020-10-06T21:39:05.525Z</time>
      </trkpt>
      <trkpt lat="56.40068" lon="26.10202">
        <ele>90.05048</ele>
        <time>2020-10-06T21:39:52.643Z</time>
      </trkpt>
      <trkpt lat="56.39997" lon="26.10395">
        <ele>91.375943</ele>
        <time>2020-10-06T21:40:26.800Z</time>
      </trkpt>
      <trkpt lat="56.39932" lon="26.10518">
        <ele>91.641254</ele>
        <time>2020-10-06T21:40:49.001Z</time>
      </trkpt>
      <trkpt lat="56.39847" lon="26.10648">
        <ele>91.808974</ele>
        <time>2020-10-06T21:41:13.494Z</time>
      </trkpt>
      <trkpt lat="56.3972" lon="26.10849">
        <ele>91.637892</ele>
        <time>2020-10-06T21:41:50.656Z</time>
      </trkpt>
      <trkpt lat="56.39678" lon="26.10921">
        <ele>91.479727</ele>
        <time>2020-10-06T21:42:03.332Z</time>
      </trkpt>
      <trkpt lat="56.39608" lon="26.11083">
        <ele>91.120769</ele>
        <time>2020-10-06T21:42:26.980Z</time>
      </trkpt>
      <trkpt lat="56.395" lon="26.1147">
        <ele>90.568287</ele>
        <time>2020-10-06T21:43:16.308Z</time>
      </trkpt>
      <trkpt lat="56.39437" lon="26.1162">
        <ele>90.820362</ele>
        <time>2020-10-06T21:43:43.515Z</time>
      </trkpt>
      <trkpt lat="56.39351" lon="26.11801">
        <ele>91.391947</ele>
        <time>2020-10-06T21:44:16.005Z</time>
      </trkpt>
      <trkpt lat="56.39242" lon="26.11998">
        <ele>92.07632</ele>
        <time>2020-10-06T21:44:49.261Z</time>
      </trkpt>
      <trkpt lat="56.39231" lon="26.1202">
        <ele>92.149166</ele>
        <time>2020-10-06T21:44:53.135Z</time>
      </trkpt>
      <trkpt lat="56.39089" lon="26.12333">
        <ele>95.352356</ele>
        <time>2020-10-06T21:45:59.068Z</time>
      </trkpt>
      <trkpt lat="56.39065" lon="26.1238">
        <ele>95.682308</ele>
        <time>2020-10-06T21:46:09.524Z</time>
      </trkpt>
      <trkpt lat="56.38996" lon="26.12513">
        <ele>96.473977</ele>
        <time>2020-10-06T21:46:36.317Z</time>
      </trkpt>
      <trkpt lat="56.38957" lon="26.12582">
        <ele>96.81202</ele>
        <time>2020-10-06T21:46:48.416Z</time>
      </trkpt>
      <trkpt lat="56.38864" lon="26.12718">
        <ele>95.873504</ele>
        <time>2020-10-06T21:47:11.623Z</time>
      </trkpt>
      <trkpt lat="56.38733" lon="26.12866">
        <ele>94.625497</ele>
        <time>2020-10-06T21:47:42.010Z</time>
      </trkpt>
      <trkpt lat="56.38579" lon="26.13023">
        <ele>92.764533</ele>
        <time>2020-10-06T21:48:16.952Z</time>
      </trkpt>
      <trkpt lat="56.38363" lon="26.1325">
        <ele>89.076643</ele>
        <time>2020-10-06T21:49:01.762Z</time>
      </trkpt>
      <trkpt lat="56.38334" lon="26.13281">
        <ele>88.788438</ele>
        <time>2020-10-06T21:49:08.229Z</time>
      </trkpt>
      <trkpt lat="56.37945" lon="26.13691">
        <ele>87.154435</ele>
        <time>2020-10-06T21:50:44.710Z</time>
      </trkpt>
      <trkpt lat="56.3788" lon="26.13745">
        <ele>86.883105</ele>
        <time>2020-10-06T21:50:59.212Z</time>
      </trkpt>
      <trkpt lat="56.37807" lon="26.13799">
        <ele>86.473229</ele>
        <time>2020-10-06T21:51:15.285Z</time>
      </trkpt>
      <trkpt lat="56.37773" lon="26.13823">
        <ele>86.289545</ele>
        <time>2020-10-06T21:51:22.517Z</time>
      </trkpt>
      <trkpt lat="56.37766" lon="26.13828">
        <ele>86.249197</ele>
        <time>2020-10-06T21:51:24.118Z</time>
      </trkpt>
      <trkpt lat="56.37683" lon="26.1387">
        <ele>85.983489</ele>
        <time>2020-10-06T21:51:42.249Z</time>
      </trkpt>
      <trkpt lat="56.37583" lon="26.13925">
        <ele>86.026615</ele>
        <time>2020-10-06T21:52:05.491Z</time>
      </trkpt>
      <trkpt lat="56.37364" lon="26.14052">
        <ele>86.661999</ele>
        <time>2020-10-06T21:53:00.041Z</time>
      </trkpt>
      <trkpt lat="56.36789" lon="26.14506">
        <ele>89.628725</ele>
        <time>2020-10-06T21:55:33.452Z</time>
      </trkpt>
      <trkpt lat="56.36562" lon="26.14675">
        <ele>89.730885</ele>
        <time>2020-10-06T21:56:25.189Z</time>
      </trkpt>
      <trkpt lat="56.36398" lon="26.14767">
        <ele>91.486239</ele>
        <time>2020-10-06T21:57:11.779Z</time>
      </trkpt>
      <trkpt lat="56.36211" lon="26.14896">
        <ele>93.837029</ele>
        <time>2020-10-06T21:58:09.543Z</time>
      </trkpt>
      <trkpt lat="56.35883" lon="26.15129">
        <ele>89.68017</ele>
        <time>2020-10-06T21:59:14.673Z</time>
      </trkpt>
      <trkpt lat="56.35869" lon="26.15139">
        <ele>89.474601</ele>
        <time>2020-10-06T21:59:17.489Z</time>
      </trkpt>
      <trkpt lat="56.35799" lon="26.15181">
        <ele>88.925895</ele>
        <time>2020-10-06T21:59:31.712Z</time>
      </trkpt>
      <trkpt lat="56.35743" lon="26.1519">
        <ele>88.507218</ele>
        <time>2020-10-06T21:59:43.068Z</time>
      </trkpt>
      <trkpt lat="56.35557" lon="26.15184">
        <ele>88.03067</ele>
        <time>2020-10-06T22:00:23.264Z</time>
      </trkpt>
      <trkpt lat="56.35544" lon="26.15187">
        <ele>88.019321</ele>
        <time>2020-10-06T22:00:26.351Z</time>
      </trkpt>
      <trkpt lat="56.35475" lon="26.15205">
        <ele>88.057338</ele>
        <time>2020-10-06T22:00:42.269Z</time>
      </trkpt>
      <trkpt lat="56.35229" lon="26.15295">
        <ele>88.403481</ele>
        <time>2020-10-06T22:01:39.989Z</time>
      </trkpt>
      <trkpt lat="56.34426" lon="26.15665">
        <ele>88.419013</ele>
        <time>2020-10-06T22:04:43.799Z</time>
      </trkpt>
      <trkpt lat="56.34204" lon="26.15789">
        <ele>88.999628</ele>
        <time>2020-10-06T22:05:38.239Z</time>
      </trkpt>
      <trkpt lat="56.33623" lon="26.16065">
        <ele>90.82397</ele>
        <time>2020-10-06T22:07:59.063Z</time>
      </trkpt>
      <trkpt lat="56.33543" lon="26.16076">
        <ele>91.134208</ele>
        <time>2020-10-06T22:08:18.335Z</time>
      </trkpt>
      <trkpt lat="56.33443" lon="26.16071">
        <ele>91.555519</ele>
        <time>2020-10-06T22:08:42.257Z</time>
      </trkpt>
      <trkpt lat="56.33283" lon="26.16058">
        <ele>92.413805</ele>
        <time>2020-10-06T22:09:21.646Z</time>
      </trkpt>
      <trkpt lat="56.33272" lon="26.16057">
        <ele>92.477645</ele>
        <time>2020-10-06T22:09:24.658Z</time>
      </trkpt>
      <trkpt lat="56.33065" lon="26.16022">
        <ele>93.410693</ele>
        <time>2020-10-06T22:10:15.069Z</time>
      </trkpt>
      <trkpt lat="56.32936" lon="26.15982">
        <ele>93.328905</ele>
        <time>2020-10-06T22:10:43.099Z</time>
      </trkpt>
      <trkpt lat="56.32298" lon="26.15743">
        <ele>93.069354</ele>
        <time>2020-10-06T22:13:07.131Z</time>
      </trkpt>
      <trkpt lat="56.32142" lon="26.15727">
        <ele>93.173031</ele>
        <time>2020-10-06T22:13:42.538Z</time>
      </trkpt>
      <trkpt lat="56.31931" lon="26.15732">
        <ele>93.394895</ele>
        <time>2020-10-06T22:14:30.229Z</time>
      </trkpt>
      <trkpt lat="56.31868" lon="26.15744">
        <ele>93.51354</ele>
        <time>2020-10-06T22:14:44.876Z</time>
      </trkpt>
      <trkpt lat="56.31647" lon="26.15837">
        <ele>93.898121</ele>
        <time>2020-10-06T22:15:37.309Z</time>
      </trkpt>
      <trkpt lat="56.315" lon="26.15906">
        <ele>93.69034</ele>
        <time>2020-10-06T22:16:10.194Z</time>
      </trkpt>
      <trkpt lat="56.31403" lon="26.15963">
        <ele>93.755288</ele>
        <time>2020-10-06T22:16:32.426Z</time>
      </trkpt>
      <trkpt lat="56.31302" lon="26.16064">
        <ele>93.955638</ele>
        <time>2020-10-06T22:16:59.646Z</time>
      </trkpt>
      <trkpt lat="56.31166" lon="26.16241">
        <ele>94.725365</ele>
        <time>2020-10-06T22:17:40.852Z</time>
      </trkpt>
      <trkpt lat="56.30684" lon="26.16823">
        <ele>94.491963</ele>
        <time>2020-10-06T22:19:47.687Z</time>
      </trkpt>
      <trkpt lat="56.30616" lon="26.16902">
        <ele>94.776189</ele>
        <time>2020-10-06T22:20:07.090Z</time>
      </trkpt>
      <trkpt lat="56.30449" lon="26.17023">
        <ele>95.400875</ele>
        <time>2020-10-06T22:20:51.611Z</time>
      </trkpt>
      <trkpt lat="56.30402" lon="26.17036">
        <ele>95.565411</ele>
        <time>2020-10-06T22:21:02.562Z</time>
      </trkpt>
      <trkpt lat="56.30237" lon="26.17094">
        <ele>94.982006</ele>
        <time>2020-10-06T22:21:37.683Z</time>
      </trkpt>
      <trkpt lat="56.30074" lon="26.17151">
        <ele>93.918076</ele>
        <time>2020-10-06T22:22:10.640Z</time>
      </trkpt>
      <trkpt lat="56.29863" lon="26.17214">
        <ele>92.985638</ele>
        <time>2020-10-06T22:22:53.770Z</time>
      </trkpt>
      <trkpt lat="56.29635" lon="26.17296">
        <ele>95.038218</ele>
        <time>2020-10-06T22:23:56.945Z</time>
      </trkpt>
      <trkpt lat="56.29559" lon="26.1733">
        <ele>95.52171</ele>
        <time>2020-10-06T22:24:17.464Z</time>
      </trkpt>
      <trkpt lat="56.29149" lon="26.17573">
        <ele>94.604187</ele>
        <time>2020-10-06T22:25:48.941Z</time>
      </trkpt>
      <trkpt lat="56.28633" lon="26.17759">
        <ele>89.763093</ele>
        <time>2020-10-06T22:27:30.691Z</time>
      </trkpt>
      <trkpt lat="56.28625" lon="26.17762">
        <ele>89.749687</ele>
        <time>2020-10-06T22:27:32.446Z</time>
      </trkpt>
      <trkpt lat="56.2818" lon="26.1792">
        <ele>89.148979</ele>
        <time>2020-10-06T22:29:12.147Z</time>
      </trkpt>
      <trkpt lat="56.28078" lon="26.18003">
        <ele>89.000206</ele>
        <time>2020-10-06T22:29:36.396Z</time>
      </trkpt>
      <trkpt lat="56.27998" lon="26.18107">
        <ele>88.833037</ele>
        <time>2020-10-06T22:29:57.407Z</time>
      </trkpt>
      <trkpt lat="56.27786" lon="26.18637">
        <ele>88.484428</ele>
        <time>2020-10-06T22:31:17.023Z</time>
      </trkpt>
      <trkpt lat="56.27753" lon="26.18723">
        <ele>88.441309</ele>
        <time>2020-10-06T22:31:30.258Z</time>
      </trkpt>
      <trkpt lat="56.27712" lon="26.18802">
        <ele>88.34677</ele>
        <time>2020-10-06T22:31:43.505Z</time>
      </trkpt>
      <trkpt lat="56.27679" lon="26.1885">
        <ele>88.279863</ele>
        <time>2020-10-06T22:31:52.774Z</time>
      </trkpt>
      <trkpt lat="56.27579" lon="26.18945">
        <ele>88.113827</ele>
        <time>2020-10-06T22:32:16.396Z</time>
      </trkpt>
      <trkpt lat="56.27488" lon="26.1902">
        <ele>87.980434</ele>
        <time>2020-10-06T22:32:38.106Z</time>
      </trkpt>
      <trkpt lat="56.2742" lon="26.19073">
        <ele>88.091078</ele>
        <time>2020-10-06T22:32:55.427Z</time>
      </trkpt>
      <trkpt lat="56.27279" lon="26.19147">
        <ele>88.562936</ele>
        <time>2020-10-06T22:33:31.130Z</time>
      </trkpt>
      <trkpt lat="56.27025" lon="26.19242">
        <ele>88.463249</ele>
        <time>2020-10-06T22:34:28.268Z</time>
      </trkpt>
      <trkpt lat="56.26911" lon="26.19249">
        <ele>88.219667</ele>
        <time>2020-10-06T22:34:52.124Z</time>
      </trkpt>
      <trkpt lat="56.26708" lon="26.19216">
        <ele>87.737071</ele>
        <time>2020-10-06T22:35:35.436Z</time>
      </trkpt>
      <trkpt lat="56.2662" lon="26.19148">
        <ele>87.698233</ele>
        <time>2020-10-06T22:35:56.633Z</time>
      </trkpt>
      <trkpt lat="56.26306" lon="26.18804">
        <ele>88.302119</ele>
        <time>2020-10-06T22:37:21.502Z</time>
      </trkpt>
      <trkpt lat="56.26187" lon="26.18633">
        <ele>88.665139</ele>
        <time>2020-10-06T22:37:56.852Z</time>
      </trkpt>
      <trkpt lat="56.25729" lon="26.17889">
        <ele>90.795677</ele>
        <time>2020-10-06T22:40:22.974Z</time>
      </trkpt>
      <trkpt lat="56.25668" lon="26.17816">
        <ele>91.077369</ele>
        <time>2020-10-06T22:40:40.198Z</time>
      </trkpt>
      <trkpt lat="56.25531" lon="26.1773">
        <ele>91.641155</ele>
        <time>2020-10-06T22:41:15.120Z</time>
      </trkpt>
      <trkpt lat="56.25398" lon="26.17671">
        <ele>92.13204</ele>
        <time>2020-10-06T22:41:47.682Z</time>
      </trkpt>
      <trkpt lat="56.25098" lon="26.17582">
        <ele>92.794195</ele>
        <time>2020-10-06T22:42:57.020Z</time>
      </trkpt>
      <trkpt lat="56.24834" lon="26.17502">
        <ele>94.358926</ele>
        <time>2020-10-06T22:44:03.709Z</time>
      </trkpt>
      <trkpt lat="56.24793" lon="26.17471">
        <ele>94.622125</ele>
        <time>2020-10-06T22:44:15.134Z</time>
      </trkpt>
      <trkpt lat="56.24773" lon="26.17456">
        <ele>94.751983</ele>
        <time>2020-10-06T22:44:20.856Z</time>
      </trkpt>
      <trkpt lat="56.24632" lon="26.17316">
        <ele>95.014268</ele>
        <time>2020-10-06T22:44:58.869Z</time>
      </trkpt>
      <trkpt lat="56.24458" lon="26.17202">
        <ele>94.045818</ele>
        <time>2020-10-06T22:45:36.109Z</time>
      </trkpt>
      <trkpt lat="56.24402" lon="26.17162">
        <ele>93.535889</ele>
        <time>2020-10-06T22:45:47.715Z</time>
      </trkpt>
      <trkpt lat="56.24334" lon="26.17117">
        <ele>92.730952</ele>
        <time>2020-10-06T22:46:01.530Z</time>
      </trkpt>
      <trkpt lat="56.24262" lon="26.17085">
        <ele>91.852146</ele>
        <time>2020-10-06T22:46:15.441Z</time>
      </trkpt>
      <trkpt lat="56.24198" lon="26.17069">
        <ele>91.137144</ele>
        <time>2020-10-06T22:46:27.451Z</time>
      </trkpt>
      <trkpt lat="56.24079" lon="26.17065">
        <ele>90.172566</ele>
        <time>2020-10-06T22:46:50.506Z</time>
      </trkpt>
      <trkpt lat="56.24023" lon="26.17084">
        <ele>89.864011</ele>
        <time>2020-10-06T22:47:02.370Z</time>
      </trkpt>
      <trkpt lat="56.2344" lon="26.17314">
        <ele>93.55857</ele>
        <time>2020-10-06T22:49:32.137Z</time>
      </trkpt>
      <trkpt lat="56.23207" lon="26.17482">
        <ele>94.105051</ele>
        <time>2020-10-06T22:50:29.819Z</time>
      </trkpt>
      <trkpt lat="56.23022" lon="26.17641">
        <ele>94.159702</ele>
        <time>2020-10-06T22:51:14.556Z</time>
      </trkpt>
      <trkpt lat="56.22368" lon="26.18632">
        <ele>98.004116</ele>
        <time>2020-10-06T22:54:41.428Z</time>
      </trkpt>
      <trkpt lat="56.22194" lon="26.18958">
        <ele>98.906938</ele>
        <time>2020-10-06T22:55:41.912Z</time>
      </trkpt>
      <trkpt lat="56.22011" lon="26.19391">
        <ele>96.756443</ele>
        <time>2020-10-06T22:56:43.276Z</time>
      </trkpt>
      <trkpt lat="56.21852" lon="26.20062">
        <ele>89.119852</ele>
        <time>2020-10-06T22:57:54.687Z</time>
      </trkpt>
      <trkpt lat="56.21839" lon="26.20133">
        <ele>88.614419</ele>
        <time>2020-10-06T22:58:02.121Z</time>
      </trkpt>
      <trkpt lat="56.21799" lon="26.20406">
        <ele>86.853215</ele>
        <time>2020-10-06T22:58:32.352Z</time>
      </trkpt>
      <trkpt lat="56.2177" lon="26.20695">
        <ele>86.296516</ele>
        <time>2020-10-06T22:59:07.379Z</time>
      </trkpt>
      <trkpt lat="56.21712" lon="26.21314">
        <ele>86.75536</ele>
        <time>2020-10-06T23:00:27.271Z</time>
      </trkpt>
      <trkpt lat="56.21661" lon="26.21791">
        <ele>86.723173</ele>
        <time>2020-10-06T23:01:27.600Z</time>
      </trkpt>
      <trkpt lat="56.21606" lon="26.22305">
        <ele>86.379639</ele>
        <time>2020-10-06T23:02:30.790Z</time>
      </trkpt>
      <trkpt lat="56.21581" lon="26.22496">
        <ele>86.50902</ele>
        <time>2020-10-06T23:02:55.492Z</time>
      </trkpt>
      <trkpt lat="56.215" lon="26.22831">
        <ele>87.015922</ele>
        <time>2020-10-06T23:03:43.244Z</time>
      </trkpt>
      <trkpt lat="56.21385" lon="26.23202">
        <ele>87.661369</ele>
        <time>2020-10-06T23:04:39.183Z</time>
      </trkpt>
      <trkpt lat="56.21063" lon="26.24172">
        <ele>87.35618</ele>
        <time>2020-10-06T23:06:57.128Z</time>
      </trkpt>
      <trkpt lat="56.20467" lon="26.26052">
        <ele>87.915203</ele>
        <time>2020-10-06T23:11:28.329Z</time>
      </trkpt>
      <trkpt lat="56.20313" lon="26.26356">
        <ele>88.027885</ele>
        <time>2020-10-06T23:12:19.896Z</time>
      </trkpt>
      <trkpt lat="56.20112" lon="26.26666">
        <ele>88.05304</ele>
        <time>2020-10-06T23:13:18.257Z</time>
      </trkpt>
      <trkpt lat="56.19895" lon="26.26887">
        <ele>89.272202</ele>
        <time>2020-10-06T23:14:18.765Z</time>
      </trkpt>
      <trkpt lat="56.19603" lon="26.27058">
        <ele>90.803108</ele>
        <time>2020-10-06T23:15:35.482Z</time>
      </trkpt>
      <trkpt lat="56.19128" lon="26.27307">
        <ele>87.708753</ele>
        <time>2020-10-06T23:17:13.861Z</time>
      </trkpt>
      <trkpt lat="56.19058" lon="26.27351">
        <ele>87.72603</ele>
        <time>2020-10-06T23:17:30.123Z</time>
      </trkpt>
      <trkpt lat="56.18868" lon="26.27512">
        <ele>88.366673</ele>
        <time>2020-10-06T23:18:21.304Z</time>
      </trkpt>
      <trkpt lat="56.18685" lon="26.27739">
        <ele>88.861761</ele>
        <time>2020-10-06T23:19:12.947Z</time>
      </trkpt>
      <trkpt lat="56.18176" lon="26.28485">
        <ele>88.36759</ele>
        <time>2020-10-06T23:21:36.051Z</time>
      </trkpt>
      <trkpt lat="56.18065" lon="26.28737">
        <ele>88.40348</ele>
        <time>2020-10-06T23:22:18.099Z</time>
      </trkpt>
      <trkpt lat="56.17851" lon="26.29362">
        <ele>87.585984</ele>
        <time>2020-10-06T23:23:45.130Z</time>
      </trkpt>
      <trkpt lat="56.17606" lon="26.29924">
        <ele>86.535837</ele>
        <time>2020-10-06T23:25:09.611Z</time>
      </trkpt>
      <trkpt lat="56.17288" lon="26.30533">
        <ele>86.938532</ele>
        <time>2020-10-06T23:26:55.188Z</time>
      </trkpt>
      <trkpt lat="56.17084" lon="26.30813">
        <ele>87.336615</ele>
        <time>2020-10-06T23:27:54.215Z</time>
      </trkpt>
      <trkpt lat="56.16769" lon="26.31094">
        <ele>87.4</ele>
        <time>2020-10-06T23:29:12.783Z</time>
      </trkpt>
      <trkpt lat="56.16578" lon="26.31265">
        <ele>87.388981</ele>
        <time>2020-10-06T23:30:00.225Z</time>
      </trkpt>
      <trkpt lat="56.16397" lon="26.31458">
        <ele>87.195606</ele>
        <time>2020-10-06T23:30:46.554Z</time>
      </trkpt>
      <trkpt lat="56.16353" lon="26.31476">
        <ele>87.075699</ele>
        <time>2020-10-06T23:30:55.913Z</time>
      </trkpt>
      <trkpt lat="56.16279" lon="26.31472">
        <ele>86.875173</ele>
        <time>2020-10-06T23:31:11.617Z</time>
      </trkpt>
      <trkpt lat="56.16255" lon="26.31485">
        <ele>86.808876</ele>
        <time>2020-10-06T23:31:16.815Z</time>
      </trkpt>
      <trkpt lat="56.16232" lon="26.31548">
        <ele>86.698243</ele>
        <time>2020-10-06T23:31:25.625Z</time>
      </trkpt>
      <trkpt lat="56.16217" lon="26.31638">
        <ele>86.559499</ele>
        <time>2020-10-06T23:31:36.809Z</time>
      </trkpt>
      <trkpt lat="56.16194" lon="26.31699">
        <ele>86.451527</ele>
        <time>2020-10-06T23:31:45.545Z</time>
      </trkpt>
      <trkpt lat="56.16163" lon="26.31747">
        <ele>86.34283</ele>
        <time>2020-10-06T23:31:54.353Z</time>
      </trkpt>
      <trkpt lat="56.15905" lon="26.32018">
        <ele>86.043855</ele>
        <time>2020-10-06T23:32:59.951Z</time>
      </trkpt>
      <trkpt lat="56.14988" lon="26.32947">
        <ele>86.096334</ele>
        <time>2020-10-06T23:36:54.630Z</time>
      </trkpt>
      <trkpt lat="56.1486" lon="26.33069">
        <ele>86.33024</ele>
        <time>2020-10-06T23:37:27.956Z</time>
      </trkpt>
      <trkpt lat="56.14781" lon="26.33126">
        <ele>86.548133</ele>
        <time>2020-10-06T23:37:47.769Z</time>
      </trkpt>
      <trkpt lat="56.14496" lon="26.33283">
        <ele>87.028377</ele>
        <time>2020-10-06T23:38:56.276Z</time>
      </trkpt>
      <trkpt lat="56.14398" lon="26.33329">
        <ele>87.097065</ele>
        <time>2020-10-06T23:39:18.897Z</time>
      </trkpt>
      <trkpt lat="56.14318" lon="26.33347">
        <ele>87.276629</ele>
        <time>2020-10-06T23:39:37.095Z</time>
      </trkpt>
      <trkpt lat="56.1423" lon="26.33355">
        <ele>87.488298</ele>
        <time>2020-10-06T23:39:57.562Z</time>
      </trkpt>
      <trkpt lat="56.14138" lon="26.33348">
        <ele>87.988446</ele>
        <time>2020-10-06T23:40:20.105Z</time>
      </trkpt>
      <trkpt lat="56.14077" lon="26.33333">
        <ele>88.373273</ele>
        <time>2020-10-06T23:40:35.639Z</time>
      </trkpt>
      <trkpt lat="56.14006" lon="26.33309">
        <ele>88.767635</ele>
        <time>2020-10-06T23:40:53.900Z</time>
      </trkpt>
      <trkpt lat="56.13921" lon="26.33258">
        <ele>89.129285</ele>
        <time>2020-10-06T23:41:15.846Z</time>
      </trkpt>
      <trkpt lat="56.13517" lon="26.32999">
        <ele>89.29134</ele>
        <time>2020-10-06T23:42:51.289Z</time>
      </trkpt>
      <trkpt lat="56.13414" lon="26.3296">
        <ele>88.997631</ele>
        <time>2020-10-06T23:43:13.292Z</time>
      </trkpt>
      <trkpt lat="56.12928" lon="26.32814">
        <ele>88.284577</ele>
        <time>2020-10-06T23:45:00.283Z</time>
      </trkpt>
      <trkpt lat="56.12816" lon="26.32756">
        <ele>88.264764</ele>
        <time>2020-10-06T23:45:26.856Z</time>
      </trkpt>
      <trkpt lat="56.12672" lon="26.32692">
        <ele>88.010398</ele>
        <time>2020-10-06T23:45:59.319Z</time>
      </trkpt>
      <trkpt lat="56.12573" lon="26.32702">
        <ele>87.448843</ele>
        <time>2020-10-06T23:46:19.525Z</time>
      </trkpt>
      <trkpt lat="56.12363" lon="26.32797">
        <ele>85.919196</ele>
        <time>2020-10-06T23:47:01.947Z</time>
      </trkpt>
      <trkpt lat="56.12247" lon="26.32826">
        <ele>85.441533</ele>
        <time>2020-10-06T23:47:26.320Z</time>
      </trkpt>
      <trkpt lat="56.10468" lon="26.32749">
        <ele>86.661903</ele>
        <time>2020-10-06T23:54:08.206Z</time>
      </trkpt>
      <trkpt lat="56.10307" lon="26.32732">
        <ele>87.116917</ele>
        <time>2020-10-06T23:54:45.693Z</time>
      </trkpt>
      <trkpt lat="56.10242" lon="26.32705">
        <ele>87.862432</ele>
        <time>2020-10-06T23:55:02.183Z</time>
      </trkpt>
      <trkpt lat="56.10163" lon="26.32623">
        <ele>88.889647</ele>
        <time>2020-10-06T23:55:26.900Z</time>
      </trkpt>
      <trkpt lat="56.09855" lon="26.32251">
        <ele>97.300617</ele>
        <time>2020-10-06T23:57:24.833Z</time>
      </trkpt>
      <trkpt lat="56.09742" lon="26.32168">
        <ele>99.603198</ele>
        <time>2020-10-06T23:58:03.776Z</time>
      </trkpt>
      <trkpt lat="56.09585" lon="26.31987">
        <ele>101.506742</ele>
        <time>2020-10-06T23:58:52.505Z</time>
      </trkpt>
      <trkpt lat="56.09489" lon="26.31817">
        <ele>101.902361</ele>
        <time>2020-10-06T23:59:21.224Z</time>
      </trkpt>
      <trkpt lat="56.09453" lon="26.31634">
        <ele>102.045323</ele>
        <time>2020-10-06T23:59:45.771Z</time>
      </trkpt>
      <trkpt lat="56.09426" lon="26.3144">
        <ele>103.153966</ele>
        <time>2020-10-07T00:00:15.656Z</time>
      </trkpt>
      <trkpt lat="56.09421" lon="26.31403">
        <ele>103.363894</ele>
        <time>2020-10-07T00:00:21.858Z</time>
      </trkpt>
      <trkpt lat="56.09373" lon="26.31297">
        <ele>103.893732</ele>
        <time>2020-10-07T00:00:42.211Z</time>
      </trkpt>
      <trkpt lat="56.09313" lon="26.31243">
        <ele>104.141616</ele>
        <time>2020-10-07T00:00:59.178Z</time>
      </trkpt>
      <trkpt lat="56.0924" lon="26.31235">
        <ele>104.411911</ele>
        <time>2020-10-07T00:01:14.716Z</time>
      </trkpt>
      <trkpt lat="56.09176" lon="26.31251">
        <ele>104.156452</ele>
        <time>2020-10-07T00:01:27.982Z</time>
      </trkpt>
      <trkpt lat="56.09152" lon="26.31242">
        <ele>104.04786</ele>
        <time>2020-10-07T00:01:32.864Z</time>
      </trkpt>
      <trkpt lat="56.09102" lon="26.31184">
        <ele>103.776871</ele>
        <time>2020-10-07T00:01:45.150Z</time>
      </trkpt>
      <trkpt lat="56.09047" lon="26.31036">
        <ele>103.599967</ele>
        <time>2020-10-07T00:02:06.382Z</time>
      </trkpt>
      <trkpt lat="56.09009" lon="26.30816">
        <ele>103.582165</ele>
        <time>2020-10-07T00:02:35.698Z</time>
      </trkpt>
      <trkpt lat="56.08983" lon="26.30572">
        <ele>103.754616</ele>
        <time>2020-10-07T00:03:07.088Z</time>
      </trkpt>
      <trkpt lat="56.0897" lon="26.30359">
        <ele>104.105124</ele>
        <time>2020-10-07T00:03:34.958Z</time>
      </trkpt>
      <trkpt lat="56.0894" lon="26.30163">
        <ele>104.529958</ele>
        <time>2020-10-07T00:04:02.285Z</time>
      </trkpt>
      <trkpt lat="56.08889" lon="26.29976">
        <ele>105.096718</ele>
        <time>2020-10-07T00:04:30.731Z</time>
      </trkpt>
      <trkpt lat="56.08805" lon="26.2977">
        <ele>105.750975</ele>
        <time>2020-10-07T00:05:04.358Z</time>
      </trkpt>
      <trkpt lat="56.08759" lon="26.29619">
        <ele>106.305453</ele>
        <time>2020-10-07T00:05:27.775Z</time>
      </trkpt>
      <trkpt lat="56.08523" lon="26.29067">
        <ele>110.858692</ele>
        <time>2020-10-07T00:07:12.812Z</time>
      </trkpt>
      <trkpt lat="56.08491" lon="26.29022">
        <ele>111.388079</ele>
        <time>2020-10-07T00:07:24.325Z</time>
      </trkpt>
      <trkpt lat="56.08484" lon="26.29016">
        <ele>111.492773</ele>
        <time>2020-10-07T00:07:27.031Z</time>
      </trkpt>
      <trkpt lat="56.08424" lon="26.28964">
        <ele>112.366625</ele>
        <time>2020-10-07T00:07:45.634Z</time>
      </trkpt>
      <trkpt lat="56.08294" lon="26.2875">
        <ele>113.790753</ele>
        <time>2020-10-07T00:08:30.993Z</time>
      </trkpt>
      <trkpt lat="56.08212" lon="26.28372">
        <ele>113.687587</ele>
        <time>2020-10-07T00:09:20.764Z</time>
      </trkpt>
      <trkpt lat="56.08173" lon="26.28269">
        <ele>113.154315</ele>
        <time>2020-10-07T00:09:35.214Z</time>
      </trkpt>
      <trkpt lat="56.08094" lon="26.28111">
        <ele>111.705012</ele>
        <time>2020-10-07T00:09:57.769Z</time>
      </trkpt>
      <trkpt lat="56.08061" lon="26.27987">
        <ele>109.876414</ele>
        <time>2020-10-07T00:10:11.115Z</time>
      </trkpt>
      <trkpt lat="56.08004" lon="26.27674">
        <ele>104.578338</ele>
        <time>2020-10-07T00:10:41.043Z</time>
      </trkpt>
      <trkpt lat="56.07981" lon="26.27619">
        <ele>103.351517</ele>
        <time>2020-10-07T00:10:47.292Z</time>
      </trkpt>
      <trkpt lat="56.07944" lon="26.27574">
        <ele>102.068727</ele>
        <time>2020-10-07T00:10:54.505Z</time>
      </trkpt>
      <trkpt lat="56.07677" lon="26.27469">
        <ele>96.083767</ele>
        <time>2020-10-07T00:11:41.623Z</time>
      </trkpt>
      <trkpt lat="56.07635" lon="26.27462">
        <ele>95.33041</ele>
        <time>2020-10-07T00:11:49.534Z</time>
      </trkpt>
      <trkpt lat="56.07496" lon="26.27526">
        <ele>94.54999</ele>
        <time>2020-10-07T00:12:18.732Z</time>
      </trkpt>
      <trkpt lat="56.0656" lon="26.2811">
        <ele>98.060217</ele>
        <time>2020-10-07T00:16:15.827Z</time>
      </trkpt>
      <trkpt lat="56.06368" lon="26.28225">
        <ele>97.913532</ele>
        <time>2020-10-07T00:17:00.858Z</time>
      </trkpt>
      <trkpt lat="56.06286" lon="26.28288">
        <ele>97.461069</ele>
        <time>2020-10-07T00:17:19.089Z</time>
      </trkpt>
      <trkpt lat="56.0616" lon="26.28362">
        <ele>96.6152</ele>
        <time>2020-10-07T00:17:45.042Z</time>
      </trkpt>
      <trkpt lat="56.06112" lon="26.28393">
        <ele>96.262865</ele>
        <time>2020-10-07T00:17:55.070Z</time>
      </trkpt>
      <trkpt lat="56.06029" lon="26.28439">
        <ele>96.04919</ele>
        <time>2020-10-07T00:18:13.290Z</time>
      </trkpt>
      <trkpt lat="56.06006" lon="26.28438">
        <ele>96.065327</ele>
        <time>2020-10-07T00:18:18.280Z</time>
      </trkpt>
      <trkpt lat="56.05919" lon="26.28403">
        <ele>96.12781</ele>
        <time>2020-10-07T00:18:39.319Z</time>
      </trkpt>
      <trkpt lat="56.05866" lon="26.28383">
        <ele>96.198373</ele>
        <time>2020-10-07T00:18:52.617Z</time>
      </trkpt>
      <trkpt lat="56.0583" lon="26.28357">
        <ele>96.258488</ele>
        <time>2020-10-07T00:19:02.183Z</time>
      </trkpt>
      <trkpt lat="56.05813" lon="26.28337">
        <ele>96.289737</ele>
        <time>2020-10-07T00:19:07.039Z</time>
      </trkpt>
      <trkpt lat="56.05787" lon="26.28269">
        <ele>96.361914</ele>
        <time>2020-10-07T00:19:17.926Z</time>
      </trkpt>
      <trkpt lat="56.05774" lon="26.28258">
        <ele>96.384321</ele>
        <time>2020-10-07T00:19:21.268Z</time>
      </trkpt>
      <trkpt lat="56.05503" lon="26.28304">
        <ele>93.632853</ele>
        <time>2020-10-07T00:20:13.763Z</time>
      </trkpt>
      <trkpt lat="56.05453" lon="26.28309">
        <ele>92.878588</ele>
        <time>2020-10-07T00:20:22.261Z</time>
      </trkpt>
      <trkpt lat="56.05323" lon="26.28311">
        <ele>91.53001</ele>
        <time>2020-10-07T00:20:46.213Z</time>
      </trkpt>
      <trkpt lat="56.0528" lon="26.2831">
        <ele>91.268575</ele>
        <time>2020-10-07T00:20:55.275Z</time>
      </trkpt>
      <trkpt lat="56.05226" lon="26.28311">
        <ele>90.941023</ele>
        <time>2020-10-07T00:21:07.510Z</time>
      </trkpt>
      <trkpt lat="56.05124" lon="26.28328">
        <ele>90.755236</ele>
        <time>2020-10-07T00:21:31.767Z</time>
      </trkpt>
      <trkpt lat="56.04968" lon="26.28399">
        <ele>90.002451</ele>
        <time>2020-10-07T00:22:04.860Z</time>
      </trkpt>
      <trkpt lat="56.04923" lon="26.28409">
        <ele>89.600639</ele>
        <time>2020-10-07T00:22:13.318Z</time>
      </trkpt>
      <trkpt lat="56.04882" lon="26.28399">
        <ele>89.230178</ele>
        <time>2020-10-07T00:22:21.123Z</time>
      </trkpt>
      <trkpt lat="56.04821" lon="26.28349">
        <ele>88.696221</ele>
        <time>2020-10-07T00:22:33.943Z</time>
      </trkpt>
      <trkpt lat="56.04797" lon="26.28312">
        <ele>88.459792</ele>
        <time>2020-10-07T00:22:40.062Z</time>
      </trkpt>
      <trkpt lat="56.04705" lon="26.28107">
        <ele>87.872352</ele>
        <time>2020-10-07T00:23:10.329Z</time>
      </trkpt>
      <trkpt lat="56.04655" lon="26.28014">
        <ele>88.165551</ele>
        <time>2020-10-07T00:23:27.298Z</time>
      </trkpt>
      <trkpt lat="56.04626" lon="26.27973">
        <ele>88.320553</ele>
        <time>2020-10-07T00:23:36.929Z</time>
      </trkpt>
      <trkpt lat="56.04568" lon="26.27933">
        <ele>89.087427</ele>
        <time>2020-10-07T00:23:53.882Z</time>
      </trkpt>
      <trkpt lat="56.04523" lon="26.27919">
        <ele>89.948748</ele>
        <time>2020-10-07T00:24:07.074Z</time>
      </trkpt>
      <trkpt lat="56.04037" lon="26.27793">
        <ele>98.412823</ele>
        <time>2020-10-07T00:26:36.157Z</time>
      </trkpt>
      <trkpt lat="56.02908" lon="26.27503">
        <ele>93.034586</ele>
        <time>2020-10-07T00:30:25.361Z</time>
      </trkpt>
      <trkpt lat="56.02241" lon="26.27342">
        <ele>107.237016</ele>
        <time>2020-10-07T00:33:56.676Z</time>
      </trkpt>
      <trkpt lat="56.02102" lon="26.27309">
        <ele>110.751249</ele>
        <time>2020-10-07T00:34:43.364Z</time>
      </trkpt>
      <trkpt lat="56.01966" lon="26.27273">
        <ele>113.579859</ele>
        <time>2020-10-07T00:35:26.008Z</time>
      </trkpt>
      <trkpt lat="56.01163" lon="26.27063">
        <ele>124.709982</ele>
        <time>2020-10-07T00:39:10.187Z</time>
      </trkpt>
      <trkpt lat="56.01052" lon="26.27036">
        <ele>126.04174</ele>
        <time>2020-10-07T00:39:40.287Z</time>
      </trkpt>
      <trkpt lat="56.01037" lon="26.27015">
        <ele>126.240896</ele>
        <time>2020-10-07T00:39:45.570Z</time>
      </trkpt>
      <trkpt lat="56.00956" lon="26.27079">
        <ele>126.886058</ele>
        <time>2020-10-07T00:40:07.920Z</time>
      </trkpt>
      <trkpt lat="56.00899" lon="26.27131">
        <ele>127.356979</ele>
        <time>2020-10-07T00:40:23.874Z</time>
      </trkpt>
      <trkpt lat="56.00495" lon="26.27422">
        <ele>129.088334</ele>
        <time>2020-10-07T00:42:06.742Z</time>
      </trkpt>
      <trkpt lat="56.00384" lon="26.27624">
        <ele>130.228657</ele>
        <time>2020-10-07T00:42:46.968Z</time>
      </trkpt>
      <trkpt lat="56.00157" lon="26.27905">
        <ele>133.072705</ele>
        <time>2020-10-07T00:44:00.615Z</time>
      </trkpt>
      <trkpt lat="56.00103" lon="26.27972">
        <ele>133.638103</ele>
        <time>2020-10-07T00:44:17.728Z</time>
      </trkpt>
      <trkpt lat="56.00043" lon="26.28112">
        <ele>134.002244</ele>
        <time>2020-10-07T00:44:41.700Z</time>
      </trkpt>
      <trkpt lat="55.99991" lon="26.28231">
        <ele>134.099159</ele>
        <time>2020-10-07T00:45:00.657Z</time>
      </trkpt>
      <trkpt lat="55.9998" lon="26.28256">
        <ele>133.974913</ele>
        <time>2020-10-07T00:45:04.527Z</time>
      </trkpt>
      <trkpt lat="55.9992" lon="26.28365">
        <ele>133.391756</ele>
        <time>2020-10-07T00:45:21.666Z</time>
      </trkpt>
      <trkpt lat="55.9987" lon="26.28435">
        <ele>132.904839</ele>
        <time>2020-10-07T00:45:33.745Z</time>
      </trkpt>
      <trkpt lat="55.99782" lon="26.28516">
        <ele>131.470481</ele>
        <time>2020-10-07T00:45:52.103Z</time>
      </trkpt>
      <trkpt lat="55.99613" lon="26.28652">
        <ele>128.712445</ele>
        <time>2020-10-07T00:46:25.710Z</time>
      </trkpt>
      <trkpt lat="55.99547" lon="26.28713">
        <ele>127.602198</ele>
        <time>2020-10-07T00:46:39.597Z</time>
      </trkpt>
      <trkpt lat="55.99511" lon="26.2874">
        <ele>127.152292</ele>
        <time>2020-10-07T00:46:46.907Z</time>
      </trkpt>
      <trkpt lat="55.99265" lon="26.28801">
        <ele>124.08485</ele>
        <time>2020-10-07T00:47:34.360Z</time>
      </trkpt>
      <trkpt lat="55.99076" lon="26.28903">
        <ele>121.428205</ele>
        <time>2020-10-07T00:48:10.173Z</time>
      </trkpt>
      <trkpt lat="55.99047" lon="26.28919">
        <ele>121.010432</ele>
        <time>2020-10-07T00:48:15.899Z</time>
      </trkpt>
      <trkpt lat="55.98759" lon="26.29026">
        <ele>119.194223</ele>
        <time>2020-10-07T00:49:16.893Z</time>
      </trkpt>
      <trkpt lat="55.98711" lon="26.29038">
        <ele>118.880486</ele>
        <time>2020-10-07T00:49:26.569Z</time>
      </trkpt>
      <trkpt lat="55.98673" lon="26.29027">
        <ele>118.616151</ele>
        <time>2020-10-07T00:49:34.116Z</time>
      </trkpt>
      <trkpt lat="55.98524" lon="26.28944">
        <ele>116.903875</ele>
        <time>2020-10-07T00:50:03.812Z</time>
      </trkpt>
      <trkpt lat="55.98476" lon="26.28926">
        <ele>116.195094</ele>
        <time>2020-10-07T00:50:13.333Z</time>
      </trkpt>
      <trkpt lat="55.98319" lon="26.28871">
        <ele>113.352406</ele>
        <time>2020-10-07T00:50:42.134Z</time>
      </trkpt>
      <trkpt lat="55.98304" lon="26.28893">
        <ele>112.803031</ele>
        <time>2020-10-07T00:50:45.287Z</time>
      </trkpt>
      <trkpt lat="55.98211" lon="26.29029">
        <ele>109.303781</ele>
        <time>2020-10-07T00:51:05.133Z</time>
      </trkpt>
      <trkpt lat="55.9803" lon="26.2931">
        <ele>102.415038</ele>
        <time>2020-10-07T00:51:44.344Z</time>
      </trkpt>
      <trkpt lat="55.97916" lon="26.29485">
        <ele>99.896567</ele>
        <time>2020-10-07T00:52:12.494Z</time>
      </trkpt>
      <trkpt lat="55.97843" lon="26.29597">
        <ele>98.660413</ele>
        <time>2020-10-07T00:52:31.122Z</time>
      </trkpt>
      <trkpt lat="55.9782" lon="26.29644">
        <ele>98.210796</ele>
        <time>2020-10-07T00:52:37.674Z</time>
      </trkpt>
      <trkpt lat="55.97809" lon="26.29677">
        <ele>97.940096</ele>
        <time>2020-10-07T00:52:41.512Z</time>
      </trkpt>
      <trkpt lat="55.97806" lon="26.29692">
        <ele>97.824634</ele>
        <time>2020-10-07T00:52:43.208Z</time>
      </trkpt>
      <trkpt lat="55.97779" lon="26.29796">
        <ele>97.111507</ele>
        <time>2020-10-07T00:52:54.700Z</time>
      </trkpt>
      <trkpt lat="55.97741" lon="26.29987">
        <ele>95.940395</ele>
        <time>2020-10-07T00:53:16.476Z</time>
      </trkpt>
      <trkpt lat="55.97731" lon="26.3001">
        <ele>95.77605</ele>
        <time>2020-10-07T00:53:20.140Z</time>
      </trkpt>
      <trkpt lat="55.97715" lon="26.30044">
        <ele>95.776664</ele>
        <time>2020-10-07T00:53:25.501Z</time>
      </trkpt>
      <trkpt lat="55.97696" lon="26.30074">
        <ele>95.863654</ele>
        <time>2020-10-07T00:53:31.430Z</time>
      </trkpt>
      <trkpt lat="55.97658" lon="26.30142">
        <ele>96.04819</ele>
        <time>2020-10-07T00:53:44.400Z</time>
      </trkpt>
      <trkpt lat="55.97611" lon="26.30247">
        <ele>96.308159</ele>
        <time>2020-10-07T00:54:03.473Z</time>
      </trkpt>
      <trkpt lat="55.97485" lon="26.3063">
        <ele>97.115855</ele>
        <time>2020-10-07T00:55:01.979Z</time>
      </trkpt>
      <trkpt lat="55.97464" lon="26.30691">
        <ele>97.196003</ele>
        <time>2020-10-07T00:55:11.234Z</time>
      </trkpt>
      <trkpt lat="55.97448" lon="26.30694">
        <ele>97.227364</ele>
        <time>2020-10-07T00:55:14.816Z</time>
      </trkpt>
      <trkpt lat="55.97324" lon="26.30647">
        <ele>97.476442</ele>
        <time>2020-10-07T00:55:44.137Z</time>
      </trkpt>
      <trkpt lat="55.97187" lon="26.30599">
        <ele>97.797587</ele>
        <time>2020-10-07T00:56:15.999Z</time>
      </trkpt>
      <trkpt lat="55.97009" lon="26.30539">
        <ele>98.561735</ele>
        <time>2020-10-07T00:56:59.477Z</time>
      </trkpt>
      <trkpt lat="55.96854" lon="26.30485">
        <ele>99.51682</ele>
        <time>2020-10-07T00:57:38.743Z</time>
      </trkpt>
      <trkpt lat="55.96724" lon="26.3044">
        <ele>100.529492</ele>
        <time>2020-10-07T00:58:11.720Z</time>
      </trkpt>
      <trkpt lat="55.96481" lon="26.30391">
        <ele>103.132704</ele>
        <time>2020-10-07T00:59:16.132Z</time>
      </trkpt>
      <trkpt lat="55.96431" lon="26.3038">
        <ele>104.003181</ele>
        <time>2020-10-07T00:59:30.856Z</time>
      </trkpt>
      <trkpt lat="55.96322" lon="26.30364">
        <ele>105.898359</ele>
        <time>2020-10-07T01:00:04.242Z</time>
      </trkpt>
      <trkpt lat="55.96259" lon="26.30353">
        <ele>106.691855</ele>
        <time>2020-10-07T01:00:22.563Z</time>
      </trkpt>
      <trkpt lat="55.96091" lon="26.30315">
        <ele>108.291868</ele>
        <time>2020-10-07T01:01:06.593Z</time>
      </trkpt>
      <trkpt lat="55.96007" lon="26.30276">
        <ele>108.509206</ele>
        <time>2020-10-07T01:01:26.223Z</time>
      </trkpt>
      <trkpt lat="55.95939" lon="26.30232">
        <ele>108.473214</ele>
        <time>2020-10-07T01:01:41.848Z</time>
      </trkpt>
      <trkpt lat="55.95806" lon="26.30118">
        <ele>107.882597</ele>
        <time>2020-10-07T01:02:12.435Z</time>
      </trkpt>
      <trkpt lat="55.95609" lon="26.29886">
        <ele>106.70991</ele>
        <time>2020-10-07T01:03:00.635Z</time>
      </trkpt>
      <trkpt lat="55.95557" lon="26.29834">
        <ele>106.491166</ele>
        <time>2020-10-07T01:03:13.155Z</time>
      </trkpt>
      <trkpt lat="55.9532" lon="26.29638">
        <ele>105.600202</ele>
        <time>2020-10-07T01:04:09.178Z</time>
      </trkpt>
      <trkpt lat="55.95088" lon="26.29462">
        <ele>103.400832</ele>
        <time>2020-10-07T01:04:58.310Z</time>
      </trkpt>
      <trkpt lat="55.94945" lon="26.29382">
        <ele>102.001046</ele>
        <time>2020-10-07T01:05:26.756Z</time>
      </trkpt>
      <trkpt lat="55.94883" lon="26.29354">
        <ele>101.481223</ele>
        <time>2020-10-07T01:05:39.304Z</time>
      </trkpt>
      <trkpt lat="55.94884" lon="26.29303">
        <ele>101.248507</ele>
        <time>2020-10-07T01:05:45.001Z</time>
      </trkpt>
      <trkpt lat="55.94749" lon="26.2931">
        <ele>101.14765</ele>
        <time>2020-10-07T01:06:14.276Z</time>
      </trkpt>
      <trkpt lat="55.94718" lon="26.29303">
        <ele>101.183115</ele>
        <time>2020-10-07T01:06:22.137Z</time>
      </trkpt>
      <trkpt lat="55.94005" lon="26.29246">
        <ele>104.533329</ele>
        <time>2020-10-07T01:09:16.999Z</time>
      </trkpt>
      <trkpt lat="55.93611" lon="26.29189">
        <ele>102.868609</ele>
        <time>2020-10-07T01:10:36.681Z</time>
      </trkpt>
      <trkpt lat="55.93585" lon="26.29185">
        <ele>103.118211</ele>
        <time>2020-10-07T01:10:42.572Z</time>
      </trkpt>
      <trkpt lat="55.93578" lon="26.29183">
        <ele>103.265474</ele>
        <time>2020-10-07T01:10:45.096Z</time>
      </trkpt>
      <trkpt lat="55.93476" lon="26.29166">
        <ele>105.2687</ele>
        <time>2020-10-07T01:11:15.362Z</time>
      </trkpt>
      <trkpt lat="55.93368" lon="26.29179">
        <ele>107.97235</ele>
        <time>2020-10-07T01:11:53.590Z</time>
      </trkpt>
      <trkpt lat="55.93347" lon="26.29185">
        <ele>108.633777</ele>
        <time>2020-10-07T01:12:01.386Z</time>
      </trkpt>
      <trkpt lat="55.9332" lon="26.29193">
        <ele>109.469948</ele>
        <time>2020-10-07T01:12:10.840Z</time>
      </trkpt>
      <trkpt lat="55.93257" lon="26.29225">
        <ele>111.464809</ele>
        <time>2020-10-07T01:12:33.279Z</time>
      </trkpt>
      <trkpt lat="55.93227" lon="26.2925">
        <ele>112.329299</ele>
        <time>2020-10-07T01:12:44.796Z</time>
      </trkpt>
      <trkpt lat="55.93077" lon="26.29453">
        <ele>116.081963</ele>
        <time>2020-10-07T01:13:42.799Z</time>
      </trkpt>
      <trkpt lat="55.93037" lon="26.29543">
        <ele>116.39195</ele>
        <time>2020-10-07T01:13:59.804Z</time>
      </trkpt>
      <trkpt lat="55.92609" lon="26.30491">
        <ele>113.657647</ele>
        <time>2020-10-07T01:16:19.030Z</time>
      </trkpt>
      <trkpt lat="55.92607" lon="26.30494">
        <ele>113.653956</ele>
        <time>2020-10-07T01:16:19.616Z</time>
      </trkpt>
      <trkpt lat="55.92514" lon="26.30698">
        <ele>113.463065</ele>
        <time>2020-10-07T01:16:52.532Z</time>
      </trkpt>
      <trkpt lat="55.92426" lon="26.30898">
        <ele>113.398061</ele>
        <time>2020-10-07T01:17:24.319Z</time>
      </trkpt>
      <trkpt lat="55.92382" lon="26.31019">
        <ele>113.144653</ele>
        <time>2020-10-07T01:17:41.307Z</time>
      </trkpt>
      <trkpt lat="55.92334" lon="26.31181">
        <ele>112.779598</ele>
        <time>2020-10-07T01:18:02.392Z</time>
      </trkpt>
      <trkpt lat="55.92236" lon="26.31619">
        <ele>112.644779</ele>
        <time>2020-10-07T01:19:00.011Z</time>
      </trkpt>
      <trkpt lat="55.9218" lon="26.31824">
        <ele>113.100048</ele>
        <time>2020-10-07T01:19:31.674Z</time>
      </trkpt>
      <trkpt lat="55.91855" lon="26.3277">
        <ele>116.7483</ele>
        <time>2020-10-07T01:22:05.932Z</time>
      </trkpt>
      <trkpt lat="55.9181" lon="26.32941">
        <ele>116.902505</ele>
        <time>2020-10-07T01:22:30.043Z</time>
      </trkpt>
      <trkpt lat="55.91791" lon="26.33012">
        <ele>116.727586</ele>
        <time>2020-10-07T01:22:39.444Z</time>
      </trkpt>
      <trkpt lat="55.91665" lon="26.3366">
        <ele>115.360005</ele>
        <time>2020-10-07T01:23:58.686Z</time>
      </trkpt>
      <trkpt lat="55.9165" lon="26.33736">
        <ele>115.252305</ele>
        <time>2020-10-07T01:24:08.842Z</time>
      </trkpt>
      <trkpt lat="55.91553" lon="26.34237">
        <ele>116.412684</ele>
        <time>2020-10-07T01:25:17.165Z</time>
      </trkpt>
      <trkpt lat="55.91297" lon="26.35083">
        <ele>122.874352</ele>
        <time>2020-10-07T01:27:48.005Z</time>
      </trkpt>
      <trkpt lat="55.91043" lon="26.35926">
        <ele>126.511848</ele>
        <time>2020-10-07T01:30:04.365Z</time>
      </trkpt>
      <trkpt lat="55.90944" lon="26.36308">
        <ele>124.003682</ele>
        <time>2020-10-07T01:30:48.896Z</time>
      </trkpt>
      <trkpt lat="55.90927" lon="26.36372">
        <ele>123.375323</ele>
        <time>2020-10-07T01:30:55.631Z</time>
      </trkpt>
      <trkpt lat="55.90883" lon="26.36542">
        <ele>120.999118</ele>
        <time>2020-10-07T01:31:13.437Z</time>
      </trkpt>
      <trkpt lat="55.90847" lon="26.36712">
        <ele>118.976975</ele>
        <time>2020-10-07T01:31:31.118Z</time>
      </trkpt>
      <trkpt lat="55.90714" lon="26.37453">
        <ele>116.512342</ele>
        <time>2020-10-07T01:32:57.450Z</time>
      </trkpt>
      <trkpt lat="55.90681" lon="26.37589">
        <ele>117.235159</ele>
        <time>2020-10-07T01:33:23.751Z</time>
      </trkpt>
      <trkpt lat="55.90581" lon="26.37534">
        <ele>120.677943</ele>
        <time>2020-10-07T01:34:03.002Z</time>
      </trkpt>
      <trkpt lat="55.90537" lon="26.37511">
        <ele>122.19445</ele>
        <time>2020-10-07T01:34:18.477Z</time>
      </trkpt>
      <trkpt lat="55.90481" lon="26.37483">
        <ele>123.547526</ele>
        <time>2020-10-07T01:34:40.377Z</time>
      </trkpt>
      <trkpt lat="55.90475" lon="26.3748">
        <ele>123.634268</ele>
        <time>2020-10-07T01:34:42.525Z</time>
      </trkpt>
      <trkpt lat="55.90469" lon="26.37465">
        <ele>123.777567</ele>
        <time>2020-10-07T01:34:44.562Z</time>
      </trkpt>
      <trkpt lat="55.90445" lon="26.37432">
        <ele>124.209721</ele>
        <time>2020-10-07T01:34:54.518Z</time>
      </trkpt>
      <trkpt lat="55.90439" lon="26.37411">
        <ele>124.396793</ele>
        <time>2020-10-07T01:34:57.745Z</time>
      </trkpt>
      <trkpt lat="55.90438" lon="26.37389">
        <ele>124.570739</ele>
        <time>2020-10-07T01:35:02.108Z</time>
      </trkpt>
      <trkpt lat="55.90439" lon="26.37411">
        <ele>124.744685</ele>
        <time>2020-10-07T01:35:04.556Z</time>
      </trkpt>
      <trkpt lat="55.90445" lon="26.37432">
        <ele>124.931757</ele>
        <time>2020-10-07T01:35:08.065Z</time>
      </trkpt>
      <trkpt lat="55.90469" lon="26.37465">
        <ele>125.363912</ele>
        <time>2020-10-07T01:35:14.704Z</time>
      </trkpt>
      <trkpt lat="55.90475" lon="26.3748">
        <ele>125.507211</ele>
        <time>2020-10-07T01:35:18.480Z</time>
      </trkpt>
      <trkpt lat="55.90481" lon="26.37483">
        <ele>125.593953</ele>
        <time>2020-10-07T01:35:19.796Z</time>
      </trkpt>
      <trkpt lat="55.90537" lon="26.37511">
        <ele>125.712939</ele>
        <time>2020-10-07T01:35:32.162Z</time>
      </trkpt>
      <trkpt lat="55.90523" lon="26.37658">
        <ele>125.81372</ele>
        <time>2020-10-07T01:35:54.716Z</time>
      </trkpt>
      <trkpt lat="55.9053" lon="26.37702">
        <ele>125.844903</ele>
        <time>2020-10-07T01:36:00.105Z</time>
      </trkpt>
      <trkpt lat="55.90543" lon="26.37707">
        <ele>125.861038</ele>
        <time>2020-10-07T01:36:02.624Z</time>
      </trkpt>
      <trkpt lat="55.9054" lon="26.37796">
        <ele>125.13435</ele>
        <time>2020-10-07T01:36:12.826Z</time>
      </trkpt>
      <trkpt lat="55.90541" lon="26.37877">
        <ele>124.440972</ele>
        <time>2020-10-07T01:36:22.047Z</time>
      </trkpt>
      <trkpt lat="55.90562" lon="26.37902">
        <ele>124.04762</ele>
        <time>2020-10-07T01:36:26.497Z</time>
      </trkpt>
      <trkpt lat="55.9056" lon="26.37908">
        <ele>123.986088</ele>
        <time>2020-10-07T01:36:27.318Z</time>
      </trkpt>
      <trkpt lat="55.9056" lon="26.37922">
        <ele>123.864714</ele>
        <time>2020-10-07T01:36:28.858Z</time>
      </trkpt>
      <trkpt lat="55.90562" lon="26.37928">
        <ele>123.802418</ele>
        <time>2020-10-07T01:36:29.529Z</time>
      </trkpt>
      <trkpt lat="55.90565" lon="26.37933">
        <ele>123.740529</ele>
        <time>2020-10-07T01:36:30.167Z</time>
      </trkpt>
      <trkpt lat="55.90568" lon="26.37936">
        <ele>123.678514</ele>
        <time>2020-10-07T01:36:30.856Z</time>
      </trkpt>
      <trkpt lat="55.9057" lon="26.37936">
        <ele>123.652299</ele>
        <time>2020-10-07T01:36:31.122Z</time>
      </trkpt>
      <trkpt lat="55.90563" lon="26.38011">
        <ele>122.929368</ele>
        <time>2020-10-07T01:36:38.834Z</time>
      </trkpt>
      <trkpt lat="55.90739" lon="26.38548">
        <ele>114.257079</ele>
        <time>2020-10-07T01:37:40.745Z</time>
      </trkpt>
      <trkpt lat="55.9074" lon="26.38571">
        <ele>114.009679</ele>
        <time>2020-10-07T01:37:43.211Z</time>
      </trkpt>
      <trkpt lat="55.90766" lon="26.38924">
        <ele>110.693865</ele>
        <time>2020-10-07T01:38:19.933Z</time>
      </trkpt>
      <trkpt lat="55.90782" lon="26.39191">
        <ele>108.057022</ele>
        <time>2020-10-07T01:38:46.711Z</time>
      </trkpt>
      <trkpt lat="55.90784" lon="26.39401">
        <ele>106.560768</ele>
        <time>2020-10-07T01:39:08.363Z</time>
      </trkpt>
      <trkpt lat="55.90777" lon="26.39493">
        <ele>105.907881</ele>
        <time>2020-10-07T01:39:18.604Z</time>
      </trkpt>
      <trkpt lat="55.90684" lon="26.39813">
        <ele>104.989331</ele>
        <time>2020-10-07T01:40:01.594Z</time>
      </trkpt>
      <trkpt lat="55.90704" lon="26.40082">
        <ele>103.871144</ele>
        <time>2020-10-07T01:40:32.300Z</time>
      </trkpt>
      <trkpt lat="55.907" lon="26.40235">
        <ele>102.537406</ele>
        <time>2020-10-07T01:40:48.250Z</time>
      </trkpt>
      <trkpt lat="55.90684" lon="26.40353">
        <ele>101.344673</ele>
        <time>2020-10-07T01:41:00.309Z</time>
      </trkpt>
      <trkpt lat="55.90712" lon="26.40448">
        <ele>100.185248</ele>
        <time>2020-10-07T01:41:10.591Z</time>
      </trkpt>
      <trkpt lat="55.90826" lon="26.40755">
        <ele>95.774137</ele>
        <time>2020-10-07T01:41:45.847Z</time>
      </trkpt>
      <trkpt lat="55.90831" lon="26.40768">
        <ele>95.691658</ele>
        <time>2020-10-07T01:41:47.204Z</time>
      </trkpt>
      <trkpt lat="55.90897" lon="26.4098">
        <ele>94.453803</ele>
        <time>2020-10-07T01:42:15.629Z</time>
      </trkpt>
      <trkpt lat="55.91042" lon="26.41122">
        <ele>94.941056</ele>
        <time>2020-10-07T01:42:56.455Z</time>
      </trkpt>
      <trkpt lat="55.91055" lon="26.41134">
        <ele>94.878545</ele>
        <time>2020-10-07T01:42:59.573Z</time>
      </trkpt>
      <trkpt lat="55.91129" lon="26.41162">
        <ele>94.167073</ele>
        <time>2020-10-07T01:43:14.842Z</time>
      </trkpt>
      <trkpt lat="55.91159" lon="26.41196">
        <ele>93.82557</ele>
        <time>2020-10-07T01:43:21.595Z</time>
      </trkpt>
      <trkpt lat="55.91187" lon="26.41247">
        <ele>93.448557</ele>
        <time>2020-10-07T01:43:28.814Z</time>
      </trkpt>
      <trkpt lat="55.91241" lon="26.41396">
        <ele>92.213301</ele>
        <time>2020-10-07T01:43:46.825Z</time>
      </trkpt>
      <trkpt lat="55.91449" lon="26.41674">
        <ele>89.323159</ele>
        <time>2020-10-07T01:44:36.544Z</time>
      </trkpt>
      <trkpt lat="55.91567" lon="26.41868">
        <ele>88.715825</ele>
        <time>2020-10-07T01:45:10.328Z</time>
      </trkpt>
      <trkpt lat="55.9179" lon="26.42092">
        <ele>88.968423</ele>
        <time>2020-10-07T01:46:09.000Z</time>
      </trkpt>
      <trkpt lat="55.91967" lon="26.42351">
        <ele>89.618125</ele>
        <time>2020-10-07T01:47:03.059Z</time>
      </trkpt>
      <trkpt lat="55.9204" lon="26.42407">
        <ele>89.821316</ele>
        <time>2020-10-07T01:47:21.686Z</time>
      </trkpt>
      <trkpt lat="55.92076" lon="26.42558">
        <ele>89.669447</ele>
        <time>2020-10-07T01:47:42.086Z</time>
      </trkpt>
      <trkpt lat="55.91983" lon="26.42592">
        <ele>89.436354</ele>
        <time>2020-10-07T01:48:02.603Z</time>
      </trkpt>
      <trkpt lat="55.91921" lon="26.42635">
        <ele>89.181253</ele>
        <time>2020-10-07T01:48:16.880Z</time>
      </trkpt>
      <trkpt lat="55.91869" lon="26.42688">
        <ele>88.941322</ele>
        <time>2020-10-07T01:48:29.671Z</time>
      </trkpt>
      <trkpt lat="55.91298" lon="26.43336">
        <ele>88.426332</ele>
        <time>2020-10-07T01:51:05.443Z</time>
      </trkpt>
      <trkpt lat="55.90904" lon="26.44214">
        <ele>87.613551</ele>
        <time>2020-10-07T01:53:28.808Z</time>
      </trkpt>
      <trkpt lat="55.90823" lon="26.44339">
        <ele>87.515583</ele>
        <time>2020-10-07T01:53:52.952Z</time>
      </trkpt>
      <trkpt lat="55.90721" lon="26.44469">
        <ele>87.45288</ele>
        <time>2020-10-07T01:54:21.799Z</time>
      </trkpt>
      <trkpt lat="55.9047" lon="26.44765">
        <ele>87.687874</ele>
        <time>2020-10-07T01:55:32.663Z</time>
      </trkpt>
      <trkpt lat="55.90402" lon="26.44836">
        <ele>87.856032</ele>
        <time>2020-10-07T01:55:51.840Z</time>
      </trkpt>
      <trkpt lat="55.90335" lon="26.44877">
        <ele>88.028007</ele>
        <time>2020-10-07T01:56:08.963Z</time>
      </trkpt>
      <trkpt lat="55.90306" lon="26.44943">
        <ele>88.142623</ele>
        <time>2020-10-07T01:56:20.414Z</time>
      </trkpt>
      <trkpt lat="55.90301" lon="26.44955">
        <ele>88.158565</ele>
        <time>2020-10-07T01:56:22.457Z</time>
      </trkpt>
      <trkpt lat="55.90159" lon="26.45259">
        <ele>88.42844</ele>
        <time>2020-10-07T01:57:14.985Z</time>
      </trkpt>
      <trkpt lat="55.89864" lon="26.45839">
        <ele>88.69291</ele>
        <time>2020-10-07T01:58:56.681Z</time>
      </trkpt>
      <trkpt lat="55.89697" lon="26.46073">
        <ele>89.960053</ele>
        <time>2020-10-07T01:59:52.157Z</time>
      </trkpt>
      <trkpt lat="55.89508" lon="26.46246">
        <ele>91.455509</ele>
        <time>2020-10-07T02:00:48.810Z</time>
      </trkpt>
      <trkpt lat="55.88919" lon="26.4674">
        <ele>89.649852</ele>
        <time>2020-10-07T02:03:12.275Z</time>
      </trkpt>
      <trkpt lat="55.88751" lon="26.46881">
        <ele>89.391257</ele>
        <time>2020-10-07T02:03:53.767Z</time>
      </trkpt>
      <trkpt lat="55.88506" lon="26.4706">
        <ele>89.876993</ele>
        <time>2020-10-07T02:04:57.764Z</time>
      </trkpt>
      <trkpt lat="55.88425" lon="26.4726">
        <ele>90.165982</ele>
        <time>2020-10-07T02:05:31.234Z</time>
      </trkpt>
      <trkpt lat="55.88356" lon="26.47428">
        <ele>90.223608</ele>
        <time>2020-10-07T02:05:58.692Z</time>
      </trkpt>
      <trkpt lat="55.88313" lon="26.47534">
        <ele>90.244955</ele>
        <time>2020-10-07T02:06:15.745Z</time>
      </trkpt>
      <trkpt lat="55.88245" lon="26.47819">
        <ele>89.91374</ele>
        <time>2020-10-07T02:06:54.731Z</time>
      </trkpt>
      <trkpt lat="55.88199" lon="26.48014">
        <ele>89.781113</ele>
        <time>2020-10-07T02:07:21.527Z</time>
      </trkpt>
      <trkpt lat="55.8816" lon="26.48224">
        <ele>89.836506</ele>
        <time>2020-10-07T02:07:50.383Z</time>
      </trkpt>
      <trkpt lat="55.88069" lon="26.48399">
        <ele>90.154922</ele>
        <time>2020-10-07T02:08:23.112Z</time>
      </trkpt>
      <trkpt lat="55.879" lon="26.48652">
        <ele>91.087011</ele>
        <time>2020-10-07T02:09:18.684Z</time>
      </trkpt>
      <trkpt lat="55.87824" lon="26.48776">
        <ele>91.409329</ele>
        <time>2020-10-07T02:09:43.615Z</time>
      </trkpt>
      <trkpt lat="55.87792" lon="26.48834">
        <ele>91.527703</ele>
        <time>2020-10-07T02:09:54.791Z</time>
      </trkpt>
      <trkpt lat="55.87783" lon="26.48851">
        <ele>91.554735</ele>
        <time>2020-10-07T02:09:57.488Z</time>
      </trkpt>
      <trkpt lat="55.8777" lon="26.48883">
        <ele>91.601466</ele>
        <time>2020-10-07T02:10:03.325Z</time>
      </trkpt>
      <trkpt lat="55.87764" lon="26.48904">
        <ele>91.62887</ele>
        <time>2020-10-07T02:10:06.053Z</time>
      </trkpt>
      <trkpt lat="55.87745" lon="26.48989">
        <ele>91.736792</ele>
        <time>2020-10-07T02:10:18.348Z</time>
      </trkpt>
      <trkpt lat="55.8773" lon="26.49076">
        <ele>91.845066</ele>
        <time>2020-10-07T02:10:30.131Z</time>
      </trkpt>
      <trkpt lat="55.87728" lon="26.49109">
        <ele>91.832855</ele>
        <time>2020-10-07T02:10:34.173Z</time>
      </trkpt>
      <trkpt lat="55.87735" lon="26.49164">
        <ele>91.771826</ele>
        <time>2020-10-07T02:10:41.583Z</time>
      </trkpt>
      <trkpt lat="55.87744" lon="26.49189">
        <ele>91.740788</ele>
        <time>2020-10-07T02:10:45.438Z</time>
      </trkpt>
      <trkpt lat="55.87747" lon="26.49196">
        <ele>91.732035</ele>
        <time>2020-10-07T02:10:46.730Z</time>
      </trkpt>
      <trkpt lat="55.87838" lon="26.49408">
        <ele>91.077658</ele>
        <time>2020-10-07T02:11:18.291Z</time>
      </trkpt>
      <trkpt lat="55.87848" lon="26.49468">
        <ele>90.659634</ele>
        <time>2020-10-07T02:11:24.717Z</time>
      </trkpt>
      <trkpt lat="55.87844" lon="26.49525">
        <ele>90.272435</ele>
        <time>2020-10-07T02:11:30.652Z</time>
      </trkpt>
      <trkpt lat="55.87828" lon="26.49568">
        <ele>89.927752</ele>
        <time>2020-10-07T02:11:35.903Z</time>
      </trkpt>
      <trkpt lat="55.87817" lon="26.49585">
        <ele>89.746404</ele>
        <time>2020-10-07T02:11:38.675Z</time>
      </trkpt>
      <trkpt lat="55.87798" lon="26.4961">
        <ele>89.466669</ele>
        <time>2020-10-07T02:11:42.940Z</time>
      </trkpt>
      <trkpt lat="55.87755" lon="26.49661">
        <ele>89.118215</ele>
        <time>2020-10-07T02:11:52.550Z</time>
      </trkpt>
      <trkpt lat="55.87721" lon="26.49687">
        <ele>88.911333</ele>
        <time>2020-10-07T02:11:59.681Z</time>
      </trkpt>
      <trkpt lat="55.87696" lon="26.49696">
        <ele>88.7663</ele>
        <time>2020-10-07T02:12:04.750Z</time>
      </trkpt>
      <trkpt lat="55.87659" lon="26.49693">
        <ele>88.557855</ele>
        <time>2020-10-07T02:12:12.788Z</time>
      </trkpt>
      <trkpt lat="55.87595" lon="26.49667">
        <ele>88.507967</ele>
        <time>2020-10-07T02:12:28.635Z</time>
      </trkpt>
      <trkpt lat="55.87578" lon="26.4966">
        <ele>88.608829</ele>
        <time>2020-10-07T02:12:32.987Z</time>
      </trkpt>
      <trkpt lat="55.87526" lon="26.4959">
        <ele>88.988374</ele>
        <time>2020-10-07T02:12:49.147Z</time>
      </trkpt>
      <trkpt lat="55.87426" lon="26.49449">
        <ele>89.813449</ele>
        <time>2020-10-07T02:13:21.223Z</time>
      </trkpt>
      <trkpt lat="55.87331" lon="26.49317">
        <ele>90.686857</ele>
        <time>2020-10-07T02:13:51.528Z</time>
      </trkpt>
      <trkpt lat="55.87306" lon="26.49335">
        <ele>90.802415</ele>
        <time>2020-10-07T02:14:02.037Z</time>
      </trkpt>
      <trkpt lat="55.8728" lon="26.49343">
        <ele>90.91535</ele>
        <time>2020-10-07T02:14:12.650Z</time>
      </trkpt>
      <trkpt lat="55.872" lon="26.49356">
        <ele>91.256524</ele>
        <time>2020-10-07T02:14:43.782Z</time>
      </trkpt>
      <trkpt lat="55.87132" lon="26.49364">
        <ele>91.466465</ele>
        <time>2020-10-07T02:15:09.645Z</time>
      </trkpt>
      <trkpt lat="55.87067" lon="26.49372">
        <ele>91.487798</ele>
        <time>2020-10-07T02:15:34.193Z</time>
      </trkpt>
      <trkpt lat="55.86989" lon="26.49378">
        <ele>91.513149</ele>
        <time>2020-10-07T02:16:03.033Z</time>
      </trkpt>
      <trkpt lat="55.86915" lon="26.49385">
        <ele>91.371485</ele>
        <time>2020-10-07T02:16:29.801Z</time>
      </trkpt>
      <trkpt lat="55.86916" lon="26.49499">
        <ele>91.207339</ele>
        <time>2020-10-07T02:16:53.113Z</time>
      </trkpt>
      <trkpt lat="55.86917" lon="26.49609">
        <ele>91.053628</ele>
        <time>2020-10-07T02:17:15.036Z</time>
      </trkpt>
      <trkpt lat="55.86842" lon="26.49669">
        <ele>90.945923</ele>
        <time>2020-10-07T02:17:44.709Z</time>
      </trkpt>
      <trkpt lat="55.8679" lon="26.4971">
        <ele>90.871803</ele>
        <time>2020-10-07T02:18:05.573Z</time>
      </trkpt>
      <trkpt lat="55.86722" lon="26.49803">
        <ele>90.966794</ele>
        <time>2020-10-07T02:18:37.925Z</time>
      </trkpt>
      <trkpt lat="55.86674" lon="26.49873">
        <ele>91.152524</ele>
        <time>2020-10-07T02:19:01.989Z</time>
      </trkpt>
      <trkpt lat="55.8659" lon="26.49989">
        <ele>91.448824</ele>
        <time>2020-10-07T02:19:43.051Z</time>
      </trkpt>
      <trkpt lat="55.86525" lon="26.50083">
        <ele>91.64967</ele>
        <time>2020-10-07T02:20:15.456Z</time>
      </trkpt>
      <trkpt lat="55.86484" lon="26.50131">
        <ele>91.767084</ele>
        <time>2020-10-07T02:20:34.009Z</time>
      </trkpt>
      <trkpt lat="55.86484" lon="26.50174">
        <ele>91.801501</ele>
        <time>2020-10-07T02:20:39.294Z</time>
      </trkpt>
      <trkpt lat="55.86486" lon="26.50247">
        <ele>91.833965</ele>
        <time>2020-10-07T02:20:48.430Z</time>
      </trkpt>
      <trkpt lat="55.86486" lon="26.50316">
        <ele>91.864271</ele>
        <time>2020-10-07T02:20:57.113Z</time>
      </trkpt>
      <trkpt lat="55.86481" lon="26.50318">
        <ele>91.868</ele>
        <time>2020-10-07T02:20:58.157Z</time>
      </trkpt>
      <trkpt lat="55.86472" lon="26.50335">
        <ele>91.878781</ele>
        <time>2020-10-07T02:21:01.324Z</time>
      </trkpt>
      <trkpt lat="55.86471" lon="26.50344">
        <ele>91.882467</ele>
        <time>2020-10-07T02:21:02.438Z</time>
      </trkpt>
      <trkpt lat="55.86472" lon="26.50352">
        <ele>91.885936</ele>
        <time>2020-10-07T02:21:03.415Z</time>
      </trkpt>
      <trkpt lat="55.8648" lon="26.50369">
        <ele>91.896054</ele>
        <time>2020-10-07T02:21:06.383Z</time>
      </trkpt>
      <trkpt lat="55.86485" lon="26.50371">
        <ele>91.899533</ele>
        <time>2020-10-07T02:21:07.352Z</time>
      </trkpt>
      <trkpt lat="55.86489" lon="26.5043">
        <ele>91.925902</ele>
        <time>2020-10-07T02:21:15.205Z</time>
      </trkpt>
      <trkpt lat="55.86501" lon="26.5051">
        <ele>92.017736</ele>
        <time>2020-10-07T02:21:25.629Z</time>
      </trkpt>
      <trkpt lat="55.86502" lon="26.5053">
        <ele>92.042751</ele>
        <time>2020-10-07T02:21:28.165Z</time>
      </trkpt>
      <trkpt lat="55.86502" lon="26.50595">
        <ele>92.122942</ele>
        <time>2020-10-07T02:21:36.629Z</time>
      </trkpt>
      <trkpt lat="55.86493" lon="26.50682">
        <ele>92.232649</ele>
        <time>2020-10-07T02:21:48.599Z</time>
      </trkpt>
      <trkpt lat="55.86473" lon="26.50795">
        <ele>92.302516</ele>
        <time>2020-10-07T02:22:03.696Z</time>
      </trkpt>
      <trkpt lat="55.86457" lon="26.50886">
        <ele>92.247171</ele>
        <time>2020-10-07T02:22:15.763Z</time>
      </trkpt>
      <trkpt lat="55.86447" lon="26.50897">
        <ele>92.235518</ele>
        <time>2020-10-07T02:22:18.123Z</time>
      </trkpt>
      <trkpt lat="55.86437" lon="26.50901">
        <ele>92.224267</ele>
        <time>2020-10-07T02:22:20.634Z</time>
      </trkpt>
      <trkpt lat="55.86425" lon="26.50896">
        <ele>92.211417</ele>
        <time>2020-10-07T02:22:23.379Z</time>
      </trkpt>
      <trkpt lat="55.86406" lon="26.50892">
        <ele>92.191664</ele>
        <time>2020-10-07T02:22:27.443Z</time>
      </trkpt>
      <trkpt lat="55.86389" lon="26.50909">
        <ele>92.171918</ele>
        <time>2020-10-07T02:22:31.626Z</time>
      </trkpt>
      <trkpt lat="55.86353" lon="26.51051">
        <ele>92.014609</ele>
        <time>2020-10-07T02:22:49.905Z</time>
      </trkpt>
      <trkpt lat="55.86307" lon="26.51226">
        <ele>91.778693</ele>
        <time>2020-10-07T02:23:13.220Z</time>
      </trkpt>
      <trkpt lat="55.86283" lon="26.51307">
        <ele>91.814927</ele>
        <time>2020-10-07T02:23:24.758Z</time>
      </trkpt>
      <trkpt lat="55.86207" lon="26.51567">
        <ele>92.155577</ele>
        <time>2020-10-07T02:24:03.112Z</time>
      </trkpt>
      <trkpt lat="55.86174" lon="26.51681">
        <ele>92.441484</ele>
        <time>2020-10-07T02:24:20.460Z</time>
      </trkpt>
      <trkpt lat="55.86073" lon="26.51996">
        <ele>93.002319</ele>
        <time>2020-10-07T02:25:09.108Z</time>
      </trkpt>
      <trkpt lat="55.86063" lon="26.52028">
        <ele>93.041798</ele>
        <time>2020-10-07T02:25:13.719Z</time>
      </trkpt>
      <trkpt lat="55.86048" lon="26.52031">
        <ele>93.07115</ele>
        <time>2020-10-07T02:25:17.065Z</time>
      </trkpt>
      <trkpt lat="55.86003" lon="26.52039">
        <ele>93.057267</ele>
        <time>2020-10-07T02:25:26.644Z</time>
      </trkpt>
      <trkpt lat="55.85946" lon="26.52049">
        <ele>92.860669</ele>
        <time>2020-10-07T02:25:38.815Z</time>
      </trkpt>
      <trkpt lat="55.85894" lon="26.52056">
        <ele>92.683501</ele>
        <time>2020-10-07T02:25:49.612Z</time>
      </trkpt>
      <trkpt lat="55.85842" lon="26.52064">
        <ele>92.507118</ele>
        <time>2020-10-07T02:26:00.416Z</time>
      </trkpt>
      <trkpt lat="55.85758" lon="26.52078">
        <ele>92.279932</ele>
        <time>2020-10-07T02:26:18.228Z</time>
      </trkpt>
      <trkpt lat="55.85689" lon="26.52088">
        <ele>92.091739</ele>
        <time>2020-10-07T02:26:33.146Z</time>
      </trkpt>
      <trkpt lat="55.8568" lon="26.52089">
        <ele>92.068453</ele>
        <time>2020-10-07T02:26:35.024Z</time>
      </trkpt>
      <trkpt lat="55.85663" lon="26.52091">
        <ele>92.023306</ele>
        <time>2020-10-07T02:26:38.661Z</time>
      </trkpt>
      <trkpt lat="55.85605" lon="26.521">
        <ele>91.906178</ele>
        <time>2020-10-07T02:26:51.444Z</time>
      </trkpt>
      <trkpt lat="55.85548" lon="26.52107">
        <ele>91.790261</ele>
        <time>2020-10-07T02:27:03.746Z</time>
      </trkpt>
      <trkpt lat="55.85503" lon="26.5211">
        <ele>91.699841</ele>
        <time>2020-10-07T02:27:13.258Z</time>
      </trkpt>
      <trkpt lat="55.85459" lon="26.52111">
        <ele>91.662776</ele>
        <time>2020-10-07T02:27:22.555Z</time>
      </trkpt>
      <trkpt lat="55.85413" lon="26.52113">
        <ele>91.66369</ele>
        <time>2020-10-07T02:27:32.506Z</time>
      </trkpt>
      <trkpt lat="55.85378" lon="26.52113">
        <ele>91.66438</ele>
        <time>2020-10-07T02:27:40.334Z</time>
      </trkpt>
      <trkpt lat="55.85343" lon="26.52115">
        <ele>91.665067</ele>
        <time>2020-10-07T02:27:48.270Z</time>
      </trkpt>
      <trkpt lat="55.85273" lon="26.52118">
        <ele>91.849045</ele>
        <time>2020-10-07T02:28:04.509Z</time>
      </trkpt>
      <trkpt lat="55.85132" lon="26.52123">
        <ele>92.689622</ele>
        <time>2020-10-07T02:28:39.890Z</time>
      </trkpt>
      <trkpt lat="55.85049" lon="26.52128">
        <ele>93.272041</ele>
        <time>2020-10-07T02:29:01.473Z</time>
      </trkpt>
      <trkpt lat="55.85005" lon="26.52133">
        <ele>93.587496</ele>
        <time>2020-10-07T02:29:12.832Z</time>
      </trkpt>
      <trkpt lat="55.84797" lon="26.52181">
        <ele>94.382852</ele>
        <time>2020-10-07T02:30:02.638Z</time>
      </trkpt>
      <trkpt lat="55.84771" lon="26.52195">
        <ele>94.448918</ele>
        <time>2020-10-07T02:30:08.267Z</time>
      </trkpt>
      <trkpt lat="55.84624" lon="26.52314">
        <ele>94.333628</ele>
        <time>2020-10-07T02:30:43.360Z</time>
      </trkpt>
      <trkpt lat="55.84578" lon="26.52353">
        <ele>94.366123</ele>
        <time>2020-10-07T02:30:55.038Z</time>
      </trkpt>
      <trkpt lat="55.84574" lon="26.52355">
        <ele>94.372077</ele>
        <time>2020-10-07T02:30:56.105Z</time>
      </trkpt>
      <trkpt lat="55.84553" lon="26.5237">
        <ele>94.411568</ele>
        <time>2020-10-07T02:31:01.555Z</time>
      </trkpt>
      <trkpt lat="55.84457" lon="26.52437">
        <ele>94.583349</ele>
        <time>2020-10-07T02:31:25.590Z</time>
      </trkpt>
      <trkpt lat="55.84398" lon="26.52474">
        <ele>94.458757</ele>
        <time>2020-10-07T02:31:39.082Z</time>
      </trkpt>
      <trkpt lat="55.84338" lon="26.52511">
        <ele>94.21353</ele>
        <time>2020-10-07T02:31:51.915Z</time>
      </trkpt>
      <trkpt lat="55.84182" lon="26.52587">
        <ele>94.340492</ele>
        <time>2020-10-07T02:32:25.782Z</time>
      </trkpt>
      <trkpt lat="55.84058" lon="26.52631">
        <ele>95.170578</ele>
        <time>2020-10-07T02:33:00.132Z</time>
      </trkpt>
      <trkpt lat="55.84022" lon="26.52641">
        <ele>95.606825</ele>
        <time>2020-10-07T02:33:10.693Z</time>
      </trkpt>
      <trkpt lat="55.83955" lon="26.52648">
        <ele>96.385134</ele>
        <time>2020-10-07T02:33:28.683Z</time>
      </trkpt>
      <trkpt lat="55.83928" lon="26.52651">
        <ele>96.706965</ele>
        <time>2020-10-07T02:33:35.727Z</time>
      </trkpt>
      <trkpt lat="55.83886" lon="26.52649">
        <ele>97.284758</ele>
        <time>2020-10-07T02:33:46.534Z</time>
      </trkpt>
      <trkpt lat="55.83773" lon="26.52646">
        <ele>99.007337</ele>
        <time>2020-10-07T02:34:17.041Z</time>
      </trkpt>
      <trkpt lat="55.83577" lon="26.52652">
        <ele>103.31207</ele>
        <time>2020-10-07T02:35:20.873Z</time>
      </trkpt>
      <trkpt lat="55.83291" lon="26.52632">
        <ele>108.222684</ele>
        <time>2020-10-07T02:36:46.732Z</time>
      </trkpt>
      <trkpt lat="55.83284" lon="26.52632">
        <ele>108.295845</ele>
        <time>2020-10-07T02:36:48.536Z</time>
      </trkpt>
      <trkpt lat="55.83166" lon="26.52631">
        <ele>109.121576</ele>
        <time>2020-10-07T02:37:15.443Z</time>
      </trkpt>
      <trkpt lat="55.83111" lon="26.52627">
        <ele>109.013709</ele>
        <time>2020-10-07T02:37:26.719Z</time>
      </trkpt>
      <trkpt lat="55.82953" lon="26.52613">
        <ele>108.994338</ele>
        <time>2020-10-07T02:38:00.833Z</time>
      </trkpt>
      <trkpt lat="55.82932" lon="26.52609">
        <ele>109.055294</ele>
        <time>2020-10-07T02:38:05.763Z</time>
      </trkpt>
      <trkpt lat="55.82883" lon="26.526">
        <ele>109.196928</ele>
        <time>2020-10-07T02:38:17.513Z</time>
      </trkpt>
      <trkpt lat="55.82872" lon="26.52597">
        <ele>109.228424</ele>
        <time>2020-10-07T02:38:20.274Z</time>
      </trkpt>
      <trkpt lat="55.82845" lon="26.52588">
        <ele>109.308081</ele>
        <time>2020-10-07T02:38:27.157Z</time>
      </trkpt>
      <trkpt lat="55.82771" lon="26.5256">
        <ele>109.86363</ele>
        <time>2020-10-07T02:38:46.983Z</time>
      </trkpt>
      <trkpt lat="55.82632" lon="26.52492">
        <ele>110.855434</ele>
        <time>2020-10-07T02:39:23.822Z</time>
      </trkpt>
      <trkpt lat="55.82479" lon="26.52415">
        <ele>111.236766</ele>
        <time>2020-10-07T02:40:00.029Z</time>
      </trkpt>
      <trkpt lat="55.82374" lon="26.52365">
        <ele>111.292647</ele>
        <time>2020-10-07T02:40:23.395Z</time>
      </trkpt>
      <trkpt lat="55.82318" lon="26.5234">
        <ele>111.321755</ele>
        <time>2020-10-07T02:40:36.176Z</time>
      </trkpt>
      <trkpt lat="55.82183" lon="26.52304">
        <ele>112.642663</ele>
        <time>2020-10-07T02:41:11.301Z</time>
      </trkpt>
      <trkpt lat="55.82013" lon="26.52277">
        <ele>114.973825</ele>
        <time>2020-10-07T02:42:00.858Z</time>
      </trkpt>
      <trkpt lat="55.81916" lon="26.52288">
        <ele>116.171914</ele>
        <time>2020-10-07T02:42:27.601Z</time>
      </trkpt>
      <trkpt lat="55.81857" lon="26.52298">
        <ele>116.674777</ele>
        <time>2020-10-07T02:42:43.083Z</time>
      </trkpt>
      <trkpt lat="55.81677" lon="26.5232">
        <ele>117.562643</ele>
        <time>2020-10-07T02:43:26.288Z</time>
      </trkpt>
      <trkpt lat="55.81587" lon="26.5234">
        <ele>117.75248</ele>
        <time>2020-10-07T02:43:46.383Z</time>
      </trkpt>
      <trkpt lat="55.81463" lon="26.5237">
        <ele>118.011781</ele>
        <time>2020-10-07T02:44:13.957Z</time>
      </trkpt>
      <trkpt lat="55.81292" lon="26.52415">
        <ele>119.396001</ele>
        <time>2020-10-07T02:44:58.201Z</time>
      </trkpt>
      <trkpt lat="55.81018" lon="26.52482">
        <ele>122.989383</ele>
        <time>2020-10-07T02:46:16.738Z</time>
      </trkpt>
      <trkpt lat="55.80958" lon="26.52497">
        <ele>123.525751</ele>
        <time>2020-10-07T02:46:32.905Z</time>
      </trkpt>
      <trkpt lat="55.80853" lon="26.52523">
        <ele>124.012409</ele>
        <time>2020-10-07T02:46:57.887Z</time>
      </trkpt>
      <trkpt lat="55.80777" lon="26.52541">
        <ele>123.615612</ele>
        <time>2020-10-07T02:47:13.625Z</time>
      </trkpt>
      <trkpt lat="55.80676" lon="26.52564">
        <ele>123.020386</ele>
        <time>2020-10-07T02:47:33.447Z</time>
      </trkpt>
      <trkpt lat="55.80643" lon="26.52564">
        <ele>122.778968</ele>
        <time>2020-10-07T02:47:39.780Z</time>
      </trkpt>
      <trkpt lat="55.80512" lon="26.52566">
        <ele>121.9225</ele>
        <time>2020-10-07T02:48:05.880Z</time>
      </trkpt>
      <trkpt lat="55.80297" lon="26.52532">
        <ele>122.590339</ele>
        <time>2020-10-07T02:48:55.107Z</time>
      </trkpt>
      <trkpt lat="55.8027" lon="26.52525">
        <ele>122.947527</ele>
        <time>2020-10-07T02:49:02.314Z</time>
      </trkpt>
      <trkpt lat="55.80042" lon="26.52466">
        <ele>126.448168</ele>
        <time>2020-10-07T02:50:12.862Z</time>
      </trkpt>
      <trkpt lat="55.79881" lon="26.52447">
        <ele>127.147308</ele>
        <time>2020-10-07T02:50:53.074Z</time>
      </trkpt>
      <trkpt lat="55.79806" lon="26.52447">
        <ele>126.994115</ele>
        <time>2020-10-07T02:51:07.006Z</time>
      </trkpt>
      <trkpt lat="55.79705" lon="26.5246">
        <ele>125.69413</ele>
        <time>2020-10-07T02:51:25.142Z</time>
      </trkpt>
      <trkpt lat="55.79453" lon="26.52493">
        <ele>123.559725</ele>
        <time>2020-10-07T02:52:15.425Z</time>
      </trkpt>
      <trkpt lat="55.79417" lon="26.52496">
        <ele>123.684047</ele>
        <time>2020-10-07T02:52:23.118Z</time>
      </trkpt>
      <trkpt lat="55.79285" lon="26.52507">
        <ele>124.145854</ele>
        <time>2020-10-07T02:52:54.672Z</time>
      </trkpt>
      <trkpt lat="55.79177" lon="26.52505">
        <ele>125.857635</ele>
        <time>2020-10-07T02:53:25.431Z</time>
      </trkpt>
      <trkpt lat="55.7907" lon="26.52495">
        <ele>127.804577</ele>
        <time>2020-10-07T02:53:58.723Z</time>
      </trkpt>
      <trkpt lat="55.79026" lon="26.52491">
        <ele>128.731393</ele>
        <time>2020-10-07T02:54:12.447Z</time>
      </trkpt>
      <trkpt lat="55.78845" lon="26.52486">
        <ele>132.46049</ele>
        <time>2020-10-07T02:55:07.642Z</time>
      </trkpt>
      <trkpt lat="55.78736" lon="26.52506">
        <ele>134.641136</ele>
        <time>2020-10-07T02:55:40.826Z</time>
      </trkpt>
      <trkpt lat="55.78584" lon="26.52548">
        <ele>137.237621</ele>
        <time>2020-10-07T02:56:25.929Z</time>
      </trkpt>
      <trkpt lat="55.78449" lon="26.52615">
        <ele>139.039209</ele>
        <time>2020-10-07T02:57:04.428Z</time>
      </trkpt>
      <trkpt lat="55.78192" lon="26.52785">
        <ele>141.509559</ele>
        <time>2020-10-07T02:58:15.788Z</time>
      </trkpt>
      <trkpt lat="55.7782" lon="26.53071">
        <ele>142.409017</ele>
        <time>2020-10-07T02:59:46.879Z</time>
      </trkpt>
      <trkpt lat="55.7776" lon="26.53103">
        <ele>142.79221</ele>
        <time>2020-10-07T03:00:02.388Z</time>
      </trkpt>
      <trkpt lat="55.77715" lon="26.53137">
        <ele>143.145618</ele>
        <time>2020-10-07T03:00:15.445Z</time>
      </trkpt>
      <trkpt lat="55.77661" lon="26.53196">
        <ele>144.314366</ele>
        <time>2020-10-07T03:00:33.427Z</time>
      </trkpt>
      <trkpt lat="55.77527" lon="26.53368">
        <ele>147.102261</ele>
        <time>2020-10-07T03:01:24.942Z</time>
      </trkpt>
      <trkpt lat="55.77446" lon="26.53458">
        <ele>148.339148</ele>
        <time>2020-10-07T03:01:51.366Z</time>
      </trkpt>
      <trkpt lat="55.77377" lon="26.53519">
        <ele>148.501454</ele>
        <time>2020-10-07T03:02:08.742Z</time>
      </trkpt>
      <trkpt lat="55.77327" lon="26.53558">
        <ele>148.217611</ele>
        <time>2020-10-07T03:02:19.748Z</time>
      </trkpt>
      <trkpt lat="55.77209" lon="26.53608">
        <ele>147.686856</ele>
        <time>2020-10-07T03:02:43.071Z</time>
      </trkpt>
      <trkpt lat="55.76771" lon="26.53735">
        <ele>147.391329</ele>
        <time>2020-10-07T03:04:19.301Z</time>
      </trkpt>
      <trkpt lat="55.76623" lon="26.53769">
        <ele>149.313182</ele>
        <time>2020-10-07T03:05:03.343Z</time>
      </trkpt>
      <trkpt lat="55.7661" lon="26.5379">
        <ele>149.617958</ele>
        <time>2020-10-07T03:05:08.900Z</time>
      </trkpt>
      <trkpt lat="55.76389" lon="26.54">
        <ele>153.661686</ele>
        <time>2020-10-07T03:06:21.003Z</time>
      </trkpt>
      <trkpt lat="55.76161" lon="26.54164">
        <ele>156.127124</ele>
        <time>2020-10-07T03:07:26.229Z</time>
      </trkpt>
      <trkpt lat="55.75774" lon="26.54427">
        <ele>158.241044</ele>
        <time>2020-10-07T03:09:08.050Z</time>
      </trkpt>
      <trkpt lat="55.75356" lon="26.54741">
        <ele>155.319911</ele>
        <time>2020-10-07T03:10:37.793Z</time>
      </trkpt>
      <trkpt lat="55.75255" lon="26.54805">
        <ele>154.752162</ele>
        <time>2020-10-07T03:10:59.887Z</time>
      </trkpt>
      <trkpt lat="55.75144" lon="26.54851">
        <ele>154.584487</ele>
        <time>2020-10-07T03:11:24.543Z</time>
      </trkpt>
      <trkpt lat="55.74788" lon="26.5491">
        <ele>154.962729</ele>
        <time>2020-10-07T03:12:46.666Z</time>
      </trkpt>
      <trkpt lat="55.74439" lon="26.54989">
        <ele>154.354537</ele>
        <time>2020-10-07T03:14:03.533Z</time>
      </trkpt>
      <trkpt lat="55.74232" lon="26.55028">
        <ele>152.941733</ele>
        <time>2020-10-07T03:14:44.274Z</time>
      </trkpt>
      <trkpt lat="55.73645" lon="26.5514">
        <ele>149.492197</ele>
        <time>2020-10-07T03:16:44.128Z</time>
      </trkpt>
      <trkpt lat="55.73209" lon="26.55197">
        <ele>149.219001</ele>
        <time>2020-10-07T03:18:21.059Z</time>
      </trkpt>
      <trkpt lat="55.72836" lon="26.55181">
        <ele>149.392253</ele>
        <time>2020-10-07T03:19:44.613Z</time>
      </trkpt>
      <trkpt lat="55.72721" lon="26.55169">
        <ele>149.588037</ele>
        <time>2020-10-07T03:20:11.715Z</time>
      </trkpt>
      <trkpt lat="55.72707" lon="26.55167">
        <ele>149.581126</ele>
        <time>2020-10-07T03:20:14.912Z</time>
      </trkpt>
      <trkpt lat="55.72669" lon="26.55166">
        <ele>149.514395</ele>
        <time>2020-10-07T03:20:23.669Z</time>
      </trkpt>
      <trkpt lat="55.7262" lon="26.55158">
        <ele>149.430187</ele>
        <time>2020-10-07T03:20:34.383Z</time>
      </trkpt>
      <trkpt lat="55.72574" lon="26.5515">
        <ele>149.351183</ele>
        <time>2020-10-07T03:20:44.029Z</time>
      </trkpt>
      <trkpt lat="55.72428" lon="26.55124">
        <ele>149.081891</ele>
        <time>2020-10-07T03:21:14.109Z</time>
      </trkpt>
      <trkpt lat="55.72282" lon="26.55082">
        <ele>149.503739</ele>
        <time>2020-10-07T03:21:49.215Z</time>
      </trkpt>
      <trkpt lat="55.72159" lon="26.55047">
        <ele>150.341302</ele>
        <time>2020-10-07T03:22:21.831Z</time>
      </trkpt>
      <trkpt lat="55.72093" lon="26.55028">
        <ele>150.680864</ele>
        <time>2020-10-07T03:22:38.921Z</time>
      </trkpt>
      <trkpt lat="55.72076" lon="26.55023">
        <ele>150.767804</ele>
        <time>2020-10-07T03:22:43.084Z</time>
      </trkpt>
      <trkpt lat="55.72017" lon="26.55006">
        <ele>151.070579</ele>
        <time>2020-10-07T03:22:57.002Z</time>
      </trkpt>
      <trkpt lat="55.71556" lon="26.54874">
        <ele>150.972721</ele>
        <time>2020-10-07T03:24:39.003Z</time>
      </trkpt>
      <trkpt lat="55.71513" lon="26.54866">
        <ele>151.051855</ele>
        <time>2020-10-07T03:24:49.042Z</time>
      </trkpt>
      <trkpt lat="55.71469" lon="26.54854">
        <ele>151.143827</ele>
        <time>2020-10-07T03:25:00.751Z</time>
      </trkpt>
      <trkpt lat="55.70965" lon="26.54698">
        <ele>155.780215</ele>
        <time>2020-10-07T03:27:28.023Z</time>
      </trkpt>
      <trkpt lat="55.7088" lon="26.5468">
        <ele>155.544054</ele>
        <time>2020-10-07T03:27:48.357Z</time>
      </trkpt>
      <trkpt lat="55.70784" lon="26.5467">
        <ele>154.837099</ele>
        <time>2020-10-07T03:28:09.208Z</time>
      </trkpt>
      <trkpt lat="55.7062" lon="26.54682">
        <ele>153.105854</ele>
        <time>2020-10-07T03:28:43.980Z</time>
      </trkpt>
      <trkpt lat="55.70524" lon="26.54698">
        <ele>152.441335</ele>
        <time>2020-10-07T03:29:05.397Z</time>
      </trkpt>
      <trkpt lat="55.7042" lon="26.54731">
        <ele>152.029101</ele>
        <time>2020-10-07T03:29:30.452Z</time>
      </trkpt>
      <trkpt lat="55.70366" lon="26.54757">
        <ele>152.009762</ele>
        <time>2020-10-07T03:29:44.312Z</time>
      </trkpt>
      <trkpt lat="55.70149" lon="26.5489">
        <ele>152.6592</ele>
        <time>2020-10-07T03:30:43.282Z</time>
      </trkpt>
      <trkpt lat="55.69976" lon="26.55027">
        <ele>153.815371</ele>
        <time>2020-10-07T03:31:36.041Z</time>
      </trkpt>
      <trkpt lat="55.69853" lon="26.55168">
        <ele>154.676691</ele>
        <time>2020-10-07T03:32:15.968Z</time>
      </trkpt>
      <trkpt lat="55.69727" lon="26.55337">
        <ele>155.326073</ele>
        <time>2020-10-07T03:32:56.861Z</time>
      </trkpt>
      <trkpt lat="55.69472" lon="26.5572">
        <ele>156.496619</ele>
        <time>2020-10-07T03:34:24.821Z</time>
      </trkpt>
      <trkpt lat="55.69378" lon="26.55847">
        <ele>156.53569</ele>
        <time>2020-10-07T03:34:54.595Z</time>
      </trkpt>
      <trkpt lat="55.69349" lon="26.559">
        <ele>156.549462</ele>
        <time>2020-10-07T03:35:04.719Z</time>
      </trkpt>
      <trkpt lat="55.6934" lon="26.55916">
        <ele>156.510966</ele>
        <time>2020-10-07T03:35:07.748Z</time>
      </trkpt>
      <trkpt lat="55.69216" lon="26.56091">
        <ele>155.785311</ele>
        <time>2020-10-07T03:35:44.531Z</time>
      </trkpt>
      <trkpt lat="55.69126" lon="26.56229">
        <ele>154.693666</ele>
        <time>2020-10-07T03:36:10.718Z</time>
      </trkpt>
      <trkpt lat="55.69083" lon="26.56304">
        <ele>154.109908</ele>
        <time>2020-10-07T03:36:23.583Z</time>
      </trkpt>
      <trkpt lat="55.68991" lon="26.56431">
        <ele>152.749095</ele>
        <time>2020-10-07T03:36:48.131Z</time>
      </trkpt>
      <trkpt lat="55.68863" lon="26.56628">
        <ele>151.466391</ele>
        <time>2020-10-07T03:37:24.907Z</time>
      </trkpt>
      <trkpt lat="55.68707" lon="26.56835">
        <ele>151.787924</ele>
        <time>2020-10-07T03:38:15.041Z</time>
      </trkpt>
      <trkpt lat="55.68689" lon="26.56855">
        <ele>151.915328</ele>
        <time>2020-10-07T03:38:21.094Z</time>
      </trkpt>
      <trkpt lat="55.6857" lon="26.56991">
        <ele>153.344182</ele>
        <time>2020-10-07T03:39:03.131Z</time>
      </trkpt>
      <trkpt lat="55.68338" lon="26.57219">
        <ele>156.539569</ele>
        <time>2020-10-07T03:40:22.271Z</time>
      </trkpt>
      <trkpt lat="55.68114" lon="26.57465">
        <ele>157.170951</ele>
        <time>2020-10-07T03:41:34.118Z</time>
      </trkpt>
      <trkpt lat="55.6774" lon="26.57854">
        <ele>153.147535</ele>
        <time>2020-10-07T03:43:06.318Z</time>
      </trkpt>
      <trkpt lat="55.67644" lon="26.57961">
        <ele>152.012723</ele>
        <time>2020-10-07T03:43:30.888Z</time>
      </trkpt>
      <trkpt lat="55.67609" lon="26.58018">
        <ele>151.563906</ele>
        <time>2020-10-07T03:43:40.992Z</time>
      </trkpt>
      <trkpt lat="55.67587" lon="26.58065">
        <ele>151.240508</ele>
        <time>2020-10-07T03:43:48.443Z</time>
      </trkpt>
      <trkpt lat="55.67579" lon="26.5808">
        <ele>151.142481</ele>
        <time>2020-10-07T03:43:51.165Z</time>
      </trkpt>
      <trkpt lat="55.67571" lon="26.58108">
        <ele>151.204779</ele>
        <time>2020-10-07T03:43:55.358Z</time>
      </trkpt>
      <trkpt lat="55.67556" lon="26.58172">
        <ele>151.346155</ele>
        <time>2020-10-07T03:44:05.258Z</time>
      </trkpt>
      <trkpt lat="55.67556" lon="26.58173">
        <ele>151.347775</ele>
        <time>2020-10-07T03:44:05.329Z</time>
      </trkpt>
      <trkpt lat="55.67534" lon="26.58279">
        <ele>151.575805</ele>
        <time>2020-10-07T03:44:22.613Z</time>
      </trkpt>
      <trkpt lat="55.67524" lon="26.5831">
        <ele>151.648656</ele>
        <time>2020-10-07T03:44:27.476Z</time>
      </trkpt>
      <trkpt lat="55.67521" lon="26.5832">
        <ele>151.669999</ele>
        <time>2020-10-07T03:44:29.025Z</time>
      </trkpt>
      <trkpt lat="55.67517" lon="26.58332">
        <ele>151.699271</ele>
        <time>2020-10-07T03:44:31.177Z</time>
      </trkpt>
      <trkpt lat="55.67517" lon="26.58335">
        <ele>151.705795</ele>
        <time>2020-10-07T03:44:31.659Z</time>
      </trkpt>
      <trkpt lat="55.67494" lon="26.58395">
        <ele>151.997808</ele>
        <time>2020-10-07T03:44:48.158Z</time>
      </trkpt>
      <trkpt lat="55.67481" lon="26.58445">
        <ele>152.35042</ele>
        <time>2020-10-07T03:45:00.987Z</time>
      </trkpt>
      <trkpt lat="55.67472" lon="26.58492">
        <ele>152.666278</ele>
        <time>2020-10-07T03:45:12.862Z</time>
      </trkpt>
      <trkpt lat="55.67452" lon="26.58669">
        <ele>153.82217</ele>
        <time>2020-10-07T03:45:56.421Z</time>
      </trkpt>
      <trkpt lat="55.67419" lon="26.58904">
        <ele>154.298499</ele>
        <time>2020-10-07T03:46:50.757Z</time>
      </trkpt>
      <trkpt lat="55.67405" lon="26.58952">
        <ele>154.404001</ele>
        <time>2020-10-07T03:47:01.666Z</time>
      </trkpt>
      <trkpt lat="55.67382" lon="26.58978">
        <ele>154.243526</ele>
        <time>2020-10-07T03:47:10.980Z</time>
      </trkpt>
      <trkpt lat="55.67348" lon="26.59005">
        <ele>153.691575</ele>
        <time>2020-10-07T03:47:23.504Z</time>
      </trkpt>
      <trkpt lat="55.67289" lon="26.5905">
        <ele>152.735821</ele>
        <time>2020-10-07T03:47:44.304Z</time>
      </trkpt>
      <trkpt lat="55.67257" lon="26.59064">
        <ele>152.237457</ele>
        <time>2020-10-07T03:47:54.858Z</time>
      </trkpt>
      <trkpt lat="55.67217" lon="26.59069">
        <ele>151.639119</ele>
        <time>2020-10-07T03:48:07.347Z</time>
      </trkpt>
      <trkpt lat="55.67098" lon="26.5905">
        <ele>149.879636</ele>
        <time>2020-10-07T03:48:45.271Z</time>
      </trkpt>
      <trkpt lat="55.67052" lon="26.59052">
        <ele>149.195441</ele>
        <time>2020-10-07T03:49:01.392Z</time>
      </trkpt>
      <trkpt lat="55.67028" lon="26.59051">
        <ele>149.100728</ele>
        <time>2020-10-07T03:49:09.865Z</time>
      </trkpt>
      <trkpt lat="55.6701" lon="26.5905">
        <ele>149.085382</ele>
        <time>2020-10-07T03:49:16.549Z</time>
      </trkpt>
      <trkpt lat="55.66957" lon="26.59052">
        <ele>149.040411</ele>
        <time>2020-10-07T03:49:35.771Z</time>
      </trkpt>
      <trkpt lat="55.66872" lon="26.59038">
        <ele>148.96805</ele>
        <time>2020-10-07T03:50:08.065Z</time>
      </trkpt>
      <trkpt lat="55.66849" lon="26.5902">
        <ele>149.011122</ele>
        <time>2020-10-07T03:50:17.627Z</time>
      </trkpt>
      <trkpt lat="55.6674" lon="26.58905">
        <ele>149.310067</ele>
        <time>2020-10-07T03:51:05.155Z</time>
      </trkpt>
      <trkpt lat="55.6666" lon="26.58824">
        <ele>150.082053</ele>
        <time>2020-10-07T03:51:41.724Z</time>
      </trkpt>
      <trkpt lat="55.66599" lon="26.58547">
        <ele>152.064685</ele>
        <time>2020-10-07T03:52:53.854Z</time>
      </trkpt>
      <trkpt lat="55.66562" lon="26.58454">
        <ele>152.847398</ele>
        <time>2020-10-07T03:53:21.651Z</time>
      </trkpt>
      <trkpt lat="55.66527" lon="26.58325">
        <ele>153.68749</ele>
        <time>2020-10-07T03:53:54.826Z</time>
      </trkpt>
      <trkpt lat="55.66476" lon="26.58241">
        <ele>153.746173</ele>
        <time>2020-10-07T03:54:21.977Z</time>
      </trkpt>
      <trkpt lat="55.66388" lon="26.58175">
        <ele>153.826786</ele>
        <time>2020-10-07T03:54:56.786Z</time>
      </trkpt>
      <trkpt lat="55.66359" lon="26.58128">
        <ele>153.109793</ele>
        <time>2020-10-07T03:55:10.196Z</time>
      </trkpt>
      <trkpt lat="55.66342" lon="26.58062">
        <ele>152.310608</ele>
        <time>2020-10-07T03:55:23.917Z</time>
      </trkpt>
      <trkpt lat="55.66327" lon="26.58041">
        <ele>151.938248</ele>
        <time>2020-10-07T03:55:30.193Z</time>
      </trkpt>
      <trkpt lat="55.66258" lon="26.57976">
        <ele>150.429272</ele>
        <time>2020-10-07T03:55:53.493Z</time>
      </trkpt>
      <trkpt lat="55.66234" lon="26.5789">
        <ele>148.68301</ele>
        <time>2020-10-07T03:56:09.335Z</time>
      </trkpt>
      <trkpt lat="55.66214" lon="26.57863">
        <ele>147.863793</ele>
        <time>2020-10-07T03:56:16.577Z</time>
      </trkpt>
      <trkpt lat="55.66168" lon="26.57811">
        <ele>146.056181</ele>
        <time>2020-10-07T03:56:32.381Z</time>
      </trkpt>
      <trkpt lat="55.66171" lon="26.57759">
        <ele>145.080061</ele>
        <time>2020-10-07T03:56:52.943Z</time>
      </trkpt>
      <trkpt lat="55.66164" lon="26.57625">
        <ele>143.651979</ele>
        <time>2020-10-07T03:57:45.714Z</time>
      </trkpt>
      <trkpt lat="55.66105" lon="26.57245">
        <ele>142.15541</ele>
        <time>2020-10-07T04:00:21.181Z</time>
      </trkpt>
      <trkpt lat="55.66097" lon="26.57206">
        <ele>142.198837</ele>
        <time>2020-10-07T04:00:37.177Z</time>
      </trkpt>
      <trkpt lat="55.66089" lon="26.57177">
        <ele>142.233913</ele>
        <time>2020-10-07T04:00:50.075Z</time>
      </trkpt>
      <trkpt lat="55.66074" lon="26.57129">
        <ele>142.292077</ele>
        <time>2020-10-07T04:01:11.506Z</time>
      </trkpt>
      <trkpt lat="55.66059" lon="26.57082">
        <ele>142.697763</ele>
        <time>2020-10-07T04:01:20.403Z</time>
      </trkpt>
      <trkpt lat="55.66046" lon="26.57038">
        <ele>143.220281</ele>
        <time>2020-10-07T04:01:28.618Z</time>
      </trkpt>
      <trkpt lat="55.66036" lon="26.56997">
        <ele>143.700773</ele>
        <time>2020-10-07T04:01:36.388Z</time>
      </trkpt>
      <trkpt lat="55.66028" lon="26.56949">
        <ele>144.237014</ele>
        <time>2020-10-07T04:01:44.839Z</time>
      </trkpt>
      <trkpt lat="55.66025" lon="26.56913">
        <ele>144.626515</ele>
        <time>2020-10-07T04:01:50.967Z</time>
      </trkpt>
      <trkpt lat="55.66024" lon="26.56851">
        <ele>145.286607</ele>
        <time>2020-10-07T04:02:01.546Z</time>
      </trkpt>
      <trkpt lat="55.66023" lon="26.56822">
        <ele>145.597455</ele>
        <time>2020-10-07T04:02:06.710Z</time>
      </trkpt>
      <trkpt lat="55.6602" lon="26.56767">
        <ele>146.29391</ele>
        <time>2020-10-07T04:02:16.181Z</time>
      </trkpt>
      <trkpt lat="55.66018" lon="26.56587">
        <ele>148.67911</ele>
        <time>2020-10-07T04:02:48.564Z</time>
      </trkpt>
      <trkpt lat="55.66022" lon="26.56512">
        <ele>149.673795</ele>
        <time>2020-10-07T04:03:01.317Z</time>
      </trkpt>
      <trkpt lat="55.66022" lon="26.56493">
        <ele>149.913985</ele>
        <time>2020-10-07T04:03:04.934Z</time>
      </trkpt>
      <trkpt lat="55.66022" lon="26.56296">
        <ele>153.781249</ele>
        <time>2020-10-07T04:03:43.870Z</time>
      </trkpt>
      <trkpt lat="55.66034" lon="26.55863">
        <ele>163.145248</ele>
        <time>2020-10-07T04:05:20.305Z</time>
      </trkpt>
      <trkpt lat="55.66035" lon="26.55836">
        <ele>163.4738</ele>
        <time>2020-10-07T04:05:26.098Z</time>
      </trkpt>
      <trkpt lat="55.66061" lon="26.55429">
        <ele>165.855253</ele>
        <time>2020-10-07T04:06:28.229Z</time>
      </trkpt>
      <trkpt lat="55.6615" lon="26.54524">
        <ele>162.290879</ele>
        <time>2020-10-07T04:08:10.539Z</time>
      </trkpt>
      <trkpt lat="55.66161" lon="26.54217">
        <ele>159.711415</ele>
        <time>2020-10-07T04:08:41.963Z</time>
      </trkpt>
      <trkpt lat="55.66176" lon="26.54079">
        <ele>158.414688</ele>
        <time>2020-10-07T04:08:56.345Z</time>
      </trkpt>
      <trkpt lat="55.66188" lon="26.53966">
        <ele>157.344203</ele>
        <time>2020-10-07T04:09:08.175Z</time>
      </trkpt>
      <trkpt lat="55.66203" lon="26.53826">
        <ele>156.171212</ele>
        <time>2020-10-07T04:09:22.952Z</time>
      </trkpt>
      <trkpt lat="55.66213" lon="26.53749">
        <ele>155.52145</ele>
        <time>2020-10-07T04:09:31.265Z</time>
      </trkpt>
      <trkpt lat="55.66226" lon="26.5366">
        <ele>154.764366</ele>
        <time>2020-10-07T04:09:40.911Z</time>
      </trkpt>
      <trkpt lat="55.66244" lon="26.53534">
        <ele>153.558707</ele>
        <time>2020-10-07T04:09:54.426Z</time>
      </trkpt>
      <trkpt lat="55.66258" lon="26.53436">
        <ele>152.614132</ele>
        <time>2020-10-07T04:10:04.729Z</time>
      </trkpt>
      <trkpt lat="55.66279" lon="26.53343">
        <ele>151.686949</ele>
        <time>2020-10-07T04:10:14.944Z</time>
      </trkpt>
      <trkpt lat="55.66281" lon="26.53335">
        <ele>151.593114</ele>
        <time>2020-10-07T04:10:15.921Z</time>
      </trkpt>
      <trkpt lat="55.66285" lon="26.53322">
        <ele>151.450687</ele>
        <time>2020-10-07T04:10:17.300Z</time>
      </trkpt>
      <trkpt lat="55.66329" lon="26.53214">
        <ele>150.171622</ele>
        <time>2020-10-07T04:10:30.592Z</time>
      </trkpt>
      <trkpt lat="55.66391" lon="26.53061">
        <ele>148.538451</ele>
        <time>2020-10-07T04:10:49.817Z</time>
      </trkpt>
      <trkpt lat="55.66494" lon="26.52803">
        <ele>147.373299</ele>
        <time>2020-10-07T04:11:26.357Z</time>
      </trkpt>
      <trkpt lat="55.66508" lon="26.52753">
        <ele>147.369156</ele>
        <time>2020-10-07T04:11:33.411Z</time>
      </trkpt>
      <trkpt lat="55.66516" lon="26.52677">
        <ele>147.363493</ele>
        <time>2020-10-07T04:11:43.041Z</time>
      </trkpt>
      <trkpt lat="55.66525" lon="26.52368">
        <ele>147.65003</ele>
        <time>2020-10-07T04:12:23.028Z</time>
      </trkpt>
      <trkpt lat="55.66536" lon="26.52283">
        <ele>147.819348</ele>
        <time>2020-10-07T04:12:34.805Z</time>
      </trkpt>
      <trkpt lat="55.66571" lon="26.51989">
        <ele>148.615458</ele>
        <time>2020-10-07T04:13:16.726Z</time>
      </trkpt>
      <trkpt lat="55.66605" lon="26.51761">
        <ele>149.052831</ele>
        <time>2020-10-07T04:13:48.318Z</time>
      </trkpt>
      <trkpt lat="55.66626" lon="26.5166">
        <ele>149.17354</ele>
        <time>2020-10-07T04:14:02.019Z</time>
      </trkpt>
      <trkpt lat="55.66643" lon="26.51604">
        <ele>149.244716</ele>
        <time>2020-10-07T04:14:10.429Z</time>
      </trkpt>
      <trkpt lat="55.66676" lon="26.51536">
        <ele>149.220181</ele>
        <time>2020-10-07T04:14:21.695Z</time>
      </trkpt>
      <trkpt lat="55.66723" lon="26.51445">
        <ele>149.166932</ele>
        <time>2020-10-07T04:14:36.837Z</time>
      </trkpt>
      <trkpt lat="55.66717" lon="26.51431">
        <ele>149.159201</ele>
        <time>2020-10-07T04:14:39.137Z</time>
      </trkpt>
      <trkpt lat="55.66709" lon="26.51418">
        <ele>149.150719</ele>
        <time>2020-10-07T04:14:41.631Z</time>
      </trkpt>
      <trkpt lat="55.66597" lon="26.51458">
        <ele>149.074379</ele>
        <time>2020-10-07T04:15:06.313Z</time>
      </trkpt>
      <trkpt lat="55.66426" lon="26.51517">
        <ele>149.184497</ele>
        <time>2020-10-07T04:15:44.914Z</time>
      </trkpt>
      <trkpt lat="55.66379" lon="26.51516">
        <ele>149.313213</ele>
        <time>2020-10-07T04:15:56.286Z</time>
      </trkpt>
      <trkpt lat="55.66351" lon="26.51499">
        <ele>149.394109</ele>
        <time>2020-10-07T04:16:03.448Z</time>
      </trkpt>
      <trkpt lat="55.66238" lon="26.51403">
        <ele>149.580477</ele>
        <time>2020-10-07T04:16:33.147Z</time>
      </trkpt>
      <trkpt lat="55.66165" lon="26.51329">
        <ele>149.657902</ele>
        <time>2020-10-07T04:16:51.558Z</time>
      </trkpt>
      <trkpt lat="55.66056" lon="26.51156">
        <ele>149.656616</ele>
        <time>2020-10-07T04:17:22.897Z</time>
      </trkpt>
      <trkpt lat="55.65909" lon="26.50967">
        <ele>150.56019</ele>
        <time>2020-10-07T04:18:07.178Z</time>
      </trkpt>
      <trkpt lat="55.65851" lon="26.50895">
        <ele>151.179583</ele>
        <time>2020-10-07T04:18:26.011Z</time>
      </trkpt>
      <trkpt lat="55.65828" lon="26.50864">
        <ele>151.530501</ele>
        <time>2020-10-07T04:18:34.036Z</time>
      </trkpt>
      <trkpt lat="55.65628" lon="26.50635">
        <ele>153.889726</ele>
        <time>2020-10-07T04:19:38.600Z</time>
      </trkpt>
      <trkpt lat="55.65543" lon="26.50546">
        <ele>154.195786</ele>
        <time>2020-10-07T04:20:01.164Z</time>
      </trkpt>
      <trkpt lat="55.65468" lon="26.50481">
        <ele>153.748824</ele>
        <time>2020-10-07T04:20:18.283Z</time>
      </trkpt>
      <trkpt lat="55.65268" lon="26.50342">
        <ele>152.102178</ele>
        <time>2020-10-07T04:20:59.919Z</time>
      </trkpt>
      <trkpt lat="55.65235" lon="26.50276">
        <ele>151.759612</ele>
        <time>2020-10-07T04:21:09.927Z</time>
      </trkpt>
      <trkpt lat="55.65213" lon="26.50205">
        <ele>151.533585</ele>
        <time>2020-10-07T04:21:19.338Z</time>
      </trkpt>
      <trkpt lat="55.65186" lon="26.50094">
        <ele>151.198526</ele>
        <time>2020-10-07T04:21:33.513Z</time>
      </trkpt>
      <trkpt lat="55.65172" lon="26.50032">
        <ele>151.012129</ele>
        <time>2020-10-07T04:21:41.512Z</time>
      </trkpt>
      <trkpt lat="55.65152" lon="26.4996">
        <ele>150.801455</ele>
        <time>2020-10-07T04:21:51.114Z</time>
      </trkpt>
      <trkpt lat="55.65064" lon="26.49687">
        <ele>149.804675</ele>
        <time>2020-10-07T04:22:27.772Z</time>
      </trkpt>
      <trkpt lat="55.64861" lon="26.49055">
        <ele>145.988134</ele>
        <time>2020-10-07T04:23:46.690Z</time>
      </trkpt>
      <trkpt lat="55.64775" lon="26.48793">
        <ele>145.377396</ele>
        <time>2020-10-07T04:24:22.677Z</time>
      </trkpt>
      <trkpt lat="55.64747" lon="26.48729">
        <ele>145.402906</ele>
        <time>2020-10-07T04:24:32.990Z</time>
      </trkpt>
      <trkpt lat="55.64351" lon="26.48175">
        <ele>149.245557</ele>
        <time>2020-10-07T04:26:37.463Z</time>
      </trkpt>
      <trkpt lat="55.64209" lon="26.48013">
        <ele>153.66494</ele>
        <time>2020-10-07T04:27:36.396Z</time>
      </trkpt>
      <trkpt lat="55.64189" lon="26.47991">
        <ele>154.475675</ele>
        <time>2020-10-07T04:27:46.070Z</time>
      </trkpt>
      <trkpt lat="55.64157" lon="26.47949">
        <ele>155.853127</ele>
        <time>2020-10-07T04:28:01.077Z</time>
      </trkpt>
      <trkpt lat="55.64139" lon="26.47902">
        <ele>156.982876</ele>
        <time>2020-10-07T04:28:13.418Z</time>
      </trkpt>
      <trkpt lat="55.64135" lon="26.47845">
        <ele>157.248902</ele>
        <time>2020-10-07T04:28:24.727Z</time>
      </trkpt>
      <trkpt lat="55.64149" lon="26.47689">
        <ele>157.64645</ele>
        <time>2020-10-07T04:28:49.172Z</time>
      </trkpt>
      <trkpt lat="55.64142" lon="26.47643">
        <ele>157.765815</ele>
        <time>2020-10-07T04:28:54.265Z</time>
      </trkpt>
      <trkpt lat="55.64121" lon="26.47607">
        <ele>157.894644</ele>
        <time>2020-10-07T04:28:59.279Z</time>
      </trkpt>
      <trkpt lat="55.64049" lon="26.47536">
        <ele>155.386731</ele>
        <time>2020-10-07T04:29:12.575Z</time>
      </trkpt>
      <trkpt lat="55.63961" lon="26.47459">
        <ele>152.10319</ele>
        <time>2020-10-07T04:29:28.027Z</time>
      </trkpt>
      <trkpt lat="55.63801" lon="26.47369">
        <ele>148.261861</ele>
        <time>2020-10-07T04:29:56.785Z</time>
      </trkpt>
      <trkpt lat="55.63694" lon="26.47293">
        <ele>146.915044</ele>
        <time>2020-10-07T04:30:19.482Z</time>
      </trkpt>
      <trkpt lat="55.63588" lon="26.47203">
        <ele>145.88329</ele>
        <time>2020-10-07T04:30:42.805Z</time>
      </trkpt>
      <trkpt lat="55.63532" lon="26.47148">
        <ele>145.460794</ele>
        <time>2020-10-07T04:30:55.559Z</time>
      </trkpt>
      <trkpt lat="55.63488" lon="26.47092">
        <ele>145.100521</ele>
        <time>2020-10-07T04:31:06.549Z</time>
      </trkpt>
      <trkpt lat="55.63354" lon="26.46908">
        <ele>144.3642</ele>
        <time>2020-10-07T04:31:41.577Z</time>
      </trkpt>
      <trkpt lat="55.63138" lon="26.46611">
        <ele>143.495319</ele>
        <time>2020-10-07T04:32:40.177Z</time>
      </trkpt>
      <trkpt lat="55.6311" lon="26.46581">
        <ele>143.352048</ele>
        <time>2020-10-07T04:32:46.914Z</time>
      </trkpt>
      <trkpt lat="55.63103" lon="26.46577">
        <ele>143.319312</ele>
        <time>2020-10-07T04:32:48.422Z</time>
      </trkpt>
      <trkpt lat="55.63082" lon="26.46564">
        <ele>143.221931</ele>
        <time>2020-10-07T04:32:52.949Z</time>
      </trkpt>
      <trkpt lat="55.6305" lon="26.46559">
        <ele>143.08285</ele>
        <time>2020-10-07T04:32:59.353Z</time>
      </trkpt>
      <trkpt lat="55.62936" lon="26.4657">
        <ele>142.857918</ele>
        <time>2020-10-07T04:33:22.845Z</time>
      </trkpt>
      <trkpt lat="55.62912" lon="26.46559">
        <ele>142.829329</ele>
        <time>2020-10-07T04:33:28.197Z</time>
      </trkpt>
      <trkpt lat="55.62894" lon="26.46541">
        <ele>142.805892</ele>
        <time>2020-10-07T04:33:32.634Z</time>
      </trkpt>
      <trkpt lat="55.62877" lon="26.46501">
        <ele>142.773395</ele>
        <time>2020-10-07T04:33:38.983Z</time>
      </trkpt>
      <trkpt lat="55.62727" lon="26.46044">
        <ele>145.105548</ele>
        <time>2020-10-07T04:34:57.462Z</time>
      </trkpt>
      <trkpt lat="55.62713" lon="26.46012">
        <ele>145.268867</ele>
        <time>2020-10-07T04:35:03.540Z</time>
      </trkpt>
      <trkpt lat="55.62691" lon="26.45985">
        <ele>145.456858</ele>
        <time>2020-10-07T04:35:09.878Z</time>
      </trkpt>
      <trkpt lat="55.62679" lon="26.4598">
        <ele>145.539621</ele>
        <time>2020-10-07T04:35:13.198Z</time>
      </trkpt>
      <trkpt lat="55.62673" lon="26.45978">
        <ele>145.586455</ele>
        <time>2020-10-07T04:35:14.730Z</time>
      </trkpt>
      <trkpt lat="55.6264" lon="26.45991">
        <ele>145.524818</ele>
        <time>2020-10-07T04:35:22.683Z</time>
      </trkpt>
      <trkpt lat="55.62347" lon="26.46272">
        <ele>142.515422</ele>
        <time>2020-10-07T04:36:26.422Z</time>
      </trkpt>
      <trkpt lat="55.62307" lon="26.46303">
        <ele>142.364059</ele>
        <time>2020-10-07T04:36:35.164Z</time>
      </trkpt>
      <trkpt lat="55.62271" lon="26.46314">
        <ele>142.28576</ele>
        <time>2020-10-07T04:36:42.539Z</time>
      </trkpt>
      <trkpt lat="55.62063" lon="26.4633">
        <ele>142.383391</ele>
        <time>2020-10-07T04:37:30.313Z</time>
      </trkpt>
      <trkpt lat="55.62022" lon="26.46346">
        <ele>142.520957</ele>
        <time>2020-10-07T04:37:40.678Z</time>
      </trkpt>
      <trkpt lat="55.62012" lon="26.46353">
        <ele>142.556215</ele>
        <time>2020-10-07T04:37:43.347Z</time>
      </trkpt>
      <trkpt lat="55.62005" lon="26.46358">
        <ele>142.579734</ele>
        <time>2020-10-07T04:37:45.061Z</time>
      </trkpt>
      <trkpt lat="55.61878" lon="26.4646">
        <ele>143.446261</ele>
        <time>2020-10-07T04:38:19.606Z</time>
      </trkpt>
      <trkpt lat="55.61835" lon="26.46487">
        <ele>143.744481</ele>
        <time>2020-10-07T04:38:30.915Z</time>
      </trkpt>
      <trkpt lat="55.61801" lon="26.46487">
        <ele>144.018689</ele>
        <time>2020-10-07T04:38:39.523Z</time>
      </trkpt>
      <trkpt lat="55.61713" lon="26.46424">
        <ele>144.860365</ele>
        <time>2020-10-07T04:39:03.601Z</time>
      </trkpt>
      <trkpt lat="55.61674" lon="26.4641">
        <ele>145.211001</ele>
        <time>2020-10-07T04:39:14.109Z</time>
      </trkpt>
      <trkpt lat="55.61639" lon="26.46417">
        <ele>145.598757</ele>
        <time>2020-10-07T04:39:23.687Z</time>
      </trkpt>
      <trkpt lat="55.61601" lon="26.46448">
        <ele>146.23667</ele>
        <time>2020-10-07T04:39:35.025Z</time>
      </trkpt>
      <trkpt lat="55.61589" lon="26.46464">
        <ele>146.467886</ele>
        <time>2020-10-07T04:39:39.232Z</time>
      </trkpt>
      <trkpt lat="55.61578" lon="26.46484">
        <ele>146.707468</ele>
        <time>2020-10-07T04:39:43.643Z</time>
      </trkpt>
      <trkpt lat="55.61351" lon="26.47036">
        <ele>152.367258</ele>
        <time>2020-10-07T04:41:34.692Z</time>
      </trkpt>
      <trkpt lat="55.61338" lon="26.47059">
        <ele>152.603322</ele>
        <time>2020-10-07T04:41:39.965Z</time>
      </trkpt>
      <trkpt lat="55.61183" lon="26.47266">
        <ele>153.478323</ele>
        <time>2020-10-07T04:42:28.075Z</time>
      </trkpt>
      <trkpt lat="55.61102" lon="26.47363">
        <ele>152.326937</ele>
        <time>2020-10-07T04:42:46.326Z</time>
      </trkpt>
      <trkpt lat="55.60992" lon="26.47458">
        <ele>149.910972</ele>
        <time>2020-10-07T04:43:07.219Z</time>
      </trkpt>
      <trkpt lat="55.60957" lon="26.47472">
        <ele>149.279415</ele>
        <time>2020-10-07T04:43:13.294Z</time>
      </trkpt>
      <trkpt lat="55.60928" lon="26.47473">
        <ele>148.770136</ele>
        <time>2020-10-07T04:43:18.291Z</time>
      </trkpt>
      <trkpt lat="55.60846" lon="26.47443">
        <ele>147.307646</ele>
        <time>2020-10-07T04:43:33.407Z</time>
      </trkpt>
      <trkpt lat="55.60806" lon="26.47423">
        <ele>146.772774</ele>
        <time>2020-10-07T04:43:41.472Z</time>
      </trkpt>
      <trkpt lat="55.60709" lon="26.47357">
        <ele>146.437846</ele>
        <time>2020-10-07T04:44:03.508Z</time>
      </trkpt>
      <trkpt lat="55.60508" lon="26.47225">
        <ele>146.182528</ele>
        <time>2020-10-07T04:44:51.593Z</time>
      </trkpt>
      <trkpt lat="55.60464" lon="26.47204">
        <ele>146.102204</ele>
        <time>2020-10-07T04:45:01.314Z</time>
      </trkpt>
      <trkpt lat="55.60318" lon="26.47188">
        <ele>145.519334</ele>
        <time>2020-10-07T04:45:31.632Z</time>
      </trkpt>
      <trkpt lat="55.6026" lon="26.47188">
        <ele>145.321214</ele>
        <time>2020-10-07T04:45:43.635Z</time>
      </trkpt>
      <trkpt lat="55.60249" lon="26.47192">
        <ele>145.2842</ele>
        <time>2020-10-07T04:45:45.965Z</time>
      </trkpt>
      <trkpt lat="55.60241" lon="26.47199">
        <ele>145.254967</ele>
        <time>2020-10-07T04:45:47.923Z</time>
      </trkpt>
      <trkpt lat="55.60198" lon="26.47257">
        <ele>145.081095</ele>
        <time>2020-10-07T04:45:59.231Z</time>
      </trkpt>
      <trkpt lat="55.60074" lon="26.47535">
        <ele>144.832094</ele>
        <time>2020-10-07T04:46:42.488Z</time>
      </trkpt>
      <trkpt lat="55.60055" lon="26.47563">
        <ele>144.823994</ele>
        <time>2020-10-07T04:46:48.182Z</time>
      </trkpt>
      <trkpt lat="55.60026" lon="26.47588">
        <ele>144.93313</ele>
        <time>2020-10-07T04:46:55.543Z</time>
      </trkpt>
      <trkpt lat="55.59877" lon="26.47627">
        <ele>146.170542</ele>
        <time>2020-10-07T04:47:34.287Z</time>
      </trkpt>
      <trkpt lat="55.5987" lon="26.47629">
        <ele>146.23224</ele>
        <time>2020-10-07T04:47:36.630Z</time>
      </trkpt>
      <trkpt lat="55.59802" lon="26.47634">
        <ele>146.910424</ele>
        <time>2020-10-07T04:47:55.082Z</time>
      </trkpt>
      <trkpt lat="55.59711" lon="26.47607">
        <ele>147.864283</ele>
        <time>2020-10-07T04:48:20.452Z</time>
      </trkpt>
      <trkpt lat="55.5958" lon="26.47552">
        <ele>148.202029</ele>
        <time>2020-10-07T04:48:51.291Z</time>
      </trkpt>
      <trkpt lat="55.59564" lon="26.47545">
        <ele>148.211172</ele>
        <time>2020-10-07T04:48:54.994Z</time>
      </trkpt>
      <trkpt lat="55.59548" lon="26.47529">
        <ele>148.22057</ele>
        <time>2020-10-07T04:48:58.715Z</time>
      </trkpt>
      <trkpt lat="55.59532" lon="26.47479">
        <ele>148.237927</ele>
        <time>2020-10-07T04:49:05.634Z</time>
      </trkpt>
      <trkpt lat="55.59527" lon="26.47457">
        <ele>148.226673</ele>
        <time>2020-10-07T04:49:08.368Z</time>
      </trkpt>
      <trkpt lat="55.59527" lon="26.47437">
        <ele>148.206147</ele>
        <time>2020-10-07T04:49:10.675Z</time>
      </trkpt>
      <trkpt lat="55.59518" lon="26.46849">
        <ele>147.811208</ele>
        <time>2020-10-07T04:50:23.161Z</time>
      </trkpt>
      <trkpt lat="55.59511" lon="26.46281">
        <ele>149.034874</ele>
        <time>2020-10-07T04:51:38.633Z</time>
      </trkpt>
      <trkpt lat="55.59511" lon="26.46209">
        <ele>149.264912</ele>
        <time>2020-10-07T04:51:49.482Z</time>
      </trkpt>
      <trkpt lat="55.59508" lon="26.4603">
        <ele>150.272845</ele>
        <time>2020-10-07T04:52:17.761Z</time>
      </trkpt>
      <trkpt lat="55.59502" lon="26.45946">
        <ele>150.762554</ele>
        <time>2020-10-07T04:52:30.115Z</time>
      </trkpt>
      <trkpt lat="55.59499" lon="26.45915">
        <ele>150.946525</ele>
        <time>2020-10-07T04:52:35.010Z</time>
      </trkpt>
      <trkpt lat="55.59496" lon="26.45896">
        <ele>151.057253</ele>
        <time>2020-10-07T04:52:37.712Z</time>
      </trkpt>
      <trkpt lat="55.5949" lon="26.45857">
        <ele>151.153687</ele>
        <time>2020-10-07T04:52:43.347Z</time>
      </trkpt>
      <trkpt lat="55.59475" lon="26.45786">
        <ele>151.176724</ele>
        <time>2020-10-07T04:52:53.372Z</time>
      </trkpt>
      <trkpt lat="55.59467" lon="26.45754">
        <ele>151.187355</ele>
        <time>2020-10-07T04:52:57.492Z</time>
      </trkpt>
      <trkpt lat="55.59411" lon="26.4552">
        <ele>151.493331</ele>
        <time>2020-10-07T04:53:28.437Z</time>
      </trkpt>
      <trkpt lat="55.59423" lon="26.4549">
        <ele>151.619964</ele>
        <time>2020-10-07T04:53:33.219Z</time>
      </trkpt>
      <trkpt lat="55.5957" lon="26.45183">
        <ele>153.467591</ele>
        <time>2020-10-07T04:54:32.667Z</time>
      </trkpt>
      <trkpt lat="55.59643" lon="26.45028">
        <ele>154.284455</ele>
        <time>2020-10-07T04:55:03.695Z</time>
      </trkpt>
      <trkpt lat="55.60091" lon="26.44089">
        <ele>155.245451</ele>
        <time>2020-10-07T04:57:40.660Z</time>
      </trkpt>
      <trkpt lat="55.60121" lon="26.44016">
        <ele>155.151733</ele>
        <time>2020-10-07T04:57:52.152Z</time>
      </trkpt>
      <trkpt lat="55.60111" lon="26.44001">
        <ele>155.127358</ele>
        <time>2020-10-07T04:57:54.938Z</time>
      </trkpt>
      <trkpt lat="55.60124" lon="26.4397">
        <ele>155.087804</ele>
        <time>2020-10-07T04:57:59.590Z</time>
      </trkpt>
      <trkpt lat="55.60115" lon="26.43957">
        <ele>155.06563</ele>
        <time>2020-10-07T04:58:02.047Z</time>
      </trkpt>
      <trkpt lat="55.60093" lon="26.43922">
        <ele>155.011032</ele>
        <time>2020-10-07T04:58:08.254Z</time>
      </trkpt>
      <trkpt lat="55.60064" lon="26.43877">
        <ele>154.939933</ele>
        <time>2020-10-07T04:58:16.049Z</time>
      </trkpt>
      <trkpt lat="55.60028" lon="26.4382">
        <ele>154.830703</ele>
        <time>2020-10-07T04:58:26.204Z</time>
      </trkpt>
      <trkpt lat="55.60022" lon="26.43813">
        <ele>154.816297</ele>
        <time>2020-10-07T04:58:27.601Z</time>
      </trkpt>
      <trkpt lat="55.60006" lon="26.43788">
        <ele>154.766554</ele>
        <time>2020-10-07T04:58:32.668Z</time>
      </trkpt>
      <trkpt lat="55.5999" lon="26.43765">
        <ele>154.72157</ele>
        <time>2020-10-07T04:58:37.497Z</time>
      </trkpt>
      <trkpt lat="55.59948" lon="26.43703">
        <ele>154.598426</ele>
        <time>2020-10-07T04:58:49.349Z</time>
      </trkpt>
      <trkpt lat="55.59896" lon="26.43624">
        <ele>154.701615</ele>
        <time>2020-10-07T04:59:03.363Z</time>
      </trkpt>
      <trkpt lat="55.59881" lon="26.43602">
        <ele>154.769175</ele>
        <time>2020-10-07T04:59:07.466Z</time>
      </trkpt>
      <trkpt lat="55.59875" lon="26.43593">
        <ele>154.79931</ele>
        <time>2020-10-07T04:59:09.403Z</time>
      </trkpt>
      <trkpt lat="55.59834" lon="26.43531">
        <ele>154.994175</ele>
        <time>2020-10-07T04:59:22.078Z</time>
      </trkpt>
      <trkpt lat="55.59805" lon="26.4349">
        <ele>155.126765</ele>
        <time>2020-10-07T04:59:31.368Z</time>
      </trkpt>
      <trkpt lat="55.59793" lon="26.43472">
        <ele>155.182306</ele>
        <time>2020-10-07T04:59:35.638Z</time>
      </trkpt>
      <trkpt lat="55.59781" lon="26.43454">
        <ele>155.409752</ele>
        <time>2020-10-07T04:59:40.615Z</time>
      </trkpt>
      <trkpt lat="55.59733" lon="26.43383">
        <ele>156.371802</ele>
        <time>2020-10-07T04:59:59.249Z</time>
      </trkpt>
      <trkpt lat="55.59713" lon="26.43353">
        <ele>156.785535</ele>
        <time>2020-10-07T05:00:07.536Z</time>
      </trkpt>
      <trkpt lat="55.59706" lon="26.43343">
        <ele>156.925957</ele>
        <time>2020-10-07T05:00:10.258Z</time>
      </trkpt>
      <trkpt lat="55.59665" lon="26.4328">
        <ele>157.775329</ele>
        <time>2020-10-07T05:00:26.217Z</time>
      </trkpt>
      <trkpt lat="55.59668" lon="26.43255">
        <ele>157.989195</ele>
        <time>2020-10-07T05:00:29.789Z</time>
      </trkpt>
      <trkpt lat="55.5967" lon="26.43234">
        <ele>157.975184</ele>
        <time>2020-10-07T05:00:32.656Z</time>
      </trkpt>
      <trkpt lat="55.59671" lon="26.43193">
        <ele>157.948314</ele>
        <time>2020-10-07T05:00:38.202Z</time>
      </trkpt>
      <trkpt lat="55.59673" lon="26.4313">
        <ele>157.906702</ele>
        <time>2020-10-07T05:00:46.142Z</time>
      </trkpt>
      <trkpt lat="55.59677" lon="26.43043">
        <ele>157.849466</ele>
        <time>2020-10-07T05:00:56.691Z</time>
      </trkpt>
      <trkpt lat="55.59679" lon="26.4297">
        <ele>157.801599</ele>
        <time>2020-10-07T05:01:04.910Z</time>
      </trkpt>
      <trkpt lat="55.59682" lon="26.42844">
        <ele>157.482076</ele>
        <time>2020-10-07T05:01:18.782Z</time>
      </trkpt>
      <trkpt lat="55.59683" lon="26.42797">
        <ele>157.333542</ele>
        <time>2020-10-07T05:01:24.090Z</time>
      </trkpt>
      <trkpt lat="55.59683" lon="26.42783">
        <ele>157.288881</ele>
        <time>2020-10-07T05:01:25.616Z</time>
      </trkpt>
      <trkpt lat="55.59684" lon="26.42726">
        <ele>157.107683</ele>
        <time>2020-10-07T05:01:32.083Z</time>
      </trkpt>
      <trkpt lat="55.59685" lon="26.42693">
        <ele>157.001786</ele>
        <time>2020-10-07T05:01:36.124Z</time>
      </trkpt>
      <trkpt lat="55.59688" lon="26.42608">
        <ele>156.777843</ele>
        <time>2020-10-07T05:01:46.825Z</time>
      </trkpt>
      <trkpt lat="55.59696" lon="26.42542">
        <ele>156.802216</ele>
        <time>2020-10-07T05:01:55.639Z</time>
      </trkpt>
      <trkpt lat="55.59707" lon="26.42499">
        <ele>156.819331</ele>
        <time>2020-10-07T05:02:01.739Z</time>
      </trkpt>
      <trkpt lat="55.59713" lon="26.42479">
        <ele>156.827395</ele>
        <time>2020-10-07T05:02:04.392Z</time>
      </trkpt>
      <trkpt lat="55.59716" lon="26.42468">
        <ele>156.832195</ele>
        <time>2020-10-07T05:02:05.898Z</time>
      </trkpt>
      <trkpt lat="55.59733" lon="26.42427">
        <ele>156.850505</ele>
        <time>2020-10-07T05:02:12.005Z</time>
      </trkpt>
      <trkpt lat="55.59748" lon="26.42391">
        <ele>156.866749</ele>
        <time>2020-10-07T05:02:17.611Z</time>
      </trkpt>
      <trkpt lat="55.59761" lon="26.42363">
        <ele>156.880017</ele>
        <time>2020-10-07T05:02:22.102Z</time>
      </trkpt>
      <trkpt lat="55.59809" lon="26.42264">
        <ele>157.410794</ele>
        <time>2020-10-07T05:02:40.278Z</time>
      </trkpt>
      <trkpt lat="55.59894" lon="26.42094">
        <ele>158.4576</ele>
        <time>2020-10-07T05:03:15.190Z</time>
      </trkpt>
      <trkpt lat="55.59908" lon="26.42065">
        <ele>158.460944</ele>
        <time>2020-10-07T05:03:20.683Z</time>
      </trkpt>
      <trkpt lat="55.59887" lon="26.42033">
        <ele>158.465215</ele>
        <time>2020-10-07T05:03:27.627Z</time>
      </trkpt>
      <trkpt lat="55.59824" lon="26.41937">
        <ele>158.47822</ele>
        <time>2020-10-07T05:03:46.172Z</time>
      </trkpt>
      <trkpt lat="55.598" lon="26.419">
        <ele>158.483077</ele>
        <time>2020-10-07T05:03:52.365Z</time>
      </trkpt>
      <trkpt lat="55.59774" lon="26.41845">
        <ele>158.145529</ele>
        <time>2020-10-07T05:03:59.966Z</time>
      </trkpt>
      <trkpt lat="55.59755" lon="26.41786">
        <ele>157.756849</ele>
        <time>2020-10-07T05:04:07.080Z</time>
      </trkpt>
      <trkpt lat="55.59738" lon="26.4167">
        <ele>157.074304</ele>
        <time>2020-10-07T05:04:19.904Z</time>
      </trkpt>
      <trkpt lat="55.59735" lon="26.41624">
        <ele>156.804929</ele>
        <time>2020-10-07T05:04:25.274Z</time>
      </trkpt>
      <trkpt lat="55.59736" lon="26.41577">
        <ele>156.602569</ele>
        <time>2020-10-07T05:04:30.604Z</time>
      </trkpt>
      <trkpt lat="55.59739" lon="26.41474">
        <ele>156.315662</ele>
        <time>2020-10-07T05:04:42.376Z</time>
      </trkpt>
      <trkpt lat="55.59774" lon="26.4122">
        <ele>155.800004</ele>
        <time>2020-10-07T05:05:13.216Z</time>
      </trkpt>
      <trkpt lat="55.59785" lon="26.41105">
        <ele>155.844021</ele>
        <time>2020-10-07T05:05:27.642Z</time>
      </trkpt>
      <trkpt lat="55.59771" lon="26.40855">
        <ele>156.800259</ele>
        <time>2020-10-07T05:06:02.276Z</time>
      </trkpt>
      <trkpt lat="55.59761" lon="26.40719">
        <ele>157.861365</ele>
        <time>2020-10-07T05:06:24.819Z</time>
      </trkpt>
      <trkpt lat="55.59747" lon="26.40524">
        <ele>159.648052</ele>
        <time>2020-10-07T05:06:59.354Z</time>
      </trkpt>
      <trkpt lat="55.59739" lon="26.40422">
        <ele>160.650795</ele>
        <time>2020-10-07T05:07:16.199Z</time>
      </trkpt>
      <trkpt lat="55.59734" lon="26.40391">
        <ele>160.970423</ele>
        <time>2020-10-07T05:07:21.767Z</time>
      </trkpt>
      <trkpt lat="55.59728" lon="26.40359">
        <ele>161.301431</ele>
        <time>2020-10-07T05:07:26.772Z</time>
      </trkpt>
      <trkpt lat="55.59728" lon="26.40359">
        <ele>161.301431</ele>
        <time>2020-10-07T05:07:26.776Z</time>
      </trkpt>
      <trkpt lat="55.59716" lon="26.40312">
        <ele>161.564008</ele>
        <time>2020-10-07T05:07:34.543Z</time>
      </trkpt>
      <trkpt lat="55.59704" lon="26.40271">
        <ele>161.703416</ele>
        <time>2020-10-07T05:07:41.429Z</time>
      </trkpt>
      <trkpt lat="55.59698" lon="26.40252">
        <ele>161.771127</ele>
        <time>2020-10-07T05:07:44.280Z</time>
      </trkpt>
      <trkpt lat="55.59691" lon="26.40234">
        <ele>161.835916</ele>
        <time>2020-10-07T05:07:47.407Z</time>
      </trkpt>
      <trkpt lat="55.59671" lon="26.40194">
        <ele>161.994852</ele>
        <time>2020-10-07T05:07:54.475Z</time>
      </trkpt>
      <trkpt lat="55.59623" lon="26.40118">
        <ele>162.338684</ele>
        <time>2020-10-07T05:08:09.190Z</time>
      </trkpt>
      <trkpt lat="55.596" lon="26.40086">
        <ele>162.468164</ele>
        <time>2020-10-07T05:08:15.968Z</time>
      </trkpt>
      <trkpt lat="55.5958" lon="26.40062">
        <ele>162.552215</ele>
        <time>2020-10-07T05:08:21.602Z</time>
      </trkpt>
      <trkpt lat="55.59522" lon="26.40008">
        <ele>162.785086</ele>
        <time>2020-10-07T05:08:37.552Z</time>
      </trkpt>
      <trkpt lat="55.5944" lon="26.3997">
        <ele>163.058838</ele>
        <time>2020-10-07T05:08:57.846Z</time>
      </trkpt>
      <trkpt lat="55.59363" lon="26.3996">
        <ele>163.139183</ele>
        <time>2020-10-07T05:09:15.520Z</time>
      </trkpt>
      <trkpt lat="55.59211" lon="26.39955">
        <ele>163.18174</ele>
        <time>2020-10-07T05:09:49.237Z</time>
      </trkpt>
      <trkpt lat="55.58816" lon="26.39942">
        <ele>162.678613</ele>
        <time>2020-10-07T05:11:15.465Z</time>
      </trkpt>
      <trkpt lat="55.58729" lon="26.39939">
        <ele>162.472383</ele>
        <time>2020-10-07T05:11:34.046Z</time>
      </trkpt>
      <trkpt lat="55.5864" lon="26.3994">
        <ele>161.770549</ele>
        <time>2020-10-07T05:11:51.744Z</time>
      </trkpt>
      <trkpt lat="55.58573" lon="26.3995">
        <ele>161.244546</ele>
        <time>2020-10-07T05:12:04.811Z</time>
      </trkpt>
      <trkpt lat="55.58551" lon="26.39955">
        <ele>161.073624</ele>
        <time>2020-10-07T05:12:08.959Z</time>
      </trkpt>
      <trkpt lat="55.58533" lon="26.39961">
        <ele>160.938538</ele>
        <time>2020-10-07T05:12:12.553Z</time>
      </trkpt>
      <trkpt lat="55.58426" lon="26.40013">
        <ele>160.118822</ele>
        <time>2020-10-07T05:12:34.486Z</time>
      </trkpt>
      <trkpt lat="55.58296" lon="26.40114">
        <ele>159.479314</ele>
        <time>2020-10-07T05:13:04.213Z</time>
      </trkpt>
      <trkpt lat="55.5823" lon="26.40172">
        <ele>159.264359</ele>
        <time>2020-10-07T05:13:19.821Z</time>
      </trkpt>
      <trkpt lat="55.58087" lon="26.40295">
        <ele>159.693582</ele>
        <time>2020-10-07T05:13:56.397Z</time>
      </trkpt>
      <trkpt lat="55.5803" lon="26.40343">
        <ele>160.027584</ele>
        <time>2020-10-07T05:14:12.554Z</time>
      </trkpt>
      <trkpt lat="55.57968" lon="26.40396">
        <ele>160.585268</ele>
        <time>2020-10-07T05:14:30.891Z</time>
      </trkpt>
      <trkpt lat="55.57882" lon="26.40472">
        <ele>161.244578</ele>
        <time>2020-10-07T05:14:55.225Z</time>
      </trkpt>
      <trkpt lat="55.57812" lon="26.40558">
        <ele>161.143365</ele>
        <time>2020-10-07T05:15:14.256Z</time>
      </trkpt>
      <trkpt lat="55.57798" lon="26.4058">
        <ele>161.120922</ele>
        <time>2020-10-07T05:15:18.229Z</time>
      </trkpt>
      <trkpt lat="55.57786" lon="26.406">
        <ele>161.101765</ele>
        <time>2020-10-07T05:15:21.593Z</time>
      </trkpt>
      <trkpt lat="55.57752" lon="26.40664">
        <ele>161.031661</ele>
        <time>2020-10-07T05:15:31.767Z</time>
      </trkpt>
      <trkpt lat="55.57634" lon="26.40928">
        <ele>159.846205</ele>
        <time>2020-10-07T05:16:10.009Z</time>
      </trkpt>
      <trkpt lat="55.57611" lon="26.40973">
        <ele>159.803863</ele>
        <time>2020-10-07T05:16:17.167Z</time>
      </trkpt>
      <trkpt lat="55.57596" lon="26.40998">
        <ele>159.778285</ele>
        <time>2020-10-07T05:16:21.495Z</time>
      </trkpt>
      <trkpt lat="55.57535" lon="26.41082">
        <ele>159.683288</ele>
        <time>2020-10-07T05:16:38.311Z</time>
      </trkpt>
      <trkpt lat="55.5746" lon="26.41151">
        <ele>160.057484</ele>
        <time>2020-10-07T05:16:58.430Z</time>
      </trkpt>
      <trkpt lat="55.57381" lon="26.41194">
        <ele>160.762017</ele>
        <time>2020-10-07T05:17:20.117Z</time>
      </trkpt>
      <trkpt lat="55.57302" lon="26.41211">
        <ele>161.559466</ele>
        <time>2020-10-07T05:17:41.583Z</time>
      </trkpt>
      <trkpt lat="55.57234" lon="26.41218">
        <ele>162.405104</ele>
        <time>2020-10-07T05:18:00.153Z</time>
      </trkpt>
      <trkpt lat="55.5701" lon="26.41236">
        <ele>165.629509</ele>
        <time>2020-10-07T05:19:01.619Z</time>
      </trkpt>
      <trkpt lat="55.56699" lon="26.41255">
        <ele>172.901909</ele>
        <time>2020-10-07T05:20:41.675Z</time>
      </trkpt>
      <trkpt lat="55.5668" lon="26.41253">
        <ele>173.358108</ele>
        <time>2020-10-07T05:20:48.118Z</time>
      </trkpt>
      <trkpt lat="55.56659" lon="26.41251">
        <ele>173.896439</ele>
        <time>2020-10-07T05:20:55.026Z</time>
      </trkpt>
      <trkpt lat="55.56639" lon="26.41248">
        <ele>174.38115</ele>
        <time>2020-10-07T05:21:01.523Z</time>
      </trkpt>
      <trkpt lat="55.56603" lon="26.4124">
        <ele>175.128863</ele>
        <time>2020-10-07T05:21:13.041Z</time>
      </trkpt>
      <trkpt lat="55.56517" lon="26.41211">
        <ele>176.210173</ele>
        <time>2020-10-07T05:21:38.909Z</time>
      </trkpt>
      <trkpt lat="55.56326" lon="26.41126">
        <ele>177.145453</ele>
        <time>2020-10-07T05:22:24.683Z</time>
      </trkpt>
      <trkpt lat="55.56311" lon="26.4112">
        <ele>177.138575</ele>
        <time>2020-10-07T05:22:27.878Z</time>
      </trkpt>
      <trkpt lat="55.56284" lon="26.4111">
        <ele>177.125947</ele>
        <time>2020-10-07T05:22:33.640Z</time>
      </trkpt>
      <trkpt lat="55.56207" lon="26.41103">
        <ele>176.623434</ele>
        <time>2020-10-07T05:22:49.129Z</time>
      </trkpt>
      <trkpt lat="55.56009" lon="26.41118">
        <ele>175.120779</ele>
        <time>2020-10-07T05:23:27.448Z</time>
      </trkpt>
      <trkpt lat="55.55947" lon="26.41117">
        <ele>174.755319</ele>
        <time>2020-10-07T05:23:39.993Z</time>
      </trkpt>
      <trkpt lat="55.55881" lon="26.4111">
        <ele>174.688776</ele>
        <time>2020-10-07T05:23:54.111Z</time>
      </trkpt>
      <trkpt lat="55.55661" lon="26.41092">
        <ele>176.630332</ele>
        <time>2020-10-07T05:24:52.012Z</time>
      </trkpt>
      <trkpt lat="55.55648" lon="26.41094">
        <ele>176.793325</ele>
        <time>2020-10-07T05:24:56.256Z</time>
      </trkpt>
      <trkpt lat="55.55634" lon="26.41097">
        <ele>176.953914</ele>
        <time>2020-10-07T05:25:00.009Z</time>
      </trkpt>
      <trkpt lat="55.55617" lon="26.411">
        <ele>177.158745</ele>
        <time>2020-10-07T05:25:04.913Z</time>
      </trkpt>
      <trkpt lat="55.55602" lon="26.41107">
        <ele>177.342181</ele>
        <time>2020-10-07T05:25:09.312Z</time>
      </trkpt>
      <trkpt lat="55.55559" lon="26.41127">
        <ele>177.860924</ele>
        <time>2020-10-07T05:25:21.200Z</time>
      </trkpt>
      <trkpt lat="55.5551" lon="26.41153">
        <ele>177.893183</ele>
        <time>2020-10-07T05:25:34.630Z</time>
      </trkpt>
      <trkpt lat="55.55461" lon="26.41191">
        <ele>177.758009</ele>
        <time>2020-10-07T05:25:47.089Z</time>
      </trkpt>
      <trkpt lat="55.55336" lon="26.41317">
        <ele>176.275748</ele>
        <time>2020-10-07T05:26:14.412Z</time>
      </trkpt>
      <trkpt lat="55.55252" lon="26.41385">
        <ele>174.237418</ele>
        <time>2020-10-07T05:26:30.213Z</time>
      </trkpt>
      <trkpt lat="55.551" lon="26.41507">
        <ele>169.393276</ele>
        <time>2020-10-07T05:26:57.438Z</time>
      </trkpt>
      <trkpt lat="55.55062" lon="26.41537">
        <ele>168.124717</ele>
        <time>2020-10-07T05:27:04.253Z</time>
      </trkpt>
      <trkpt lat="55.54962" lon="26.41622">
        <ele>165.619229</ele>
        <time>2020-10-07T05:27:22.789Z</time>
      </trkpt>
      <trkpt lat="55.54846" lon="26.41713">
        <ele>164.170286</ele>
        <time>2020-10-07T05:27:46.482Z</time>
      </trkpt>
      <trkpt lat="55.54694" lon="26.41832">
        <ele>165.077562</ele>
        <time>2020-10-07T05:28:29.705Z</time>
      </trkpt>
      <trkpt lat="55.54542" lon="26.41951">
        <ele>166.979833</ele>
        <time>2020-10-07T05:29:19.052Z</time>
      </trkpt>
      <trkpt lat="55.54519" lon="26.41963">
        <ele>166.859258</ele>
        <time>2020-10-07T05:29:24.762Z</time>
      </trkpt>
      <trkpt lat="55.54484" lon="26.41973">
        <ele>166.677444</ele>
        <time>2020-10-07T05:29:32.296Z</time>
      </trkpt>
      <trkpt lat="55.54452" lon="26.4198">
        <ele>166.50988</ele>
        <time>2020-10-07T05:29:38.519Z</time>
      </trkpt>
      <trkpt lat="55.54417" lon="26.41992">
        <ele>166.330351</ele>
        <time>2020-10-07T05:29:44.865Z</time>
      </trkpt>
      <trkpt lat="55.54366" lon="26.42027">
        <ele>165.428625</ele>
        <time>2020-10-07T05:29:54.291Z</time>
      </trkpt>
      <trkpt lat="55.54328" lon="26.42064">
        <ele>164.346468</ele>
        <time>2020-10-07T05:30:01.548Z</time>
      </trkpt>
      <trkpt lat="55.54292" lon="26.42114">
        <ele>163.207112</ele>
        <time>2020-10-07T05:30:09.126Z</time>
      </trkpt>
      <trkpt lat="55.54253" lon="26.42188">
        <ele>161.772363</ele>
        <time>2020-10-07T05:30:18.870Z</time>
      </trkpt>
      <trkpt lat="55.539" lon="26.42931">
        <ele>153.199404</ele>
        <time>2020-10-07T05:32:00.019Z</time>
      </trkpt>
      <trkpt lat="55.53839" lon="26.43024">
        <ele>151.701591</ele>
        <time>2020-10-07T05:32:13.788Z</time>
      </trkpt>
      <trkpt lat="55.53797" lon="26.4307">
        <ele>150.769826</ele>
        <time>2020-10-07T05:32:22.577Z</time>
      </trkpt>
      <trkpt lat="55.53764" lon="26.43091">
        <ele>150.11395</ele>
        <time>2020-10-07T05:32:28.856Z</time>
      </trkpt>
      <trkpt lat="55.53756" lon="26.43097">
        <ele>149.964327</ele>
        <time>2020-10-07T05:32:30.366Z</time>
      </trkpt>
      <trkpt lat="55.53718" lon="26.43112">
        <ele>149.721995</ele>
        <time>2020-10-07T05:32:37.706Z</time>
      </trkpt>
      <trkpt lat="55.53663" lon="26.43114">
        <ele>149.384751</ele>
        <time>2020-10-07T05:32:48.429Z</time>
      </trkpt>
      <trkpt lat="55.53403" lon="26.43029">
        <ele>148.833077</ele>
        <time>2020-10-07T05:33:48.121Z</time>
      </trkpt>
      <trkpt lat="55.5337" lon="26.43026">
        <ele>148.580489</ele>
        <time>2020-10-07T05:33:54.861Z</time>
      </trkpt>
      <trkpt lat="55.5333" lon="26.43038">
        <ele>148.26756</ele>
        <time>2020-10-07T05:34:02.995Z</time>
      </trkpt>
      <trkpt lat="55.53302" lon="26.43056">
        <ele>148.043423</ele>
        <time>2020-10-07T05:34:08.676Z</time>
      </trkpt>
      <trkpt lat="55.53266" lon="26.43096">
        <ele>147.719828</ele>
        <time>2020-10-07T05:34:16.785Z</time>
      </trkpt>
      <trkpt lat="55.53174" lon="26.43245">
        <ele>147.242571</ele>
        <time>2020-10-07T05:34:41.394Z</time>
      </trkpt>
      <trkpt lat="55.53069" lon="26.43394">
        <ele>147.61846</ele>
        <time>2020-10-07T05:35:12.962Z</time>
      </trkpt>
      <trkpt lat="55.52972" lon="26.43479">
        <ele>149.037907</ele>
        <time>2020-10-07T05:35:43.647Z</time>
      </trkpt>
      <trkpt lat="55.52881" lon="26.4354">
        <ele>150.814858</ele>
        <time>2020-10-07T05:36:14.365Z</time>
      </trkpt>
      <trkpt lat="55.52815" lon="26.43571">
        <ele>152.177492</ele>
        <time>2020-10-07T05:36:35.655Z</time>
      </trkpt>
      <trkpt lat="55.52732" lon="26.43612">
        <ele>153.216135</ele>
        <time>2020-10-07T05:37:00.323Z</time>
      </trkpt>
      <trkpt lat="55.52723" lon="26.43616">
        <ele>153.259275</ele>
        <time>2020-10-07T05:37:02.736Z</time>
      </trkpt>
      <trkpt lat="55.52554" lon="26.43686">
        <ele>153.689762</ele>
        <time>2020-10-07T05:37:41.410Z</time>
      </trkpt>
      <trkpt lat="55.52463" lon="26.43722">
        <ele>153.350896</ele>
        <time>2020-10-07T05:38:00.075Z</time>
      </trkpt>
      <trkpt lat="55.5235" lon="26.43845">
        <ele>152.986701</ele>
        <time>2020-10-07T05:38:28.435Z</time>
      </trkpt>
      <trkpt lat="55.52343" lon="26.43845">
        <ele>152.969403</ele>
        <time>2020-10-07T05:38:29.976Z</time>
      </trkpt>
      <trkpt lat="55.52336" lon="26.43869">
        <ele>152.933632</ele>
        <time>2020-10-07T05:38:33.354Z</time>
      </trkpt>
      <trkpt lat="55.52266" lon="26.44142">
        <ele>152.64194</ele>
        <time>2020-10-07T05:39:10.066Z</time>
      </trkpt>
      <trkpt lat="55.52242" lon="26.44256">
        <ele>152.548662</ele>
        <time>2020-10-07T05:39:25.142Z</time>
      </trkpt>
      <trkpt lat="55.5224" lon="26.44287">
        <ele>152.508744</ele>
        <time>2020-10-07T05:39:28.775Z</time>
      </trkpt>
      <trkpt lat="55.52227" lon="26.44279">
        <ele>152.474735</ele>
        <time>2020-10-07T05:39:31.951Z</time>
      </trkpt>
      <trkpt lat="55.52138" lon="26.44181">
        <ele>152.206074</ele>
        <time>2020-10-07T05:39:54.863Z</time>
      </trkpt>
      <trkpt lat="55.52113" lon="26.44146">
        <ele>152.125387</ele>
        <time>2020-10-07T05:40:01.383Z</time>
      </trkpt>
      <trkpt lat="55.52096" lon="26.44118">
        <ele>151.992705</ele>
        <time>2020-10-07T05:40:06.210Z</time>
      </trkpt>
      <trkpt lat="55.52057" lon="26.44038">
        <ele>151.215185</ele>
        <time>2020-10-07T05:40:17.848Z</time>
      </trkpt>
      <trkpt lat="55.52016" lon="26.43944">
        <ele>150.344567</ele>
        <time>2020-10-07T05:40:30.104Z</time>
      </trkpt>
      <trkpt lat="55.52005" lon="26.43919">
        <ele>150.11568</ele>
        <time>2020-10-07T05:40:33.308Z</time>
      </trkpt>
      <trkpt lat="55.51981" lon="26.43873">
        <ele>149.672291</ele>
        <time>2020-10-07T05:40:39.764Z</time>
      </trkpt>
      <trkpt lat="55.51972" lon="26.43857">
        <ele>149.540737</ele>
        <time>2020-10-07T05:40:42.043Z</time>
      </trkpt>
      <trkpt lat="55.51954" lon="26.4383">
        <ele>149.30132</ele>
        <time>2020-10-07T05:40:46.370Z</time>
      </trkpt>
      <trkpt lat="55.51942" lon="26.43814">
        <ele>149.148778</ele>
        <time>2020-10-07T05:40:49.055Z</time>
      </trkpt>
      <trkpt lat="55.5193" lon="26.438">
        <ele>148.996994</ele>
        <time>2020-10-07T05:40:51.811Z</time>
      </trkpt>
      <trkpt lat="55.51895" lon="26.43773">
        <ele>148.609246</ele>
        <time>2020-10-07T05:40:58.967Z</time>
      </trkpt>
      <trkpt lat="55.51737" lon="26.4368">
        <ele>147.93441</ele>
        <time>2020-10-07T05:41:34.330Z</time>
      </trkpt>
      <trkpt lat="55.51708" lon="26.43675">
        <ele>147.942196</ele>
        <time>2020-10-07T05:41:41.193Z</time>
      </trkpt>
      <trkpt lat="55.51696" lon="26.4367">
        <ele>147.945726</ele>
        <time>2020-10-07T05:41:43.938Z</time>
      </trkpt>
      <trkpt lat="55.51655" lon="26.43639">
        <ele>147.996303</ele>
        <time>2020-10-07T05:41:54.720Z</time>
      </trkpt>
      <trkpt lat="55.51623" lon="26.43582">
        <ele>148.381068</ele>
        <time>2020-10-07T05:42:05.877Z</time>
      </trkpt>
      <trkpt lat="55.51507" lon="26.43227">
        <ele>150.171468</ele>
        <time>2020-10-07T05:43:06.802Z</time>
      </trkpt>
      <trkpt lat="55.51411" lon="26.43031">
        <ele>150.334448</ele>
        <time>2020-10-07T05:43:41.091Z</time>
      </trkpt>
      <trkpt lat="55.5131" lon="26.4274">
        <ele>149.273345</ele>
        <time>2020-10-07T05:44:18.655Z</time>
      </trkpt>
      <trkpt lat="55.51256" lon="26.42608">
        <ele>148.739418</ele>
        <time>2020-10-07T05:44:37.739Z</time>
      </trkpt>
      <trkpt lat="55.51225" lon="26.42555">
        <ele>148.866324</ele>
        <time>2020-10-07T05:44:47.615Z</time>
      </trkpt>
      <trkpt lat="55.51143" lon="26.42439">
        <ele>149.307863</ele>
        <time>2020-10-07T05:45:13.482Z</time>
      </trkpt>
      <trkpt lat="55.51045" lon="26.42284">
        <ele>149.959461</ele>
        <time>2020-10-07T05:45:46.275Z</time>
      </trkpt>
      <trkpt lat="55.50946" lon="26.42113">
        <ele>150.535359</ele>
        <time>2020-10-07T05:46:19.267Z</time>
      </trkpt>
      <trkpt lat="55.50911" lon="26.42066">
        <ele>150.638837</ele>
        <time>2020-10-07T05:46:29.688Z</time>
      </trkpt>
      <trkpt lat="55.50853" lon="26.42012">
        <ele>150.789775</ele>
        <time>2020-10-07T05:46:44.783Z</time>
      </trkpt>
      <trkpt lat="55.50724" lon="26.4193">
        <ele>150.415034</ele>
        <time>2020-10-07T05:47:14.549Z</time>
      </trkpt>
      <trkpt lat="55.50486" lon="26.41887">
        <ele>148.787672</ele>
        <time>2020-10-07T05:48:01.786Z</time>
      </trkpt>
      <trkpt lat="55.50417" lon="26.41867">
        <ele>148.30102</ele>
        <time>2020-10-07T05:48:15.574Z</time>
      </trkpt>
      <trkpt lat="55.50319" lon="26.41831">
        <ele>147.60567</ele>
        <time>2020-10-07T05:48:35.748Z</time>
      </trkpt>
      <trkpt lat="55.50074" lon="26.4172">
        <ele>147.356357</ele>
        <time>2020-10-07T05:49:29.218Z</time>
      </trkpt>
      <trkpt lat="55.50065" lon="26.41711">
        <ele>147.435887</ele>
        <time>2020-10-07T05:49:31.704Z</time>
      </trkpt>
      <trkpt lat="55.50058" lon="26.41701">
        <ele>147.494246</ele>
        <time>2020-10-07T05:49:33.765Z</time>
      </trkpt>
      <trkpt lat="55.50026" lon="26.41614">
        <ele>147.915116</ele>
        <time>2020-10-07T05:49:49.035Z</time>
      </trkpt>
      <trkpt lat="55.49914" lon="26.41187">
        <ele>152.350971</ele>
        <time>2020-10-07T05:51:10.435Z</time>
      </trkpt>
      <trkpt lat="55.49861" lon="26.40986">
        <ele>153.896291</ele>
        <time>2020-10-07T05:51:43.674Z</time>
      </trkpt>
      <trkpt lat="55.49857" lon="26.40973">
        <ele>153.982803</ele>
        <time>2020-10-07T05:51:45.626Z</time>
      </trkpt>
      <trkpt lat="55.49851" lon="26.40967">
        <ele>153.997695</ele>
        <time>2020-10-07T05:51:47.459Z</time>
      </trkpt>
      <trkpt lat="55.49844" lon="26.40964">
        <ele>154.014907</ele>
        <time>2020-10-07T05:51:48.958Z</time>
      </trkpt>
      <trkpt lat="55.49836" lon="26.40965">
        <ele>154.034521</ele>
        <time>2020-10-07T05:51:50.968Z</time>
      </trkpt>
      <trkpt lat="55.49814" lon="26.40973">
        <ele>154.086328</ele>
        <time>2020-10-07T05:51:56.132Z</time>
      </trkpt>
      <trkpt lat="55.49777" lon="26.40993">
        <ele>154.176886</ele>
        <time>2020-10-07T05:52:04.797Z</time>
      </trkpt>
      <trkpt lat="55.49734" lon="26.41009">
        <ele>154.277742</ele>
        <time>2020-10-07T05:52:14.415Z</time>
      </trkpt>
      <trkpt lat="55.49716" lon="26.41013">
        <ele>154.321943</ele>
        <time>2020-10-07T05:52:18.548Z</time>
      </trkpt>
      <trkpt lat="55.4966" lon="26.41007">
        <ele>154.535943</ele>
        <time>2020-10-07T05:52:31.491Z</time>
      </trkpt>
      <trkpt lat="55.4962" lon="26.41013">
        <ele>154.772197</ele>
        <time>2020-10-07T05:52:41.522Z</time>
      </trkpt>
      <trkpt lat="55.49541" lon="26.41059">
        <ele>155.260726</ele>
        <time>2020-10-07T05:53:02.119Z</time>
      </trkpt>
      <trkpt lat="55.49522" lon="26.41079">
        <ele>155.394296</ele>
        <time>2020-10-07T05:53:08.123Z</time>
      </trkpt>
      <trkpt lat="55.49493" lon="26.41111">
        <ele>155.590745</ele>
        <time>2020-10-07T05:53:16.691Z</time>
      </trkpt>
      <trkpt lat="55.49439" lon="26.4117">
        <ele>155.954634</ele>
        <time>2020-10-07T05:53:32.459Z</time>
      </trkpt>
      <trkpt lat="55.49339" lon="26.41268">
        <ele>156.583987</ele>
        <time>2020-10-07T05:53:59.989Z</time>
      </trkpt>
      <trkpt lat="55.49152" lon="26.41403">
        <ele>157.236049</ele>
        <time>2020-10-07T05:54:49.075Z</time>
      </trkpt>
      <trkpt lat="55.48886" lon="26.41626">
        <ele>156.279053</ele>
        <time>2020-10-07T05:55:49.885Z</time>
      </trkpt>
      <trkpt lat="55.48597" lon="26.41878">
        <ele>155.322657</ele>
        <time>2020-10-07T05:56:58.972Z</time>
      </trkpt>
      <trkpt lat="55.48529" lon="26.41952">
        <ele>154.976187</ele>
        <time>2020-10-07T05:57:15.292Z</time>
      </trkpt>
      <trkpt lat="55.4845" lon="26.42002">
        <ele>154.45749</ele>
        <time>2020-10-07T05:57:32.028Z</time>
      </trkpt>
      <trkpt lat="55.48399" lon="26.42038">
        <ele>154.114275</ele>
        <time>2020-10-07T05:57:43.076Z</time>
      </trkpt>
      <trkpt lat="55.48355" lon="26.4207">
        <ele>153.872404</ele>
        <time>2020-10-07T05:57:52.791Z</time>
      </trkpt>
      <trkpt lat="55.47894" lon="26.42426">
        <ele>151.990578</ele>
        <time>2020-10-07T05:59:38.193Z</time>
      </trkpt>
      <trkpt lat="55.47881" lon="26.42436">
        <ele>152.039816</ele>
        <time>2020-10-07T05:59:40.848Z</time>
      </trkpt>
      <trkpt lat="55.47782" lon="26.42524">
        <ele>153.613134</ele>
        <time>2020-10-07T06:00:08.858Z</time>
      </trkpt>
      <trkpt lat="55.4774" lon="26.4257">
        <ele>154.309676</ele>
        <time>2020-10-07T06:00:25.523Z</time>
      </trkpt>
      <trkpt lat="55.47739" lon="26.42571">
        <ele>154.324766</ele>
        <time>2020-10-07T06:00:26.662Z</time>
      </trkpt>
      <trkpt lat="55.47698" lon="26.42612">
        <ele>155.429321</ele>
        <time>2020-10-07T06:00:42.325Z</time>
      </trkpt>
      <trkpt lat="55.47683" lon="26.4262">
        <ele>155.845825</ele>
        <time>2020-10-07T06:00:47.512Z</time>
      </trkpt>
      <trkpt lat="55.47669" lon="26.42625">
        <ele>156.227372</ele>
        <time>2020-10-07T06:00:53.428Z</time>
      </trkpt>
      <trkpt lat="55.47654" lon="26.42627">
        <ele>156.647595</ele>
        <time>2020-10-07T06:00:57.831Z</time>
      </trkpt>
      <trkpt lat="55.47645" lon="26.42626">
        <ele>156.888522</ele>
        <time>2020-10-07T06:01:01.331Z</time>
      </trkpt>
      <trkpt lat="55.47637" lon="26.42625">
        <ele>157.102391</ele>
        <time>2020-10-07T06:01:05.165Z</time>
      </trkpt>
      <trkpt lat="55.47437" lon="26.42599">
        <ele>160.825295</ele>
        <time>2020-10-07T06:02:05.664Z</time>
      </trkpt>
      <trkpt lat="55.47389" lon="26.42607">
        <ele>161.422885</ele>
        <time>2020-10-07T06:02:16.446Z</time>
      </trkpt>
      <trkpt lat="55.47266" lon="26.42748">
        <ele>161.537125</ele>
        <time>2020-10-07T06:02:48.259Z</time>
      </trkpt>
      <trkpt lat="55.47111" lon="26.42834">
        <ele>161.811665</ele>
        <time>2020-10-07T06:03:24.508Z</time>
      </trkpt>
      <trkpt lat="55.47062" lon="26.42869">
        <ele>161.953637</ele>
        <time>2020-10-07T06:03:37.924Z</time>
      </trkpt>
      <trkpt lat="55.47025" lon="26.42882">
        <ele>162.148356</ele>
        <time>2020-10-07T06:03:47.311Z</time>
      </trkpt>
      <trkpt lat="55.47011" lon="26.42884">
        <ele>162.242145</ele>
        <time>2020-10-07T06:03:50.759Z</time>
      </trkpt>
      <trkpt lat="55.46997" lon="26.42883">
        <ele>162.335258</ele>
        <time>2020-10-07T06:03:54.591Z</time>
      </trkpt>
      <trkpt lat="55.46966" lon="26.42875">
        <ele>162.544906</ele>
        <time>2020-10-07T06:04:02.584Z</time>
      </trkpt>
      <trkpt lat="55.46952" lon="26.42872">
        <ele>162.635579</ele>
        <time>2020-10-07T06:04:06.234Z</time>
      </trkpt>
      <trkpt lat="55.46924" lon="26.42865">
        <ele>162.821548</ele>
        <time>2020-10-07T06:04:13.258Z</time>
      </trkpt>
      <trkpt lat="55.46871" lon="26.42835">
        <ele>163.173098</ele>
        <time>2020-10-07T06:04:26.730Z</time>
      </trkpt>
      <trkpt lat="55.4685" lon="26.42817">
        <ele>163.157589</ele>
        <time>2020-10-07T06:04:32.626Z</time>
      </trkpt>
      <trkpt lat="55.46827" lon="26.42794">
        <ele>163.140283</ele>
        <time>2020-10-07T06:04:38.497Z</time>
      </trkpt>
      <trkpt lat="55.46642" lon="26.42573">
        <ele>163.046392</ele>
        <time>2020-10-07T06:05:26.074Z</time>
      </trkpt>
      <trkpt lat="55.46518" lon="26.42478">
        <ele>162.764319</ele>
        <time>2020-10-07T06:05:57.901Z</time>
      </trkpt>
      <trkpt lat="55.46465" lon="26.42427">
        <ele>162.444443</ele>
        <time>2020-10-07T06:06:11.197Z</time>
      </trkpt>
      <trkpt lat="55.46306" lon="26.42148">
        <ele>159.345672</ele>
        <time>2020-10-07T06:06:52.176Z</time>
      </trkpt>
      <trkpt lat="55.46262" lon="26.42096">
        <ele>158.295757</ele>
        <time>2020-10-07T06:07:01.058Z</time>
      </trkpt>
      <trkpt lat="55.46031" lon="26.41884">
        <ele>153.114388</ele>
        <time>2020-10-07T06:07:46.251Z</time>
      </trkpt>
      <trkpt lat="55.45871" lon="26.41769">
        <ele>151.490852</ele>
        <time>2020-10-07T06:08:20.454Z</time>
      </trkpt>
      <trkpt lat="55.45826" lon="26.41728">
        <ele>151.268634</ele>
        <time>2020-10-07T06:08:31.929Z</time>
      </trkpt>
      <trkpt lat="55.45807" lon="26.41702">
        <ele>151.161885</ele>
        <time>2020-10-07T06:08:37.062Z</time>
      </trkpt>
      <trkpt lat="55.45791" lon="26.41673">
        <ele>151.064006</ele>
        <time>2020-10-07T06:08:42.469Z</time>
      </trkpt>
      <trkpt lat="55.45755" lon="26.41581">
        <ele>150.788619</ele>
        <time>2020-10-07T06:08:56.476Z</time>
      </trkpt>
      <trkpt lat="55.4571" lon="26.41443">
        <ele>150.402072</ele>
        <time>2020-10-07T06:09:14.450Z</time>
      </trkpt>
      <trkpt lat="55.45703" lon="26.41389">
        <ele>150.285254</ele>
        <time>2020-10-07T06:09:20.556Z</time>
      </trkpt>
      <trkpt lat="55.45701" lon="26.41269">
        <ele>150.036454</ele>
        <time>2020-10-07T06:09:34.236Z</time>
      </trkpt>
      <trkpt lat="55.45699" lon="26.41251">
        <ele>149.999184</ele>
        <time>2020-10-07T06:09:36.048Z</time>
      </trkpt>
      <trkpt lat="55.45694" lon="26.41215">
        <ele>149.923463</ele>
        <time>2020-10-07T06:09:40.954Z</time>
      </trkpt>
      <trkpt lat="55.4568" lon="26.41157">
        <ele>149.794096</ele>
        <time>2020-10-07T06:09:48.832Z</time>
      </trkpt>
      <trkpt lat="55.45655" lon="26.41111">
        <ele>149.880884</ele>
        <time>2020-10-07T06:09:57.406Z</time>
      </trkpt>
      <trkpt lat="55.45551" lon="26.41031">
        <ele>150.959956</ele>
        <time>2020-10-07T06:10:27.783Z</time>
      </trkpt>
      <trkpt lat="55.45532" lon="26.41">
        <ele>151.204657</ele>
        <time>2020-10-07T06:10:35.285Z</time>
      </trkpt>
      <trkpt lat="55.45431" lon="26.40688">
        <ele>152.717615</ele>
        <time>2020-10-07T06:11:27.433Z</time>
      </trkpt>
      <trkpt lat="55.45409" lon="26.40636">
        <ele>152.567585</ele>
        <time>2020-10-07T06:11:35.224Z</time>
      </trkpt>
      <trkpt lat="55.45245" lon="26.40409">
        <ele>152.32482</ele>
        <time>2020-10-07T06:12:17.319Z</time>
      </trkpt>
      <trkpt lat="55.45148" lon="26.40287">
        <ele>153.034048</ele>
        <time>2020-10-07T06:12:48.785Z</time>
      </trkpt>
      <trkpt lat="55.45051" lon="26.40178">
        <ele>155.11308</ele>
        <time>2020-10-07T06:13:24.122Z</time>
      </trkpt>
      <trkpt lat="55.45" lon="26.40125">
        <ele>156.172744</ele>
        <time>2020-10-07T06:13:41.627Z</time>
      </trkpt>
      <trkpt lat="55.44973" lon="26.40093">
        <ele>156.577667</ele>
        <time>2020-10-07T06:13:51.016Z</time>
      </trkpt>
      <trkpt lat="55.44931" lon="26.40068">
        <ele>157.097527</ele>
        <time>2020-10-07T06:14:02.823Z</time>
      </trkpt>
      <trkpt lat="55.44814" lon="26.4003">
        <ele>158.584207</ele>
        <time>2020-10-07T06:14:33.422Z</time>
      </trkpt>
      <trkpt lat="55.44588" lon="26.3999">
        <ele>162.690278</ele>
        <time>2020-10-07T06:15:40.802Z</time>
      </trkpt>
      <trkpt lat="55.44447" lon="26.39954">
        <ele>165.634467</ele>
        <time>2020-10-07T06:16:25.510Z</time>
      </trkpt>
      <trkpt lat="55.44423" lon="26.39954">
        <ele>166.067522</ele>
        <time>2020-10-07T06:16:33.082Z</time>
      </trkpt>
      <trkpt lat="55.44394" lon="26.39957">
        <ele>166.581939</ele>
        <time>2020-10-07T06:16:41.892Z</time>
      </trkpt>
      <trkpt lat="55.44323" lon="26.39965">
        <ele>167.860002</ele>
        <time>2020-10-07T06:17:02.684Z</time>
      </trkpt>
      <trkpt lat="55.44313" lon="26.39963">
        <ele>168.029877</ele>
        <time>2020-10-07T06:17:05.266Z</time>
      </trkpt>
      <trkpt lat="55.44307" lon="26.39961">
        <ele>168.150966</ele>
        <time>2020-10-07T06:17:07.033Z</time>
      </trkpt>
      <trkpt lat="55.443" lon="26.39959">
        <ele>168.264859</ele>
        <time>2020-10-07T06:17:08.963Z</time>
      </trkpt>
      <trkpt lat="55.44238" lon="26.39934">
        <ele>168.922378</ele>
        <time>2020-10-07T06:17:25.802Z</time>
      </trkpt>
      <trkpt lat="55.44164" lon="26.39902">
        <ele>169.623372</ele>
        <time>2020-10-07T06:17:45.990Z</time>
      </trkpt>
      <trkpt lat="55.43972" lon="26.39817">
        <ele>169.82042</ele>
        <time>2020-10-07T06:18:33.355Z</time>
      </trkpt>
      <trkpt lat="55.43956" lon="26.39808">
        <ele>169.793895</ele>
        <time>2020-10-07T06:18:36.748Z</time>
      </trkpt>
      <trkpt lat="55.43697" lon="26.39689">
        <ele>162.942782</ele>
        <time>2020-10-07T06:19:21.293Z</time>
      </trkpt>
      <trkpt lat="55.43643" lon="26.39664">
        <ele>161.247352</ele>
        <time>2020-10-07T06:19:30.441Z</time>
      </trkpt>
      <trkpt lat="55.43633" lon="26.39663">
        <ele>160.933782</ele>
        <time>2020-10-07T06:19:32.150Z</time>
      </trkpt>
      <trkpt lat="55.43622" lon="26.39666">
        <ele>160.610529</ele>
        <time>2020-10-07T06:19:33.816Z</time>
      </trkpt>
      <trkpt lat="55.436" lon="26.39689">
        <ele>159.844832</ele>
        <time>2020-10-07T06:19:38.098Z</time>
      </trkpt>
      <trkpt lat="55.43509" lon="26.39841">
        <ele>156.68977</ele>
        <time>2020-10-07T06:19:59.013Z</time>
      </trkpt>
      <trkpt lat="55.43473" lon="26.39879">
        <ele>155.644492</ele>
        <time>2020-10-07T06:20:06.353Z</time>
      </trkpt>
      <trkpt lat="55.43134" lon="26.4">
        <ele>150.657983</ele>
        <time>2020-10-07T06:21:10.015Z</time>
      </trkpt>
      <trkpt lat="55.42797" lon="26.40142">
        <ele>149.429405</ele>
        <time>2020-10-07T06:22:25.459Z</time>
      </trkpt>
      <trkpt lat="55.42775" lon="26.40149">
        <ele>149.342223</ele>
        <time>2020-10-07T06:22:29.949Z</time>
      </trkpt>
      <trkpt lat="55.42739" lon="26.40161">
        <ele>149.011582</ele>
        <time>2020-10-07T06:22:37.011Z</time>
      </trkpt>
      <trkpt lat="55.4268" lon="26.40169">
        <ele>148.152604</ele>
        <time>2020-10-07T06:22:47.832Z</time>
      </trkpt>
      <trkpt lat="55.42628" lon="26.40163">
        <ele>147.380281</ele>
        <time>2020-10-07T06:22:57.223Z</time>
      </trkpt>
      <trkpt lat="55.42452" lon="26.40079">
        <ele>145.264881</ele>
        <time>2020-10-07T06:23:30.520Z</time>
      </trkpt>
      <trkpt lat="55.42428" lon="26.40061">
        <ele>144.989195</ele>
        <time>2020-10-07T06:23:35.943Z</time>
      </trkpt>
      <trkpt lat="55.42414" lon="26.40048">
        <ele>144.822871</ele>
        <time>2020-10-07T06:23:39.710Z</time>
      </trkpt>
      <trkpt lat="55.42384" lon="26.40018">
        <ele>145.145844</ele>
        <time>2020-10-07T06:23:47.601Z</time>
      </trkpt>
      <trkpt lat="55.42357" lon="26.39969">
        <ele>145.721334</ele>
        <time>2020-10-07T06:23:57.527Z</time>
      </trkpt>
      <trkpt lat="55.42252" lon="26.39685">
        <ele>149.343945</ele>
        <time>2020-10-07T06:24:57.077Z</time>
      </trkpt>
      <trkpt lat="55.42231" lon="26.39618">
        <ele>150.434573</ele>
        <time>2020-10-07T06:25:11.739Z</time>
      </trkpt>
      <trkpt lat="55.42208" lon="26.39549">
        <ele>151.555983</ele>
        <time>2020-10-07T06:25:26.946Z</time>
      </trkpt>
      <trkpt lat="55.42141" lon="26.39339">
        <ele>154.555194</ele>
        <time>2020-10-07T06:26:11.621Z</time>
      </trkpt>
      <trkpt lat="55.41909" lon="26.38912">
        <ele>158.294107</ele>
        <time>2020-10-07T06:27:43.130Z</time>
      </trkpt>
      <trkpt lat="55.41856" lon="26.38788">
        <ele>158.27544</ele>
        <time>2020-10-07T06:28:01.745Z</time>
      </trkpt>
      <trkpt lat="55.4177" lon="26.38559">
        <ele>154.163309</ele>
        <time>2020-10-07T06:28:27.168Z</time>
      </trkpt>
      <trkpt lat="55.41764" lon="26.38547">
        <ele>153.920525</ele>
        <time>2020-10-07T06:28:28.713Z</time>
      </trkpt>
      <trkpt lat="55.41757" lon="26.38537">
        <ele>153.735113</ele>
        <time>2020-10-07T06:28:29.955Z</time>
      </trkpt>
      <trkpt lat="55.41737" lon="26.38512">
        <ele>153.595723</ele>
        <time>2020-10-07T06:28:35.171Z</time>
      </trkpt>
      <trkpt lat="55.41725" lon="26.385">
        <ele>153.511765</ele>
        <time>2020-10-07T06:28:37.416Z</time>
      </trkpt>
      <trkpt lat="55.41691" lon="26.38472">
        <ele>153.297827</ele>
        <time>2020-10-07T06:28:44.742Z</time>
      </trkpt>
      <trkpt lat="55.4167" lon="26.38454">
        <ele>153.161526</ele>
        <time>2020-10-07T06:28:50.701Z</time>
      </trkpt>
      <trkpt lat="55.41565" lon="26.38373">
        <ele>153.089226</ele>
        <time>2020-10-07T06:29:18.157Z</time>
      </trkpt>
      <trkpt lat="55.41392" lon="26.38238">
        <ele>154.492808</ele>
        <time>2020-10-07T06:30:10.343Z</time>
      </trkpt>
      <trkpt lat="55.41311" lon="26.38178">
        <ele>154.285899</ele>
        <time>2020-10-07T06:30:28.501Z</time>
      </trkpt>
      <trkpt lat="55.41222" lon="26.38125">
        <ele>153.259872</ele>
        <time>2020-10-07T06:30:46.055Z</time>
      </trkpt>
      <trkpt lat="55.41156" lon="26.38094">
        <ele>151.915153</ele>
        <time>2020-10-07T06:30:58.134Z</time>
      </trkpt>
      <trkpt lat="55.41023" lon="26.38035">
        <ele>149.229816</ele>
        <time>2020-10-07T06:31:21.499Z</time>
      </trkpt>
      <trkpt lat="55.40949" lon="26.37989">
        <ele>147.71054</ele>
        <time>2020-10-07T06:31:35.138Z</time>
      </trkpt>
      <trkpt lat="55.40889" lon="26.37928">
        <ele>147.405708</ele>
        <time>2020-10-07T06:31:48.838Z</time>
      </trkpt>
      <trkpt lat="55.40858" lon="26.37871">
        <ele>147.681987</ele>
        <time>2020-10-07T06:31:59.162Z</time>
      </trkpt>
      <trkpt lat="55.40845" lon="26.37822">
        <ele>147.872686</ele>
        <time>2020-10-07T06:32:07.045Z</time>
      </trkpt>
      <trkpt lat="55.40831" lon="26.37744">
        <ele>148.160939</ele>
        <time>2020-10-07T06:32:20.111Z</time>
      </trkpt>
      <trkpt lat="55.4078" lon="26.37417">
        <ele>153.138697</ele>
        <time>2020-10-07T06:33:24.358Z</time>
      </trkpt>
      <trkpt lat="55.40735" lon="26.37125">
        <ele>159.282682</ele>
        <time>2020-10-07T06:34:28.056Z</time>
      </trkpt>
      <trkpt lat="55.40651" lon="26.36579">
        <ele>170.556366</ele>
        <time>2020-10-07T06:36:26.242Z</time>
      </trkpt>
      <trkpt lat="55.40627" lon="26.36458">
        <ele>172.663907</ele>
        <time>2020-10-07T06:36:50.892Z</time>
      </trkpt>
      <trkpt lat="55.40606" lon="26.36391">
        <ele>173.457558</ele>
        <time>2020-10-07T06:37:04.543Z</time>
      </trkpt>
      <trkpt lat="55.40582" lon="26.36338">
        <ele>174.177154</ele>
        <time>2020-10-07T06:37:16.386Z</time>
      </trkpt>
      <trkpt lat="55.40555" lon="26.36308">
        <ele>174.760523</ele>
        <time>2020-10-07T06:37:25.549Z</time>
      </trkpt>
      <trkpt lat="55.40535" lon="26.3629">
        <ele>175.174533</ele>
        <time>2020-10-07T06:37:31.702Z</time>
      </trkpt>
      <trkpt lat="55.40474" lon="26.36244">
        <ele>175.412897</ele>
        <time>2020-10-07T06:37:47.784Z</time>
      </trkpt>
      <trkpt lat="55.40431" lon="26.36202">
        <ele>175.234703</ele>
        <time>2020-10-07T06:37:58.514Z</time>
      </trkpt>
      <trkpt lat="55.40365" lon="26.36134">
        <ele>174.957729</ele>
        <time>2020-10-07T06:38:13.389Z</time>
      </trkpt>
      <trkpt lat="55.40263" lon="26.36047">
        <ele>174.056963</ele>
        <time>2020-10-07T06:38:34.452Z</time>
      </trkpt>
      <trkpt lat="55.39925" lon="26.35789">
        <ele>173.737472</ele>
        <time>2020-10-07T06:39:53.383Z</time>
      </trkpt>
      <trkpt lat="55.39548" lon="26.35482">
        <ele>181.330992</ele>
        <time>2020-10-07T06:42:01.578Z</time>
      </trkpt>
      <trkpt lat="55.39449" lon="26.3539">
        <ele>181.726701</ele>
        <time>2020-10-07T06:42:30.289Z</time>
      </trkpt>
      <trkpt lat="55.39448" lon="26.35388">
        <ele>181.729813</ele>
        <time>2020-10-07T06:42:31.065Z</time>
      </trkpt>
      <trkpt lat="55.39444" lon="26.35385">
        <ele>181.736037</ele>
        <time>2020-10-07T06:42:31.978Z</time>
      </trkpt>
      <trkpt lat="55.39423" lon="26.35361">
        <ele>181.776424</ele>
        <time>2020-10-07T06:42:37.063Z</time>
      </trkpt>
      <trkpt lat="55.39333" lon="26.35215">
        <ele>180.663885</ele>
        <time>2020-10-07T06:42:59.887Z</time>
      </trkpt>
      <trkpt lat="55.39311" lon="26.35171">
        <ele>180.112725</ele>
        <time>2020-10-07T06:43:05.695Z</time>
      </trkpt>
      <trkpt lat="55.39297" lon="26.3513">
        <ele>179.663286</ele>
        <time>2020-10-07T06:43:10.501Z</time>
      </trkpt>
      <trkpt lat="55.39285" lon="26.3507">
        <ele>179.079826</ele>
        <time>2020-10-07T06:43:16.813Z</time>
      </trkpt>
      <trkpt lat="55.39244" lon="26.34709">
        <ele>176.600393</ele>
        <time>2020-10-07T06:43:56.343Z</time>
      </trkpt>
      <trkpt lat="55.39231" lon="26.34623">
        <ele>176.438937</ele>
        <time>2020-10-07T06:44:07.066Z</time>
      </trkpt>
      <trkpt lat="55.39195" lon="26.34465">
        <ele>176.127366</ele>
        <time>2020-10-07T06:44:28.553Z</time>
      </trkpt>
      <trkpt lat="55.39183" lon="26.34343">
        <ele>175.79734</ele>
        <time>2020-10-07T06:44:43.983Z</time>
      </trkpt>
      <trkpt lat="55.39176" lon="26.34271">
        <ele>175.585351</ele>
        <time>2020-10-07T06:44:52.833Z</time>
      </trkpt>
      <trkpt lat="55.39174" lon="26.34254">
        <ele>175.536132</ele>
        <time>2020-10-07T06:44:54.877Z</time>
      </trkpt>
      <trkpt lat="55.39167" lon="26.34211">
        <ele>175.408163</ele>
        <time>2020-10-07T06:44:59.933Z</time>
      </trkpt>
      <trkpt lat="55.39133" lon="26.3401">
        <ele>174.464808</ele>
        <time>2020-10-07T06:45:22.816Z</time>
      </trkpt>
      <trkpt lat="55.39114" lon="26.33881">
        <ele>173.729679</ele>
        <time>2020-10-07T06:45:37.382Z</time>
      </trkpt>
      <trkpt lat="55.3909" lon="26.33728">
        <ele>173.582028</ele>
        <time>2020-10-07T06:45:55.240Z</time>
      </trkpt>
      <trkpt lat="55.3904" lon="26.33413">
        <ele>175.014181</ele>
        <time>2020-10-07T06:46:42.867Z</time>
      </trkpt>
      <trkpt lat="55.39029" lon="26.33346">
        <ele>175.698871</ele>
        <time>2020-10-07T06:46:55.346Z</time>
      </trkpt>
      <trkpt lat="55.39024" lon="26.33314">
        <ele>176.013584</ele>
        <time>2020-10-07T06:47:01.348Z</time>
      </trkpt>
      <trkpt lat="55.39011" lon="26.33232">
        <ele>176.85095</ele>
        <time>2020-10-07T06:47:16.146Z</time>
      </trkpt>
      <trkpt lat="55.39006" lon="26.33204">
        <ele>177.089734</ele>
        <time>2020-10-07T06:47:21.657Z</time>
      </trkpt>
      <trkpt lat="55.39003" lon="26.33192">
        <ele>177.180232</ele>
        <time>2020-10-07T06:47:23.825Z</time>
      </trkpt>
      <trkpt lat="55.38999" lon="26.33181">
        <ele>177.277164</ele>
        <time>2020-10-07T06:47:26.027Z</time>
      </trkpt>
      <trkpt lat="55.38993" lon="26.33169">
        <ele>177.38449</ele>
        <time>2020-10-07T06:47:28.626Z</time>
      </trkpt>
      <trkpt lat="55.38985" lon="26.33152">
        <ele>177.548131</ele>
        <time>2020-10-07T06:47:33.087Z</time>
      </trkpt>
      <trkpt lat="55.38964" lon="26.33125">
        <ele>177.867059</ele>
        <time>2020-10-07T06:47:40.614Z</time>
      </trkpt>
      <trkpt lat="55.38951" lon="26.33113">
        <ele>178.051682</ele>
        <time>2020-10-07T06:47:45.187Z</time>
      </trkpt>
      <trkpt lat="55.38937" lon="26.33106">
        <ele>178.230042</ele>
        <time>2020-10-07T06:47:48.960Z</time>
      </trkpt>
      <trkpt lat="55.38921" lon="26.33101">
        <ele>178.429194</ele>
        <time>2020-10-07T06:47:53.649Z</time>
      </trkpt>
      <trkpt lat="55.38875" lon="26.3309">
        <ele>178.999898</ele>
        <time>2020-10-07T06:48:05.250Z</time>
      </trkpt>
      <trkpt lat="55.38822" lon="26.33077">
        <ele>178.765324</ele>
        <time>2020-10-07T06:48:16.310Z</time>
      </trkpt>
      <trkpt lat="55.3875" lon="26.3305">
        <ele>177.860385</ele>
        <time>2020-10-07T06:48:30.155Z</time>
      </trkpt>
      <trkpt lat="55.38729" lon="26.33038">
        <ele>177.598064</ele>
        <time>2020-10-07T06:48:34.054Z</time>
      </trkpt>
      <trkpt lat="55.38715" lon="26.3303">
        <ele>177.408048</ele>
        <time>2020-10-07T06:48:36.820Z</time>
      </trkpt>
      <trkpt lat="55.38683" lon="26.3301">
        <ele>176.976573</ele>
        <time>2020-10-07T06:48:42.857Z</time>
      </trkpt>
      <trkpt lat="55.38366" lon="26.32856">
        <ele>170.401866</ele>
        <time>2020-10-07T06:49:39.708Z</time>
      </trkpt>
      <trkpt lat="55.3834" lon="26.32829">
        <ele>169.867142</ele>
        <time>2020-10-07T06:49:45.779Z</time>
      </trkpt>
      <trkpt lat="55.38299" lon="26.32755">
        <ele>170.638552</ele>
        <time>2020-10-07T06:49:59.006Z</time>
      </trkpt>
      <trkpt lat="55.38078" lon="26.32282">
        <ele>178.34141</ele>
        <time>2020-10-07T06:51:47.496Z</time>
      </trkpt>
      <trkpt lat="55.38047" lon="26.32219">
        <ele>180.334745</ele>
        <time>2020-10-07T06:52:05.866Z</time>
      </trkpt>
      <trkpt lat="55.37961" lon="26.32027">
        <ele>186.915096</ele>
        <time>2020-10-07T06:53:07.640Z</time>
      </trkpt>
      <trkpt lat="55.37942" lon="26.31975">
        <ele>188.860705</ele>
        <time>2020-10-07T06:53:24.637Z</time>
      </trkpt>
      <trkpt lat="55.37881" lon="26.3172">
        <ele>195.244578</ele>
        <time>2020-10-07T06:54:31.954Z</time>
      </trkpt>
      <trkpt lat="55.37867" lon="26.31685">
        <ele>195.750491</ele>
        <time>2020-10-07T06:54:40.375Z</time>
      </trkpt>
      <trkpt lat="55.37845" lon="26.31642">
        <ele>196.456102</ele>
        <time>2020-10-07T06:54:50.485Z</time>
      </trkpt>
      <trkpt lat="55.37763" lon="26.31517">
        <ele>195.290754</ele>
        <time>2020-10-07T06:55:10.417Z</time>
      </trkpt>
      <trkpt lat="55.37741" lon="26.31491">
        <ele>194.092289</ele>
        <time>2020-10-07T06:55:14.584Z</time>
      </trkpt>
      <trkpt lat="55.37665" lon="26.31408">
        <ele>190.047173</ele>
        <time>2020-10-07T06:55:27.675Z</time>
      </trkpt>
      <trkpt lat="55.37631" lon="26.31365">
        <ele>187.78341</ele>
        <time>2020-10-07T06:55:33.663Z</time>
      </trkpt>
      <trkpt lat="55.37606" lon="26.31319">
        <ele>185.689786</ele>
        <time>2020-10-07T06:55:38.841Z</time>
      </trkpt>
      <trkpt lat="55.37597" lon="26.31299">
        <ele>184.861343</ele>
        <time>2020-10-07T06:55:40.885Z</time>
      </trkpt>
      <trkpt lat="55.37591" lon="26.31284">
        <ele>184.248412</ele>
        <time>2020-10-07T06:55:42.402Z</time>
      </trkpt>
      <trkpt lat="55.37578" lon="26.31241">
        <ele>182.651591</ele>
        <time>2020-10-07T06:55:46.519Z</time>
      </trkpt>
      <trkpt lat="55.3756" lon="26.31168">
        <ele>180.02257</ele>
        <time>2020-10-07T06:55:53.430Z</time>
      </trkpt>
      <trkpt lat="55.37522" lon="26.3102">
        <ele>177.101856</ele>
        <time>2020-10-07T06:56:08.218Z</time>
      </trkpt>
      <trkpt lat="55.37499" lon="26.30954">
        <ele>175.93392</ele>
        <time>2020-10-07T06:56:16.067Z</time>
      </trkpt>
      <trkpt lat="55.37359" lon="26.30666">
        <ele>172.112691</ele>
        <time>2020-10-07T06:56:55.425Z</time>
      </trkpt>
      <trkpt lat="55.37331" lon="26.30618">
        <ele>171.685846</ele>
        <time>2020-10-07T06:57:02.799Z</time>
      </trkpt>
      <trkpt lat="55.37265" lon="26.305">
        <ele>171.193419</ele>
        <time>2020-10-07T06:57:21.616Z</time>
      </trkpt>
      <trkpt lat="55.37254" lon="26.30473">
        <ele>171.092819</ele>
        <time>2020-10-07T06:57:25.622Z</time>
      </trkpt>
      <trkpt lat="55.37243" lon="26.30426">
        <ele>170.941112</ele>
        <time>2020-10-07T06:57:31.834Z</time>
      </trkpt>
      <trkpt lat="55.37218" lon="26.30108">
        <ele>171.264042</ele>
        <time>2020-10-07T06:58:14.666Z</time>
      </trkpt>
      <trkpt lat="55.3721" lon="26.30069">
        <ele>171.343186</ele>
        <time>2020-10-07T06:58:20.358Z</time>
      </trkpt>
      <trkpt lat="55.37108" lon="26.30064">
        <ele>172.066424</ele>
        <time>2020-10-07T06:58:44.974Z</time>
      </trkpt>
      <trkpt lat="55.36826" lon="26.30043">
        <ele>175.457892</ele>
        <time>2020-10-07T06:59:59.983Z</time>
      </trkpt>
      <trkpt lat="55.3676" lon="26.30037">
        <ele>177.203961</ele>
        <time>2020-10-07T07:00:22.665Z</time>
      </trkpt>
      <trkpt lat="55.36705" lon="26.30033">
        <ele>178.661149</ele>
        <time>2020-10-07T07:00:41.997Z</time>
      </trkpt>
      <trkpt lat="55.36668" lon="26.30026">
        <ele>179.584912</ele>
        <time>2020-10-07T07:00:55.340Z</time>
      </trkpt>
      <trkpt lat="55.36661" lon="26.30028">
        <ele>179.665474</ele>
        <time>2020-10-07T07:00:57.762Z</time>
      </trkpt>
      <trkpt lat="55.36654" lon="26.30032">
        <ele>179.758395</ele>
        <time>2020-10-07T07:01:00.186Z</time>
      </trkpt>
      <trkpt lat="55.36643" lon="26.30041">
        <ele>179.916242</ele>
        <time>2020-10-07T07:01:04.382Z</time>
      </trkpt>
      <trkpt lat="55.36613" lon="26.3008">
        <ele>180.381857</ele>
        <time>2020-10-07T07:01:15.925Z</time>
      </trkpt>
      <trkpt lat="55.36575" lon="26.30131">
        <ele>180.9786</ele>
        <time>2020-10-07T07:01:29.152Z</time>
      </trkpt>
      <trkpt lat="55.36546" lon="26.30175">
        <ele>181.468754</ele>
        <time>2020-10-07T07:01:38.603Z</time>
      </trkpt>
      <trkpt lat="55.36534" lon="26.30187">
        <ele>181.632437</ele>
        <time>2020-10-07T07:01:41.447Z</time>
      </trkpt>
      <trkpt lat="55.36522" lon="26.30177">
        <ele>181.72346</ele>
        <time>2020-10-07T07:01:43.985Z</time>
      </trkpt>
      <trkpt lat="55.36318" lon="26.29978">
        <ele>178.660489</ele>
        <time>2020-10-07T07:02:26.295Z</time>
      </trkpt>
      <trkpt lat="55.36287" lon="26.29949">
        <ele>178.339257</ele>
        <time>2020-10-07T07:02:33.189Z</time>
      </trkpt>
      <trkpt lat="55.36309" lon="26.29887">
        <ele>177.96348</ele>
        <time>2020-10-07T07:02:41.565Z</time>
      </trkpt>
      <trkpt lat="55.36326" lon="26.29842">
        <ele>177.683882</ele>
        <time>2020-10-07T07:02:47.989Z</time>
      </trkpt>
      <trkpt lat="55.36347" lon="26.29791">
        <ele>177.566808</ele>
        <time>2020-10-07T07:02:55.612Z</time>
      </trkpt>
      <trkpt lat="55.3649" lon="26.29509">
        <ele>178.051899</ele>
        <time>2020-10-07T07:03:45.233Z</time>
      </trkpt>
      <trkpt lat="55.36541" lon="26.29393">
        <ele>178.559751</ele>
        <time>2020-10-07T07:04:06.002Z</time>
      </trkpt>
      <trkpt lat="55.36575" lon="26.29296">
        <ele>179.053188</ele>
        <time>2020-10-07T07:04:22.917Z</time>
      </trkpt>
      <trkpt lat="55.36689" lon="26.28952">
        <ele>181.021762</ele>
        <time>2020-10-07T07:05:22.989Z</time>
      </trkpt>
      <trkpt lat="55.36719" lon="26.28856">
        <ele>181.351547</ele>
        <time>2020-10-07T07:05:37.800Z</time>
      </trkpt>
      <trkpt lat="55.36737" lon="26.28795">
        <ele>181.560773</ele>
        <time>2020-10-07T07:05:46.878Z</time>
      </trkpt>
      <trkpt lat="55.3674" lon="26.28785">
        <ele>181.595299</ele>
        <time>2020-10-07T07:05:48.419Z</time>
      </trkpt>
      <trkpt lat="55.36766" lon="26.28689">
        <ele>181.394574</ele>
        <time>2020-10-07T07:06:01.368Z</time>
      </trkpt>
      <trkpt lat="55.36779" lon="26.2864">
        <ele>181.280963</ele>
        <time>2020-10-07T07:06:07.839Z</time>
      </trkpt>
      <trkpt lat="55.36799" lon="26.28564">
        <ele>181.10813</ele>
        <time>2020-10-07T07:06:17.431Z</time>
      </trkpt>
      <trkpt lat="55.36825" lon="26.2847">
        <ele>181.001356</ele>
        <time>2020-10-07T07:06:29.211Z</time>
      </trkpt>
      <trkpt lat="55.36878" lon="26.28269">
        <ele>181.400146</ele>
        <time>2020-10-07T07:06:57.288Z</time>
      </trkpt>
      <trkpt lat="55.36936" lon="26.28048">
        <ele>184.069034</ele>
        <time>2020-10-07T07:07:38.155Z</time>
      </trkpt>
      <trkpt lat="55.36952" lon="26.27964">
        <ele>185.340201</ele>
        <time>2020-10-07T07:07:56.017Z</time>
      </trkpt>
      <trkpt lat="55.37003" lon="26.27255">
        <ele>200.138183</ele>
        <time>2020-10-07T07:10:29.671Z</time>
      </trkpt>
      <trkpt lat="55.37063" lon="26.26667">
        <ele>207.797996</ele>
        <time>2020-10-07T07:12:16.246Z</time>
      </trkpt>
      <trkpt lat="55.37078" lon="26.26408">
        <ele>207.931429</ele>
        <time>2020-10-07T07:12:49.972Z</time>
      </trkpt>
      <trkpt lat="55.37095" lon="26.26253">
        <ele>207.223234</ele>
        <time>2020-10-07T07:13:07.004Z</time>
      </trkpt>
      <trkpt lat="55.37155" lon="26.25884">
        <ele>204.297262</ele>
        <time>2020-10-07T07:13:47.280Z</time>
      </trkpt>
      <trkpt lat="55.37196" lon="26.25669">
        <ele>202.515483</ele>
        <time>2020-10-07T07:14:11.681Z</time>
      </trkpt>
      <trkpt lat="55.37236" lon="26.25533">
        <ele>201.285902</ele>
        <time>2020-10-07T07:14:27.754Z</time>
      </trkpt>
      <trkpt lat="55.3728" lon="26.25427">
        <ele>200.374045</ele>
        <time>2020-10-07T07:14:41.193Z</time>
      </trkpt>
      <trkpt lat="55.37313" lon="26.2536">
        <ele>199.958541</ele>
        <time>2020-10-07T07:14:50.647Z</time>
      </trkpt>
      <trkpt lat="55.37361" lon="26.25275">
        <ele>199.395128</ele>
        <time>2020-10-07T07:15:04.220Z</time>
      </trkpt>
      <trkpt lat="55.37497" lon="26.25045">
        <ele>199.171423</ele>
        <time>2020-10-07T07:15:47.936Z</time>
      </trkpt>
      <trkpt lat="55.37695" lon="26.24707">
        <ele>197.826597</ele>
        <time>2020-10-07T07:16:45.179Z</time>
      </trkpt>
      <trkpt lat="55.37728" lon="26.24648">
        <ele>197.418306</ele>
        <time>2020-10-07T07:16:54.232Z</time>
      </trkpt>
      <trkpt lat="55.3778" lon="26.24542">
        <ele>196.705905</ele>
        <time>2020-10-07T07:17:09.314Z</time>
      </trkpt>
      <trkpt lat="55.37809" lon="26.24469">
        <ele>196.164131</ele>
        <time>2020-10-07T07:17:19.023Z</time>
      </trkpt>
      <trkpt lat="55.37858" lon="26.24322">
        <ele>195.137619</ele>
        <time>2020-10-07T07:17:37.812Z</time>
      </trkpt>
      <trkpt lat="55.37891" lon="26.24205">
        <ele>194.52641</ele>
        <time>2020-10-07T07:17:52.126Z</time>
      </trkpt>
      <trkpt lat="55.37914" lon="26.24103">
        <ele>194.061073</ele>
        <time>2020-10-07T07:18:04.412Z</time>
      </trkpt>
      <trkpt lat="55.37938" lon="26.23971">
        <ele>193.574408</ele>
        <time>2020-10-07T07:18:20.448Z</time>
      </trkpt>
      <trkpt lat="55.38004" lon="26.23569">
        <ele>193.191533</ele>
        <time>2020-10-07T07:19:12.848Z</time>
      </trkpt>
      <trkpt lat="55.38016" lon="26.23417">
        <ele>193.028996</ele>
        <time>2020-10-07T07:19:31.959Z</time>
      </trkpt>
      <trkpt lat="55.38012" lon="26.23261">
        <ele>192.499724</ele>
        <time>2020-10-07T07:19:49.990Z</time>
      </trkpt>
      <trkpt lat="55.38001" lon="26.23168">
        <ele>192.121354</ele>
        <time>2020-10-07T07:20:00.488Z</time>
      </trkpt>
      <trkpt lat="55.37983" lon="26.23077">
        <ele>191.738544</ele>
        <time>2020-10-07T07:20:11.161Z</time>
      </trkpt>
      <trkpt lat="55.37947" lon="26.22914">
        <ele>191.877146</ele>
        <time>2020-10-07T07:20:32.406Z</time>
      </trkpt>
      <trkpt lat="55.37869" lon="26.2257">
        <ele>192.764771</ele>
        <time>2020-10-07T07:21:26.443Z</time>
      </trkpt>
      <trkpt lat="55.37759" lon="26.22084">
        <ele>193.270241</ele>
        <time>2020-10-07T07:22:32.591Z</time>
      </trkpt>
      <trkpt lat="55.37752" lon="26.22059">
        <ele>193.309891</ele>
        <time>2020-10-07T07:22:36.171Z</time>
      </trkpt>
      <trkpt lat="55.37738" lon="26.22013">
        <ele>193.383992</ele>
        <time>2020-10-07T07:22:43.151Z</time>
      </trkpt>
      <trkpt lat="55.37721" lon="26.21966">
        <ele>193.463537</ele>
        <time>2020-10-07T07:22:50.828Z</time>
      </trkpt>
      <trkpt lat="55.37611" lon="26.21733">
        <ele>194.113893</ele>
        <time>2020-10-07T07:23:33.505Z</time>
      </trkpt>
      <trkpt lat="55.37523" lon="26.21542">
        <ele>193.891288</ele>
        <time>2020-10-07T07:24:03.837Z</time>
      </trkpt>
      <trkpt lat="55.3751" lon="26.21509">
        <ele>193.797306</ele>
        <time>2020-10-07T07:24:08.364Z</time>
      </trkpt>
      <trkpt lat="55.37507" lon="26.21498">
        <ele>193.767331</ele>
        <time>2020-10-07T07:24:09.816Z</time>
      </trkpt>
      <trkpt lat="55.37492" lon="26.2145">
        <ele>193.639493</ele>
        <time>2020-10-07T07:24:15.919Z</time>
      </trkpt>
      <trkpt lat="55.3743" lon="26.21174">
        <ele>192.650173</ele>
        <time>2020-10-07T07:24:49.654Z</time>
      </trkpt>
      <trkpt lat="55.37424" lon="26.21152">
        <ele>192.561636</ele>
        <time>2020-10-07T07:24:52.775Z</time>
      </trkpt>
      <trkpt lat="55.37415" lon="26.21124">
        <ele>192.452581</ele>
        <time>2020-10-07T07:24:56.607Z</time>
      </trkpt>
      <trkpt lat="55.37396" lon="26.21067">
        <ele>192.270856</ele>
        <time>2020-10-07T07:25:04.633Z</time>
      </trkpt>
      <trkpt lat="55.37344" lon="26.20911">
        <ele>191.777904</ele>
        <time>2020-10-07T07:25:26.280Z</time>
      </trkpt>
      <trkpt lat="55.37324" lon="26.20851">
        <ele>191.587699</ele>
        <time>2020-10-07T07:25:34.172Z</time>
      </trkpt>
      <trkpt lat="55.3732" lon="26.20841">
        <ele>191.517933</ele>
        <time>2020-10-07T07:25:35.532Z</time>
      </trkpt>
      <trkpt lat="55.37313" lon="26.20818">
        <ele>191.345532</ele>
        <time>2020-10-07T07:25:38.404Z</time>
      </trkpt>
      <trkpt lat="55.37308" lon="26.20803">
        <ele>191.231545</ele>
        <time>2020-10-07T07:25:40.290Z</time>
      </trkpt>
      <trkpt lat="55.37299" lon="26.20811">
        <ele>191.115691</ele>
        <time>2020-10-07T07:25:42.359Z</time>
      </trkpt>
      <trkpt lat="55.37245" lon="26.2066">
        <ele>189.934599</ele>
        <time>2020-10-07T07:26:02.209Z</time>
      </trkpt>
      <trkpt lat="55.37184" lon="26.20507">
        <ele>188.994323</ele>
        <time>2020-10-07T07:26:23.244Z</time>
      </trkpt>
      <trkpt lat="55.37089" lon="26.2027">
        <ele>187.975347</ele>
        <time>2020-10-07T07:26:58.908Z</time>
      </trkpt>
      <trkpt lat="55.37001" lon="26.20084">
        <ele>187.538572</ele>
        <time>2020-10-07T07:27:29.262Z</time>
      </trkpt>
      <trkpt lat="55.36935" lon="26.19888">
        <ele>187.658311</ele>
        <time>2020-10-07T07:28:00.064Z</time>
      </trkpt>
      <trkpt lat="55.36884" lon="26.19673">
        <ele>187.366339</ele>
        <time>2020-10-07T07:28:31.983Z</time>
      </trkpt>
      <trkpt lat="55.36794" lon="26.19285">
        <ele>185.528519</ele>
        <time>2020-10-07T07:29:20.300Z</time>
      </trkpt>
      <trkpt lat="55.36741" lon="26.19067">
        <ele>184.26759</ele>
        <time>2020-10-07T07:29:47.197Z</time>
      </trkpt>
      <trkpt lat="55.36672" lon="26.18844">
        <ele>183.249</ele>
        <time>2020-10-07T07:30:17.834Z</time>
      </trkpt>
      <trkpt lat="55.36624" lon="26.18728">
        <ele>182.843024</ele>
        <time>2020-10-07T07:30:35.853Z</time>
      </trkpt>
      <trkpt lat="55.36441" lon="26.18355">
        <ele>181.516399</ele>
        <time>2020-10-07T07:31:35.198Z</time>
      </trkpt>
      <trkpt lat="55.36334" lon="26.18254">
        <ele>181.366377</ele>
        <time>2020-10-07T07:32:03.665Z</time>
      </trkpt>
      <trkpt lat="55.36293" lon="26.18205">
        <ele>181.503217</ele>
        <time>2020-10-07T07:32:16.465Z</time>
      </trkpt>
      <trkpt lat="55.36268" lon="26.18142">
        <ele>181.62428</ele>
        <time>2020-10-07T07:32:27.809Z</time>
      </trkpt>
      <trkpt lat="55.36252" lon="26.18102">
        <ele>181.700837</ele>
        <time>2020-10-07T07:32:34.622Z</time>
      </trkpt>
      <trkpt lat="55.36244" lon="26.18086">
        <ele>181.734369</ele>
        <time>2020-10-07T07:32:37.896Z</time>
      </trkpt>
      <trkpt lat="55.36215" lon="26.18058">
        <ele>181.825725</ele>
        <time>2020-10-07T07:32:46.040Z</time>
      </trkpt>
      <trkpt lat="55.35395" lon="26.17773">
        <ele>171.451285</ele>
        <time>2020-10-07T07:35:30.748Z</time>
      </trkpt>
      <trkpt lat="55.3534" lon="26.17761">
        <ele>170.635861</ele>
        <time>2020-10-07T07:35:41.180Z</time>
      </trkpt>
      <trkpt lat="55.34968" lon="26.17745">
        <ele>164.170475</ele>
        <time>2020-10-07T07:36:50.375Z</time>
      </trkpt>
      <trkpt lat="55.34927" lon="26.17741">
        <ele>164.528759</ele>
        <time>2020-10-07T07:36:59.969Z</time>
      </trkpt>
      <trkpt lat="55.34894" lon="26.17738">
        <ele>164.810308</ele>
        <time>2020-10-07T07:37:08.640Z</time>
      </trkpt>
      <trkpt lat="55.34838" lon="26.17736">
        <ele>165.304056</ele>
        <time>2020-10-07T07:37:24.923Z</time>
      </trkpt>
      <trkpt lat="55.34809" lon="26.17745">
        <ele>165.556126</ele>
        <time>2020-10-07T07:37:33.788Z</time>
      </trkpt>
      <trkpt lat="55.3477" lon="26.17785">
        <ele>166.061191</ele>
        <time>2020-10-07T07:37:49.392Z</time>
      </trkpt>
      <trkpt lat="55.34654" lon="26.17612">
        <ele>167.88183</ele>
        <time>2020-10-07T07:38:33.149Z</time>
      </trkpt>
      <trkpt lat="55.34595" lon="26.17574">
        <ele>166.595563</ele>
        <time>2020-10-07T07:38:45.041Z</time>
      </trkpt>
      <trkpt lat="55.34581" lon="26.17549">
        <ele>166.184178</ele>
        <time>2020-10-07T07:38:48.752Z</time>
      </trkpt>
      <trkpt lat="55.34575" lon="26.17524">
        <ele>165.866316</ele>
        <time>2020-10-07T07:38:51.411Z</time>
      </trkpt>
      <trkpt lat="55.34502" lon="26.17454">
        <ele>164.152151</ele>
        <time>2020-10-07T07:39:04.987Z</time>
      </trkpt>
      <trkpt lat="55.34485" lon="26.17439">
        <ele>163.691303</ele>
        <time>2020-10-07T07:39:08.103Z</time>
      </trkpt>
      <trkpt lat="55.34393" lon="26.17361">
        <ele>161.292363</ele>
        <time>2020-10-07T07:39:25.055Z</time>
      </trkpt>
      <trkpt lat="55.34361" lon="26.17333">
        <ele>160.464606</ele>
        <time>2020-10-07T07:39:31.420Z</time>
      </trkpt>
      <trkpt lat="55.34329" lon="26.17305">
        <ele>159.997097</ele>
        <time>2020-10-07T07:39:38.462Z</time>
      </trkpt>
      <trkpt lat="55.34275" lon="26.17255">
        <ele>160.028416</ele>
        <time>2020-10-07T07:39:51.938Z</time>
      </trkpt>
      <trkpt lat="55.34261" lon="26.17243">
        <ele>160.036476</ele>
        <time>2020-10-07T07:39:55.508Z</time>
      </trkpt>
      <trkpt lat="55.34269" lon="26.17212">
        <ele>160.046541</ele>
        <time>2020-10-07T07:40:00.382Z</time>
      </trkpt>
      <trkpt lat="55.3428" lon="26.17171">
        <ele>160.059455</ele>
        <time>2020-10-07T07:40:06.487Z</time>
      </trkpt>
      <trkpt lat="55.34288" lon="26.17146">
        <ele>160.067682</ele>
        <time>2020-10-07T07:40:10.606Z</time>
      </trkpt>
      <trkpt lat="55.34304" lon="26.17086">
        <ele>160.13506</ele>
        <time>2020-10-07T07:40:20.096Z</time>
      </trkpt>
      <trkpt lat="55.34309" lon="26.17072">
        <ele>160.177336</ele>
        <time>2020-10-07T07:40:22.435Z</time>
      </trkpt>
      <trkpt lat="55.34319" lon="26.17055">
        <ele>160.237142</ele>
        <time>2020-10-07T07:40:25.765Z</time>
      </trkpt>
      <trkpt lat="55.34325" lon="26.17049">
        <ele>160.270361</ele>
        <time>2020-10-07T07:40:27.618Z</time>
      </trkpt>
      <trkpt lat="55.34333" lon="26.17043">
        <ele>160.309292</ele>
        <time>2020-10-07T07:40:29.782Z</time>
      </trkpt>
      <trkpt lat="55.34338" lon="26.17038">
        <ele>160.333759</ele>
        <time>2020-10-07T07:40:31.110Z</time>
      </trkpt>
      <trkpt lat="55.34348" lon="26.1702">
        <ele>160.39997</ele>
        <time>2020-10-07T07:40:34.776Z</time>
      </trkpt>
      <trkpt lat="55.3436" lon="26.16978">
        <ele>160.517469</ele>
        <time>2020-10-07T07:40:41.199Z</time>
      </trkpt>
      <trkpt lat="55.34358" lon="26.16947">
        <ele>160.597823</ele>
        <time>2020-10-07T07:40:45.566Z</time>
      </trkpt>
      <trkpt lat="55.34354" lon="26.16924">
        <ele>160.658433</ele>
        <time>2020-10-07T07:40:48.791Z</time>
      </trkpt>
      <trkpt lat="55.34329" lon="26.1689">
        <ele>160.799457</ele>
        <time>2020-10-07T07:40:56.077Z</time>
      </trkpt>
      <trkpt lat="55.3423" lon="26.16758">
        <ele>160.88738</ele>
        <time>2020-10-07T07:41:24.246Z</time>
      </trkpt>
      <trkpt lat="55.34198" lon="26.16715">
        <ele>160.888013</ele>
        <time>2020-10-07T07:41:33.108Z</time>
      </trkpt>
      <trkpt lat="55.34181" lon="26.16692">
        <ele>160.888339</ele>
        <time>2020-10-07T07:41:37.674Z</time>
      </trkpt>
      <trkpt lat="55.3417" lon="26.16677">
        <ele>160.888195</ele>
        <time>2020-10-07T07:41:40.575Z</time>
      </trkpt>
      <trkpt lat="55.34165" lon="26.1667">
        <ele>160.879356</ele>
        <time>2020-10-07T07:41:42.148Z</time>
      </trkpt>
      <trkpt lat="55.34103" lon="26.16582">
        <ele>160.778124</ele>
        <time>2020-10-07T07:41:59.291Z</time>
      </trkpt>
      <trkpt lat="55.34089" lon="26.16564">
        <ele>160.756724</ele>
        <time>2020-10-07T07:42:02.831Z</time>
      </trkpt>
      <trkpt lat="55.33986" lon="26.16423">
        <ele>160.976011</ele>
        <time>2020-10-07T07:42:31.787Z</time>
      </trkpt>
      <trkpt lat="55.33952" lon="26.16378">
        <ele>161.218801</ele>
        <time>2020-10-07T07:42:42.130Z</time>
      </trkpt>
      <trkpt lat="55.3395" lon="26.16376">
        <ele>161.230065</ele>
        <time>2020-10-07T07:42:42.638Z</time>
      </trkpt>
      <trkpt lat="55.3394" lon="26.16363">
        <ele>161.304215</ele>
        <time>2020-10-07T07:42:45.994Z</time>
      </trkpt>
      <trkpt lat="55.33917" lon="26.16335">
        <ele>161.4604</ele>
        <time>2020-10-07T07:42:53.240Z</time>
      </trkpt>
      <trkpt lat="55.33898" lon="26.16311">
        <ele>161.598469</ele>
        <time>2020-10-07T07:42:59.846Z</time>
      </trkpt>
      <trkpt lat="55.33856" lon="26.16259">
        <ele>161.818157</ele>
        <time>2020-10-07T07:43:13.567Z</time>
      </trkpt>
      <trkpt lat="55.338" lon="26.16189">
        <ele>162.06404</ele>
        <time>2020-10-07T07:43:30.288Z</time>
      </trkpt>
      <trkpt lat="55.33794" lon="26.16177">
        <ele>162.097862</ele>
        <time>2020-10-07T07:43:32.348Z</time>
      </trkpt>
      <trkpt lat="55.33789" lon="26.16168">
        <ele>162.122083</ele>
        <time>2020-10-07T07:43:33.944Z</time>
      </trkpt>
      <trkpt lat="55.33787" lon="26.16159">
        <ele>162.141865</ele>
        <time>2020-10-07T07:43:35.335Z</time>
      </trkpt>
      <trkpt lat="55.33786" lon="26.16141">
        <ele>162.180176</ele>
        <time>2020-10-07T07:43:37.774Z</time>
      </trkpt>
      <trkpt lat="55.33786" lon="26.1613">
        <ele>162.20107</ele>
        <time>2020-10-07T07:43:39.255Z</time>
      </trkpt>
      <trkpt lat="55.33787" lon="26.16117">
        <ele>162.228699</ele>
        <time>2020-10-07T07:43:40.900Z</time>
      </trkpt>
      <trkpt lat="55.3379" lon="26.16099">
        <ele>162.267987</ele>
        <time>2020-10-07T07:43:43.574Z</time>
      </trkpt>
      <trkpt lat="55.33792" lon="26.16088">
        <ele>162.290657</ele>
        <time>2020-10-07T07:43:44.894Z</time>
      </trkpt>
      <trkpt lat="55.33814" lon="26.15978">
        <ele>161.942164</ele>
        <time>2020-10-07T07:43:59.050Z</time>
      </trkpt>
      <trkpt lat="55.33824" lon="26.15931">
        <ele>161.722725</ele>
        <time>2020-10-07T07:44:04.849Z</time>
      </trkpt>
      <trkpt lat="55.33862" lon="26.15763">
        <ele>160.964538</ele>
        <time>2020-10-07T07:44:25.702Z</time>
      </trkpt>
      <trkpt lat="55.33867" lon="26.15728">
        <ele>160.904886</ele>
        <time>2020-10-07T07:44:30.095Z</time>
      </trkpt>
      <trkpt lat="55.33884" lon="26.15537">
        <ele>160.582148</ele>
        <time>2020-10-07T07:44:54.770Z</time>
      </trkpt>
      <trkpt lat="55.33892" lon="26.15438">
        <ele>160.445341</ele>
        <time>2020-10-07T07:45:07.741Z</time>
      </trkpt>
      <trkpt lat="55.33895" lon="26.15376">
        <ele>160.430272</ele>
        <time>2020-10-07T07:45:16.016Z</time>
      </trkpt>
      <trkpt lat="55.33899" lon="26.15317">
        <ele>160.415896</ele>
        <time>2020-10-07T07:45:23.779Z</time>
      </trkpt>
      <trkpt lat="55.33901" lon="26.15262">
        <ele>160.402662</ele>
        <time>2020-10-07T07:45:30.823Z</time>
      </trkpt>
      <trkpt lat="55.33904" lon="26.15166">
        <ele>160.379471</ele>
        <time>2020-10-07T07:45:42.976Z</time>
      </trkpt>
      <trkpt lat="55.3391" lon="26.15009">
        <ele>160.845979</ele>
        <time>2020-10-07T07:46:03.715Z</time>
      </trkpt>
      <trkpt lat="55.33912" lon="26.14935">
        <ele>161.109533</ele>
        <time>2020-10-07T07:46:14.530Z</time>
      </trkpt>
      <trkpt lat="55.33912" lon="26.14913">
        <ele>161.185587</ele>
        <time>2020-10-07T07:46:17.897Z</time>
      </trkpt>
      <trkpt lat="55.33904" lon="26.14911">
        <ele>161.235038</ele>
        <time>2020-10-07T07:46:19.656Z</time>
      </trkpt>
      <trkpt lat="55.33905" lon="26.14833">
        <ele>161.520064</ele>
        <time>2020-10-07T07:46:31.675Z</time>
      </trkpt>
      <trkpt lat="55.33912" lon="26.14624">
        <ele>162.657747</ele>
        <time>2020-10-07T07:47:04.890Z</time>
      </trkpt>
      <trkpt lat="55.33911" lon="26.14491">
        <ele>163.177748</ele>
        <time>2020-10-07T07:47:25.238Z</time>
      </trkpt>
      <trkpt lat="55.33921" lon="26.14258">
        <ele>162.997613</ele>
        <time>2020-10-07T07:47:56.320Z</time>
      </trkpt>
      <trkpt lat="55.33931" lon="26.1426">
        <ele>162.983366</ele>
        <time>2020-10-07T07:47:59.074Z</time>
      </trkpt>
      <trkpt lat="55.33933" lon="26.14138">
        <ele>161.971376</ele>
        <time>2020-10-07T07:48:11.712Z</time>
      </trkpt>
      <trkpt lat="55.33929" lon="26.14058">
        <ele>161.089683</ele>
        <time>2020-10-07T07:48:19.845Z</time>
      </trkpt>
      <trkpt lat="55.33926" lon="26.14007">
        <ele>160.528121</ele>
        <time>2020-10-07T07:48:24.880Z</time>
      </trkpt>
      <trkpt lat="55.33907" lon="26.13863">
        <ele>159.039057</ele>
        <time>2020-10-07T07:48:39.274Z</time>
      </trkpt>
      <trkpt lat="55.33877" lon="26.1373">
        <ele>157.817239</ele>
        <time>2020-10-07T07:48:53.637Z</time>
      </trkpt>
      <trkpt lat="55.33848" lon="26.1363">
        <ele>156.853779</ele>
        <time>2020-10-07T07:49:06.250Z</time>
      </trkpt>
      <trkpt lat="55.33779" lon="26.13418">
        <ele>156.759226</ele>
        <time>2020-10-07T07:49:37.766Z</time>
      </trkpt>
      <trkpt lat="55.33791" lon="26.13404">
        <ele>156.755493</ele>
        <time>2020-10-07T07:49:41.327Z</time>
      </trkpt>
      <trkpt lat="55.3385" lon="26.13309">
        <ele>156.539782</ele>
        <time>2020-10-07T07:49:58.998Z</time>
      </trkpt>
      <trkpt lat="55.3386" lon="26.1329">
        <ele>156.478231</ele>
        <time>2020-10-07T07:50:02.154Z</time>
      </trkpt>
      <trkpt lat="55.33869" lon="26.13267">
        <ele>156.408267</ele>
        <time>2020-10-07T07:50:05.652Z</time>
      </trkpt>
      <trkpt lat="55.33886" lon="26.13222">
        <ele>156.278</ele>
        <time>2020-10-07T07:50:12.096Z</time>
      </trkpt>
      <trkpt lat="55.33895" lon="26.13195">
        <ele>156.204749</ele>
        <time>2020-10-07T07:50:15.739Z</time>
      </trkpt>
      <trkpt lat="55.33902" lon="26.1317">
        <ele>156.135825</ele>
        <time>2020-10-07T07:50:18.865Z</time>
      </trkpt>
      <trkpt lat="55.33929" lon="26.13071">
        <ele>155.719398</ele>
        <time>2020-10-07T07:50:31.072Z</time>
      </trkpt>
      <trkpt lat="55.33997" lon="26.12816">
        <ele>154.162269</ele>
        <time>2020-10-07T07:51:01.651Z</time>
      </trkpt>
      <trkpt lat="55.34174" lon="26.12151">
        <ele>151.930775</ele>
        <time>2020-10-07T07:52:27.932Z</time>
      </trkpt>
      <trkpt lat="55.34192" lon="26.12079">
        <ele>151.668346</ele>
        <time>2020-10-07T07:52:37.391Z</time>
      </trkpt>
      <trkpt lat="55.34228" lon="26.11949">
        <ele>151.092385</ele>
        <time>2020-10-07T07:52:54.051Z</time>
      </trkpt>
      <trkpt lat="55.34233" lon="26.11938">
        <ele>150.978619</ele>
        <time>2020-10-07T07:52:55.613Z</time>
      </trkpt>
      <trkpt lat="55.34261" lon="26.11871">
        <ele>150.328443</ele>
        <time>2020-10-07T07:53:04.465Z</time>
      </trkpt>
      <trkpt lat="55.3431" lon="26.1182">
        <ele>149.550843</ele>
        <time>2020-10-07T07:53:14.666Z</time>
      </trkpt>
      <trkpt lat="55.3437" lon="26.11785">
        <ele>148.702541</ele>
        <time>2020-10-07T07:53:26.245Z</time>
      </trkpt>
      <trkpt lat="55.34383" lon="26.1178">
        <ele>148.551655</ele>
        <time>2020-10-07T07:53:28.638Z</time>
      </trkpt>
      <trkpt lat="55.34399" lon="26.11775">
        <ele>148.385031</ele>
        <time>2020-10-07T07:53:31.624Z</time>
      </trkpt>
      <trkpt lat="55.34433" lon="26.1177">
        <ele>148.015433</ele>
        <time>2020-10-07T07:53:37.858Z</time>
      </trkpt>
      <trkpt lat="55.34494" lon="26.11762">
        <ele>147.363232</ele>
        <time>2020-10-07T07:53:49.126Z</time>
      </trkpt>
      <trkpt lat="55.34598" lon="26.11751">
        <ele>147.291133</ele>
        <time>2020-10-07T07:54:12.912Z</time>
      </trkpt>
      <trkpt lat="55.34688" lon="26.11741">
        <ele>147.984349</ele>
        <time>2020-10-07T07:54:36.675Z</time>
      </trkpt>
      <trkpt lat="55.34765" lon="26.11732">
        <ele>148.875715</ele>
        <time>2020-10-07T07:54:57.874Z</time>
      </trkpt>
      <trkpt lat="55.34857" lon="26.1172">
        <ele>150.191227</ele>
        <time>2020-10-07T07:55:22.860Z</time>
      </trkpt>
      <trkpt lat="55.34884" lon="26.11717">
        <ele>150.590337</ele>
        <time>2020-10-07T07:55:30.843Z</time>
      </trkpt>
      <trkpt lat="55.34909" lon="26.11715">
        <ele>151.124237</ele>
        <time>2020-10-07T07:55:38.140Z</time>
      </trkpt>
      <trkpt lat="55.34934" lon="26.11714">
        <ele>152.004468</ele>
        <time>2020-10-07T07:55:45.628Z</time>
      </trkpt>
      <trkpt lat="55.35011" lon="26.11725">
        <ele>154.725851</ele>
        <time>2020-10-07T07:56:12.334Z</time>
      </trkpt>
      <trkpt lat="55.35056" lon="26.11747">
        <ele>156.347583</ele>
        <time>2020-10-07T07:56:30.783Z</time>
      </trkpt>
      <trkpt lat="55.35099" lon="26.11787">
        <ele>158.593794</ele>
        <time>2020-10-07T07:56:52.516Z</time>
      </trkpt>
      <trkpt lat="55.35133" lon="26.11835">
        <ele>160.933816</ele>
        <time>2020-10-07T07:57:12.418Z</time>
      </trkpt>
      <trkpt lat="55.3521" lon="26.1199">
        <ele>167.163537</ele>
        <time>2020-10-07T07:58:05.520Z</time>
      </trkpt>
      <trkpt lat="55.35244" lon="26.12041">
        <ele>168.362081</ele>
        <time>2020-10-07T07:58:23.299Z</time>
      </trkpt>
      <trkpt lat="55.35291" lon="26.12107">
        <ele>169.968996</ele>
        <time>2020-10-07T07:58:44.272Z</time>
      </trkpt>
      <trkpt lat="55.35301" lon="26.1212">
        <ele>170.305449</ele>
        <time>2020-10-07T07:58:48.331Z</time>
      </trkpt>
      <trkpt lat="55.35542" lon="26.12391">
        <ele>170.910914</ele>
        <time>2020-10-07T07:59:53.543Z</time>
      </trkpt>
      <trkpt lat="55.35631" lon="26.1249">
        <ele>168.64854</ele>
        <time>2020-10-07T08:00:11.149Z</time>
      </trkpt>
      <trkpt lat="55.35765" lon="26.12639">
        <ele>163.297762</ele>
        <time>2020-10-07T08:00:35.903Z</time>
      </trkpt>
      <trkpt lat="55.35914" lon="26.12807">
        <ele>159.59099</ele>
        <time>2020-10-07T08:01:06.102Z</time>
      </trkpt>
      <trkpt lat="55.36096" lon="26.13009">
        <ele>160.423698</ele>
        <time>2020-10-07T08:02:00.981Z</time>
      </trkpt>
      <trkpt lat="55.36162" lon="26.13065">
        <ele>161.791735</ele>
        <time>2020-10-07T08:02:24.005Z</time>
      </trkpt>
      <trkpt lat="55.36262" lon="26.1311">
        <ele>163.910627</ele>
        <time>2020-10-07T08:02:55.709Z</time>
      </trkpt>
      <trkpt lat="55.36276" lon="26.13115">
        <ele>164.207719</ele>
        <time>2020-10-07T08:03:00.674Z</time>
      </trkpt>
      <trkpt lat="55.36304" lon="26.13119">
        <ele>164.648128</ele>
        <time>2020-10-07T08:03:08.949Z</time>
      </trkpt>
      <trkpt lat="55.36337" lon="26.13116">
        <ele>165.147734</ele>
        <time>2020-10-07T08:03:18.633Z</time>
      </trkpt>
      <trkpt lat="55.36364" lon="26.13105">
        <ele>165.576294</ele>
        <time>2020-10-07T08:03:26.772Z</time>
      </trkpt>
      <trkpt lat="55.36451" lon="26.13043">
        <ele>166.995308</ele>
        <time>2020-10-07T08:03:52.630Z</time>
      </trkpt>
      <trkpt lat="55.3653" lon="26.12992">
        <ele>167.501623</ele>
        <time>2020-10-07T08:04:13.716Z</time>
      </trkpt>
      <trkpt lat="55.36592" lon="26.1297">
        <ele>167.886541</ele>
        <time>2020-10-07T08:04:29.328Z</time>
      </trkpt>
      <trkpt lat="55.36948" lon="26.12902">
        <ele>168.068993</ele>
        <time>2020-10-07T08:05:49.703Z</time>
      </trkpt>
      <trkpt lat="55.37045" lon="26.12872">
        <ele>167.583698</ele>
        <time>2020-10-07T08:06:09.738Z</time>
      </trkpt>
      <trkpt lat="55.37117" lon="26.12822">
        <ele>167.04264</ele>
        <time>2020-10-07T08:06:25.077Z</time>
      </trkpt>
      <trkpt lat="55.37222" lon="26.1272">
        <ele>166.328196</ele>
        <time>2020-10-07T08:06:48.618Z</time>
      </trkpt>
      <trkpt lat="55.37278" lon="26.12649">
        <ele>165.946023</ele>
        <time>2020-10-07T08:07:02.793Z</time>
      </trkpt>
      <trkpt lat="55.37337" lon="26.12546">
        <ele>165.896333</ele>
        <time>2020-10-07T08:07:21.554Z</time>
      </trkpt>
      <trkpt lat="55.3736" lon="26.125">
        <ele>165.962007</ele>
        <time>2020-10-07T08:07:30.107Z</time>
      </trkpt>
      <trkpt lat="55.37402" lon="26.12414">
        <ele>166.084165</ele>
        <time>2020-10-07T08:07:45.539Z</time>
      </trkpt>
      <trkpt lat="55.37439" lon="26.12329">
        <ele>165.787731</ele>
        <time>2020-10-07T08:07:58.796Z</time>
      </trkpt>
      <trkpt lat="55.37444" lon="26.12312">
        <ele>165.67778</ele>
        <time>2020-10-07T08:08:01.538Z</time>
      </trkpt>
      <trkpt lat="55.37461" lon="26.12259">
        <ele>165.338422</ele>
        <time>2020-10-07T08:08:08.631Z</time>
      </trkpt>
      <trkpt lat="55.37483" lon="26.12193">
        <ele>164.918747</ele>
        <time>2020-10-07T08:08:16.878Z</time>
      </trkpt>
      <trkpt lat="55.37519" lon="26.12117">
        <ele>164.346532</ele>
        <time>2020-10-07T08:08:27.131Z</time>
      </trkpt>
      <trkpt lat="55.37608" lon="26.11995">
        <ele>161.532007</ele>
        <time>2020-10-07T08:08:46.008Z</time>
      </trkpt>
      <trkpt lat="55.37648" lon="26.1192">
        <ele>160.063082</ele>
        <time>2020-10-07T08:08:55.751Z</time>
      </trkpt>
      <trkpt lat="55.37698" lon="26.11821">
        <ele>159.361526</ele>
        <time>2020-10-07T08:09:09.172Z</time>
      </trkpt>
      <trkpt lat="55.37717" lon="26.11784">
        <ele>159.149023</ele>
        <time>2020-10-07T08:09:14.963Z</time>
      </trkpt>
      <trkpt lat="55.37769" lon="26.11702">
        <ele>158.620841</ele>
        <time>2020-10-07T08:09:30.444Z</time>
      </trkpt>
      <trkpt lat="55.3778" lon="26.11691">
        <ele>158.52996</ele>
        <time>2020-10-07T08:09:33.037Z</time>
      </trkpt>
      <trkpt lat="55.37791" lon="26.11681">
        <ele>158.597908</ele>
        <time>2020-10-07T08:09:36.966Z</time>
      </trkpt>
      <trkpt lat="55.38013" lon="26.11555">
        <ele>159.299188</ele>
        <time>2020-10-07T08:10:36.909Z</time>
      </trkpt>
      <trkpt lat="55.38082" lon="26.11488">
        <ele>158.540714</ele>
        <time>2020-10-07T08:10:51.522Z</time>
      </trkpt>
      <trkpt lat="55.38196" lon="26.1134">
        <ele>155.475427</ele>
        <time>2020-10-07T08:11:15.157Z</time>
      </trkpt>
      <trkpt lat="55.38248" lon="26.11299">
        <ele>153.987248</ele>
        <time>2020-10-07T08:11:24.790Z</time>
      </trkpt>
      <trkpt lat="55.38291" lon="26.11283">
        <ele>153.03184</ele>
        <time>2020-10-07T08:11:32.431Z</time>
      </trkpt>
      <trkpt lat="55.38298" lon="26.11286">
        <ele>152.90421</ele>
        <time>2020-10-07T08:11:33.597Z</time>
      </trkpt>
      <trkpt lat="55.38312" lon="26.11225">
        <ele>152.201585</ele>
        <time>2020-10-07T08:11:40.348Z</time>
      </trkpt>
      <trkpt lat="55.38362" lon="26.11023">
        <ele>149.904771</ele>
        <time>2020-10-07T08:12:02.774Z</time>
      </trkpt>
      <trkpt lat="55.38378" lon="26.10957">
        <ele>149.262234</ele>
        <time>2020-10-07T08:12:10.439Z</time>
      </trkpt>
      <trkpt lat="55.38404" lon="26.10853">
        <ele>148.258479</ele>
        <time>2020-10-07T08:12:22.372Z</time>
      </trkpt>
      <trkpt lat="55.38444" lon="26.10666">
        <ele>146.653846</ele>
        <time>2020-10-07T08:12:42.947Z</time>
      </trkpt>
      <trkpt lat="55.38467" lon="26.10473">
        <ele>145.265171</ele>
        <time>2020-10-07T08:13:04.570Z</time>
      </trkpt>
      <trkpt lat="55.38491" lon="26.1026">
        <ele>143.915793</ele>
        <time>2020-10-07T08:13:28.016Z</time>
      </trkpt>
      <trkpt lat="55.38496" lon="26.10221">
        <ele>143.671388</ele>
        <time>2020-10-07T08:13:32.516Z</time>
      </trkpt>
      <trkpt lat="55.38503" lon="26.10169">
        <ele>143.342357</ele>
        <time>2020-10-07T08:13:38.473Z</time>
      </trkpt>
      <trkpt lat="55.38507" lon="26.10138">
        <ele>143.15599</ele>
        <time>2020-10-07T08:13:41.831Z</time>
      </trkpt>
      <trkpt lat="55.38511" lon="26.10016">
        <ele>142.752719</ele>
        <time>2020-10-07T08:13:55.523Z</time>
      </trkpt>
      <trkpt lat="55.38522" lon="26.09887">
        <ele>142.321316</ele>
        <time>2020-10-07T08:14:10.299Z</time>
      </trkpt>
      <trkpt lat="55.3853" lon="26.09801">
        <ele>142.176899</ele>
        <time>2020-10-07T08:14:21.481Z</time>
      </trkpt>
      <trkpt lat="55.38543" lon="26.09666">
        <ele>142.490999</ele>
        <time>2020-10-07T08:14:40.020Z</time>
      </trkpt>
      <trkpt lat="55.38546" lon="26.09623">
        <ele>142.592777</ele>
        <time>2020-10-07T08:14:46.190Z</time>
      </trkpt>
      <trkpt lat="55.38551" lon="26.09562">
        <ele>142.733626</ele>
        <time>2020-10-07T08:14:54.859Z</time>
      </trkpt>
      <trkpt lat="55.38553" lon="26.09499">
        <ele>142.877538</ele>
        <time>2020-10-07T08:15:03.653Z</time>
      </trkpt>
      <trkpt lat="55.38549" lon="26.0945">
        <ele>142.992821</ele>
        <time>2020-10-07T08:15:10.703Z</time>
      </trkpt>
      <trkpt lat="55.38506" lon="26.09078">
        <ele>144.037104</ele>
        <time>2020-10-07T08:16:01.838Z</time>
      </trkpt>
      <trkpt lat="55.38462" lon="26.08762">
        <ele>145.604378</ele>
        <time>2020-10-07T08:16:49.428Z</time>
      </trkpt>
      <trkpt lat="55.3845" lon="26.08602">
        <ele>146.639156</ele>
        <time>2020-10-07T08:17:14.698Z</time>
      </trkpt>
      <trkpt lat="55.38448" lon="26.08564">
        <ele>146.909367</ele>
        <time>2020-10-07T08:17:20.859Z</time>
      </trkpt>
      <trkpt lat="55.38447" lon="26.08487">
        <ele>147.493603</ele>
        <time>2020-10-07T08:17:32.988Z</time>
      </trkpt>
      <trkpt lat="55.3845" lon="26.08351">
        <ele>148.526708</ele>
        <time>2020-10-07T08:17:54.488Z</time>
      </trkpt>
      <trkpt lat="55.38455" lon="26.08058">
        <ele>150.740245</ele>
        <time>2020-10-07T08:18:39.599Z</time>
      </trkpt>
      <trkpt lat="55.38454" lon="26.08006">
        <ele>151.137027</ele>
        <time>2020-10-07T08:18:47.686Z</time>
      </trkpt>
      <trkpt lat="55.38449" lon="26.07773">
        <ele>153.32443</ele>
        <time>2020-10-07T08:19:26.098Z</time>
      </trkpt>
      <trkpt lat="55.38443" lon="26.07531">
        <ele>155.92486</ele>
        <time>2020-10-07T08:20:07.326Z</time>
      </trkpt>
      <trkpt lat="55.38453" lon="26.07383">
        <ele>157.694553</ele>
        <time>2020-10-07T08:20:33.968Z</time>
      </trkpt>
      <trkpt lat="55.38458" lon="26.07348">
        <ele>158.125946</ele>
        <time>2020-10-07T08:20:39.965Z</time>
      </trkpt>
      <trkpt lat="55.38462" lon="26.07329">
        <ele>158.368516</ele>
        <time>2020-10-07T08:20:43.911Z</time>
      </trkpt>
      <trkpt lat="55.38473" lon="26.07274">
        <ele>159.027765</ele>
        <time>2020-10-07T08:20:53.900Z</time>
      </trkpt>
      <trkpt lat="55.3854" lon="26.07008">
        <ele>162.141651</ele>
        <time>2020-10-07T08:21:44.225Z</time>
      </trkpt>
      <trkpt lat="55.38561" lon="26.06916">
        <ele>162.533817</ele>
        <time>2020-10-07T08:22:00.204Z</time>
      </trkpt>
      <trkpt lat="55.38635" lon="26.06501">
        <ele>162.113166</ele>
        <time>2020-10-07T08:22:55.248Z</time>
      </trkpt>
      <trkpt lat="55.38685" lon="26.06297">
        <ele>158.755191</ele>
        <time>2020-10-07T08:23:15.849Z</time>
      </trkpt>
      <trkpt lat="55.38717" lon="26.0613">
        <ele>155.240176</ele>
        <time>2020-10-07T08:23:31.385Z</time>
      </trkpt>
      <trkpt lat="55.38722" lon="26.06104">
        <ele>155.057693</ele>
        <time>2020-10-07T08:23:33.849Z</time>
      </trkpt>
      <trkpt lat="55.38728" lon="26.06082">
        <ele>154.904846</ele>
        <time>2020-10-07T08:23:36.136Z</time>
      </trkpt>
      <trkpt lat="55.38746" lon="26.06023">
        <ele>154.476492</ele>
        <time>2020-10-07T08:23:42.670Z</time>
      </trkpt>
      <trkpt lat="55.38792" lon="26.05915">
        <ele>153.614973</ele>
        <time>2020-10-07T08:23:58.266Z</time>
      </trkpt>
      <trkpt lat="55.38809" lon="26.05882">
        <ele>153.327853</ele>
        <time>2020-10-07T08:24:04.090Z</time>
      </trkpt>
      <trkpt lat="55.38865" lon="26.05772">
        <ele>155.225817</ele>
        <time>2020-10-07T08:24:32.959Z</time>
      </trkpt>
      <trkpt lat="55.38903" lon="26.05694">
        <ele>156.717409</ele>
        <time>2020-10-07T08:24:53.710Z</time>
      </trkpt>
      <trkpt lat="55.38926" lon="26.05621">
        <ele>157.85975</ele>
        <time>2020-10-07T08:25:10.221Z</time>
      </trkpt>
      <trkpt lat="55.38945" lon="26.05448">
        <ele>158.510835</ele>
        <time>2020-10-07T08:25:36.456Z</time>
      </trkpt>
      <trkpt lat="55.38944" lon="26.05371">
        <ele>158.796203</ele>
        <time>2020-10-07T08:25:45.904Z</time>
      </trkpt>
      <trkpt lat="55.38932" lon="26.05238">
        <ele>158.863833</ele>
        <time>2020-10-07T08:26:01.095Z</time>
      </trkpt>
      <trkpt lat="55.38908" lon="26.05">
        <ele>158.398991</ele>
        <time>2020-10-07T08:26:30.058Z</time>
      </trkpt>
      <trkpt lat="55.38901" lon="26.04883">
        <ele>158.048228</ele>
        <time>2020-10-07T08:26:46.662Z</time>
      </trkpt>
      <trkpt lat="55.38905" lon="26.04816">
        <ele>157.848335</ele>
        <time>2020-10-07T08:26:54.855Z</time>
      </trkpt>
      <trkpt lat="55.38908" lon="26.04793">
        <ele>157.781788</ele>
        <time>2020-10-07T08:26:57.977Z</time>
      </trkpt>
      <trkpt lat="55.38912" lon="26.04755">
        <ele>157.664797</ele>
        <time>2020-10-07T08:27:02.041Z</time>
      </trkpt>
      <trkpt lat="55.38922" lon="26.04688">
        <ele>157.453639</ele>
        <time>2020-10-07T08:27:09.215Z</time>
      </trkpt>
      <trkpt lat="55.38948" lon="26.04531">
        <ele>155.945015</ele>
        <time>2020-10-07T08:27:26.407Z</time>
      </trkpt>
      <trkpt lat="55.38957" lon="26.04477">
        <ele>155.423616</ele>
        <time>2020-10-07T08:27:32.145Z</time>
      </trkpt>
      <trkpt lat="55.38968" lon="26.04412">
        <ele>154.800484</ele>
        <time>2020-10-07T08:27:39.111Z</time>
      </trkpt>
      <trkpt lat="55.38971" lon="26.04394">
        <ele>154.633182</ele>
        <time>2020-10-07T08:27:41.036Z</time>
      </trkpt>
      <trkpt lat="55.39003" lon="26.04087">
        <ele>156.341417</ele>
        <time>2020-10-07T08:28:30.682Z</time>
      </trkpt>
      <trkpt lat="55.39011" lon="26.04024">
        <ele>156.944494</ele>
        <time>2020-10-07T08:28:43.458Z</time>
      </trkpt>
      <trkpt lat="55.39022" lon="26.03958">
        <ele>157.63743</ele>
        <time>2020-10-07T08:28:56.637Z</time>
      </trkpt>
      <trkpt lat="55.39034" lon="26.03894">
        <ele>158.323897</ele>
        <time>2020-10-07T08:29:09.169Z</time>
      </trkpt>
      <trkpt lat="55.39054" lon="26.03821">
        <ele>159.150809</ele>
        <time>2020-10-07T08:29:23.273Z</time>
      </trkpt>
      <trkpt lat="55.39068" lon="26.03789">
        <ele>159.566535</ele>
        <time>2020-10-07T08:29:29.801Z</time>
      </trkpt>
      <trkpt lat="55.39081" lon="26.03762">
        <ele>159.50743</ele>
        <time>2020-10-07T08:29:34.464Z</time>
      </trkpt>
      <trkpt lat="55.39128" lon="26.03689">
        <ele>158.981936</ele>
        <time>2020-10-07T08:29:47.570Z</time>
      </trkpt>
      <trkpt lat="55.39148" lon="26.03648">
        <ele>158.728656</ele>
        <time>2020-10-07T08:29:53.586Z</time>
      </trkpt>
      <trkpt lat="55.39166" lon="26.03576">
        <ele>158.359742</ele>
        <time>2020-10-07T08:30:02.254Z</time>
      </trkpt>
      <trkpt lat="55.39185" lon="26.03452">
        <ele>157.457929</ele>
        <time>2020-10-07T08:30:16.194Z</time>
      </trkpt>
      <trkpt lat="55.39193" lon="26.03361">
        <ele>156.687185</ele>
        <time>2020-10-07T08:30:26.259Z</time>
      </trkpt>
      <trkpt lat="55.39195" lon="26.03235">
        <ele>155.63544</ele>
        <time>2020-10-07T08:30:40.363Z</time>
      </trkpt>
      <trkpt lat="55.39172" lon="26.02956">
        <ele>152.681618</ele>
        <time>2020-10-07T08:31:11.091Z</time>
      </trkpt>
      <trkpt lat="55.39184" lon="26.0272">
        <ele>149.030747</ele>
        <time>2020-10-07T08:31:34.356Z</time>
      </trkpt>
      <trkpt lat="55.39187" lon="26.02662">
        <ele>148.072234</ele>
        <time>2020-10-07T08:31:39.899Z</time>
      </trkpt>
      <trkpt lat="55.39187" lon="26.02632">
        <ele>147.558884</ele>
        <time>2020-10-07T08:31:42.845Z</time>
      </trkpt>
      <trkpt lat="55.39189" lon="26.02423">
        <ele>145.971963</ele>
        <time>2020-10-07T08:32:04.315Z</time>
      </trkpt>
      <trkpt lat="55.3919" lon="26.02406">
        <ele>145.880548</ele>
        <time>2020-10-07T08:32:06.149Z</time>
      </trkpt>
      <trkpt lat="55.39194" lon="26.02386">
        <ele>145.765685</ele>
        <time>2020-10-07T08:32:08.527Z</time>
      </trkpt>
      <trkpt lat="55.39196" lon="26.02372">
        <ele>145.688731</ele>
        <time>2020-10-07T08:32:10.248Z</time>
      </trkpt>
      <trkpt lat="55.39214" lon="26.02331">
        <ele>145.41204</ele>
        <time>2020-10-07T08:32:17.389Z</time>
      </trkpt>
      <trkpt lat="55.39224" lon="26.02311">
        <ele>145.267576</ele>
        <time>2020-10-07T08:32:21.480Z</time>
      </trkpt>
      <trkpt lat="55.39252" lon="26.02265">
        <ele>145.942873</ele>
        <time>2020-10-07T08:32:33.328Z</time>
      </trkpt>
      <trkpt lat="55.39273" lon="26.02223">
        <ele>146.821633</ele>
        <time>2020-10-07T08:32:43.999Z</time>
      </trkpt>
      <trkpt lat="55.39294" lon="26.02157">
        <ele>148.011635</ele>
        <time>2020-10-07T08:32:58.936Z</time>
      </trkpt>
      <trkpt lat="55.39307" lon="26.02112">
        <ele>148.802713</ele>
        <time>2020-10-07T08:33:09.279Z</time>
      </trkpt>
      <trkpt lat="55.39318" lon="26.02065">
        <ele>149.620865</ele>
        <time>2020-10-07T08:33:20.261Z</time>
      </trkpt>
      <trkpt lat="55.39331" lon="26.01955">
        <ele>151.106707</ele>
        <time>2020-10-07T08:33:42.489Z</time>
      </trkpt>
      <trkpt lat="55.39336" lon="26.01533">
        <ele>155.952736</ele>
        <time>2020-10-07T08:34:52.376Z</time>
      </trkpt>
      <trkpt lat="55.39336" lon="26.0149">
        <ele>156.408202</ele>
        <time>2020-10-07T08:34:59.230Z</time>
      </trkpt>
      <trkpt lat="55.39338" lon="26.01442">
        <ele>156.911716</ele>
        <time>2020-10-07T08:35:07.477Z</time>
      </trkpt>
      <trkpt lat="55.39347" lon="26.01289">
        <ele>158.861747</ele>
        <time>2020-10-07T08:35:35.379Z</time>
      </trkpt>
      <trkpt lat="55.39347" lon="26.01051">
        <ele>161.676307</ele>
        <time>2020-10-07T08:36:19.816Z</time>
      </trkpt>
      <trkpt lat="55.39369" lon="26.00924">
        <ele>161.901109</ele>
        <time>2020-10-07T08:36:38.703Z</time>
      </trkpt>
      <trkpt lat="55.39377" lon="26.00892">
        <ele>161.95993</ele>
        <time>2020-10-07T08:36:42.978Z</time>
      </trkpt>
      <trkpt lat="55.39404" lon="26.00784">
        <ele>162.149834</ele>
        <time>2020-10-07T08:36:56.165Z</time>
      </trkpt>
      <trkpt lat="55.39429" lon="26.00664">
        <ele>161.434686</ele>
        <time>2020-10-07T08:37:09.604Z</time>
      </trkpt>
      <trkpt lat="55.39431" lon="26.00603">
        <ele>161.09616</ele>
        <time>2020-10-07T08:37:15.867Z</time>
      </trkpt>
      <trkpt lat="55.39424" lon="26.00534">
        <ele>160.702369</ele>
        <time>2020-10-07T08:37:23.690Z</time>
      </trkpt>
      <trkpt lat="55.39417" lon="26.00497">
        <ele>160.485391</ele>
        <time>2020-10-07T08:37:28.312Z</time>
      </trkpt>
      <trkpt lat="55.39408" lon="26.00465">
        <ele>160.442016</ele>
        <time>2020-10-07T08:37:32.804Z</time>
      </trkpt>
      <trkpt lat="55.3937" lon="26.0037">
        <ele>160.738772</ele>
        <time>2020-10-07T08:37:48.323Z</time>
      </trkpt>
      <trkpt lat="55.39308" lon="26.00278">
        <ele>161.10796</ele>
        <time>2020-10-07T08:38:09.490Z</time>
      </trkpt>
      <trkpt lat="55.39273" lon="26.00214">
        <ele>161.178601</ele>
        <time>2020-10-07T08:38:22.653Z</time>
      </trkpt>
      <trkpt lat="55.38997" lon="25.99606">
        <ele>157.955898</ele>
        <time>2020-10-07T08:39:57.534Z</time>
      </trkpt>
      <trkpt lat="55.38969" lon="25.99562">
        <ele>156.988026</ele>
        <time>2020-10-07T08:40:02.991Z</time>
      </trkpt>
      <trkpt lat="55.38946" lon="25.99541">
        <ele>156.302788</ele>
        <time>2020-10-07T08:40:06.899Z</time>
      </trkpt>
      <trkpt lat="55.38937" lon="25.99536">
        <ele>155.913199</ele>
        <time>2020-10-07T08:40:08.209Z</time>
      </trkpt>
      <trkpt lat="55.38927" lon="25.99531">
        <ele>155.345911</ele>
        <time>2020-10-07T08:40:09.570Z</time>
      </trkpt>
      <trkpt lat="55.3891" lon="25.99527">
        <ele>154.321782</ele>
        <time>2020-10-07T08:40:12.298Z</time>
      </trkpt>
      <trkpt lat="55.38894" lon="25.99526">
        <ele>153.408626</ele>
        <time>2020-10-07T08:40:14.453Z</time>
      </trkpt>
      <trkpt lat="55.38878" lon="25.99529">
        <ele>152.428109</ele>
        <time>2020-10-07T08:40:16.990Z</time>
      </trkpt>
      <trkpt lat="55.38836" lon="25.99534">
        <ele>150.014443</ele>
        <time>2020-10-07T08:40:22.954Z</time>
      </trkpt>
      <trkpt lat="55.38796" lon="25.99534">
        <ele>147.642974</ele>
        <time>2020-10-07T08:40:28.801Z</time>
      </trkpt>
      <trkpt lat="55.38737" lon="25.99525">
        <ele>145.378527</ele>
        <time>2020-10-07T08:40:37.974Z</time>
      </trkpt>
      <trkpt lat="55.38697" lon="25.99517">
        <ele>144.940478</ele>
        <time>2020-10-07T08:40:45.335Z</time>
      </trkpt>
      <trkpt lat="55.38662" lon="25.99507">
        <ele>144.553038</ele>
        <time>2020-10-07T08:40:52.355Z</time>
      </trkpt>
      <trkpt lat="55.38633" lon="25.99498">
        <ele>144.224253</ele>
        <time>2020-10-07T08:40:59.772Z</time>
      </trkpt>
      <trkpt lat="55.38615" lon="25.99491">
        <ele>144.02272</ele>
        <time>2020-10-07T08:41:04.396Z</time>
      </trkpt>
      <trkpt lat="55.3859" lon="25.99492">
        <ele>143.745798</ele>
        <time>2020-10-07T08:41:10.435Z</time>
      </trkpt>
      <trkpt lat="55.38562" lon="25.99504">
        <ele>143.762174</ele>
        <time>2020-10-07T08:41:17.754Z</time>
      </trkpt>
      <trkpt lat="55.38556" lon="25.99504">
        <ele>143.784355</ele>
        <time>2020-10-07T08:41:19.021Z</time>
      </trkpt>
      <trkpt lat="55.38539" lon="25.99503">
        <ele>143.844971</ele>
        <time>2020-10-07T08:41:23.399Z</time>
      </trkpt>
      <trkpt lat="55.38531" lon="25.99503">
        <ele>143.875668</ele>
        <time>2020-10-07T08:41:25.576Z</time>
      </trkpt>
      <trkpt lat="55.38518" lon="25.99498">
        <ele>143.926884</ele>
        <time>2020-10-07T08:41:28.853Z</time>
      </trkpt>
      <trkpt lat="55.38516" lon="25.99497">
        <ele>143.934073</ele>
        <time>2020-10-07T08:41:29.471Z</time>
      </trkpt>
      <trkpt lat="55.38509" lon="25.99492">
        <ele>143.959961</ele>
        <time>2020-10-07T08:41:31.396Z</time>
      </trkpt>
      <trkpt lat="55.38429" lon="25.99428">
        <ele>144.286193</ele>
        <time>2020-10-07T08:41:52.251Z</time>
      </trkpt>
      <trkpt lat="55.38404" lon="25.99418">
        <ele>144.321589</ele>
        <time>2020-10-07T08:41:58.660Z</time>
      </trkpt>
      <trkpt lat="55.3837" lon="25.99419">
        <ele>144.249483</ele>
        <time>2020-10-07T08:42:06.874Z</time>
      </trkpt>
      <trkpt lat="55.38365" lon="25.99421">
        <ele>144.239079</ele>
        <time>2020-10-07T08:42:07.896Z</time>
      </trkpt>
      <trkpt lat="55.38361" lon="25.99426">
        <ele>144.22727</ele>
        <time>2020-10-07T08:42:09.034Z</time>
      </trkpt>
      <trkpt lat="55.38344" lon="25.99456">
        <ele>144.176441</ele>
        <time>2020-10-07T08:42:14.587Z</time>
      </trkpt>
      <trkpt lat="55.38292" lon="25.99581">
        <ele>143.988024</ele>
        <time>2020-10-07T08:42:33.981Z</time>
      </trkpt>
      <trkpt lat="55.38276" lon="25.99615">
        <ele>143.910867</ele>
        <time>2020-10-07T08:42:39.228Z</time>
      </trkpt>
      <trkpt lat="55.38267" lon="25.99629">
        <ele>143.85853</ele>
        <time>2020-10-07T08:42:41.817Z</time>
      </trkpt>
      <trkpt lat="55.38251" lon="25.9965">
        <ele>143.774011</ele>
        <time>2020-10-07T08:42:45.929Z</time>
      </trkpt>
      <trkpt lat="55.38243" lon="25.9966">
        <ele>143.732462</ele>
        <time>2020-10-07T08:42:48.266Z</time>
      </trkpt>
      <trkpt lat="55.38227" lon="25.99669">
        <ele>143.659165</ele>
        <time>2020-10-07T08:42:51.700Z</time>
      </trkpt>
      <trkpt lat="55.38215" lon="25.9967">
        <ele>143.608845</ele>
        <time>2020-10-07T08:42:54.253Z</time>
      </trkpt>
      <trkpt lat="55.38204" lon="25.99667">
        <ele>143.56021</ele>
        <time>2020-10-07T08:42:56.885Z</time>
      </trkpt>
      <trkpt lat="55.38194" lon="25.99662">
        <ele>143.516937</ele>
        <time>2020-10-07T08:42:58.904Z</time>
      </trkpt>
      <trkpt lat="55.38171" lon="25.99637">
        <ele>143.399743</ele>
        <time>2020-10-07T08:43:05.096Z</time>
      </trkpt>
      <trkpt lat="55.38164" lon="25.99617">
        <ele>143.342148</ele>
        <time>2020-10-07T08:43:07.866Z</time>
      </trkpt>
      <trkpt lat="55.38164" lon="25.99586">
        <ele>143.268345</ele>
        <time>2020-10-07T08:43:12.012Z</time>
      </trkpt>
      <trkpt lat="55.38174" lon="25.99536">
        <ele>143.226836</ele>
        <time>2020-10-07T08:43:18.829Z</time>
      </trkpt>
      <trkpt lat="55.38185" lon="25.9949">
        <ele>143.318816</ele>
        <time>2020-10-07T08:43:24.851Z</time>
      </trkpt>
      <trkpt lat="55.38192" lon="25.99458">
        <ele>143.383341</ele>
        <time>2020-10-07T08:43:29.227Z</time>
      </trkpt>
      <trkpt lat="55.38196" lon="25.99438">
        <ele>143.42266</ele>
        <time>2020-10-07T08:43:31.781Z</time>
      </trkpt>
      <trkpt lat="55.38208" lon="25.99389">
        <ele>143.521972</ele>
        <time>2020-10-07T08:43:38.780Z</time>
      </trkpt>
      <trkpt lat="55.38219" lon="25.99299">
        <ele>143.696101</ele>
        <time>2020-10-07T08:43:51.690Z</time>
      </trkpt>
      <trkpt lat="55.38216" lon="25.99217">
        <ele>144.249223</ele>
        <time>2020-10-07T08:44:03.830Z</time>
      </trkpt>
      <trkpt lat="55.38188" lon="25.98913">
        <ele>148.077608</ele>
        <time>2020-10-07T08:45:00.544Z</time>
      </trkpt>
      <trkpt lat="55.38171" lon="25.98731">
        <ele>150.163779</ele>
        <time>2020-10-07T08:45:33.965Z</time>
      </trkpt>
      <trkpt lat="55.38152" lon="25.98525">
        <ele>151.871073</ele>
        <time>2020-10-07T08:46:05.891Z</time>
      </trkpt>
      <trkpt lat="55.38136" lon="25.98368">
        <ele>152.683115</ele>
        <time>2020-10-07T08:46:27.166Z</time>
      </trkpt>
      <trkpt lat="55.3813" lon="25.98291">
        <ele>153.462533</ele>
        <time>2020-10-07T08:46:39.001Z</time>
      </trkpt>
      <trkpt lat="55.38129" lon="25.9827">
        <ele>153.893251</ele>
        <time>2020-10-07T08:46:42.850Z</time>
      </trkpt>
      <trkpt lat="55.38132" lon="25.98217">
        <ele>154.96729</ele>
        <time>2020-10-07T08:46:52.194Z</time>
      </trkpt>
      <trkpt lat="55.38135" lon="25.98194">
        <ele>155.444165</ele>
        <time>2020-10-07T08:46:56.942Z</time>
      </trkpt>
      <trkpt lat="55.3814" lon="25.98171">
        <ele>155.934423</ele>
        <time>2020-10-07T08:47:01.701Z</time>
      </trkpt>
      <trkpt lat="55.38171" lon="25.98038">
        <ele>158.86685</ele>
        <time>2020-10-07T08:47:34.802Z</time>
      </trkpt>
      <trkpt lat="55.38176" lon="25.97958">
        <ele>160.826095</ele>
        <time>2020-10-07T08:47:55.605Z</time>
      </trkpt>
      <trkpt lat="55.38168" lon="25.97904">
        <ele>162.280593</ele>
        <time>2020-10-07T08:48:10.293Z</time>
      </trkpt>
      <trkpt lat="55.38155" lon="25.97859">
        <ele>163.591727</ele>
        <time>2020-10-07T08:48:24.033Z</time>
      </trkpt>
      <trkpt lat="55.38134" lon="25.97804">
        <ele>165.321475</ele>
        <time>2020-10-07T08:48:40.420Z</time>
      </trkpt>
      <trkpt lat="55.38097" lon="25.97728">
        <ele>167.488125</ele>
        <time>2020-10-07T08:49:00.828Z</time>
      </trkpt>
      <trkpt lat="55.38088" lon="25.97681">
        <ele>166.833025</ele>
        <time>2020-10-07T08:49:07.247Z</time>
      </trkpt>
      <trkpt lat="55.38086" lon="25.97662">
        <ele>166.585848</ele>
        <time>2020-10-07T08:49:10.950Z</time>
      </trkpt>
      <trkpt lat="55.38085" lon="25.97645">
        <ele>166.358473</ele>
        <time>2020-10-07T08:49:12.596Z</time>
      </trkpt>
      <trkpt lat="55.38083" lon="25.97584">
        <ele>165.564863</ele>
        <time>2020-10-07T08:49:18.752Z</time>
      </trkpt>
      <trkpt lat="55.3808" lon="25.97507">
        <ele>164.552391</ele>
        <time>2020-10-07T08:49:25.730Z</time>
      </trkpt>
      <trkpt lat="55.38074" lon="25.97316">
        <ele>159.992221</ele>
        <time>2020-10-07T08:49:41.711Z</time>
      </trkpt>
      <trkpt lat="55.38069" lon="25.97147">
        <ele>154.618373</ele>
        <time>2020-10-07T08:49:55.883Z</time>
      </trkpt>
      <trkpt lat="55.38075" lon="25.97061">
        <ele>152.592938</ele>
        <time>2020-10-07T08:50:03.514Z</time>
      </trkpt>
      <trkpt lat="55.38092" lon="25.96984">
        <ele>151.148562</ele>
        <time>2020-10-07T08:50:11.214Z</time>
      </trkpt>
      <trkpt lat="55.38219" lon="25.96704">
        <ele>145.856065</ele>
        <time>2020-10-07T08:50:46.005Z</time>
      </trkpt>
      <trkpt lat="55.38245" lon="25.96603">
        <ele>144.52717</ele>
        <time>2020-10-07T08:50:57.259Z</time>
      </trkpt>
      <trkpt lat="55.38255" lon="25.96524">
        <ele>143.801296</ele>
        <time>2020-10-07T08:51:05.649Z</time>
      </trkpt>
      <trkpt lat="55.3825" lon="25.96462">
        <ele>143.375314</ele>
        <time>2020-10-07T08:51:12.132Z</time>
      </trkpt>
      <trkpt lat="55.38235" lon="25.96436">
        <ele>143.12128</ele>
        <time>2020-10-07T08:51:16.103Z</time>
      </trkpt>
      <trkpt lat="55.38184" lon="25.96371">
        <ele>142.349594</ele>
        <time>2020-10-07T08:51:28.334Z</time>
      </trkpt>
      <trkpt lat="55.38174" lon="25.96328">
        <ele>142.029947</ele>
        <time>2020-10-07T08:51:33.572Z</time>
      </trkpt>
      <trkpt lat="55.38179" lon="25.96251">
        <ele>141.759158</ele>
        <time>2020-10-07T08:51:42.693Z</time>
      </trkpt>
      <trkpt lat="55.38213" lon="25.96136">
        <ele>141.377172</ele>
        <time>2020-10-07T08:51:57.745Z</time>
      </trkpt>
      <trkpt lat="55.38235" lon="25.96031">
        <ele>141.047387</ele>
        <time>2020-10-07T08:52:10.854Z</time>
      </trkpt>
      <trkpt lat="55.38235" lon="25.9602">
        <ele>141.021933</ele>
        <time>2020-10-07T08:52:12.234Z</time>
      </trkpt>
      <trkpt lat="55.38235" lon="25.96006">
        <ele>141.013903</ele>
        <time>2020-10-07T08:52:13.736Z</time>
      </trkpt>
      <trkpt lat="55.38224" lon="25.95967">
        <ele>140.988807</ele>
        <time>2020-10-07T08:52:19.270Z</time>
      </trkpt>
      <trkpt lat="55.3819" lon="25.95936">
        <ele>140.950699</ele>
        <time>2020-10-07T08:52:27.416Z</time>
      </trkpt>
      <trkpt lat="55.38177" lon="25.95933">
        <ele>140.936876</ele>
        <time>2020-10-07T08:52:30.152Z</time>
      </trkpt>
      <trkpt lat="55.38166" lon="25.95933">
        <ele>140.925912</ele>
        <time>2020-10-07T08:52:32.620Z</time>
      </trkpt>
      <trkpt lat="55.38155" lon="25.95936">
        <ele>140.915124</ele>
        <time>2020-10-07T08:52:35.101Z</time>
      </trkpt>
      <trkpt lat="55.38138" lon="25.95944">
        <ele>140.896912</ele>
        <time>2020-10-07T08:52:38.842Z</time>
      </trkpt>
      <trkpt lat="55.37661" lon="25.96281">
        <ele>141.455119</ele>
        <time>2020-10-07T08:54:38.082Z</time>
      </trkpt>
      <trkpt lat="55.37557" lon="25.96377">
        <ele>141.079748</ele>
        <time>2020-10-07T08:55:01.360Z</time>
      </trkpt>
      <trkpt lat="55.3753" lon="25.96377">
        <ele>140.928861</ele>
        <time>2020-10-07T08:55:06.858Z</time>
      </trkpt>
      <trkpt lat="55.37505" lon="25.96358">
        <ele>140.776909</ele>
        <time>2020-10-07T08:55:12.330Z</time>
      </trkpt>
      <trkpt lat="55.37434" lon="25.96258">
        <ele>140.29806</ele>
        <time>2020-10-07T08:55:31.182Z</time>
      </trkpt>
      <trkpt lat="55.37421" lon="25.96241">
        <ele>140.349673</ele>
        <time>2020-10-07T08:55:34.682Z</time>
      </trkpt>
      <trkpt lat="55.3741" lon="25.9623">
        <ele>140.38874</ele>
        <time>2020-10-07T08:55:37.406Z</time>
      </trkpt>
      <trkpt lat="55.37374" lon="25.9619">
        <ele>140.524203</ele>
        <time>2020-10-07T08:55:46.721Z</time>
      </trkpt>
      <trkpt lat="55.37158" lon="25.95964">
        <ele>142.864553</ele>
        <time>2020-10-07T08:56:49.925Z</time>
      </trkpt>
      <trkpt lat="55.37115" lon="25.95918">
        <ele>143.951245</ele>
        <time>2020-10-07T08:57:07.934Z</time>
      </trkpt>
      <trkpt lat="55.37078" lon="25.95872">
        <ele>145.591496</ele>
        <time>2020-10-07T08:57:24.594Z</time>
      </trkpt>
      <trkpt lat="55.3705" lon="25.95825">
        <ele>147.026276</ele>
        <time>2020-10-07T08:57:39.647Z</time>
      </trkpt>
      <trkpt lat="55.37006" lon="25.95734">
        <ele>149.500088</ele>
        <time>2020-10-07T08:58:06.023Z</time>
      </trkpt>
      <trkpt lat="55.37" lon="25.95721">
        <ele>149.852021</ele>
        <time>2020-10-07T08:58:09.444Z</time>
      </trkpt>
      <trkpt lat="55.36955" lon="25.95627">
        <ele>151.758983</ele>
        <time>2020-10-07T08:58:34.832Z</time>
      </trkpt>
      <trkpt lat="55.36895" lon="25.95476">
        <ele>154.600023</ele>
        <time>2020-10-07T08:59:08.560Z</time>
      </trkpt>
      <trkpt lat="55.36887" lon="25.95453">
        <ele>154.850195</ele>
        <time>2020-10-07T08:59:13.388Z</time>
      </trkpt>
      <trkpt lat="55.37013" lon="25.94912">
        <ele>155.946414</ele>
        <time>2020-10-07T09:00:35.497Z</time>
      </trkpt>
      <trkpt lat="55.37021" lon="25.94876">
        <ele>155.893346</ele>
        <time>2020-10-07T09:00:39.692Z</time>
      </trkpt>
      <trkpt lat="55.37028" lon="25.94855">
        <ele>155.649831</ele>
        <time>2020-10-07T09:00:42.180Z</time>
      </trkpt>
      <trkpt lat="55.37096" lon="25.94828">
        <ele>154.372601</ele>
        <time>2020-10-07T09:00:54.564Z</time>
      </trkpt>
      <trkpt lat="55.37124" lon="25.94812">
        <ele>153.836114</ele>
        <time>2020-10-07T09:00:59.784Z</time>
      </trkpt>
      <trkpt lat="55.37148" lon="25.94797">
        <ele>153.375727</ele>
        <time>2020-10-07T09:01:04.210Z</time>
      </trkpt>
      <trkpt lat="55.37162" lon="25.94784">
        <ele>153.093529</ele>
        <time>2020-10-07T09:01:06.961Z</time>
      </trkpt>
      <trkpt lat="55.37172" lon="25.94774">
        <ele>152.873521</ele>
        <time>2020-10-07T09:01:09.018Z</time>
      </trkpt>
      <trkpt lat="55.37198" lon="25.94735">
        <ele>152.242721</ele>
        <time>2020-10-07T09:01:14.857Z</time>
      </trkpt>
      <trkpt lat="55.37212" lon="25.9471">
        <ele>151.855786</ele>
        <time>2020-10-07T09:01:18.438Z</time>
      </trkpt>
      <trkpt lat="55.37266" lon="25.9461">
        <ele>150.347658</ele>
        <time>2020-10-07T09:01:32.115Z</time>
      </trkpt>
      <trkpt lat="55.37306" lon="25.94539">
        <ele>149.249377</ele>
        <time>2020-10-07T09:01:42.454Z</time>
      </trkpt>
      <trkpt lat="55.37326" lon="25.94503">
        <ele>149.055734</ele>
        <time>2020-10-07T09:01:47.737Z</time>
      </trkpt>
      <trkpt lat="55.37356" lon="25.94448">
        <ele>148.803854</ele>
        <time>2020-10-07T09:01:55.888Z</time>
      </trkpt>
      <trkpt lat="55.37409" lon="25.94359">
        <ele>148.376902</ele>
        <time>2020-10-07T09:02:10.574Z</time>
      </trkpt>
      <trkpt lat="55.37457" lon="25.94274">
        <ele>148.717521</ele>
        <time>2020-10-07T09:02:27.389Z</time>
      </trkpt>
      <trkpt lat="55.37526" lon="25.94149">
        <ele>150.45788</ele>
        <time>2020-10-07T09:02:57.919Z</time>
      </trkpt>
      <trkpt lat="55.37579" lon="25.94059">
        <ele>151.70161</ele>
        <time>2020-10-07T09:03:21.473Z</time>
      </trkpt>
      <trkpt lat="55.37586" lon="25.94047">
        <ele>151.857864</ele>
        <time>2020-10-07T09:03:24.711Z</time>
      </trkpt>
      <trkpt lat="55.3767" lon="25.93909">
        <ele>153.597215</ele>
        <time>2020-10-07T09:03:57.291Z</time>
      </trkpt>
      <trkpt lat="55.37839" lon="25.93661">
        <ele>155.55941</ele>
        <time>2020-10-07T09:04:51.117Z</time>
      </trkpt>
      <trkpt lat="55.37877" lon="25.93597">
        <ele>156.633453</ele>
        <time>2020-10-07T09:05:06.582Z</time>
      </trkpt>
      <trkpt lat="55.37773" lon="25.93498">
        <ele>159.030684</ele>
        <time>2020-10-07T09:05:45.594Z</time>
      </trkpt>
      <trkpt lat="55.37758" lon="25.93466">
        <ele>159.532436</ele>
        <time>2020-10-07T09:05:53.490Z</time>
      </trkpt>
      <trkpt lat="55.37752" lon="25.93427">
        <ele>160.02031</ele>
        <time>2020-10-07T09:06:01.304Z</time>
      </trkpt>
      <trkpt lat="55.37751" lon="25.93384">
        <ele>160.532453</ele>
        <time>2020-10-07T09:06:09.740Z</time>
      </trkpt>
      <trkpt lat="55.37748" lon="25.93234">
        <ele>162.335048</ele>
        <time>2020-10-07T09:06:35.646Z</time>
      </trkpt>
      <trkpt lat="55.37745" lon="25.93154">
        <ele>163.06454</ele>
        <time>2020-10-07T09:06:48.248Z</time>
      </trkpt>
      <trkpt lat="55.37743" lon="25.93119">
        <ele>163.272216</ele>
        <time>2020-10-07T09:06:53.759Z</time>
      </trkpt>
      <trkpt lat="55.37739" lon="25.93062">
        <ele>163.617287</ele>
        <time>2020-10-07T09:07:02.120Z</time>
      </trkpt>
      <trkpt lat="55.37718" lon="25.928">
        <ele>165.254256</ele>
        <time>2020-10-07T09:07:40.957Z</time>
      </trkpt>
      <trkpt lat="55.37706" lon="25.92705">
        <ele>165.912367</ele>
        <time>2020-10-07T09:07:55.677Z</time>
      </trkpt>
      <trkpt lat="55.3764" lon="25.92284">
        <ele>169.275363</ele>
        <time>2020-10-07T09:09:05.403Z</time>
      </trkpt>
      <trkpt lat="55.3764" lon="25.92225">
        <ele>169.718387</ele>
        <time>2020-10-07T09:09:14.792Z</time>
      </trkpt>
      <trkpt lat="55.3768" lon="25.91864">
        <ele>172.582487</ele>
        <time>2020-10-07T09:10:11.642Z</time>
      </trkpt>
      <trkpt lat="55.37682" lon="25.91781">
        <ele>173.383032</ele>
        <time>2020-10-07T09:10:25.264Z</time>
      </trkpt>
      <trkpt lat="55.37669" lon="25.91688">
        <ele>174.303121</ele>
        <time>2020-10-07T09:10:41.244Z</time>
      </trkpt>
      <trkpt lat="55.37647" lon="25.91553">
        <ele>175.981682</ele>
        <time>2020-10-07T09:11:06.207Z</time>
      </trkpt>
      <trkpt lat="55.37629" lon="25.91489">
        <ele>176.913343</ele>
        <time>2020-10-07T09:11:19.158Z</time>
      </trkpt>
      <trkpt lat="55.37579" lon="25.91369">
        <ele>178.87506</ele>
        <time>2020-10-07T09:11:47.062Z</time>
      </trkpt>
      <trkpt lat="55.37425" lon="25.91053">
        <ele>181.83242</ele>
        <time>2020-10-07T09:12:55.232Z</time>
      </trkpt>
      <trkpt lat="55.374" lon="25.90997">
        <ele>181.747719</ele>
        <time>2020-10-07T09:13:03.390Z</time>
      </trkpt>
      <trkpt lat="55.37388" lon="25.90964">
        <ele>181.699971</ele>
        <time>2020-10-07T09:13:07.766Z</time>
      </trkpt>
      <trkpt lat="55.37364" lon="25.90902">
        <ele>181.609424</ele>
        <time>2020-10-07T09:13:15.845Z</time>
      </trkpt>
      <trkpt lat="55.37308" lon="25.90776">
        <ele>180.600549</ele>
        <time>2020-10-07T09:13:32.180Z</time>
      </trkpt>
      <trkpt lat="55.3719" lon="25.9055">
        <ele>178.931158</ele>
        <time>2020-10-07T09:14:05.173Z</time>
      </trkpt>
      <trkpt lat="55.37167" lon="25.90493">
        <ele>178.824281</ele>
        <time>2020-10-07T09:14:13.992Z</time>
      </trkpt>
      <trkpt lat="55.37158" lon="25.90443">
        <ele>178.744737</ele>
        <time>2020-10-07T09:14:20.705Z</time>
      </trkpt>
      <trkpt lat="55.37155" lon="25.90394">
        <ele>178.670078</ele>
        <time>2020-10-07T09:14:27.086Z</time>
      </trkpt>
      <trkpt lat="55.37133" lon="25.8991">
        <ele>181.642178</ele>
        <time>2020-10-07T09:15:39.548Z</time>
      </trkpt>
      <trkpt lat="55.37115" lon="25.89494">
        <ele>186.131564</ele>
        <time>2020-10-07T09:16:53.811Z</time>
      </trkpt>
      <trkpt lat="55.37116" lon="25.89315">
        <ele>187.569092</ele>
        <time>2020-10-07T09:17:23.092Z</time>
      </trkpt>
      <trkpt lat="55.37148" lon="25.88666">
        <ele>189.758983</ele>
        <time>2020-10-07T09:18:54.329Z</time>
      </trkpt>
      <trkpt lat="55.37186" lon="25.88093">
        <ele>188.296232</ele>
        <time>2020-10-07T09:20:02.567Z</time>
      </trkpt>
      <trkpt lat="55.3719" lon="25.88023">
        <ele>187.706297</ele>
        <time>2020-10-07T09:20:09.762Z</time>
      </trkpt>
      <trkpt lat="55.37186" lon="25.87945">
        <ele>187.054025</ele>
        <time>2020-10-07T09:20:17.655Z</time>
      </trkpt>
      <trkpt lat="55.37162" lon="25.87884">
        <ele>186.4338</ele>
        <time>2020-10-07T09:20:25.054Z</time>
      </trkpt>
      <trkpt lat="55.36994" lon="25.87735">
        <ele>184.060415</ele>
        <time>2020-10-07T09:21:00.196Z</time>
      </trkpt>
      <trkpt lat="55.36988" lon="25.87723">
        <ele>183.955587</ele>
        <time>2020-10-07T09:21:02.187Z</time>
      </trkpt>
      <trkpt lat="55.36967" lon="25.8766">
        <ele>183.785871</ele>
        <time>2020-10-07T09:21:10.762Z</time>
      </trkpt>
      <trkpt lat="55.36932" lon="25.87594">
        <ele>183.573781</ele>
        <time>2020-10-07T09:21:21.636Z</time>
      </trkpt>
      <trkpt lat="55.36848" lon="25.87481">
        <ele>183.17701</ele>
        <time>2020-10-07T09:21:44.145Z</time>
      </trkpt>
      <trkpt lat="55.36797" lon="25.87386">
        <ele>183.013095</ele>
        <time>2020-10-07T09:21:59.331Z</time>
      </trkpt>
      <trkpt lat="55.36707" lon="25.87177">
        <ele>183.424018</ele>
        <time>2020-10-07T09:22:32.676Z</time>
      </trkpt>
      <trkpt lat="55.36664" lon="25.87072">
        <ele>184.134284</ele>
        <time>2020-10-07T09:22:52.411Z</time>
      </trkpt>
      <trkpt lat="55.36541" lon="25.86785">
        <ele>187.398502</ele>
        <time>2020-10-07T09:23:54.829Z</time>
      </trkpt>
      <trkpt lat="55.36493" lon="25.86623">
        <ele>187.753932</ele>
        <time>2020-10-07T09:24:20.635Z</time>
      </trkpt>
      <trkpt lat="55.36481" lon="25.86574">
        <ele>187.760437</ele>
        <time>2020-10-07T09:24:27.090Z</time>
      </trkpt>
      <trkpt lat="55.36441" lon="25.86395">
        <ele>187.210504</ele>
        <time>2020-10-07T09:24:48.594Z</time>
      </trkpt>
      <trkpt lat="55.36424" lon="25.86333">
        <ele>186.720106</ele>
        <time>2020-10-07T09:24:55.755Z</time>
      </trkpt>
      <trkpt lat="55.36345" lon="25.86104">
        <ele>184.535377</ele>
        <time>2020-10-07T09:25:23.949Z</time>
      </trkpt>
      <trkpt lat="55.36316" lon="25.86001">
        <ele>183.417462</ele>
        <time>2020-10-07T09:25:35.809Z</time>
      </trkpt>
      <trkpt lat="55.36285" lon="25.85851">
        <ele>181.480363</ele>
        <time>2020-10-07T09:25:52.048Z</time>
      </trkpt>
      <trkpt lat="55.36248" lon="25.85681">
        <ele>178.555617</ele>
        <time>2020-10-07T09:26:09.139Z</time>
      </trkpt>
      <trkpt lat="55.36242" lon="25.85655">
        <ele>178.096711</ele>
        <time>2020-10-07T09:26:11.793Z</time>
      </trkpt>
      <trkpt lat="55.36235" lon="25.85636">
        <ele>177.741201</ele>
        <time>2020-10-07T09:26:13.864Z</time>
      </trkpt>
      <trkpt lat="55.36227" lon="25.85622">
        <ele>177.413258</ele>
        <time>2020-10-07T09:26:15.617Z</time>
      </trkpt>
      <trkpt lat="55.362" lon="25.85593">
        <ele>176.363942</ele>
        <time>2020-10-07T09:26:20.733Z</time>
      </trkpt>
      <trkpt lat="55.35962" lon="25.85395">
        <ele>169.831309</ele>
        <time>2020-10-07T09:27:03.447Z</time>
      </trkpt>
      <trkpt lat="55.35956" lon="25.85393">
        <ele>169.757292</ele>
        <time>2020-10-07T09:27:04.409Z</time>
      </trkpt>
      <trkpt lat="55.35992" lon="25.84908">
        <ele>173.448364</ele>
        <time>2020-10-07T09:28:34.035Z</time>
      </trkpt>
      <trkpt lat="55.3603" lon="25.84392">
        <ele>175.004534</ele>
        <time>2020-10-07T09:29:43.992Z</time>
      </trkpt>
      <trkpt lat="55.36085" lon="25.83641">
        <ele>174.417473</ele>
        <time>2020-10-07T09:31:15.932Z</time>
      </trkpt>
      <trkpt lat="55.36094" lon="25.83522">
        <ele>174.667012</ele>
        <time>2020-10-07T09:31:32.923Z</time>
      </trkpt>
      <trkpt lat="55.36155" lon="25.8269">
        <ele>177.903703</ele>
        <time>2020-10-07T09:33:30.711Z</time>
      </trkpt>
      <trkpt lat="55.3619" lon="25.82158">
        <ele>182.387211</ele>
        <time>2020-10-07T09:35:01.713Z</time>
      </trkpt>
      <trkpt lat="55.36199" lon="25.82014">
        <ele>180.879532</ele>
        <time>2020-10-07T09:35:17.515Z</time>
      </trkpt>
      <trkpt lat="55.36191" lon="25.82011">
        <ele>180.719309</ele>
        <time>2020-10-07T09:35:18.650Z</time>
      </trkpt>
      <trkpt lat="55.36038" lon="25.81935">
        <ele>176.37766</ele>
        <time>2020-10-07T09:35:44.486Z</time>
      </trkpt>
      <trkpt lat="55.35764" lon="25.81774">
        <ele>166.046928</ele>
        <time>2020-10-07T09:36:30.611Z</time>
      </trkpt>
      <trkpt lat="55.35693" lon="25.81729">
        <ele>164.507852</ele>
        <time>2020-10-07T09:36:42.915Z</time>
      </trkpt>
      <trkpt lat="55.35646" lon="25.81706">
        <ele>163.62565</ele>
        <time>2020-10-07T09:36:51.486Z</time>
      </trkpt>
      <trkpt lat="55.35619" lon="25.81698">
        <ele>163.113875</ele>
        <time>2020-10-07T09:36:56.651Z</time>
      </trkpt>
      <trkpt lat="55.35598" lon="25.81693">
        <ele>162.732332</ele>
        <time>2020-10-07T09:37:01.135Z</time>
      </trkpt>
      <trkpt lat="55.3557" lon="25.81687">
        <ele>162.526849</ele>
        <time>2020-10-07T09:37:07.198Z</time>
      </trkpt>
      <trkpt lat="55.35513" lon="25.81679">
        <ele>163.037367</ele>
        <time>2020-10-07T09:37:20.962Z</time>
      </trkpt>
      <trkpt lat="55.35494" lon="25.81676">
        <ele>163.209314</ele>
        <time>2020-10-07T09:37:26.464Z</time>
      </trkpt>
      <trkpt lat="55.35373" lon="25.81659">
        <ele>164.431115</ele>
        <time>2020-10-07T09:38:00.590Z</time>
      </trkpt>
      <trkpt lat="55.35316" lon="25.8164">
        <ele>165.200306</ele>
        <time>2020-10-07T09:38:16.332Z</time>
      </trkpt>
      <trkpt lat="55.35256" lon="25.81606">
        <ele>166.051844</ele>
        <time>2020-10-07T09:38:33.929Z</time>
      </trkpt>
      <trkpt lat="55.35193" lon="25.81569">
        <ele>166.568526</ele>
        <time>2020-10-07T09:38:52.372Z</time>
      </trkpt>
      <trkpt lat="55.35154" lon="25.81546">
        <ele>166.710933</ele>
        <time>2020-10-07T09:39:02.778Z</time>
      </trkpt>
      <trkpt lat="55.35123" lon="25.81516">
        <ele>166.834717</ele>
        <time>2020-10-07T09:39:11.048Z</time>
      </trkpt>
      <trkpt lat="55.35104" lon="25.81495">
        <ele>166.913334</ele>
        <time>2020-10-07T09:39:16.231Z</time>
      </trkpt>
      <trkpt lat="55.35095" lon="25.81487">
        <ele>166.949115</ele>
        <time>2020-10-07T09:39:18.632Z</time>
      </trkpt>
      <trkpt lat="55.35023" lon="25.81449">
        <ele>166.278194</ele>
        <time>2020-10-07T09:39:33.397Z</time>
      </trkpt>
      <trkpt lat="55.3501" lon="25.81438">
        <ele>166.002371</ele>
        <time>2020-10-07T09:39:36.003Z</time>
      </trkpt>
      <trkpt lat="55.34991" lon="25.8141">
        <ele>165.514959</ele>
        <time>2020-10-07T09:39:40.589Z</time>
      </trkpt>
      <trkpt lat="55.34966" lon="25.81355">
        <ele>164.754034</ele>
        <time>2020-10-07T09:39:47.547Z</time>
      </trkpt>
      <trkpt lat="55.3495" lon="25.81343">
        <ele>164.426499</ele>
        <time>2020-10-07T09:39:50.554Z</time>
      </trkpt>
      <trkpt lat="55.34943" lon="25.81339">
        <ele>164.274472</ele>
        <time>2020-10-07T09:39:51.824Z</time>
      </trkpt>
      <trkpt lat="55.34803" lon="25.8126">
        <ele>160.465572</ele>
        <time>2020-10-07T09:40:15.724Z</time>
      </trkpt>
      <trkpt lat="55.34774" lon="25.81244">
        <ele>159.606834</ele>
        <time>2020-10-07T09:40:20.865Z</time>
      </trkpt>
      <trkpt lat="55.34746" lon="25.81231">
        <ele>158.785421</ele>
        <time>2020-10-07T09:40:25.855Z</time>
      </trkpt>
      <trkpt lat="55.34708" lon="25.81216">
        <ele>158.237002</ele>
        <time>2020-10-07T09:40:32.601Z</time>
      </trkpt>
      <trkpt lat="55.34631" lon="25.81171">
        <ele>157.405009</ele>
        <time>2020-10-07T09:40:47.281Z</time>
      </trkpt>
      <trkpt lat="55.34466" lon="25.80991">
        <ele>157.322048</ele>
        <time>2020-10-07T09:41:33.835Z</time>
      </trkpt>
      <trkpt lat="55.34415" lon="25.80941">
        <ele>157.586353</ele>
        <time>2020-10-07T09:41:48.637Z</time>
      </trkpt>
      <trkpt lat="55.34363" lon="25.80901">
        <ele>157.603957</ele>
        <time>2020-10-07T09:42:02.280Z</time>
      </trkpt>
      <trkpt lat="55.34338" lon="25.80885">
        <ele>157.612195</ele>
        <time>2020-10-07T09:42:08.678Z</time>
      </trkpt>
      <trkpt lat="55.34312" lon="25.80878">
        <ele>157.620404</ele>
        <time>2020-10-07T09:42:14.850Z</time>
      </trkpt>
      <trkpt lat="55.34306" lon="25.80882">
        <ele>157.622522</ele>
        <time>2020-10-07T09:42:16.542Z</time>
      </trkpt>
      <trkpt lat="55.34256" lon="25.80962">
        <ele>157.546321</ele>
        <time>2020-10-07T09:42:30.001Z</time>
      </trkpt>
      <trkpt lat="55.34195" lon="25.81059">
        <ele>156.599763</ele>
        <time>2020-10-07T09:42:45.683Z</time>
      </trkpt>
      <trkpt lat="55.34162" lon="25.81109">
        <ele>156.105908</ele>
        <time>2020-10-07T09:42:53.658Z</time>
      </trkpt>
      <trkpt lat="55.34133" lon="25.81145">
        <ele>155.697244</ele>
        <time>2020-10-07T09:43:00.324Z</time>
      </trkpt>
      <trkpt lat="55.34105" lon="25.81166">
        <ele>155.439905</ele>
        <time>2020-10-07T09:43:05.958Z</time>
      </trkpt>
      <trkpt lat="55.33795" lon="25.81404">
        <ele>153.283928</ele>
        <time>2020-10-07T09:44:14.840Z</time>
      </trkpt>
      <trkpt lat="55.33711" lon="25.81479">
        <ele>152.562201</ele>
        <time>2020-10-07T09:44:34.151Z</time>
      </trkpt>
      <trkpt lat="55.33645" lon="25.81564">
        <ele>151.941207</ele>
        <time>2020-10-07T09:44:50.119Z</time>
      </trkpt>
      <trkpt lat="55.33621" lon="25.81606">
        <ele>151.641598</ele>
        <time>2020-10-07T09:44:56.713Z</time>
      </trkpt>
      <trkpt lat="55.33593" lon="25.81663">
        <ele>151.262608</ele>
        <time>2020-10-07T09:45:04.892Z</time>
      </trkpt>
      <trkpt lat="55.33548" lon="25.81768">
        <ele>150.594949</ele>
        <time>2020-10-07T09:45:19.488Z</time>
      </trkpt>
      <trkpt lat="55.3353" lon="25.81814">
        <ele>150.31086</ele>
        <time>2020-10-07T09:45:25.749Z</time>
      </trkpt>
      <trkpt lat="55.3352" lon="25.81847">
        <ele>150.266818</ele>
        <time>2020-10-07T09:45:30.097Z</time>
      </trkpt>
      <trkpt lat="55.33493" lon="25.81951">
        <ele>150.168947</ele>
        <time>2020-10-07T09:45:43.650Z</time>
      </trkpt>
      <trkpt lat="55.3344" lon="25.82099">
        <ele>150.077698</ele>
        <time>2020-10-07T09:46:05.891Z</time>
      </trkpt>
      <trkpt lat="55.33294" lon="25.82306">
        <ele>152.239982</ele>
        <time>2020-10-07T09:46:55.937Z</time>
      </trkpt>
      <trkpt lat="55.33147" lon="25.8246">
        <ele>155.889751</ele>
        <time>2020-10-07T09:47:50.576Z</time>
      </trkpt>
      <trkpt lat="55.33031" lon="25.82603">
        <ele>158.397615</ele>
        <time>2020-10-07T09:48:33.170Z</time>
      </trkpt>
      <trkpt lat="55.32985" lon="25.8266">
        <ele>159.137908</ele>
        <time>2020-10-07T09:48:47.830Z</time>
      </trkpt>
      <trkpt lat="55.32942" lon="25.82736">
        <ele>159.511842</ele>
        <time>2020-10-07T09:49:03.070Z</time>
      </trkpt>
      <trkpt lat="55.32817" lon="25.83048">
        <ele>160.210097</ele>
        <time>2020-10-07T09:49:54.505Z</time>
      </trkpt>
      <trkpt lat="55.32796" lon="25.83081">
        <ele>160.23188</ele>
        <time>2020-10-07T09:50:00.312Z</time>
      </trkpt>
      <trkpt lat="55.32715" lon="25.83177">
        <ele>160.160136</ele>
        <time>2020-10-07T09:50:20.626Z</time>
      </trkpt>
      <trkpt lat="55.32688" lon="25.83208">
        <ele>160.111323</ele>
        <time>2020-10-07T09:50:28.165Z</time>
      </trkpt>
      <trkpt lat="55.32681" lon="25.83214">
        <ele>160.099585</ele>
        <time>2020-10-07T09:50:29.416Z</time>
      </trkpt>
      <trkpt lat="55.3266" lon="25.83226">
        <ele>160.065967</ele>
        <time>2020-10-07T09:50:35.473Z</time>
      </trkpt>
      <trkpt lat="55.3264" lon="25.83228">
        <ele>160.035502</ele>
        <time>2020-10-07T09:50:39.170Z</time>
      </trkpt>
      <trkpt lat="55.32623" lon="25.83222">
        <ele>160.010495</ele>
        <time>2020-10-07T09:50:44.262Z</time>
      </trkpt>
      <trkpt lat="55.32588" lon="25.83189">
        <ele>159.844706</ele>
        <time>2020-10-07T09:50:53.350Z</time>
      </trkpt>
      <trkpt lat="55.32574" lon="25.83171">
        <ele>159.745823</ele>
        <time>2020-10-07T09:50:56.398Z</time>
      </trkpt>
      <trkpt lat="55.32566" lon="25.83156">
        <ele>159.68161</ele>
        <time>2020-10-07T09:51:00.300Z</time>
      </trkpt>
      <trkpt lat="55.32544" lon="25.831">
        <ele>159.457529</ele>
        <time>2020-10-07T09:51:08.572Z</time>
      </trkpt>
      <trkpt lat="55.32516" lon="25.83002">
        <ele>159.101356</ele>
        <time>2020-10-07T09:51:20.756Z</time>
      </trkpt>
      <trkpt lat="55.32487" lon="25.82964">
        <ele>158.681859</ele>
        <time>2020-10-07T09:51:27.573Z</time>
      </trkpt>
      <trkpt lat="55.32427" lon="25.82914">
        <ele>157.074637</ele>
        <time>2020-10-07T09:51:39.375Z</time>
      </trkpt>
      <trkpt lat="55.32397" lon="25.82894">
        <ele>156.279262</ele>
        <time>2020-10-07T09:51:44.836Z</time>
      </trkpt>
      <trkpt lat="55.32344" lon="25.82877">
        <ele>154.989544</ele>
        <time>2020-10-07T09:51:53.504Z</time>
      </trkpt>
      <trkpt lat="55.3221" lon="25.82878">
        <ele>151.620484</ele>
        <time>2020-10-07T09:52:15.501Z</time>
      </trkpt>
      <trkpt lat="55.3218" lon="25.82855">
        <ele>150.78375</ele>
        <time>2020-10-07T09:52:21.411Z</time>
      </trkpt>
      <trkpt lat="55.32155" lon="25.82793">
        <ele>149.991406</ele>
        <time>2020-10-07T09:52:29.426Z</time>
      </trkpt>
      <trkpt lat="55.32147" lon="25.82766">
        <ele>149.913928</ele>
        <time>2020-10-07T09:52:32.690Z</time>
      </trkpt>
      <trkpt lat="55.32143" lon="25.82751">
        <ele>149.872075</ele>
        <time>2020-10-07T09:52:34.591Z</time>
      </trkpt>
      <trkpt lat="55.3214" lon="25.82737">
        <ele>149.833713</ele>
        <time>2020-10-07T09:52:36.344Z</time>
      </trkpt>
      <trkpt lat="55.32135" lon="25.82716">
        <ele>149.77635</ele>
        <time>2020-10-07T09:52:38.847Z</time>
      </trkpt>
      <trkpt lat="55.32133" lon="25.82702">
        <ele>149.740433</ele>
        <time>2020-10-07T09:52:40.523Z</time>
      </trkpt>
      <trkpt lat="55.32129" lon="25.82543">
        <ele>149.335148</ele>
        <time>2020-10-07T09:53:00.365Z</time>
      </trkpt>
      <trkpt lat="55.32115" lon="25.82448">
        <ele>149.379845</ele>
        <time>2020-10-07T09:53:13.519Z</time>
      </trkpt>
      <trkpt lat="55.32094" lon="25.82373">
        <ele>149.541361</ele>
        <time>2020-10-07T09:53:25.167Z</time>
      </trkpt>
      <trkpt lat="55.32061" lon="25.8229">
        <ele>149.736755</ele>
        <time>2020-10-07T09:53:38.864Z</time>
      </trkpt>
      <trkpt lat="55.32035" lon="25.82239">
        <ele>149.865895</ele>
        <time>2020-10-07T09:53:47.939Z</time>
      </trkpt>
      <trkpt lat="55.32018" lon="25.82216">
        <ele>149.898269</ele>
        <time>2020-10-07T09:53:53.065Z</time>
      </trkpt>
      <trkpt lat="55.31995" lon="25.82191">
        <ele>149.938026</ele>
        <time>2020-10-07T09:53:59.295Z</time>
      </trkpt>
      <trkpt lat="55.31979" lon="25.82176">
        <ele>149.964663</ele>
        <time>2020-10-07T09:54:03.436Z</time>
      </trkpt>
      <trkpt lat="55.31867" lon="25.821">
        <ele>150.147564</ele>
        <time>2020-10-07T09:54:30.532Z</time>
      </trkpt>
      <trkpt lat="55.31666" lon="25.81928">
        <ele>150.934627</ele>
        <time>2020-10-07T09:55:22.814Z</time>
      </trkpt>
      <trkpt lat="55.31613" lon="25.819">
        <ele>151.324692</ele>
        <time>2020-10-07T09:55:36.358Z</time>
      </trkpt>
      <trkpt lat="55.31528" lon="25.81869">
        <ele>152.024125</ele>
        <time>2020-10-07T09:55:59.267Z</time>
      </trkpt>
      <trkpt lat="55.31502" lon="25.81864">
        <ele>152.36052</ele>
        <time>2020-10-07T09:56:06.320Z</time>
      </trkpt>
      <trkpt lat="55.31365" lon="25.81834">
        <ele>154.197016</ele>
        <time>2020-10-07T09:56:45.037Z</time>
      </trkpt>
      <trkpt lat="55.31299" lon="25.81825">
        <ele>154.539044</ele>
        <time>2020-10-07T09:57:02.755Z</time>
      </trkpt>
      <trkpt lat="55.31198" lon="25.81827">
        <ele>155.041902</ele>
        <time>2020-10-07T09:57:26.709Z</time>
      </trkpt>
      <trkpt lat="55.31167" lon="25.81824">
        <ele>155.009409</ele>
        <time>2020-10-07T09:57:33.101Z</time>
      </trkpt>
      <trkpt lat="55.31149" lon="25.81823">
        <ele>154.900957</ele>
        <time>2020-10-07T09:57:36.791Z</time>
      </trkpt>
      <trkpt lat="55.31131" lon="25.81823">
        <ele>154.796726</ele>
        <time>2020-10-07T09:57:40.318Z</time>
      </trkpt>
      <trkpt lat="55.31118" lon="25.81824">
        <ele>154.713921</ele>
        <time>2020-10-07T09:57:43.081Z</time>
      </trkpt>
      <trkpt lat="55.31067" lon="25.81831">
        <ele>154.410427</ele>
        <time>2020-10-07T09:57:53.119Z</time>
      </trkpt>
      <trkpt lat="55.31035" lon="25.81843">
        <ele>154.214527</ele>
        <time>2020-10-07T09:57:59.555Z</time>
      </trkpt>
      <trkpt lat="55.30924" lon="25.81925">
        <ele>154.192947</ele>
        <time>2020-10-07T09:58:24.085Z</time>
      </trkpt>
      <trkpt lat="55.30897" lon="25.81936">
        <ele>154.239525</ele>
        <time>2020-10-07T09:58:30.457Z</time>
      </trkpt>
      <trkpt lat="55.30865" lon="25.81933">
        <ele>154.293931</ele>
        <time>2020-10-07T09:58:38.612Z</time>
      </trkpt>
      <trkpt lat="55.30798" lon="25.81887">
        <ele>155.398885</ele>
        <time>2020-10-07T09:58:58.903Z</time>
      </trkpt>
      <trkpt lat="55.30755" lon="25.81868">
        <ele>156.472452</ele>
        <time>2020-10-07T09:59:12.993Z</time>
      </trkpt>
      <trkpt lat="55.30711" lon="25.81861">
        <ele>157.557776</ele>
        <time>2020-10-07T09:59:28.382Z</time>
      </trkpt>
      <trkpt lat="55.30651" lon="25.81863">
        <ele>159.012967</ele>
        <time>2020-10-07T09:59:49.334Z</time>
      </trkpt>
      <trkpt lat="55.30604" lon="25.81868">
        <ele>160.010794</ele>
        <time>2020-10-07T10:00:05.150Z</time>
      </trkpt>
      <trkpt lat="55.30576" lon="25.81871">
        <ele>160.592157</ele>
        <time>2020-10-07T10:00:13.952Z</time>
      </trkpt>
      <trkpt lat="55.30478" lon="25.8187">
        <ele>162.589659</ele>
        <time>2020-10-07T10:00:42.731Z</time>
      </trkpt>
      <trkpt lat="55.30404" lon="25.81849">
        <ele>162.751626</ele>
        <time>2020-10-07T10:01:00.817Z</time>
      </trkpt>
      <trkpt lat="55.30358" lon="25.81828">
        <ele>162.853152</ele>
        <time>2020-10-07T10:01:11.038Z</time>
      </trkpt>
      <trkpt lat="55.30293" lon="25.81768">
        <ele>162.878603</ele>
        <time>2020-10-07T10:01:26.350Z</time>
      </trkpt>
      <trkpt lat="55.30017" lon="25.81334">
        <ele>161.672395</ele>
        <time>2020-10-07T10:02:43.163Z</time>
      </trkpt>
      <trkpt lat="55.2989" lon="25.81101">
        <ele>163.035603</ele>
        <time>2020-10-07T10:03:30.981Z</time>
      </trkpt>
      <trkpt lat="55.29834" lon="25.81031">
        <ele>163.872463</ele>
        <time>2020-10-07T10:03:49.779Z</time>
      </trkpt>
      <trkpt lat="55.29768" lon="25.80964">
        <ele>164.801844</ele>
        <time>2020-10-07T10:04:10.760Z</time>
      </trkpt>
      <trkpt lat="55.29703" lon="25.80896">
        <ele>165.762737</ele>
        <time>2020-10-07T10:04:31.655Z</time>
      </trkpt>
      <trkpt lat="55.29637" lon="25.80827">
        <ele>166.733289</ele>
        <time>2020-10-07T10:04:53.095Z</time>
      </trkpt>
      <trkpt lat="55.2954" lon="25.80658">
        <ele>167.653347</ele>
        <time>2020-10-07T10:05:28.384Z</time>
      </trkpt>
      <trkpt lat="55.29487" lon="25.80594">
        <ele>167.991693</ele>
        <time>2020-10-07T10:05:42.987Z</time>
      </trkpt>
      <trkpt lat="55.29291" lon="25.80391">
        <ele>167.247638</ele>
        <time>2020-10-07T10:06:29.852Z</time>
      </trkpt>
      <trkpt lat="55.29123" lon="25.80271">
        <ele>167.530196</ele>
        <time>2020-10-07T10:07:10.928Z</time>
      </trkpt>
      <trkpt lat="55.28944" lon="25.80047">
        <ele>169.69363</ele>
        <time>2020-10-07T10:08:08.671Z</time>
      </trkpt>
      <trkpt lat="55.28827" lon="25.79864">
        <ele>171.94566</ele>
        <time>2020-10-07T10:08:53.896Z</time>
      </trkpt>
      <trkpt lat="55.2875" lon="25.7973">
        <ele>173.648622</ele>
        <time>2020-10-07T10:09:24.867Z</time>
      </trkpt>
      <trkpt lat="55.28714" lon="25.79668">
        <ele>174.358597</ele>
        <time>2020-10-07T10:09:39.237Z</time>
      </trkpt>
      <trkpt lat="55.28662" lon="25.79605">
        <ele>175.208733</ele>
        <time>2020-10-07T10:09:56.938Z</time>
      </trkpt>
      <trkpt lat="55.2851" lon="25.79503">
        <ele>177.107028</ele>
        <time>2020-10-07T10:10:41.196Z</time>
      </trkpt>
      <trkpt lat="55.28404" lon="25.794">
        <ele>178.108747</ele>
        <time>2020-10-07T10:11:12.286Z</time>
      </trkpt>
      <trkpt lat="55.28214" lon="25.79235">
        <ele>178.23503</ele>
        <time>2020-10-07T10:11:59.397Z</time>
      </trkpt>
      <trkpt lat="55.28074" lon="25.79142">
        <ele>177.815974</ele>
        <time>2020-10-07T10:12:30.746Z</time>
      </trkpt>
      <trkpt lat="55.28028" lon="25.79103">
        <ele>177.63778</ele>
        <time>2020-10-07T10:12:41.523Z</time>
      </trkpt>
      <trkpt lat="55.27717" lon="25.78694">
        <ele>175.802874</ele>
        <time>2020-10-07T10:14:03.321Z</time>
      </trkpt>
      <trkpt lat="55.27476" lon="25.78308">
        <ele>171.114618</ele>
        <time>2020-10-07T10:15:03.616Z</time>
      </trkpt>
      <trkpt lat="55.27374" lon="25.78122">
        <ele>167.907365</ele>
        <time>2020-10-07T10:15:28.860Z</time>
      </trkpt>
      <trkpt lat="55.27329" lon="25.78043">
        <ele>166.165038</ele>
        <time>2020-10-07T10:15:39.580Z</time>
      </trkpt>
      <trkpt lat="55.2731" lon="25.78008">
        <ele>165.432728</ele>
        <time>2020-10-07T10:15:44.025Z</time>
      </trkpt>
      <trkpt lat="55.27223" lon="25.77806">
        <ele>161.605269</ele>
        <time>2020-10-07T10:16:08.279Z</time>
      </trkpt>
      <trkpt lat="55.27096" lon="25.77634">
        <ele>157.52349</ele>
        <time>2020-10-07T10:16:35.693Z</time>
      </trkpt>
      <trkpt lat="55.27078" lon="25.77617">
        <ele>157.033331</ele>
        <time>2020-10-07T10:16:39.102Z</time>
      </trkpt>
      <trkpt lat="55.27064" lon="25.77605">
        <ele>156.647015</ele>
        <time>2020-10-07T10:16:41.753Z</time>
      </trkpt>
      <trkpt lat="55.27032" lon="25.77584">
        <ele>155.809886</ele>
        <time>2020-10-07T10:16:47.559Z</time>
      </trkpt>
      <trkpt lat="55.27015" lon="25.77577">
        <ele>155.386275</ele>
        <time>2020-10-07T10:16:50.530Z</time>
      </trkpt>
      <trkpt lat="55.26997" lon="25.77572">
        <ele>154.949485</ele>
        <time>2020-10-07T10:16:53.635Z</time>
      </trkpt>
      <trkpt lat="55.26951" lon="25.77561">
        <ele>154.036058</ele>
        <time>2020-10-07T10:17:01.652Z</time>
      </trkpt>
      <trkpt lat="55.26927" lon="25.77546">
        <ele>153.526586</ele>
        <time>2020-10-07T10:17:06.098Z</time>
      </trkpt>
      <trkpt lat="55.26736" lon="25.77379">
        <ele>150.118868</ele>
        <time>2020-10-07T10:17:44.692Z</time>
      </trkpt>
      <trkpt lat="55.26729" lon="25.77371">
        <ele>150.005619</ele>
        <time>2020-10-07T10:17:46.300Z</time>
      </trkpt>
      <trkpt lat="55.2673" lon="25.77365">
        <ele>149.956315</ele>
        <time>2020-10-07T10:17:47.103Z</time>
      </trkpt>
      <trkpt lat="55.26733" lon="25.77352">
        <ele>149.859985</ele>
        <time>2020-10-07T10:17:48.642Z</time>
      </trkpt>
      <trkpt lat="55.26734" lon="25.77336">
        <ele>149.743877</ele>
        <time>2020-10-07T10:17:50.508Z</time>
      </trkpt>
      <trkpt lat="55.26732" lon="25.7731">
        <ele>149.554315</ele>
        <time>2020-10-07T10:17:53.320Z</time>
      </trkpt>
      <trkpt lat="55.26719" lon="25.77187">
        <ele>149.359423</ele>
        <time>2020-10-07T10:18:07.940Z</time>
      </trkpt>
      <trkpt lat="55.26699" lon="25.7698">
        <ele>149.732157</ele>
        <time>2020-10-07T10:18:36.646Z</time>
      </trkpt>
      <trkpt lat="55.26696" lon="25.76952">
        <ele>149.787837</ele>
        <time>2020-10-07T10:18:40.727Z</time>
      </trkpt>
      <trkpt lat="55.26678" lon="25.76764">
        <ele>152.476953</ele>
        <time>2020-10-07T10:19:12.491Z</time>
      </trkpt>
      <trkpt lat="55.26667" lon="25.76659">
        <ele>153.987159</ele>
        <time>2020-10-07T10:19:34.194Z</time>
      </trkpt>
      <trkpt lat="55.26644" lon="25.76437">
        <ele>160.000127</ele>
        <time>2020-10-07T10:20:28.798Z</time>
      </trkpt>
      <trkpt lat="55.2663" lon="25.76308">
        <ele>163.348031</ele>
        <time>2020-10-07T10:21:02.103Z</time>
      </trkpt>
      <trkpt lat="55.2661" lon="25.76134">
        <ele>166.180739</ele>
        <time>2020-10-07T10:21:39.582Z</time>
      </trkpt>
      <trkpt lat="55.26608" lon="25.76121">
        <ele>166.388078</ele>
        <time>2020-10-07T10:21:42.056Z</time>
      </trkpt>
      <trkpt lat="55.26603" lon="25.76079">
        <ele>167.081267</ele>
        <time>2020-10-07T10:21:48.944Z</time>
      </trkpt>
      <trkpt lat="55.26585" lon="25.75998">
        <ele>167.841249</ele>
        <time>2020-10-07T10:22:00.774Z</time>
      </trkpt>
      <trkpt lat="55.26473" lon="25.75679">
        <ele>165.637062</ele>
        <time>2020-10-07T10:22:40.503Z</time>
      </trkpt>
      <trkpt lat="55.26439" lon="25.75561">
        <ele>164.786644</ele>
        <time>2020-10-07T10:22:54.367Z</time>
      </trkpt>
      <trkpt lat="55.26422" lon="25.75499">
        <ele>164.34357</ele>
        <time>2020-10-07T10:23:01.916Z</time>
      </trkpt>
      <trkpt lat="55.2637" lon="25.75299">
        <ele>164.8114</ele>
        <time>2020-10-07T10:23:29.874Z</time>
      </trkpt>
      <trkpt lat="55.26322" lon="25.75117">
        <ele>166.077556</ele>
        <time>2020-10-07T10:24:03.111Z</time>
      </trkpt>
      <trkpt lat="55.26294" lon="25.74993">
        <ele>167.564324</ele>
        <time>2020-10-07T10:24:26.732Z</time>
      </trkpt>
      <trkpt lat="55.26268" lon="25.74907">
        <ele>168.658997</ele>
        <time>2020-10-07T10:24:43.903Z</time>
      </trkpt>
      <trkpt lat="55.2622" lon="25.7479">
        <ele>169.440157</ele>
        <time>2020-10-07T10:25:07.939Z</time>
      </trkpt>
      <trkpt lat="55.26001" lon="25.74229">
        <ele>171.911436</ele>
        <time>2020-10-07T10:26:44.478Z</time>
      </trkpt>
      <trkpt lat="55.25776" lon="25.73612">
        <ele>167.76329</ele>
        <time>2020-10-07T10:28:04.018Z</time>
      </trkpt>
      <trkpt lat="55.25748" lon="25.73545">
        <ele>167.456195</ele>
        <time>2020-10-07T10:28:12.429Z</time>
      </trkpt>
      <trkpt lat="55.25717" lon="25.73468">
        <ele>167.266117</ele>
        <time>2020-10-07T10:28:22.497Z</time>
      </trkpt>
      <trkpt lat="55.25698" lon="25.73417">
        <ele>167.143507</ele>
        <time>2020-10-07T10:28:29.770Z</time>
      </trkpt>
      <trkpt lat="55.2568" lon="25.73358">
        <ele>167.009437</ele>
        <time>2020-10-07T10:28:38.857Z</time>
      </trkpt>
      <trkpt lat="55.25657" lon="25.73246">
        <ele>167.667797</ele>
        <time>2020-10-07T10:28:58.211Z</time>
      </trkpt>
      <trkpt lat="55.25652" lon="25.73218">
        <ele>167.94329</ele>
        <time>2020-10-07T10:29:03.959Z</time>
      </trkpt>
      <trkpt lat="55.25638" lon="25.73119">
        <ele>168.88204</ele>
        <time>2020-10-07T10:29:21.540Z</time>
      </trkpt>
      <trkpt lat="55.25632" lon="25.73078">
        <ele>169.27208</ele>
        <time>2020-10-07T10:29:28.406Z</time>
      </trkpt>
      <trkpt lat="55.25625" lon="25.7304">
        <ele>169.640816</ele>
        <time>2020-10-07T10:29:35.507Z</time>
      </trkpt>
      <trkpt lat="55.2562" lon="25.73016">
        <ele>169.839959</ele>
        <time>2020-10-07T10:29:38.906Z</time>
      </trkpt>
      <trkpt lat="55.2559" lon="25.72927">
        <ele>169.757325</ele>
        <time>2020-10-07T10:29:54.506Z</time>
      </trkpt>
      <trkpt lat="55.2544" lon="25.72583">
        <ele>169.10566</ele>
        <time>2020-10-07T10:30:43.285Z</time>
      </trkpt>
      <trkpt lat="55.25372" lon="25.72405">
        <ele>169.423483</ele>
        <time>2020-10-07T10:31:13.683Z</time>
      </trkpt>
      <trkpt lat="55.25366" lon="25.72393">
        <ele>169.484345</ele>
        <time>2020-10-07T10:31:16.036Z</time>
      </trkpt>
      <trkpt lat="55.25342" lon="25.72342">
        <ele>169.759798</ele>
        <time>2020-10-07T10:31:25.989Z</time>
      </trkpt>
      <trkpt lat="55.25307" lon="25.72251">
        <ele>170.211405</ele>
        <time>2020-10-07T10:31:41.874Z</time>
      </trkpt>
      <trkpt lat="55.25231" lon="25.72031">
        <ele>170.869142</ele>
        <time>2020-10-07T10:32:16.965Z</time>
      </trkpt>
      <trkpt lat="55.25086" lon="25.71568">
        <ele>172.752137</ele>
        <time>2020-10-07T10:33:28.459Z</time>
      </trkpt>
      <trkpt lat="55.25063" lon="25.71504">
        <ele>173.283614</ele>
        <time>2020-10-07T10:33:40.958Z</time>
      </trkpt>
      <trkpt lat="55.24997" lon="25.71363">
        <ele>175.458942</ele>
        <time>2020-10-07T10:34:13.840Z</time>
      </trkpt>
      <trkpt lat="55.24953" lon="25.71293">
        <ele>177.15064</ele>
        <time>2020-10-07T10:34:34.340Z</time>
      </trkpt>
      <trkpt lat="55.2486" lon="25.71164">
        <ele>180.333066</ele>
        <time>2020-10-07T10:35:16.261Z</time>
      </trkpt>
      <trkpt lat="55.24714" lon="25.70961">
        <ele>183.128349</ele>
        <time>2020-10-07T10:36:14.109Z</time>
      </trkpt>
      <trkpt lat="55.24517" lon="25.70694">
        <ele>178.402772</ele>
        <time>2020-10-07T10:36:57.807Z</time>
      </trkpt>
      <trkpt lat="55.24268" lon="25.70516">
        <ele>166.264668</ele>
        <time>2020-10-07T10:37:37.740Z</time>
      </trkpt>
      <trkpt lat="55.2422" lon="25.70453">
        <ele>164.917701</ele>
        <time>2020-10-07T10:37:47.708Z</time>
      </trkpt>
      <trkpt lat="55.24159" lon="25.70355">
        <ele>163.082672</ele>
        <time>2020-10-07T10:38:04.535Z</time>
      </trkpt>
      <trkpt lat="55.24077" lon="25.70223">
        <ele>165.113983</ele>
        <time>2020-10-07T10:38:36.956Z</time>
      </trkpt>
      <trkpt lat="55.23974" lon="25.70058">
        <ele>168.044431</ele>
        <time>2020-10-07T10:39:23.332Z</time>
      </trkpt>
      <trkpt lat="55.23931" lon="25.69971">
        <ele>169.585101</ele>
        <time>2020-10-07T10:39:44.600Z</time>
      </trkpt>
      <trkpt lat="55.23903" lon="25.69897">
        <ele>170.615212</ele>
        <time>2020-10-07T10:40:00.139Z</time>
      </trkpt>
      <trkpt lat="55.23852" lon="25.69765">
        <ele>170.904633</ele>
        <time>2020-10-07T10:40:24.002Z</time>
      </trkpt>
      <trkpt lat="55.23837" lon="25.697">
        <ele>171.03221</ele>
        <time>2020-10-07T10:40:33.064Z</time>
      </trkpt>
      <trkpt lat="55.23771" lon="25.69133">
        <ele>167.484867</ele>
        <time>2020-10-07T10:41:33.568Z</time>
      </trkpt>
      <trkpt lat="55.23733" lon="25.68994">
        <ele>166.991741</ele>
        <time>2020-10-07T10:41:52.544Z</time>
      </trkpt>
      <trkpt lat="55.23715" lon="25.68902">
        <ele>167.501044</ele>
        <time>2020-10-07T10:42:06.336Z</time>
      </trkpt>
      <trkpt lat="55.23666" lon="25.68596">
        <ele>169.349277</ele>
        <time>2020-10-07T10:42:56.684Z</time>
      </trkpt>
      <trkpt lat="55.23605" lon="25.68378">
        <ele>170.668104</ele>
        <time>2020-10-07T10:43:33.550Z</time>
      </trkpt>
      <trkpt lat="55.23593" lon="25.68335">
        <ele>170.728749</ele>
        <time>2020-10-07T10:43:40.372Z</time>
      </trkpt>
      <trkpt lat="55.23561" lon="25.68168">
        <ele>170.948425</ele>
        <time>2020-10-07T10:44:02.982Z</time>
      </trkpt>
      <trkpt lat="55.23529" lon="25.67667">
        <ele>169.215772</ele>
        <time>2020-10-07T10:45:01.155Z</time>
      </trkpt>
      <trkpt lat="55.23414" lon="25.67165">
        <ele>166.25668</ele>
        <time>2020-10-07T10:46:00.565Z</time>
      </trkpt>
      <trkpt lat="55.23395" lon="25.67121">
        <ele>165.989847</ele>
        <time>2020-10-07T10:46:06.673Z</time>
      </trkpt>
      <trkpt lat="55.2337" lon="25.67081">
        <ele>165.706645</ele>
        <time>2020-10-07T10:46:13.218Z</time>
      </trkpt>
      <trkpt lat="55.23232" lon="25.66961">
        <ele>164.52393</ele>
        <time>2020-10-07T10:46:44.429Z</time>
      </trkpt>
      <trkpt lat="55.23176" lon="25.66898">
        <ele>164.066868</ele>
        <time>2020-10-07T10:46:58.256Z</time>
      </trkpt>
      <trkpt lat="55.23014" lon="25.66607">
        <ele>160.917319</ele>
        <time>2020-10-07T10:47:42.438Z</time>
      </trkpt>
      <trkpt lat="55.22971" lon="25.66498">
        <ele>158.291727</ele>
        <time>2020-10-07T10:47:54.635Z</time>
      </trkpt>
      <trkpt lat="55.22899" lon="25.66303">
        <ele>153.777173</ele>
        <time>2020-10-07T10:48:15.196Z</time>
      </trkpt>
      <trkpt lat="55.22887" lon="25.66268">
        <ele>153.025751</ele>
        <time>2020-10-07T10:48:18.939Z</time>
      </trkpt>
      <trkpt lat="55.22878" lon="25.66236">
        <ele>152.366116</ele>
        <time>2020-10-07T10:48:22.115Z</time>
      </trkpt>
      <trkpt lat="55.22869" lon="25.66201">
        <ele>151.666418</ele>
        <time>2020-10-07T10:48:25.751Z</time>
      </trkpt>
      <trkpt lat="55.22855" lon="25.66129">
        <ele>150.282495</ele>
        <time>2020-10-07T10:48:32.928Z</time>
      </trkpt>
      <trkpt lat="55.2285" lon="25.66055">
        <ele>149.266961</ele>
        <time>2020-10-07T10:48:40.473Z</time>
      </trkpt>
      <trkpt lat="55.22854" lon="25.66015">
        <ele>149.086654</ele>
        <time>2020-10-07T10:48:45.099Z</time>
      </trkpt>
      <trkpt lat="55.22874" lon="25.65917">
        <ele>148.628806</ele>
        <time>2020-10-07T10:48:57.340Z</time>
      </trkpt>
      <trkpt lat="55.22883" lon="25.65755">
        <ele>148.00766</ele>
        <time>2020-10-07T10:49:16.690Z</time>
      </trkpt>
      <trkpt lat="55.22891" lon="25.65686">
        <ele>148.05521</ele>
        <time>2020-10-07T10:49:25.326Z</time>
      </trkpt>
      <trkpt lat="55.22908" lon="25.65601">
        <ele>148.114864</ele>
        <time>2020-10-07T10:49:36.946Z</time>
      </trkpt>
      <trkpt lat="55.22942" lon="25.65458">
        <ele>148.262577</ele>
        <time>2020-10-07T10:49:58.152Z</time>
      </trkpt>
      <trkpt lat="55.22969" lon="25.65344">
        <ele>148.656617</ele>
        <time>2020-10-07T10:50:15.510Z</time>
      </trkpt>
      <trkpt lat="55.22982" lon="25.65289">
        <ele>148.843571</ele>
        <time>2020-10-07T10:50:23.814Z</time>
      </trkpt>
      <trkpt lat="55.23001" lon="25.65205">
        <ele>149.132193</ele>
        <time>2020-10-07T10:50:36.666Z</time>
      </trkpt>
      <trkpt lat="55.23024" lon="25.65053">
        <ele>149.579473</ele>
        <time>2020-10-07T10:50:58.422Z</time>
      </trkpt>
      <trkpt lat="55.23026" lon="25.65036">
        <ele>149.627105</ele>
        <time>2020-10-07T10:51:00.723Z</time>
      </trkpt>
      <trkpt lat="55.23031" lon="25.64974">
        <ele>149.797884</ele>
        <time>2020-10-07T10:51:09.086Z</time>
      </trkpt>
      <trkpt lat="55.23034" lon="25.64931">
        <ele>149.919941</ele>
        <time>2020-10-07T10:51:15.208Z</time>
      </trkpt>
      <trkpt lat="55.23038" lon="25.64885">
        <ele>150.048584</ele>
        <time>2020-10-07T10:51:21.784Z</time>
      </trkpt>
      <trkpt lat="55.23043" lon="25.64847">
        <ele>150.134131</ele>
        <time>2020-10-07T10:51:27.323Z</time>
      </trkpt>
      <trkpt lat="55.23049" lon="25.64807">
        <ele>150.214501</ele>
        <time>2020-10-07T10:51:33.203Z</time>
      </trkpt>
      <trkpt lat="55.23065" lon="25.64731">
        <ele>150.372823</ele>
        <time>2020-10-07T10:51:44.530Z</time>
      </trkpt>
      <trkpt lat="55.23093" lon="25.64587">
        <ele>150.671058</ele>
        <time>2020-10-07T10:52:04.412Z</time>
      </trkpt>
      <trkpt lat="55.23101" lon="25.64541">
        <ele>150.705398</ele>
        <time>2020-10-07T10:52:10.528Z</time>
      </trkpt>
      <trkpt lat="55.23117" lon="25.64464">
        <ele>150.721723</ele>
        <time>2020-10-07T10:52:21.035Z</time>
      </trkpt>
      <trkpt lat="55.23125" lon="25.64422">
        <ele>150.730749</ele>
        <time>2020-10-07T10:52:26.738Z</time>
      </trkpt>
      <trkpt lat="55.23127" lon="25.64415">
        <ele>150.732195</ele>
        <time>2020-10-07T10:52:27.633Z</time>
      </trkpt>
      <trkpt lat="55.23139" lon="25.64357">
        <ele>150.744523</ele>
        <time>2020-10-07T10:52:35.415Z</time>
      </trkpt>
      <trkpt lat="55.23164" lon="25.64251">
        <ele>150.826871</ele>
        <time>2020-10-07T10:52:49.983Z</time>
      </trkpt>
      <trkpt lat="55.23181" lon="25.64208">
        <ele>150.944814</ele>
        <time>2020-10-07T10:52:56.949Z</time>
      </trkpt>
      <trkpt lat="55.233" lon="25.64008">
        <ele>151.475473</ele>
        <time>2020-10-07T10:53:37.488Z</time>
      </trkpt>
      <trkpt lat="55.23326" lon="25.63946">
        <ele>151.474321</ele>
        <time>2020-10-07T10:53:47.270Z</time>
      </trkpt>
      <trkpt lat="55.23329" lon="25.63934">
        <ele>151.474116</ele>
        <time>2020-10-07T10:53:49.017Z</time>
      </trkpt>
      <trkpt lat="55.23333" lon="25.63916">
        <ele>151.473824</ele>
        <time>2020-10-07T10:53:51.347Z</time>
      </trkpt>
      <trkpt lat="55.23336" lon="25.63898">
        <ele>151.47355</ele>
        <time>2020-10-07T10:53:53.597Z</time>
      </trkpt>
      <trkpt lat="55.23346" lon="25.63829">
        <ele>151.472463</ele>
        <time>2020-10-07T10:54:02.270Z</time>
      </trkpt>
      <trkpt lat="55.23355" lon="25.6376">
        <ele>151.471534</ele>
        <time>2020-10-07T10:54:10.747Z</time>
      </trkpt>
      <trkpt lat="55.23369" lon="25.63668">
        <ele>151.471426</ele>
        <time>2020-10-07T10:54:22.478Z</time>
      </trkpt>
      <trkpt lat="55.23386" lon="25.63553">
        <ele>151.471291</ele>
        <time>2020-10-07T10:54:37.679Z</time>
      </trkpt>
      <trkpt lat="55.23395" lon="25.63496">
        <ele>151.471224</ele>
        <time>2020-10-07T10:54:45.566Z</time>
      </trkpt>
      <trkpt lat="55.23412" lon="25.6339">
        <ele>151.598251</ele>
        <time>2020-10-07T10:55:00.142Z</time>
      </trkpt>
      <trkpt lat="55.23422" lon="25.6333">
        <ele>151.698694</ele>
        <time>2020-10-07T10:55:08.345Z</time>
      </trkpt>
      <trkpt lat="55.23439" lon="25.63229">
        <ele>151.871762</ele>
        <time>2020-10-07T10:55:22.528Z</time>
      </trkpt>
      <trkpt lat="55.2345" lon="25.63175">
        <ele>151.963964</ele>
        <time>2020-10-07T10:55:30.071Z</time>
      </trkpt>
      <trkpt lat="55.23463" lon="25.63097">
        <ele>152.071491</ele>
        <time>2020-10-07T10:55:41.491Z</time>
      </trkpt>
      <trkpt lat="55.23463" lon="25.62974">
        <ele>152.225083</ele>
        <time>2020-10-07T10:55:57.448Z</time>
      </trkpt>
      <trkpt lat="55.23461" lon="25.62923">
        <ele>152.289875</ele>
        <time>2020-10-07T10:56:03.971Z</time>
      </trkpt>
      <trkpt lat="55.23458" lon="25.62876">
        <ele>152.348887</ele>
        <time>2020-10-07T10:56:10.362Z</time>
      </trkpt>
      <trkpt lat="55.23445" lon="25.6266">
        <ele>152.137065</ele>
        <time>2020-10-07T10:56:39.577Z</time>
      </trkpt>
      <trkpt lat="55.23438" lon="25.6255">
        <ele>151.996989</ele>
        <time>2020-10-07T10:56:52.084Z</time>
      </trkpt>
      <trkpt lat="55.23434" lon="25.62471">
        <ele>151.44669</ele>
        <time>2020-10-07T10:57:00.493Z</time>
      </trkpt>
      <trkpt lat="55.23432" lon="25.62409">
        <ele>150.944665</ele>
        <time>2020-10-07T10:57:07.014Z</time>
      </trkpt>
      <trkpt lat="55.23425" lon="25.62203">
        <ele>149.331605</ele>
        <time>2020-10-07T10:57:28.518Z</time>
      </trkpt>
      <trkpt lat="55.23417" lon="25.61957">
        <ele>148.001906</ele>
        <time>2020-10-07T10:57:55.048Z</time>
      </trkpt>
      <trkpt lat="55.23406" lon="25.61882">
        <ele>147.859795</ele>
        <time>2020-10-07T10:58:04.995Z</time>
      </trkpt>
      <trkpt lat="55.23319" lon="25.6161">
        <ele>149.318667</ele>
        <time>2020-10-07T10:58:51.537Z</time>
      </trkpt>
      <trkpt lat="55.23315" lon="25.61589">
        <ele>149.462528</ele>
        <time>2020-10-07T10:58:55.139Z</time>
      </trkpt>
      <trkpt lat="55.23311" lon="25.6157">
        <ele>149.594861</ele>
        <time>2020-10-07T10:58:58.411Z</time>
      </trkpt>
      <trkpt lat="55.23308" lon="25.61518">
        <ele>149.937986</ele>
        <time>2020-10-07T10:59:06.829Z</time>
      </trkpt>
      <trkpt lat="55.2331" lon="25.61376">
        <ele>150.867226</ele>
        <time>2020-10-07T10:59:29.466Z</time>
      </trkpt>
      <trkpt lat="55.23311" lon="25.61359">
        <ele>150.980239</ele>
        <time>2020-10-07T10:59:32.135Z</time>
      </trkpt>
      <trkpt lat="55.23314" lon="25.61245">
        <ele>151.081697</ele>
        <time>2020-10-07T10:59:48.105Z</time>
      </trkpt>
      <trkpt lat="55.23318" lon="25.61082">
        <ele>150.767084</ele>
        <time>2020-10-07T11:00:07.355Z</time>
      </trkpt>
      <trkpt lat="55.23317" lon="25.61063">
        <ele>150.729512</ele>
        <time>2020-10-07T11:00:09.693Z</time>
      </trkpt>
      <trkpt lat="55.23314" lon="25.61042">
        <ele>150.687997</ele>
        <time>2020-10-07T11:00:11.825Z</time>
      </trkpt>
      <trkpt lat="55.23283" lon="25.60878">
        <ele>149.658151</ele>
        <time>2020-10-07T11:00:30.370Z</time>
      </trkpt>
      <trkpt lat="55.23274" lon="25.60788">
        <ele>149.022083</ele>
        <time>2020-10-07T11:00:39.789Z</time>
      </trkpt>
      <trkpt lat="55.23276" lon="25.60687">
        <ele>148.382271</ele>
        <time>2020-10-07T11:00:51.036Z</time>
      </trkpt>
      <trkpt lat="55.23278" lon="25.60518">
        <ele>148.023874</ele>
        <time>2020-10-07T11:01:10.664Z</time>
      </trkpt>
      <trkpt lat="55.23278" lon="25.60469">
        <ele>147.920668</ele>
        <time>2020-10-07T11:01:16.575Z</time>
      </trkpt>
      <trkpt lat="55.23279" lon="25.60408">
        <ele>147.789217</ele>
        <time>2020-10-07T11:01:24.401Z</time>
      </trkpt>
      <trkpt lat="55.23277" lon="25.60284">
        <ele>147.988376</ele>
        <time>2020-10-07T11:01:41.214Z</time>
      </trkpt>
      <trkpt lat="55.23265" lon="25.60168">
        <ele>148.273951</ele>
        <time>2020-10-07T11:01:57.606Z</time>
      </trkpt>
      <trkpt lat="55.2326" lon="25.60122">
        <ele>148.385076</ele>
        <time>2020-10-07T11:02:04.183Z</time>
      </trkpt>
      <trkpt lat="55.23257" lon="25.60092">
        <ele>148.459199</ele>
        <time>2020-10-07T11:02:08.552Z</time>
      </trkpt>
      <trkpt lat="55.2324" lon="25.60006">
        <ele>148.649496</ele>
        <time>2020-10-07T11:02:20.960Z</time>
      </trkpt>
      <trkpt lat="55.23198" lon="25.5987">
        <ele>148.962794</ele>
        <time>2020-10-07T11:02:42.206Z</time>
      </trkpt>
      <trkpt lat="55.23183" lon="25.59831">
        <ele>149.057438</ele>
        <time>2020-10-07T11:02:48.320Z</time>
      </trkpt>
      <trkpt lat="55.23154" lon="25.59752">
        <ele>149.182643</ele>
        <time>2020-10-07T11:03:00.574Z</time>
      </trkpt>
      <trkpt lat="55.23141" lon="25.59713">
        <ele>149.218294</ele>
        <time>2020-10-07T11:03:06.393Z</time>
      </trkpt>
      <trkpt lat="55.2313" lon="25.59674">
        <ele>149.252986</ele>
        <time>2020-10-07T11:03:12.121Z</time>
      </trkpt>
      <trkpt lat="55.23105" lon="25.59577">
        <ele>149.33784</ele>
        <time>2020-10-07T11:03:25.965Z</time>
      </trkpt>
      <trkpt lat="55.23083" lon="25.59515">
        <ele>149.391139</ele>
        <time>2020-10-07T11:03:35.568Z</time>
      </trkpt>
      <trkpt lat="55.2306" lon="25.59465">
        <ele>149.387432</ele>
        <time>2020-10-07T11:03:44.035Z</time>
      </trkpt>
      <trkpt lat="55.22919" lon="25.59168">
        <ele>149.4565</ele>
        <time>2020-10-07T11:04:32.367Z</time>
      </trkpt>
      <trkpt lat="55.22907" lon="25.5914">
        <ele>149.476927</ele>
        <time>2020-10-07T11:04:36.974Z</time>
      </trkpt>
      <trkpt lat="55.229" lon="25.59119">
        <ele>149.491027</ele>
        <time>2020-10-07T11:04:40.295Z</time>
      </trkpt>
      <trkpt lat="55.22884" lon="25.59015">
        <ele>149.554063</ele>
        <time>2020-10-07T11:04:54.326Z</time>
      </trkpt>
      <trkpt lat="55.22883" lon="25.58944">
        <ele>149.781582</ele>
        <time>2020-10-07T11:05:04.059Z</time>
      </trkpt>
      <trkpt lat="55.22886" lon="25.58918">
        <ele>149.875525</ele>
        <time>2020-10-07T11:05:07.684Z</time>
      </trkpt>
      <trkpt lat="55.22888" lon="25.58906">
        <ele>149.916502</ele>
        <time>2020-10-07T11:05:09.185Z</time>
      </trkpt>
      <trkpt lat="55.22892" lon="25.58878">
        <ele>150.019117</ele>
        <time>2020-10-07T11:05:13.428Z</time>
      </trkpt>
      <trkpt lat="55.22898" lon="25.58845">
        <ele>150.143933</ele>
        <time>2020-10-07T11:05:18.197Z</time>
      </trkpt>
      <trkpt lat="55.2294" lon="25.58704">
        <ele>150.690989</ele>
        <time>2020-10-07T11:05:41.881Z</time>
      </trkpt>
      <trkpt lat="55.22965" lon="25.58595">
        <ele>150.967594</ele>
        <time>2020-10-07T11:05:58.458Z</time>
      </trkpt>
      <trkpt lat="55.2297" lon="25.58546">
        <ele>151.084281</ele>
        <time>2020-10-07T11:06:05.475Z</time>
      </trkpt>
      <trkpt lat="55.22991" lon="25.58355">
        <ele>151.238593</ele>
        <time>2020-10-07T11:06:30.673Z</time>
      </trkpt>
      <trkpt lat="55.22999" lon="25.58285">
        <ele>151.013592</ele>
        <time>2020-10-07T11:06:39.315Z</time>
      </trkpt>
      <trkpt lat="55.23011" lon="25.58183">
        <ele>150.688477</ele>
        <time>2020-10-07T11:06:50.932Z</time>
      </trkpt>
      <trkpt lat="55.2303" lon="25.58016">
        <ele>150.29394</ele>
        <time>2020-10-07T11:07:10.113Z</time>
      </trkpt>
      <trkpt lat="55.23049" lon="25.5789">
        <ele>150.09535</ele>
        <time>2020-10-07T11:07:25.491Z</time>
      </trkpt>
      <trkpt lat="55.23112" lon="25.57594">
        <ele>151.008261</ele>
        <time>2020-10-07T11:08:08.686Z</time>
      </trkpt>
      <trkpt lat="55.23129" lon="25.57513">
        <ele>151.430849</ele>
        <time>2020-10-07T11:08:23.139Z</time>
      </trkpt>
      <trkpt lat="55.23159" lon="25.57375">
        <ele>152.897077</ele>
        <time>2020-10-07T11:08:48.288Z</time>
      </trkpt>
      <trkpt lat="55.23166" lon="25.5734">
        <ele>153.277239</ele>
        <time>2020-10-07T11:08:54.484Z</time>
      </trkpt>
      <trkpt lat="55.23181" lon="25.57271">
        <ele>154.051459</ele>
        <time>2020-10-07T11:09:06.815Z</time>
      </trkpt>
      <trkpt lat="55.23186" lon="25.57246">
        <ele>154.327164</ele>
        <time>2020-10-07T11:09:11.635Z</time>
      </trkpt>
      <trkpt lat="55.23206" lon="25.57147">
        <ele>155.296757</ele>
        <time>2020-10-07T11:09:29.407Z</time>
      </trkpt>
      <trkpt lat="55.23216" lon="25.57062">
        <ele>156.036076</ele>
        <time>2020-10-07T11:09:44.291Z</time>
      </trkpt>
      <trkpt lat="55.23217" lon="25.57031">
        <ele>156.305906</ele>
        <time>2020-10-07T11:09:49.042Z</time>
      </trkpt>
      <trkpt lat="55.23216" lon="25.56999">
        <ele>156.575604</ele>
        <time>2020-10-07T11:09:54.241Z</time>
      </trkpt>
      <trkpt lat="55.23212" lon="25.56866">
        <ele>157.568788</ele>
        <time>2020-10-07T11:10:14.528Z</time>
      </trkpt>
      <trkpt lat="55.23203" lon="25.5662">
        <ele>158.501666</ele>
        <time>2020-10-07T11:10:49.630Z</time>
      </trkpt>
      <trkpt lat="55.23206" lon="25.56538">
        <ele>158.690606</ele>
        <time>2020-10-07T11:11:00.560Z</time>
      </trkpt>
      <trkpt lat="55.2321" lon="25.56507">
        <ele>158.720688</ele>
        <time>2020-10-07T11:11:04.477Z</time>
      </trkpt>
      <trkpt lat="55.23216" lon="25.56467">
        <ele>158.759763</ele>
        <time>2020-10-07T11:11:09.994Z</time>
      </trkpt>
      <trkpt lat="55.2322" lon="25.56448">
        <ele>158.779117</ele>
        <time>2020-10-07T11:11:12.571Z</time>
      </trkpt>
      <trkpt lat="55.23232" lon="25.56374">
        <ele>158.852681</ele>
        <time>2020-10-07T11:11:22.988Z</time>
      </trkpt>
      <trkpt lat="55.23233" lon="25.56367">
        <ele>158.859331</ele>
        <time>2020-10-07T11:11:23.947Z</time>
      </trkpt>
      <trkpt lat="55.23235" lon="25.56352">
        <ele>158.873916</ele>
        <time>2020-10-07T11:11:25.953Z</time>
      </trkpt>
      <trkpt lat="55.23272" lon="25.56123">
        <ele>158.273479</ele>
        <time>2020-10-07T11:11:55.945Z</time>
      </trkpt>
      <trkpt lat="55.23302" lon="25.56036">
        <ele>157.840914</ele>
        <time>2020-10-07T11:12:07.065Z</time>
      </trkpt>
      <trkpt lat="55.23349" lon="25.55952">
        <ele>157.050462</ele>
        <time>2020-10-07T11:12:19.021Z</time>
      </trkpt>
      <trkpt lat="55.23357" lon="25.55937">
        <ele>156.862467</ele>
        <time>2020-10-07T11:12:21.026Z</time>
      </trkpt>
      <trkpt lat="55.23476" lon="25.55714">
        <ele>154.994855</ele>
        <time>2020-10-07T11:12:52.817Z</time>
      </trkpt>
      <trkpt lat="55.23533" lon="25.55605">
        <ele>155.387916</ele>
        <time>2020-10-07T11:13:14.514Z</time>
      </trkpt>
      <trkpt lat="55.23579" lon="25.55519">
        <ele>155.710343</ele>
        <time>2020-10-07T11:13:34.295Z</time>
      </trkpt>
      <trkpt lat="55.23609" lon="25.55438">
        <ele>156.022386</ele>
        <time>2020-10-07T11:13:49.914Z</time>
      </trkpt>
      <trkpt lat="55.23621" lon="25.55398">
        <ele>156.166508</ele>
        <time>2020-10-07T11:13:56.603Z</time>
      </trkpt>
      <trkpt lat="55.2363" lon="25.55345">
        <ele>156.344941</ele>
        <time>2020-10-07T11:14:04.162Z</time>
      </trkpt>
      <trkpt lat="55.23659" lon="25.5514">
        <ele>155.876188</ele>
        <time>2020-10-07T11:14:28.212Z</time>
      </trkpt>
      <trkpt lat="55.23694" lon="25.54768">
        <ele>153.905715</ele>
        <time>2020-10-07T11:15:07.920Z</time>
      </trkpt>
      <trkpt lat="55.23702" lon="25.54661">
        <ele>153.504018</ele>
        <time>2020-10-07T11:15:21.752Z</time>
      </trkpt>
      <trkpt lat="55.23707" lon="25.54587">
        <ele>153.77565</ele>
        <time>2020-10-07T11:15:32.351Z</time>
      </trkpt>
      <trkpt lat="55.23704" lon="25.54526">
        <ele>154.285019</ele>
        <time>2020-10-07T11:15:41.750Z</time>
      </trkpt>
      <trkpt lat="55.23659" lon="25.54092">
        <ele>158.193896</ele>
        <time>2020-10-07T11:16:56.874Z</time>
      </trkpt>
      <trkpt lat="55.23661" lon="25.53954">
        <ele>159.237519</ele>
        <time>2020-10-07T11:17:18.069Z</time>
      </trkpt>
      <trkpt lat="55.23684" lon="25.53679">
        <ele>160.417094</ele>
        <time>2020-10-07T11:17:58.638Z</time>
      </trkpt>
      <trkpt lat="55.23685" lon="25.53661">
        <ele>160.355146</ele>
        <time>2020-10-07T11:18:00.952Z</time>
      </trkpt>
      <trkpt lat="55.23685" lon="25.53633">
        <ele>160.256269</ele>
        <time>2020-10-07T11:18:04.775Z</time>
      </trkpt>
      <trkpt lat="55.23678" lon="25.53524">
        <ele>159.870587</ele>
        <time>2020-10-07T11:18:17.683Z</time>
      </trkpt>
      <trkpt lat="55.23664" lon="25.53447">
        <ele>159.587081</ele>
        <time>2020-10-07T11:18:26.811Z</time>
      </trkpt>
      <trkpt lat="55.23649" lon="25.53357">
        <ele>158.908091</ele>
        <time>2020-10-07T11:18:36.628Z</time>
      </trkpt>
      <trkpt lat="55.23637" lon="25.532">
        <ele>156.637637</ele>
        <time>2020-10-07T11:18:51.980Z</time>
      </trkpt>
      <trkpt lat="55.23635" lon="25.53101">
        <ele>155.20815</ele>
        <time>2020-10-07T11:19:01.246Z</time>
      </trkpt>
      <trkpt lat="55.23636" lon="25.52845">
        <ele>151.407247</ele>
        <time>2020-10-07T11:19:25.699Z</time>
      </trkpt>
      <trkpt lat="55.23636" lon="25.52783">
        <ele>150.481456</ele>
        <time>2020-10-07T11:19:31.854Z</time>
      </trkpt>
      <trkpt lat="55.23635" lon="25.52721">
        <ele>149.783072</ele>
        <time>2020-10-07T11:19:38.009Z</time>
      </trkpt>
      <trkpt lat="55.23631" lon="25.52664">
        <ele>149.252293</ele>
        <time>2020-10-07T11:19:43.868Z</time>
      </trkpt>
      <trkpt lat="55.23615" lon="25.52464">
        <ele>147.395767</ele>
        <time>2020-10-07T11:20:04.890Z</time>
      </trkpt>
      <trkpt lat="55.23611" lon="25.52416">
        <ele>147.129237</ele>
        <time>2020-10-07T11:20:10.402Z</time>
      </trkpt>
      <trkpt lat="55.23607" lon="25.52373">
        <ele>146.993929</ele>
        <time>2020-10-07T11:20:15.138Z</time>
      </trkpt>
      <trkpt lat="55.23594" lon="25.52287">
        <ele>146.712577</ele>
        <time>2020-10-07T11:20:25.555Z</time>
      </trkpt>
      <trkpt lat="55.23571" lon="25.52143">
        <ele>146.239475</ele>
        <time>2020-10-07T11:20:43.207Z</time>
      </trkpt>
      <trkpt lat="55.23555" lon="25.52045">
        <ele>146.794894</ele>
        <time>2020-10-07T11:20:57.351Z</time>
      </trkpt>
      <trkpt lat="55.23548" lon="25.52016">
        <ele>146.973513</ele>
        <time>2020-10-07T11:21:01.861Z</time>
      </trkpt>
      <trkpt lat="55.23544" lon="25.51999">
        <ele>147.077415</ele>
        <time>2020-10-07T11:21:04.645Z</time>
      </trkpt>
      <trkpt lat="55.23539" lon="25.51985">
        <ele>147.169126</ele>
        <time>2020-10-07T11:21:07.138Z</time>
      </trkpt>
      <trkpt lat="55.23538" lon="25.51982">
        <ele>147.189342</ele>
        <time>2020-10-07T11:21:07.687Z</time>
      </trkpt>
      <trkpt lat="55.23527" lon="25.51954">
        <ele>147.381403</ele>
        <time>2020-10-07T11:21:12.764Z</time>
      </trkpt>
      <trkpt lat="55.23516" lon="25.51926">
        <ele>147.580502</ele>
        <time>2020-10-07T11:21:18.475Z</time>
      </trkpt>
      <trkpt lat="55.23507" lon="25.51901">
        <ele>147.7438</ele>
        <time>2020-10-07T11:21:22.972Z</time>
      </trkpt>
      <trkpt lat="55.23499" lon="25.51874">
        <ele>147.917382</ele>
        <time>2020-10-07T11:21:28.214Z</time>
      </trkpt>
      <trkpt lat="55.23478" lon="25.5176">
        <ele>149.181225</ele>
        <time>2020-10-07T11:21:48.869Z</time>
      </trkpt>
      <trkpt lat="55.23465" lon="25.51478">
        <ele>151.723025</ele>
        <time>2020-10-07T11:22:39.032Z</time>
      </trkpt>
      <trkpt lat="55.23464" lon="25.51414">
        <ele>151.815459</ele>
        <time>2020-10-07T11:22:47.983Z</time>
      </trkpt>
      <trkpt lat="55.23467" lon="25.51228">
        <ele>152.063235</ele>
        <time>2020-10-07T11:23:09.826Z</time>
      </trkpt>
      <trkpt lat="55.2346" lon="25.5115">
        <ele>151.787326</ele>
        <time>2020-10-07T11:23:17.910Z</time>
      </trkpt>
      <trkpt lat="55.23426" lon="25.50932">
        <ele>150.988722</ele>
        <time>2020-10-07T11:23:43.235Z</time>
      </trkpt>
      <trkpt lat="55.23422" lon="25.50893">
        <ele>151.42445</ele>
        <time>2020-10-07T11:23:48.897Z</time>
      </trkpt>
      <trkpt lat="55.23405" lon="25.5066">
        <ele>154.622895</ele>
        <time>2020-10-07T11:24:31.947Z</time>
      </trkpt>
      <trkpt lat="55.23386" lon="25.50421">
        <ele>159.933699</ele>
        <time>2020-10-07T11:25:27.797Z</time>
      </trkpt>
      <trkpt lat="55.2339" lon="25.50295">
        <ele>162.941884</ele>
        <time>2020-10-07T11:25:56.606Z</time>
      </trkpt>
      <trkpt lat="55.23411" lon="25.49975">
        <ele>168.163685</ele>
        <time>2020-10-07T11:26:59.092Z</time>
      </trkpt>
      <trkpt lat="55.23429" lon="25.49465">
        <ele>170.695844</ele>
        <time>2020-10-07T11:28:13.669Z</time>
      </trkpt>
      <trkpt lat="55.23432" lon="25.49413">
        <ele>170.854125</ele>
        <time>2020-10-07T11:28:20.587Z</time>
      </trkpt>
      <trkpt lat="55.23436" lon="25.49365">
        <ele>171.000107</ele>
        <time>2020-10-07T11:28:26.865Z</time>
      </trkpt>
      <trkpt lat="55.23452" lon="25.49229">
        <ele>170.667076</ele>
        <time>2020-10-07T11:28:44.123Z</time>
      </trkpt>
      <trkpt lat="55.2346" lon="25.49092">
        <ele>170.293493</ele>
        <time>2020-10-07T11:29:00.049Z</time>
      </trkpt>
      <trkpt lat="55.23468" lon="25.48733">
        <ele>168.293788</ele>
        <time>2020-10-07T11:29:39.310Z</time>
      </trkpt>
      <trkpt lat="55.23464" lon="25.48238">
        <ele>164.869284</ele>
        <time>2020-10-07T11:30:33.421Z</time>
      </trkpt>
      <trkpt lat="55.2347" lon="25.47981">
        <ele>162.283915</ele>
        <time>2020-10-07T11:30:59.698Z</time>
      </trkpt>
      <trkpt lat="55.23469" lon="25.47921">
        <ele>161.550331</ele>
        <time>2020-10-07T11:31:05.622Z</time>
      </trkpt>
      <trkpt lat="55.23463" lon="25.4785">
        <ele>160.673957</ele>
        <time>2020-10-07T11:31:12.614Z</time>
      </trkpt>
      <trkpt lat="55.23454" lon="25.47746">
        <ele>159.349222</ele>
        <time>2020-10-07T11:31:22.844Z</time>
      </trkpt>
      <trkpt lat="55.23434" lon="25.47518">
        <ele>156.328347</ele>
        <time>2020-10-07T11:31:45.409Z</time>
      </trkpt>
      <trkpt lat="55.23424" lon="25.47315">
        <ele>154.566258</ele>
        <time>2020-10-07T11:32:06.379Z</time>
      </trkpt>
      <trkpt lat="55.23424" lon="25.47255">
        <ele>154.118466</ele>
        <time>2020-10-07T11:32:13.006Z</time>
      </trkpt>
      <trkpt lat="55.23409" lon="25.47252">
        <ele>153.917515</ele>
        <time>2020-10-07T11:32:16.128Z</time>
      </trkpt>
      <trkpt lat="55.23415" lon="25.47222">
        <ele>153.683619</ele>
        <time>2020-10-07T11:32:19.942Z</time>
      </trkpt>
      <trkpt lat="55.23414" lon="25.47117">
        <ele>153.193199</ele>
        <time>2020-10-07T11:32:32.900Z</time>
      </trkpt>
      <trkpt lat="55.23423" lon="25.4687">
        <ele>152.410022</ele>
        <time>2020-10-07T11:33:03.564Z</time>
      </trkpt>
      <trkpt lat="55.23434" lon="25.46692">
        <ele>151.248721</ele>
        <time>2020-10-07T11:33:23.875Z</time>
      </trkpt>
      <trkpt lat="55.2344" lon="25.46597">
        <ele>150.631558</ele>
        <time>2020-10-07T11:33:34.326Z</time>
      </trkpt>
      <trkpt lat="55.23496" lon="25.45806">
        <ele>146.76236</ele>
        <time>2020-10-07T11:35:07.752Z</time>
      </trkpt>
      <trkpt lat="55.23501" lon="25.45738">
        <ele>146.559711</ele>
        <time>2020-10-07T11:35:16.087Z</time>
      </trkpt>
      <trkpt lat="55.23502" lon="25.45667">
        <ele>146.350495</ele>
        <time>2020-10-07T11:35:24.777Z</time>
      </trkpt>
      <trkpt lat="55.23452" lon="25.4512">
        <ele>147.704949</ele>
        <time>2020-10-07T11:36:39.924Z</time>
      </trkpt>
      <trkpt lat="55.23429" lon="25.4504">
        <ele>148.345976</ele>
        <time>2020-10-07T11:36:56.366Z</time>
      </trkpt>
      <trkpt lat="55.23431" lon="25.45031">
        <ele>148.408806</ele>
        <time>2020-10-07T11:36:58.222Z</time>
      </trkpt>
      <trkpt lat="55.23437" lon="25.4501">
        <ele>148.578815</ele>
        <time>2020-10-07T11:37:03.103Z</time>
      </trkpt>
      <trkpt lat="55.23439" lon="25.45005">
        <ele>148.622774</ele>
        <time>2020-10-07T11:37:05.725Z</time>
      </trkpt>
      <trkpt lat="55.23428" lon="25.44981">
        <ele>149.196999</ele>
        <time>2020-10-07T11:37:14.048Z</time>
      </trkpt>
      <trkpt lat="55.23433" lon="25.44806">
        <ele>152.437441</ele>
        <time>2020-10-07T11:38:05.937Z</time>
      </trkpt>
      <trkpt lat="55.23425" lon="25.44779">
        <ele>152.997857</ele>
        <time>2020-10-07T11:38:15.120Z</time>
      </trkpt>
      <trkpt lat="55.23426" lon="25.44751">
        <ele>153.510469</ele>
        <time>2020-10-07T11:38:23.442Z</time>
      </trkpt>
      <trkpt lat="55.23438" lon="25.44618">
        <ele>154.968367</ele>
        <time>2020-10-07T11:38:59.119Z</time>
      </trkpt>
      <trkpt lat="55.23442" lon="25.44385">
        <ele>156.416109</ele>
        <time>2020-10-07T11:39:52.601Z</time>
      </trkpt>
      <trkpt lat="55.23446" lon="25.44331">
        <ele>155.982114</ele>
        <time>2020-10-07T11:40:03.524Z</time>
      </trkpt>
      <trkpt lat="55.23448" lon="25.44297">
        <ele>155.71218</ele>
        <time>2020-10-07T11:40:10.020Z</time>
      </trkpt>
      <trkpt lat="55.23451" lon="25.4424">
        <ele>155.26656</ele>
        <time>2020-10-07T11:40:20.562Z</time>
      </trkpt>
      <trkpt lat="55.23451" lon="25.44144">
        <ele>154.507242</ele>
        <time>2020-10-07T11:40:37.877Z</time>
      </trkpt>
      <trkpt lat="55.23451" lon="25.43943">
        <ele>153.0798</ele>
        <time>2020-10-07T11:41:13.933Z</time>
      </trkpt>
      <trkpt lat="55.23452" lon="25.43877">
        <ele>152.640363</ele>
        <time>2020-10-07T11:41:26.064Z</time>
      </trkpt>
      <trkpt lat="55.23486" lon="25.43584">
        <ele>152.804806</ele>
        <time>2020-10-07T11:42:30.502Z</time>
      </trkpt>
      <trkpt lat="55.2349" lon="25.4346">
        <ele>153.468798</ele>
        <time>2020-10-07T11:43:02.693Z</time>
      </trkpt>
      <trkpt lat="55.23488" lon="25.43261">
        <ele>155.25703</ele>
        <time>2020-10-07T11:43:53.672Z</time>
      </trkpt>
      <trkpt lat="55.23482" lon="25.43053">
        <ele>156.943563</ele>
        <time>2020-10-07T11:44:43.488Z</time>
      </trkpt>
      <trkpt lat="55.23475" lon="25.42906">
        <ele>157.882919</ele>
        <time>2020-10-07T11:45:17.623Z</time>
      </trkpt>
      <trkpt lat="55.23466" lon="25.42838">
        <ele>158.323878</ele>
        <time>2020-10-07T11:45:34.328Z</time>
      </trkpt>
      <trkpt lat="55.23471" lon="25.42781">
        <ele>158.744732</ele>
        <time>2020-10-07T11:45:48.342Z</time>
      </trkpt>
      <trkpt lat="55.2347" lon="25.4276">
        <ele>158.910599</ele>
        <time>2020-10-07T11:45:53.800Z</time>
      </trkpt>
      <trkpt lat="55.23472" lon="25.42758">
        <ele>158.938589</ele>
        <time>2020-10-07T11:45:54.365Z</time>
      </trkpt>
      <trkpt lat="55.23471" lon="25.42756">
        <ele>158.956355</ele>
        <time>2020-10-07T11:45:54.724Z</time>
      </trkpt>
      <trkpt lat="55.23463" lon="25.42723">
        <ele>159.242311</ele>
        <time>2020-10-07T11:46:00.521Z</time>
      </trkpt>
      <trkpt lat="55.23454" lon="25.42691">
        <ele>159.520263</ele>
        <time>2020-10-07T11:46:06.397Z</time>
      </trkpt>
      <trkpt lat="55.23439" lon="25.42638">
        <ele>159.974266</ele>
        <time>2020-10-07T11:46:15.840Z</time>
      </trkpt>
      <trkpt lat="55.23412" lon="25.42533">
        <ele>160.877608</ele>
        <time>2020-10-07T11:46:33.894Z</time>
      </trkpt>
      <trkpt lat="55.23402" lon="25.42496">
        <ele>161.012725</ele>
        <time>2020-10-07T11:46:40.006Z</time>
      </trkpt>
      <trkpt lat="55.23389" lon="25.42448">
        <ele>161.167976</ele>
        <time>2020-10-07T11:46:48.073Z</time>
      </trkpt>
      <trkpt lat="55.23384" lon="25.42422">
        <ele>161.249613</ele>
        <time>2020-10-07T11:46:52.252Z</time>
      </trkpt>
      <trkpt lat="55.23382" lon="25.42414">
        <ele>161.276186</ele>
        <time>2020-10-07T11:46:53.587Z</time>
      </trkpt>
      <trkpt lat="55.2338" lon="25.42406">
        <ele>161.300566</ele>
        <time>2020-10-07T11:46:54.824Z</time>
      </trkpt>
      <trkpt lat="55.23376" lon="25.42381">
        <ele>161.375397</ele>
        <time>2020-10-07T11:46:58.748Z</time>
      </trkpt>
      <trkpt lat="55.23374" lon="25.42365">
        <ele>161.426413</ele>
        <time>2020-10-07T11:47:01.302Z</time>
      </trkpt>
      <trkpt lat="55.2337" lon="25.42341">
        <ele>161.496774</ele>
        <time>2020-10-07T11:47:04.746Z</time>
      </trkpt>
      <trkpt lat="55.23368" lon="25.42326">
        <ele>161.54318</ele>
        <time>2020-10-07T11:47:07.007Z</time>
      </trkpt>
      <trkpt lat="55.23366" lon="25.42315">
        <ele>161.577734</ele>
        <time>2020-10-07T11:47:08.598Z</time>
      </trkpt>
      <trkpt lat="55.23363" lon="25.42304">
        <ele>161.612294</ele>
        <time>2020-10-07T11:47:10.068Z</time>
      </trkpt>
      <trkpt lat="55.2336" lon="25.42293">
        <ele>161.648201</ele>
        <time>2020-10-07T11:47:11.610Z</time>
      </trkpt>
      <trkpt lat="55.23351" lon="25.42268">
        <ele>161.733519</ele>
        <time>2020-10-07T11:47:15.145Z</time>
      </trkpt>
      <trkpt lat="55.23349" lon="25.42262">
        <ele>161.755969</ele>
        <time>2020-10-07T11:47:16.047Z</time>
      </trkpt>
      <trkpt lat="55.23342" lon="25.42245">
        <ele>161.81746</ele>
        <time>2020-10-07T11:47:18.385Z</time>
      </trkpt>
      <trkpt lat="55.23339" lon="25.42236">
        <ele>161.797603</ele>
        <time>2020-10-07T11:47:19.530Z</time>
      </trkpt>
      <trkpt lat="55.23336" lon="25.42229">
        <ele>161.755225</ele>
        <time>2020-10-07T11:47:20.542Z</time>
      </trkpt>
      <trkpt lat="55.2333" lon="25.42212">
        <ele>161.66102</ele>
        <time>2020-10-07T11:47:22.808Z</time>
      </trkpt>
      <trkpt lat="55.23321" lon="25.42194">
        <ele>161.545139</ele>
        <time>2020-10-07T11:47:25.450Z</time>
      </trkpt>
      <trkpt lat="55.23316" lon="25.42184">
        <ele>161.485135</ele>
        <time>2020-10-07T11:47:26.845Z</time>
      </trkpt>
      <trkpt lat="55.23314" lon="25.4218">
        <ele>161.456568</ele>
        <time>2020-10-07T11:47:27.516Z</time>
      </trkpt>
      <trkpt lat="55.23302" lon="25.42156">
        <ele>161.309251</ele>
        <time>2020-10-07T11:47:30.914Z</time>
      </trkpt>
      <trkpt lat="55.23295" lon="25.42143">
        <ele>161.224834</ele>
        <time>2020-10-07T11:47:32.858Z</time>
      </trkpt>
      <trkpt lat="55.23281" lon="25.42119">
        <ele>161.063434</ele>
        <time>2020-10-07T11:47:36.658Z</time>
      </trkpt>
      <trkpt lat="55.23274" lon="25.42105">
        <ele>160.973654</ele>
        <time>2020-10-07T11:47:38.706Z</time>
      </trkpt>
      <trkpt lat="55.23266" lon="25.42091">
        <ele>160.88136</ele>
        <time>2020-10-07T11:47:40.877Z</time>
      </trkpt>
      <trkpt lat="55.23253" lon="25.42068">
        <ele>160.730008</ele>
        <time>2020-10-07T11:47:44.539Z</time>
      </trkpt>
      <trkpt lat="55.23247" lon="25.42057">
        <ele>160.658135</ele>
        <time>2020-10-07T11:47:46.279Z</time>
      </trkpt>
      <trkpt lat="55.23233" lon="25.42029">
        <ele>160.479119</ele>
        <time>2020-10-07T11:47:50.675Z</time>
      </trkpt>
      <trkpt lat="55.23228" lon="25.4202">
        <ele>160.421426</ele>
        <time>2020-10-07T11:47:52.040Z</time>
      </trkpt>
      <trkpt lat="55.23216" lon="25.41998">
        <ele>160.282883</ele>
        <time>2020-10-07T11:47:55.468Z</time>
      </trkpt>
      <trkpt lat="55.2321" lon="25.41985">
        <ele>160.210235</ele>
        <time>2020-10-07T11:47:57.387Z</time>
      </trkpt>
      <trkpt lat="55.23203" lon="25.41972">
        <ele>160.128537</ele>
        <time>2020-10-07T11:47:59.456Z</time>
      </trkpt>
      <trkpt lat="55.23194" lon="25.41954">
        <ele>160.02183</ele>
        <time>2020-10-07T11:48:02.162Z</time>
      </trkpt>
      <trkpt lat="55.2317" lon="25.41909">
        <ele>159.75594</ele>
        <time>2020-10-07T11:48:08.829Z</time>
      </trkpt>
      <trkpt lat="55.23166" lon="25.41901">
        <ele>159.709421</ele>
        <time>2020-10-07T11:48:10.002Z</time>
      </trkpt>
      <trkpt lat="55.23165" lon="25.41899">
        <ele>159.696917</ele>
        <time>2020-10-07T11:48:10.336Z</time>
      </trkpt>
      <trkpt lat="55.23163" lon="25.41895">
        <ele>159.671909</ele>
        <time>2020-10-07T11:48:11.000Z</time>
      </trkpt>
      <trkpt lat="55.23147" lon="25.41864">
        <ele>159.48953</ele>
        <time>2020-10-07T11:48:15.773Z</time>
      </trkpt>
      <trkpt lat="55.23145" lon="25.4186">
        <ele>159.463995</ele>
        <time>2020-10-07T11:48:16.426Z</time>
      </trkpt>
      <trkpt lat="55.23142" lon="25.41855">
        <ele>159.433156</ele>
        <time>2020-10-07T11:48:17.261Z</time>
      </trkpt>
      <trkpt lat="55.23135" lon="25.41841">
        <ele>159.352622</ele>
        <time>2020-10-07T11:48:19.493Z</time>
      </trkpt>
      <trkpt lat="55.23129" lon="25.4183">
        <ele>159.286925</ele>
        <time>2020-10-07T11:48:21.258Z</time>
      </trkpt>
      <trkpt lat="55.23125" lon="25.41822">
        <ele>159.240407</ele>
        <time>2020-10-07T11:48:22.496Z</time>
      </trkpt>
      <trkpt lat="55.23117" lon="25.41807">
        <ele>159.150867</ele>
        <time>2020-10-07T11:48:24.858Z</time>
      </trkpt>
      <trkpt lat="55.23112" lon="25.41797">
        <ele>159.089377</ele>
        <time>2020-10-07T11:48:26.547Z</time>
      </trkpt>
      <trkpt lat="55.2311" lon="25.41793">
        <ele>159.071212</ele>
        <time>2020-10-07T11:48:27.076Z</time>
      </trkpt>
      <trkpt lat="55.23105" lon="25.41782">
        <ele>159.004897</ele>
        <time>2020-10-07T11:48:28.815Z</time>
      </trkpt>
      <trkpt lat="55.231" lon="25.41772">
        <ele>158.933757</ele>
        <time>2020-10-07T11:48:30.300Z</time>
      </trkpt>
      <trkpt lat="55.2309" lon="25.41749">
        <ele>158.593598</ele>
        <time>2020-10-07T11:48:33.554Z</time>
      </trkpt>
      <trkpt lat="55.23089" lon="25.41748">
        <ele>158.569188</ele>
        <time>2020-10-07T11:48:33.790Z</time>
      </trkpt>
      <trkpt lat="55.23061" lon="25.41688">
        <ele>157.644937</ele>
        <time>2020-10-07T11:48:42.226Z</time>
      </trkpt>
      <trkpt lat="55.23056" lon="25.41674">
        <ele>157.451718</ele>
        <time>2020-10-07T11:48:43.879Z</time>
      </trkpt>
      <trkpt lat="55.23045" lon="25.41641">
        <ele>156.997193</ele>
        <time>2020-10-07T11:48:47.779Z</time>
      </trkpt>
      <trkpt lat="55.23032" lon="25.41606">
        <ele>156.500284</ele>
        <time>2020-10-07T11:48:51.857Z</time>
      </trkpt>
      <trkpt lat="55.23027" lon="25.41591">
        <ele>156.291559</ele>
        <time>2020-10-07T11:48:53.587Z</time>
      </trkpt>
      <trkpt lat="55.23019" lon="25.41569">
        <ele>155.982644</ele>
        <time>2020-10-07T11:48:56.034Z</time>
      </trkpt>
      <trkpt lat="55.23013" lon="25.41551">
        <ele>155.730604</ele>
        <time>2020-10-07T11:48:58.028Z</time>
      </trkpt>
      <trkpt lat="55.23003" lon="25.41523">
        <ele>155.344247</ele>
        <time>2020-10-07T11:49:01.059Z</time>
      </trkpt>
      <trkpt lat="55.23002" lon="25.41519">
        <ele>155.296721</ele>
        <time>2020-10-07T11:49:01.425Z</time>
      </trkpt>
      <trkpt lat="55.22999" lon="25.41512">
        <ele>155.186483</ele>
        <time>2020-10-07T11:49:02.233Z</time>
      </trkpt>
      <trkpt lat="55.22985" lon="25.41471">
        <ele>154.46626</ele>
        <time>2020-10-07T11:49:06.634Z</time>
      </trkpt>
      <trkpt lat="55.22977" lon="25.41449">
        <ele>154.095746</ele>
        <time>2020-10-07T11:49:08.865Z</time>
      </trkpt>
      <trkpt lat="55.22973" lon="25.41437">
        <ele>153.882042</ele>
        <time>2020-10-07T11:49:10.148Z</time>
      </trkpt>
      <trkpt lat="55.22973" lon="25.41436">
        <ele>153.86777</ele>
        <time>2020-10-07T11:49:10.235Z</time>
      </trkpt>
      <trkpt lat="55.22962" lon="25.41404">
        <ele>153.310725</ele>
        <time>2020-10-07T11:49:13.566Z</time>
      </trkpt>
      <trkpt lat="55.22959" lon="25.41396">
        <ele>153.163076</ele>
        <time>2020-10-07T11:49:14.453Z</time>
      </trkpt>
      <trkpt lat="55.22953" lon="25.41379">
        <ele>152.87429</ele>
        <time>2020-10-07T11:49:16.255Z</time>
      </trkpt>
      <trkpt lat="55.22952" lon="25.41374">
        <ele>152.784943</ele>
        <time>2020-10-07T11:49:16.818Z</time>
      </trkpt>
      <trkpt lat="55.22947" lon="25.41361">
        <ele>152.566101</ele>
        <time>2020-10-07T11:49:18.187Z</time>
      </trkpt>
      <trkpt lat="55.22938" lon="25.41337">
        <ele>152.135432</ele>
        <time>2020-10-07T11:49:20.949Z</time>
      </trkpt>
      <trkpt lat="55.22934" lon="25.41326">
        <ele>151.938295</ele>
        <time>2020-10-07T11:49:22.295Z</time>
      </trkpt>
      <trkpt lat="55.22932" lon="25.4132">
        <ele>151.830527</ele>
        <time>2020-10-07T11:49:23.019Z</time>
      </trkpt>
      <trkpt lat="55.22929" lon="25.41311">
        <ele>151.67353</ele>
        <time>2020-10-07T11:49:24.080Z</time>
      </trkpt>
      <trkpt lat="55.22926" lon="25.41304">
        <ele>151.542576</ele>
        <time>2020-10-07T11:49:24.985Z</time>
      </trkpt>
      <trkpt lat="55.22914" lon="25.41271">
        <ele>150.95223</ele>
        <time>2020-10-07T11:49:29.209Z</time>
      </trkpt>
      <trkpt lat="55.2291" lon="25.41261">
        <ele>150.783635</ele>
        <time>2020-10-07T11:49:30.463Z</time>
      </trkpt>
      <trkpt lat="55.22909" lon="25.41258">
        <ele>150.723848</ele>
        <time>2020-10-07T11:49:30.857Z</time>
      </trkpt>
      <trkpt lat="55.229" lon="25.41242">
        <ele>150.526982</ele>
        <time>2020-10-07T11:49:33.251Z</time>
      </trkpt>
      <trkpt lat="55.22888" lon="25.41221">
        <ele>150.628877</ele>
        <time>2020-10-07T11:49:36.798Z</time>
      </trkpt>
      <trkpt lat="55.22873" lon="25.41193">
        <ele>150.759969</ele>
        <time>2020-10-07T11:49:41.387Z</time>
      </trkpt>
      <trkpt lat="55.22868" lon="25.41184">
        <ele>150.804797</ele>
        <time>2020-10-07T11:49:43.234Z</time>
      </trkpt>
      <trkpt lat="55.22864" lon="25.41176">
        <ele>150.844247</ele>
        <time>2020-10-07T11:49:44.816Z</time>
      </trkpt>
      <trkpt lat="55.22857" lon="25.41164">
        <ele>150.900239</ele>
        <time>2020-10-07T11:49:46.975Z</time>
      </trkpt>
      <trkpt lat="55.22848" lon="25.41146">
        <ele>150.982695</ele>
        <time>2020-10-07T11:49:50.313Z</time>
      </trkpt>
      <trkpt lat="55.22826" lon="25.41106">
        <ele>151.172504</ele>
        <time>2020-10-07T11:49:58.411Z</time>
      </trkpt>
      <trkpt lat="55.22821" lon="25.41097">
        <ele>151.215097</ele>
        <time>2020-10-07T11:50:00.315Z</time>
      </trkpt>
      <trkpt lat="55.22816" lon="25.41088">
        <ele>151.259262</ele>
        <time>2020-10-07T11:50:02.348Z</time>
      </trkpt>
      <trkpt lat="55.22751" lon="25.40969">
        <ele>152.127909</ele>
        <time>2020-10-07T11:50:30.104Z</time>
      </trkpt>
      <trkpt lat="55.22746" lon="25.40962">
        <ele>152.203174</ele>
        <time>2020-10-07T11:50:31.824Z</time>
      </trkpt>
      <trkpt lat="55.22739" lon="25.4095">
        <ele>152.335919</ele>
        <time>2020-10-07T11:50:34.705Z</time>
      </trkpt>
      <trkpt lat="55.22733" lon="25.4094">
        <ele>152.458469</ele>
        <time>2020-10-07T11:50:37.328Z</time>
      </trkpt>
      <trkpt lat="55.22691" lon="25.40874">
        <ele>153.212591</ele>
        <time>2020-10-07T11:50:52.513Z</time>
      </trkpt>
      <trkpt lat="55.22683" lon="25.40863">
        <ele>153.348994</ele>
        <time>2020-10-07T11:50:55.023Z</time>
      </trkpt>
      <trkpt lat="55.22665" lon="25.40841">
        <ele>153.64463</ele>
        <time>2020-10-07T11:51:01.025Z</time>
      </trkpt>
      <trkpt lat="55.22643" lon="25.40813">
        <ele>154.014432</ele>
        <time>2020-10-07T11:51:08.156Z</time>
      </trkpt>
      <trkpt lat="55.22639" lon="25.40808">
        <ele>154.075069</ele>
        <time>2020-10-07T11:51:09.487Z</time>
      </trkpt>
      <trkpt lat="55.22613" lon="25.40781">
        <ele>154.443453</ele>
        <time>2020-10-07T11:51:17.164Z</time>
      </trkpt>
      <trkpt lat="55.22604" lon="25.40771">
        <ele>154.582889</ele>
        <time>2020-10-07T11:51:20.083Z</time>
      </trkpt>
      <trkpt lat="55.22605" lon="25.40764">
        <ele>154.637377</ele>
        <time>2020-10-07T11:51:21.201Z</time>
      </trkpt>
      <trkpt lat="55.22602" lon="25.40743">
        <ele>154.793842</ele>
        <time>2020-10-07T11:51:24.471Z</time>
      </trkpt>
      <trkpt lat="55.22598" lon="25.40738">
        <ele>154.848039</ele>
        <time>2020-10-07T11:51:25.788Z</time>
      </trkpt>
      <trkpt lat="55.22594" lon="25.40737">
        <ele>154.898816</ele>
        <time>2020-10-07T11:51:26.978Z</time>
      </trkpt>
      <trkpt lat="55.22583" lon="25.40745">
        <ele>155.046061</ele>
        <time>2020-10-07T11:51:30.223Z</time>
      </trkpt>
      <trkpt lat="55.22581" lon="25.40751">
        <ele>155.096625</ele>
        <time>2020-10-07T11:51:31.292Z</time>
      </trkpt>
      <trkpt lat="55.22575" lon="25.40746">
        <ele>155.187087</ele>
        <time>2020-10-07T11:51:33.153Z</time>
      </trkpt>
      <trkpt lat="55.22566" lon="25.40739">
        <ele>155.301444</ele>
        <time>2020-10-07T11:51:35.933Z</time>
      </trkpt>
      <trkpt lat="55.225" lon="25.40684">
        <ele>156.201206</ele>
        <time>2020-10-07T11:51:56.428Z</time>
      </trkpt>
      <trkpt lat="55.22482" lon="25.40669">
        <ele>156.497776</ele>
        <time>2020-10-07T11:52:01.773Z</time>
      </trkpt>
      <trkpt lat="55.22473" lon="25.40662">
        <ele>156.645676</ele>
        <time>2020-10-07T11:52:04.403Z</time>
      </trkpt>
      <trkpt lat="55.22467" lon="25.40687">
        <ele>156.88268</ele>
        <time>2020-10-07T11:52:08.867Z</time>
      </trkpt>
      <trkpt lat="55.22323" lon="25.40578">
        <ele>159.134943</ele>
        <time>2020-10-07T11:52:55.124Z</time>
      </trkpt>
      <trkpt lat="55.22307" lon="25.40565">
        <ele>159.281005</ele>
        <time>2020-10-07T11:53:00.426Z</time>
      </trkpt>
      <trkpt lat="55.22282" lon="25.40546">
        <ele>159.508741</ele>
        <time>2020-10-07T11:53:08.415Z</time>
      </trkpt>
      <trkpt lat="55.22264" lon="25.40533">
        <ele>159.666771</ele>
        <time>2020-10-07T11:53:13.757Z</time>
      </trkpt>
      <trkpt lat="55.22198" lon="25.40483">
        <ele>160.260333</ele>
        <time>2020-10-07T11:53:32.345Z</time>
      </trkpt>
      <trkpt lat="55.22173" lon="25.40467">
        <ele>160.426562</ele>
        <time>2020-10-07T11:53:38.679Z</time>
      </trkpt>
      <trkpt lat="55.22162" lon="25.40459">
        <ele>160.294688</ele>
        <time>2020-10-07T11:53:41.494Z</time>
      </trkpt>
      <trkpt lat="55.22056" lon="25.4041">
        <ele>159.10787</ele>
        <time>2020-10-07T11:54:03.503Z</time>
      </trkpt>
      <trkpt lat="55.21982" lon="25.40379">
        <ele>158.187708</ele>
        <time>2020-10-07T11:54:17.630Z</time>
      </trkpt>
      <trkpt lat="55.21865" lon="25.40332">
        <ele>156.342183</ele>
        <time>2020-10-07T11:54:40.316Z</time>
      </trkpt>
      <trkpt lat="55.21854" lon="25.40326">
        <ele>156.163864</ele>
        <time>2020-10-07T11:54:42.548Z</time>
      </trkpt>
      <trkpt lat="55.21849" lon="25.40338">
        <ele>156.035343</ele>
        <time>2020-10-07T11:54:44.296Z</time>
      </trkpt>
      <trkpt lat="55.2184" lon="25.40338">
        <ele>155.904857</ele>
        <time>2020-10-07T11:54:46.045Z</time>
      </trkpt>
      <trkpt lat="55.2179" lon="25.40317">
        <ele>155.569594</ele>
        <time>2020-10-07T11:54:56.776Z</time>
      </trkpt>
      <trkpt lat="55.21787" lon="25.40309">
        <ele>155.546165</ele>
        <time>2020-10-07T11:54:57.928Z</time>
      </trkpt>
      <trkpt lat="55.21792" lon="25.40292">
        <ele>155.499238</ele>
        <time>2020-10-07T11:55:00.415Z</time>
      </trkpt>
      <trkpt lat="55.21795" lon="25.4028">
        <ele>155.466161</ele>
        <time>2020-10-07T11:55:01.980Z</time>
      </trkpt>
      <trkpt lat="55.21794" lon="25.40267">
        <ele>155.435163</ele>
        <time>2020-10-07T11:55:03.599Z</time>
      </trkpt>
      <trkpt lat="55.21748" lon="25.40249">
        <ele>155.237631</ele>
        <time>2020-10-07T11:55:13.641Z</time>
      </trkpt>
      <trkpt lat="55.21724" lon="25.40237">
        <ele>155.12919</ele>
        <time>2020-10-07T11:55:19.462Z</time>
      </trkpt>
      <trkpt lat="55.21642" lon="25.40188">
        <ele>155.245556</ele>
        <time>2020-10-07T11:55:40.126Z</time>
      </trkpt>
      <trkpt lat="55.21605" lon="25.40155">
        <ele>155.454819</ele>
        <time>2020-10-07T11:55:50.403Z</time>
      </trkpt>
      <trkpt lat="55.21529" lon="25.40069">
        <ele>155.906238</ele>
        <time>2020-10-07T11:56:14.335Z</time>
      </trkpt>
      <trkpt lat="55.21524" lon="25.40063">
        <ele>155.915066</ele>
        <time>2020-10-07T11:56:15.782Z</time>
      </trkpt>
      <trkpt lat="55.2152" lon="25.4006">
        <ele>155.922079</ele>
        <time>2020-10-07T11:56:17.049Z</time>
      </trkpt>
      <trkpt lat="55.21495" lon="25.40024">
        <ele>155.974113</ele>
        <time>2020-10-07T11:56:25.453Z</time>
      </trkpt>
      <trkpt lat="55.21493" lon="25.39993">
        <ele>156.002587</ele>
        <time>2020-10-07T11:56:29.937Z</time>
      </trkpt>
      <trkpt lat="55.21486" lon="25.39986">
        <ele>156.01551</ele>
        <time>2020-10-07T11:56:32.088Z</time>
      </trkpt>
      <trkpt lat="55.21481" lon="25.39984">
        <ele>156.024243</ele>
        <time>2020-10-07T11:56:33.688Z</time>
      </trkpt>
      <trkpt lat="55.21471" lon="25.39998">
        <ele>156.044343</ele>
        <time>2020-10-07T11:56:36.893Z</time>
      </trkpt>
      <trkpt lat="55.21459" lon="25.3999">
        <ele>156.065863</ele>
        <time>2020-10-07T11:56:40.161Z</time>
      </trkpt>
      <trkpt lat="55.2136" lon="25.39882">
        <ele>155.475994</ele>
        <time>2020-10-07T11:57:05.206Z</time>
      </trkpt>
      <trkpt lat="55.21313" lon="25.39822">
        <ele>154.411562</ele>
        <time>2020-10-07T11:57:16.531Z</time>
      </trkpt>
      <trkpt lat="55.21301" lon="25.3981">
        <ele>154.160224</ele>
        <time>2020-10-07T11:57:18.895Z</time>
      </trkpt>
      <trkpt lat="55.21185" lon="25.39626">
        <ele>151.333908</ele>
        <time>2020-10-07T11:57:46.381Z</time>
      </trkpt>
      <trkpt lat="55.21155" lon="25.39595">
        <ele>150.697763</ele>
        <time>2020-10-07T11:57:52.977Z</time>
      </trkpt>
      <trkpt lat="55.21136" lon="25.39588">
        <ele>150.351348</ele>
        <time>2020-10-07T11:57:56.828Z</time>
      </trkpt>
      <trkpt lat="55.21135" lon="25.39583">
        <ele>150.29397</ele>
        <time>2020-10-07T11:57:57.397Z</time>
      </trkpt>
      <trkpt lat="55.21133" lon="25.39577">
        <ele>150.22579</ele>
        <time>2020-10-07T11:57:58.062Z</time>
      </trkpt>
      <trkpt lat="55.21124" lon="25.39577">
        <ele>150.059552</ele>
        <time>2020-10-07T11:57:59.943Z</time>
      </trkpt>
      <trkpt lat="55.21116" lon="25.39588">
        <ele>149.868516</ele>
        <time>2020-10-07T11:58:02.138Z</time>
      </trkpt>
      <trkpt lat="55.21047" lon="25.39609">
        <ele>150.266456</ele>
        <time>2020-10-07T11:58:18.962Z</time>
      </trkpt>
      <trkpt lat="55.21009" lon="25.39617">
        <ele>150.645409</ele>
        <time>2020-10-07T11:58:30.074Z</time>
      </trkpt>
      <trkpt lat="55.20944" lon="25.39618">
        <ele>151.289794</ele>
        <time>2020-10-07T11:58:48.071Z</time>
      </trkpt>
      <trkpt lat="55.20942" lon="25.39618">
        <ele>151.310714</ele>
        <time>2020-10-07T11:58:49.266Z</time>
      </trkpt>
      <trkpt lat="55.20937" lon="25.3962">
        <ele>151.362943</ele>
        <time>2020-10-07T11:58:51.460Z</time>
      </trkpt>
      <trkpt lat="55.20894" lon="25.39625">
        <ele>151.887272</ele>
        <time>2020-10-07T11:59:04.702Z</time>
      </trkpt>
      <trkpt lat="55.20867" lon="25.39628">
        <ele>152.244909</ele>
        <time>2020-10-07T11:59:13.885Z</time>
      </trkpt>
      <trkpt lat="55.20836" lon="25.39634">
        <ele>152.642258</ele>
        <time>2020-10-07T11:59:22.475Z</time>
      </trkpt>
      <trkpt lat="55.20555" lon="25.39758">
        <ele>155.132611</ele>
        <time>2020-10-07T12:00:38.781Z</time>
      </trkpt>
      <trkpt lat="55.20551" lon="25.39757">
        <ele>155.138762</ele>
        <time>2020-10-07T12:00:39.927Z</time>
      </trkpt>
      <trkpt lat="55.20546" lon="25.39762">
        <ele>155.148864</ele>
        <time>2020-10-07T12:00:41.027Z</time>
      </trkpt>
      <trkpt lat="55.20446" lon="25.39811">
        <ele>155.32516</ele>
        <time>2020-10-07T12:01:04.881Z</time>
      </trkpt>
      <trkpt lat="55.20401" lon="25.39826">
        <ele>155.402922</ele>
        <time>2020-10-07T12:01:15.223Z</time>
      </trkpt>
      <trkpt lat="55.20393" lon="25.39821">
        <ele>155.535566</ele>
        <time>2020-10-07T12:01:17.403Z</time>
      </trkpt>
      <trkpt lat="55.20387" lon="25.39807">
        <ele>155.677638</ele>
        <time>2020-10-07T12:01:19.927Z</time>
      </trkpt>
      <trkpt lat="55.20383" lon="25.39823">
        <ele>155.824898</ele>
        <time>2020-10-07T12:01:23.823Z</time>
      </trkpt>
      <trkpt lat="55.20385" lon="25.39832">
        <ele>155.911122</ele>
        <time>2020-10-07T12:01:25.205Z</time>
      </trkpt>
      <trkpt lat="55.20385" lon="25.39845">
        <ele>156.012864</ele>
        <time>2020-10-07T12:01:26.845Z</time>
      </trkpt>
      <trkpt lat="55.2036" lon="25.39852">
        <ele>156.396448</ele>
        <time>2020-10-07T12:01:33.757Z</time>
      </trkpt>
      <trkpt lat="55.20242" lon="25.39868">
        <ele>158.2035</ele>
        <time>2020-10-07T12:02:08.966Z</time>
      </trkpt>
      <trkpt lat="55.20121" lon="25.39878">
        <ele>161.742119</ele>
        <time>2020-10-07T12:02:50.955Z</time>
      </trkpt>
      <trkpt lat="55.20056" lon="25.39884">
        <ele>163.563664</ele>
        <time>2020-10-07T12:03:13.458Z</time>
      </trkpt>
      <trkpt lat="55.19918" lon="25.39893">
        <ele>166.997444</ele>
        <time>2020-10-07T12:03:59.522Z</time>
      </trkpt>
      <trkpt lat="55.19714" lon="25.39909">
        <ele>169.598189</ele>
        <time>2020-10-07T12:04:55.494Z</time>
      </trkpt>
      <trkpt lat="55.19687" lon="25.39911">
        <ele>169.45417</ele>
        <time>2020-10-07T12:05:01.083Z</time>
      </trkpt>
      <trkpt lat="55.19666" lon="25.39911">
        <ele>169.250937</ele>
        <time>2020-10-07T12:05:05.317Z</time>
      </trkpt>
      <trkpt lat="55.19571" lon="25.39913">
        <ele>168.344042</ele>
        <time>2020-10-07T12:05:22.938Z</time>
      </trkpt>
      <trkpt lat="55.19433" lon="25.39902">
        <ele>167.099375</ele>
        <time>2020-10-07T12:05:48.302Z</time>
      </trkpt>
      <trkpt lat="55.19379" lon="25.39886">
        <ele>166.612668</ele>
        <time>2020-10-07T12:05:59.759Z</time>
      </trkpt>
      <trkpt lat="55.19268" lon="25.39828">
        <ele>166.882126</ele>
        <time>2020-10-07T12:06:26.528Z</time>
      </trkpt>
      <trkpt lat="55.19178" lon="25.39764">
        <ele>167.463135</ele>
        <time>2020-10-07T12:06:52.192Z</time>
      </trkpt>
      <trkpt lat="55.19153" lon="25.39746">
        <ele>167.608484</ele>
        <time>2020-10-07T12:06:59.543Z</time>
      </trkpt>
      <trkpt lat="55.19071" lon="25.39677">
        <ele>168.090864</ele>
        <time>2020-10-07T12:07:22.551Z</time>
      </trkpt>
      <trkpt lat="55.18998" lon="25.39617">
        <ele>168.164851</ele>
        <time>2020-10-07T12:07:40.810Z</time>
      </trkpt>
      <trkpt lat="55.18992" lon="25.39611">
        <ele>168.092158</ele>
        <time>2020-10-07T12:07:42.177Z</time>
      </trkpt>
      <trkpt lat="55.18616" lon="25.3934">
        <ele>162.838102</ele>
        <time>2020-10-07T12:08:57.910Z</time>
      </trkpt>
      <trkpt lat="55.18565" lon="25.39306">
        <ele>161.97061</ele>
        <time>2020-10-07T12:09:07.678Z</time>
      </trkpt>
      <trkpt lat="55.18536" lon="25.39286">
        <ele>161.471493</ele>
        <time>2020-10-07T12:09:13.295Z</time>
      </trkpt>
      <trkpt lat="55.18519" lon="25.39276">
        <ele>161.192686</ele>
        <time>2020-10-07T12:09:16.407Z</time>
      </trkpt>
      <trkpt lat="55.18511" lon="25.39271">
        <ele>161.045304</ele>
        <time>2020-10-07T12:09:17.944Z</time>
      </trkpt>
      <trkpt lat="55.18483" lon="25.39255">
        <ele>160.51988</ele>
        <time>2020-10-07T12:09:23.331Z</time>
      </trkpt>
      <trkpt lat="55.18285" lon="25.39197">
        <ele>157.206269</ele>
        <time>2020-10-07T12:09:59.540Z</time>
      </trkpt>
      <trkpt lat="55.18219" lon="25.39179">
        <ele>156.271581</ele>
        <time>2020-10-07T12:10:11.825Z</time>
      </trkpt>
      <trkpt lat="55.18214" lon="25.39178">
        <ele>156.202897</ele>
        <time>2020-10-07T12:10:12.625Z</time>
      </trkpt>
      <trkpt lat="55.18173" lon="25.39155">
        <ele>155.593885</ele>
        <time>2020-10-07T12:10:20.920Z</time>
      </trkpt>
      <trkpt lat="55.18156" lon="25.39139">
        <ele>155.418471</ele>
        <time>2020-10-07T12:10:24.658Z</time>
      </trkpt>
      <trkpt lat="55.18143" lon="25.39123">
        <ele>155.312798</ele>
        <time>2020-10-07T12:10:27.708Z</time>
      </trkpt>
      <trkpt lat="55.18114" lon="25.39076">
        <ele>155.047667</ele>
        <time>2020-10-07T12:10:35.536Z</time>
      </trkpt>
      <trkpt lat="55.18078" lon="25.39007">
        <ele>154.691855</ele>
        <time>2020-10-07T12:10:46.043Z</time>
      </trkpt>
      <trkpt lat="55.18024" lon="25.38901">
        <ele>154.275384</ele>
        <time>2020-10-07T12:11:03.537Z</time>
      </trkpt>
      <trkpt lat="55.17996" lon="25.38852">
        <ele>154.231021</ele>
        <time>2020-10-07T12:11:12.189Z</time>
      </trkpt>
      <trkpt lat="55.17976" lon="25.38812">
        <ele>154.196698</ele>
        <time>2020-10-07T12:11:18.822Z</time>
      </trkpt>
      <trkpt lat="55.17861" lon="25.3859">
        <ele>154.409083</ele>
        <time>2020-10-07T12:11:56.550Z</time>
      </trkpt>
      <trkpt lat="55.17846" lon="25.3856">
        <ele>154.49291</ele>
        <time>2020-10-07T12:12:02.007Z</time>
      </trkpt>
      <trkpt lat="55.17805" lon="25.38498">
        <ele>154.691316</ele>
        <time>2020-10-07T12:12:15.745Z</time>
      </trkpt>
      <trkpt lat="55.17787" lon="25.38481">
        <ele>154.775447</ele>
        <time>2020-10-07T12:12:20.838Z</time>
      </trkpt>
      <trkpt lat="55.1775" lon="25.38459">
        <ele>155.175546</ele>
        <time>2020-10-07T12:12:31.103Z</time>
      </trkpt>
      <trkpt lat="55.17726" lon="25.38456">
        <ele>155.421797</ele>
        <time>2020-10-07T12:12:37.587Z</time>
      </trkpt>
      <trkpt lat="55.17715" lon="25.38459">
        <ele>155.535301</ele>
        <time>2020-10-07T12:12:40.541Z</time>
      </trkpt>
      <trkpt lat="55.177" lon="25.38466">
        <ele>155.688439</ele>
        <time>2020-10-07T12:12:44.697Z</time>
      </trkpt>
      <trkpt lat="55.1766" lon="25.38516">
        <ele>156.195265</ele>
        <time>2020-10-07T12:12:57.981Z</time>
      </trkpt>
      <trkpt lat="55.17609" lon="25.38662">
        <ele>157.019781</ele>
        <time>2020-10-07T12:13:23.737Z</time>
      </trkpt>
      <trkpt lat="55.1759" lon="25.38701">
        <ele>157.229093</ele>
        <time>2020-10-07T12:13:30.786Z</time>
      </trkpt>
      <trkpt lat="55.17577" lon="25.38725">
        <ele>157.36886</ele>
        <time>2020-10-07T12:13:35.635Z</time>
      </trkpt>
      <trkpt lat="55.17563" lon="25.38744">
        <ele>157.500847</ele>
        <time>2020-10-07T12:13:39.904Z</time>
      </trkpt>
      <trkpt lat="55.17511" lon="25.38789">
        <ele>157.924416</ele>
        <time>2020-10-07T12:13:54.013Z</time>
      </trkpt>
      <trkpt lat="55.17383" lon="25.38855">
        <ele>158.967102</ele>
        <time>2020-10-07T12:14:26.958Z</time>
      </trkpt>
      <trkpt lat="55.17342" lon="25.38867">
        <ele>159.291203</ele>
        <time>2020-10-07T12:14:38.194Z</time>
      </trkpt>
      <trkpt lat="55.17289" lon="25.38866">
        <ele>159.98862</ele>
        <time>2020-10-07T12:14:52.894Z</time>
      </trkpt>
      <trkpt lat="55.17272" lon="25.38864">
        <ele>160.224694</ele>
        <time>2020-10-07T12:14:57.960Z</time>
      </trkpt>
      <trkpt lat="55.17244" lon="25.38861">
        <ele>160.599376</ele>
        <time>2020-10-07T12:15:06.014Z</time>
      </trkpt>
      <trkpt lat="55.16976" lon="25.38814">
        <ele>163.536697</ele>
        <time>2020-10-07T12:16:19.006Z</time>
      </trkpt>
      <trkpt lat="55.16969" lon="25.38812">
        <ele>163.50661</ele>
        <time>2020-10-07T12:16:20.577Z</time>
      </trkpt>
      <trkpt lat="55.16893" lon="25.38795">
        <ele>163.197187</ele>
        <time>2020-10-07T12:16:36.279Z</time>
      </trkpt>
      <trkpt lat="55.1678" lon="25.3874">
        <ele>162.79845</ele>
        <time>2020-10-07T12:16:59.227Z</time>
      </trkpt>
      <trkpt lat="55.16522" lon="25.38558">
        <ele>162.982355</ele>
        <time>2020-10-07T12:18:02.074Z</time>
      </trkpt>
      <trkpt lat="55.16494" lon="25.3854">
        <ele>163.070998</ele>
        <time>2020-10-07T12:18:09.448Z</time>
      </trkpt>
      <trkpt lat="55.16456" lon="25.38516">
        <ele>163.278656</ele>
        <time>2020-10-07T12:18:19.754Z</time>
      </trkpt>
      <trkpt lat="55.16414" lon="25.38504">
        <ele>163.650963</ele>
        <time>2020-10-07T12:18:30.909Z</time>
      </trkpt>
      <trkpt lat="55.16374" lon="25.38508">
        <ele>163.99074</ele>
        <time>2020-10-07T12:18:41.260Z</time>
      </trkpt>
      <trkpt lat="55.16242" lon="25.38559">
        <ele>164.890253</ele>
        <time>2020-10-07T12:19:16.100Z</time>
      </trkpt>
      <trkpt lat="55.16177" lon="25.38583">
        <ele>165.125532</ele>
        <time>2020-10-07T12:19:31.360Z</time>
      </trkpt>
      <trkpt lat="55.16043" lon="25.3863">
        <ele>165.501684</ele>
        <time>2020-10-07T12:20:02.363Z</time>
      </trkpt>
      <trkpt lat="55.16021" lon="25.38636">
        <ele>165.548324</ele>
        <time>2020-10-07T12:20:07.244Z</time>
      </trkpt>
      <trkpt lat="55.16014" lon="25.38638">
        <ele>165.562669</ele>
        <time>2020-10-07T12:20:09.000Z</time>
      </trkpt>
      <trkpt lat="55.15982" lon="25.38641">
        <ele>165.628486</ele>
        <time>2020-10-07T12:20:16.180Z</time>
      </trkpt>
      <trkpt lat="55.15838" lon="25.38626">
        <ele>166.046968</ele>
        <time>2020-10-07T12:20:51.166Z</time>
      </trkpt>
      <trkpt lat="55.15755" lon="25.38651">
        <ele>166.316533</ele>
        <time>2020-10-07T12:21:10.418Z</time>
      </trkpt>
      <trkpt lat="55.15689" lon="25.38697">
        <ele>166.543321</ele>
        <time>2020-10-07T12:21:26.452Z</time>
      </trkpt>
      <trkpt lat="55.15637" lon="25.3875">
        <ele>166.738048</ele>
        <time>2020-10-07T12:21:40.464Z</time>
      </trkpt>
      <trkpt lat="55.15611" lon="25.38775">
        <ele>166.831167</ele>
        <time>2020-10-07T12:21:47.528Z</time>
      </trkpt>
      <trkpt lat="55.15525" lon="25.38834">
        <ele>168.432539</ele>
        <time>2020-10-07T12:22:12.234Z</time>
      </trkpt>
      <trkpt lat="55.15446" lon="25.38858">
        <ele>169.985814</ele>
        <time>2020-10-07T12:22:37.305Z</time>
      </trkpt>
      <trkpt lat="55.15285" lon="25.3889">
        <ele>175.747758</ele>
        <time>2020-10-07T12:23:36.577Z</time>
      </trkpt>
      <trkpt lat="55.15208" lon="25.38914">
        <ele>179.018671</ele>
        <time>2020-10-07T12:24:09.043Z</time>
      </trkpt>
      <trkpt lat="55.15109" lon="25.38959">
        <ele>183.626024</ele>
        <time>2020-10-07T12:24:51.557Z</time>
      </trkpt>
      <trkpt lat="55.15087" lon="25.38971">
        <ele>184.666591</ele>
        <time>2020-10-07T12:25:01.269Z</time>
      </trkpt>
      <trkpt lat="55.15081" lon="25.38975">
        <ele>184.984745</ele>
        <time>2020-10-07T12:25:03.875Z</time>
      </trkpt>
      <trkpt lat="55.14945" lon="25.39052">
        <ele>188.711934</ele>
        <time>2020-10-07T12:25:53.430Z</time>
      </trkpt>
      <trkpt lat="55.14868" lon="25.39096">
        <ele>189.636183</ele>
        <time>2020-10-07T12:26:13.360Z</time>
      </trkpt>
      <trkpt lat="55.14756" lon="25.39167">
        <ele>189.046319</ele>
        <time>2020-10-07T12:26:37.118Z</time>
      </trkpt>
      <trkpt lat="55.14689" lon="25.3923">
        <ele>188.230733</ele>
        <time>2020-10-07T12:26:51.048Z</time>
      </trkpt>
      <trkpt lat="55.14636" lon="25.39306">
        <ele>187.319855</ele>
        <time>2020-10-07T12:27:03.527Z</time>
      </trkpt>
      <trkpt lat="55.1461" lon="25.39349">
        <ele>186.83635</ele>
        <time>2020-10-07T12:27:10.135Z</time>
      </trkpt>
      <trkpt lat="55.14578" lon="25.3939">
        <ele>186.576443</ele>
        <time>2020-10-07T12:27:17.729Z</time>
      </trkpt>
      <trkpt lat="55.14517" lon="25.39436">
        <ele>186.779952</ele>
        <time>2020-10-07T12:27:31.562Z</time>
      </trkpt>
      <trkpt lat="55.14481" lon="25.3945">
        <ele>186.891717</ele>
        <time>2020-10-07T12:27:40.487Z</time>
      </trkpt>
      <trkpt lat="55.14389" lon="25.39486">
        <ele>187.704002</ele>
        <time>2020-10-07T12:28:07.257Z</time>
      </trkpt>
      <trkpt lat="55.14257" lon="25.3952">
        <ele>190.15452</ele>
        <time>2020-10-07T12:28:48.544Z</time>
      </trkpt>
      <trkpt lat="55.14206" lon="25.39515">
        <ele>190.561821</ele>
        <time>2020-10-07T12:29:02.582Z</time>
      </trkpt>
      <trkpt lat="55.14204" lon="25.39515">
        <ele>190.575537</ele>
        <time>2020-10-07T12:29:03.274Z</time>
      </trkpt>
      <trkpt lat="55.14185" lon="25.39514">
        <ele>190.665233</ele>
        <time>2020-10-07T12:29:07.802Z</time>
      </trkpt>
      <trkpt lat="55.14132" lon="25.39504">
        <ele>190.92554</ele>
        <time>2020-10-07T12:29:20.986Z</time>
      </trkpt>
      <trkpt lat="55.13988" lon="25.39478">
        <ele>190.22373</ele>
        <time>2020-10-07T12:29:51.025Z</time>
      </trkpt>
      <trkpt lat="55.13978" lon="25.39476">
        <ele>190.086305</ele>
        <time>2020-10-07T12:29:53.049Z</time>
      </trkpt>
      <trkpt lat="55.13947" lon="25.39469">
        <ele>189.678798</ele>
        <time>2020-10-07T12:29:58.725Z</time>
      </trkpt>
      <trkpt lat="55.13931" lon="25.39466">
        <ele>189.462393</ele>
        <time>2020-10-07T12:30:01.639Z</time>
      </trkpt>
      <trkpt lat="55.1387" lon="25.39453">
        <ele>188.363278</ele>
        <time>2020-10-07T12:30:12.275Z</time>
      </trkpt>
      <trkpt lat="55.1371" lon="25.39421">
        <ele>183.602989</ele>
        <time>2020-10-07T12:30:38.642Z</time>
      </trkpt>
      <trkpt lat="55.13686" lon="25.39414">
        <ele>183.075168</ele>
        <time>2020-10-07T12:30:42.648Z</time>
      </trkpt>
      <trkpt lat="55.13636" lon="25.39394">
        <ele>182.01694</ele>
        <time>2020-10-07T12:30:50.986Z</time>
      </trkpt>
      <trkpt lat="55.13562" lon="25.39338">
        <ele>180.317603</ele>
        <time>2020-10-07T12:31:05.173Z</time>
      </trkpt>
      <trkpt lat="55.13547" lon="25.39323">
        <ele>179.952146</ele>
        <time>2020-10-07T12:31:08.613Z</time>
      </trkpt>
      <trkpt lat="55.13531" lon="25.39308">
        <ele>179.847304</ele>
        <time>2020-10-07T12:31:12.208Z</time>
      </trkpt>
      <trkpt lat="55.13476" lon="25.39218">
        <ele>180.379811</ele>
        <time>2020-10-07T12:31:30.089Z</time>
      </trkpt>
      <trkpt lat="55.1346" lon="25.39188">
        <ele>180.540299</ele>
        <time>2020-10-07T12:31:35.819Z</time>
      </trkpt>
      <trkpt lat="55.13399" lon="25.39068">
        <ele>181.374874</ele>
        <time>2020-10-07T12:32:02.689Z</time>
      </trkpt>
      <trkpt lat="55.13369" lon="25.39017">
        <ele>182.049259</ele>
        <time>2020-10-07T12:32:15.612Z</time>
      </trkpt>
      <trkpt lat="55.13304" lon="25.38942">
        <ele>183.296043</ele>
        <time>2020-10-07T12:32:39.926Z</time>
      </trkpt>
      <trkpt lat="55.13069" lon="25.38796">
        <ele>184.036325</ele>
        <time>2020-10-07T12:33:37.317Z</time>
      </trkpt>
      <trkpt lat="55.12988" lon="25.38718">
        <ele>183.187869</ele>
        <time>2020-10-07T12:33:55.036Z</time>
      </trkpt>
      <trkpt lat="55.12944" lon="25.38664">
        <ele>182.689482</ele>
        <time>2020-10-07T12:34:05.054Z</time>
      </trkpt>
      <trkpt lat="55.12871" lon="25.38554">
        <ele>181.246066</ele>
        <time>2020-10-07T12:34:22.568Z</time>
      </trkpt>
      <trkpt lat="55.12818" lon="25.38461">
        <ele>180.109959</ele>
        <time>2020-10-07T12:34:36.261Z</time>
      </trkpt>
      <trkpt lat="55.12775" lon="25.3836">
        <ele>179.369866</ele>
        <time>2020-10-07T12:34:49.933Z</time>
      </trkpt>
      <trkpt lat="55.12737" lon="25.38261">
        <ele>178.748879</ele>
        <time>2020-10-07T12:35:03.423Z</time>
      </trkpt>
      <trkpt lat="55.12726" lon="25.38231">
        <ele>178.565327</ele>
        <time>2020-10-07T12:35:07.519Z</time>
      </trkpt>
      <trkpt lat="55.12696" lon="25.38134">
        <ele>178.015263</ele>
        <time>2020-10-07T12:35:20.456Z</time>
      </trkpt>
      <trkpt lat="55.12678" lon="25.38052">
        <ele>177.59269</ele>
        <time>2020-10-07T12:35:30.698Z</time>
      </trkpt>
      <trkpt lat="55.12672" lon="25.3802">
        <ele>177.435139</ele>
        <time>2020-10-07T12:35:34.584Z</time>
      </trkpt>
      <trkpt lat="55.12596" lon="25.37451">
        <ele>174.146372</ele>
        <time>2020-10-07T12:36:38.288Z</time>
      </trkpt>
      <trkpt lat="55.12582" lon="25.37364">
        <ele>173.780854</ele>
        <time>2020-10-07T12:36:48.908Z</time>
      </trkpt>
      <trkpt lat="55.12573" lon="25.37333">
        <ele>173.640026</ele>
        <time>2020-10-07T12:36:52.796Z</time>
      </trkpt>
      <trkpt lat="55.12563" lon="25.37303">
        <ele>173.498456</ele>
        <time>2020-10-07T12:36:57.238Z</time>
      </trkpt>
      <trkpt lat="55.12532" lon="25.37245">
        <ele>173.372655</ele>
        <time>2020-10-07T12:37:06.952Z</time>
      </trkpt>
      <trkpt lat="55.12498" lon="25.37205">
        <ele>173.336473</ele>
        <time>2020-10-07T12:37:15.883Z</time>
      </trkpt>
      <trkpt lat="55.12278" lon="25.36989">
        <ele>173.351169</ele>
        <time>2020-10-07T12:38:12.333Z</time>
      </trkpt>
      <trkpt lat="55.12258" lon="25.36959">
        <ele>173.370553</ele>
        <time>2020-10-07T12:38:18.070Z</time>
      </trkpt>
      <trkpt lat="55.12227" lon="25.36892">
        <ele>173.804004</ele>
        <time>2020-10-07T12:38:29.492Z</time>
      </trkpt>
      <trkpt lat="55.12209" lon="25.3681">
        <ele>174.325659</ele>
        <time>2020-10-07T12:38:41.984Z</time>
      </trkpt>
      <trkpt lat="55.12204" lon="25.36755">
        <ele>174.652797</ele>
        <time>2020-10-07T12:38:50.294Z</time>
      </trkpt>
      <trkpt lat="55.12204" lon="25.36696">
        <ele>175.002683</ele>
        <time>2020-10-07T12:38:59.593Z</time>
      </trkpt>
      <trkpt lat="55.12219" lon="25.36315">
        <ele>180.403744</ele>
        <time>2020-10-07T12:40:11.069Z</time>
      </trkpt>
      <trkpt lat="55.12243" lon="25.35788">
        <ele>190.293552</ele>
        <time>2020-10-07T12:42:02.426Z</time>
      </trkpt>
      <trkpt lat="55.12237" lon="25.35717">
        <ele>191.540194</ele>
        <time>2020-10-07T12:42:14.667Z</time>
      </trkpt>
      <trkpt lat="55.12228" lon="25.35678">
        <ele>191.573451</ele>
        <time>2020-10-07T12:42:21.398Z</time>
      </trkpt>
      <trkpt lat="55.12205" lon="25.35619">
        <ele>191.584678</ele>
        <time>2020-10-07T12:42:31.599Z</time>
      </trkpt>
      <trkpt lat="55.12189" lon="25.35594">
        <ele>191.590562</ele>
        <time>2020-10-07T12:42:36.328Z</time>
      </trkpt>
      <trkpt lat="55.12179" lon="25.35577">
        <ele>191.5944</ele>
        <time>2020-10-07T12:42:39.328Z</time>
      </trkpt>
      <trkpt lat="55.12112" lon="25.35472">
        <ele>191.538036</ele>
        <time>2020-10-07T12:42:56.824Z</time>
      </trkpt>
      <trkpt lat="55.1205" lon="25.35368">
        <ele>190.856306</ele>
        <time>2020-10-07T12:43:13.005Z</time>
      </trkpt>
      <trkpt lat="55.12024" lon="25.35311">
        <ele>190.521927</ele>
        <time>2020-10-07T12:43:21.343Z</time>
      </trkpt>
      <trkpt lat="55.12" lon="25.35237">
        <ele>190.175023</ele>
        <time>2020-10-07T12:43:31.705Z</time>
      </trkpt>
      <trkpt lat="55.11962" lon="25.3507">
        <ele>189.993744</ele>
        <time>2020-10-07T12:43:54.634Z</time>
      </trkpt>
      <trkpt lat="55.11947" lon="25.35003">
        <ele>189.921634</ele>
        <time>2020-10-07T12:44:03.659Z</time>
      </trkpt>
      <trkpt lat="55.1191" lon="25.34829">
        <ele>189.610372</ele>
        <time>2020-10-07T12:44:25.829Z</time>
      </trkpt>
      <trkpt lat="55.11889" lon="25.34762">
        <ele>189.461634</ele>
        <time>2020-10-07T12:44:34.542Z</time>
      </trkpt>
      <trkpt lat="55.11864" lon="25.34713">
        <ele>189.335913</ele>
        <time>2020-10-07T12:44:42.081Z</time>
      </trkpt>
      <trkpt lat="55.11786" lon="25.34604">
        <ele>190.275038</ele>
        <time>2020-10-07T12:45:06.291Z</time>
      </trkpt>
      <trkpt lat="55.11593" lon="25.34336">
        <ele>194.138604</ele>
        <time>2020-10-07T12:46:21.600Z</time>
      </trkpt>
      <trkpt lat="55.11555" lon="25.34282">
        <ele>194.779337</ele>
        <time>2020-10-07T12:46:34.449Z</time>
      </trkpt>
      <trkpt lat="55.11535" lon="25.34239">
        <ele>194.831145</ele>
        <time>2020-10-07T12:46:42.233Z</time>
      </trkpt>
      <trkpt lat="55.11517" lon="25.34178">
        <ele>194.895552</ele>
        <time>2020-10-07T12:46:51.325Z</time>
      </trkpt>
      <trkpt lat="55.11513" lon="25.34147">
        <ele>194.924457</ele>
        <time>2020-10-07T12:46:55.074Z</time>
      </trkpt>
      <trkpt lat="55.11513" lon="25.34116">
        <ele>194.953204</ele>
        <time>2020-10-07T12:46:58.925Z</time>
      </trkpt>
      <trkpt lat="55.11515" lon="25.34072">
        <ele>194.994977</ele>
        <time>2020-10-07T12:47:04.167Z</time>
      </trkpt>
      <trkpt lat="55.11546" lon="25.33915">
        <ele>194.983004</ele>
        <time>2020-10-07T12:47:24.553Z</time>
      </trkpt>
      <trkpt lat="55.11554" lon="25.33847">
        <ele>194.938903</ele>
        <time>2020-10-07T12:47:33.484Z</time>
      </trkpt>
      <trkpt lat="55.11553" lon="25.33783">
        <ele>194.898815</ele>
        <time>2020-10-07T12:47:41.572Z</time>
      </trkpt>
      <trkpt lat="55.11538" lon="25.33672">
        <ele>194.767855</ele>
        <time>2020-10-07T12:47:56.155Z</time>
      </trkpt>
      <trkpt lat="55.11493" lon="25.3346">
        <ele>194.284306</ele>
        <time>2020-10-07T12:48:23.446Z</time>
      </trkpt>
      <trkpt lat="55.11478" lon="25.33398">
        <ele>194.092073</ele>
        <time>2020-10-07T12:48:31.245Z</time>
      </trkpt>
      <trkpt lat="55.11474" lon="25.33377">
        <ele>193.98667</ele>
        <time>2020-10-07T12:48:33.650Z</time>
      </trkpt>
      <trkpt lat="55.11447" lon="25.33269">
        <ele>193.41836</ele>
        <time>2020-10-07T12:48:47.030Z</time>
      </trkpt>
      <trkpt lat="55.1139" lon="25.33097">
        <ele>192.527469</ele>
        <time>2020-10-07T12:49:09.036Z</time>
      </trkpt>
      <trkpt lat="55.11346" lon="25.32971">
        <ele>192.051173</ele>
        <time>2020-10-07T12:49:25.878Z</time>
      </trkpt>
      <trkpt lat="55.11332" lon="25.32929">
        <ele>191.891177</ele>
        <time>2020-10-07T12:49:31.901Z</time>
      </trkpt>
      <trkpt lat="55.11303" lon="25.32853">
        <ele>191.618361</ele>
        <time>2020-10-07T12:49:43.174Z</time>
      </trkpt>
      <trkpt lat="55.11283" lon="25.32813">
        <ele>191.524655</ele>
        <time>2020-10-07T12:49:49.742Z</time>
      </trkpt>
      <trkpt lat="55.11231" lon="25.32725">
        <ele>191.304329</ele>
        <time>2020-10-07T12:50:05.145Z</time>
      </trkpt>
      <trkpt lat="55.11085" lon="25.32479">
        <ele>190.4298</ele>
        <time>2020-10-07T12:50:47.355Z</time>
      </trkpt>
      <trkpt lat="55.11079" lon="25.3247">
        <ele>190.392583</ele>
        <time>2020-10-07T12:50:48.882Z</time>
      </trkpt>
      <trkpt lat="55.11015" lon="25.32367">
        <ele>189.777216</ele>
        <time>2020-10-07T12:51:06.588Z</time>
      </trkpt>
      <trkpt lat="55.10985" lon="25.32333">
        <ele>189.471732</ele>
        <time>2020-10-07T12:51:13.543Z</time>
      </trkpt>
      <trkpt lat="55.10971" lon="25.32316">
        <ele>189.323808</ele>
        <time>2020-10-07T12:51:16.772Z</time>
      </trkpt>
      <trkpt lat="55.1093" lon="25.3228">
        <ele>188.93106</ele>
        <time>2020-10-07T12:51:25.651Z</time>
      </trkpt>
      <trkpt lat="55.10891" lon="25.32257">
        <ele>188.571064</ele>
        <time>2020-10-07T12:51:33.685Z</time>
      </trkpt>
      <trkpt lat="55.10868" lon="25.32249">
        <ele>188.364427</ele>
        <time>2020-10-07T12:51:38.116Z</time>
      </trkpt>
      <trkpt lat="55.10829" lon="25.32235">
        <ele>188.009137</ele>
        <time>2020-10-07T12:51:45.849Z</time>
      </trkpt>
      <trkpt lat="55.1077" lon="25.32215">
        <ele>187.480285</ele>
        <time>2020-10-07T12:51:57.677Z</time>
      </trkpt>
      <trkpt lat="55.10739" lon="25.32201">
        <ele>187.200834</ele>
        <time>2020-10-07T12:52:03.938Z</time>
      </trkpt>
      <trkpt lat="55.10682" lon="25.32139">
        <ele>186.722451</ele>
        <time>2020-10-07T12:52:17.614Z</time>
      </trkpt>
      <trkpt lat="55.10662" lon="25.32107">
        <ele>186.543404</ele>
        <time>2020-10-07T12:52:23.343Z</time>
      </trkpt>
      <trkpt lat="55.10516" lon="25.3188">
        <ele>184.792634</ele>
        <time>2020-10-07T12:53:02.562Z</time>
      </trkpt>
      <trkpt lat="55.10445" lon="25.31796">
        <ele>183.810713</ele>
        <time>2020-10-07T12:53:18.215Z</time>
      </trkpt>
      <trkpt lat="55.10247" lon="25.3163">
        <ele>180.145916</ele>
        <time>2020-10-07T12:53:57.051Z</time>
      </trkpt>
      <trkpt lat="55.10187" lon="25.3157">
        <ele>179.502151</ele>
        <time>2020-10-07T12:54:10.182Z</time>
      </trkpt>
      <trkpt lat="55.10119" lon="25.31486">
        <ele>178.939158</ele>
        <time>2020-10-07T12:54:27.967Z</time>
      </trkpt>
      <trkpt lat="55.10117" lon="25.31483">
        <ele>178.957884</ele>
        <time>2020-10-07T12:54:28.483Z</time>
      </trkpt>
      <trkpt lat="55.09998" lon="25.31308">
        <ele>180.105095</ele>
        <time>2020-10-07T12:55:08.508Z</time>
      </trkpt>
      <trkpt lat="55.09746" lon="25.30833">
        <ele>185.28719</ele>
        <time>2020-10-07T12:56:54.171Z</time>
      </trkpt>
      <trkpt lat="55.09715" lon="25.30772">
        <ele>184.908077</ele>
        <time>2020-10-07T12:57:04.377Z</time>
      </trkpt>
      <trkpt lat="55.09698" lon="25.30719">
        <ele>184.63118</ele>
        <time>2020-10-07T12:57:11.469Z</time>
      </trkpt>
      <trkpt lat="55.09687" lon="25.30653">
        <ele>184.308439</ele>
        <time>2020-10-07T12:57:19.430Z</time>
      </trkpt>
      <trkpt lat="55.09689" lon="25.30584">
        <ele>183.991439</ele>
        <time>2020-10-07T12:57:26.383Z</time>
      </trkpt>
      <trkpt lat="55.09695" lon="25.30528">
        <ele>183.356868</ele>
        <time>2020-10-07T12:57:31.972Z</time>
      </trkpt>
      <trkpt lat="55.09712" lon="25.30428">
        <ele>181.455501</ele>
        <time>2020-10-07T12:57:41.922Z</time>
      </trkpt>
      <trkpt lat="55.09718" lon="25.30369">
        <ele>180.343298</ele>
        <time>2020-10-07T12:57:47.533Z</time>
      </trkpt>
      <trkpt lat="55.0972" lon="25.30348">
        <ele>179.956923</ele>
        <time>2020-10-07T12:57:49.342Z</time>
      </trkpt>
      <trkpt lat="55.09721" lon="25.30275">
        <ele>178.61268</ele>
        <time>2020-10-07T12:57:56.102Z</time>
      </trkpt>
      <trkpt lat="55.09716" lon="25.30135">
        <ele>175.795759</ele>
        <time>2020-10-07T12:58:08.914Z</time>
      </trkpt>
      <trkpt lat="55.09704" lon="25.30034">
        <ele>173.680414</ele>
        <time>2020-10-07T12:58:18.296Z</time>
      </trkpt>
      <trkpt lat="55.09683" lon="25.29927">
        <ele>171.434814</ele>
        <time>2020-10-07T12:58:28.844Z</time>
      </trkpt>
      <trkpt lat="55.09663" lon="25.29862">
        <ele>170.343769</ele>
        <time>2020-10-07T12:58:35.717Z</time>
      </trkpt>
      <trkpt lat="55.0965" lon="25.29821">
        <ele>169.656458</ele>
        <time>2020-10-07T12:58:40.150Z</time>
      </trkpt>
      <trkpt lat="55.09648" lon="25.29815">
        <ele>169.56193</ele>
        <time>2020-10-07T12:58:40.734Z</time>
      </trkpt>
      <trkpt lat="55.09619" lon="25.29722">
        <ele>168.0032</ele>
        <time>2020-10-07T12:58:51.114Z</time>
      </trkpt>
      <trkpt lat="55.09605" lon="25.29657">
        <ele>166.994599</ele>
        <time>2020-10-07T12:58:58.174Z</time>
      </trkpt>
      <trkpt lat="55.096" lon="25.29621">
        <ele>166.831733</ele>
        <time>2020-10-07T12:59:01.961Z</time>
      </trkpt>
      <trkpt lat="55.09576" lon="25.29369">
        <ele>165.70792</ele>
        <time>2020-10-07T12:59:31.689Z</time>
      </trkpt>
      <trkpt lat="55.09555" lon="25.29257">
        <ele>165.316891</ele>
        <time>2020-10-07T12:59:47.033Z</time>
      </trkpt>
      <trkpt lat="55.09486" lon="25.28977">
        <ele>164.09704</ele>
        <time>2020-10-07T13:00:21.867Z</time>
      </trkpt>
      <trkpt lat="55.09466" lon="25.28897">
        <ele>163.549417</ele>
        <time>2020-10-07T13:00:31.201Z</time>
      </trkpt>
      <trkpt lat="55.09421" lon="25.28796">
        <ele>162.753397</ele>
        <time>2020-10-07T13:00:45.056Z</time>
      </trkpt>
      <trkpt lat="55.09391" lon="25.28742">
        <ele>162.252447</ele>
        <time>2020-10-07T13:00:53.371Z</time>
      </trkpt>
      <trkpt lat="55.09342" lon="25.28656">
        <ele>161.445988</ele>
        <time>2020-10-07T13:01:06.655Z</time>
      </trkpt>
      <trkpt lat="55.09251" lon="25.28494">
        <ele>159.894501</ele>
        <time>2020-10-07T13:01:31.005Z</time>
      </trkpt>
      <trkpt lat="55.09196" lon="25.28397">
        <ele>158.929231</ele>
        <time>2020-10-07T13:01:45.602Z</time>
      </trkpt>
      <trkpt lat="55.0916" lon="25.28322">
        <ele>158.396509</ele>
        <time>2020-10-07T13:01:56.295Z</time>
      </trkpt>
      <trkpt lat="55.09142" lon="25.28259">
        <ele>158.488354</ele>
        <time>2020-10-07T13:02:04.362Z</time>
      </trkpt>
      <trkpt lat="55.09113" lon="25.28106">
        <ele>158.699117</ele>
        <time>2020-10-07T13:02:25.705Z</time>
      </trkpt>
      <trkpt lat="55.09067" lon="25.27856">
        <ele>160.552843</ele>
        <time>2020-10-07T13:03:09.951Z</time>
      </trkpt>
      <trkpt lat="55.09017" lon="25.27585">
        <ele>160.978022</ele>
        <time>2020-10-07T13:03:55.047Z</time>
      </trkpt>
      <trkpt lat="55.0892" lon="25.27064">
        <ele>152.705905</ele>
        <time>2020-10-07T13:04:47.011Z</time>
      </trkpt>
      <trkpt lat="55.08906" lon="25.26984">
        <ele>150.405964</ele>
        <time>2020-10-07T13:04:54.410Z</time>
      </trkpt>
      <trkpt lat="55.08866" lon="25.26768">
        <ele>143.910363</ele>
        <time>2020-10-07T13:05:13.498Z</time>
      </trkpt>
      <trkpt lat="55.08848" lon="25.26688">
        <ele>141.205134</ele>
        <time>2020-10-07T13:05:20.717Z</time>
      </trkpt>
      <trkpt lat="55.08804" lon="25.26561">
        <ele>136.677602</ele>
        <time>2020-10-07T13:05:33.500Z</time>
      </trkpt>
      <trkpt lat="55.08796" lon="25.26535">
        <ele>136.285313</ele>
        <time>2020-10-07T13:05:36.190Z</time>
      </trkpt>
      <trkpt lat="55.08769" lon="25.26457">
        <ele>135.095847</ele>
        <time>2020-10-07T13:05:44.689Z</time>
      </trkpt>
      <trkpt lat="55.08757" lon="25.26403">
        <ele>134.339025</ele>
        <time>2020-10-07T13:05:50.401Z</time>
      </trkpt>
      <trkpt lat="55.08751" lon="25.26334">
        <ele>133.416842</ele>
        <time>2020-10-07T13:05:57.980Z</time>
      </trkpt>
      <trkpt lat="55.08749" lon="25.26158">
        <ele>132.189385</ele>
        <time>2020-10-07T13:06:19.550Z</time>
      </trkpt>
      <trkpt lat="55.08727" lon="25.26024">
        <ele>131.673435</ele>
        <time>2020-10-07T13:06:35.584Z</time>
      </trkpt>
      <trkpt lat="55.08702" lon="25.25932">
        <ele>131.216543</ele>
        <time>2020-10-07T13:06:46.982Z</time>
      </trkpt>
      <trkpt lat="55.08701" lon="25.25929">
        <ele>131.19564</ele>
        <time>2020-10-07T13:06:47.330Z</time>
      </trkpt>
      <trkpt lat="55.08607" lon="25.25622">
        <ele>129.630458</ele>
        <time>2020-10-07T13:07:25.784Z</time>
      </trkpt>
      <trkpt lat="55.08568" lon="25.2551">
        <ele>129.522019</ele>
        <time>2020-10-07T13:07:41.774Z</time>
      </trkpt>
      <trkpt lat="55.08547" lon="25.25465">
        <ele>129.473058</ele>
        <time>2020-10-07T13:07:49.879Z</time>
      </trkpt>
      <trkpt lat="55.08485" lon="25.25335">
        <ele>130.414998</ele>
        <time>2020-10-07T13:08:14.362Z</time>
      </trkpt>
      <trkpt lat="55.08462" lon="25.25298">
        <ele>130.853251</ele>
        <time>2020-10-07T13:08:23.354Z</time>
      </trkpt>
      <trkpt lat="55.08454" lon="25.25285">
        <ele>131.006686</ele>
        <time>2020-10-07T13:08:26.790Z</time>
      </trkpt>
      <trkpt lat="55.08407" lon="25.2524">
        <ele>131.754414</ele>
        <time>2020-10-07T13:08:42.508Z</time>
      </trkpt>
      <trkpt lat="55.08365" lon="25.25214">
        <ele>132.51317</ele>
        <time>2020-10-07T13:08:56.428Z</time>
      </trkpt>
      <trkpt lat="55.08335" lon="25.25208">
        <ele>133.051351</ele>
        <time>2020-10-07T13:09:05.393Z</time>
      </trkpt>
      <trkpt lat="55.0833" lon="25.25207">
        <ele>133.139822</ele>
        <time>2020-10-07T13:09:07.099Z</time>
      </trkpt>
      <trkpt lat="55.08266" lon="25.25224">
        <ele>134.30339</ele>
        <time>2020-10-07T13:09:26.258Z</time>
      </trkpt>
      <trkpt lat="55.08246" lon="25.25235">
        <ele>134.674755</ele>
        <time>2020-10-07T13:09:32.499Z</time>
      </trkpt>
      <trkpt lat="55.08194" lon="25.25279">
        <ele>135.453026</ele>
        <time>2020-10-07T13:09:48.554Z</time>
      </trkpt>
      <trkpt lat="55.08152" lon="25.25323">
        <ele>135.911546</ele>
        <time>2020-10-07T13:10:01.298Z</time>
      </trkpt>
      <trkpt lat="55.08119" lon="25.25358">
        <ele>136.268741</ele>
        <time>2020-10-07T13:10:11.312Z</time>
      </trkpt>
      <trkpt lat="55.08113" lon="25.25364">
        <ele>136.332976</ele>
        <time>2020-10-07T13:10:13.019Z</time>
      </trkpt>
      <trkpt lat="55.08083" lon="25.25396">
        <ele>136.664102</ele>
        <time>2020-10-07T13:10:22.133Z</time>
      </trkpt>
      <trkpt lat="55.0807" lon="25.2541">
        <ele>136.805746</ele>
        <time>2020-10-07T13:10:25.904Z</time>
      </trkpt>
      <trkpt lat="55.0805" lon="25.2543">
        <ele>136.875533</ele>
        <time>2020-10-07T13:10:31.573Z</time>
      </trkpt>
      <trkpt lat="55.08018" lon="25.25463">
        <ele>136.923118</ele>
        <time>2020-10-07T13:10:40.211Z</time>
      </trkpt>
      <trkpt lat="55.07996" lon="25.25486">
        <ele>136.955222</ele>
        <time>2020-10-07T13:10:45.873Z</time>
      </trkpt>
      <trkpt lat="55.07975" lon="25.25508">
        <ele>136.986553</ele>
        <time>2020-10-07T13:10:51.140Z</time>
      </trkpt>
      <trkpt lat="55.07965" lon="25.25519">
        <ele>137.00211</ele>
        <time>2020-10-07T13:10:53.806Z</time>
      </trkpt>
      <trkpt lat="55.07958" lon="25.25527">
        <ele>137.012848</ele>
        <time>2020-10-07T13:10:55.675Z</time>
      </trkpt>
      <trkpt lat="55.07946" lon="25.2554">
        <ele>137.031051</ele>
        <time>2020-10-07T13:10:58.757Z</time>
      </trkpt>
      <trkpt lat="55.07909" lon="25.25579">
        <ele>137.09386</ele>
        <time>2020-10-07T13:11:08.239Z</time>
      </trkpt>
      <trkpt lat="55.07898" lon="25.2559">
        <ele>137.137952</ele>
        <time>2020-10-07T13:11:11.058Z</time>
      </trkpt>
      <trkpt lat="55.07884" lon="25.25605">
        <ele>137.196774</ele>
        <time>2020-10-07T13:11:14.624Z</time>
      </trkpt>
      <trkpt lat="55.07869" lon="25.25621">
        <ele>137.262699</ele>
        <time>2020-10-07T13:11:18.806Z</time>
      </trkpt>
      <trkpt lat="55.07867" lon="25.25623">
        <ele>137.272416</ele>
        <time>2020-10-07T13:11:19.449Z</time>
      </trkpt>
      <trkpt lat="55.07851" lon="25.25639">
        <ele>137.339172</ele>
        <time>2020-10-07T13:11:23.637Z</time>
      </trkpt>
      <trkpt lat="55.07789" lon="25.25703">
        <ele>137.599723</ele>
        <time>2020-10-07T13:11:40.633Z</time>
      </trkpt>
      <trkpt lat="55.0778" lon="25.25712">
        <ele>137.635043</ele>
        <time>2020-10-07T13:11:43.126Z</time>
      </trkpt>
      <trkpt lat="55.0774" lon="25.25754">
        <ele>137.84905</ele>
        <time>2020-10-07T13:11:55.149Z</time>
      </trkpt>
      <trkpt lat="55.07717" lon="25.25778">
        <ele>138.01026</ele>
        <time>2020-10-07T13:12:02.390Z</time>
      </trkpt>
      <trkpt lat="55.07696" lon="25.258">
        <ele>138.153752</ele>
        <time>2020-10-07T13:12:08.870Z</time>
      </trkpt>
      <trkpt lat="55.07672" lon="25.25824">
        <ele>138.315976</ele>
        <time>2020-10-07T13:12:16.289Z</time>
      </trkpt>
      <trkpt lat="55.07657" lon="25.25841">
        <ele>138.422827</ele>
        <time>2020-10-07T13:12:21.205Z</time>
      </trkpt>
      <trkpt lat="55.07632" lon="25.25866">
        <ele>138.594261</ele>
        <time>2020-10-07T13:12:28.296Z</time>
      </trkpt>
      <trkpt lat="55.07626" lon="25.25872">
        <ele>138.633455</ele>
        <time>2020-10-07T13:12:29.925Z</time>
      </trkpt>
      <trkpt lat="55.07614" lon="25.25886">
        <ele>138.72105</ele>
        <time>2020-10-07T13:12:33.007Z</time>
      </trkpt>
      <trkpt lat="55.07568" lon="25.25933">
        <ele>138.227751</ele>
        <time>2020-10-07T13:12:43.633Z</time>
      </trkpt>
      <trkpt lat="55.07566" lon="25.25936">
        <ele>138.188475</ele>
        <time>2020-10-07T13:12:44.168Z</time>
      </trkpt>
      <trkpt lat="55.07547" lon="25.25955">
        <ele>137.885716</ele>
        <time>2020-10-07T13:12:48.143Z</time>
      </trkpt>
      <trkpt lat="55.07527" lon="25.25975">
        <ele>137.549427</ele>
        <time>2020-10-07T13:12:52.605Z</time>
      </trkpt>
      <trkpt lat="55.07516" lon="25.25985">
        <ele>137.383239</ele>
        <time>2020-10-07T13:12:54.802Z</time>
      </trkpt>
      <trkpt lat="55.07503" lon="25.25997">
        <ele>137.168254</ele>
        <time>2020-10-07T13:12:57.707Z</time>
      </trkpt>
      <trkpt lat="55.07497" lon="25.26002">
        <ele>137.069655</ele>
        <time>2020-10-07T13:12:58.915Z</time>
      </trkpt>
      <trkpt lat="55.07476" lon="25.26017">
        <ele>136.759493</ele>
        <time>2020-10-07T13:13:02.886Z</time>
      </trkpt>
      <trkpt lat="55.07464" lon="25.26025">
        <ele>136.57649</ele>
        <time>2020-10-07T13:13:05.114Z</time>
      </trkpt>
      <trkpt lat="55.07433" lon="25.26044">
        <ele>135.977292</ele>
        <time>2020-10-07T13:13:10.829Z</time>
      </trkpt>
      <trkpt lat="55.07421" lon="25.26051">
        <ele>135.628144</ele>
        <time>2020-10-07T13:13:12.936Z</time>
      </trkpt>
      <trkpt lat="55.07415" lon="25.26053">
        <ele>135.451654</ele>
        <time>2020-10-07T13:13:14.026Z</time>
      </trkpt>
      <trkpt lat="55.07408" lon="25.26051">
        <ele>135.267</ele>
        <time>2020-10-07T13:13:15.149Z</time>
      </trkpt>
      <trkpt lat="55.07407" lon="25.26048">
        <ele>135.2108</ele>
        <time>2020-10-07T13:13:15.492Z</time>
      </trkpt>
      <trkpt lat="55.07406" lon="25.26046">
        <ele>135.154008</ele>
        <time>2020-10-07T13:13:15.831Z</time>
      </trkpt>
      <trkpt lat="55.07404" lon="25.26044">
        <ele>135.095554</ele>
        <time>2020-10-07T13:13:16.170Z</time>
      </trkpt>
      <trkpt lat="55.07402" lon="25.26044">
        <ele>135.040748</ele>
        <time>2020-10-07T13:13:16.502Z</time>
      </trkpt>
      <trkpt lat="55.074" lon="25.26046">
        <ele>134.984261</ele>
        <time>2020-10-07T13:13:16.828Z</time>
      </trkpt>
      <trkpt lat="55.07398" lon="25.26049">
        <ele>134.927134</ele>
        <time>2020-10-07T13:13:17.155Z</time>
      </trkpt>
      <trkpt lat="55.07398" lon="25.26055">
        <ele>134.81673</ele>
        <time>2020-10-07T13:13:17.805Z</time>
      </trkpt>
      <trkpt lat="55.07399" lon="25.26059">
        <ele>134.759406</ele>
        <time>2020-10-07T13:13:18.132Z</time>
      </trkpt>
      <trkpt lat="55.07381" lon="25.2608">
        <ele>134.172441</ele>
        <time>2020-10-07T13:13:21.695Z</time>
      </trkpt>
      <trkpt lat="55.07369" lon="25.26096">
        <ele>133.754762</ele>
        <time>2020-10-07T13:13:24.088Z</time>
      </trkpt>
      <trkpt lat="55.07361" lon="25.26108">
        <ele>133.464838</ele>
        <time>2020-10-07T13:13:25.866Z</time>
      </trkpt>
      <trkpt lat="55.07336" lon="25.26151">
        <ele>132.503748</ele>
        <time>2020-10-07T13:13:31.692Z</time>
      </trkpt>
      <trkpt lat="55.07329" lon="25.26164">
        <ele>132.223434</ele>
        <time>2020-10-07T13:13:33.502Z</time>
      </trkpt>
      <trkpt lat="55.07316" lon="25.26189">
        <ele>131.699117</ele>
        <time>2020-10-07T13:13:36.635Z</time>
      </trkpt>
      <trkpt lat="55.07301" lon="25.26224">
        <ele>131.200874</ele>
        <time>2020-10-07T13:13:41.116Z</time>
      </trkpt>
      <trkpt lat="55.07295" lon="25.26238">
        <ele>131.101966</ele>
        <time>2020-10-07T13:13:42.704Z</time>
      </trkpt>
      <trkpt lat="55.07284" lon="25.26259">
        <ele>130.937473</ele>
        <time>2020-10-07T13:13:45.663Z</time>
      </trkpt>
      <trkpt lat="55.07271" lon="25.26279">
        <ele>130.763736</ele>
        <time>2020-10-07T13:13:48.582Z</time>
      </trkpt>
      <trkpt lat="55.07269" lon="25.26283">
        <ele>130.725933</ele>
        <time>2020-10-07T13:13:49.198Z</time>
      </trkpt>
      <trkpt lat="55.07246" lon="25.26312">
        <ele>130.442415</ele>
        <time>2020-10-07T13:13:54.349Z</time>
      </trkpt>
      <trkpt lat="55.07241" lon="25.26319">
        <ele>130.377711</ele>
        <time>2020-10-07T13:13:55.441Z</time>
      </trkpt>
      <trkpt lat="55.0723" lon="25.2633">
        <ele>130.247935</ele>
        <time>2020-10-07T13:13:58.036Z</time>
      </trkpt>
      <trkpt lat="55.07218" lon="25.2634">
        <ele>130.118159</ele>
        <time>2020-10-07T13:14:00.556Z</time>
      </trkpt>
      <trkpt lat="55.0719" lon="25.26361">
        <ele>129.808237</ele>
        <time>2020-10-07T13:14:07.037Z</time>
      </trkpt>
      <trkpt lat="55.07188" lon="25.26362">
        <ele>129.783348</ele>
        <time>2020-10-07T13:14:07.554Z</time>
      </trkpt>
      <trkpt lat="55.07169" lon="25.26369">
        <ele>129.592495</ele>
        <time>2020-10-07T13:14:11.901Z</time>
      </trkpt>
      <trkpt lat="55.07151" lon="25.26376">
        <ele>129.690434</ele>
        <time>2020-10-07T13:14:16.815Z</time>
      </trkpt>
      <trkpt lat="55.07105" lon="25.26387">
        <ele>130.701386</ele>
        <time>2020-10-07T13:14:30.180Z</time>
      </trkpt>
      <trkpt lat="55.07057" lon="25.26401">
        <ele>131.776667</ele>
        <time>2020-10-07T13:14:45.973Z</time>
      </trkpt>
      <trkpt lat="55.07023" lon="25.26401">
        <ele>132.513819</ele>
        <time>2020-10-07T13:14:57.222Z</time>
      </trkpt>
      <trkpt lat="55.07" lon="25.26397">
        <ele>133.039007</ele>
        <time>2020-10-07T13:15:05.328Z</time>
      </trkpt>
      <trkpt lat="55.06967" lon="25.26381">
        <ele>133.827266</ele>
        <time>2020-10-07T13:15:17.262Z</time>
      </trkpt>
      <trkpt lat="55.06889" lon="25.26341">
        <ele>135.778169</ele>
        <time>2020-10-07T13:15:44.476Z</time>
      </trkpt>
      <trkpt lat="55.06878" lon="25.26336">
        <ele>136.062507</ele>
        <time>2020-10-07T13:15:48.200Z</time>
      </trkpt>
      <trkpt lat="55.06859" lon="25.26326">
        <ele>136.538338</ele>
        <time>2020-10-07T13:15:54.230Z</time>
      </trkpt>
      <trkpt lat="55.0685" lon="25.26321">
        <ele>136.762716</ele>
        <time>2020-10-07T13:15:57.308Z</time>
      </trkpt>
      <trkpt lat="55.06805" lon="25.263">
        <ele>137.814768</ele>
        <time>2020-10-07T13:16:10.614Z</time>
      </trkpt>
      <trkpt lat="55.06788" lon="25.26295">
        <ele>137.945569</ele>
        <time>2020-10-07T13:16:15.729Z</time>
      </trkpt>
      <trkpt lat="55.0678" lon="25.26293">
        <ele>138.000371</ele>
        <time>2020-10-07T13:16:17.995Z</time>
      </trkpt>
      <trkpt lat="55.06741" lon="25.26286">
        <ele>138.283642</ele>
        <time>2020-10-07T13:16:28.455Z</time>
      </trkpt>
      <trkpt lat="55.06723" lon="25.26284">
        <ele>138.414414</ele>
        <time>2020-10-07T13:16:33.125Z</time>
      </trkpt>
      <trkpt lat="55.06709" lon="25.26281">
        <ele>138.517048</ele>
        <time>2020-10-07T13:16:36.999Z</time>
      </trkpt>
      <trkpt lat="55.06651" lon="25.26278">
        <ele>138.929708</ele>
        <time>2020-10-07T13:16:50.558Z</time>
      </trkpt>
      <trkpt lat="55.06598" lon="25.26274">
        <ele>138.910751</ele>
        <time>2020-10-07T13:17:01.579Z</time>
      </trkpt>
      <trkpt lat="55.06549" lon="25.26271">
        <ele>138.649147</ele>
        <time>2020-10-07T13:17:11.344Z</time>
      </trkpt>
      <trkpt lat="55.06542" lon="25.2627">
        <ele>138.610627</ele>
        <time>2020-10-07T13:17:12.816Z</time>
      </trkpt>
      <trkpt lat="55.06487" lon="25.26266">
        <ele>138.316888</ele>
        <time>2020-10-07T13:17:23.729Z</time>
      </trkpt>
      <trkpt lat="55.06439" lon="25.26263">
        <ele>138.124124</ele>
        <time>2020-10-07T13:17:33.666Z</time>
      </trkpt>
      <trkpt lat="55.06362" lon="25.26258">
        <ele>138.149136</ele>
        <time>2020-10-07T13:17:49.803Z</time>
      </trkpt>
      <trkpt lat="55.06337" lon="25.26257">
        <ele>138.156984</ele>
        <time>2020-10-07T13:17:55.154Z</time>
      </trkpt>
      <trkpt lat="55.06081" lon="25.26239">
        <ele>139.476822</ele>
        <time>2020-10-07T13:18:59.447Z</time>
      </trkpt>
      <trkpt lat="55.06007" lon="25.26233">
        <ele>139.864024</ele>
        <time>2020-10-07T13:19:18.197Z</time>
      </trkpt>
      <trkpt lat="55.05967" lon="25.26225">
        <ele>140.07119</ele>
        <time>2020-10-07T13:19:28.033Z</time>
      </trkpt>
      <trkpt lat="55.05844" lon="25.26165">
        <ele>140.169518</ele>
        <time>2020-10-07T13:19:57.422Z</time>
      </trkpt>
      <trkpt lat="55.0561" lon="25.26038">
        <ele>139.16895</ele>
        <time>2020-10-07T13:20:47.270Z</time>
      </trkpt>
      <trkpt lat="55.05166" lon="25.25801">
        <ele>137.29692</ele>
        <time>2020-10-07T13:22:24.282Z</time>
      </trkpt>
      <trkpt lat="55.05149" lon="25.2579">
        <ele>137.223591</ele>
        <time>2020-10-07T13:22:28.271Z</time>
      </trkpt>
      <trkpt lat="55.05094" lon="25.25757">
        <ele>136.998309</ele>
        <time>2020-10-07T13:22:40.376Z</time>
      </trkpt>
      <trkpt lat="55.05055" lon="25.25735">
        <ele>136.838867</ele>
        <time>2020-10-07T13:22:48.967Z</time>
      </trkpt>
      <trkpt lat="55.05019" lon="25.25704">
        <ele>136.72525</ele>
        <time>2020-10-07T13:22:57.295Z</time>
      </trkpt>
      <trkpt lat="55.04883" lon="25.25573">
        <ele>136.382067</ele>
        <time>2020-10-07T13:23:30.199Z</time>
      </trkpt>
      <trkpt lat="55.04866" lon="25.2556">
        <ele>136.45166</ele>
        <time>2020-10-07T13:23:34.498Z</time>
      </trkpt>
      <trkpt lat="55.04839" lon="25.25551">
        <ele>136.548709</ele>
        <time>2020-10-07T13:23:40.665Z</time>
      </trkpt>
      <trkpt lat="55.04794" lon="25.25556">
        <ele>136.714148</ele>
        <time>2020-10-07T13:23:51.318Z</time>
      </trkpt>
      <trkpt lat="55.04604" lon="25.25686">
        <ele>137.984751</ele>
        <time>2020-10-07T13:24:42.964Z</time>
      </trkpt>
      <trkpt lat="55.04543" lon="25.25708">
        <ele>138.409264</ele>
        <time>2020-10-07T13:24:58.992Z</time>
      </trkpt>
      <trkpt lat="55.04496" lon="25.25704">
        <ele>138.563429</ele>
        <time>2020-10-07T13:25:10.728Z</time>
      </trkpt>
      <trkpt lat="55.04433" lon="25.25686">
        <ele>138.77405</ele>
        <time>2020-10-07T13:25:26.296Z</time>
      </trkpt>
      <trkpt lat="55.04302" lon="25.25599">
        <ele>138.344085</ele>
        <time>2020-10-07T13:25:56.046Z</time>
      </trkpt>
      <trkpt lat="55.0405" lon="25.2538">
        <ele>135.558306</ele>
        <time>2020-10-07T13:26:49.409Z</time>
      </trkpt>
      <trkpt lat="55.04001" lon="25.25344">
        <ele>135.492937</ele>
        <time>2020-10-07T13:26:59.910Z</time>
      </trkpt>
      <trkpt lat="55.03967" lon="25.25325">
        <ele>135.448564</ele>
        <time>2020-10-07T13:27:07.385Z</time>
      </trkpt>
      <trkpt lat="55.0374" lon="25.25222">
        <ele>136.337633</ele>
        <time>2020-10-07T13:28:05.265Z</time>
      </trkpt>
      <trkpt lat="55.03682" lon="25.25177">
        <ele>136.664858</ele>
        <time>2020-10-07T13:28:21.501Z</time>
      </trkpt>
      <trkpt lat="55.03642" lon="25.25134">
        <ele>136.843973</ele>
        <time>2020-10-07T13:28:33.172Z</time>
      </trkpt>
      <trkpt lat="55.03513" lon="25.24981">
        <ele>137.323428</ele>
        <time>2020-10-07T13:29:08.760Z</time>
      </trkpt>
      <trkpt lat="55.0346" lon="25.24924">
        <ele>137.433733</ele>
        <time>2020-10-07T13:29:22.417Z</time>
      </trkpt>
      <trkpt lat="55.03413" lon="25.24887">
        <ele>137.527129</ele>
        <time>2020-10-07T13:29:34.653Z</time>
      </trkpt>
      <trkpt lat="55.03402" lon="25.24881">
        <ele>137.561902</ele>
        <time>2020-10-07T13:29:37.420Z</time>
      </trkpt>
      <trkpt lat="55.03395" lon="25.24877">
        <ele>137.630689</ele>
        <time>2020-10-07T13:29:39.185Z</time>
      </trkpt>
      <trkpt lat="55.03372" lon="25.24868">
        <ele>137.844226</ele>
        <time>2020-10-07T13:29:44.947Z</time>
      </trkpt>
      <trkpt lat="55.03328" lon="25.24858">
        <ele>138.254344</ele>
        <time>2020-10-07T13:29:56.291Z</time>
      </trkpt>
      <trkpt lat="55.03292" lon="25.24859">
        <ele>138.587959</ele>
        <time>2020-10-07T13:30:05.926Z</time>
      </trkpt>
      <trkpt lat="55.03213" lon="25.24885">
        <ele>139.300594</ele>
        <time>2020-10-07T13:30:28.366Z</time>
      </trkpt>
      <trkpt lat="55.0307" lon="25.24971">
        <ele>140.382886</ele>
        <time>2020-10-07T13:31:05.870Z</time>
      </trkpt>
      <trkpt lat="55.02948" lon="25.25044">
        <ele>141.42453</ele>
        <time>2020-10-07T13:31:36.077Z</time>
      </trkpt>
      <trkpt lat="55.02632" lon="25.25238">
        <ele>145.942486</ele>
        <time>2020-10-07T13:33:12.184Z</time>
      </trkpt>
      <trkpt lat="55.02621" lon="25.25244">
        <ele>146.084997</ele>
        <time>2020-10-07T13:33:15.171Z</time>
      </trkpt>
      <trkpt lat="55.02536" lon="25.25285">
        <ele>147.138071</ele>
        <time>2020-10-07T13:33:39.266Z</time>
      </trkpt>
      <trkpt lat="55.02311" lon="25.25331">
        <ele>146.780866</ele>
        <time>2020-10-07T13:34:30.721Z</time>
      </trkpt>
      <trkpt lat="55.02273" lon="25.2534">
        <ele>146.227509</ele>
        <time>2020-10-07T13:34:37.751Z</time>
      </trkpt>
      <trkpt lat="55.02251" lon="25.25345">
        <ele>145.922756</ele>
        <time>2020-10-07T13:34:41.305Z</time>
      </trkpt>
      <trkpt lat="55.02169" lon="25.25383">
        <ele>144.761823</ele>
        <time>2020-10-07T13:34:56.128Z</time>
      </trkpt>
      <trkpt lat="55.02117" lon="25.25429">
        <ele>144.078121</ele>
        <time>2020-10-07T13:35:05.911Z</time>
      </trkpt>
      <trkpt lat="55.02052" lon="25.25508">
        <ele>143.146486</ele>
        <time>2020-10-07T13:35:21.842Z</time>
      </trkpt>
      <trkpt lat="55.02006" lon="25.25553">
        <ele>143.46237</ele>
        <time>2020-10-07T13:35:34.651Z</time>
      </trkpt>
      <trkpt lat="55.01987" lon="25.2556">
        <ele>143.805304</ele>
        <time>2020-10-07T13:35:39.843Z</time>
      </trkpt>
      <trkpt lat="55.01961" lon="25.25564">
        <ele>144.277245</ele>
        <time>2020-10-07T13:35:48.226Z</time>
      </trkpt>
      <trkpt lat="55.01879" lon="25.25558">
        <ele>145.754512</ele>
        <time>2020-10-07T13:36:14.495Z</time>
      </trkpt>
      <trkpt lat="55.01858" lon="25.2555">
        <ele>146.140678</ele>
        <time>2020-10-07T13:36:21.806Z</time>
      </trkpt>
      <trkpt lat="55.01839" lon="25.25535">
        <ele>146.428034</ele>
        <time>2020-10-07T13:36:28.534Z</time>
      </trkpt>
      <trkpt lat="55.01818" lon="25.25511">
        <ele>146.757945</ele>
        <time>2020-10-07T13:36:36.224Z</time>
      </trkpt>
      <trkpt lat="55.01811" lon="25.255">
        <ele>146.882534</ele>
        <time>2020-10-07T13:36:38.942Z</time>
      </trkpt>
      <trkpt lat="55.01807" lon="25.25494">
        <ele>146.949154</ele>
        <time>2020-10-07T13:36:40.471Z</time>
      </trkpt>
      <trkpt lat="55.01775" lon="25.2544">
        <ele>147.553233</ele>
        <time>2020-10-07T13:36:53.145Z</time>
      </trkpt>
      <trkpt lat="55.01719" lon="25.25348">
        <ele>148.537482</ele>
        <time>2020-10-07T13:37:12.388Z</time>
      </trkpt>
      <trkpt lat="55.0165" lon="25.25235">
        <ele>148.375039</ele>
        <time>2020-10-07T13:37:32.424Z</time>
      </trkpt>
      <trkpt lat="55.01575" lon="25.25108">
        <ele>148.155439</ele>
        <time>2020-10-07T13:37:54.423Z</time>
      </trkpt>
      <trkpt lat="55.01561" lon="25.25087">
        <ele>148.089956</ele>
        <time>2020-10-07T13:37:58.600Z</time>
      </trkpt>
      <trkpt lat="55.01504" lon="25.2503">
        <ele>147.859045</ele>
        <time>2020-10-07T13:38:13.103Z</time>
      </trkpt>
      <trkpt lat="55.01436" lon="25.2499">
        <ele>147.607061</ele>
        <time>2020-10-07T13:38:27.978Z</time>
      </trkpt>
      <trkpt lat="55.01378" lon="25.24959">
        <ele>146.769194</ele>
        <time>2020-10-07T13:38:39.572Z</time>
      </trkpt>
      <trkpt lat="55.01215" lon="25.2487">
        <ele>144.349349</ele>
        <time>2020-10-07T13:39:10.462Z</time>
      </trkpt>
      <trkpt lat="55.01176" lon="25.24859">
        <ele>143.806033</ele>
        <time>2020-10-07T13:39:17.548Z</time>
      </trkpt>
      <trkpt lat="55.01128" lon="25.24859">
        <ele>143.138469</ele>
        <time>2020-10-07T13:39:26.517Z</time>
      </trkpt>
      <trkpt lat="55.01059" lon="25.24899">
        <ele>142.416577</ele>
        <time>2020-10-07T13:39:40.588Z</time>
      </trkpt>
      <trkpt lat="55.01049" lon="25.24909">
        <ele>142.366182</ele>
        <time>2020-10-07T13:39:42.872Z</time>
      </trkpt>
      <trkpt lat="55.01027" lon="25.24932">
        <ele>142.250614</ele>
        <time>2020-10-07T13:39:48.159Z</time>
      </trkpt>
      <trkpt lat="55.00766" lon="25.25233">
        <ele>141.151794</ele>
        <time>2020-10-07T13:40:55.115Z</time>
      </trkpt>
      <trkpt lat="55.00711" lon="25.25287">
        <ele>140.709942</ele>
        <time>2020-10-07T13:41:08.202Z</time>
      </trkpt>
      <trkpt lat="55.00692" lon="25.253">
        <ele>140.568892</ele>
        <time>2020-10-07T13:41:12.166Z</time>
      </trkpt>
      <trkpt lat="55.00679" lon="25.25305">
        <ele>140.479282</ele>
        <time>2020-10-07T13:41:14.646Z</time>
      </trkpt>
      <trkpt lat="55.00644" lon="25.25309">
        <ele>140.236013</ele>
        <time>2020-10-07T13:41:21.460Z</time>
      </trkpt>
      <trkpt lat="55.00621" lon="25.25305">
        <ele>140.077645</ele>
        <time>2020-10-07T13:41:25.992Z</time>
      </trkpt>
      <trkpt lat="55.00542" lon="25.25293">
        <ele>139.846461</ele>
        <time>2020-10-07T13:41:41.648Z</time>
      </trkpt>
      <trkpt lat="55.00353" lon="25.25265">
        <ele>140.398264</ele>
        <time>2020-10-07T13:42:25.061Z</time>
      </trkpt>
      <trkpt lat="55.00333" lon="25.25265">
        <ele>140.59765</ele>
        <time>2020-10-07T13:42:30.903Z</time>
      </trkpt>
      <trkpt lat="55.00183" lon="25.25299">
        <ele>142.25412</ele>
        <time>2020-10-07T13:43:14.694Z</time>
      </trkpt>
      <trkpt lat="55.00137" lon="25.25291">
        <ele>142.807086</ele>
        <time>2020-10-07T13:43:27.140Z</time>
      </trkpt>
      <trkpt lat="55.00101" lon="25.25271">
        <ele>143.26523</ele>
        <time>2020-10-07T13:43:37.048Z</time>
      </trkpt>
      <trkpt lat="55.00099" lon="25.2527">
        <ele>143.291401</ele>
        <time>2020-10-07T13:43:37.875Z</time>
      </trkpt>
      <trkpt lat="55.00081" lon="25.25257">
        <ele>143.509997</ele>
        <time>2020-10-07T13:43:42.519Z</time>
      </trkpt>
      <trkpt lat="55.0005" lon="25.25226">
        <ele>143.601607</ele>
        <time>2020-10-07T13:43:51.237Z</time>
      </trkpt>
      <trkpt lat="54.99932" lon="25.2508">
        <ele>143.965785</ele>
        <time>2020-10-07T13:44:24.104Z</time>
      </trkpt>
      <trkpt lat="54.99862" lon="25.25023">
        <ele>143.914689</ele>
        <time>2020-10-07T13:44:41.540Z</time>
      </trkpt>
      <trkpt lat="54.99742" lon="25.2495">
        <ele>143.691561</ele>
        <time>2020-10-07T13:45:09.287Z</time>
      </trkpt>
      <trkpt lat="54.99353" lon="25.2471">
        <ele>141.762446</ele>
        <time>2020-10-07T13:46:31.734Z</time>
      </trkpt>
      <trkpt lat="54.98708" lon="25.2432">
        <ele>144.170754</ele>
        <time>2020-10-07T13:49:18.297Z</time>
      </trkpt>
      <trkpt lat="54.98685" lon="25.24305">
        <ele>144.081509</ele>
        <time>2020-10-07T13:49:23.833Z</time>
      </trkpt>
      <trkpt lat="54.98512" lon="25.24195">
        <ele>142.743418</ele>
        <time>2020-10-07T13:50:00.241Z</time>
      </trkpt>
      <trkpt lat="54.98339" lon="25.24087">
        <ele>140.012654</ele>
        <time>2020-10-07T13:50:33.596Z</time>
      </trkpt>
      <trkpt lat="54.98155" lon="25.23999">
        <ele>136.744408</ele>
        <time>2020-10-07T13:51:07.731Z</time>
      </trkpt>
      <trkpt lat="54.98098" lon="25.23961">
        <ele>135.725565</ele>
        <time>2020-10-07T13:51:18.712Z</time>
      </trkpt>
      <trkpt lat="54.97989" lon="25.23834">
        <ele>135.018699</ele>
        <time>2020-10-07T13:51:43.671Z</time>
      </trkpt>
      <trkpt lat="54.97953" lon="25.23814">
        <ele>134.951779</ele>
        <time>2020-10-07T13:51:52.796Z</time>
      </trkpt>
      <trkpt lat="54.97924" lon="25.23809">
        <ele>134.899905</ele>
        <time>2020-10-07T13:52:00.509Z</time>
      </trkpt>
      <trkpt lat="54.97909" lon="25.23809">
        <ele>134.89717</ele>
        <time>2020-10-07T13:52:04.508Z</time>
      </trkpt>
      <trkpt lat="54.97816" lon="25.23813">
        <ele>136.514883</ele>
        <time>2020-10-07T13:52:32.227Z</time>
      </trkpt>
      <trkpt lat="54.97682" lon="25.23816">
        <ele>138.230008</ele>
        <time>2020-10-07T13:53:12.438Z</time>
      </trkpt>
      <trkpt lat="54.97627" lon="25.23817">
        <ele>138.484088</ele>
        <time>2020-10-07T13:53:26.159Z</time>
      </trkpt>
      <trkpt lat="54.97373" lon="25.23821">
        <ele>137.303733</ele>
        <time>2020-10-07T13:54:17.018Z</time>
      </trkpt>
      <trkpt lat="54.97306" lon="25.23819">
        <ele>136.014851</ele>
        <time>2020-10-07T13:54:28.896Z</time>
      </trkpt>
      <trkpt lat="54.9727" lon="25.23812">
        <ele>135.301749</ele>
        <time>2020-10-07T13:54:35.106Z</time>
      </trkpt>
      <trkpt lat="54.96995" lon="25.23697">
        <ele>130.142448</ele>
        <time>2020-10-07T13:55:24.170Z</time>
      </trkpt>
      <trkpt lat="54.96937" lon="25.23672">
        <ele>130.396903</ele>
        <time>2020-10-07T13:55:38.358Z</time>
      </trkpt>
      <trkpt lat="54.96913" lon="25.23662">
        <ele>130.504257</ele>
        <time>2020-10-07T13:55:44.743Z</time>
      </trkpt>
      <trkpt lat="54.96897" lon="25.23655">
        <ele>130.574458</ele>
        <time>2020-10-07T13:55:49.585Z</time>
      </trkpt>
      <trkpt lat="54.96726" lon="25.23579">
        <ele>132.304269</ele>
        <time>2020-10-07T13:56:40.289Z</time>
      </trkpt>
      <trkpt lat="54.9668" lon="25.23558">
        <ele>132.89243</ele>
        <time>2020-10-07T13:56:52.101Z</time>
      </trkpt>
      <trkpt lat="54.96553" lon="25.23493">
        <ele>133.915533</ele>
        <time>2020-10-07T13:57:22.857Z</time>
      </trkpt>
      <trkpt lat="54.96502" lon="25.23469">
        <ele>134.302259</ele>
        <time>2020-10-07T13:57:37.017Z</time>
      </trkpt>
      <trkpt lat="54.96416" lon="25.23424">
        <ele>136.071892</ele>
        <time>2020-10-07T13:58:04.594Z</time>
      </trkpt>
      <trkpt lat="54.9635" lon="25.2339">
        <ele>137.500502</ele>
        <time>2020-10-07T13:58:26.556Z</time>
      </trkpt>
      <trkpt lat="54.96285" lon="25.23357">
        <ele>138.195188</ele>
        <time>2020-10-07T13:58:47.462Z</time>
      </trkpt>
      <trkpt lat="54.96281" lon="25.23355">
        <ele>138.209144</ele>
        <time>2020-10-07T13:58:48.720Z</time>
      </trkpt>
      <trkpt lat="54.96248" lon="25.23338">
        <ele>138.320022</ele>
        <time>2020-10-07T13:58:58.718Z</time>
      </trkpt>
      <trkpt lat="54.96229" lon="25.23329">
        <ele>138.38153</ele>
        <time>2020-10-07T13:59:03.545Z</time>
      </trkpt>
      <trkpt lat="54.96212" lon="25.2332">
        <ele>138.440018</ele>
        <time>2020-10-07T13:59:07.866Z</time>
      </trkpt>
      <trkpt lat="54.96144" lon="25.23287">
        <ele>138.42058</ele>
        <time>2020-10-07T13:59:21.139Z</time>
      </trkpt>
      <trkpt lat="54.96122" lon="25.23276">
        <ele>137.74763</ele>
        <time>2020-10-07T13:59:24.882Z</time>
      </trkpt>
      <trkpt lat="54.96025" lon="25.23227">
        <ele>134.713842</ele>
        <time>2020-10-07T13:59:41.156Z</time>
      </trkpt>
      <trkpt lat="54.95998" lon="25.23213">
        <ele>133.875646</ele>
        <time>2020-10-07T13:59:45.611Z</time>
      </trkpt>
      <trkpt lat="54.95977" lon="25.23203">
        <ele>133.246877</ele>
        <time>2020-10-07T13:59:49.115Z</time>
      </trkpt>
      <trkpt lat="54.95953" lon="25.2319">
        <ele>132.927066</ele>
        <time>2020-10-07T13:59:53.261Z</time>
      </trkpt>
      <trkpt lat="54.95845" lon="25.23135">
        <ele>131.512281</ele>
        <time>2020-10-07T14:00:13.587Z</time>
      </trkpt>
      <trkpt lat="54.95837" lon="25.23131">
        <ele>131.400707</ele>
        <time>2020-10-07T14:00:15.957Z</time>
      </trkpt>
      <trkpt lat="54.95753" lon="25.2309">
        <ele>131.863083</ele>
        <time>2020-10-07T14:00:39.476Z</time>
      </trkpt>
      <trkpt lat="54.9565" lon="25.23039">
        <ele>133.572183</ele>
        <time>2020-10-07T14:01:12.321Z</time>
      </trkpt>
      <trkpt lat="54.95634" lon="25.23032">
        <ele>133.830667</ele>
        <time>2020-10-07T14:01:16.906Z</time>
      </trkpt>
      <trkpt lat="54.95632" lon="25.23032">
        <ele>133.862492</ele>
        <time>2020-10-07T14:01:17.915Z</time>
      </trkpt>
      <trkpt lat="54.9562" lon="25.2303">
        <ele>133.987562</ele>
        <time>2020-10-07T14:01:21.153Z</time>
      </trkpt>
      <trkpt lat="54.95607" lon="25.23028">
        <ele>134.121366</ele>
        <time>2020-10-07T14:01:24.756Z</time>
      </trkpt>
      <trkpt lat="54.95604" lon="25.23028">
        <ele>134.153048</ele>
        <time>2020-10-07T14:01:25.715Z</time>
      </trkpt>
      <trkpt lat="54.95548" lon="25.23036">
        <ele>134.722921</ele>
        <time>2020-10-07T14:01:40.958Z</time>
      </trkpt>
      <trkpt lat="54.95539" lon="25.23039">
        <ele>134.815099</ele>
        <time>2020-10-07T14:01:43.283Z</time>
      </trkpt>
      <trkpt lat="54.95528" lon="25.23042">
        <ele>134.934084</ele>
        <time>2020-10-07T14:01:46.240Z</time>
      </trkpt>
      <trkpt lat="54.95503" lon="25.23054">
        <ele>135.191516</ele>
        <time>2020-10-07T14:01:52.725Z</time>
      </trkpt>
      <trkpt lat="54.95462" lon="25.23086">
        <ele>135.655019</ele>
        <time>2020-10-07T14:02:03.821Z</time>
      </trkpt>
      <trkpt lat="54.95419" lon="25.23139">
        <ele>136.007892</ele>
        <time>2020-10-07T14:02:15.604Z</time>
      </trkpt>
      <trkpt lat="54.95326" lon="25.23293">
        <ele>136.836781</ele>
        <time>2020-10-07T14:02:48.078Z</time>
      </trkpt>
      <trkpt lat="54.95309" lon="25.23323">
        <ele>136.954134</ele>
        <time>2020-10-07T14:02:54.631Z</time>
      </trkpt>
      <trkpt lat="54.95251" lon="25.2342">
        <ele>137.321945</ele>
        <time>2020-10-07T14:03:15.666Z</time>
      </trkpt>
      <trkpt lat="54.9524" lon="25.23437">
        <ele>137.388507</ele>
        <time>2020-10-07T14:03:19.114Z</time>
      </trkpt>
      <trkpt lat="54.95236" lon="25.23445">
        <ele>137.418173</ele>
        <time>2020-10-07T14:03:20.725Z</time>
      </trkpt>
      <trkpt lat="54.95228" lon="25.23458">
        <ele>137.468531</ele>
        <time>2020-10-07T14:03:23.380Z</time>
      </trkpt>
      <trkpt lat="54.95193" lon="25.23516">
        <ele>137.666175</ele>
        <time>2020-10-07T14:03:34.189Z</time>
      </trkpt>
      <trkpt lat="54.95164" lon="25.23557">
        <ele>137.458513</ele>
        <time>2020-10-07T14:03:41.207Z</time>
      </trkpt>
      <trkpt lat="54.95146" lon="25.2358">
        <ele>137.334759</ele>
        <time>2020-10-07T14:03:45.355Z</time>
      </trkpt>
      <trkpt lat="54.95129" lon="25.236">
        <ele>137.21571</ele>
        <time>2020-10-07T14:03:49.313Z</time>
      </trkpt>
      <trkpt lat="54.95071" lon="25.23646">
        <ele>136.855059</ele>
        <time>2020-10-07T14:04:02.100Z</time>
      </trkpt>
      <trkpt lat="54.95068" lon="25.23648">
        <ele>136.840553</ele>
        <time>2020-10-07T14:04:02.526Z</time>
      </trkpt>
      <trkpt lat="54.95041" lon="25.23666">
        <ele>136.67532</ele>
        <time>2020-10-07T14:04:08.836Z</time>
      </trkpt>
      <trkpt lat="54.95034" lon="25.23671">
        <ele>136.734471</ele>
        <time>2020-10-07T14:04:10.728Z</time>
      </trkpt>
      <trkpt lat="54.94981" lon="25.23667">
        <ele>137.375665</ele>
        <time>2020-10-07T14:04:23.216Z</time>
      </trkpt>
      <trkpt lat="54.94945" lon="25.23662">
        <ele>137.813981</ele>
        <time>2020-10-07T14:04:32.706Z</time>
      </trkpt>
      <trkpt lat="54.94936" lon="25.2366">
        <ele>137.922966</ele>
        <time>2020-10-07T14:04:35.101Z</time>
      </trkpt>
      <trkpt lat="54.94872" lon="25.2365">
        <ele>138.711173</ele>
        <time>2020-10-07T14:04:54.529Z</time>
      </trkpt>
      <trkpt lat="54.94835" lon="25.23644">
        <ele>139.629613</ele>
        <time>2020-10-07T14:05:06.403Z</time>
      </trkpt>
      <trkpt lat="54.94755" lon="25.2363">
        <ele>142.114507</ele>
        <time>2020-10-07T14:05:34.724Z</time>
      </trkpt>
      <trkpt lat="54.94744" lon="25.23629">
        <ele>142.438544</ele>
        <time>2020-10-07T14:05:38.455Z</time>
      </trkpt>
      <trkpt lat="54.94719" lon="25.23624">
        <ele>143.225778</ele>
        <time>2020-10-07T14:05:47.384Z</time>
      </trkpt>
      <trkpt lat="54.94698" lon="25.23621">
        <ele>143.855497</ele>
        <time>2020-10-07T14:05:54.621Z</time>
      </trkpt>
      <trkpt lat="54.94692" lon="25.2362">
        <ele>144.037488</ele>
        <time>2020-10-07T14:05:56.742Z</time>
      </trkpt>
      <trkpt lat="54.94689" lon="25.23619">
        <ele>144.136386</ele>
        <time>2020-10-07T14:05:57.893Z</time>
      </trkpt>
      <trkpt lat="54.94688" lon="25.23619">
        <ele>144.182614</ele>
        <time>2020-10-07T14:05:58.411Z</time>
      </trkpt>
      <trkpt lat="54.94649" lon="25.23613">
        <ele>145.688687</ele>
        <time>2020-10-07T14:06:12.690Z</time>
      </trkpt>
      <trkpt lat="54.94629" lon="25.23609">
        <ele>146.504155</ele>
        <time>2020-10-07T14:06:20.421Z</time>
      </trkpt>
      <trkpt lat="54.94618" lon="25.23608">
        <ele>146.958338</ele>
        <time>2020-10-07T14:06:24.769Z</time>
      </trkpt>
      <trkpt lat="54.94604" lon="25.23605">
        <ele>147.530417</ele>
        <time>2020-10-07T14:06:30.272Z</time>
      </trkpt>
      <trkpt lat="54.9459" lon="25.23603">
        <ele>148.069895</ele>
        <time>2020-10-07T14:06:35.587Z</time>
      </trkpt>
      <trkpt lat="54.94584" lon="25.23602">
        <ele>148.305247</ele>
        <time>2020-10-07T14:06:37.926Z</time>
      </trkpt>
      <trkpt lat="54.94568" lon="25.23599">
        <ele>148.986522</ele>
        <time>2020-10-07T14:06:44.679Z</time>
      </trkpt>
      <trkpt lat="54.94558" lon="25.23597">
        <ele>149.378836</ele>
        <time>2020-10-07T14:06:48.658Z</time>
      </trkpt>
      <trkpt lat="54.94546" lon="25.23593">
        <ele>149.873044</ele>
        <time>2020-10-07T14:06:53.681Z</time>
      </trkpt>
      <trkpt lat="54.94533" lon="25.2359">
        <ele>150.399886</ele>
        <time>2020-10-07T14:06:58.977Z</time>
      </trkpt>
      <trkpt lat="54.94527" lon="25.23588">
        <ele>150.665303</ele>
        <time>2020-10-07T14:07:01.759Z</time>
      </trkpt>
      <trkpt lat="54.94512" lon="25.23585">
        <ele>151.249431</ele>
        <time>2020-10-07T14:07:07.457Z</time>
      </trkpt>
      <trkpt lat="54.94508" lon="25.23583">
        <ele>151.421297</ele>
        <time>2020-10-07T14:07:09.084Z</time>
      </trkpt>
      <trkpt lat="54.94499" lon="25.23581">
        <ele>151.755954</ele>
        <time>2020-10-07T14:07:12.706Z</time>
      </trkpt>
      <trkpt lat="54.94471" lon="25.23574">
        <ele>152.509533</ele>
        <time>2020-10-07T14:07:23.090Z</time>
      </trkpt>
      <trkpt lat="54.94457" lon="25.2357">
        <ele>152.901305</ele>
        <time>2020-10-07T14:07:28.311Z</time>
      </trkpt>
      <trkpt lat="54.94445" lon="25.23567">
        <ele>153.235836</ele>
        <time>2020-10-07T14:07:32.633Z</time>
      </trkpt>
      <trkpt lat="54.94401" lon="25.23556">
        <ele>154.42815</ele>
        <time>2020-10-07T14:07:47.618Z</time>
      </trkpt>
      <trkpt lat="54.944" lon="25.23556">
        <ele>154.455664</ele>
        <time>2020-10-07T14:07:47.922Z</time>
      </trkpt>
      <trkpt lat="54.94392" lon="25.23554">
        <ele>154.68599</ele>
        <time>2020-10-07T14:07:50.709Z</time>
      </trkpt>
      <trkpt lat="54.94387" lon="25.23552">
        <ele>154.825749</ele>
        <time>2020-10-07T14:07:52.418Z</time>
      </trkpt>
      <trkpt lat="54.94366" lon="25.23547">
        <ele>155.384561</ele>
        <time>2020-10-07T14:07:58.861Z</time>
      </trkpt>
      <trkpt lat="54.94362" lon="25.23546">
        <ele>155.51068</ele>
        <time>2020-10-07T14:08:00.261Z</time>
      </trkpt>
      <trkpt lat="54.94342" lon="25.23541">
        <ele>156.057891</ele>
        <time>2020-10-07T14:08:06.258Z</time>
      </trkpt>
      <trkpt lat="54.94334" lon="25.23539">
        <ele>156.26876</ele>
        <time>2020-10-07T14:08:08.526Z</time>
      </trkpt>
      <trkpt lat="54.94313" lon="25.23537">
        <ele>156.422749</ele>
        <time>2020-10-07T14:08:14.332Z</time>
      </trkpt>
      <trkpt lat="54.94299" lon="25.23536">
        <ele>156.298802</ele>
        <time>2020-10-07T14:08:17.977Z</time>
      </trkpt>
      <trkpt lat="54.94298" lon="25.23536">
        <ele>156.288994</ele>
        <time>2020-10-07T14:08:18.279Z</time>
      </trkpt>
      <trkpt lat="54.94293" lon="25.23537">
        <ele>156.247896</ele>
        <time>2020-10-07T14:08:19.187Z</time>
      </trkpt>
      <trkpt lat="54.94284" lon="25.23538">
        <ele>156.164868</ele>
        <time>2020-10-07T14:08:21.430Z</time>
      </trkpt>
      <trkpt lat="54.94272" lon="25.23542">
        <ele>156.056282</ele>
        <time>2020-10-07T14:08:24.259Z</time>
      </trkpt>
      <trkpt lat="54.94265" lon="25.23546">
        <ele>155.99105</ele>
        <time>2020-10-07T14:08:25.909Z</time>
      </trkpt>
      <trkpt lat="54.94255" lon="25.23552">
        <ele>155.896734</ele>
        <time>2020-10-07T14:08:27.958Z</time>
      </trkpt>
      <trkpt lat="54.9425" lon="25.23555">
        <ele>155.84385</ele>
        <time>2020-10-07T14:08:29.236Z</time>
      </trkpt>
      <trkpt lat="54.9424" lon="25.23561">
        <ele>155.754081</ele>
        <time>2020-10-07T14:08:31.243Z</time>
      </trkpt>
      <trkpt lat="54.94233" lon="25.23565">
        <ele>155.68806</ele>
        <time>2020-10-07T14:08:32.681Z</time>
      </trkpt>
      <trkpt lat="54.94211" lon="25.23582">
        <ele>155.47404</ele>
        <time>2020-10-07T14:08:37.076Z</time>
      </trkpt>
      <trkpt lat="54.94162" lon="25.23618">
        <ele>154.999598</ele>
        <time>2020-10-07T14:08:46.312Z</time>
      </trkpt>
      <trkpt lat="54.94161" lon="25.23618">
        <ele>154.990808</ele>
        <time>2020-10-07T14:08:46.445Z</time>
      </trkpt>
      <trkpt lat="54.94147" lon="25.2363">
        <ele>154.670659</ele>
        <time>2020-10-07T14:08:49.179Z</time>
      </trkpt>
      <trkpt lat="54.94129" lon="25.23645">
        <ele>154.081471</ele>
        <time>2020-10-07T14:08:52.349Z</time>
      </trkpt>
      <trkpt lat="54.94123" lon="25.23649">
        <ele>153.882988</ele>
        <time>2020-10-07T14:08:53.388Z</time>
      </trkpt>
      <trkpt lat="54.94111" lon="25.2366">
        <ele>153.458742</ele>
        <time>2020-10-07T14:08:55.729Z</time>
      </trkpt>
      <trkpt lat="54.94108" lon="25.23662">
        <ele>153.373367</ele>
        <time>2020-10-07T14:08:56.182Z</time>
      </trkpt>
      <trkpt lat="54.94091" lon="25.23677">
        <ele>152.792125</ele>
        <time>2020-10-07T14:08:59.269Z</time>
      </trkpt>
      <trkpt lat="54.94065" lon="25.23705">
        <ele>151.845372</ele>
        <time>2020-10-07T14:09:04.331Z</time>
      </trkpt>
      <trkpt lat="54.94043" lon="25.23728">
        <ele>151.0833</ele>
        <time>2020-10-07T14:09:08.494Z</time>
      </trkpt>
      <trkpt lat="54.94035" lon="25.23738">
        <ele>150.769071</ele>
        <time>2020-10-07T14:09:10.083Z</time>
      </trkpt>
      <trkpt lat="54.94019" lon="25.23756">
        <ele>150.193578</ele>
        <time>2020-10-07T14:09:13.169Z</time>
      </trkpt>
      <trkpt lat="54.93996" lon="25.2378">
        <ele>149.402816</ele>
        <time>2020-10-07T14:09:17.426Z</time>
      </trkpt>
      <trkpt lat="54.93975" lon="25.23803">
        <ele>148.926724</ele>
        <time>2020-10-07T14:09:21.577Z</time>
      </trkpt>
      <trkpt lat="54.93957" lon="25.23824">
        <ele>148.501858</ele>
        <time>2020-10-07T14:09:25.321Z</time>
      </trkpt>
      <trkpt lat="54.93935" lon="25.2385">
        <ele>147.987172</ele>
        <time>2020-10-07T14:09:29.907Z</time>
      </trkpt>
      <trkpt lat="54.93921" lon="25.23863">
        <ele>147.679795</ele>
        <time>2020-10-07T14:09:32.923Z</time>
      </trkpt>
      <trkpt lat="54.93911" lon="25.23872">
        <ele>147.472722</ele>
        <time>2020-10-07T14:09:34.829Z</time>
      </trkpt>
      <trkpt lat="54.93904" lon="25.23876">
        <ele>147.336115</ele>
        <time>2020-10-07T14:09:36.051Z</time>
      </trkpt>
      <trkpt lat="54.93895" lon="25.23882">
        <ele>147.151915</ele>
        <time>2020-10-07T14:09:37.846Z</time>
      </trkpt>
      <trkpt lat="54.93875" lon="25.2389">
        <ele>146.751657</ele>
        <time>2020-10-07T14:09:41.827Z</time>
      </trkpt>
      <trkpt lat="54.93869" lon="25.23891">
        <ele>146.622413</ele>
        <time>2020-10-07T14:09:43.005Z</time>
      </trkpt>
      <trkpt lat="54.93857" lon="25.2389">
        <ele>146.404564</ele>
        <time>2020-10-07T14:09:45.311Z</time>
      </trkpt>
      <trkpt lat="54.93835" lon="25.23882">
        <ele>145.970486</ele>
        <time>2020-10-07T14:09:49.656Z</time>
      </trkpt>
      <trkpt lat="54.93787" lon="25.23836">
        <ele>145.625726</ele>
        <time>2020-10-07T14:10:00.305Z</time>
      </trkpt>
      <trkpt lat="54.93764" lon="25.23814">
        <ele>145.464459</ele>
        <time>2020-10-07T14:10:05.174Z</time>
      </trkpt>
      <trkpt lat="54.9376" lon="25.23809">
        <ele>145.431156</ele>
        <time>2020-10-07T14:10:06.270Z</time>
      </trkpt>
      <trkpt lat="54.93641" lon="25.23691">
        <ele>144.820404</ele>
        <time>2020-10-07T14:10:35.465Z</time>
      </trkpt>
      <trkpt lat="54.9356" lon="25.23627">
        <ele>144.771262</ele>
        <time>2020-10-07T14:10:55.298Z</time>
      </trkpt>
      <trkpt lat="54.93513" lon="25.23603">
        <ele>144.745592</ele>
        <time>2020-10-07T14:11:06.340Z</time>
      </trkpt>
      <trkpt lat="54.935" lon="25.23598">
        <ele>144.74739</ele>
        <time>2020-10-07T14:11:09.314Z</time>
      </trkpt>
      <trkpt lat="54.93471" lon="25.23591">
        <ele>144.751392</ele>
        <time>2020-10-07T14:11:15.859Z</time>
      </trkpt>
      <trkpt lat="54.93398" lon="25.23585">
        <ele>144.761483</ele>
        <time>2020-10-07T14:11:32.088Z</time>
      </trkpt>
      <trkpt lat="54.93182" lon="25.23597">
        <ele>145.329178</ele>
        <time>2020-10-07T14:12:20.150Z</time>
      </trkpt>
      <trkpt lat="54.93168" lon="25.23598">
        <ele>145.378315</ele>
        <time>2020-10-07T14:12:23.724Z</time>
      </trkpt>
      <trkpt lat="54.93119" lon="25.23601">
        <ele>146.43066</ele>
        <time>2020-10-07T14:12:38.187Z</time>
      </trkpt>
      <trkpt lat="54.92908" lon="25.23616">
        <ele>152.483553</ele>
        <time>2020-10-07T14:13:51.995Z</time>
      </trkpt>
      <trkpt lat="54.92823" lon="25.23622">
        <ele>155.21018</ele>
        <time>2020-10-07T14:14:22.113Z</time>
      </trkpt>
      <trkpt lat="54.9269" lon="25.23629">
        <ele>159.196772</ele>
        <time>2020-10-07T14:15:07.986Z</time>
      </trkpt>
      <trkpt lat="54.92543" lon="25.23638">
        <ele>163.304508</ele>
        <time>2020-10-07T14:15:57.252Z</time>
      </trkpt>
      <trkpt lat="54.92476" lon="25.23656">
        <ele>165.100373</ele>
        <time>2020-10-07T14:16:19.666Z</time>
      </trkpt>
      <trkpt lat="54.9245" lon="25.23663">
        <ele>165.7984</ele>
        <time>2020-10-07T14:16:28.180Z</time>
      </trkpt>
      <trkpt lat="54.92349" lon="25.23692">
        <ele>167.441925</ele>
        <time>2020-10-07T14:17:00.253Z</time>
      </trkpt>
      <trkpt lat="54.92265" lon="25.23715">
        <ele>168.659305</ele>
        <time>2020-10-07T14:17:22.065Z</time>
      </trkpt>
      <trkpt lat="54.9225" lon="25.23719">
        <ele>168.669408</ele>
        <time>2020-10-07T14:17:25.920Z</time>
      </trkpt>
      <trkpt lat="54.92108" lon="25.23759">
        <ele>167.722362</ele>
        <time>2020-10-07T14:17:54.862Z</time>
      </trkpt>
      <trkpt lat="54.91991" lon="25.23792">
        <ele>166.314289</ele>
        <time>2020-10-07T14:18:16.368Z</time>
      </trkpt>
      <trkpt lat="54.91772" lon="25.23854">
        <ele>164.413683</ele>
        <time>2020-10-07T14:18:58.679Z</time>
      </trkpt>
      <trkpt lat="54.91275" lon="25.2399">
        <ele>168.482729</ele>
        <time>2020-10-07T14:21:06.895Z</time>
      </trkpt>
      <trkpt lat="54.91073" lon="25.24045">
        <ele>172.223398</ele>
        <time>2020-10-07T14:22:13.061Z</time>
      </trkpt>
      <trkpt lat="54.90919" lon="25.24087">
        <ele>173.953096</ele>
        <time>2020-10-07T14:22:53.489Z</time>
      </trkpt>
      <trkpt lat="54.90741" lon="25.2414">
        <ele>174.475527</ele>
        <time>2020-10-07T14:23:34.958Z</time>
      </trkpt>
      <trkpt lat="54.90297" lon="25.24277">
        <ele>173.82297</ele>
        <time>2020-10-07T14:25:13.284Z</time>
      </trkpt>
      <trkpt lat="54.90049" lon="25.24353">
        <ele>171.015127</ele>
        <time>2020-10-07T14:26:01.144Z</time>
      </trkpt>
      <trkpt lat="54.89938" lon="25.24387">
        <ele>169.437824</ele>
        <time>2020-10-07T14:26:21.789Z</time>
      </trkpt>
      <trkpt lat="54.89794" lon="25.24432">
        <ele>167.26142</ele>
        <time>2020-10-07T14:26:48.761Z</time>
      </trkpt>
      <trkpt lat="54.89734" lon="25.24451">
        <ele>166.445365</ele>
        <time>2020-10-07T14:26:59.927Z</time>
      </trkpt>
      <trkpt lat="54.89692" lon="25.24463">
        <ele>165.911108</ele>
        <time>2020-10-07T14:27:07.763Z</time>
      </trkpt>
      <trkpt lat="54.89651" lon="25.24465">
        <ele>165.392517</ele>
        <time>2020-10-07T14:27:15.511Z</time>
      </trkpt>
      <trkpt lat="54.89627" lon="25.24462">
        <ele>165.092986</ele>
        <time>2020-10-07T14:27:19.943Z</time>
      </trkpt>
      <trkpt lat="54.89626" lon="25.24462">
        <ele>165.074011</ele>
        <time>2020-10-07T14:27:20.176Z</time>
      </trkpt>
      <trkpt lat="54.89592" lon="25.24456">
        <ele>164.677526</ele>
        <time>2020-10-07T14:27:26.751Z</time>
      </trkpt>
      <trkpt lat="54.89433" lon="25.24432">
        <ele>163.421051</ele>
        <time>2020-10-07T14:27:58.836Z</time>
      </trkpt>
      <trkpt lat="54.89343" lon="25.24414">
        <ele>162.512615</ele>
        <time>2020-10-07T14:28:16.369Z</time>
      </trkpt>
      <trkpt lat="54.89315" lon="25.24411">
        <ele>162.217949</ele>
        <time>2020-10-07T14:28:21.712Z</time>
      </trkpt>
      <trkpt lat="54.89279" lon="25.24406">
        <ele>161.832945</ele>
        <time>2020-10-07T14:28:28.640Z</time>
      </trkpt>
      <trkpt lat="54.89225" lon="25.24404">
        <ele>161.289639</ele>
        <time>2020-10-07T14:28:38.917Z</time>
      </trkpt>
      <trkpt lat="54.89153" lon="25.24409">
        <ele>160.632122</ele>
        <time>2020-10-07T14:28:52.962Z</time>
      </trkpt>
      <trkpt lat="54.89134" lon="25.24406">
        <ele>160.452855</ele>
        <time>2020-10-07T14:28:56.765Z</time>
      </trkpt>
      <trkpt lat="54.89043" lon="25.24368">
        <ele>159.522715</ele>
        <time>2020-10-07T14:29:15.343Z</time>
      </trkpt>
      <trkpt lat="54.88941" lon="25.24326">
        <ele>158.120104</ele>
        <time>2020-10-07T14:29:34.977Z</time>
      </trkpt>
      <trkpt lat="54.88902" lon="25.24312">
        <ele>157.587053</ele>
        <time>2020-10-07T14:29:42.205Z</time>
      </trkpt>
      <trkpt lat="54.88884" lon="25.24311">
        <ele>157.346439</ele>
        <time>2020-10-07T14:29:45.363Z</time>
      </trkpt>
      <trkpt lat="54.88843" lon="25.24314">
        <ele>156.857475</ele>
        <time>2020-10-07T14:29:52.725Z</time>
      </trkpt>
      <trkpt lat="54.88778" lon="25.24322">
        <ele>156.077567</ele>
        <time>2020-10-07T14:30:04.665Z</time>
      </trkpt>
      <trkpt lat="54.88684" lon="25.24333">
        <ele>155.393357</ele>
        <time>2020-10-07T14:30:23.728Z</time>
      </trkpt>
      <trkpt lat="54.88677" lon="25.24334">
        <ele>155.440845</ele>
        <time>2020-10-07T14:30:25.148Z</time>
      </trkpt>
      <trkpt lat="54.88665" lon="25.24336">
        <ele>155.522769</ele>
        <time>2020-10-07T14:30:27.785Z</time>
      </trkpt>
      <trkpt lat="54.88531" lon="25.24394">
        <ele>156.468757</ele>
        <time>2020-10-07T14:31:04.290Z</time>
      </trkpt>
      <trkpt lat="54.88482" lon="25.24399">
        <ele>156.872025</ele>
        <time>2020-10-07T14:31:18.237Z</time>
      </trkpt>
      <trkpt lat="54.88452" lon="25.24389">
        <ele>157.122562</ele>
        <time>2020-10-07T14:31:26.771Z</time>
      </trkpt>
      <trkpt lat="54.88417" lon="25.24375">
        <ele>157.42022</ele>
        <time>2020-10-07T14:31:36.388Z</time>
      </trkpt>
      <trkpt lat="54.88387" lon="25.24365">
        <ele>157.667989</ele>
        <time>2020-10-07T14:31:44.130Z</time>
      </trkpt>
      <trkpt lat="54.88358" lon="25.24362">
        <ele>157.905389</ele>
        <time>2020-10-07T14:31:50.697Z</time>
      </trkpt>
      <trkpt lat="54.88241" lon="25.24377">
        <ele>156.956631</ele>
        <time>2020-10-07T14:32:14.118Z</time>
      </trkpt>
      <trkpt lat="54.88202" lon="25.24382">
        <ele>156.614665</ele>
        <time>2020-10-07T14:32:21.173Z</time>
      </trkpt>
      <trkpt lat="54.88093" lon="25.24395">
        <ele>155.763913</ele>
        <time>2020-10-07T14:32:41.751Z</time>
      </trkpt>
      <trkpt lat="54.88088" lon="25.24396">
        <ele>155.72682</ele>
        <time>2020-10-07T14:32:42.728Z</time>
      </trkpt>
      <trkpt lat="54.87958" lon="25.24412">
        <ele>154.930893</ele>
        <time>2020-10-07T14:33:10.188Z</time>
      </trkpt>
      <trkpt lat="54.87918" lon="25.2443">
        <ele>154.834437</ele>
        <time>2020-10-07T14:33:19.152Z</time>
      </trkpt>
      <trkpt lat="54.8782" lon="25.24522">
        <ele>154.564632</ele>
        <time>2020-10-07T14:33:43.258Z</time>
      </trkpt>
      <trkpt lat="54.87596" lon="25.24734">
        <ele>154.271075</ele>
        <time>2020-10-07T14:34:37.099Z</time>
      </trkpt>
      <trkpt lat="54.8759" lon="25.24738">
        <ele>154.286907</ele>
        <time>2020-10-07T14:34:38.561Z</time>
      </trkpt>
      <trkpt lat="54.87575" lon="25.24749">
        <ele>154.324353</ele>
        <time>2020-10-07T14:34:42.035Z</time>
      </trkpt>
      <trkpt lat="54.87455" lon="25.24796">
        <ele>155.432343</ele>
        <time>2020-10-07T14:35:13.761Z</time>
      </trkpt>
      <trkpt lat="54.87418" lon="25.24809">
        <ele>156.129241</ele>
        <time>2020-10-07T14:35:25.107Z</time>
      </trkpt>
      <trkpt lat="54.87412" lon="25.24812">
        <ele>156.257715</ele>
        <time>2020-10-07T14:35:27.338Z</time>
      </trkpt>
      <trkpt lat="54.87353" lon="25.24832">
        <ele>157.372152</ele>
        <time>2020-10-07T14:35:46.239Z</time>
      </trkpt>
      <trkpt lat="54.8727" lon="25.24862">
        <ele>159.016242</ele>
        <time>2020-10-07T14:36:13.490Z</time>
      </trkpt>
      <trkpt lat="54.87193" lon="25.24889">
        <ele>160.593389</ele>
        <time>2020-10-07T14:36:37.822Z</time>
      </trkpt>
      <trkpt lat="54.87168" lon="25.249">
        <ele>161.109237</ele>
        <time>2020-10-07T14:36:45.153Z</time>
      </trkpt>
      <trkpt lat="54.87145" lon="25.24912">
        <ele>161.492612</ele>
        <time>2020-10-07T14:36:51.762Z</time>
      </trkpt>
      <trkpt lat="54.87059" lon="25.25">
        <ele>162.255953</ele>
        <time>2020-10-07T14:37:17.086Z</time>
      </trkpt>
      <trkpt lat="54.86963" lon="25.25107">
        <ele>162.786472</ele>
        <time>2020-10-07T14:37:44.678Z</time>
      </trkpt>
      <trkpt lat="54.86954" lon="25.25117">
        <ele>162.781755</ele>
        <time>2020-10-07T14:37:47.190Z</time>
      </trkpt>
      <trkpt lat="54.86958" lon="25.25129">
        <ele>162.778121</ele>
        <time>2020-10-07T14:37:49.189Z</time>
      </trkpt>
      <trkpt lat="54.86958" lon="25.25324">
        <ele>162.72674</ele>
        <time>2020-10-07T14:38:13.847Z</time>
      </trkpt>
      <trkpt lat="54.86957" lon="25.25397">
        <ele>162.265514</ele>
        <time>2020-10-07T14:38:22.056Z</time>
      </trkpt>
      <trkpt lat="54.86959" lon="25.25539">
        <ele>161.187412</ele>
        <time>2020-10-07T14:38:37.163Z</time>
      </trkpt>
      <trkpt lat="54.86959" lon="25.25634">
        <ele>160.471316</ele>
        <time>2020-10-07T14:38:47.046Z</time>
      </trkpt>
      <trkpt lat="54.86958" lon="25.25695">
        <ele>159.890357</ele>
        <time>2020-10-07T14:38:53.344Z</time>
      </trkpt>
      <trkpt lat="54.86956" lon="25.25754">
        <ele>159.293465</ele>
        <time>2020-10-07T14:38:59.468Z</time>
      </trkpt>
      <trkpt lat="54.86954" lon="25.25792">
        <ele>158.903371</ele>
        <time>2020-10-07T14:39:03.489Z</time>
      </trkpt>
      <trkpt lat="54.86952" lon="25.25812">
        <ele>158.702023</ele>
        <time>2020-10-07T14:39:05.606Z</time>
      </trkpt>
      <trkpt lat="54.86948" lon="25.25835">
        <ele>158.461647</ele>
        <time>2020-10-07T14:39:08.069Z</time>
      </trkpt>
      <trkpt lat="54.86944" lon="25.2586">
        <ele>158.199868</ele>
        <time>2020-10-07T14:39:10.728Z</time>
      </trkpt>
      <trkpt lat="54.86937" lon="25.25883">
        <ele>157.938584</ele>
        <time>2020-10-07T14:39:13.410Z</time>
      </trkpt>
      <trkpt lat="54.86898" lon="25.26035">
        <ele>156.334443</ele>
        <time>2020-10-07T14:39:30.616Z</time>
      </trkpt>
      <trkpt lat="54.86895" lon="25.26048">
        <ele>156.206026</ele>
        <time>2020-10-07T14:39:32.088Z</time>
      </trkpt>
      <trkpt lat="54.86886" lon="25.26089">
        <ele>155.804847</ele>
        <time>2020-10-07T14:39:36.555Z</time>
      </trkpt>
      <trkpt lat="54.86879" lon="25.26131">
        <ele>155.406446</ele>
        <time>2020-10-07T14:39:41.006Z</time>
      </trkpt>
      <trkpt lat="54.86871" lon="25.26183">
        <ele>154.912692</ele>
        <time>2020-10-07T14:39:46.582Z</time>
      </trkpt>
      <trkpt lat="54.86865" lon="25.26248">
        <ele>154.319157</ele>
        <time>2020-10-07T14:39:53.634Z</time>
      </trkpt>
      <trkpt lat="54.86865" lon="25.26259">
        <ele>154.344846</ele>
        <time>2020-10-07T14:39:54.729Z</time>
      </trkpt>
      <trkpt lat="54.86866" lon="25.26297">
        <ele>154.432698</ele>
        <time>2020-10-07T14:39:59.174Z</time>
      </trkpt>
      <trkpt lat="54.86875" lon="25.26433">
        <ele>154.745791</ele>
        <time>2020-10-07T14:40:16.515Z</time>
      </trkpt>
      <trkpt lat="54.86875" lon="25.26442">
        <ele>154.76767</ele>
        <time>2020-10-07T14:40:17.755Z</time>
      </trkpt>
      <trkpt lat="54.86877" lon="25.26459">
        <ele>154.807359</ele>
        <time>2020-10-07T14:40:20.275Z</time>
      </trkpt>
      <trkpt lat="54.86877" lon="25.2647">
        <ele>154.830918</ele>
        <time>2020-10-07T14:40:22.301Z</time>
      </trkpt>
      <trkpt lat="54.86886" lon="25.26605">
        <ele>155.665817</ele>
        <time>2020-10-07T14:40:45.292Z</time>
      </trkpt>
      <trkpt lat="54.86887" lon="25.26625">
        <ele>155.925275</ele>
        <time>2020-10-07T14:40:49.043Z</time>
      </trkpt>
      <trkpt lat="54.86887" lon="25.26647">
        <ele>156.212558</ele>
        <time>2020-10-07T14:40:53.009Z</time>
      </trkpt>
      <trkpt lat="54.86887" lon="25.26727">
        <ele>157.275707</ele>
        <time>2020-10-07T14:41:08.790Z</time>
      </trkpt>
      <trkpt lat="54.86885" lon="25.26851">
        <ele>158.900073</ele>
        <time>2020-10-07T14:41:31.969Z</time>
      </trkpt>
      <trkpt lat="54.86883" lon="25.2694">
        <ele>159.184506</ele>
        <time>2020-10-07T14:41:47.245Z</time>
      </trkpt>
      <trkpt lat="54.86882" lon="25.2695">
        <ele>159.189943</ele>
        <time>2020-10-07T14:41:48.706Z</time>
      </trkpt>
      <trkpt lat="54.86878" lon="25.27035">
        <ele>159.236329</ele>
        <time>2020-10-07T14:42:00.230Z</time>
      </trkpt>
      <trkpt lat="54.86877" lon="25.27052">
        <ele>159.245597</ele>
        <time>2020-10-07T14:42:02.546Z</time>
      </trkpt>
      <trkpt lat="54.86876" lon="25.27076">
        <ele>159.258576</ele>
        <time>2020-10-07T14:42:05.321Z</time>
      </trkpt>
      <trkpt lat="54.86873" lon="25.27127">
        <ele>159.286542</ele>
        <time>2020-10-07T14:42:11.136Z</time>
      </trkpt>
      <trkpt lat="54.86873" lon="25.27154">
        <ele>159.301419</ele>
        <time>2020-10-07T14:42:13.954Z</time>
      </trkpt>
      <trkpt lat="54.86876" lon="25.272">
        <ele>159.092386</ele>
        <time>2020-10-07T14:42:18.899Z</time>
      </trkpt>
      <trkpt lat="54.86887" lon="25.27256">
        <ele>158.391444</ele>
        <time>2020-10-07T14:42:24.873Z</time>
      </trkpt>
      <trkpt lat="54.86893" lon="25.27282">
        <ele>158.054438</ele>
        <time>2020-10-07T14:42:27.639Z</time>
      </trkpt>
      <trkpt lat="54.86894" lon="25.2729">
        <ele>157.953856</ele>
        <time>2020-10-07T14:42:28.577Z</time>
      </trkpt>
      <trkpt lat="54.86898" lon="25.2731">
        <ele>157.706626</ele>
        <time>2020-10-07T14:42:30.628Z</time>
      </trkpt>
      <trkpt lat="54.8691" lon="25.27417">
        <ele>156.420168</ele>
        <time>2020-10-07T14:42:41.124Z</time>
      </trkpt>
      <trkpt lat="54.86904" lon="25.27544">
        <ele>155.649624</ele>
        <time>2020-10-07T14:42:54.119Z</time>
      </trkpt>
      <trkpt lat="54.86894" lon="25.27619">
        <ele>155.708954</ele>
        <time>2020-10-07T14:43:03.536Z</time>
      </trkpt>
      <trkpt lat="54.86879" lon="25.27722">
        <ele>155.789929</ele>
        <time>2020-10-07T14:43:18.973Z</time>
      </trkpt>
      <trkpt lat="54.86872" lon="25.27773">
        <ele>155.830837</ele>
        <time>2020-10-07T14:43:27.517Z</time>
      </trkpt>
      <trkpt lat="54.86869" lon="25.27797">
        <ele>155.9123</ele>
        <time>2020-10-07T14:43:31.504Z</time>
      </trkpt>
      <trkpt lat="54.86856" lon="25.27894">
        <ele>157.020393</ele>
        <time>2020-10-07T14:43:49.139Z</time>
      </trkpt>
      <trkpt lat="54.8684" lon="25.27999">
        <ele>158.219516</ele>
        <time>2020-10-07T14:44:08.910Z</time>
      </trkpt>
      <trkpt lat="54.86828" lon="25.2807">
        <ele>159.037698</ele>
        <time>2020-10-07T14:44:22.158Z</time>
      </trkpt>
      <trkpt lat="54.86826" lon="25.28078">
        <ele>159.131835</ele>
        <time>2020-10-07T14:44:23.584Z</time>
      </trkpt>
      <trkpt lat="54.86799" lon="25.28209">
        <ele>159.780883</ele>
        <time>2020-10-07T14:44:45.092Z</time>
      </trkpt>
      <trkpt lat="54.86746" lon="25.28435">
        <ele>160.448436</ele>
        <time>2020-10-07T14:45:17.408Z</time>
      </trkpt>
      <trkpt lat="54.86725" lon="25.28519">
        <ele>160.343904</ele>
        <time>2020-10-07T14:45:29.196Z</time>
      </trkpt>
      <trkpt lat="54.86636" lon="25.28857">
        <ele>159.238605</ele>
        <time>2020-10-07T14:46:13.744Z</time>
      </trkpt>
      <trkpt lat="54.86572" lon="25.29093">
        <ele>157.503888</ele>
        <time>2020-10-07T14:46:41.712Z</time>
      </trkpt>
      <trkpt lat="54.86545" lon="25.29211">
        <ele>156.46953</ele>
        <time>2020-10-07T14:46:55.145Z</time>
      </trkpt>
      <trkpt lat="54.86542" lon="25.29247">
        <ele>156.191029</ele>
        <time>2020-10-07T14:46:59.036Z</time>
      </trkpt>
      <trkpt lat="54.86547" lon="25.29297">
        <ele>155.902687</ele>
        <time>2020-10-07T14:47:04.226Z</time>
      </trkpt>
      <trkpt lat="54.86552" lon="25.29322">
        <ele>155.75406</ele>
        <time>2020-10-07T14:47:07.434Z</time>
      </trkpt>
      <trkpt lat="54.86558" lon="25.29344">
        <ele>155.618453</ele>
        <time>2020-10-07T14:47:09.743Z</time>
      </trkpt>
      <trkpt lat="54.86592" lon="25.29486">
        <ele>154.741818</ele>
        <time>2020-10-07T14:47:27.501Z</time>
      </trkpt>
      <trkpt lat="54.86595" lon="25.29511">
        <ele>154.5962</ele>
        <time>2020-10-07T14:47:30.164Z</time>
      </trkpt>
      <trkpt lat="54.86596" lon="25.29534">
        <ele>154.467846</ele>
        <time>2020-10-07T14:47:32.987Z</time>
      </trkpt>
      <trkpt lat="54.86593" lon="25.29668">
        <ele>154.694204</ele>
        <time>2020-10-07T14:47:49.795Z</time>
      </trkpt>
      <trkpt lat="54.86591" lon="25.29694">
        <ele>154.744385</ele>
        <time>2020-10-07T14:47:53.024Z</time>
      </trkpt>
      <trkpt lat="54.86587" lon="25.29723">
        <ele>154.800343</ele>
        <time>2020-10-07T14:47:57.486Z</time>
      </trkpt>
      <trkpt lat="54.86572" lon="25.29818">
        <ele>154.986757</ele>
        <time>2020-10-07T14:48:12.042Z</time>
      </trkpt>
      <trkpt lat="54.86561" lon="25.29886">
        <ele>155.219635</ele>
        <time>2020-10-07T14:48:23.117Z</time>
      </trkpt>
      <trkpt lat="54.86543" lon="25.29999">
        <ele>155.714477</ele>
        <time>2020-10-07T14:48:41.414Z</time>
      </trkpt>
      <trkpt lat="54.86515" lon="25.3015">
        <ele>156.374244</ele>
        <time>2020-10-07T14:49:02.926Z</time>
      </trkpt>
      <trkpt lat="54.86508" lon="25.30167">
        <ele>156.442298</ele>
        <time>2020-10-07T14:49:05.802Z</time>
      </trkpt>
      <trkpt lat="54.86501" lon="25.30187">
        <ele>156.516929</ele>
        <time>2020-10-07T14:49:08.650Z</time>
      </trkpt>
      <trkpt lat="54.86496" lon="25.30189">
        <ele>156.545623</ele>
        <time>2020-10-07T14:49:09.789Z</time>
      </trkpt>
      <trkpt lat="54.86491" lon="25.30198">
        <ele>156.587768</ele>
        <time>2020-10-07T14:49:11.630Z</time>
      </trkpt>
      <trkpt lat="54.86489" lon="25.30205">
        <ele>156.614971</ele>
        <time>2020-10-07T14:49:12.784Z</time>
      </trkpt>
      <trkpt lat="54.86491" lon="25.30216">
        <ele>156.650572</ele>
        <time>2020-10-07T14:49:14.346Z</time>
      </trkpt>
      <trkpt lat="54.86491" lon="25.30224">
        <ele>156.677642</ele>
        <time>2020-10-07T14:49:15.457Z</time>
      </trkpt>
      <trkpt lat="54.86488" lon="25.3024">
        <ele>156.730529</ele>
        <time>2020-10-07T14:49:17.420Z</time>
      </trkpt>
      <trkpt lat="54.8648" lon="25.30272">
        <ele>156.844544</ele>
        <time>2020-10-07T14:49:22.337Z</time>
      </trkpt>
      <trkpt lat="54.86475" lon="25.30284">
        <ele>156.891551</ele>
        <time>2020-10-07T14:49:24.244Z</time>
      </trkpt>
      <trkpt lat="54.86469" lon="25.3029">
        <ele>156.933416</ele>
        <time>2020-10-07T14:49:25.861Z</time>
      </trkpt>
      <trkpt lat="54.86465" lon="25.30297">
        <ele>156.964045</ele>
        <time>2020-10-07T14:49:27.204Z</time>
      </trkpt>
      <trkpt lat="54.86468" lon="25.30322">
        <ele>157.047174</ele>
        <time>2020-10-07T14:49:30.940Z</time>
      </trkpt>
      <trkpt lat="54.8647" lon="25.30327">
        <ele>157.069237</ele>
        <time>2020-10-07T14:49:31.890Z</time>
      </trkpt>
      <trkpt lat="54.86472" lon="25.30349">
        <ele>157.14149</ele>
        <time>2020-10-07T14:49:34.867Z</time>
      </trkpt>
      <trkpt lat="54.86474" lon="25.30378">
        <ele>157.236171</ele>
        <time>2020-10-07T14:49:39.307Z</time>
      </trkpt>
      <trkpt lat="54.86463" lon="25.30463">
        <ele>157.903513</ele>
        <time>2020-10-07T14:49:52.788Z</time>
      </trkpt>
      <trkpt lat="54.86452" lon="25.30586">
        <ele>159.31928</ele>
        <time>2020-10-07T14:50:14.269Z</time>
      </trkpt>
      <trkpt lat="54.86445" lon="25.3082">
        <ele>161.943551</ele>
        <time>2020-10-07T14:50:57.720Z</time>
      </trkpt>
      <trkpt lat="54.86428" lon="25.30961">
        <ele>163.510315</ele>
        <time>2020-10-07T14:51:23.263Z</time>
      </trkpt>
      <trkpt lat="54.8638" lon="25.31175">
        <ele>164.526783</ele>
        <time>2020-10-07T14:51:57.613Z</time>
      </trkpt>
      <trkpt lat="54.86368" lon="25.31252">
        <ele>164.630217</ele>
        <time>2020-10-07T14:52:07.743Z</time>
      </trkpt>
      <trkpt lat="54.86336" lon="25.31589">
        <ele>163.136596</ele>
        <time>2020-10-07T14:52:46.204Z</time>
      </trkpt>
      <trkpt lat="54.86334" lon="25.31647">
        <ele>162.745511</ele>
        <time>2020-10-07T14:52:52.277Z</time>
      </trkpt>
      <trkpt lat="54.86338" lon="25.31734">
        <ele>161.702178</ele>
        <time>2020-10-07T14:53:01.323Z</time>
      </trkpt>
      <trkpt lat="54.86345" lon="25.31871">
        <ele>160.055063</ele>
        <time>2020-10-07T14:53:15.142Z</time>
      </trkpt>
      <trkpt lat="54.86359" lon="25.32148">
        <ele>156.445639</ele>
        <time>2020-10-07T14:53:42.331Z</time>
      </trkpt>
      <trkpt lat="54.86397" lon="25.3287">
        <ele>148.075688</ele>
        <time>2020-10-07T14:54:56.146Z</time>
      </trkpt>
      <trkpt lat="54.86398" lon="25.3288">
        <ele>147.962934</ele>
        <time>2020-10-07T14:54:57.241Z</time>
      </trkpt>
      <trkpt lat="54.86407" lon="25.33036">
        <ele>146.421001</ele>
        <time>2020-10-07T14:55:13.614Z</time>
      </trkpt>
      <trkpt lat="54.86415" lon="25.331">
        <ele>145.771572</ele>
        <time>2020-10-07T14:55:20.515Z</time>
      </trkpt>
      <trkpt lat="54.86433" lon="25.33157">
        <ele>145.132899</ele>
        <time>2020-10-07T14:55:27.323Z</time>
      </trkpt>
      <trkpt lat="54.86447" lon="25.33193">
        <ele>144.7209</ele>
        <time>2020-10-07T14:55:31.780Z</time>
      </trkpt>
      <trkpt lat="54.86488" lon="25.33268">
        <ele>143.788374</ele>
        <time>2020-10-07T14:55:42.539Z</time>
      </trkpt>
      <trkpt lat="54.8661" lon="25.33441">
        <ele>141.624829</ele>
        <time>2020-10-07T14:56:11.517Z</time>
      </trkpt>
      <trkpt lat="54.86646" lon="25.33493">
        <ele>141.211521</ele>
        <time>2020-10-07T14:56:20.591Z</time>
      </trkpt>
      <trkpt lat="54.86661" lon="25.33517">
        <ele>141.034364</ele>
        <time>2020-10-07T14:56:24.616Z</time>
      </trkpt>
      <trkpt lat="54.86669" lon="25.33532">
        <ele>140.92734</ele>
        <time>2020-10-07T14:56:26.980Z</time>
      </trkpt>
      <trkpt lat="54.86682" lon="25.33558">
        <ele>140.751633</ele>
        <time>2020-10-07T14:56:31.053Z</time>
      </trkpt>
      <trkpt lat="54.86708" lon="25.3364">
        <ele>140.393967</ele>
        <time>2020-10-07T14:56:42.156Z</time>
      </trkpt>
      <trkpt lat="54.8672" lon="25.33705">
        <ele>140.310882</ele>
        <time>2020-10-07T14:56:50.558Z</time>
      </trkpt>
      <trkpt lat="54.86728" lon="25.33789">
        <ele>140.207157</ele>
        <time>2020-10-07T14:57:01.384Z</time>
      </trkpt>
      <trkpt lat="54.86728" lon="25.33886">
        <ele>140.088078</ele>
        <time>2020-10-07T14:57:13.890Z</time>
      </trkpt>
      <trkpt lat="54.86724" lon="25.33988">
        <ele>140.160155</ele>
        <time>2020-10-07T14:57:26.131Z</time>
      </trkpt>
      <trkpt lat="54.8672" lon="25.34075">
        <ele>140.296068</ele>
        <time>2020-10-07T14:57:37.580Z</time>
      </trkpt>
      <trkpt lat="54.86719" lon="25.34106">
        <ele>140.343285</ele>
        <time>2020-10-07T14:57:41.582Z</time>
      </trkpt>
      <trkpt lat="54.86716" lon="25.34171">
        <ele>140.444209</ele>
        <time>2020-10-07T14:57:50.598Z</time>
      </trkpt>
      <trkpt lat="54.86717" lon="25.34215">
        <ele>140.512347</ele>
        <time>2020-10-07T14:57:57.288Z</time>
      </trkpt>
      <trkpt lat="54.86719" lon="25.34238">
        <ele>140.647927</ele>
        <time>2020-10-07T14:58:00.505Z</time>
      </trkpt>
      <trkpt lat="54.86721" lon="25.34258">
        <ele>140.88816</ele>
        <time>2020-10-07T14:58:03.613Z</time>
      </trkpt>
      <trkpt lat="54.86725" lon="25.34285">
        <ele>141.226954</ele>
        <time>2020-10-07T14:58:08.157Z</time>
      </trkpt>
      <trkpt lat="54.86745" lon="25.34363">
        <ele>142.255082</ele>
        <time>2020-10-07T14:58:21.558Z</time>
      </trkpt>
      <trkpt lat="54.86759" lon="25.34408">
        <ele>142.864334</ele>
        <time>2020-10-07T14:58:30.508Z</time>
      </trkpt>
      <trkpt lat="54.86779" lon="25.34467">
        <ele>143.691334</ele>
        <time>2020-10-07T14:58:43.903Z</time>
      </trkpt>
      <trkpt lat="54.86817" lon="25.34564">
        <ele>145.358677</ele>
        <time>2020-10-07T14:59:08.984Z</time>
      </trkpt>
      <trkpt lat="54.86893" lon="25.34755">
        <ele>149.040448</ele>
        <time>2020-10-07T14:59:54.452Z</time>
      </trkpt>
      <trkpt lat="54.86997" lon="25.35014">
        <ele>150.607646</ele>
        <time>2020-10-07T15:00:40.595Z</time>
      </trkpt>
      <trkpt lat="54.8704" lon="25.35127">
        <ele>150.017661</ele>
        <time>2020-10-07T15:00:56.039Z</time>
      </trkpt>
      <trkpt lat="54.87065" lon="25.35202">
        <ele>149.582895</ele>
        <time>2020-10-07T15:01:05.601Z</time>
      </trkpt>
      <trkpt lat="54.8714" lon="25.3551">
        <ele>147.348715</ele>
        <time>2020-10-07T15:01:41.386Z</time>
      </trkpt>
      <trkpt lat="54.87186" lon="25.357">
        <ele>146.284817</ele>
        <time>2020-10-07T15:02:04.394Z</time>
      </trkpt>
      <trkpt lat="54.87197" lon="25.35746">
        <ele>146.095686</ele>
        <time>2020-10-07T15:02:10.272Z</time>
      </trkpt>
      <trkpt lat="54.87224" lon="25.35906">
        <ele>145.554321</ele>
        <time>2020-10-07T15:02:30.534Z</time>
      </trkpt>
      <trkpt lat="54.87243" lon="25.36059">
        <ele>145.390876</ele>
        <time>2020-10-07T15:02:50.169Z</time>
      </trkpt>
      <trkpt lat="54.87247" lon="25.36108">
        <ele>145.339599</ele>
        <time>2020-10-07T15:02:56.392Z</time>
      </trkpt>
      <trkpt lat="54.8725" lon="25.36151">
        <ele>145.293561</ele>
        <time>2020-10-07T15:03:01.919Z</time>
      </trkpt>
      <trkpt lat="54.87251" lon="25.36182">
        <ele>145.261525</ele>
        <time>2020-10-07T15:03:05.811Z</time>
      </trkpt>
      <trkpt lat="54.87252" lon="25.36214">
        <ele>145.145971</ele>
        <time>2020-10-07T15:03:09.665Z</time>
      </trkpt>
      <trkpt lat="54.87251" lon="25.36242">
        <ele>145.045674</ele>
        <time>2020-10-07T15:03:13.044Z</time>
      </trkpt>
      <trkpt lat="54.87234" lon="25.36328">
        <ele>144.712141</ele>
        <time>2020-10-07T15:03:23.734Z</time>
      </trkpt>
      <trkpt lat="54.87215" lon="25.36394">
        <ele>144.443109</ele>
        <time>2020-10-07T15:03:32.202Z</time>
      </trkpt>
      <trkpt lat="54.87187" lon="25.36484">
        <ele>144.044506</ele>
        <time>2020-10-07T15:03:43.749Z</time>
      </trkpt>
      <trkpt lat="54.87144" lon="25.36628">
        <ele>143.157922</ele>
        <time>2020-10-07T15:04:01.739Z</time>
      </trkpt>
      <trkpt lat="54.87128" lon="25.36678">
        <ele>142.848588</ele>
        <time>2020-10-07T15:04:08.019Z</time>
      </trkpt>
      <trkpt lat="54.87095" lon="25.36786">
        <ele>142.24948</ele>
        <time>2020-10-07T15:04:22.128Z</time>
      </trkpt>
      <trkpt lat="54.87022" lon="25.37039">
        <ele>141.163564</ele>
        <time>2020-10-07T15:04:55.054Z</time>
      </trkpt>
      <trkpt lat="54.87017" lon="25.37055">
        <ele>141.097939</ele>
        <time>2020-10-07T15:04:57.071Z</time>
      </trkpt>
      <trkpt lat="54.87001" lon="25.37119">
        <ele>140.836601</ele>
        <time>2020-10-07T15:05:05.162Z</time>
      </trkpt>
      <trkpt lat="54.86985" lon="25.37189">
        <ele>140.553195</ele>
        <time>2020-10-07T15:05:13.945Z</time>
      </trkpt>
      <trkpt lat="54.86946" lon="25.37367">
        <ele>139.935909</ele>
        <time>2020-10-07T15:05:36.169Z</time>
      </trkpt>
      <trkpt lat="54.8693" lon="25.37466">
        <ele>139.730232</ele>
        <time>2020-10-07T15:05:48.744Z</time>
      </trkpt>
      <trkpt lat="54.86898" lon="25.37679">
        <ele>139.298676</ele>
        <time>2020-10-07T15:06:15.755Z</time>
      </trkpt>
      <trkpt lat="54.86863" lon="25.37897">
        <ele>138.879577</ele>
        <time>2020-10-07T15:06:43.296Z</time>
      </trkpt>
      <trkpt lat="54.86842" lon="25.38028">
        <ele>138.555438</ele>
        <time>2020-10-07T15:06:59.706Z</time>
      </trkpt>
      <trkpt lat="54.86827" lon="25.38122">
        <ele>138.310957</ele>
        <time>2020-10-07T15:07:11.642Z</time>
      </trkpt>
      <trkpt lat="54.86796" lon="25.38313">
        <ele>137.98886</ele>
        <time>2020-10-07T15:07:34.844Z</time>
      </trkpt>
      <trkpt lat="54.86795" lon="25.38319">
        <ele>137.984889</ele>
        <time>2020-10-07T15:07:35.466Z</time>
      </trkpt>
      <trkpt lat="54.86746" lon="25.38645">
        <ele>138.383257</ele>
        <time>2020-10-07T15:08:19.412Z</time>
      </trkpt>
      <trkpt lat="54.86709" lon="25.38894">
        <ele>139.111892</ele>
        <time>2020-10-07T15:08:59.956Z</time>
      </trkpt>
      <trkpt lat="54.86697" lon="25.38949">
        <ele>139.065817</ele>
        <time>2020-10-07T15:09:09.104Z</time>
      </trkpt>
      <trkpt lat="54.86603" lon="25.39278">
        <ele>136.523956</ele>
        <time>2020-10-07T15:09:49.261Z</time>
      </trkpt>
      <trkpt lat="54.86597" lon="25.39293">
        <ele>136.283821</ele>
        <time>2020-10-07T15:09:51.115Z</time>
      </trkpt>
      <trkpt lat="54.86586" lon="25.39315">
        <ele>135.919804</ele>
        <time>2020-10-07T15:09:53.920Z</time>
      </trkpt>
      <trkpt lat="54.86562" lon="25.39352">
        <ele>135.204243</ele>
        <time>2020-10-07T15:09:59.087Z</time>
      </trkpt>
      <trkpt lat="54.86445" lon="25.39493">
        <ele>127.997454</ele>
        <time>2020-10-07T15:10:20.544Z</time>
      </trkpt>
      <trkpt lat="54.86444" lon="25.39495">
        <ele>127.885815</ele>
        <time>2020-10-07T15:10:20.812Z</time>
      </trkpt>
      <trkpt lat="54.86409" lon="25.39555">
        <ele>125.259133</ele>
        <time>2020-10-07T15:10:28.047Z</time>
      </trkpt>
      <trkpt lat="54.86381" lon="25.39622">
        <ele>122.796849</ele>
        <time>2020-10-07T15:10:35.024Z</time>
      </trkpt>
      <trkpt lat="54.86368" lon="25.39675">
        <ele>121.050181</ele>
        <time>2020-10-07T15:10:39.943Z</time>
      </trkpt>
      <trkpt lat="54.8636" lon="25.39749">
        <ele>118.796172</ele>
        <time>2020-10-07T15:10:46.388Z</time>
      </trkpt>
      <trkpt lat="54.86362" lon="25.39885">
        <ele>115.21244</ele>
        <time>2020-10-07T15:10:58.779Z</time>
      </trkpt>
      <trkpt lat="54.86378" lon="25.40068">
        <ele>111.851193</ele>
        <time>2020-10-07T15:11:16.336Z</time>
      </trkpt>
      <trkpt lat="54.86371" lon="25.4007">
        <ele>111.647089</ele>
        <time>2020-10-07T15:11:17.332Z</time>
      </trkpt>
      <trkpt lat="54.86351" lon="25.40062">
        <ele>110.976425</ele>
        <time>2020-10-07T15:11:21.085Z</time>
      </trkpt>
      <trkpt lat="54.86343" lon="25.40052">
        <ele>110.667227</ele>
        <time>2020-10-07T15:11:22.698Z</time>
      </trkpt>
      <trkpt lat="54.86333" lon="25.40037">
        <ele>110.267872</ele>
        <time>2020-10-07T15:11:24.784Z</time>
      </trkpt>
      <trkpt lat="54.8628" lon="25.39926">
        <ele>108.241218</ele>
        <time>2020-10-07T15:11:38.820Z</time>
      </trkpt>
      <trkpt lat="54.86179" lon="25.39628">
        <ele>103.701441</ele>
        <time>2020-10-07T15:12:13.208Z</time>
      </trkpt>
      <trkpt lat="54.86144" lon="25.39495">
        <ele>101.992906</ele>
        <time>2020-10-07T15:12:28.183Z</time>
      </trkpt>
      <trkpt lat="54.86102" lon="25.3929">
        <ele>100.648033</ele>
        <time>2020-10-07T15:12:51.423Z</time>
      </trkpt>
      <trkpt lat="54.86046" lon="25.39127">
        <ele>100.545439</ele>
        <time>2020-10-07T15:13:15.440Z</time>
      </trkpt>
      <trkpt lat="54.86025" lon="25.39065">
        <ele>100.824183</ele>
        <time>2020-10-07T15:13:25.990Z</time>
      </trkpt>
      <trkpt lat="54.85973" lon="25.38939">
        <ele>101.550037</ele>
        <time>2020-10-07T15:13:50.319Z</time>
      </trkpt>
      <trkpt lat="54.85903" lon="25.38806">
        <ele>103.342765</ele>
        <time>2020-10-07T15:14:20.555Z</time>
      </trkpt>
      <trkpt lat="54.85867" lon="25.38701">
        <ele>104.578328</ele>
        <time>2020-10-07T15:14:41.509Z</time>
      </trkpt>
      <trkpt lat="54.85831" lon="25.38622">
        <ele>105.705024</ele>
        <time>2020-10-07T15:14:59.368Z</time>
      </trkpt>
      <trkpt lat="54.85726" lon="25.38403">
        <ele>108.465448</ele>
        <time>2020-10-07T15:15:48.676Z</time>
      </trkpt>
      <trkpt lat="54.85689" lon="25.38326">
        <ele>109.079001</ele>
        <time>2020-10-07T15:16:04.216Z</time>
      </trkpt>
      <trkpt lat="54.85652" lon="25.38248">
        <ele>109.699005</ele>
        <time>2020-10-07T15:16:18.641Z</time>
      </trkpt>
      <trkpt lat="54.85614" lon="25.38169">
        <ele>109.901255</ele>
        <time>2020-10-07T15:16:32.066Z</time>
      </trkpt>
      <trkpt lat="54.85576" lon="25.3809">
        <ele>109.960949</ele>
        <time>2020-10-07T15:16:45.050Z</time>
      </trkpt>
      <trkpt lat="54.85502" lon="25.37947">
        <ele>110.144491</ele>
        <time>2020-10-07T15:17:09.980Z</time>
      </trkpt>
      <trkpt lat="54.85438" lon="25.37838">
        <ele>110.423358</ele>
        <time>2020-10-07T15:17:31.485Z</time>
      </trkpt>
      <trkpt lat="54.85389" lon="25.37761">
        <ele>110.591361</ele>
        <time>2020-10-07T15:17:47.333Z</time>
      </trkpt>
      <trkpt lat="54.85364" lon="25.37723">
        <ele>110.566959</ele>
        <time>2020-10-07T15:17:55.020Z</time>
      </trkpt>
      <trkpt lat="54.85281" lon="25.37591">
        <ele>110.483248</ele>
        <time>2020-10-07T15:18:19.568Z</time>
      </trkpt>
      <trkpt lat="54.8524" lon="25.37557">
        <ele>110.36509</ele>
        <time>2020-10-07T15:18:29.036Z</time>
      </trkpt>
      <trkpt lat="54.85196" lon="25.37515">
        <ele>110.12566</ele>
        <time>2020-10-07T15:18:39.354Z</time>
      </trkpt>
      <trkpt lat="54.85167" lon="25.37488">
        <ele>109.96894</ele>
        <time>2020-10-07T15:18:46.193Z</time>
      </trkpt>
      <trkpt lat="54.85107" lon="25.37437">
        <ele>109.652975</ele>
        <time>2020-10-07T15:19:00.000Z</time>
      </trkpt>
      <trkpt lat="54.85019" lon="25.37379">
        <ele>108.910505</ele>
        <time>2020-10-07T15:19:19.092Z</time>
      </trkpt>
      <trkpt lat="54.84999" lon="25.37369">
        <ele>108.741623</ele>
        <time>2020-10-07T15:19:23.211Z</time>
      </trkpt>
      <trkpt lat="54.84955" lon="25.37358">
        <ele>108.377607</ele>
        <time>2020-10-07T15:19:31.807Z</time>
      </trkpt>
      <trkpt lat="54.84729" lon="25.37353">
        <ele>106.182227</ele>
        <time>2020-10-07T15:20:14.403Z</time>
      </trkpt>
      <trkpt lat="54.84659" lon="25.37338">
        <ele>106.293184</ele>
        <time>2020-10-07T15:20:29.710Z</time>
      </trkpt>
      <trkpt lat="54.84477" lon="25.37257">
        <ele>106.87662</ele>
        <time>2020-10-07T15:21:17.793Z</time>
      </trkpt>
      <trkpt lat="54.84382" lon="25.37207">
        <ele>107.126891</ele>
        <time>2020-10-07T15:21:41.274Z</time>
      </trkpt>
      <trkpt lat="54.8429" lon="25.37147">
        <ele>106.240218</ele>
        <time>2020-10-07T15:22:00.136Z</time>
      </trkpt>
      <trkpt lat="54.84247" lon="25.3713">
        <ele>105.840141</ele>
        <time>2020-10-07T15:22:08.395Z</time>
      </trkpt>
      <trkpt lat="54.84193" lon="25.37114">
        <ele>105.271261</ele>
        <time>2020-10-07T15:22:18.462Z</time>
      </trkpt>
      <trkpt lat="54.84189" lon="25.37112">
        <ele>105.228401</ele>
        <time>2020-10-07T15:22:19.187Z</time>
      </trkpt>
      <trkpt lat="54.84073" lon="25.37095">
        <ele>103.91537</ele>
        <time>2020-10-07T15:22:41.121Z</time>
      </trkpt>
      <trkpt lat="54.83956" lon="25.37084">
        <ele>103.384127</ele>
        <time>2020-10-07T15:23:05.591Z</time>
      </trkpt>
      <trkpt lat="54.83891" lon="25.37078">
        <ele>103.219733</ele>
        <time>2020-10-07T15:23:19.885Z</time>
      </trkpt>
      <trkpt lat="54.83838" lon="25.37074">
        <ele>103.254469</ele>
        <time>2020-10-07T15:23:31.676Z</time>
      </trkpt>
      <trkpt lat="54.83812" lon="25.37072">
        <ele>103.349345</ele>
        <time>2020-10-07T15:23:37.879Z</time>
      </trkpt>
      <trkpt lat="54.83752" lon="25.37068">
        <ele>103.559432</ele>
        <time>2020-10-07T15:23:52.151Z</time>
      </trkpt>
      <trkpt lat="54.83684" lon="25.37062">
        <ele>103.798735</ele>
        <time>2020-10-07T15:24:09.077Z</time>
      </trkpt>
      <trkpt lat="54.83657" lon="25.37057">
        <ele>103.887671</ele>
        <time>2020-10-07T15:24:15.451Z</time>
      </trkpt>
      <trkpt lat="54.83601" lon="25.37021">
        <ele>104.087323</ele>
        <time>2020-10-07T15:24:29.405Z</time>
      </trkpt>
      <trkpt lat="54.83539" lon="25.3698">
        <ele>104.309725</ele>
        <time>2020-10-07T15:24:45.308Z</time>
      </trkpt>
      <trkpt lat="54.83516" lon="25.36966">
        <ele>104.38981</ele>
        <time>2020-10-07T15:24:50.914Z</time>
      </trkpt>
      <trkpt lat="54.83483" lon="25.36945">
        <ele>104.30202</ele>
        <time>2020-10-07T15:24:59.241Z</time>
      </trkpt>
      <trkpt lat="54.83422" lon="25.36903">
        <ele>104.142225</ele>
        <time>2020-10-07T15:25:13.375Z</time>
      </trkpt>
      <trkpt lat="54.83404" lon="25.36892">
        <ele>104.094807</ele>
        <time>2020-10-07T15:25:17.365Z</time>
      </trkpt>
      <trkpt lat="54.8337" lon="25.3687">
        <ele>104.005391</ele>
        <time>2020-10-07T15:25:24.629Z</time>
      </trkpt>
      <trkpt lat="54.83315" lon="25.36837">
        <ele>103.881181</ele>
        <time>2020-10-07T15:25:36.391Z</time>
      </trkpt>
      <trkpt lat="54.83313" lon="25.36836">
        <ele>103.877623</ele>
        <time>2020-10-07T15:25:36.770Z</time>
      </trkpt>
      <trkpt lat="54.83285" lon="25.36817">
        <ele>103.819274</ele>
        <time>2020-10-07T15:25:42.971Z</time>
      </trkpt>
      <trkpt lat="54.83271" lon="25.36805">
        <ele>103.788079</ele>
        <time>2020-10-07T15:25:46.219Z</time>
      </trkpt>
      <trkpt lat="54.83237" lon="25.36765">
        <ele>103.708509</ele>
        <time>2020-10-07T15:25:54.754Z</time>
      </trkpt>
      <trkpt lat="54.83212" lon="25.36735">
        <ele>103.649201</ele>
        <time>2020-10-07T15:26:01.555Z</time>
      </trkpt>
      <trkpt lat="54.83165" lon="25.3668">
        <ele>103.852237</ele>
        <time>2020-10-07T15:26:15.521Z</time>
      </trkpt>
      <trkpt lat="54.83118" lon="25.36633">
        <ele>104.307877</ele>
        <time>2020-10-07T15:26:29.751Z</time>
      </trkpt>
      <trkpt lat="54.83089" lon="25.36614">
        <ele>104.561806</ele>
        <time>2020-10-07T15:26:38.007Z</time>
      </trkpt>
      <trkpt lat="54.83063" lon="25.36596">
        <ele>104.797314</ele>
        <time>2020-10-07T15:26:45.646Z</time>
      </trkpt>
      <trkpt lat="54.83029" lon="25.3657">
        <ele>105.096242</ele>
        <time>2020-10-07T15:26:55.207Z</time>
      </trkpt>
      <trkpt lat="54.83024" lon="25.36566">
        <ele>105.106181</ele>
        <time>2020-10-07T15:26:56.456Z</time>
      </trkpt>
      <trkpt lat="54.82974" lon="25.36509">
        <ele>105.228021</ele>
        <time>2020-10-07T15:27:11.390Z</time>
      </trkpt>
      <trkpt lat="54.82936" lon="25.3646">
        <ele>105.323932</ele>
        <time>2020-10-07T15:27:22.084Z</time>
      </trkpt>
      <trkpt lat="54.82931" lon="25.36454">
        <ele>105.336048</ele>
        <time>2020-10-07T15:27:23.183Z</time>
      </trkpt>
      <trkpt lat="54.82928" lon="25.36449">
        <ele>105.345402</ele>
        <time>2020-10-07T15:27:24.179Z</time>
      </trkpt>
      <trkpt lat="54.82913" lon="25.3643">
        <ele>105.382569</ele>
        <time>2020-10-07T15:27:28.078Z</time>
      </trkpt>
      <trkpt lat="54.8291" lon="25.36427">
        <ele>105.388791</ele>
        <time>2020-10-07T15:27:28.698Z</time>
      </trkpt>
      <trkpt lat="54.82892" lon="25.36404">
        <ele>105.435038</ele>
        <time>2020-10-07T15:27:33.289Z</time>
      </trkpt>
      <trkpt lat="54.82872" lon="25.3638">
        <ele>105.663885</ele>
        <time>2020-10-07T15:27:38.232Z</time>
      </trkpt>
      <trkpt lat="54.82854" lon="25.36357">
        <ele>106.010236</ele>
        <time>2020-10-07T15:27:43.175Z</time>
      </trkpt>
      <trkpt lat="54.82791" lon="25.3628">
        <ele>107.223128</ele>
        <time>2020-10-07T15:28:04.251Z</time>
      </trkpt>
      <trkpt lat="54.82768" lon="25.36247">
        <ele>107.681795</ele>
        <time>2020-10-07T15:28:13.843Z</time>
      </trkpt>
      <trkpt lat="54.8274" lon="25.36202">
        <ele>108.27612</ele>
        <time>2020-10-07T15:28:27.004Z</time>
      </trkpt>
      <trkpt lat="54.82721" lon="25.36168">
        <ele>109.22222</ele>
        <time>2020-10-07T15:28:37.101Z</time>
      </trkpt>
      <trkpt lat="54.82695" lon="25.36121">
        <ele>110.519464</ele>
        <time>2020-10-07T15:28:51.183Z</time>
      </trkpt>
      <trkpt lat="54.82628" lon="25.36007">
        <ele>113.741035</ele>
        <time>2020-10-07T15:29:27.405Z</time>
      </trkpt>
      <trkpt lat="54.82481" lon="25.35827">
        <ele>117.243294</ele>
        <time>2020-10-07T15:30:22.293Z</time>
      </trkpt>
      <trkpt lat="54.82408" lon="25.35735">
        <ele>117.171005</ele>
        <time>2020-10-07T15:30:41.107Z</time>
      </trkpt>
      <trkpt lat="54.8238" lon="25.35705">
        <ele>116.961656</ele>
        <time>2020-10-07T15:30:47.486Z</time>
      </trkpt>
      <trkpt lat="54.8236" lon="25.35693">
        <ele>116.829872</ele>
        <time>2020-10-07T15:30:51.362Z</time>
      </trkpt>
      <trkpt lat="54.82172" lon="25.35656">
        <ele>116.686145</ele>
        <time>2020-10-07T15:31:28.190Z</time>
      </trkpt>
      <trkpt lat="54.82149" lon="25.35641">
        <ele>116.723918</ele>
        <time>2020-10-07T15:31:35.467Z</time>
      </trkpt>
      <trkpt lat="54.82145" lon="25.35638">
        <ele>116.730373</ele>
        <time>2020-10-07T15:31:36.229Z</time>
      </trkpt>
      <trkpt lat="54.82131" lon="25.35625">
        <ele>116.755894</ele>
        <time>2020-10-07T15:31:42.410Z</time>
      </trkpt>
      <trkpt lat="54.82093" lon="25.35565">
        <ele>119.493972</ele>
        <time>2020-10-07T15:32:00.189Z</time>
      </trkpt>
      <trkpt lat="54.82033" lon="25.35396">
        <ele>125.866052</ele>
        <time>2020-10-07T15:32:56.306Z</time>
      </trkpt>
      <trkpt lat="54.82013" lon="25.35354">
        <ele>127.68453</ele>
        <time>2020-10-07T15:33:12.772Z</time>
      </trkpt>
      <trkpt lat="54.81993" lon="25.35315">
        <ele>129.556615</ele>
        <time>2020-10-07T15:33:28.900Z</time>
      </trkpt>
      <trkpt lat="54.81962" lon="25.35262">
        <ele>132.189137</ele>
        <time>2020-10-07T15:33:49.844Z</time>
      </trkpt>
      <trkpt lat="54.81939" lon="25.35228">
        <ele>134.095911</ele>
        <time>2020-10-07T15:34:04.860Z</time>
      </trkpt>
      <trkpt lat="54.81927" lon="25.35216">
        <ele>134.939031</ele>
        <time>2020-10-07T15:34:11.038Z</time>
      </trkpt>
      <trkpt lat="54.8192" lon="25.35214">
        <ele>135.374294</ele>
        <time>2020-10-07T15:34:14.224Z</time>
      </trkpt>
      <trkpt lat="54.8191" lon="25.35214">
        <ele>135.966159</ele>
        <time>2020-10-07T15:34:19.197Z</time>
      </trkpt>
      <trkpt lat="54.81788" lon="25.35242">
        <ele>140.236874</ele>
        <time>2020-10-07T15:35:05.756Z</time>
      </trkpt>
      <trkpt lat="54.81728" lon="25.35243">
        <ele>141.79205</ele>
        <time>2020-10-07T15:35:23.410Z</time>
      </trkpt>
      <trkpt lat="54.8169" lon="25.35233">
        <ele>142.318832</ele>
        <time>2020-10-07T15:35:33.183Z</time>
      </trkpt>
      <trkpt lat="54.81512" lon="25.35158">
        <ele>139.502603</ele>
        <time>2020-10-07T15:36:06.561Z</time>
      </trkpt>
      <trkpt lat="54.81457" lon="25.35141">
        <ele>137.573143</ele>
        <time>2020-10-07T15:36:15.405Z</time>
      </trkpt>
      <trkpt lat="54.81432" lon="25.35137">
        <ele>136.697119</ele>
        <time>2020-10-07T15:36:19.316Z</time>
      </trkpt>
      <trkpt lat="54.81247" lon="25.35144">
        <ele>130.802227</ele>
        <time>2020-10-07T15:36:48.555Z</time>
      </trkpt>
      <trkpt lat="54.81195" lon="25.35156">
        <ele>129.263262</ele>
        <time>2020-10-07T15:36:57.610Z</time>
      </trkpt>
      <trkpt lat="54.81144" lon="25.3517">
        <ele>128.193569</ele>
        <time>2020-10-07T15:37:07.174Z</time>
      </trkpt>
      <trkpt lat="54.80957" lon="25.35223">
        <ele>126.305647</ele>
        <time>2020-10-07T15:37:43.740Z</time>
      </trkpt>
      <trkpt lat="54.8091" lon="25.35236">
        <ele>126.066913</ele>
        <time>2020-10-07T15:37:53.689Z</time>
      </trkpt>
      <trkpt lat="54.80811" lon="25.35262">
        <ele>125.569199</ele>
        <time>2020-10-07T15:38:14.861Z</time>
      </trkpt>
      <trkpt lat="54.80755" lon="25.35276">
        <ele>125.225567</ele>
        <time>2020-10-07T15:38:26.679Z</time>
      </trkpt>
      <trkpt lat="54.80684" lon="25.35293">
        <ele>124.783747</ele>
        <time>2020-10-07T15:38:41.136Z</time>
      </trkpt>
      <trkpt lat="54.80664" lon="25.35295">
        <ele>124.659722</ele>
        <time>2020-10-07T15:38:45.058Z</time>
      </trkpt>
      <trkpt lat="54.80644" lon="25.35287">
        <ele>124.536298</ele>
        <time>2020-10-07T15:38:49.196Z</time>
      </trkpt>
      <trkpt lat="54.80598" lon="25.35256">
        <ele>124.78848</ele>
        <time>2020-10-07T15:38:58.835Z</time>
      </trkpt>
      <trkpt lat="54.80569" lon="25.35237">
        <ele>125.010503</ele>
        <time>2020-10-07T15:39:04.794Z</time>
      </trkpt>
      <trkpt lat="54.80436" lon="25.35146">
        <ele>127.182011</ele>
        <time>2020-10-07T15:39:46.149Z</time>
      </trkpt>
      <trkpt lat="54.80395" lon="25.35119">
        <ele>128.92663</ele>
        <time>2020-10-07T15:40:02.868Z</time>
      </trkpt>
      <trkpt lat="54.80364" lon="25.35098">
        <ele>130.238983</ele>
        <time>2020-10-07T15:40:16.218Z</time>
      </trkpt>
      <trkpt lat="54.80338" lon="25.3508">
        <ele>131.338934</ele>
        <time>2020-10-07T15:40:28.122Z</time>
      </trkpt>
      <trkpt lat="54.80269" lon="25.35009">
        <ele>134.483685</ele>
        <time>2020-10-07T15:41:03.587Z</time>
      </trkpt>
      <trkpt lat="54.80176" lon="25.34887">
        <ele>139.059777</ele>
        <time>2020-10-07T15:41:47.736Z</time>
      </trkpt>
      <trkpt lat="54.80173" lon="25.34855">
        <ele>139.789138</ele>
        <time>2020-10-07T15:41:53.661Z</time>
      </trkpt>
      <trkpt lat="54.80171" lon="25.34832">
        <ele>140.03308</ele>
        <time>2020-10-07T15:41:57.834Z</time>
      </trkpt>
      <trkpt lat="54.8017" lon="25.3482">
        <ele>140.109925</ele>
        <time>2020-10-07T15:42:00.007Z</time>
      </trkpt>
      <trkpt lat="54.80168" lon="25.34799">
        <ele>140.239625</ele>
        <time>2020-10-07T15:42:03.579Z</time>
      </trkpt>
      <trkpt lat="54.80166" lon="25.34781">
        <ele>140.355315</ele>
        <time>2020-10-07T15:42:06.738Z</time>
      </trkpt>
      <trkpt lat="54.80167" lon="25.3477">
        <ele>140.422945</ele>
        <time>2020-10-07T15:42:08.550Z</time>
      </trkpt>
      <trkpt lat="54.80166" lon="25.34758">
        <ele>140.499926</ele>
        <time>2020-10-07T15:42:10.583Z</time>
      </trkpt>
      <trkpt lat="54.80164" lon="25.34743">
        <ele>140.594107</ele>
        <time>2020-10-07T15:42:12.966Z</time>
      </trkpt>
      <trkpt lat="54.80159" lon="25.34728">
        <ele>140.701474</ele>
        <time>2020-10-07T15:42:15.675Z</time>
      </trkpt>
      <trkpt lat="54.80152" lon="25.34717">
        <ele>140.798215</ele>
        <time>2020-10-07T15:42:18.074Z</time>
      </trkpt>
      <trkpt lat="54.80119" lon="25.34673">
        <ele>141.25706</ele>
        <time>2020-10-07T15:42:28.698Z</time>
      </trkpt>
      <trkpt lat="54.80108" lon="25.3466">
        <ele>141.396366</ele>
        <time>2020-10-07T15:42:31.621Z</time>
      </trkpt>
      <trkpt lat="54.79879" lon="25.3436">
        <ele>141.866872</ele>
        <time>2020-10-07T15:43:35.479Z</time>
      </trkpt>
      <trkpt lat="54.79783" lon="25.34236">
        <ele>141.797074</ele>
        <time>2020-10-07T15:44:02.155Z</time>
      </trkpt>
      <trkpt lat="54.79773" lon="25.3423">
        <ele>141.761176</ele>
        <time>2020-10-07T15:44:04.367Z</time>
      </trkpt>
      <trkpt lat="54.79763" lon="25.34229">
        <ele>141.723241</ele>
        <time>2020-10-07T15:44:06.705Z</time>
      </trkpt>
      <trkpt lat="54.79725" lon="25.34241">
        <ele>141.586008</ele>
        <time>2020-10-07T15:44:15.010Z</time>
      </trkpt>
      <trkpt lat="54.79708" lon="25.34228">
        <ele>141.522529</ele>
        <time>2020-10-07T15:44:18.753Z</time>
      </trkpt>
      <trkpt lat="54.79651" lon="25.34106">
        <ele>141.198117</ele>
        <time>2020-10-07T15:44:37.735Z</time>
      </trkpt>
      <trkpt lat="54.79646" lon="25.34095">
        <ele>141.167485</ele>
        <time>2020-10-07T15:44:39.436Z</time>
      </trkpt>
      <trkpt lat="54.79595" lon="25.34003">
        <ele>140.838623</ele>
        <time>2020-10-07T15:44:53.724Z</time>
      </trkpt>
      <trkpt lat="54.79547" lon="25.33935">
        <ele>140.56139</ele>
        <time>2020-10-07T15:45:06.279Z</time>
      </trkpt>
      <trkpt lat="54.79519" lon="25.33921">
        <ele>140.428448</ele>
        <time>2020-10-07T15:45:12.649Z</time>
      </trkpt>
      <trkpt lat="54.79504" lon="25.33921">
        <ele>140.359707</ele>
        <time>2020-10-07T15:45:15.971Z</time>
      </trkpt>
      <trkpt lat="54.79466" lon="25.33932">
        <ele>140.950522</ele>
        <time>2020-10-07T15:45:24.921Z</time>
      </trkpt>
      <trkpt lat="54.79451" lon="25.33935">
        <ele>141.176863</ele>
        <time>2020-10-07T15:45:28.705Z</time>
      </trkpt>
      <trkpt lat="54.79444" lon="25.33933">
        <ele>141.285378</ele>
        <time>2020-10-07T15:45:30.389Z</time>
      </trkpt>
      <trkpt lat="54.79312" lon="25.33784">
        <ele>144.16497</ele>
        <time>2020-10-07T15:46:19.417Z</time>
      </trkpt>
      <trkpt lat="54.79235" lon="25.3374">
        <ele>146.348987</ele>
        <time>2020-10-07T15:46:48.831Z</time>
      </trkpt>
      <trkpt lat="54.79194" lon="25.33701">
        <ele>147.591323</ele>
        <time>2020-10-07T15:47:03.880Z</time>
      </trkpt>
      <trkpt lat="54.79177" lon="25.3368">
        <ele>148.033844</ele>
        <time>2020-10-07T15:47:09.713Z</time>
      </trkpt>
      <trkpt lat="54.79153" lon="25.33658">
        <ele>148.244401</ele>
        <time>2020-10-07T15:47:18.167Z</time>
      </trkpt>
      <trkpt lat="54.79123" lon="25.33662">
        <ele>148.471894</ele>
        <time>2020-10-07T15:47:26.784Z</time>
      </trkpt>
      <trkpt lat="54.79117" lon="25.33668">
        <ele>148.521035</ele>
        <time>2020-10-07T15:47:28.307Z</time>
      </trkpt>
      <trkpt lat="54.79116" lon="25.33669">
        <ele>148.533373</ele>
        <time>2020-10-07T15:47:28.542Z</time>
      </trkpt>
      <trkpt lat="54.79093" lon="25.33685">
        <ele>148.723889</ele>
        <time>2020-10-07T15:47:36.344Z</time>
      </trkpt>
      <trkpt lat="54.79055" lon="25.3372">
        <ele>149.048745</ele>
        <time>2020-10-07T15:47:46.604Z</time>
      </trkpt>
      <trkpt lat="54.79054" lon="25.33721">
        <ele>149.062233</ele>
        <time>2020-10-07T15:47:46.933Z</time>
      </trkpt>
      <trkpt lat="54.79021" lon="25.33749">
        <ele>149.340449</ele>
        <time>2020-10-07T15:47:54.013Z</time>
      </trkpt>
      <trkpt lat="54.78989" lon="25.33788">
        <ele>149.175435</ele>
        <time>2020-10-07T15:48:01.106Z</time>
      </trkpt>
      <trkpt lat="54.78985" lon="25.33792">
        <ele>149.153973</ele>
        <time>2020-10-07T15:48:02.264Z</time>
      </trkpt>
      <trkpt lat="54.78956" lon="25.33825">
        <ele>148.97883</ele>
        <time>2020-10-07T15:48:09.462Z</time>
      </trkpt>
      <trkpt lat="54.78865" lon="25.33828">
        <ele>148.525277</ele>
        <time>2020-10-07T15:48:42.100Z</time>
      </trkpt>
      <trkpt lat="54.78845" lon="25.33828">
        <ele>148.434306</ele>
        <time>2020-10-07T15:48:49.872Z</time>
      </trkpt>
      <trkpt lat="54.78815" lon="25.33828">
        <ele>148.322525</ele>
        <time>2020-10-07T15:49:00.455Z</time>
      </trkpt>
      <trkpt lat="54.78796" lon="25.33805">
        <ele>148.236043</ele>
        <time>2020-10-07T15:49:08.260Z</time>
      </trkpt>
      <trkpt lat="54.78771" lon="25.33788">
        <ele>148.137061</ele>
        <time>2020-10-07T15:49:17.714Z</time>
      </trkpt>
      <trkpt lat="54.78751" lon="25.33783">
        <ele>148.061384</ele>
        <time>2020-10-07T15:49:25.133Z</time>
      </trkpt>
      <trkpt lat="54.78734" lon="25.33755">
        <ele>147.972542</ele>
        <time>2020-10-07T15:49:33.676Z</time>
      </trkpt>
      <trkpt lat="54.78688" lon="25.3371">
        <ele>147.712642</ele>
        <time>2020-10-07T15:49:53.588Z</time>
      </trkpt>
      <trkpt lat="54.78645" lon="25.33671">
        <ele>146.821306</ele>
        <time>2020-10-07T15:50:09.793Z</time>
      </trkpt>
      <trkpt lat="54.78594" lon="25.33637">
        <ele>145.813573</ele>
        <time>2020-10-07T15:50:27.814Z</time>
      </trkpt>
      <trkpt lat="54.78567" lon="25.33625">
        <ele>145.300379</ele>
        <time>2020-10-07T15:50:36.724Z</time>
      </trkpt>
      <trkpt lat="54.78545" lon="25.33615">
        <ele>144.887775</ele>
        <time>2020-10-07T15:50:43.514Z</time>
      </trkpt>
      <trkpt lat="54.78505" lon="25.33621">
        <ele>143.551665</ele>
        <time>2020-10-07T15:50:55.293Z</time>
      </trkpt>
      <trkpt lat="54.78436" lon="25.33589">
        <ele>139.754712</ele>
        <time>2020-10-07T15:51:14.798Z</time>
      </trkpt>
      <trkpt lat="54.78399" lon="25.33561">
        <ele>137.633377</ele>
        <time>2020-10-07T15:51:25.150Z</time>
      </trkpt>
      <trkpt lat="54.78395" lon="25.33557">
        <ele>137.40005</ele>
        <time>2020-10-07T15:51:26.198Z</time>
      </trkpt>
      <trkpt lat="54.78378" lon="25.33543">
        <ele>136.387067</ele>
        <time>2020-10-07T15:51:31.597Z</time>
      </trkpt>
      <trkpt lat="54.78347" lon="25.33543">
        <ele>134.842569</ele>
        <time>2020-10-07T15:51:40.023Z</time>
      </trkpt>
      <trkpt lat="54.78348" lon="25.33532">
        <ele>134.680685</ele>
        <time>2020-10-07T15:51:40.920Z</time>
      </trkpt>
      <trkpt lat="54.78342" lon="25.33514">
        <ele>134.34919</ele>
        <time>2020-10-07T15:51:42.762Z</time>
      </trkpt>
      <trkpt lat="54.78339" lon="25.33514">
        <ele>134.271187</ele>
        <time>2020-10-07T15:51:43.136Z</time>
      </trkpt>
      <trkpt lat="54.78347" lon="25.33498">
        <ele>133.932926</ele>
        <time>2020-10-07T15:51:45.093Z</time>
      </trkpt>
      <trkpt lat="54.78353" lon="25.33485">
        <ele>133.682062</ele>
        <time>2020-10-07T15:51:46.577Z</time>
      </trkpt>
      <trkpt lat="54.78358" lon="25.33472">
        <ele>133.424909</ele>
        <time>2020-10-07T15:51:48.073Z</time>
      </trkpt>
      <trkpt lat="54.78361" lon="25.33462">
        <ele>133.249416</ele>
        <time>2020-10-07T15:51:48.938Z</time>
      </trkpt>
      <trkpt lat="54.78362" lon="25.33419">
        <ele>132.565929</ele>
        <time>2020-10-07T15:51:53.230Z</time>
      </trkpt>
      <trkpt lat="54.78359" lon="25.334">
        <ele>132.248038</ele>
        <time>2020-10-07T15:51:54.891Z</time>
      </trkpt>
      <trkpt lat="54.78357" lon="25.33392">
        <ele>132.111029</ele>
        <time>2020-10-07T15:51:55.817Z</time>
      </trkpt>
      <trkpt lat="54.78354" lon="25.33386">
        <ele>131.979104</ele>
        <time>2020-10-07T15:51:56.730Z</time>
      </trkpt>
      <trkpt lat="54.78342" lon="25.33373">
        <ele>131.592584</ele>
        <time>2020-10-07T15:52:01.707Z</time>
      </trkpt>
      <trkpt lat="54.78321" lon="25.33357">
        <ele>130.960943</ele>
        <time>2020-10-07T15:52:08.685Z</time>
      </trkpt>
      <trkpt lat="54.78315" lon="25.33346">
        <ele>130.714156</ele>
        <time>2020-10-07T15:52:11.948Z</time>
      </trkpt>
      <trkpt lat="54.78313" lon="25.33318">
        <ele>130.271419</ele>
        <time>2020-10-07T15:52:16.867Z</time>
      </trkpt>
      <trkpt lat="54.78352" lon="25.33224">
        <ele>131.191857</ele>
        <time>2020-10-07T15:52:47.443Z</time>
      </trkpt>
      <trkpt lat="54.78369" lon="25.33197">
        <ele>131.6884</ele>
        <time>2020-10-07T15:52:59.392Z</time>
      </trkpt>
      <trkpt lat="54.78435" lon="25.33142">
        <ele>133.264443</ele>
        <time>2020-10-07T15:53:37.096Z</time>
      </trkpt>
      <trkpt lat="54.78471" lon="25.33025">
        <ele>132.947112</ele>
        <time>2020-10-07T15:54:09.065Z</time>
      </trkpt>
      <trkpt lat="54.78472" lon="25.33019">
        <ele>132.874809</ele>
        <time>2020-10-07T15:54:11.093Z</time>
      </trkpt>
      <trkpt lat="54.78468" lon="25.32988">
        <ele>132.535631</ele>
        <time>2020-10-07T15:54:16.987Z</time>
      </trkpt>
      <trkpt lat="54.78459" lon="25.32827">
        <ele>130.819307</ele>
        <time>2020-10-07T15:54:33.056Z</time>
      </trkpt>
      <trkpt lat="54.78447" lon="25.32786">
        <ele>130.048391</ele>
        <time>2020-10-07T15:54:37.331Z</time>
      </trkpt>
      <trkpt lat="54.78439" lon="25.32775">
        <ele>129.621355</ele>
        <time>2020-10-07T15:54:38.914Z</time>
      </trkpt>
      <trkpt lat="54.78416" lon="25.32758">
        <ele>128.533404</ele>
        <time>2020-10-07T15:54:42.803Z</time>
      </trkpt>
      <trkpt lat="54.78369" lon="25.32736">
        <ele>126.431996</ele>
        <time>2020-10-07T15:54:50.143Z</time>
      </trkpt>
      <trkpt lat="54.78353" lon="25.32727">
        <ele>125.703712</ele>
        <time>2020-10-07T15:54:52.857Z</time>
      </trkpt>
      <trkpt lat="54.78317" lon="25.32707">
        <ele>124.079885</ele>
        <time>2020-10-07T15:54:59.178Z</time>
      </trkpt>
      <trkpt lat="54.78303" lon="25.32693">
        <ele>123.405402</ele>
        <time>2020-10-07T15:55:01.895Z</time>
      </trkpt>
      <trkpt lat="54.78284" lon="25.32662">
        <ele>123.253881</ele>
        <time>2020-10-07T15:55:06.859Z</time>
      </trkpt>
      <trkpt lat="54.78276" lon="25.32649">
        <ele>123.674695</ele>
        <time>2020-10-07T15:55:09.957Z</time>
      </trkpt>
      <trkpt lat="54.78274" lon="25.32642">
        <ele>123.838888</ele>
        <time>2020-10-07T15:55:10.819Z</time>
      </trkpt>
      <trkpt lat="54.78272" lon="25.32635">
        <ele>123.994408</ele>
        <time>2020-10-07T15:55:11.620Z</time>
      </trkpt>
      <trkpt lat="54.78271" lon="25.32618">
        <ele>124.361294</ele>
        <time>2020-10-07T15:55:14.178Z</time>
      </trkpt>
      <trkpt lat="54.78269" lon="25.32551">
        <ele>125.792808</ele>
        <time>2020-10-07T15:55:25.911Z</time>
      </trkpt>
      <trkpt lat="54.78273" lon="25.3254">
        <ele>126.058353</ele>
        <time>2020-10-07T15:55:30.156Z</time>
      </trkpt>
      <trkpt lat="54.78332" lon="25.32455">
        <ele>128.903306</ele>
        <time>2020-10-07T15:56:15.617Z</time>
      </trkpt>
      <trkpt lat="54.78339" lon="25.32421">
        <ele>130.073437</ele>
        <time>2020-10-07T15:56:31.216Z</time>
      </trkpt>
      <trkpt lat="54.78314" lon="25.32387">
        <ele>133.183415</ele>
        <time>2020-10-07T15:56:57.262Z</time>
      </trkpt>
      <trkpt lat="54.78276" lon="25.32337">
        <ele>137.768054</ele>
        <time>2020-10-07T15:57:35.515Z</time>
      </trkpt>
      <trkpt lat="54.78263" lon="25.32248">
        <ele>142.925586</ele>
        <time>2020-10-07T15:58:17.465Z</time>
      </trkpt>
      <trkpt lat="54.78249" lon="25.32167">
        <ele>147.369853</ele>
        <time>2020-10-07T15:58:54.014Z</time>
      </trkpt>
      <trkpt lat="54.7824" lon="25.32143">
        <ele>148.389242</ele>
        <time>2020-10-07T15:59:05.524Z</time>
      </trkpt>
      <trkpt lat="54.78223" lon="25.32139">
        <ele>149.528101</ele>
        <time>2020-10-07T15:59:18.037Z</time>
      </trkpt>
      <trkpt lat="54.782" lon="25.32147">
        <ele>151.004482</ele>
        <time>2020-10-07T15:59:34.179Z</time>
      </trkpt>
      <trkpt lat="54.7818" lon="25.32197">
        <ele>153.251939</ele>
        <time>2020-10-07T15:59:57.366Z</time>
      </trkpt>
      <trkpt lat="54.78125" lon="25.32199">
        <ele>156.80614</ele>
        <time>2020-10-07T16:00:28.993Z</time>
      </trkpt>
      <trkpt lat="54.78101" lon="25.32211">
        <ele>158.358902</ele>
        <time>2020-10-07T16:00:41.157Z</time>
      </trkpt>
      <trkpt lat="54.78067" lon="25.32241">
        <ele>159.389736</ele>
        <time>2020-10-07T16:00:59.527Z</time>
      </trkpt>
      <trkpt lat="54.78063" lon="25.32289">
        <ele>160.145278</ele>
        <time>2020-10-07T16:01:12.903Z</time>
      </trkpt>
      <trkpt lat="54.7804" lon="25.32324">
        <ele>160.95745</ele>
        <time>2020-10-07T16:01:27.126Z</time>
      </trkpt>
      <trkpt lat="54.78001" lon="25.32335">
        <ele>162.027486</ele>
        <time>2020-10-07T16:01:45.809Z</time>
      </trkpt>
      <trkpt lat="54.77909" lon="25.32258">
        <ele>164.312003</ele>
        <time>2020-10-07T16:02:33.299Z</time>
      </trkpt>
      <trkpt lat="54.77828" lon="25.3222">
        <ele>165.905117</ele>
        <time>2020-10-07T16:03:10.962Z</time>
      </trkpt>
      <trkpt lat="54.77761" lon="25.32205">
        <ele>166.74263</ele>
        <time>2020-10-07T16:03:39.489Z</time>
      </trkpt>
      <trkpt lat="54.77721" lon="25.32187">
        <ele>166.927423</ele>
        <time>2020-10-07T16:03:56.476Z</time>
      </trkpt>
      <trkpt lat="54.77602" lon="25.3206">
        <ele>166.907521</ele>
        <time>2020-10-07T16:04:48.676Z</time>
      </trkpt>
      <trkpt lat="54.7751" lon="25.32009">
        <ele>165.351693</ele>
        <time>2020-10-07T16:05:19.929Z</time>
      </trkpt>
      <trkpt lat="54.77437" lon="25.31952">
        <ele>163.524708</ele>
        <time>2020-10-07T16:05:44.209Z</time>
      </trkpt>
      <trkpt lat="54.77375" lon="25.31858">
        <ele>160.622089</ele>
        <time>2020-10-07T16:06:08.284Z</time>
      </trkpt>
      <trkpt lat="54.77321" lon="25.31763">
        <ele>157.825278</ele>
        <time>2020-10-07T16:06:30.360Z</time>
      </trkpt>
      <trkpt lat="54.77257" lon="25.31671">
        <ele>154.109113</ele>
        <time>2020-10-07T16:06:53.374Z</time>
      </trkpt>
      <trkpt lat="54.77182" lon="25.31596">
        <ele>150.226206</ele>
        <time>2020-10-07T16:07:17.409Z</time>
      </trkpt>
      <trkpt lat="54.77143" lon="25.3155">
        <ele>148.906193</ele>
        <time>2020-10-07T16:07:30.884Z</time>
      </trkpt>
      <trkpt lat="54.77087" lon="25.31486">
        <ele>147.101114</ele>
        <time>2020-10-07T16:07:51.030Z</time>
      </trkpt>
      <trkpt lat="54.77052" lon="25.31454">
        <ele>146.032338</ele>
        <time>2020-10-07T16:08:03.420Z</time>
      </trkpt>
      <trkpt lat="54.77021" lon="25.31426">
        <ele>145.281355</ele>
        <time>2020-10-07T16:08:14.681Z</time>
      </trkpt>
      <trkpt lat="54.76899" lon="25.31264">
        <ele>145.431839</ele>
        <time>2020-10-07T16:09:13.624Z</time>
      </trkpt>
      <trkpt lat="54.76847" lon="25.31179">
        <ele>145.897409</ele>
        <time>2020-10-07T16:09:42.635Z</time>
      </trkpt>
      <trkpt lat="54.76807" lon="25.31126">
        <ele>146.32874</ele>
        <time>2020-10-07T16:10:03.420Z</time>
      </trkpt>
      <trkpt lat="54.76757" lon="25.31059">
        <ele>146.866906</ele>
        <time>2020-10-07T16:10:29.375Z</time>
      </trkpt>
      <trkpt lat="54.76725" lon="25.31023">
        <ele>147.103379</ele>
        <time>2020-10-07T16:10:44.518Z</time>
      </trkpt>
      <trkpt lat="54.76677" lon="25.30943">
        <ele>147.416066</ele>
        <time>2020-10-07T16:11:10.898Z</time>
      </trkpt>
      <trkpt lat="54.76642" lon="25.3093">
        <ele>147.579506</ele>
        <time>2020-10-07T16:11:24.464Z</time>
      </trkpt>
      <trkpt lat="54.76619" lon="25.30922">
        <ele>147.691995</ele>
        <time>2020-10-07T16:11:33.592Z</time>
      </trkpt>
      <trkpt lat="54.76562" lon="25.3092">
        <ele>147.873489</ele>
        <time>2020-10-07T16:11:55.375Z</time>
      </trkpt>
      <trkpt lat="54.76387" lon="25.3097">
        <ele>148.051131</ele>
        <time>2020-10-07T16:13:02.202Z</time>
      </trkpt>
      <trkpt lat="54.76252" lon="25.30947">
        <ele>147.75612</ele>
        <time>2020-10-07T16:13:50.806Z</time>
      </trkpt>
      <trkpt lat="54.76241" lon="25.30945">
        <ele>147.731849</ele>
        <time>2020-10-07T16:13:53.931Z</time>
      </trkpt>
      <trkpt lat="54.76228" lon="25.30863">
        <ele>147.870328</ele>
        <time>2020-10-07T16:14:04.081Z</time>
      </trkpt>
      <trkpt lat="54.76208" lon="25.30778">
        <ele>148.080786</ele>
        <time>2020-10-07T16:14:16.130Z</time>
      </trkpt>
      <trkpt lat="54.76202" lon="25.30762">
        <ele>148.125013</ele>
        <time>2020-10-07T16:14:18.342Z</time>
      </trkpt>
      <trkpt lat="54.76194" lon="25.30746">
        <ele>148.173418</ele>
        <time>2020-10-07T16:14:21.399Z</time>
      </trkpt>
      <trkpt lat="54.76091" lon="25.30607">
        <ele>149.858551</ele>
        <time>2020-10-07T16:14:57.273Z</time>
      </trkpt>
      <trkpt lat="54.76071" lon="25.30588">
        <ele>150.362591</ele>
        <time>2020-10-07T16:15:05.229Z</time>
      </trkpt>
      <trkpt lat="54.76051" lon="25.3058">
        <ele>150.787807</ele>
        <time>2020-10-07T16:15:11.892Z</time>
      </trkpt>
      <trkpt lat="54.75946" lon="25.30573">
        <ele>152.743772</ele>
        <time>2020-10-07T16:15:46.680Z</time>
      </trkpt>
      <trkpt lat="54.75917" lon="25.3056">
        <ele>153.120509</ele>
        <time>2020-10-07T16:15:55.664Z</time>
      </trkpt>
      <trkpt lat="54.75886" lon="25.30536">
        <ele>153.547083</ele>
        <time>2020-10-07T16:16:05.136Z</time>
      </trkpt>
      <trkpt lat="54.75841" lon="25.30488">
        <ele>154.224923</ele>
        <time>2020-10-07T16:16:18.716Z</time>
      </trkpt>
      <trkpt lat="54.75728" lon="25.30367">
        <ele>154.015734</ele>
        <time>2020-10-07T16:16:46.400Z</time>
      </trkpt>
      <trkpt lat="54.75587" lon="25.30217">
        <ele>152.589504</ele>
        <time>2020-10-07T16:17:18.651Z</time>
      </trkpt>
      <trkpt lat="54.75534" lon="25.30157">
        <ele>151.870939</ele>
        <time>2020-10-07T16:17:30.858Z</time>
      </trkpt>
      <trkpt lat="54.75428" lon="25.30037">
        <ele>149.575341</ele>
        <time>2020-10-07T16:17:53.710Z</time>
      </trkpt>
      <trkpt lat="54.754" lon="25.29986">
        <ele>148.762388</ele>
        <time>2020-10-07T16:18:00.716Z</time>
      </trkpt>
      <trkpt lat="54.75322" lon="25.29788">
        <ele>145.640863</ele>
        <time>2020-10-07T16:18:24.164Z</time>
      </trkpt>
      <trkpt lat="54.75267" lon="25.29675">
        <ele>143.677321</ele>
        <time>2020-10-07T16:18:39.019Z</time>
      </trkpt>
      <trkpt lat="54.75246" lon="25.29643">
        <ele>143.398988</ele>
        <time>2020-10-07T16:18:43.882Z</time>
      </trkpt>
      <trkpt lat="54.7523" lon="25.2962">
        <ele>143.187187</ele>
        <time>2020-10-07T16:18:47.690Z</time>
      </trkpt>
      <trkpt lat="54.75216" lon="25.296">
        <ele>143.009297</ele>
        <time>2020-10-07T16:18:50.909Z</time>
      </trkpt>
      <trkpt lat="54.75198" lon="25.29568">
        <ele>142.743306</ele>
        <time>2020-10-07T16:18:55.898Z</time>
      </trkpt>
      <trkpt lat="54.7519" lon="25.2955">
        <ele>142.612736</ele>
        <time>2020-10-07T16:18:58.429Z</time>
      </trkpt>
      <trkpt lat="54.75185" lon="25.2956">
        <ele>142.533204</ele>
        <time>2020-10-07T16:18:59.988Z</time>
      </trkpt>
      <trkpt lat="54.75178" lon="25.29557">
        <ele>142.459658</ele>
        <time>2020-10-07T16:19:01.467Z</time>
      </trkpt>
      <trkpt lat="54.75168" lon="25.29553">
        <ele>142.360645</ele>
        <time>2020-10-07T16:19:03.574Z</time>
      </trkpt>
      <trkpt lat="54.75155" lon="25.29547">
        <ele>142.225869</ele>
        <time>2020-10-07T16:19:06.423Z</time>
      </trkpt>
      <trkpt lat="54.75139" lon="25.29541">
        <ele>142.052568</ele>
        <time>2020-10-07T16:19:10.131Z</time>
      </trkpt>
      <trkpt lat="54.75073" lon="25.2948">
        <ele>142.266877</ele>
        <time>2020-10-07T16:19:29.372Z</time>
      </trkpt>
      <trkpt lat="54.75068" lon="25.29475">
        <ele>142.301397</ele>
        <time>2020-10-07T16:19:30.988Z</time>
      </trkpt>
      <trkpt lat="54.75016" lon="25.29427">
        <ele>142.646036</ele>
        <time>2020-10-07T16:19:47.459Z</time>
      </trkpt>
      <trkpt lat="54.75006" lon="25.29402">
        <ele>142.749967</ele>
        <time>2020-10-07T16:19:51.496Z</time>
      </trkpt>
      <trkpt lat="54.75006" lon="25.29396">
        <ele>142.769719</ele>
        <time>2020-10-07T16:19:52.750Z</time>
      </trkpt>
      <trkpt lat="54.7501" lon="25.29385">
        <ele>142.811317</ele>
        <time>2020-10-07T16:19:55.140Z</time>
      </trkpt>
      <trkpt lat="54.75038" lon="25.29348">
        <ele>142.761303</ele>
        <time>2020-10-07T16:20:04.117Z</time>
      </trkpt>
      <trkpt lat="54.75042" lon="25.29304">
        <ele>142.196361</ele>
        <time>2020-10-07T16:20:09.282Z</time>
      </trkpt>
      <trkpt lat="54.75037" lon="25.29281">
        <ele>141.87807</ele>
        <time>2020-10-07T16:20:13.291Z</time>
      </trkpt>
      <trkpt lat="54.75032" lon="25.29252">
        <ele>141.495536</ele>
        <time>2020-10-07T16:20:16.395Z</time>
      </trkpt>
      <trkpt lat="54.74998" lon="25.29158">
        <ele>140.066367</ele>
        <time>2020-10-07T16:20:28.397Z</time>
      </trkpt>
      <trkpt lat="54.74982" lon="25.29123">
        <ele>139.490172</ele>
        <time>2020-10-07T16:20:32.813Z</time>
      </trkpt>
      <trkpt lat="54.74967" lon="25.29105">
        <ele>139.088079</ele>
        <time>2020-10-07T16:20:35.718Z</time>
      </trkpt>
      <trkpt lat="54.74866" lon="25.2903">
        <ele>131.095811</ele>
        <time>2020-10-07T16:20:52.423Z</time>
      </trkpt>
      <trkpt lat="54.74835" lon="25.29">
        <ele>128.407341</ele>
        <time>2020-10-07T16:20:57.552Z</time>
      </trkpt>
      <trkpt lat="54.74806" lon="25.28993">
        <ele>126.211752</ele>
        <time>2020-10-07T16:21:01.694Z</time>
      </trkpt>
      <trkpt lat="54.74792" lon="25.28996">
        <ele>125.116135</ele>
        <time>2020-10-07T16:21:03.675Z</time>
      </trkpt>
      <trkpt lat="54.74776" lon="25.28994">
        <ele>123.41624</ele>
        <time>2020-10-07T16:21:05.974Z</time>
      </trkpt>
      <trkpt lat="54.74761" lon="25.28997">
        <ele>121.802323</ele>
        <time>2020-10-07T16:21:08.244Z</time>
      </trkpt>
      <trkpt lat="54.74751" lon="25.28998">
        <ele>120.73942</ele>
        <time>2020-10-07T16:21:09.719Z</time>
      </trkpt>
      <trkpt lat="54.74744" lon="25.28995">
        <ele>120.000301</ele>
        <time>2020-10-07T16:21:10.705Z</time>
      </trkpt>
      <trkpt lat="54.74739" lon="25.28991">
        <ele>119.39896</ele>
        <time>2020-10-07T16:21:11.497Z</time>
      </trkpt>
      <trkpt lat="54.74733" lon="25.28986">
        <ele>118.732643</ele>
        <time>2020-10-07T16:21:12.439Z</time>
      </trkpt>
      <trkpt lat="54.74725" lon="25.28977">
        <ele>117.753541</ele>
        <time>2020-10-07T16:21:13.766Z</time>
      </trkpt>
      <trkpt lat="54.74691" lon="25.29016">
        <ele>113.520734</ele>
        <time>2020-10-07T16:21:23.558Z</time>
      </trkpt>
      <trkpt lat="54.74627" lon="25.29057">
        <ele>106.546126</ele>
        <time>2020-10-07T16:21:40.044Z</time>
      </trkpt>
      <trkpt lat="54.7461" lon="25.2908">
        <ele>105.485742</ele>
        <time>2020-10-07T16:21:45.505Z</time>
      </trkpt>
      <trkpt lat="54.746" lon="25.29093">
        <ele>104.892817</ele>
        <time>2020-10-07T16:21:48.540Z</time>
      </trkpt>
      <trkpt lat="54.74586" lon="25.29139">
        <ele>103.452175</ele>
        <time>2020-10-07T16:21:56.407Z</time>
      </trkpt>
      <trkpt lat="54.74583" lon="25.29144">
        <ele>103.241869</ele>
        <time>2020-10-07T16:21:57.278Z</time>
      </trkpt>
      <trkpt lat="54.74574" lon="25.29158">
        <ele>102.631258</ele>
        <time>2020-10-07T16:21:59.835Z</time>
      </trkpt>
      <trkpt lat="54.74567" lon="25.29148">
        <ele>102.195848</ele>
        <time>2020-10-07T16:22:01.214Z</time>
      </trkpt>
      <trkpt lat="54.74556" lon="25.29133">
        <ele>101.497214</ele>
        <time>2020-10-07T16:22:03.522Z</time>
      </trkpt>
      <trkpt lat="54.74548" lon="25.29126">
        <ele>101.074471</ele>
        <time>2020-10-07T16:22:04.872Z</time>
      </trkpt>
      <trkpt lat="54.74524" lon="25.29101">
        <ele>99.679788</ele>
        <time>2020-10-07T16:22:09.714Z</time>
      </trkpt>
      <trkpt lat="54.74516" lon="25.29094">
        <ele>99.255352</ele>
        <time>2020-10-07T16:22:11.166Z</time>
      </trkpt>
      <trkpt lat="54.74499" lon="25.29081">
        <ele>98.355966</ele>
        <time>2020-10-07T16:22:14.538Z</time>
      </trkpt>
      <trkpt lat="54.74485" lon="25.29073">
        <ele>98.047521</ele>
        <time>2020-10-07T16:22:17.109Z</time>
      </trkpt>
      <trkpt lat="54.7443" lon="25.29045">
        <ele>99.46032</ele>
        <time>2020-10-07T16:22:33.259Z</time>
      </trkpt>
      <trkpt lat="54.74399" lon="25.29028">
        <ele>100.271029</ele>
        <time>2020-10-07T16:22:45.633Z</time>
      </trkpt>
      <trkpt lat="54.74316" lon="25.29021">
        <ele>102.334772</ele>
        <time>2020-10-07T16:23:17.261Z</time>
      </trkpt>
      <trkpt lat="54.74266" lon="25.29023">
        <ele>103.536232</ele>
        <time>2020-10-07T16:23:35.943Z</time>
      </trkpt>
      <trkpt lat="54.742" lon="25.29025">
        <ele>105.149411</ele>
        <time>2020-10-07T16:23:57.764Z</time>
      </trkpt>
      <trkpt lat="54.74167" lon="25.29021">
        <ele>105.957032</ele>
        <time>2020-10-07T16:24:07.877Z</time>
      </trkpt>
      <trkpt lat="54.74147" lon="25.29017">
        <ele>106.442188</ele>
        <time>2020-10-07T16:24:13.521Z</time>
      </trkpt>
      <trkpt lat="54.74134" lon="25.29014">
        <ele>106.705493</ele>
        <time>2020-10-07T16:24:17.164Z</time>
      </trkpt>
      <trkpt lat="54.74097" lon="25.2899">
        <ele>106.241846</ele>
        <time>2020-10-07T16:24:25.723Z</time>
      </trkpt>
      <trkpt lat="54.74071" lon="25.28987">
        <ele>105.941878</ele>
        <time>2020-10-07T16:24:30.700Z</time>
      </trkpt>
      <trkpt lat="54.74003" lon="25.28987">
        <ele>105.137005</ele>
        <time>2020-10-07T16:24:43.332Z</time>
      </trkpt>
      <trkpt lat="54.73934" lon="25.28992">
        <ele>103.827484</ele>
        <time>2020-10-07T16:24:55.042Z</time>
      </trkpt>
      <trkpt lat="54.73812" lon="25.29006">
        <ele>99.850615</ele>
        <time>2020-10-07T16:25:14.653Z</time>
      </trkpt>
      <trkpt lat="54.73753" lon="25.28999">
        <ele>98.081551</ele>
        <time>2020-10-07T16:25:24.240Z</time>
      </trkpt>
      <trkpt lat="54.73699" lon="25.29034">
        <ele>96.602299</ele>
        <time>2020-10-07T16:25:33.607Z</time>
      </trkpt>
      <trkpt lat="54.73682" lon="25.29038">
        <ele>96.140135</ele>
        <time>2020-10-07T16:25:36.659Z</time>
      </trkpt>
      <trkpt lat="54.73659" lon="25.29042">
        <ele>95.558944</ele>
        <time>2020-10-07T16:25:40.407Z</time>
      </trkpt>
      <trkpt lat="54.73644" lon="25.29044">
        <ele>95.161584</ele>
        <time>2020-10-07T16:25:43.121Z</time>
      </trkpt>
      <trkpt lat="54.73609" lon="25.29046">
        <ele>94.239944</ele>
        <time>2020-10-07T16:25:49.347Z</time>
      </trkpt>
      <trkpt lat="54.73599" lon="25.29047">
        <ele>94.051396</ele>
        <time>2020-10-07T16:25:50.998Z</time>
      </trkpt>
      <trkpt lat="54.7346" lon="25.29057">
        <ele>92.809722</ele>
        <time>2020-10-07T16:26:17.872Z</time>
      </trkpt>
      <trkpt lat="54.73361" lon="25.29042">
        <ele>93.123879</ele>
        <time>2020-10-07T16:26:40.609Z</time>
      </trkpt>
      <trkpt lat="54.73318" lon="25.29045">
        <ele>93.564505</ele>
        <time>2020-10-07T16:26:51.295Z</time>
      </trkpt>
      <trkpt lat="54.73227" lon="25.29078">
        <ele>94.861843</ele>
        <time>2020-10-07T16:27:19.417Z</time>
      </trkpt>
      <trkpt lat="54.73168" lon="25.29132">
        <ele>96.718777</ele>
        <time>2020-10-07T16:27:40.837Z</time>
      </trkpt>
      <trkpt lat="54.73161" lon="25.29138">
        <ele>96.91907</ele>
        <time>2020-10-07T16:27:43.716Z</time>
      </trkpt>
      <trkpt lat="54.73161" lon="25.29131">
        <ele>97.035743</ele>
        <time>2020-10-07T16:27:45.128Z</time>
      </trkpt>
      <trkpt lat="54.73141" lon="25.29152">
        <ele>97.695354</ele>
        <time>2020-10-07T16:27:56.082Z</time>
      </trkpt>
      <trkpt lat="54.7311" lon="25.2918">
        <ele>98.671583</ele>
        <time>2020-10-07T16:28:13.119Z</time>
      </trkpt>
      <trkpt lat="54.72977" lon="25.29273">
        <ele>104.032967</ele>
        <time>2020-10-07T16:29:28.312Z</time>
      </trkpt>
      <trkpt lat="54.72916" lon="25.2932">
        <ele>106.682678</ele>
        <time>2020-10-07T16:30:04.450Z</time>
      </trkpt>
      <trkpt lat="54.72918" lon="25.29328">
        <ele>106.859731</ele>
        <time>2020-10-07T16:30:07.870Z</time>
      </trkpt>
      <trkpt lat="54.7292" lon="25.29335">
        <ele>107.040354</ele>
        <time>2020-10-07T16:30:10.240Z</time>
      </trkpt>
      <trkpt lat="54.72918" lon="25.29348">
        <ele>107.338176</ele>
        <time>2020-10-07T16:30:14.009Z</time>
      </trkpt>
      <trkpt lat="54.72924" lon="25.29411">
        <ele>108.720736</ele>
        <time>2020-10-07T16:30:34.372Z</time>
      </trkpt>
      <trkpt lat="54.72926" lon="25.29452">
        <ele>109.612058</ele>
        <time>2020-10-07T16:30:48.540Z</time>
      </trkpt>
      <trkpt lat="54.72923" lon="25.29552">
        <ele>111.768987</ele>
        <time>2020-10-07T16:31:19.459Z</time>
      </trkpt>
      <trkpt lat="54.7294" lon="25.29814">
        <ele>113.38459</ele>
        <time>2020-10-07T16:32:25.820Z</time>
      </trkpt>
      <trkpt lat="54.72946" lon="25.29906">
        <ele>113.463486</ele>
        <time>2020-10-07T16:32:43.327Z</time>
      </trkpt>
      <trkpt lat="54.72947" lon="25.29919">
        <ele>113.474269</ele>
        <time>2020-10-07T16:32:45.334Z</time>
      </trkpt>
      <trkpt lat="54.72949" lon="25.3017">
        <ele>108.695634</ele>
        <time>2020-10-07T16:33:27.665Z</time>
      </trkpt>
      <trkpt lat="54.72942" lon="25.30258">
        <ele>106.965511</ele>
        <time>2020-10-07T16:33:42.567Z</time>
      </trkpt>
      <trkpt lat="54.7293" lon="25.30313">
        <ele>105.866108</ele>
        <time>2020-10-07T16:33:52.173Z</time>
      </trkpt>
      <trkpt lat="54.72878" lon="25.30463">
        <ele>102.547741</ele>
        <time>2020-10-07T16:34:21.897Z</time>
      </trkpt>
      <trkpt lat="54.72871" lon="25.30488">
        <ele>102.016679</ele>
        <time>2020-10-07T16:34:26.801Z</time>
      </trkpt>
      <trkpt lat="54.72864" lon="25.30518">
        <ele>101.423143</ele>
        <time>2020-10-07T16:34:32.459Z</time>
      </trkpt>
      <trkpt lat="54.72847" lon="25.30586">
        <ele>100.503337</ele>
        <time>2020-10-07T16:34:45.729Z</time>
      </trkpt>
      <trkpt lat="54.72841" lon="25.30617">
        <ele>100.103807</ele>
        <time>2020-10-07T16:34:51.446Z</time>
      </trkpt>
      <trkpt lat="54.72835" lon="25.30649">
        <ele>99.676857</ele>
        <time>2020-10-07T16:34:57.673Z</time>
      </trkpt>
      <trkpt lat="54.72832" lon="25.3066">
        <ele>99.535697</ele>
        <time>2020-10-07T16:34:59.684Z</time>
      </trkpt>
      <trkpt lat="54.72814" lon="25.30726">
        <ele>98.632674</ele>
        <time>2020-10-07T16:35:12.612Z</time>
      </trkpt>
      <trkpt lat="54.72794" lon="25.30784">
        <ele>97.788411</ele>
        <time>2020-10-07T16:35:25.240Z</time>
      </trkpt>
      <trkpt lat="54.7278" lon="25.30813">
        <ele>97.457397</ele>
        <time>2020-10-07T16:35:32.525Z</time>
      </trkpt>
      <trkpt lat="54.72754" lon="25.30861">
        <ele>97.064847</ele>
        <time>2020-10-07T16:35:45.448Z</time>
      </trkpt>
      <trkpt lat="54.72745" lon="25.30879">
        <ele>96.922417</ele>
        <time>2020-10-07T16:35:50.148Z</time>
      </trkpt>
      <trkpt lat="54.72735" lon="25.30891">
        <ele>96.798279</ele>
        <time>2020-10-07T16:35:54.262Z</time>
      </trkpt>
      <trkpt lat="54.72649" lon="25.30992">
        <ele>95.719208</ele>
        <time>2020-10-07T16:36:29.707Z</time>
      </trkpt>
      <trkpt lat="54.72635" lon="25.31008">
        <ele>95.557276</ele>
        <time>2020-10-07T16:36:35.378Z</time>
      </trkpt>
      <trkpt lat="54.72594" lon="25.31055">
        <ele>95.071684</ele>
        <time>2020-10-07T16:36:52.162Z</time>
      </trkpt>
      <trkpt lat="54.72586" lon="25.31063">
        <ele>94.984872</ele>
        <time>2020-10-07T16:36:55.179Z</time>
      </trkpt>
      <trkpt lat="54.72585" lon="25.31065">
        <ele>94.971853</ele>
        <time>2020-10-07T16:36:55.603Z</time>
      </trkpt>
      <trkpt lat="54.72546" lon="25.3111">
        <ele>94.515996</ele>
        <time>2020-10-07T16:37:11.524Z</time>
      </trkpt>
      <trkpt lat="54.72517" lon="25.31133">
        <ele>94.201071</ele>
        <time>2020-10-07T16:37:22.441Z</time>
      </trkpt>
      <trkpt lat="54.72467" lon="25.31142">
        <ele>93.938247</ele>
        <time>2020-10-07T16:37:39.300Z</time>
      </trkpt>
      <trkpt lat="54.72415" lon="25.3113">
        <ele>93.884597</ele>
        <time>2020-10-07T16:37:57.319Z</time>
      </trkpt>
      <trkpt lat="54.72361" lon="25.31096">
        <ele>93.826348</ele>
        <time>2020-10-07T16:38:18.765Z</time>
      </trkpt>
      <trkpt lat="54.72348" lon="25.31087">
        <ele>93.812459</ele>
        <time>2020-10-07T16:38:24.069Z</time>
      </trkpt>
      <trkpt lat="54.72329" lon="25.31073">
        <ele>93.792001</ele>
        <time>2020-10-07T16:38:29.273Z</time>
      </trkpt>
      <trkpt lat="54.72256" lon="25.31018">
        <ele>95.114961</ele>
        <time>2020-10-07T16:38:51.736Z</time>
      </trkpt>
      <trkpt lat="54.72177" lon="25.30969">
        <ele>96.707598</ele>
        <time>2020-10-07T16:39:18.726Z</time>
      </trkpt>
      <trkpt lat="54.72074" lon="25.30945">
        <ele>97.986917</ele>
        <time>2020-10-07T16:39:50.784Z</time>
      </trkpt>
      <trkpt lat="54.72012" lon="25.30949">
        <ele>98.610146</ele>
        <time>2020-10-07T16:40:06.612Z</time>
      </trkpt>
      <trkpt lat="54.71966" lon="25.30963">
        <ele>98.917154</ele>
        <time>2020-10-07T16:40:16.962Z</time>
      </trkpt>
      <trkpt lat="54.71783" lon="25.31072">
        <ele>96.092676</ele>
        <time>2020-10-07T16:40:51.799Z</time>
      </trkpt>
      <trkpt lat="54.71737" lon="25.31095">
        <ele>95.363039</ele>
        <time>2020-10-07T16:41:00.251Z</time>
      </trkpt>
      <trkpt lat="54.7167" lon="25.31114">
        <ele>94.332926</ele>
        <time>2020-10-07T16:41:12.583Z</time>
      </trkpt>
      <trkpt lat="54.71588" lon="25.31112">
        <ele>93.561175</ele>
        <time>2020-10-07T16:41:28.421Z</time>
      </trkpt>
      <trkpt lat="54.71493" lon="25.31093">
        <ele>93.28926</ele>
        <time>2020-10-07T16:41:48.987Z</time>
      </trkpt>
      <trkpt lat="54.71427" lon="25.31071">
        <ele>93.19512</ele>
        <time>2020-10-07T16:42:04.908Z</time>
      </trkpt>
      <trkpt lat="54.71322" lon="25.3102">
        <ele>93.367954</ele>
        <time>2020-10-07T16:42:30.059Z</time>
      </trkpt>
      <trkpt lat="54.71291" lon="25.31004">
        <ele>93.419575</ele>
        <time>2020-10-07T16:42:37.400Z</time>
      </trkpt>
      <trkpt lat="54.71217" lon="25.30965">
        <ele>93.433372</ele>
        <time>2020-10-07T16:42:54.411Z</time>
      </trkpt>
      <trkpt lat="54.71125" lon="25.30957">
        <ele>93.412764</ele>
        <time>2020-10-07T16:43:14.543Z</time>
      </trkpt>
      <trkpt lat="54.71064" lon="25.30938">
        <ele>93.586684</ele>
        <time>2020-10-07T16:43:28.691Z</time>
      </trkpt>
      <trkpt lat="54.71032" lon="25.30907">
        <ele>93.776344</ele>
        <time>2020-10-07T16:43:37.615Z</time>
      </trkpt>
      <trkpt lat="54.70991" lon="25.30802">
        <ele>94.152618</ele>
        <time>2020-10-07T16:43:56.018Z</time>
      </trkpt>
      <trkpt lat="54.70979" lon="25.30783">
        <ele>94.236431</ele>
        <time>2020-10-07T16:44:00.236Z</time>
      </trkpt>
      <trkpt lat="54.70829" lon="25.30671">
        <ele>94.939203</ele>
        <time>2020-10-07T16:44:40.025Z</time>
      </trkpt>
      <trkpt lat="54.70673" lon="25.30587">
        <ele>95.35061</ele>
        <time>2020-10-07T16:45:17.034Z</time>
      </trkpt>
      <trkpt lat="54.70666" lon="25.30586">
        <ele>95.364453</ele>
        <time>2020-10-07T16:45:18.627Z</time>
      </trkpt>
      <trkpt lat="54.70655" lon="25.30585">
        <ele>95.386696</ele>
        <time>2020-10-07T16:45:21.136Z</time>
      </trkpt>
      <trkpt lat="54.70609" lon="25.30576">
        <ele>95.480019</ele>
        <time>2020-10-07T16:45:32.328Z</time>
      </trkpt>
      <trkpt lat="54.70574" lon="25.30568">
        <ele>95.549618</ele>
        <time>2020-10-07T16:45:40.954Z</time>
      </trkpt>
      <trkpt lat="54.70556" lon="25.30563">
        <ele>95.583477</ele>
        <time>2020-10-07T16:45:44.940Z</time>
      </trkpt>
      <trkpt lat="54.70521" lon="25.30534">
        <ele>95.659121</ele>
        <time>2020-10-07T16:45:53.990Z</time>
      </trkpt>
      <trkpt lat="54.70489" lon="25.30519">
        <ele>95.723442</ele>
        <time>2020-10-07T16:46:01.611Z</time>
      </trkpt>
      <trkpt lat="54.70472" lon="25.30515">
        <ele>95.757208</ele>
        <time>2020-10-07T16:46:05.686Z</time>
      </trkpt>
      <trkpt lat="54.70457" lon="25.30513">
        <ele>95.785335</ele>
        <time>2020-10-07T16:46:08.906Z</time>
      </trkpt>
      <trkpt lat="54.70399" lon="25.3051">
        <ele>95.62218</ele>
        <time>2020-10-07T16:46:21.520Z</time>
      </trkpt>
      <trkpt lat="54.70203" lon="25.30486">
        <ele>94.884587</ele>
        <time>2020-10-07T16:47:01.775Z</time>
      </trkpt>
      <trkpt lat="54.70096" lon="25.30443">
        <ele>94.46026</ele>
        <time>2020-10-07T16:47:25.190Z</time>
      </trkpt>
      <trkpt lat="54.70058" lon="25.30438">
        <ele>94.289455</ele>
        <time>2020-10-07T16:47:33.295Z</time>
      </trkpt>
      <trkpt lat="54.70024" lon="25.30426">
        <ele>94.132102</ele>
        <time>2020-10-07T16:47:40.433Z</time>
      </trkpt>
      <trkpt lat="54.69924" lon="25.30393">
        <ele>93.673136</ele>
        <time>2020-10-07T16:48:01.024Z</time>
      </trkpt>
      <trkpt lat="54.69919" lon="25.30391">
        <ele>93.647586</ele>
        <time>2020-10-07T16:48:02.285Z</time>
      </trkpt>
      <trkpt lat="54.69914" lon="25.30391">
        <ele>93.627803</ele>
        <time>2020-10-07T16:48:03.125Z</time>
      </trkpt>
      <trkpt lat="54.6991" lon="25.30395">
        <ele>93.63135</ele>
        <time>2020-10-07T16:48:04.112Z</time>
      </trkpt>
      <trkpt lat="54.69889" lon="25.3039">
        <ele>93.646191</ele>
        <time>2020-10-07T16:48:08.564Z</time>
      </trkpt>
      <trkpt lat="54.69859" lon="25.30395">
        <ele>93.668298</ele>
        <time>2020-10-07T16:48:15.197Z</time>
      </trkpt>
      <trkpt lat="54.69832" lon="25.30396">
        <ele>93.687844</ele>
        <time>2020-10-07T16:48:21.236Z</time>
      </trkpt>
      <trkpt lat="54.69821" lon="25.30394">
        <ele>93.696264</ele>
        <time>2020-10-07T16:48:23.862Z</time>
      </trkpt>
      <trkpt lat="54.69811" lon="25.30391">
        <ele>93.70335</ele>
        <time>2020-10-07T16:48:26.242Z</time>
      </trkpt>
      <trkpt lat="54.69774" lon="25.30369">
        <ele>93.732196</ele>
        <time>2020-10-07T16:48:35.384Z</time>
      </trkpt>
      <trkpt lat="54.69763" lon="25.30359">
        <ele>93.741264</ele>
        <time>2020-10-07T16:48:38.297Z</time>
      </trkpt>
      <trkpt lat="54.6974" lon="25.30337">
        <ele>93.762966</ele>
        <time>2020-10-07T16:48:44.806Z</time>
      </trkpt>
      <trkpt lat="54.69597" lon="25.30197">
        <ele>94.106949</ele>
        <time>2020-10-07T16:49:23.219Z</time>
      </trkpt>
      <trkpt lat="54.69581" lon="25.30181">
        <ele>94.122152</ele>
        <time>2020-10-07T16:49:27.114Z</time>
      </trkpt>
      <trkpt lat="54.69559" lon="25.3016">
        <ele>94.05469</ele>
        <time>2020-10-07T16:49:32.423Z</time>
      </trkpt>
      <trkpt lat="54.69524" lon="25.30128">
        <ele>93.949255</ele>
        <time>2020-10-07T16:49:40.889Z</time>
      </trkpt>
      <trkpt lat="54.69506" lon="25.30117">
        <ele>93.897523</ele>
        <time>2020-10-07T16:49:45.240Z</time>
      </trkpt>
      <trkpt lat="54.6948" lon="25.30085">
        <ele>93.811577</ele>
        <time>2020-10-07T16:49:52.222Z</time>
      </trkpt>
      <trkpt lat="54.69462" lon="25.30063">
        <ele>93.752812</ele>
        <time>2020-10-07T16:49:56.812Z</time>
      </trkpt>
      <trkpt lat="54.69433" lon="25.30021">
        <ele>93.64901</ele>
        <time>2020-10-07T16:50:05.059Z</time>
      </trkpt>
      <trkpt lat="54.69421" lon="25.30002">
        <ele>93.581058</ele>
        <time>2020-10-07T16:50:08.778Z</time>
      </trkpt>
      <trkpt lat="54.69384" lon="25.29944">
        <ele>93.370819</ele>
        <time>2020-10-07T16:50:19.545Z</time>
      </trkpt>
      <trkpt lat="54.69345" lon="25.29876">
        <ele>93.139378</ele>
        <time>2020-10-07T16:50:31.898Z</time>
      </trkpt>
      <trkpt lat="54.69329" lon="25.2984">
        <ele>93.027904</ele>
        <time>2020-10-07T16:50:37.667Z</time>
      </trkpt>
      <trkpt lat="54.69302" lon="25.2978">
        <ele>92.884125</ele>
        <time>2020-10-07T16:50:46.831Z</time>
      </trkpt>
      <trkpt lat="54.69294" lon="25.29764">
        <ele>92.873755</ele>
        <time>2020-10-07T16:50:49.406Z</time>
      </trkpt>
      <trkpt lat="54.69268" lon="25.29707">
        <ele>92.836853</ele>
        <time>2020-10-07T16:50:58.563Z</time>
      </trkpt>
      <trkpt lat="54.69244" lon="25.29654">
        <ele>92.803144</ele>
        <time>2020-10-07T16:51:07.431Z</time>
      </trkpt>
      <trkpt lat="54.69234" lon="25.29632">
        <ele>92.789187</ele>
        <time>2020-10-07T16:51:11.020Z</time>
      </trkpt>
      <trkpt lat="54.69228" lon="25.29618">
        <ele>92.780315</ele>
        <time>2020-10-07T16:51:13.768Z</time>
      </trkpt>
      <trkpt lat="54.69185" lon="25.29542">
        <ele>92.719524</ele>
        <time>2020-10-07T16:51:28.710Z</time>
      </trkpt>
      <trkpt lat="54.69177" lon="25.29529">
        <ele>92.702808</ele>
        <time>2020-10-07T16:51:31.866Z</time>
      </trkpt>
      <trkpt lat="54.69149" lon="25.29489">
        <ele>92.650137</ele>
        <time>2020-10-07T16:51:40.257Z</time>
      </trkpt>
      <trkpt lat="54.69112" lon="25.29438">
        <ele>92.580999</ele>
        <time>2020-10-07T16:51:51.250Z</time>
      </trkpt>
      <trkpt lat="54.69094" lon="25.29412">
        <ele>92.545688</ele>
        <time>2020-10-07T16:51:56.295Z</time>
      </trkpt>
      <trkpt lat="54.69057" lon="25.29358">
        <ele>92.474184</ele>
        <time>2020-10-07T16:52:07.171Z</time>
      </trkpt>
      <trkpt lat="54.6905" lon="25.29357">
        <ele>92.412524</ele>
        <time>2020-10-07T16:52:09.209Z</time>
      </trkpt>
      <trkpt lat="54.69033" lon="25.2935">
        <ele>92.255837</ele>
        <time>2020-10-07T16:52:15.516Z</time>
      </trkpt>
      <trkpt lat="54.69003" lon="25.29306">
        <ele>91.893041</ele>
        <time>2020-10-07T16:52:29.358Z</time>
      </trkpt>
      <trkpt lat="54.68986" lon="25.29272">
        <ele>91.66077</ele>
        <time>2020-10-07T16:52:37.704Z</time>
      </trkpt>
      <trkpt lat="54.68977" lon="25.29242">
        <ele>91.482782</ele>
        <time>2020-10-07T16:52:44.567Z</time>
      </trkpt>
      <trkpt lat="54.68955" lon="25.29156">
        <ele>90.989364</ele>
        <time>2020-10-07T16:53:02.402Z</time>
      </trkpt>
      <trkpt lat="54.68943" lon="25.29055">
        <ele>90.976578</ele>
        <time>2020-10-07T16:53:23.119Z</time>
      </trkpt>
      <trkpt lat="54.6894" lon="25.29">
        <ele>91.073677</ele>
        <time>2020-10-07T16:53:34.975Z</time>
      </trkpt>
      <trkpt lat="54.68939" lon="25.28982">
        <ele>91.105754</ele>
        <time>2020-10-07T16:53:38.903Z</time>
      </trkpt>
      <trkpt lat="54.68942" lon="25.28917">
        <ele>91.220484</ele>
        <time>2020-10-07T16:53:53.796Z</time>
      </trkpt>
      <trkpt lat="54.68947" lon="25.28858">
        <ele>91.324906</ele>
        <time>2020-10-07T16:54:07.682Z</time>
      </trkpt>
      <trkpt lat="54.68943" lon="25.2885">
        <ele>91.343136</ele>
        <time>2020-10-07T16:54:10.253Z</time>
      </trkpt>
      <trkpt lat="54.68922" lon="25.28844">
        <ele>91.495658</ele>
        <time>2020-10-07T16:54:19.697Z</time>
      </trkpt>
      <trkpt lat="54.68854" lon="25.28825">
        <ele>92.703977</ele>
        <time>2020-10-07T16:54:50.478Z</time>
      </trkpt>
      <trkpt lat="54.68836" lon="25.2882">
        <ele>93.02118</ele>
        <time>2020-10-07T16:54:59.098Z</time>
      </trkpt>
      <trkpt lat="54.68833" lon="25.28827">
        <ele>93.104471</ele>
        <time>2020-10-07T16:55:00.625Z</time>
      </trkpt>
      <trkpt lat="54.68822" lon="25.28838">
        <ele>93.320706</ele>
        <time>2020-10-07T16:55:04.219Z</time>
      </trkpt>
      <trkpt lat="54.68806" lon="25.28845">
        <ele>93.606287</ele>
        <time>2020-10-07T16:55:09.438Z</time>
      </trkpt>
      <trkpt lat="54.68802" lon="25.28828">
        <ele>93.796489</ele>
        <time>2020-10-07T16:55:14.497Z</time>
      </trkpt>
      <trkpt lat="54.68799" lon="25.28819">
        <ele>93.89463</ele>
        <time>2020-10-07T16:55:16.786Z</time>
      </trkpt>
      <trkpt lat="54.68793" lon="25.28805">
        <ele>94.07386</ele>
        <time>2020-10-07T16:55:21.454Z</time>
      </trkpt>
      <trkpt lat="54.68779" lon="25.28791">
        <ele>94.353335</ele>
        <time>2020-10-07T16:55:28.644Z</time>
      </trkpt>
      <trkpt lat="54.68751" lon="25.28759">
        <ele>94.68851</ele>
        <time>2020-10-07T16:55:43.098Z</time>
      </trkpt>
      <trkpt lat="54.68734" lon="25.28744">
        <ele>94.809392</ele>
        <time>2020-10-07T16:55:50.656Z</time>
      </trkpt>
      <trkpt lat="54.68718" lon="25.28729">
        <ele>94.926922</ele>
        <time>2020-10-07T16:55:58.235Z</time>
      </trkpt>
      <trkpt lat="54.68693" lon="25.28705">
        <ele>95.106759</ele>
        <time>2020-10-07T16:56:09.009Z</time>
      </trkpt>
      <trkpt lat="54.68674" lon="25.28688">
        <ele>95.246067</ele>
        <time>2020-10-07T16:56:17.515Z</time>
      </trkpt>
      <trkpt lat="54.68633" lon="25.28655">
        <ele>95.53827</ele>
        <time>2020-10-07T16:56:34.684Z</time>
      </trkpt>
      <trkpt lat="54.686" lon="25.28636">
        <ele>95.690422</ele>
        <time>2020-10-07T16:56:45.083Z</time>
      </trkpt>
      <trkpt lat="54.68581" lon="25.28624">
        <ele>95.690422</ele>
        <time>2020-10-07T16:56:50.946Z</time>
      </trkpt>
      <trkpt lat="54.68555" lon="25.28609">
        <ele>95.690422</ele>
        <time>2020-10-07T16:56:59.337Z</time>
      </trkpt>
      <trkpt lat="54.68551" lon="25.28606">
        <ele>95.690422</ele>
        <time>2020-10-07T16:57:00.870Z</time>
      </trkpt>
      <trkpt lat="54.68555" lon="25.2859">
        <ele>95.690422</ele>
        <time>2020-10-07T16:57:03.648Z</time>
      </trkpt>
      <trkpt lat="54.68541" lon="25.2858">
        <ele>95.690422</ele>
        <time>2020-10-07T16:57:07.802Z</time>
      </trkpt>
      <trkpt lat="54.68531" lon="25.28576">
        <ele>95.690422</ele>
        <time>2020-10-07T16:57:10.144Z</time>
      </trkpt>
      <trkpt lat="54.68523" lon="25.28573">
        <ele>95.690422</ele>
        <time>2020-10-07T16:57:12.433Z</time>
      </trkpt>
      <trkpt lat="54.68521" lon="25.28563">
        <ele>95.690422</ele>
        <time>2020-10-07T16:57:14.130Z</time>
      </trkpt>
      <trkpt lat="54.68519" lon="25.28555">
        <ele>95.690422</ele>
        <time>2020-10-07T16:57:15.287Z</time>
      </trkpt>
      <trkpt lat="54.68516" lon="25.28549">
        <ele>95.690422</ele>
        <time>2020-10-07T16:57:16.585Z</time>
      </trkpt>
      <trkpt lat="54.68502" lon="25.28528">
        <ele>95.690422</ele>
        <time>2020-10-07T16:57:21.441Z</time>
      </trkpt>
      <trkpt lat="54.6849" lon="25.28512">
        <ele>95.690422</ele>
        <time>2020-10-07T16:57:25.534Z</time>
      </trkpt>
      <trkpt lat="54.68471" lon="25.28489">
        <ele>95.690422</ele>
        <time>2020-10-07T16:57:32.007Z</time>
      </trkpt>
      <trkpt lat="54.68467" lon="25.28484">
        <ele>95.690422</ele>
        <time>2020-10-07T16:57:33.219Z</time>
      </trkpt>
      <trkpt lat="54.68435" lon="25.28446">
        <ele>95.690422</ele>
        <time>2020-10-07T16:57:44.223Z</time>
      </trkpt>
      <trkpt lat="54.68426" lon="25.28468">
        <ele>95.690422</ele>
        <time>2020-10-07T16:57:48.421Z</time>
      </trkpt>
      <trkpt lat="54.68426" lon="25.28482">
        <ele>95.690422</ele>
        <time>2020-10-07T16:57:50.767Z</time>
      </trkpt>
      <trkpt lat="54.68438" lon="25.28496">
        <ele>95.690422</ele>
        <time>2020-10-07T16:57:54.537Z</time>
      </trkpt>
    </trkseg>
  </trk>
</gpx>